<?xml version='1.0' encoding='UTF-8'?><gpx version="1.1" creator="JPX - https://github.com/jenetics/jpx" xmlns="http://www.topografix.com/GPX/1/1"><trk><trkseg><trkpt lat="-27.700362311956134" lon="114.16957902394178"><ele>11.0</ele><time>2026-04-15T02:18:39.001Z</time></trkpt><trkpt lat="-27.70043687704622" lon="114.16962603473333"><ele>11.0</ele><time>2026-04-15T02:20:37Z</time></trkpt><trkpt lat="-27.700485488661165" lon="114.16967671250747"><ele>11.0</ele><time>2026-04-15T02:20:39Z</time></trkpt><trkpt lat="-27.70049643050512" lon="114.169794491742"><ele>11.0</ele><time>2026-04-15T02:20:42Z</time></trkpt><trkpt lat="-27.7004599746309" lon="114.16991886803717"><ele>11.0</ele><time>2026-04-15T02:20:44Z</time></trkpt><trkpt lat="-27.700427427804847" lon="114.16998556847915"><ele>11.0</ele><time>2026-04-15T02:20:45Z</time></trkpt><trkpt lat="-27.700377266931547" lon="114.17004725919486"><ele>11.0</ele><time>2026-04-15T02:20:46Z</time></trkpt><trkpt lat="-27.700307680038932" lon="114.17011537750207"><ele>11.0</ele><time>2026-04-15T02:20:47Z</time></trkpt><trkpt lat="-27.700233242099614" lon="114.17018916543981"><ele>11.0</ele><time>2026-04-15T02:20:48Z</time></trkpt><trkpt lat="-27.70017168042169" lon="114.17025828602786"><ele>11.0</ele><time>2026-04-15T02:20:49Z</time></trkpt><trkpt lat="-27.70012286896501" lon="114.17031903037626"><ele>11.0</ele><time>2026-04-15T02:20:50Z</time></trkpt><trkpt lat="-27.700037092700406" lon="114.17037941910948"><ele>11.0</ele><time>2026-04-15T02:20:52Z</time></trkpt><trkpt lat="-27.699971047898618" lon="114.17028596420616"><ele>11.0</ele><time>2026-04-15T02:20:54Z</time></trkpt><trkpt lat="-27.699899746092186" lon="114.17022505744471"><ele>11.0</ele><time>2026-04-15T02:20:55Z</time></trkpt><trkpt lat="-27.699826943214568" lon="114.1701628691688"><ele>11.0</ele><time>2026-04-15T02:20:56Z</time></trkpt><trkpt lat="-27.699763476215395" lon="114.17011241662277"><ele>11.0</ele><time>2026-04-15T02:20:57Z</time></trkpt><trkpt lat="-27.699699404979988" lon="114.17008293357972"><ele>11.0</ele><time>2026-04-15T02:20:58Z</time></trkpt><trkpt lat="-27.699613097324864" lon="114.17000144441339"><ele>11.0</ele><time>2026-04-15T02:21:00Z</time></trkpt><trkpt lat="-27.699543851975932" lon="114.16993964796289"><ele>11.0</ele><time>2026-04-15T02:21:02Z</time></trkpt><trkpt lat="-27.6994745886773" lon="114.16987792152565"><ele>11.0</ele><time>2026-04-15T02:21:05Z</time></trkpt><trkpt lat="-27.69936582392819" lon="114.16999418163917"><ele>11.0</ele><time>2026-04-15T02:21:07Z</time></trkpt><trkpt lat="-27.69931286727144" lon="114.17006795729058"><ele>11.0</ele><time>2026-04-15T02:21:08Z</time></trkpt><trkpt lat="-27.699251209927436" lon="114.17014847975184"><ele>10.75</ele><time>2026-04-15T02:21:09Z</time></trkpt><trkpt lat="-27.699179119961524" lon="114.17025208551385"><ele>10.5</ele><time>2026-04-15T02:21:10Z</time></trkpt><trkpt lat="-27.699102859952323" lon="114.1703620495985"><ele>10.25</ele><time>2026-04-15T02:21:11Z</time></trkpt><trkpt lat="-27.699017342345645" lon="114.17048068113434"><ele>10.0</ele><time>2026-04-15T02:21:12Z</time></trkpt><trkpt lat="-27.698935039296593" lon="114.17059575671824"><ele>10.5</ele><time>2026-04-15T02:21:13Z</time></trkpt><trkpt lat="-27.698861004188224" lon="114.17069938523967"><ele>11.0</ele><time>2026-04-15T02:21:14Z</time></trkpt><trkpt lat="-27.69878287394169" lon="114.17080198099568"><ele>11.5</ele><time>2026-04-15T02:21:15Z</time></trkpt><trkpt lat="-27.69869954415991" lon="114.17091151186332"><ele>12.0</ele><time>2026-04-15T02:21:16Z</time></trkpt><trkpt lat="-27.69861922645649" lon="114.17102299491376"><ele>11.0</ele><time>2026-04-15T02:21:17Z</time></trkpt><trkpt lat="-27.698537652082578" lon="114.17114336505304"><ele>10.0</ele><time>2026-04-15T02:21:18Z</time></trkpt><trkpt lat="-27.698451161530077" lon="114.17126448032685"><ele>9.0</ele><time>2026-04-15T02:21:19Z</time></trkpt><trkpt lat="-27.69836608928135" lon="114.17138183567778"><ele>8.0</ele><time>2026-04-15T02:21:20Z</time></trkpt><trkpt lat="-27.6982856611499" lon="114.17148934839753"><ele>8.4</ele><time>2026-04-15T02:21:21Z</time></trkpt><trkpt lat="-27.69821377357542" lon="114.17158432259262"><ele>8.8</ele><time>2026-04-15T02:21:22Z</time></trkpt><trkpt lat="-27.69815123820918" lon="114.17167281360831"><ele>9.2</ele><time>2026-04-15T02:21:23Z</time></trkpt><trkpt lat="-27.698101333568253" lon="114.17174501758547"><ele>9.6</ele><time>2026-04-15T02:21:24Z</time></trkpt><trkpt lat="-27.698064092822218" lon="114.17180331435316"><ele>10.0</ele><time>2026-04-15T02:21:25Z</time></trkpt><trkpt lat="-27.697989032752456" lon="114.17188497324155"><ele>10.0</ele><time>2026-04-15T02:21:27Z</time></trkpt><trkpt lat="-27.697963350396485" lon="114.1719513505589"><ele>10.0</ele><time>2026-04-15T02:21:29Z</time></trkpt><trkpt lat="-27.698130202060963" lon="114.17213325870463"><ele>10.0</ele><time>2026-04-15T02:21:30Z</time></trkpt><trkpt lat="-27.69820325010069" lon="114.17219242660765"><ele>10.0</ele><time>2026-04-15T02:21:31Z</time></trkpt><trkpt lat="-27.698285203281532" lon="114.17226843798653"><ele>10.0</ele><time>2026-04-15T02:21:32Z</time></trkpt><trkpt lat="-27.698372210395" lon="114.17234913687065"><ele>10.0</ele><time>2026-04-15T02:21:33Z</time></trkpt><trkpt lat="-27.698465069787222" lon="114.17244614094307"><ele>10.0</ele><time>2026-04-15T02:21:34Z</time></trkpt><trkpt lat="-27.698583462482173" lon="114.17253790144728"><ele>10.0</ele><time>2026-04-15T02:21:35Z</time></trkpt><trkpt lat="-27.698699975044523" lon="114.17263123662137"><ele>12.0</ele><time>2026-04-15T02:21:36Z</time></trkpt><trkpt lat="-27.69881740068258" lon="114.17274544764521"><ele>14.0</ele><time>2026-04-15T02:21:37Z</time></trkpt><trkpt lat="-27.69893254600638" lon="114.17285419804509"><ele>16.0</ele><time>2026-04-15T02:21:38Z</time></trkpt><trkpt lat="-27.69905369974465" lon="114.17296833313712"><ele>16.0</ele><time>2026-04-15T02:21:39Z</time></trkpt><trkpt lat="-27.699166115328733" lon="114.17307211190206"><ele>16.0</ele><time>2026-04-15T02:21:40Z</time></trkpt><trkpt lat="-27.699265234834826" lon="114.17316639927353"><ele>16.0</ele><time>2026-04-15T02:21:41Z</time></trkpt><trkpt lat="-27.699363999830563" lon="114.17325600605034"><ele>16.0</ele><time>2026-04-15T02:21:42.001Z</time></trkpt><trkpt lat="-27.69946771680051" lon="114.17334731798381"><ele>17.25</ele><time>2026-04-15T02:21:43.001Z</time></trkpt><trkpt lat="-27.69957093867075" lon="114.17343973049105"><ele>18.5</ele><time>2026-04-15T02:21:44.001Z</time></trkpt><trkpt lat="-27.699674054799054" lon="114.17353261379552"><ele>19.75</ele><time>2026-04-15T02:21:45.001Z</time></trkpt><trkpt lat="-27.69977409411632" lon="114.1736208870761"><ele>21.0</ele><time>2026-04-15T02:21:46.001Z</time></trkpt><trkpt lat="-27.699856934874656" lon="114.17370062364618"><ele>21.0</ele><time>2026-04-15T02:21:47.001Z</time></trkpt><trkpt lat="-27.69992196793054" lon="114.17376538846237"><ele>21.0</ele><time>2026-04-15T02:21:48.001Z</time></trkpt><trkpt lat="-27.699995111733575" lon="114.17384075560821"><ele>21.0</ele><time>2026-04-15T02:21:50.001Z</time></trkpt><trkpt lat="-27.699929463375742" lon="114.17400532064813"><ele>21.0</ele><time>2026-04-15T02:21:54.001Z</time></trkpt><trkpt lat="-27.699882062224944" lon="114.17408988039308"><ele>21.0</ele><time>2026-04-15T02:21:55.001Z</time></trkpt><trkpt lat="-27.699814926195206" lon="114.17417162605365"><ele>20.75</ele><time>2026-04-15T02:21:56.001Z</time></trkpt><trkpt lat="-27.699746045385385" lon="114.17426380585624"><ele>20.5</ele><time>2026-04-15T02:21:57.001Z</time></trkpt><trkpt lat="-27.699666956750434" lon="114.17437229445615"><ele>20.25</ele><time>2026-04-15T02:21:58.001Z</time></trkpt><trkpt lat="-27.699577919263326" lon="114.1744950638019"><ele>20.0</ele><time>2026-04-15T02:21:59.001Z</time></trkpt><trkpt lat="-27.699487338897693" lon="114.17461945519784"><ele>19.666666666666668</ele><time>2026-04-15T02:22:00.001Z</time></trkpt><trkpt lat="-27.699387578604817" lon="114.17475493766243"><ele>19.333333333333332</ele><time>2026-04-15T02:22:01.001Z</time></trkpt><trkpt lat="-27.699277179968444" lon="114.1749061718835"><ele>19.0</ele><time>2026-04-15T02:22:02.001Z</time></trkpt><trkpt lat="-27.699162406378182" lon="114.17506395491387"><ele>19.0</ele><time>2026-04-15T02:22:03.001Z</time></trkpt><trkpt lat="-27.699046489466593" lon="114.17522533419269"><ele>19.0</ele><time>2026-04-15T02:22:04.001Z</time></trkpt><trkpt lat="-27.69892889265974" lon="114.17538994574305"><ele>19.0</ele><time>2026-04-15T02:22:05.001Z</time></trkpt><trkpt lat="-27.698803091627035" lon="114.1755641548438"><ele>19.333333333333332</ele><time>2026-04-15T02:22:06.001Z</time></trkpt><trkpt lat="-27.69867890007147" lon="114.17573856171134"><ele>19.666666666666668</ele><time>2026-04-15T02:22:07.001Z</time></trkpt><trkpt lat="-27.698548552960062" lon="114.17592031496156"><ele>20.0</ele><time>2026-04-15T02:22:08.001Z</time></trkpt><trkpt lat="-27.69841746038912" lon="114.17610057041699"><ele>20.0</ele><time>2026-04-15T02:22:09.001Z</time></trkpt><trkpt lat="-27.698285565643463" lon="114.17628369484255"><ele>20.0</ele><time>2026-04-15T02:22:10.001Z</time></trkpt><trkpt lat="-27.69815438497874" lon="114.17646923348553"><ele>20.0</ele><time>2026-04-15T02:22:11Z</time></trkpt><trkpt lat="-27.698018297082903" lon="114.17666059955437"><ele>20.666666666666668</ele><time>2026-04-15T02:22:12Z</time></trkpt><trkpt lat="-27.69787775348843" lon="114.17685838635632"><ele>21.333333333333332</ele><time>2026-04-15T02:22:13Z</time></trkpt><trkpt lat="-27.69774417685128" lon="114.17704212347512"><ele>22.0</ele><time>2026-04-15T02:22:14Z</time></trkpt><trkpt lat="-27.697610977705352" lon="114.17722785344046"><ele>21.666666666666664</ele><time>2026-04-15T02:22:15Z</time></trkpt><trkpt lat="-27.697476097227735" lon="114.17741112642926"><ele>21.333333333333332</ele><time>2026-04-15T02:22:16Z</time></trkpt><trkpt lat="-27.69734038847231" lon="114.17759748833542"><ele>21.0</ele><time>2026-04-15T02:22:17Z</time></trkpt><trkpt lat="-27.697206165086563" lon="114.17778287558812"><ele>21.0</ele><time>2026-04-15T02:22:18Z</time></trkpt><trkpt lat="-27.697072732178473" lon="114.17796869457068"><ele>21.0</ele><time>2026-04-15T02:22:19Z</time></trkpt><trkpt lat="-27.69693513086688" lon="114.17815871205804"><ele>21.0</ele><time>2026-04-15T02:22:20Z</time></trkpt><trkpt lat="-27.69679817072989" lon="114.17834705302518"><ele>20.0</ele><time>2026-04-15T02:22:21Z</time></trkpt><trkpt lat="-27.6966661838169" lon="114.17853348448116"><ele>19.0</ele><time>2026-04-15T02:22:22Z</time></trkpt><trkpt lat="-27.69640833044994" lon="114.17889525773249"><ele>18.333333333333332</ele><time>2026-04-15T02:22:24Z</time></trkpt><trkpt lat="-27.696277800679354" lon="114.17907847537396"><ele>17.666666666666668</ele><time>2026-04-15T02:22:25Z</time></trkpt><trkpt lat="-27.696144504824304" lon="114.1792651833343"><ele>17.0</ele><time>2026-04-15T02:22:26Z</time></trkpt><trkpt lat="-27.696010790792194" lon="114.17945188514929"><ele>16.666666666666668</ele><time>2026-04-15T02:22:27Z</time></trkpt><trkpt lat="-27.69587176102433" lon="114.17964224774367"><ele>16.333333333333332</ele><time>2026-04-15T02:22:28Z</time></trkpt><trkpt lat="-27.69573158150217" lon="114.17983404854502"><ele>16.0</ele><time>2026-04-15T02:22:29Z</time></trkpt><trkpt lat="-27.69558850402254" lon="114.18002826757112"><ele>16.0</ele><time>2026-04-15T02:22:30Z</time></trkpt><trkpt lat="-27.695446191428573" lon="114.18022370112102"><ele>16.0</ele><time>2026-04-15T02:22:31Z</time></trkpt><trkpt lat="-27.695307922278356" lon="114.18041485298342"><ele>16.0</ele><time>2026-04-15T02:22:32Z</time></trkpt><trkpt lat="-27.695168407884406" lon="114.18061157630407"><ele>15.666666666666666</ele><time>2026-04-15T02:22:33Z</time></trkpt><trkpt lat="-27.69503365075899" lon="114.18080252966436"><ele>15.333333333333332</ele><time>2026-04-15T02:22:34Z</time></trkpt><trkpt lat="-27.69489741542505" lon="114.18099221453016"><ele>15.0</ele><time>2026-04-15T02:22:35Z</time></trkpt><trkpt lat="-27.694758746136333" lon="114.181182965444"><ele>15.0</ele><time>2026-04-15T02:22:36Z</time></trkpt><trkpt lat="-27.694624682434906" lon="114.18136846371563"><ele>15.0</ele><time>2026-04-15T02:22:37Z</time></trkpt><trkpt lat="-27.694489712851766" lon="114.1815543267108"><ele>15.0</ele><time>2026-04-15T02:22:38Z</time></trkpt><trkpt lat="-27.694350450650894" lon="114.18174204571683"><ele>15.0</ele><time>2026-04-15T02:22:39Z</time></trkpt><trkpt lat="-27.694212078807595" lon="114.18193157075234"><ele>15.0</ele><time>2026-04-15T02:22:40Z</time></trkpt><trkpt lat="-27.694072775051687" lon="114.18212462530543"><ele>15.0</ele><time>2026-04-15T02:22:41Z</time></trkpt><trkpt lat="-27.693933727824824" lon="114.18231917686441"><ele>15.5</ele><time>2026-04-15T02:22:42Z</time></trkpt><trkpt lat="-27.693794260952917" lon="114.18251812914625"><ele>16.0</ele><time>2026-04-15T02:22:43Z</time></trkpt><trkpt lat="-27.693652342533042" lon="114.18271793865594"><ele>16.333333333333332</ele><time>2026-04-15T02:22:44Z</time></trkpt><trkpt lat="-27.693512759074807" lon="114.1829146621612"><ele>16.666666666666668</ele><time>2026-04-15T02:22:45Z</time></trkpt><trkpt lat="-27.693372891678546" lon="114.18310977406247"><ele>17.0</ele><time>2026-04-15T02:22:46Z</time></trkpt><trkpt lat="-27.693235232944065" lon="114.18330253249543"><ele>17.666666666666668</ele><time>2026-04-15T02:22:47Z</time></trkpt><trkpt lat="-27.693099782170336" lon="114.18349524049673"><ele>18.333333333333332</ele><time>2026-04-15T02:22:48Z</time></trkpt><trkpt lat="-27.692964750723082" lon="114.18368682934883"><ele>19.0</ele><time>2026-04-15T02:22:49Z</time></trkpt><trkpt lat="-27.692829141744532" lon="114.18387704980277"><ele>20.333333333333332</ele><time>2026-04-15T02:22:50Z</time></trkpt><trkpt lat="-27.692690891126404" lon="114.1840692504998"><ele>21.666666666666668</ele><time>2026-04-15T02:22:51Z</time></trkpt><trkpt lat="-27.692550891184784" lon="114.18426107645091"><ele>23.0</ele><time>2026-04-15T02:22:52Z</time></trkpt><trkpt lat="-27.692407763861095" lon="114.1844547275819"><ele>23.0</ele><time>2026-04-15T02:22:53Z</time></trkpt><trkpt lat="-27.692265705370687" lon="114.1846528313308"><ele>23.0</ele><time>2026-04-15T02:22:54Z</time></trkpt><trkpt lat="-27.692121744913432" lon="114.18485369911075"><ele>24.0</ele><time>2026-04-15T02:22:55Z</time></trkpt><trkpt lat="-27.691978266636383" lon="114.1850584984726"><ele>25.0</ele><time>2026-04-15T02:22:56Z</time></trkpt><trkpt lat="-27.69183402102179" lon="114.18526464247046"><ele>27.0</ele><time>2026-04-15T02:22:57Z</time></trkpt><trkpt lat="-27.69169017430855" lon="114.18547589472259"><ele>29.0</ele><time>2026-04-15T02:22:58Z</time></trkpt><trkpt lat="-27.691551595557083" lon="114.18569417274071"><ele>29.5</ele><time>2026-04-15T02:22:59Z</time></trkpt><trkpt lat="-27.691420185881807" lon="114.18591914452679"><ele>30.0</ele><time>2026-04-15T02:23:00Z</time></trkpt><trkpt lat="-27.691294673571946" lon="114.18615074210388"><ele>30.0</ele><time>2026-04-15T02:23:01Z</time></trkpt><trkpt lat="-27.691168952401387" lon="114.18638862667078"><ele>30.0</ele><time>2026-04-15T02:23:02Z</time></trkpt><trkpt lat="-27.691046057245" lon="114.18662926665243"><ele>30.5</ele><time>2026-04-15T02:23:03Z</time></trkpt><trkpt lat="-27.690926070787718" lon="114.18687146450601"><ele>31.0</ele><time>2026-04-15T02:23:04Z</time></trkpt><trkpt lat="-27.690807617148657" lon="114.18711409202501"><ele>31.5</ele><time>2026-04-15T02:23:05Z</time></trkpt><trkpt lat="-27.690691355519" lon="114.18735404310942"><ele>32.0</ele><time>2026-04-15T02:23:06Z</time></trkpt><trkpt lat="-27.690569756505248" lon="114.18759776158518"><ele>32.0</ele><time>2026-04-15T02:23:07Z</time></trkpt><trkpt lat="-27.690449029802036" lon="114.18784121848316"><ele>32.0</ele><time>2026-04-15T02:23:08Z</time></trkpt><trkpt lat="-27.690326211421517" lon="114.1880891756126"><ele>32.0</ele><time>2026-04-15T02:23:09Z</time></trkpt><trkpt lat="-27.690203059278442" lon="114.18833765008318"><ele>32.0</ele><time>2026-04-15T02:23:10Z</time></trkpt><trkpt lat="-27.690081306498037" lon="114.18858519281977"><ele>32.0</ele><time>2026-04-15T02:23:11Z</time></trkpt><trkpt lat="-27.68996192276439" lon="114.18883265000993"><ele>32.0</ele><time>2026-04-15T02:23:12Z</time></trkpt><trkpt lat="-27.689847090928648" lon="114.18907484597013"><ele>33.0</ele><time>2026-04-15T02:23:13Z</time></trkpt><trkpt lat="-27.689732173853358" lon="114.18931690735992"><ele>34.0</ele><time>2026-04-15T02:23:14Z</time></trkpt><trkpt lat="-27.689615119808376" lon="114.18955617353387"><ele>34.0</ele><time>2026-04-15T02:23:15Z</time></trkpt><trkpt lat="-27.68949799851381" lon="114.1897935001912"><ele>34.0</ele><time>2026-04-15T02:23:16Z</time></trkpt><trkpt lat="-27.689380244283544" lon="114.19003482326488"><ele>33.0</ele><time>2026-04-15T02:23:17Z</time></trkpt><trkpt lat="-27.68926257043743" lon="114.19028140784425"><ele>32.0</ele><time>2026-04-15T02:23:18Z</time></trkpt><trkpt lat="-27.689143053277792" lon="114.19053284502407"><ele>33.0</ele><time>2026-04-15T02:23:19Z</time></trkpt><trkpt lat="-27.68902529292789" lon="114.1907864089591"><ele>34.0</ele><time>2026-04-15T02:23:20Z</time></trkpt><trkpt lat="-27.68891234332512" lon="114.19104152061752"><ele>34.0</ele><time>2026-04-15T02:23:21Z</time></trkpt><trkpt lat="-27.688807731253604" lon="114.19130349344145"><ele>34.0</ele><time>2026-04-15T02:23:22Z</time></trkpt><trkpt lat="-27.68871316134734" lon="114.1915680217934"><ele>35.0</ele><time>2026-04-15T02:23:23Z</time></trkpt><trkpt lat="-27.688625925991822" lon="114.19183649349094"><ele>36.0</ele><time>2026-04-15T02:23:24Z</time></trkpt><trkpt lat="-27.68854724398598" lon="114.19210564068709"><ele>38.5</ele><time>2026-04-15T02:23:25Z</time></trkpt><trkpt lat="-27.688457810536985" lon="114.19237256346464"><ele>41.0</ele><time>2026-04-15T02:23:26Z</time></trkpt><trkpt lat="-27.688375115009464" lon="114.19264256951013"><ele>41.0</ele><time>2026-04-15T02:23:27Z</time></trkpt><trkpt lat="-27.68835134562284" lon="114.19293527932342"><ele>41.0</ele><time>2026-04-15T02:23:28Z</time></trkpt><trkpt lat="-27.688297211019865" lon="114.1932131536172"><ele>42.0</ele><time>2026-04-15T02:23:29Z</time></trkpt><trkpt lat="-27.68825283902638" lon="114.19349244738207"><ele>43.0</ele><time>2026-04-15T02:23:30Z</time></trkpt><trkpt lat="-27.688217749795665" lon="114.1937737577176"><ele>45.0</ele><time>2026-04-15T02:23:31Z</time></trkpt><trkpt lat="-27.688185889032184" lon="114.19405701005503"><ele>47.0</ele><time>2026-04-15T02:23:32Z</time></trkpt><trkpt lat="-27.68815745489817" lon="114.19433924392908"><ele>47.0</ele><time>2026-04-15T02:23:33Z</time></trkpt><trkpt lat="-27.68813164041094" lon="114.19462212203707"><ele>47.0</ele><time>2026-04-15T02:23:34Z</time></trkpt><trkpt lat="-27.688116555580397" lon="114.19490152576664"><ele>49.5</ele><time>2026-04-15T02:23:35Z</time></trkpt><trkpt lat="-27.688120540721496" lon="114.19518062938411"><ele>52.0</ele><time>2026-04-15T02:23:36Z</time></trkpt><trkpt lat="-27.688139803864157" lon="114.19546502770245"><ele>53.5</ele><time>2026-04-15T02:23:37Z</time></trkpt><trkpt lat="-27.68816526719701" lon="114.19575246821081"><ele>55.0</ele><time>2026-04-15T02:23:38Z</time></trkpt><trkpt lat="-27.688195600391893" lon="114.19604125828691"><ele>55.0</ele><time>2026-04-15T02:23:39Z</time></trkpt><trkpt lat="-27.68823430127401" lon="114.19632628150136"><ele>55.0</ele><time>2026-04-15T02:23:40Z</time></trkpt><trkpt lat="-27.68827869058918" lon="114.1966109261945"><ele>57.0</ele><time>2026-04-15T02:23:41Z</time></trkpt><trkpt lat="-27.68832527062309" lon="114.196898329592"><ele>59.0</ele><time>2026-04-15T02:23:42Z</time></trkpt><trkpt lat="-27.688373946771232" lon="114.19718438151408"><ele>60.0</ele><time>2026-04-15T02:23:43Z</time></trkpt><trkpt lat="-27.688423843307575" lon="114.19746958995654"><ele>61.0</ele><time>2026-04-15T02:23:44Z</time></trkpt><trkpt lat="-27.688471890046014" lon="114.19775687193003"><ele>61.0</ele><time>2026-04-15T02:23:45Z</time></trkpt><trkpt lat="-27.688520349157294" lon="114.19804353998617"><ele>61.0</ele><time>2026-04-15T02:23:46Z</time></trkpt><trkpt lat="-27.68857049143428" lon="114.19833423485746"><ele>63.5</ele><time>2026-04-15T02:23:47Z</time></trkpt><trkpt lat="-27.6886199651953" lon="114.1986278561227"><ele>66.0</ele><time>2026-04-15T02:23:48Z</time></trkpt><trkpt lat="-27.68866615455869" lon="114.19891964969831"><ele>67.5</ele><time>2026-04-15T02:23:49Z</time></trkpt><trkpt lat="-27.688713815108894" lon="114.19921121497896"><ele>69.0</ele><time>2026-04-15T02:23:50Z</time></trkpt><trkpt lat="-27.688763452670116" lon="114.19949834916025"><ele>69.0</ele><time>2026-04-15T02:23:51Z</time></trkpt><trkpt lat="-27.688812828411137" lon="114.1997829664816"><ele>69.0</ele><time>2026-04-15T02:23:52Z</time></trkpt><trkpt lat="-27.688861837629158" lon="114.20006520377358"><ele>71.0</ele><time>2026-04-15T02:23:53Z</time></trkpt><trkpt lat="-27.688909325525728" lon="114.20034574698683"><ele>73.0</ele><time>2026-04-15T02:23:54Z</time></trkpt><trkpt lat="-27.688959588422815" lon="114.20062797062747"><ele>74.5</ele><time>2026-04-15T02:23:55Z</time></trkpt><trkpt lat="-27.68900920915048" lon="114.2009108054176"><ele>76.0</ele><time>2026-04-15T02:23:56Z</time></trkpt><trkpt lat="-27.689057683521735" lon="114.20119385014489"><ele>76.0</ele><time>2026-04-15T02:23:57Z</time></trkpt><trkpt lat="-27.689103564008455" lon="114.2014702434145"><ele>76.0</ele><time>2026-04-15T02:23:58Z</time></trkpt><trkpt lat="-27.68914955729379" lon="114.20173417777167"><ele>76.66666666666666</ele><time>2026-04-15T02:23:59Z</time></trkpt><trkpt lat="-27.689188933338258" lon="114.20197512579762"><ele>77.33333333333333</ele><time>2026-04-15T02:24:00Z</time></trkpt><trkpt lat="-27.68922109494177" lon="114.20219814330426"><ele>78.0</ele><time>2026-04-15T02:24:01Z</time></trkpt><trkpt lat="-27.689250996982015" lon="114.20240904445411"><ele>78.75</ele><time>2026-04-15T02:24:02Z</time></trkpt><trkpt lat="-27.689279068599955" lon="114.20259279082438"><ele>79.5</ele><time>2026-04-15T02:24:03Z</time></trkpt><trkpt lat="-27.689303647594915" lon="114.20274608606474"><ele>80.25</ele><time>2026-04-15T02:24:04Z</time></trkpt><trkpt lat="-27.68932462985642" lon="114.2028661087329"><ele>81.0</ele><time>2026-04-15T02:24:05Z</time></trkpt><trkpt lat="-27.68934062161218" lon="114.2029578440597"><ele>81.0</ele><time>2026-04-15T02:24:06Z</time></trkpt><trkpt lat="-27.689353086878278" lon="114.20303112436262"><ele>81.0</ele><time>2026-04-15T02:24:07Z</time></trkpt><trkpt lat="-27.68938402016414" lon="114.20309472387095"><ele>81.0</ele><time>2026-04-15T02:24:09Z</time></trkpt><trkpt lat="-27.689429239634872" lon="114.20299704798788"><ele>81.0</ele><time>2026-04-15T02:24:12Z</time></trkpt><trkpt lat="-27.68941083866413" lon="114.20290228699466"><ele>81.0</ele><time>2026-04-15T02:24:13Z</time></trkpt><trkpt lat="-27.6893814648238" lon="114.2028019749663"><ele>81.0</ele><time>2026-04-15T02:24:14Z</time></trkpt><trkpt lat="-27.68935298989847" lon="114.20266994418381"><ele>81.0</ele><time>2026-04-15T02:24:15Z</time></trkpt><trkpt lat="-27.689322264077237" lon="114.20251220240523"><ele>81.0</ele><time>2026-04-15T02:24:16Z</time></trkpt><trkpt lat="-27.68928897672485" lon="114.20232809986058"><ele>81.0</ele><time>2026-04-15T02:24:17Z</time></trkpt><trkpt lat="-27.689255354249283" lon="114.202130814059"><ele>80.0</ele><time>2026-04-15T02:24:18Z</time></trkpt><trkpt lat="-27.689220739923584" lon="114.20192163687726"><ele>79.0</ele><time>2026-04-15T02:24:19Z</time></trkpt><trkpt lat="-27.689184392876015" lon="114.20169314311111"><ele>78.0</ele><time>2026-04-15T02:24:20Z</time></trkpt><trkpt lat="-27.689145172407056" lon="114.20145553096795"><ele>77.0</ele><time>2026-04-15T02:24:21Z</time></trkpt><trkpt lat="-27.689103601654423" lon="114.20120601496637"><ele>76.0</ele><time>2026-04-15T02:24:22Z</time></trkpt><trkpt lat="-27.689061542028004" lon="114.20095130505837"><ele>76.0</ele><time>2026-04-15T02:24:23Z</time></trkpt><trkpt lat="-27.689018423337426" lon="114.20069435509585"><ele>76.0</ele><time>2026-04-15T02:24:24Z</time></trkpt><trkpt lat="-27.688973086380546" lon="114.20042428339826"><ele>74.5</ele><time>2026-04-15T02:24:25Z</time></trkpt><trkpt lat="-27.688926132662544" lon="114.20014190131435"><ele>73.0</ele><time>2026-04-15T02:24:26Z</time></trkpt><trkpt lat="-27.688879407855463" lon="114.19986646222135"><ele>71.0</ele><time>2026-04-15T02:24:27Z</time></trkpt><trkpt lat="-27.68883281581973" lon="114.1995950084291"><ele>69.0</ele><time>2026-04-15T02:24:28Z</time></trkpt><trkpt lat="-27.688787428134273" lon="114.19932064007736"><ele>69.0</ele><time>2026-04-15T02:24:29Z</time></trkpt><trkpt lat="-27.688742224368923" lon="114.19904232814983"><ele>69.0</ele><time>2026-04-15T02:24:30Z</time></trkpt><trkpt lat="-27.688693718967368" lon="114.19876021755036"><ele>67.5</ele><time>2026-04-15T02:24:31Z</time></trkpt><trkpt lat="-27.688643980591255" lon="114.19847759449875"><ele>66.0</ele><time>2026-04-15T02:24:32Z</time></trkpt><trkpt lat="-27.688596230357675" lon="114.19819359980278"><ele>63.5</ele><time>2026-04-15T02:24:33Z</time></trkpt><trkpt lat="-27.688548876234993" lon="114.19791097676064"><ele>61.0</ele><time>2026-04-15T02:24:34Z</time></trkpt><trkpt lat="-27.68850236120476" lon="114.19763444864871"><ele>61.0</ele><time>2026-04-15T02:24:35Z</time></trkpt><trkpt lat="-27.688456510321778" lon="114.19735477157928"><ele>61.0</ele><time>2026-04-15T02:24:36Z</time></trkpt><trkpt lat="-27.688409627754297" lon="114.19707728329433"><ele>60.0</ele><time>2026-04-15T02:24:37Z</time></trkpt><trkpt lat="-27.68836227066765" lon="114.19679837297728"><ele>59.0</ele><time>2026-04-15T02:24:38Z</time></trkpt><trkpt lat="-27.68831498525485" lon="114.1965184062548"><ele>57.0</ele><time>2026-04-15T02:24:39Z</time></trkpt><trkpt lat="-27.688268743922723" lon="114.19623470696315"><ele>55.0</ele><time>2026-04-15T02:24:40Z</time></trkpt><trkpt lat="-27.688230938122825" lon="114.19595186148376"><ele>53.5</ele><time>2026-04-15T02:24:41Z</time></trkpt><trkpt lat="-27.688203848068333" lon="114.1956646952004"><ele>52.0</ele><time>2026-04-15T02:24:42Z</time></trkpt><trkpt lat="-27.688188576391187" lon="114.1953790163395"><ele>52.0</ele><time>2026-04-15T02:24:43Z</time></trkpt><trkpt lat="-27.68818018732428" lon="114.19509230999844"><ele>52.0</ele><time>2026-04-15T02:24:44Z</time></trkpt><trkpt lat="-27.688178455757438" lon="114.19480823995976"><ele>49.5</ele><time>2026-04-15T02:24:45Z</time></trkpt><trkpt lat="-27.68818439655796" lon="114.1945311958441"><ele>47.0</ele><time>2026-04-15T02:24:46Z</time></trkpt><trkpt lat="-27.688202979441886" lon="114.19425572113315"><ele>45.0</ele><time>2026-04-15T02:24:47Z</time></trkpt><trkpt lat="-27.68823258442749" lon="114.19397682153445"><ele>43.0</ele><time>2026-04-15T02:24:48Z</time></trkpt><trkpt lat="-27.688270131342566" lon="114.19369806249553"><ele>43.0</ele><time>2026-04-15T02:24:49Z</time></trkpt><trkpt lat="-27.688312327447445" lon="114.19341599434328"><ele>43.0</ele><time>2026-04-15T02:24:50Z</time></trkpt><trkpt lat="-27.68836029413755" lon="114.19313397964889"><ele>42.0</ele><time>2026-04-15T02:24:51Z</time></trkpt><trkpt lat="-27.688409993565593" lon="114.19285450235853"><ele>41.0</ele><time>2026-04-15T02:24:52Z</time></trkpt><trkpt lat="-27.68846654791997" lon="114.19257599143361"><ele>40.0</ele><time>2026-04-15T02:24:53Z</time></trkpt><trkpt lat="-27.68853185347779" lon="114.19230031531238"><ele>39.0</ele><time>2026-04-15T02:24:54Z</time></trkpt><trkpt lat="-27.68860685850945" lon="114.19202852513955"><ele>37.5</ele><time>2026-04-15T02:24:55Z</time></trkpt><trkpt lat="-27.688689224093174" lon="114.1917583889576"><ele>36.0</ele><time>2026-04-15T02:24:56Z</time></trkpt><trkpt lat="-27.68878099354581" lon="114.19148755103663"><ele>35.0</ele><time>2026-04-15T02:24:57Z</time></trkpt><trkpt lat="-27.68888402470836" lon="114.19121425995723"><ele>34.0</ele><time>2026-04-15T02:24:58Z</time></trkpt><trkpt lat="-27.688999702806942" lon="114.19093571917803"><ele>33.0</ele><time>2026-04-15T02:24:59Z</time></trkpt><trkpt lat="-27.68912217818591" lon="114.19066053465704"><ele>32.0</ele><time>2026-04-15T02:25:00Z</time></trkpt><trkpt lat="-27.6892525374645" lon="114.19039131244064"><ele>32.0</ele><time>2026-04-15T02:25:01Z</time></trkpt><trkpt lat="-27.689385559608176" lon="114.19012846741039"><ele>32.0</ele><time>2026-04-15T02:25:02Z</time></trkpt><trkpt lat="-27.689516152826165" lon="114.18986790805604"><ele>33.0</ele><time>2026-04-15T02:25:03Z</time></trkpt><trkpt lat="-27.68964516924188" lon="114.18960741446294"><ele>34.0</ele><time>2026-04-15T02:25:04Z</time></trkpt><trkpt lat="-27.6897735219435" lon="114.18934808842165"><ele>34.0</ele><time>2026-04-15T02:25:05Z</time></trkpt><trkpt lat="-27.689901633281448" lon="114.18908807466376"><ele>34.0</ele><time>2026-04-15T02:25:06Z</time></trkpt><trkpt lat="-27.690027172437922" lon="114.18882825984365"><ele>33.5</ele><time>2026-04-15T02:25:07Z</time></trkpt><trkpt lat="-27.690154509969314" lon="114.18857160502688"><ele>33.0</ele><time>2026-04-15T02:25:08Z</time></trkpt><trkpt lat="-27.6902804419869" lon="114.18831976289216"><ele>32.5</ele><time>2026-04-15T02:25:09Z</time></trkpt><trkpt lat="-27.690404008128173" lon="114.1880679789161"><ele>32.0</ele><time>2026-04-15T02:25:10Z</time></trkpt><trkpt lat="-27.690520766774757" lon="114.18781820102114"><ele>32.0</ele><time>2026-04-15T02:25:11Z</time></trkpt><trkpt lat="-27.690630886569036" lon="114.18757787163685"><ele>32.0</ele><time>2026-04-15T02:25:12Z</time></trkpt><trkpt lat="-27.690741151582518" lon="114.18734395740594"><ele>31.5</ele><time>2026-04-15T02:25:13Z</time></trkpt><trkpt lat="-27.690857908755103" lon="114.18710539086825"><ele>31.0</ele><time>2026-04-15T02:25:14Z</time></trkpt><trkpt lat="-27.69097890987054" lon="114.18686359250454"><ele>31.0</ele><time>2026-04-15T02:25:15Z</time></trkpt><trkpt lat="-27.691100260283754" lon="114.18662076297743"><ele>31.0</ele><time>2026-04-15T02:25:16Z</time></trkpt><trkpt lat="-27.691224937385652" lon="114.18637644861684"><ele>30.5</ele><time>2026-04-15T02:25:17Z</time></trkpt><trkpt lat="-27.6913522342593" lon="114.18613396241753"><ele>30.0</ele><time>2026-04-15T02:25:18Z</time></trkpt><trkpt lat="-27.6914827407977" lon="114.18589427510202"><ele>29.5</ele><time>2026-04-15T02:25:19Z</time></trkpt><trkpt lat="-27.691619868267036" lon="114.1856601483698"><ele>29.0</ele><time>2026-04-15T02:25:20Z</time></trkpt><trkpt lat="-27.6917641056994" lon="114.18542934949164"><ele>29.0</ele><time>2026-04-15T02:25:21Z</time></trkpt><trkpt lat="-27.691914728631886" lon="114.1852030402785"><ele>29.0</ele><time>2026-04-15T02:25:22Z</time></trkpt><trkpt lat="-27.6920729672267" lon="114.18497647342762"><ele>26.0</ele><time>2026-04-15T02:25:23Z</time></trkpt><trkpt lat="-27.69223732077039" lon="114.18475246649572"><ele>23.0</ele><time>2026-04-15T02:25:24Z</time></trkpt><trkpt lat="-27.692407896612004" lon="114.18452995312043"><ele>23.0</ele><time>2026-04-15T02:25:25Z</time></trkpt><trkpt lat="-27.692573719634918" lon="114.18430820399298"><ele>23.0</ele><time>2026-04-15T02:25:26Z</time></trkpt><trkpt lat="-27.692735804316797" lon="114.1840823762751"><ele>21.0</ele><time>2026-04-15T02:25:27Z</time></trkpt><trkpt lat="-27.69289758178337" lon="114.18385379690721"><ele>19.0</ele><time>2026-04-15T02:25:28Z</time></trkpt><trkpt lat="-27.69305935775594" lon="114.18362487367563"><ele>19.0</ele><time>2026-04-15T02:25:29Z</time></trkpt><trkpt lat="-27.69322146192264" lon="114.18339854142336"><ele>19.0</ele><time>2026-04-15T02:25:30Z</time></trkpt><trkpt lat="-27.693387674829452" lon="114.18317140866027"><ele>18.0</ele><time>2026-04-15T02:25:31Z</time></trkpt><trkpt lat="-27.693550746888445" lon="114.18294689622877"><ele>17.0</ele><time>2026-04-15T02:25:32Z</time></trkpt><trkpt lat="-27.693712783390538" lon="114.18272195483442"><ele>16.5</ele><time>2026-04-15T02:25:33Z</time></trkpt><trkpt lat="-27.693877823817374" lon="114.18249396017703"><ele>16.0</ele><time>2026-04-15T02:25:34Z</time></trkpt><trkpt lat="-27.69404339286685" lon="114.18226597237303"><ele>15.5</ele><time>2026-04-15T02:25:35Z</time></trkpt><trkpt lat="-27.69420551597598" lon="114.18203536229112"><ele>15.0</ele><time>2026-04-15T02:25:36Z</time></trkpt><trkpt lat="-27.694371677820623" lon="114.18180192184025"><ele>15.0</ele><time>2026-04-15T02:25:37Z</time></trkpt><trkpt lat="-27.694545630501604" lon="114.18155768954577"><ele>15.0</ele><time>2026-04-15T02:25:38Z</time></trkpt><trkpt lat="-27.69471972002975" lon="114.18131463044902"><ele>15.0</ele><time>2026-04-15T02:25:39Z</time></trkpt><trkpt lat="-27.69488993005662" lon="114.18107891976422"><ele>15.0</ele><time>2026-04-15T02:25:40Z</time></trkpt><trkpt lat="-27.69505856398759" lon="114.18084696347813"><ele>15.0</ele><time>2026-04-15T02:25:41Z</time></trkpt><trkpt lat="-27.695223017977977" lon="114.18061762534953"><ele>15.0</ele><time>2026-04-15T02:25:42Z</time></trkpt><trkpt lat="-27.695384165363965" lon="114.18039032711965"><ele>15.5</ele><time>2026-04-15T02:25:43Z</time></trkpt><trkpt lat="-27.695545602611514" lon="114.18016547777941"><ele>16.0</ele><time>2026-04-15T02:25:44Z</time></trkpt><trkpt lat="-27.695708920059122" lon="114.17994357875898"><ele>16.0</ele><time>2026-04-15T02:25:45Z</time></trkpt><trkpt lat="-27.695872765441496" lon="114.17972337546111"><ele>16.0</ele><time>2026-04-15T02:25:46Z</time></trkpt><trkpt lat="-27.696032608338363" lon="114.17950386254168"><ele>16.5</ele><time>2026-04-15T02:25:47Z</time></trkpt><trkpt lat="-27.69618996079174" lon="114.17928090493058"><ele>17.0</ele><time>2026-04-15T02:25:48Z</time></trkpt><trkpt lat="-27.696351561992596" lon="114.17905845295839"><ele>18.0</ele><time>2026-04-15T02:25:49Z</time></trkpt><trkpt lat="-27.69651441013837" lon="114.17883642598932"><ele>19.0</ele><time>2026-04-15T02:25:50Z</time></trkpt><trkpt lat="-27.69667710701654" lon="114.17861240362183"><ele>19.0</ele><time>2026-04-15T02:25:51Z</time></trkpt><trkpt lat="-27.696837265004966" lon="114.17838424074984"><ele>19.0</ele><time>2026-04-15T02:25:52Z</time></trkpt><trkpt lat="-27.696999878642355" lon="114.17815339129824"><ele>20.0</ele><time>2026-04-15T02:25:53Z</time></trkpt><trkpt lat="-27.697165152822997" lon="114.17791896679063"><ele>21.0</ele><time>2026-04-15T02:25:54Z</time></trkpt><trkpt lat="-27.697330754131404" lon="114.17768759598653"><ele>21.0</ele><time>2026-04-15T02:25:55Z</time></trkpt><trkpt lat="-27.697498979023123" lon="114.17745616533418"><ele>21.0</ele><time>2026-04-15T02:25:56Z</time></trkpt><trkpt lat="-27.697665454227014" lon="114.17722538781781"><ele>21.5</ele><time>2026-04-15T02:25:57Z</time></trkpt><trkpt lat="-27.69783376990473" lon="114.17699532530744"><ele>22.0</ele><time>2026-04-15T02:25:58Z</time></trkpt><trkpt lat="-27.698000359707038" lon="114.1767631038555"><ele>22.0</ele><time>2026-04-15T02:25:59Z</time></trkpt><trkpt lat="-27.698169161457045" lon="114.17652683224105"><ele>22.0</ele><time>2026-04-15T02:26:00Z</time></trkpt><trkpt lat="-27.6983382958608" lon="114.17629063335578"><ele>22.0</ele><time>2026-04-15T02:26:01Z</time></trkpt><trkpt lat="-27.698509542936673" lon="114.17605586175628"><ele>22.0</ele><time>2026-04-15T02:26:02Z</time></trkpt><trkpt lat="-27.698678965988936" lon="114.17582336271099"><ele>20.5</ele><time>2026-04-15T02:26:03Z</time></trkpt><trkpt lat="-27.698850276977062" lon="114.17558826179632"><ele>19.0</ele><time>2026-04-15T02:26:04Z</time></trkpt><trkpt lat="-27.699017678328683" lon="114.1753556816347"><ele>19.0</ele><time>2026-04-15T02:26:05Z</time></trkpt><trkpt lat="-27.699185766315683" lon="114.17512034816438"><ele>19.0</ele><time>2026-04-15T02:26:06Z</time></trkpt><trkpt lat="-27.69935249631112" lon="114.17488959328735"><ele>19.5</ele><time>2026-04-15T02:26:07Z</time></trkpt><trkpt lat="-27.699520546498498" lon="114.174660570166"><ele>20.0</ele><time>2026-04-15T02:26:08Z</time></trkpt><trkpt lat="-27.699685265823128" lon="114.17443489756512"><ele>20.0</ele><time>2026-04-15T02:26:09Z</time></trkpt><trkpt lat="-27.69984736455632" lon="114.17421112467159"><ele>20.0</ele><time>2026-04-15T02:26:10Z</time></trkpt><trkpt lat="-27.70001059467926" lon="114.17398488802718"><ele>20.5</ele><time>2026-04-15T02:26:11Z</time></trkpt><trkpt lat="-27.700172060854374" lon="114.17375982083504"><ele>21.0</ele><time>2026-04-15T02:26:12Z</time></trkpt><trkpt lat="-27.700333387943758" lon="114.17353279116757"><ele>20.0</ele><time>2026-04-15T02:26:13Z</time></trkpt><trkpt lat="-27.70049581472577" lon="114.1733035422999"><ele>19.0</ele><time>2026-04-15T02:26:14Z</time></trkpt><trkpt lat="-27.70065865544906" lon="114.17307575298719"><ele>17.5</ele><time>2026-04-15T02:26:15Z</time></trkpt><trkpt lat="-27.70082061063306" lon="114.1728499757397"><ele>16.0</ele><time>2026-04-15T02:26:16Z</time></trkpt><trkpt lat="-27.700972695033446" lon="114.17263713148535"><ele>16.333333333333332</ele><time>2026-04-15T02:26:17Z</time></trkpt><trkpt lat="-27.701112403870624" lon="114.17244077887041"><ele>16.666666666666668</ele><time>2026-04-15T02:26:18Z</time></trkpt><trkpt lat="-27.701244653493237" lon="114.17225545606159"><ele>17.0</ele><time>2026-04-15T02:26:19.001Z</time></trkpt><trkpt lat="-27.701369277849647" lon="114.17207903067056"><ele>17.0</ele><time>2026-04-15T02:26:20.001Z</time></trkpt><trkpt lat="-27.701487707664345" lon="114.17190499802726"><ele>17.0</ele><time>2026-04-15T02:26:21.001Z</time></trkpt><trkpt lat="-27.701594186358196" lon="114.1717395981308"><ele>17.0</ele><time>2026-04-15T02:26:22.001Z</time></trkpt><trkpt lat="-27.70168605449676" lon="114.17157748973304"><ele>16.333333333333336</ele><time>2026-04-15T02:26:23.001Z</time></trkpt><trkpt lat="-27.70176375995159" lon="114.17141407367588"><ele>15.666666666666668</ele><time>2026-04-15T02:26:24.001Z</time></trkpt><trkpt lat="-27.701829037683034" lon="114.17125483153555"><ele>15.0</ele><time>2026-04-15T02:26:25.001Z</time></trkpt><trkpt lat="-27.70188722886847" lon="114.17109951015333"><ele>15.0</ele><time>2026-04-15T02:26:26.001Z</time></trkpt><trkpt lat="-27.70193709631858" lon="114.17095212179994"><ele>15.0</ele><time>2026-04-15T02:26:27Z</time></trkpt><trkpt lat="-27.701977173973056" lon="114.17081158479475"><ele>15.0</ele><time>2026-04-15T02:26:28Z</time></trkpt><trkpt lat="-27.70200545184366" lon="114.17068629561359"><ele>15.0</ele><time>2026-04-15T02:26:29Z</time></trkpt><trkpt lat="-27.702027498204775" lon="114.17056866010023"><ele>15.0</ele><time>2026-04-15T02:26:30Z</time></trkpt><trkpt lat="-27.702050364116975" lon="114.17044797392576"><ele>15.0</ele><time>2026-04-15T02:26:31.001Z</time></trkpt><trkpt lat="-27.702065173656305" lon="114.1703194681825"><ele>15.0</ele><time>2026-04-15T02:26:32Z</time></trkpt><trkpt lat="-27.702073318979558" lon="114.17018030337188"><ele>15.0</ele><time>2026-04-15T02:26:33Z</time></trkpt><trkpt lat="-27.70207769295613" lon="114.17002823304644"><ele>15.0</ele><time>2026-04-15T02:26:34Z</time></trkpt><trkpt lat="-27.702080529818357" lon="114.16986267530876"><ele>15.0</ele><time>2026-04-15T02:26:35Z</time></trkpt><trkpt lat="-27.70208219951708" lon="114.16970074462348"><ele>15.0</ele><time>2026-04-15T02:26:36Z</time></trkpt><trkpt lat="-27.702081401627346" lon="114.16955059536494"><ele>15.0</ele><time>2026-04-15T02:26:37Z</time></trkpt><trkpt lat="-27.70208091512395" lon="114.16941303335686"><ele>14.8</ele><time>2026-04-15T02:26:38Z</time></trkpt><trkpt lat="-27.70208038977374" lon="114.16928198511502"><ele>14.6</ele><time>2026-04-15T02:26:39Z</time></trkpt><trkpt lat="-27.70208212482904" lon="114.16915871780417"><ele>14.399999999999999</ele><time>2026-04-15T02:26:40Z</time></trkpt><trkpt lat="-27.702085755168252" lon="114.16904096924983"><ele>14.2</ele><time>2026-04-15T02:26:41Z</time></trkpt><trkpt lat="-27.702088480336663" lon="114.16892679469048"><ele>14.0</ele><time>2026-04-15T02:26:42Z</time></trkpt><trkpt lat="-27.70209040278348" lon="114.16881908074504"><ele>13.666666666666668</ele><time>2026-04-15T02:26:43Z</time></trkpt><trkpt lat="-27.702094049716564" lon="114.16871883310186"><ele>13.333333333333334</ele><time>2026-04-15T02:26:44Z</time></trkpt><trkpt lat="-27.70209883413261" lon="114.16862247418048"><ele>13.0</ele><time>2026-04-15T02:26:45Z</time></trkpt><trkpt lat="-27.702103604155475" lon="114.16851913539456"><ele>12.666666666666668</ele><time>2026-04-15T02:26:46Z</time></trkpt><trkpt lat="-27.70211214973813" lon="114.16841794502109"><ele>12.333333333333334</ele><time>2026-04-15T02:26:47Z</time></trkpt><trkpt lat="-27.702123888078624" lon="114.16832821538867"><ele>12.0</ele><time>2026-04-15T02:26:48Z</time></trkpt><trkpt lat="-27.702134652486134" lon="114.16824589662578"><ele>11.25</ele><time>2026-04-15T02:26:49Z</time></trkpt><trkpt lat="-27.702137531569687" lon="114.16817226007706"><ele>10.5</ele><time>2026-04-15T02:26:50Z</time></trkpt><trkpt lat="-27.70209620468935" lon="114.16804606324285"><ele>9.75</ele><time>2026-04-15T02:26:52Z</time></trkpt><trkpt lat="-27.70194474190844" lon="114.16795717114748"><ele>9.0</ele><time>2026-04-15T02:26:54Z</time></trkpt><trkpt lat="-27.701830609538675" lon="114.1679409765036"><ele>9.0</ele><time>2026-04-15T02:26:55Z</time></trkpt><trkpt lat="-27.701692650614426" lon="114.16793624607557"><ele>9.0</ele><time>2026-04-15T02:26:56Z</time></trkpt><trkpt lat="-27.701531235560783" lon="114.16793299744212"><ele>9.0</ele><time>2026-04-15T02:26:57Z</time></trkpt><trkpt lat="-27.701371151909672" lon="114.16792872664587"><ele>9.0</ele><time>2026-04-15T02:26:58Z</time></trkpt><trkpt lat="-27.7012232389049" lon="114.16792168550279"><ele>9.0</ele><time>2026-04-15T02:26:59Z</time></trkpt><trkpt lat="-27.701088519268264" lon="114.16791442631528"><ele>9.0</ele><time>2026-04-15T02:27:00Z</time></trkpt><trkpt lat="-27.700969881990552" lon="114.16791051967556"><ele>9.0</ele><time>2026-04-15T02:27:01Z</time></trkpt><trkpt lat="-27.700864574598313" lon="114.16792929043761"><ele>9.0</ele><time>2026-04-15T02:27:02Z</time></trkpt><trkpt lat="-27.70077155278915" lon="114.16798877924714"><ele>9.0</ele><time>2026-04-15T02:27:03Z</time></trkpt><trkpt lat="-27.700688736824535" lon="114.16808706110993"><ele>9.0</ele><time>2026-04-15T02:27:04Z</time></trkpt><trkpt lat="-27.700606122192223" lon="114.16821902471234"><ele>9.0</ele><time>2026-04-15T02:27:05Z</time></trkpt><trkpt lat="-27.7005166624821" lon="114.16836852956092"><ele>9.0</ele><time>2026-04-15T02:27:06Z</time></trkpt><trkpt lat="-27.700429399315105" lon="114.1684995321138"><ele>9.0</ele><time>2026-04-15T02:27:07Z</time></trkpt><trkpt lat="-27.70035453245412" lon="114.16860360489602"><ele>9.0</ele><time>2026-04-15T02:27:08Z</time></trkpt><trkpt lat="-27.70027934210015" lon="114.16869914586083"><ele>9.0</ele><time>2026-04-15T02:27:09Z</time></trkpt><trkpt lat="-27.700196951673277" lon="114.16881592353498"><ele>9.0</ele><time>2026-04-15T02:27:10Z</time></trkpt><trkpt lat="-27.700112751599907" lon="114.16895724385198"><ele>9.0</ele><time>2026-04-15T02:27:11Z</time></trkpt><trkpt lat="-27.700008726368363" lon="114.16911253261122"><ele>9.0</ele><time>2026-04-15T02:27:12Z</time></trkpt><trkpt lat="-27.699898458434244" lon="114.16927122827302"><ele>9.0</ele><time>2026-04-15T02:27:13Z</time></trkpt><trkpt lat="-27.699796170051933" lon="114.16941219889077"><ele>9.0</ele><time>2026-04-15T02:27:14Z</time></trkpt><trkpt lat="-27.69970274348547" lon="114.16953401230565"><ele>9.0</ele><time>2026-04-15T02:27:15Z</time></trkpt><trkpt lat="-27.69962191524169" lon="114.16964698802623"><ele>9.0</ele><time>2026-04-15T02:27:16.001Z</time></trkpt><trkpt lat="-27.699563251389176" lon="114.16973163370035"><ele>9.0</ele><time>2026-04-15T02:27:17.001Z</time></trkpt><trkpt lat="-27.69948561381131" lon="114.16982310640007"><ele>9.0</ele><time>2026-04-15T02:27:19.001Z</time></trkpt><trkpt lat="-27.699498205470423" lon="114.16993354198118"><ele>9.0</ele><time>2026-04-15T02:27:21.001Z</time></trkpt><trkpt lat="-27.699550625573817" lon="114.16999029649624"><ele>9.0</ele><time>2026-04-15T02:27:22.001Z</time></trkpt><trkpt lat="-27.699603380052665" lon="114.17004560631638"><ele>9.0</ele><time>2026-04-15T02:27:23.001Z</time></trkpt><trkpt lat="-27.699673490887257" lon="114.17010297547559"><ele>9.0</ele><time>2026-04-15T02:27:24.001Z</time></trkpt><trkpt lat="-27.699742435865424" lon="114.17015559804746"><ele>9.0</ele><time>2026-04-15T02:27:25.001Z</time></trkpt><trkpt lat="-27.699841940145923" lon="114.17020471004382"><ele>9.0</ele><time>2026-04-15T02:27:27.001Z</time></trkpt><trkpt lat="-27.699926915667465" lon="114.17013790957385"><ele>9.0</ele><time>2026-04-15T02:27:29.001Z</time></trkpt><trkpt lat="-27.699974218255296" lon="114.17006922775604"><ele>9.0</ele><time>2026-04-15T02:27:30.001Z</time></trkpt><trkpt lat="-27.70002292168771" lon="114.16999128249181"><ele>9.0</ele><time>2026-04-15T02:27:31.001Z</time></trkpt><trkpt lat="-27.700066836509404" lon="114.16993463191858"><ele>9.0</ele><time>2026-04-15T02:27:32.001Z</time></trkpt><trkpt lat="-27.700136746420753" lon="114.16981527307017"><ele>9.0</ele><time>2026-04-15T02:27:34.001Z</time></trkpt><trkpt lat="-27.70019231933339" lon="114.16976048830499"><ele>9.0</ele><time>2026-04-15T02:27:35.001Z</time></trkpt><trkpt lat="-27.7002265113633" lon="114.16970061601357"><ele>9.0</ele><time>2026-04-15T02:27:36.001Z</time></trkpt><trkpt lat="-27.70028207143098" lon="114.16960719690216"><ele>9.0</ele><time>2026-04-15T02:27:38.001Z</time></trkpt><trkpt lat="-27.7003303171057" lon="114.1695426945906"><ele>9.0</ele><time>2026-04-15T02:27:40.001Z</time></trkpt><trkpt lat="-27.700374496245203" lon="114.1694773381723"><ele>9.0</ele><time>2026-04-15T02:28:25.001Z</time></trkpt><trkpt lat="-27.70044098969969" lon="114.16937751933848"><ele>9.0</ele><time>2026-04-15T02:28:27.001Z</time></trkpt><trkpt lat="-27.700463618732407" lon="114.16928340308881"><ele>9.0</ele><time>2026-04-15T02:28:29.001Z</time></trkpt><trkpt lat="-27.700417403986698" lon="114.1691432220468"><ele>9.0</ele><time>2026-04-15T02:28:32.001Z</time></trkpt><trkpt lat="-27.700322556217778" lon="114.16912514377209"><ele>9.0</ele><time>2026-04-15T02:28:34.001Z</time></trkpt><trkpt lat="-27.70024735384519" lon="114.16920576762455"><ele>9.0</ele><time>2026-04-15T02:28:36.001Z</time></trkpt><trkpt lat="-27.700188976741398" lon="114.16930240117748"><ele>9.0</ele><time>2026-04-15T02:28:38.001Z</time></trkpt><trkpt lat="-27.70013256491269" lon="114.16940554074401"><ele>9.0</ele><time>2026-04-15T02:28:40.001Z</time></trkpt><trkpt lat="-27.70004637418992" lon="114.16950636980833"><ele>9.0</ele><time>2026-04-15T02:28:42.001Z</time></trkpt><trkpt lat="-27.70001339375303" lon="114.1695830331373"><ele>9.0</ele><time>2026-04-15T02:28:43.001Z</time></trkpt><trkpt lat="-27.699962836412126" lon="114.16964870600752"><ele>9.0</ele><time>2026-04-15T02:28:44.001Z</time></trkpt><trkpt lat="-27.69991678086516" lon="114.1697151093776"><ele>9.0</ele><time>2026-04-15T02:28:45.001Z</time></trkpt><trkpt lat="-27.699869198829443" lon="114.1697787245371"><ele>9.0</ele><time>2026-04-15T02:28:46.001Z</time></trkpt><trkpt lat="-27.699817188840708" lon="114.16984935951407"><ele>9.0</ele><time>2026-04-15T02:28:47.001Z</time></trkpt><trkpt lat="-27.699761446916966" lon="114.16992621977603"><ele>9.0</ele><time>2026-04-15T02:28:48.001Z</time></trkpt><trkpt lat="-27.699718990467133" lon="114.16998784616548"><ele>9.0</ele><time>2026-04-15T02:28:49.001Z</time></trkpt><trkpt lat="-27.69965704670293" lon="114.17004379170933"><ele>9.0</ele><time>2026-04-15T02:28:51.001Z</time></trkpt><trkpt lat="-27.699544536449096" lon="114.16994882441821"><ele>9.0</ele><time>2026-04-15T02:28:55.001Z</time></trkpt><trkpt lat="-27.699521683598736" lon="114.16985820702267"><ele>9.0</ele><time>2026-04-15T02:28:58.001Z</time></trkpt><trkpt lat="-27.69939081002564" lon="114.16994753826748"><ele>9.0</ele><time>2026-04-15T02:29:02.001Z</time></trkpt><trkpt lat="-27.699337890841836" lon="114.17002740967497"><ele>9.0</ele><time>2026-04-15T02:29:03.001Z</time></trkpt><trkpt lat="-27.699280620412956" lon="114.17010648797027"><ele>9.0</ele><time>2026-04-15T02:29:04.001Z</time></trkpt><trkpt lat="-27.6992269081848" lon="114.17020806576518"><ele>9.25</ele><time>2026-04-15T02:29:05.001Z</time></trkpt><trkpt lat="-27.69915380221158" lon="114.17030575790268"><ele>9.5</ele><time>2026-04-15T02:29:06.001Z</time></trkpt><trkpt lat="-27.69907443067158" lon="114.17041152472558"><ele>9.75</ele><time>2026-04-15T02:29:07.001Z</time></trkpt><trkpt lat="-27.698990641748637" lon="114.17052484832914"><ele>10.0</ele><time>2026-04-15T02:29:08.001Z</time></trkpt><trkpt lat="-27.69890714901176" lon="114.17063386686536"><ele>10.666666666666668</ele><time>2026-04-15T02:29:09.001Z</time></trkpt><trkpt lat="-27.69881135665644" lon="114.17075755113586"><ele>11.333333333333334</ele><time>2026-04-15T02:29:10.001Z</time></trkpt><trkpt lat="-27.698707193669104" lon="114.170897184132"><ele>12.0</ele><time>2026-04-15T02:29:11.001Z</time></trkpt><trkpt lat="-27.6985983354444" lon="114.17105445604506"><ele>11.5</ele><time>2026-04-15T02:29:12.001Z</time></trkpt><trkpt lat="-27.698498406038123" lon="114.17120043951695"><ele>11.0</ele><time>2026-04-15T02:29:13.001Z</time></trkpt><trkpt lat="-27.698405324234592" lon="114.17133208211112"><ele>10.5</ele><time>2026-04-15T02:29:14.001Z</time></trkpt><trkpt lat="-27.69831751710494" lon="114.17144881240489"><ele>10.0</ele><time>2026-04-15T02:29:15.001Z</time></trkpt><trkpt lat="-27.698234322072096" lon="114.17156036092666"><ele>10.0</ele><time>2026-04-15T02:29:16.001Z</time></trkpt><trkpt lat="-27.69815877368375" lon="114.17166249890921"><ele>10.0</ele><time>2026-04-15T02:29:17.001Z</time></trkpt><trkpt lat="-27.698097209470692" lon="114.17175787808786"><ele>10.0</ele><time>2026-04-15T02:29:18.001Z</time></trkpt><trkpt lat="-27.698034668342277" lon="114.17182270469708"><ele>10.0</ele><time>2026-04-15T02:29:19.001Z</time></trkpt><trkpt lat="-27.697972504418612" lon="114.17190752572405"><ele>10.0</ele><time>2026-04-15T02:29:21.001Z</time></trkpt><trkpt lat="-27.698117254316646" lon="114.1721028736056"><ele>10.0</ele><time>2026-04-15T02:29:23.001Z</time></trkpt><trkpt lat="-27.69816535049327" lon="114.17216566277403"><ele>10.0</ele><time>2026-04-15T02:29:24.001Z</time></trkpt><trkpt lat="-27.698234506586495" lon="114.1722256883306"><ele>10.0</ele><time>2026-04-15T02:29:25.001Z</time></trkpt><trkpt lat="-27.698323123887214" lon="114.17229128900873"><ele>10.0</ele><time>2026-04-15T02:29:26.001Z</time></trkpt><trkpt lat="-27.698422546795545" lon="114.17237314984064"><ele>10.0</ele><time>2026-04-15T02:29:27.001Z</time></trkpt><trkpt lat="-27.698528064601767" lon="114.17246917970368"><ele>12.0</ele><time>2026-04-15T02:29:28.001Z</time></trkpt><trkpt lat="-27.69864050139834" lon="114.17257712361531"><ele>14.0</ele><time>2026-04-15T02:29:29.001Z</time></trkpt><trkpt lat="-27.698762061470013" lon="114.17269134944748"><ele>16.0</ele><time>2026-04-15T02:29:30.001Z</time></trkpt><trkpt lat="-27.698900535332708" lon="114.17281522198552"><ele>16.0</ele><time>2026-04-15T02:29:31.001Z</time></trkpt><trkpt lat="-27.69903614792393" lon="114.17293738356643"><ele>16.0</ele><time>2026-04-15T02:29:32.001Z</time></trkpt><trkpt lat="-27.69916430540563" lon="114.1730563907727"><ele>16.0</ele><time>2026-04-15T02:29:33.001Z</time></trkpt><trkpt lat="-27.699288891310776" lon="114.17317147017143"><ele>17.333333333333332</ele><time>2026-04-15T02:29:34.001Z</time></trkpt><trkpt lat="-27.69941482369512" lon="114.17328546193406"><ele>18.666666666666668</ele><time>2026-04-15T02:29:35.001Z</time></trkpt><trkpt lat="-27.6995333819314" lon="114.17339434031186"><ele>20.0</ele><time>2026-04-15T02:29:36.001Z</time></trkpt><trkpt lat="-27.699644095018808" lon="114.1734991992095"><ele>20.2</ele><time>2026-04-15T02:29:37.001Z</time></trkpt><trkpt lat="-27.699751518794393" lon="114.17359955354996"><ele>20.4</ele><time>2026-04-15T02:29:38.001Z</time></trkpt><trkpt lat="-27.699851953413784" lon="114.17369117023915"><ele>20.6</ele><time>2026-04-15T02:29:39.001Z</time></trkpt><trkpt lat="-27.699933404120653" lon="114.1737657718421"><ele>20.8</ele><time>2026-04-15T02:29:40.001Z</time></trkpt><trkpt lat="-27.699983903214672" lon="114.17381855682935"><ele>21.0</ele><time>2026-04-15T02:29:41.001Z</time></trkpt><trkpt lat="-27.700035677737745" lon="114.17386579673195"><ele>21.0</ele><time>2026-04-15T02:29:43.001Z</time></trkpt><trkpt lat="-27.699975363740887" lon="114.1739417507894"><ele>21.0</ele><time>2026-04-15T02:29:44.001Z</time></trkpt><trkpt lat="-27.699930601389593" lon="114.17400373183892"><ele>21.0</ele><time>2026-04-15T02:29:45.001Z</time></trkpt><trkpt lat="-27.69988372910115" lon="114.17409632623603"><ele>21.0</ele><time>2026-04-15T02:29:46.001Z</time></trkpt><trkpt lat="-27.699805245315105" lon="114.17418952387416"><ele>21.0</ele><time>2026-04-15T02:29:47.001Z</time></trkpt><trkpt lat="-27.6997178919114" lon="114.17430259817635"><ele>20.666666666666668</ele><time>2026-04-15T02:29:48.001Z</time></trkpt><trkpt lat="-27.699623264270077" lon="114.17442987477918"><ele>20.333333333333336</ele><time>2026-04-15T02:29:49.001Z</time></trkpt><trkpt lat="-27.699519615239932" lon="114.17456827530302"><ele>20.0</ele><time>2026-04-15T02:29:50.001Z</time></trkpt><trkpt lat="-27.699414232404372" lon="114.17471471417282"><ele>19.666666666666668</ele><time>2026-04-15T02:29:51.001Z</time></trkpt><trkpt lat="-27.699306325545738" lon="114.17486844642441"><ele>19.333333333333332</ele><time>2026-04-15T02:29:52.001Z</time></trkpt><trkpt lat="-27.699191703589243" lon="114.17502929131226"><ele>19.0</ele><time>2026-04-15T02:29:53.001Z</time></trkpt><trkpt lat="-27.69907576901606" lon="114.1751894961299"><ele>19.0</ele><time>2026-04-15T02:29:54.001Z</time></trkpt><trkpt lat="-27.69896213720747" lon="114.17534959758959"><ele>19.0</ele><time>2026-04-15T02:29:55.001Z</time></trkpt><trkpt lat="-27.69884301081064" lon="114.17551876978229"><ele>19.0</ele><time>2026-04-15T02:29:56.001Z</time></trkpt><trkpt lat="-27.698723794041246" lon="114.17568613798511"><ele>19.333333333333332</ele><time>2026-04-15T02:29:57.001Z</time></trkpt><trkpt lat="-27.69860500256897" lon="114.17584721762132"><ele>19.666666666666668</ele><time>2026-04-15T02:29:58.001Z</time></trkpt><trkpt lat="-27.698486313904173" lon="114.17600599719788"><ele>20.0</ele><time>2026-04-15T02:29:59.001Z</time></trkpt><trkpt lat="-27.698371214465617" lon="114.17616454260963"><ele>20.0</ele><time>2026-04-15T02:30:00.001Z</time></trkpt><trkpt lat="-27.698259571720907" lon="114.17632630535522"><ele>20.0</ele><time>2026-04-15T02:30:01.001Z</time></trkpt><trkpt lat="-27.69814561675615" lon="114.17649286205635"><ele>20.0</ele><time>2026-04-15T02:30:02.001Z</time></trkpt><trkpt lat="-27.698028497811123" lon="114.17665699875684"><ele>20.666666666666668</ele><time>2026-04-15T02:30:03.001Z</time></trkpt><trkpt lat="-27.697907499272787" lon="114.17682110007748"><ele>21.333333333333332</ele><time>2026-04-15T02:30:04.001Z</time></trkpt><trkpt lat="-27.697791342241022" lon="114.17697958081907"><ele>22.0</ele><time>2026-04-15T02:30:05.001Z</time></trkpt><trkpt lat="-27.697675460624247" lon="114.17713878756285"><ele>22.0</ele><time>2026-04-15T02:30:06.001Z</time></trkpt><trkpt lat="-27.697563370316615" lon="114.17729212377473"><ele>22.0</ele><time>2026-04-15T02:30:07.001Z</time></trkpt><trkpt lat="-27.697452504704543" lon="114.17744638899481"><ele>22.0</ele><time>2026-04-15T02:30:08.001Z</time></trkpt><trkpt lat="-27.697345024413124" lon="114.17760078210112"><ele>21.666666666666664</ele><time>2026-04-15T02:30:09.001Z</time></trkpt><trkpt lat="-27.697235522045336" lon="114.17775505309065"><ele>21.333333333333332</ele><time>2026-04-15T02:30:10.001Z</time></trkpt><trkpt lat="-27.697120037403284" lon="114.17791165659429"><ele>21.0</ele><time>2026-04-15T02:30:11.001Z</time></trkpt><trkpt lat="-27.697003693794066" lon="114.17807308101011"><ele>20.333333333333332</ele><time>2026-04-15T02:30:12.001Z</time></trkpt><trkpt lat="-27.69689431049767" lon="114.17822696468194"><ele>19.666666666666664</ele><time>2026-04-15T02:30:13.001Z</time></trkpt><trkpt lat="-27.696782959620638" lon="114.17838336251715"><ele>19.0</ele><time>2026-04-15T02:30:14.001Z</time></trkpt><trkpt lat="-27.69667313444489" lon="114.17853629758307"><ele>19.0</ele><time>2026-04-15T02:30:15.001Z</time></trkpt><trkpt lat="-27.69656041641329" lon="114.17868925878263"><ele>19.0</ele><time>2026-04-15T02:30:16.001Z</time></trkpt><trkpt lat="-27.69645095317821" lon="114.17883864282554"><ele>19.0</ele><time>2026-04-15T02:30:17.001Z</time></trkpt><trkpt lat="-27.696341356062952" lon="114.17899177086008"><ele>18.333333333333332</ele><time>2026-04-15T02:30:18.001Z</time></trkpt><trkpt lat="-27.696227624745593" lon="114.17915323701958"><ele>17.666666666666668</ele><time>2026-04-15T02:30:19.001Z</time></trkpt><trkpt lat="-27.696107313922496" lon="114.17931806171022"><ele>17.0</ele><time>2026-04-15T02:30:20.001Z</time></trkpt><trkpt lat="-27.69598529124157" lon="114.17948306168898"><ele>16.666666666666668</ele><time>2026-04-15T02:30:21.001Z</time></trkpt><trkpt lat="-27.695861004257736" lon="114.1796550748054"><ele>16.333333333333332</ele><time>2026-04-15T02:30:22.001Z</time></trkpt><trkpt lat="-27.6957277216177" lon="114.17984407962511"><ele>16.0</ele><time>2026-04-15T02:30:23.001Z</time></trkpt><trkpt lat="-27.695584471255597" lon="114.18004492165232"><ele>16.0</ele><time>2026-04-15T02:30:24.001Z</time></trkpt><trkpt lat="-27.695437773783695" lon="114.18024846191169"><ele>16.0</ele><time>2026-04-15T02:30:25.001Z</time></trkpt><trkpt lat="-27.695294546656985" lon="114.18044731976201"><ele>15.5</ele><time>2026-04-15T02:30:26.001Z</time></trkpt><trkpt lat="-27.695148918340248" lon="114.18065012666712"><ele>15.0</ele><time>2026-04-15T02:30:27.001Z</time></trkpt><trkpt lat="-27.695001038859772" lon="114.18085487012519"><ele>15.0</ele><time>2026-04-15T02:30:28.001Z</time></trkpt><trkpt lat="-27.69484920350904" lon="114.18106924157446"><ele>15.0</ele><time>2026-04-15T02:30:29.001Z</time></trkpt><trkpt lat="-27.69469824105397" lon="114.18128299600264"><ele>15.0</ele><time>2026-04-15T02:30:30.001Z</time></trkpt><trkpt lat="-27.694551917985454" lon="114.18148363935529"><ele>15.0</ele><time>2026-04-15T02:30:31.001Z</time></trkpt><trkpt lat="-27.694407692779738" lon="114.18168075136481"><ele>15.0</ele><time>2026-04-15T02:30:32.001Z</time></trkpt><trkpt lat="-27.694262459387726" lon="114.18188266208494"><ele>15.0</ele><time>2026-04-15T02:30:33.001Z</time></trkpt><trkpt lat="-27.69412084664344" lon="114.18207817494023"><ele>15.0</ele><time>2026-04-15T02:30:34.001Z</time></trkpt><trkpt lat="-27.693974130328534" lon="114.1822791592497"><ele>15.0</ele><time>2026-04-15T02:30:35.001Z</time></trkpt><trkpt lat="-27.693824847538213" lon="114.1824832461694"><ele>15.5</ele><time>2026-04-15T02:30:36.001Z</time></trkpt><trkpt lat="-27.693677956578124" lon="114.18269212295766"><ele>16.0</ele><time>2026-04-15T02:30:37.001Z</time></trkpt><trkpt lat="-27.69352918275009" lon="114.18290399493017"><ele>16.5</ele><time>2026-04-15T02:30:38.001Z</time></trkpt><trkpt lat="-27.693373703764173" lon="114.18311801989576"><ele>17.0</ele><time>2026-04-15T02:30:39.001Z</time></trkpt><trkpt lat="-27.693214307435877" lon="114.18333578520601"><ele>18.0</ele><time>2026-04-15T02:30:40.001Z</time></trkpt><trkpt lat="-27.693054398533032" lon="114.1835564832789"><ele>19.0</ele><time>2026-04-15T02:30:41.001Z</time></trkpt><trkpt lat="-27.692896793262147" lon="114.18377844734415"><ele>20.5</ele><time>2026-04-15T02:30:42.001Z</time></trkpt><trkpt lat="-27.69274006860825" lon="114.1840005745575"><ele>22.0</ele><time>2026-04-15T02:30:43.001Z</time></trkpt><trkpt lat="-27.692580249817347" lon="114.18422011670872"><ele>22.5</ele><time>2026-04-15T02:30:44.001Z</time></trkpt><trkpt lat="-27.69241925283244" lon="114.18443766523782"><ele>23.0</ele><time>2026-04-15T02:30:45.001Z</time></trkpt><trkpt lat="-27.692261539758462" lon="114.18465619561891"><ele>24.0</ele><time>2026-04-15T02:30:46.001Z</time></trkpt><trkpt lat="-27.692105941511972" lon="114.18487304065299"><ele>25.0</ele><time>2026-04-15T02:30:47.001Z</time></trkpt><trkpt lat="-27.691950897634612" lon="114.18508740347511"><ele>27.0</ele><time>2026-04-15T02:30:48.001Z</time></trkpt><trkpt lat="-27.691798063631698" lon="114.18530263872505"><ele>29.0</ele><time>2026-04-15T02:30:49.001Z</time></trkpt><trkpt lat="-27.691649146633797" lon="114.18552598250336"><ele>29.5</ele><time>2026-04-15T02:30:50.001Z</time></trkpt><trkpt lat="-27.691506599693934" lon="114.18576316261601"><ele>30.0</ele><time>2026-04-15T02:30:51.001Z</time></trkpt><trkpt lat="-27.69136681157797" lon="114.18601210114022"><ele>30.0</ele><time>2026-04-15T02:30:52.001Z</time></trkpt><trkpt lat="-27.691231944048358" lon="114.18626439447291"><ele>30.0</ele><time>2026-04-15T02:30:53.001Z</time></trkpt><trkpt lat="-27.691102493581393" lon="114.18652023459993"><ele>30.5</ele><time>2026-04-15T02:30:54.001Z</time></trkpt><trkpt lat="-27.690975838279492" lon="114.18677558116586"><ele>31.0</ele><time>2026-04-15T02:30:55.001Z</time></trkpt><trkpt lat="-27.690848073108373" lon="114.18703369594158"><ele>31.0</ele><time>2026-04-15T02:30:56.001Z</time></trkpt><trkpt lat="-27.69072236127685" lon="114.1872901252963"><ele>31.0</ele><time>2026-04-15T02:30:57.001Z</time></trkpt><trkpt lat="-27.690597032775617" lon="114.18754702437784"><ele>31.5</ele><time>2026-04-15T02:30:58.001Z</time></trkpt><trkpt lat="-27.69047364859993" lon="114.1878032790038"><ele>32.0</ele><time>2026-04-15T02:30:59.001Z</time></trkpt><trkpt lat="-27.690347433166654" lon="114.18806253325968"><ele>32.0</ele><time>2026-04-15T02:31:00.001Z</time></trkpt><trkpt lat="-27.690218958826524" lon="114.18832082186849"><ele>32.0</ele><time>2026-04-15T02:31:01.001Z</time></trkpt><trkpt lat="-27.690091136621565" lon="114.18857908099663"><ele>32.0</ele><time>2026-04-15T02:31:02.001Z</time></trkpt><trkpt lat="-27.68996617628477" lon="114.18883416672965"><ele>32.0</ele><time>2026-04-15T02:31:03.001Z</time></trkpt><trkpt lat="-27.689841401386126" lon="114.18909286464519"><ele>33.0</ele><time>2026-04-15T02:31:04.001Z</time></trkpt><trkpt lat="-27.689718828094747" lon="114.1893488494761"><ele>34.0</ele><time>2026-04-15T02:31:05.001Z</time></trkpt><trkpt lat="-27.68959497198884" lon="114.18960558095863"><ele>34.5</ele><time>2026-04-15T02:31:06.001Z</time></trkpt><trkpt lat="-27.689471923842262" lon="114.18986395682228"><ele>35.0</ele><time>2026-04-15T02:31:07.001Z</time></trkpt><trkpt lat="-27.689348899829056" lon="114.19012082613207"><ele>33.5</ele><time>2026-04-15T02:31:08.001Z</time></trkpt><trkpt lat="-27.689224910743192" lon="114.19038030808257"><ele>32.0</ele><time>2026-04-15T02:31:09.001Z</time></trkpt><trkpt lat="-27.68910411341992" lon="114.19064155682926"><ele>33.0</ele><time>2026-04-15T02:31:10.001Z</time></trkpt><trkpt lat="-27.688987644833507" lon="114.19090642026568"><ele>34.0</ele><time>2026-04-15T02:31:11.001Z</time></trkpt><trkpt lat="-27.688872305336137" lon="114.19118013449635"><ele>34.0</ele><time>2026-04-15T02:31:12.001Z</time></trkpt><trkpt lat="-27.688765991605067" lon="114.19145467378073"><ele>34.0</ele><time>2026-04-15T02:31:13.001Z</time></trkpt><trkpt lat="-27.688671583990754" lon="114.19173118840442"><ele>36.5</ele><time>2026-04-15T02:31:14.001Z</time></trkpt><trkpt lat="-27.688584101584873" lon="114.19200982625784"><ele>39.0</ele><time>2026-04-15T02:31:15.001Z</time></trkpt><trkpt lat="-27.68850607435638" lon="114.19229095103954"><ele>40.0</ele><time>2026-04-15T02:31:16.001Z</time></trkpt><trkpt lat="-27.68843615692871" lon="114.19257545834074"><ele>41.0</ele><time>2026-04-15T02:31:17.001Z</time></trkpt><trkpt lat="-27.68837280096183" lon="114.19286261742425"><ele>41.0</ele><time>2026-04-15T02:31:18.001Z</time></trkpt><trkpt lat="-27.688312975265173" lon="114.19315286421488"><ele>41.0</ele><time>2026-04-15T02:31:19.001Z</time></trkpt><trkpt lat="-27.68825804732786" lon="114.19344374294887"><ele>42.0</ele><time>2026-04-15T02:31:20.001Z</time></trkpt><trkpt lat="-27.68821359042846" lon="114.19373899479992"><ele>43.0</ele><time>2026-04-15T02:31:21.001Z</time></trkpt><trkpt lat="-27.68818038118835" lon="114.19403223649333"><ele>45.0</ele><time>2026-04-15T02:31:22.001Z</time></trkpt><trkpt lat="-27.688156022829162" lon="114.19432318880688"><ele>47.0</ele><time>2026-04-15T02:31:23.001Z</time></trkpt><trkpt lat="-27.688141444941202" lon="114.19461137618379"><ele>49.5</ele><time>2026-04-15T02:31:24.001Z</time></trkpt><trkpt lat="-27.688137448109252" lon="114.19490467177805"><ele>52.0</ele><time>2026-04-15T02:31:25.001Z</time></trkpt><trkpt lat="-27.688143688710618" lon="114.19520171381525"><ele>52.0</ele><time>2026-04-15T02:31:26.001Z</time></trkpt><trkpt lat="-27.688160431211994" lon="114.19550074644343"><ele>52.0</ele><time>2026-04-15T02:31:27.001Z</time></trkpt><trkpt lat="-27.688188067814583" lon="114.19580213210838"><ele>53.5</ele><time>2026-04-15T02:31:28.001Z</time></trkpt><trkpt lat="-27.688220736794555" lon="114.19610908549105"><ele>55.0</ele><time>2026-04-15T02:31:29.001Z</time></trkpt><trkpt lat="-27.688259440222282" lon="114.19641487146241"><ele>57.0</ele><time>2026-04-15T02:31:30.001Z</time></trkpt><trkpt lat="-27.68830340197452" lon="114.19671611030242"><ele>59.0</ele><time>2026-04-15T02:31:31.001Z</time></trkpt><trkpt lat="-27.68835126723967" lon="114.19701382306549"><ele>59.0</ele><time>2026-04-15T02:31:32.001Z</time></trkpt><trkpt lat="-27.688401982995604" lon="114.19730880236388"><ele>59.0</ele><time>2026-04-15T02:31:33.001Z</time></trkpt><trkpt lat="-27.688452063087194" lon="114.19760302475224"><ele>60.0</ele><time>2026-04-15T02:31:34.001Z</time></trkpt><trkpt lat="-27.688499792048802" lon="114.19789962229538"><ele>61.0</ele><time>2026-04-15T02:31:35.001Z</time></trkpt><trkpt lat="-27.68854717290415" lon="114.19819895727672"><ele>63.5</ele><time>2026-04-15T02:31:36.001Z</time></trkpt><trkpt lat="-27.688597418974602" lon="114.19850006455549"><ele>66.0</ele><time>2026-04-15T02:31:37.001Z</time></trkpt><trkpt lat="-27.688649123840733" lon="114.1988017390662"><ele>67.5</ele><time>2026-04-15T02:31:38.001Z</time></trkpt><trkpt lat="-27.688701386789205" lon="114.19910409631453"><ele>69.0</ele><time>2026-04-15T02:31:39.001Z</time></trkpt><trkpt lat="-27.688753879360657" lon="114.19941049835715"><ele>69.0</ele><time>2026-04-15T02:31:40.001Z</time></trkpt><trkpt lat="-27.68880425539866" lon="114.19971746114804"><ele>69.0</ele><time>2026-04-15T02:31:41.001Z</time></trkpt><trkpt lat="-27.688854784946273" lon="114.20002552805924"><ele>71.0</ele><time>2026-04-15T02:31:42.001Z</time></trkpt><trkpt lat="-27.688905549474217" lon="114.20032773653676"><ele>73.0</ele><time>2026-04-15T02:31:43.001Z</time></trkpt><trkpt lat="-27.688957472421958" lon="114.2006250732366"><ele>74.5</ele><time>2026-04-15T02:31:44.001Z</time></trkpt><trkpt lat="-27.689007335018342" lon="114.20091674015106"><ele>76.0</ele><time>2026-04-15T02:31:45.001Z</time></trkpt><trkpt lat="-27.689057934142888" lon="114.20120343272131"><ele>76.0</ele><time>2026-04-15T02:31:46.001Z</time></trkpt><trkpt lat="-27.68910650254124" lon="114.2014795183398"><ele>76.0</ele><time>2026-04-15T02:31:47.001Z</time></trkpt><trkpt lat="-27.689151398035186" lon="114.20175946370995"><ele>77.0</ele><time>2026-04-15T02:31:48.001Z</time></trkpt><trkpt lat="-27.68919678776198" lon="114.20202695231202"><ele>78.0</ele><time>2026-04-15T02:31:49.001Z</time></trkpt><trkpt lat="-27.68924152742615" lon="114.20229170564113"><ele>79.5</ele><time>2026-04-15T02:31:50.001Z</time></trkpt><trkpt lat="-27.68928549018091" lon="114.20255314837918"><ele>81.0</ele><time>2026-04-15T02:31:51.001Z</time></trkpt><trkpt lat="-27.689329130059836" lon="114.20281255213064"><ele>81.0</ele><time>2026-04-15T02:31:52.001Z</time></trkpt><trkpt lat="-27.68937072482775" lon="114.20306354834308"><ele>81.0</ele><time>2026-04-15T02:31:53.001Z</time></trkpt><trkpt lat="-27.689410557753966" lon="114.20331355811767"><ele>82.5</ele><time>2026-04-15T02:31:54.001Z</time></trkpt><trkpt lat="-27.689453283377816" lon="114.20356566128271"><ele>84.0</ele><time>2026-04-15T02:31:55.001Z</time></trkpt><trkpt lat="-27.689492783192044" lon="114.20381882322947"><ele>86.0</ele><time>2026-04-15T02:31:56.001Z</time></trkpt><trkpt lat="-27.689531812538952" lon="114.20407513581453"><ele>88.0</ele><time>2026-04-15T02:31:57.001Z</time></trkpt><trkpt lat="-27.68957452006354" lon="114.20433511180573"><ele>88.0</ele><time>2026-04-15T02:31:58.001Z</time></trkpt><trkpt lat="-27.689619048338287" lon="114.2046008196474"><ele>88.0</ele><time>2026-04-15T02:31:59.001Z</time></trkpt><trkpt lat="-27.689664155744605" lon="114.20486981892661"><ele>89.5</ele><time>2026-04-15T02:32:00.001Z</time></trkpt><trkpt lat="-27.689710928429697" lon="114.20514160970431"><ele>91.0</ele><time>2026-04-15T02:32:01.001Z</time></trkpt><trkpt lat="-27.689758106080742" lon="114.20541966147134"><ele>93.0</ele><time>2026-04-15T02:32:02.001Z</time></trkpt><trkpt lat="-27.689802008785115" lon="114.2056976277423"><ele>95.0</ele><time>2026-04-15T02:32:03.001Z</time></trkpt><trkpt lat="-27.689840383132832" lon="114.20597506284486"><ele>95.0</ele><time>2026-04-15T02:32:04.001Z</time></trkpt><trkpt lat="-27.68986941323678" lon="114.2062558271258"><ele>95.0</ele><time>2026-04-15T02:32:05.001Z</time></trkpt><trkpt lat="-27.68989165080634" lon="114.20653680330467"><ele>96.5</ele><time>2026-04-15T02:32:06.001Z</time></trkpt><trkpt lat="-27.68990844650273" lon="114.20682447233293"><ele>98.0</ele><time>2026-04-15T02:32:07.001Z</time></trkpt><trkpt lat="-27.689921192654886" lon="114.20711402097722"><ele>100.0</ele><time>2026-04-15T02:32:08.001Z</time></trkpt><trkpt lat="-27.68993206986557" lon="114.20739958199741"><ele>102.0</ele><time>2026-04-15T02:32:09.001Z</time></trkpt><trkpt lat="-27.6899357713251" lon="114.20768371879113"><ele>102.0</ele><time>2026-04-15T02:32:10.001Z</time></trkpt><trkpt lat="-27.689925771150257" lon="114.20796958318866"><ele>102.0</ele><time>2026-04-15T02:32:11.001Z</time></trkpt><trkpt lat="-27.689901615019657" lon="114.20825676277113"><ele>103.5</ele><time>2026-04-15T02:32:12.001Z</time></trkpt><trkpt lat="-27.689864234292575" lon="114.20855126440617"><ele>105.0</ele><time>2026-04-15T02:32:13.001Z</time></trkpt><trkpt lat="-27.689817796710376" lon="114.20884360922254"><ele>107.5</ele><time>2026-04-15T02:32:14.001Z</time></trkpt><trkpt lat="-27.689763281456614" lon="114.20913313035483"><ele>110.0</ele><time>2026-04-15T02:32:15.001Z</time></trkpt><trkpt lat="-27.68970691528415" lon="114.20941915124682"><ele>110.0</ele><time>2026-04-15T02:32:16.001Z</time></trkpt><trkpt lat="-27.68964708050294" lon="114.20970224788616"><ele>110.0</ele><time>2026-04-15T02:32:17.001Z</time></trkpt><trkpt lat="-27.689580653756853" lon="114.20998713212917"><ele>111.5</ele><time>2026-04-15T02:32:18.001Z</time></trkpt><trkpt lat="-27.689501711423596" lon="114.21027061598521"><ele>113.0</ele><time>2026-04-15T02:32:19.001Z</time></trkpt><trkpt lat="-27.689412166955744" lon="114.21055311623951"><ele>114.5</ele><time>2026-04-15T02:32:20.001Z</time></trkpt><trkpt lat="-27.689314648692953" lon="114.2108302657791"><ele>116.0</ele><time>2026-04-15T02:32:21.001Z</time></trkpt><trkpt lat="-27.68920940050686" lon="114.21110342026633"><ele>116.0</ele><time>2026-04-15T02:32:22.001Z</time></trkpt><trkpt lat="-27.689094295040082" lon="114.21137228574113"><ele>116.0</ele><time>2026-04-15T02:32:23.001Z</time></trkpt><trkpt lat="-27.688969870087327" lon="114.21164312099293"><ele>120.0</ele><time>2026-04-15T02:32:24.001Z</time></trkpt><trkpt lat="-27.688843031468423" lon="114.21191415285384"><ele>124.0</ele><time>2026-04-15T02:32:25.001Z</time></trkpt><trkpt lat="-27.68871650407385" lon="114.21218437544908"><ele>123.0</ele><time>2026-04-15T02:32:26.001Z</time></trkpt><trkpt lat="-27.688589888377525" lon="114.21245495521075"><ele>122.0</ele><time>2026-04-15T02:32:27.001Z</time></trkpt><trkpt lat="-27.688461639636625" lon="114.2127274920388"><ele>122.0</ele><time>2026-04-15T02:32:28.001Z</time></trkpt><trkpt lat="-27.68833563822129" lon="114.2129984403542"><ele>122.0</ele><time>2026-04-15T02:32:29.001Z</time></trkpt><trkpt lat="-27.688211489466124" lon="114.21326914691856"><ele>126.5</ele><time>2026-04-15T02:32:30.001Z</time></trkpt><trkpt lat="-27.688084303128555" lon="114.21354383726353"><ele>131.0</ele><time>2026-04-15T02:32:31.001Z</time></trkpt><trkpt lat="-27.687956425193093" lon="114.21381738703884"><ele>130.0</ele><time>2026-04-15T02:32:32.001Z</time></trkpt><trkpt lat="-27.68782714455162" lon="114.21409407126463"><ele>129.0</ele><time>2026-04-15T02:32:33.001Z</time></trkpt><trkpt lat="-27.687695825616284" lon="114.21437235610044"><ele>129.0</ele><time>2026-04-15T02:32:34.001Z</time></trkpt><trkpt lat="-27.68756726034705" lon="114.21465046410846"><ele>129.0</ele><time>2026-04-15T02:32:35.001Z</time></trkpt><trkpt lat="-27.687440707889913" lon="114.21493060376476"><ele>132.0</ele><time>2026-04-15T02:32:36.001Z</time></trkpt><trkpt lat="-27.687315575529443" lon="114.21520641783098"><ele>135.0</ele><time>2026-04-15T02:32:37.001Z</time></trkpt><trkpt lat="-27.687193427372097" lon="114.21548068128925"><ele>137.5</ele><time>2026-04-15T02:32:38.001Z</time></trkpt><trkpt lat="-27.687076464539473" lon="114.21576166990323"><ele>140.0</ele><time>2026-04-15T02:32:39.001Z</time></trkpt><trkpt lat="-27.68696532940256" lon="114.21604918497415"><ele>137.0</ele><time>2026-04-15T02:32:40.001Z</time></trkpt><trkpt lat="-27.686859995329755" lon="114.21633817390837"><ele>134.0</ele><time>2026-04-15T02:32:41.001Z</time></trkpt><trkpt lat="-27.686758406478656" lon="114.21663835674447"><ele>134.0</ele><time>2026-04-15T02:32:42.001Z</time></trkpt><trkpt lat="-27.686660558454836" lon="114.21694312133091"><ele>134.0</ele><time>2026-04-15T02:32:43.001Z</time></trkpt><trkpt lat="-27.686561256947943" lon="114.21725520704274"><ele>134.5</ele><time>2026-04-15T02:32:44.001Z</time></trkpt><trkpt lat="-27.68645978294507" lon="114.21756426381634"><ele>135.0</ele><time>2026-04-15T02:32:45.001Z</time></trkpt><trkpt lat="-27.68635928755558" lon="114.21786850425607"><ele>134.5</ele><time>2026-04-15T02:32:46.001Z</time></trkpt><trkpt lat="-27.686262266390738" lon="114.21816785139217"><ele>134.0</ele><time>2026-04-15T02:32:47.001Z</time></trkpt><trkpt lat="-27.686163985453703" lon="114.21846551094754"><ele>128.5</ele><time>2026-04-15T02:32:48.001Z</time></trkpt><trkpt lat="-27.68606547188837" lon="114.2187640452423"><ele>123.0</ele><time>2026-04-15T02:32:49.001Z</time></trkpt><trkpt lat="-27.685969358956314" lon="114.21906206050974"><ele>122.0</ele><time>2026-04-15T02:32:50.001Z</time></trkpt><trkpt lat="-27.685872777944656" lon="114.21936076616035"><ele>121.0</ele><time>2026-04-15T02:32:51.001Z</time></trkpt><trkpt lat="-27.685774198184358" lon="114.21966060436563"><ele>121.0</ele><time>2026-04-15T02:32:52.001Z</time></trkpt><trkpt lat="-27.685676607249377" lon="114.21995792698156"><ele>121.0</ele><time>2026-04-15T02:32:53.001Z</time></trkpt><trkpt lat="-27.685580846901324" lon="114.22025717505731"><ele>121.0</ele><time>2026-04-15T02:32:54.001Z</time></trkpt><trkpt lat="-27.68548663038055" lon="114.22055365856109"><ele>121.0</ele><time>2026-04-15T02:32:55.001Z</time></trkpt><trkpt lat="-27.685393515649828" lon="114.2208496179738"><ele>121.5</ele><time>2026-04-15T02:32:56.001Z</time></trkpt><trkpt lat="-27.68529871060623" lon="114.22114226675735"><ele>122.0</ele><time>2026-04-15T02:32:57.001Z</time></trkpt><trkpt lat="-27.685202709114208" lon="114.22143813106273"><ele>124.5</ele><time>2026-04-15T02:32:58.001Z</time></trkpt><trkpt lat="-27.6851057332246" lon="114.22173864414718"><ele>127.0</ele><time>2026-04-15T02:32:59.001Z</time></trkpt><trkpt lat="-27.685010245070938" lon="114.22203890191679"><ele>128.5</ele><time>2026-04-15T02:33:00.001Z</time></trkpt><trkpt lat="-27.684916735696447" lon="114.22233909142865"><ele>130.0</ele><time>2026-04-15T02:33:01.001Z</time></trkpt><trkpt lat="-27.68481920931223" lon="114.22263935941236"><ele>130.0</ele><time>2026-04-15T02:33:02.001Z</time></trkpt><trkpt lat="-27.684721585798158" lon="114.22294525307775"><ele>130.0</ele><time>2026-04-15T02:33:03.001Z</time></trkpt><trkpt lat="-27.684625719468485" lon="114.22325212992486"><ele>131.5</ele><time>2026-04-15T02:33:04.001Z</time></trkpt><trkpt lat="-27.684527916457608" lon="114.22355966653171"><ele>133.0</ele><time>2026-04-15T02:33:05.001Z</time></trkpt><trkpt lat="-27.68442781643968" lon="114.22386815660991"><ele>134.0</ele><time>2026-04-15T02:33:06.001Z</time></trkpt><trkpt lat="-27.684327779183324" lon="114.22417857834498"><ele>135.0</ele><time>2026-04-15T02:33:07.001Z</time></trkpt><trkpt lat="-27.684225121241628" lon="114.22449072383971"><ele>135.0</ele><time>2026-04-15T02:33:08.001Z</time></trkpt><trkpt lat="-27.684119017412005" lon="114.22480531052574"><ele>135.0</ele><time>2026-04-15T02:33:09.001Z</time></trkpt><trkpt lat="-27.68401628852262" lon="114.22511323214421"><ele>134.5</ele><time>2026-04-15T02:33:10.001Z</time></trkpt><trkpt lat="-27.68391902191383" lon="114.22541570269696"><ele>134.0</ele><time>2026-04-15T02:33:11.001Z</time></trkpt><trkpt lat="-27.68382338345464" lon="114.22571837470086"><ele>134.0</ele><time>2026-04-15T02:33:12.001Z</time></trkpt><trkpt lat="-27.683726723800927" lon="114.22602045725314"><ele>134.0</ele><time>2026-04-15T02:33:13.001Z</time></trkpt><trkpt lat="-27.68363041289403" lon="114.22632434180944"><ele>134.0</ele><time>2026-04-15T02:33:14.001Z</time></trkpt><trkpt lat="-27.683533078125908" lon="114.22662731937152"><ele>134.0</ele><time>2026-04-15T02:33:15.001Z</time></trkpt><trkpt lat="-27.683435307877577" lon="114.22693362101091"><ele>134.0</ele><time>2026-04-15T02:33:16.001Z</time></trkpt><trkpt lat="-27.683335391823547" lon="114.22724283422794"><ele>134.0</ele><time>2026-04-15T02:33:17Z</time></trkpt><trkpt lat="-27.683239020314133" lon="114.22754700601487"><ele>134.0</ele><time>2026-04-15T02:33:18Z</time></trkpt><trkpt lat="-27.683147399713807" lon="114.22783323932063"><ele>134.0</ele><time>2026-04-15T02:33:19Z</time></trkpt><trkpt lat="-27.68305676009432" lon="114.22811514745939"><ele>132.5</ele><time>2026-04-15T02:33:20Z</time></trkpt><trkpt lat="-27.682961505082233" lon="114.22840736137204"><ele>131.0</ele><time>2026-04-15T02:33:21Z</time></trkpt><trkpt lat="-27.682865912455796" lon="114.22870490194221"><ele>130.5</ele><time>2026-04-15T02:33:22Z</time></trkpt><trkpt lat="-27.68277007308604" lon="114.2290038213326"><ele>130.0</ele><time>2026-04-15T02:33:23Z</time></trkpt><trkpt lat="-27.682675508062943" lon="114.22930173793125"><ele>129.5</ele><time>2026-04-15T02:33:24Z</time></trkpt><trkpt lat="-27.68258186515313" lon="114.22960773843873"><ele>129.0</ele><time>2026-04-15T02:33:25Z</time></trkpt><trkpt lat="-27.682486083516967" lon="114.22991680265724"><ele>129.0</ele><time>2026-04-15T02:33:26Z</time></trkpt><trkpt lat="-27.682388538476854" lon="114.23022430705922"><ele>129.0</ele><time>2026-04-15T02:33:27Z</time></trkpt><trkpt lat="-27.68228947918204" lon="114.23052771298165"><ele>128.5</ele><time>2026-04-15T02:33:28Z</time></trkpt><trkpt lat="-27.682190809626032" lon="114.23082934144009"><ele>128.0</ele><time>2026-04-15T02:33:29Z</time></trkpt><trkpt lat="-27.682091698845866" lon="114.23113363536966"><ele>128.0</ele><time>2026-04-15T02:33:30Z</time></trkpt><trkpt lat="-27.681991505967652" lon="114.23143936871861"><ele>128.0</ele><time>2026-04-15T02:33:31Z</time></trkpt><trkpt lat="-27.68189208939861" lon="114.23174473927162"><ele>127.5</ele><time>2026-04-15T02:33:32Z</time></trkpt><trkpt lat="-27.68179265577622" lon="114.23205430206764"><ele>127.0</ele><time>2026-04-15T02:33:33Z</time></trkpt><trkpt lat="-27.681695625883822" lon="114.23235967804429"><ele>126.5</ele><time>2026-04-15T02:33:34Z</time></trkpt><trkpt lat="-27.681595551344333" lon="114.23267034926886"><ele>126.0</ele><time>2026-04-15T02:33:35Z</time></trkpt><trkpt lat="-27.681494021557857" lon="114.23297964996593"><ele>126.5</ele><time>2026-04-15T02:33:36Z</time></trkpt><trkpt lat="-27.68139294044494" lon="114.23328923643773"><ele>127.0</ele><time>2026-04-15T02:33:37Z</time></trkpt><trkpt lat="-27.6812943974209" lon="114.23359932384685"><ele>127.0</ele><time>2026-04-15T02:33:38Z</time></trkpt><trkpt lat="-27.681197463705434" lon="114.23390771271848"><ele>127.0</ele><time>2026-04-15T02:33:39Z</time></trkpt><trkpt lat="-27.68110316128332" lon="114.23421310700743"><ele>126.5</ele><time>2026-04-15T02:33:40Z</time></trkpt><trkpt lat="-27.681012793086403" lon="114.2345186139354"><ele>126.0</ele><time>2026-04-15T02:33:41Z</time></trkpt><trkpt lat="-27.680927322602358" lon="114.23482385404046"><ele>126.0</ele><time>2026-04-15T02:33:42Z</time></trkpt><trkpt lat="-27.680844221902166" lon="114.23512947998448"><ele>126.0</ele><time>2026-04-15T02:33:43Z</time></trkpt><trkpt lat="-27.68076451383631" lon="114.23543389276884"><ele>126.0</ele><time>2026-04-15T02:33:44Z</time></trkpt><trkpt lat="-27.68068636885687" lon="114.2357390660059"><ele>126.0</ele><time>2026-04-15T02:33:45Z</time></trkpt><trkpt lat="-27.680606438658288" lon="114.23604199067925"><ele>126.0</ele><time>2026-04-15T02:33:46Z</time></trkpt><trkpt lat="-27.680522901688057" lon="114.23634418887139"><ele>126.0</ele><time>2026-04-15T02:33:47Z</time></trkpt><trkpt lat="-27.68043844253335" lon="114.23664443882443"><ele>126.5</ele><time>2026-04-15T02:33:48Z</time></trkpt><trkpt lat="-27.68035677546796" lon="114.23694247176851"><ele>127.0</ele><time>2026-04-15T02:33:49Z</time></trkpt><trkpt lat="-27.680277079047702" lon="114.23724084400321"><ele>125.5</ele><time>2026-04-15T02:33:50Z</time></trkpt><trkpt lat="-27.68019840250576" lon="114.23753805431913"><ele>124.0</ele><time>2026-04-15T02:33:51Z</time></trkpt><trkpt lat="-27.680122705716897" lon="114.23783401914106"><ele>124.0</ele><time>2026-04-15T02:33:52Z</time></trkpt><trkpt lat="-27.680045994730385" lon="114.23813147480597"><ele>124.0</ele><time>2026-04-15T02:33:53Z</time></trkpt><trkpt lat="-27.67996639990441" lon="114.23843284725243"><ele>127.0</ele><time>2026-04-15T02:33:54Z</time></trkpt><trkpt lat="-27.679888838792177" lon="114.23873128420196"><ele>130.0</ele><time>2026-04-15T02:33:55Z</time></trkpt><trkpt lat="-27.679812827979184" lon="114.23902707873332"><ele>131.0</ele><time>2026-04-15T02:33:56Z</time></trkpt><trkpt lat="-27.67973672984135" lon="114.23932031755928"><ele>132.0</ele><time>2026-04-15T02:33:57Z</time></trkpt><trkpt lat="-27.679659515117113" lon="114.23961556239541"><ele>134.0</ele><time>2026-04-15T02:33:58Z</time></trkpt><trkpt lat="-27.679581746062212" lon="114.23991242887497"><ele>136.0</ele><time>2026-04-15T02:33:59Z</time></trkpt><trkpt lat="-27.6795069401443" lon="114.24020809062651"><ele>136.0</ele><time>2026-04-15T02:34:00Z</time></trkpt><trkpt lat="-27.679435980712146" lon="114.24050695911134"><ele>136.0</ele><time>2026-04-15T02:34:01Z</time></trkpt><trkpt lat="-27.679370108008637" lon="114.24080818887246"><ele>135.5</ele><time>2026-04-15T02:34:02Z</time></trkpt><trkpt lat="-27.679308797061996" lon="114.24111761206744"><ele>135.0</ele><time>2026-04-15T02:34:03Z</time></trkpt><trkpt lat="-27.679247002370076" lon="114.24143133587114"><ele>136.0</ele><time>2026-04-15T02:34:04Z</time></trkpt><trkpt lat="-27.679187603611876" lon="114.24174324296789"><ele>137.0</ele><time>2026-04-15T02:34:05Z</time></trkpt><trkpt lat="-27.679130474180596" lon="114.24205549596037"><ele>137.5</ele><time>2026-04-15T02:34:06Z</time></trkpt><trkpt lat="-27.6790732930221" lon="114.2423660226976"><ele>138.0</ele><time>2026-04-15T02:34:07Z</time></trkpt><trkpt lat="-27.67901543349539" lon="114.24267737960783"><ele>138.0</ele><time>2026-04-15T02:34:08Z</time></trkpt><trkpt lat="-27.67895653425004" lon="114.242985959828"><ele>138.0</ele><time>2026-04-15T02:34:09Z</time></trkpt><trkpt lat="-27.678895984678597" lon="114.24329510975998"><ele>138.5</ele><time>2026-04-15T02:34:10Z</time></trkpt><trkpt lat="-27.678836585950805" lon="114.24360243359475"><ele>139.0</ele><time>2026-04-15T02:34:11Z</time></trkpt><trkpt lat="-27.67877695510166" lon="114.24391112222308"><ele>138.0</ele><time>2026-04-15T02:34:12Z</time></trkpt><trkpt lat="-27.678716809983722" lon="114.24422122483374"><ele>137.0</ele><time>2026-04-15T02:34:13Z</time></trkpt><trkpt lat="-27.678656737208428" lon="114.2445303206922"><ele>135.5</ele><time>2026-04-15T02:34:14Z</time></trkpt><trkpt lat="-27.678596016351978" lon="114.24484133726473"><ele>134.0</ele><time>2026-04-15T02:34:15Z</time></trkpt><trkpt lat="-27.678536281878667" lon="114.24515171852714"><ele>134.0</ele><time>2026-04-15T02:34:16Z</time></trkpt><trkpt lat="-27.67847856055581" lon="114.24546254041582"><ele>134.0</ele><time>2026-04-15T02:34:17Z</time></trkpt><trkpt lat="-27.678421052058642" lon="114.24577568304743"><ele>133.0</ele><time>2026-04-15T02:34:18Z</time></trkpt><trkpt lat="-27.67836077032184" lon="114.24609355907624"><ele>132.0</ele><time>2026-04-15T02:34:19Z</time></trkpt><trkpt lat="-27.678299018176574" lon="114.2464109220658"><ele>132.0</ele><time>2026-04-15T02:34:20Z</time></trkpt><trkpt lat="-27.678238688616343" lon="114.24672433103713"><ele>132.0</ele><time>2026-04-15T02:34:21Z</time></trkpt><trkpt lat="-27.678178321527962" lon="114.24703711985727"><ele>131.5</ele><time>2026-04-15T02:34:22Z</time></trkpt><trkpt lat="-27.678118254966048" lon="114.24734814405967"><ele>131.0</ele><time>2026-04-15T02:34:23Z</time></trkpt><trkpt lat="-27.67805787592949" lon="114.24765832105432"><ele>131.0</ele><time>2026-04-15T02:34:24Z</time></trkpt><trkpt lat="-27.677998242142372" lon="114.24796634358991"><ele>131.0</ele><time>2026-04-15T02:34:25Z</time></trkpt><trkpt lat="-27.67793892452505" lon="114.24827125949422"><ele>130.5</ele><time>2026-04-15T02:34:26Z</time></trkpt><trkpt lat="-27.677882207651084" lon="114.24857494034171"><ele>130.0</ele><time>2026-04-15T02:34:27Z</time></trkpt><trkpt lat="-27.677825271633395" lon="114.2488755192611"><ele>129.5</ele><time>2026-04-15T02:34:28Z</time></trkpt><trkpt lat="-27.677767767504815" lon="114.24917069398873"><ele>129.0</ele><time>2026-04-15T02:34:29Z</time></trkpt><trkpt lat="-27.67770997298139" lon="114.24946727139456"><ele>129.0</ele><time>2026-04-15T02:34:30Z</time></trkpt><trkpt lat="-27.67765280825365" lon="114.24976692264502"><ele>129.0</ele><time>2026-04-15T02:34:31Z</time></trkpt><trkpt lat="-27.677597135819145" lon="114.25006590068277"><ele>129.0</ele><time>2026-04-15T02:34:32Z</time></trkpt><trkpt lat="-27.677541479140015" lon="114.25036151472882"><ele>129.0</ele><time>2026-04-15T02:34:33Z</time></trkpt><trkpt lat="-27.677483993170025" lon="114.25066003086779"><ele>129.0</ele><time>2026-04-15T02:34:34Z</time></trkpt><trkpt lat="-27.677423300269698" lon="114.25096207808633"><ele>129.0</ele><time>2026-04-15T02:34:35Z</time></trkpt><trkpt lat="-27.67736147260088" lon="114.25127002365174"><ele>131.5</ele><time>2026-04-15T02:34:36Z</time></trkpt><trkpt lat="-27.677301290182832" lon="114.25157797565743"><ele>134.0</ele><time>2026-04-15T02:34:37Z</time></trkpt><trkpt lat="-27.677245697702077" lon="114.25188470428773"><ele>134.0</ele><time>2026-04-15T02:34:38Z</time></trkpt><trkpt lat="-27.67719390547308" lon="114.25219235744767"><ele>134.0</ele><time>2026-04-15T02:34:39Z</time></trkpt><trkpt lat="-27.67715066660666" lon="114.25250111331448"><ele>136.0</ele><time>2026-04-15T02:34:40Z</time></trkpt><trkpt lat="-27.67711925150677" lon="114.25280866214169"><ele>138.0</ele><time>2026-04-15T02:34:41Z</time></trkpt><trkpt lat="-27.67710122373823" lon="114.25311970753717"><ele>140.0</ele><time>2026-04-15T02:34:42Z</time></trkpt><trkpt lat="-27.677092385409715" lon="114.25343790063965"><ele>142.0</ele><time>2026-04-15T02:34:43Z</time></trkpt><trkpt lat="-27.67709176619651" lon="114.25376265402824"><ele>142.0</ele><time>2026-04-15T02:34:44Z</time></trkpt><trkpt lat="-27.67710010208491" lon="114.25409007091271"><ele>142.0</ele><time>2026-04-15T02:34:45Z</time></trkpt><trkpt lat="-27.67711642122899" lon="114.25441172331641"><ele>142.0</ele><time>2026-04-15T02:34:46.001Z</time></trkpt><trkpt lat="-27.677143007712484" lon="114.25472972074405"><ele>142.0</ele><time>2026-04-15T02:34:47.001Z</time></trkpt><trkpt lat="-27.677178649315643" lon="114.2550473194341"><ele>142.5</ele><time>2026-04-15T02:34:48.001Z</time></trkpt><trkpt lat="-27.677223108646217" lon="114.2553615334765"><ele>143.0</ele><time>2026-04-15T02:34:49.001Z</time></trkpt><trkpt lat="-27.677279791406082" lon="114.25567685405997"><ele>143.0</ele><time>2026-04-15T02:34:50.001Z</time></trkpt><trkpt lat="-27.67734641874093" lon="114.25599311831377"><ele>143.0</ele><time>2026-04-15T02:34:51.001Z</time></trkpt><trkpt lat="-27.677422841227926" lon="114.2563100578863"><ele>143.0</ele><time>2026-04-15T02:34:52.001Z</time></trkpt><trkpt lat="-27.67750883634969" lon="114.25662129766341"><ele>143.0</ele><time>2026-04-15T02:34:53.001Z</time></trkpt><trkpt lat="-27.67759777635539" lon="114.25692561257642"><ele>143.0</ele><time>2026-04-15T02:34:54.001Z</time></trkpt><trkpt lat="-27.677694207236108" lon="114.25722018690605"><ele>143.0</ele><time>2026-04-15T02:34:55.001Z</time></trkpt><trkpt lat="-27.67779850991374" lon="114.25750165635792"><ele>142.5</ele><time>2026-04-15T02:34:56.001Z</time></trkpt><trkpt lat="-27.67791437323242" lon="114.2577797810389"><ele>142.0</ele><time>2026-04-15T02:34:57.001Z</time></trkpt><trkpt lat="-27.67804147132011" lon="114.25806020101032"><ele>142.0</ele><time>2026-04-15T02:34:58.001Z</time></trkpt><trkpt lat="-27.678177764863253" lon="114.25833917615824"><ele>142.0</ele><time>2026-04-15T02:34:59.001Z</time></trkpt><trkpt lat="-27.678322285094538" lon="114.25861611243293"><ele>142.0</ele><time>2026-04-15T02:35:00.001Z</time></trkpt><trkpt lat="-27.67847050822943" lon="114.258885701303"><ele>142.0</ele><time>2026-04-15T02:35:01.001Z</time></trkpt><trkpt lat="-27.67862308164524" lon="114.25915453449832"><ele>142.0</ele><time>2026-04-15T02:35:02.001Z</time></trkpt><trkpt lat="-27.678776754253242" lon="114.25942287434684"><ele>142.0</ele><time>2026-04-15T02:35:03.001Z</time></trkpt><trkpt lat="-27.6789289988298" lon="114.25969164670482"><ele>140.5</ele><time>2026-04-15T02:35:04.001Z</time></trkpt><trkpt lat="-27.679080299570096" lon="114.25996102289686"><ele>139.0</ele><time>2026-04-15T02:35:05.001Z</time></trkpt><trkpt lat="-27.67923196440236" lon="114.26023346106479"><ele>139.0</ele><time>2026-04-15T02:35:06.001Z</time></trkpt><trkpt lat="-27.679382546163357" lon="114.2605042865603"><ele>139.0</ele><time>2026-04-15T02:35:07.001Z</time></trkpt><trkpt lat="-27.679534055548654" lon="114.26077909485022"><ele>140.0</ele><time>2026-04-15T02:35:08Z</time></trkpt><trkpt lat="-27.67968662249719" lon="114.26105390982714"><ele>141.0</ele><time>2026-04-15T02:35:09Z</time></trkpt><trkpt lat="-27.67984054552601" lon="114.26132616089039"><ele>139.0</ele><time>2026-04-15T02:35:10Z</time></trkpt><trkpt lat="-27.679993096131867" lon="114.26159799261865"><ele>137.0</ele><time>2026-04-15T02:35:11Z</time></trkpt><trkpt lat="-27.680144825319886" lon="114.26187370179525"><ele>138.5</ele><time>2026-04-15T02:35:12Z</time></trkpt><trkpt lat="-27.68029604772823" lon="114.26214693822783"><ele>140.0</ele><time>2026-04-15T02:35:13Z</time></trkpt><trkpt lat="-27.68044720254954" lon="114.2624173457037"><ele>140.0</ele><time>2026-04-15T02:35:14Z</time></trkpt><trkpt lat="-27.680597640787322" lon="114.26268674607964"><ele>140.0</ele><time>2026-04-15T02:35:15Z</time></trkpt><trkpt lat="-27.680745201386298" lon="114.26295318446249"><ele>140.0</ele><time>2026-04-15T02:35:16Z</time></trkpt><trkpt lat="-27.680887212540426" lon="114.26320952745921"><ele>140.0</ele><time>2026-04-15T02:35:17Z</time></trkpt><trkpt lat="-27.681029555670566" lon="114.26346551000935"><ele>140.5</ele><time>2026-04-15T02:35:18Z</time></trkpt><trkpt lat="-27.681171041657077" lon="114.26371716517889"><ele>141.0</ele><time>2026-04-15T02:35:19Z</time></trkpt><trkpt lat="-27.681314789895207" lon="114.26397332637448"><ele>141.0</ele><time>2026-04-15T02:35:20Z</time></trkpt><trkpt lat="-27.68145703049331" lon="114.26422761744531"><ele>141.0</ele><time>2026-04-15T02:35:21Z</time></trkpt><trkpt lat="-27.681601580494778" lon="114.26448492833345"><ele>141.0</ele><time>2026-04-15T02:35:22Z</time></trkpt><trkpt lat="-27.68174425005853" lon="114.26474156258111"><ele>141.0</ele><time>2026-04-15T02:35:23Z</time></trkpt><trkpt lat="-27.681890044950038" lon="114.2650014448352"><ele>142.5</ele><time>2026-04-15T02:35:24Z</time></trkpt><trkpt lat="-27.682036804679413" lon="114.2652680638923"><ele>144.0</ele><time>2026-04-15T02:35:25Z</time></trkpt><trkpt lat="-27.682184650102684" lon="114.26553891476955"><ele>143.5</ele><time>2026-04-15T02:35:26Z</time></trkpt><trkpt lat="-27.682333790343826" lon="114.2658119942999"><ele>143.0</ele><time>2026-04-15T02:35:27Z</time></trkpt><trkpt lat="-27.68248402841737" lon="114.2660811080773"><ele>143.0</ele><time>2026-04-15T02:35:28Z</time></trkpt><trkpt lat="-27.682631520019704" lon="114.26634516993335"><ele>143.0</ele><time>2026-04-15T02:35:29Z</time></trkpt><trkpt lat="-27.682779362052198" lon="114.26660595494772"><ele>143.0</ele><time>2026-04-15T02:35:30Z</time></trkpt><trkpt lat="-27.68292565130653" lon="114.26686419258293"><ele>143.0</ele><time>2026-04-15T02:35:31Z</time></trkpt><trkpt lat="-27.683069615819395" lon="114.2671215495044"><ele>143.5</ele><time>2026-04-15T02:35:32Z</time></trkpt><trkpt lat="-27.68321207542951" lon="114.26737609716946"><ele>144.0</ele><time>2026-04-15T02:35:33Z</time></trkpt><trkpt lat="-27.683352530870906" lon="114.26762779231098"><ele>144.0</ele><time>2026-04-15T02:35:34Z</time></trkpt><trkpt lat="-27.683492365009094" lon="114.26788053666502"><ele>144.0</ele><time>2026-04-15T02:35:35Z</time></trkpt><trkpt lat="-27.683633442628736" lon="114.2681328919399"><ele>146.0</ele><time>2026-04-15T02:35:36Z</time></trkpt><trkpt lat="-27.6837735261177" lon="114.26837999151039"><ele>148.0</ele><time>2026-04-15T02:35:37Z</time></trkpt><trkpt lat="-27.683911791718963" lon="114.26862603615812"><ele>148.0</ele><time>2026-04-15T02:35:38Z</time></trkpt><trkpt lat="-27.684046486641922" lon="114.26887136977497"><ele>148.0</ele><time>2026-04-15T02:35:39Z</time></trkpt><trkpt lat="-27.684182570718438" lon="114.26911430412765"><ele>147.5</ele><time>2026-04-15T02:35:40Z</time></trkpt><trkpt lat="-27.684317820639556" lon="114.26935762513551"><ele>147.0</ele><time>2026-04-15T02:35:41Z</time></trkpt><trkpt lat="-27.684451664393983" lon="114.26959864258924"><ele>149.5</ele><time>2026-04-15T02:35:42Z</time></trkpt><trkpt lat="-27.684587829615623" lon="114.2698461953343"><ele>152.0</ele><time>2026-04-15T02:35:43Z</time></trkpt><trkpt lat="-27.684725184694106" lon="114.27009115217422"><ele>152.0</ele><time>2026-04-15T02:35:44Z</time></trkpt><trkpt lat="-27.684859083197704" lon="114.27032941318177"><ele>152.0</ele><time>2026-04-15T02:35:45Z</time></trkpt><trkpt lat="-27.68497786998224" lon="114.2705464694488"><ele>152.33333333333331</ele><time>2026-04-15T02:35:46Z</time></trkpt><trkpt lat="-27.685087688043698" lon="114.27074981997559"><ele>152.66666666666666</ele><time>2026-04-15T02:35:47Z</time></trkpt><trkpt lat="-27.685187119601732" lon="114.2709344743139"><ele>153.0</ele><time>2026-04-15T02:35:48Z</time></trkpt><trkpt lat="-27.68527790106937" lon="114.27110089598911"><ele>153.0</ele><time>2026-04-15T02:35:49Z</time></trkpt><trkpt lat="-27.68535605797448" lon="114.27124272773443"><ele>153.0</ele><time>2026-04-15T02:35:50Z</time></trkpt><trkpt lat="-27.685419248935464" lon="114.27135592749643"><ele>153.0</ele><time>2026-04-15T02:35:51Z</time></trkpt><trkpt lat="-27.68546807025316" lon="114.27145013109967"><ele>153.0</ele><time>2026-04-15T02:35:52Z</time></trkpt><trkpt lat="-27.68550316493807" lon="114.27153384703387"><ele>153.0</ele><time>2026-04-15T02:35:53Z</time></trkpt><trkpt lat="-27.68553416924677" lon="114.27160285652626"><ele>153.5</ele><time>2026-04-15T02:35:54Z</time></trkpt><trkpt lat="-27.68556661679597" lon="114.27166414591119"><ele>154.0</ele><time>2026-04-15T02:35:55Z</time></trkpt><trkpt lat="-27.68561551781557" lon="114.27174800187352"><ele>154.5</ele><time>2026-04-15T02:35:57Z</time></trkpt><trkpt lat="-27.685674249939968" lon="114.27182359916686"><ele>155.0</ele><time>2026-04-15T02:38:36.998Z</time></trkpt><trkpt lat="-27.685705068007195" lon="114.27188992507027"><ele>155.5</ele><time>2026-04-15T02:38:37.998Z</time></trkpt><trkpt lat="-27.685743699718703" lon="114.27197072784348"><ele>156.0</ele><time>2026-04-15T02:38:38.998Z</time></trkpt><trkpt lat="-27.685790663587806" lon="114.27207511247525"><ele>156.0</ele><time>2026-04-15T02:38:39.998Z</time></trkpt><trkpt lat="-27.685836340327675" lon="114.27217644397024"><ele>156.0</ele><time>2026-04-15T02:38:40.998Z</time></trkpt><trkpt lat="-27.68588729970936" lon="114.2722911497908"><ele>156.0</ele><time>2026-04-15T02:38:41.998Z</time></trkpt><trkpt lat="-27.685939616030744" lon="114.27241571729772"><ele>156.0</ele><time>2026-04-15T02:38:42.998Z</time></trkpt><trkpt lat="-27.685993976141663" lon="114.27255274449159"><ele>156.66666666666666</ele><time>2026-04-15T02:38:43.998Z</time></trkpt><trkpt lat="-27.68605354409058" lon="114.27270346642784"><ele>157.33333333333331</ele><time>2026-04-15T02:38:44.998Z</time></trkpt><trkpt lat="-27.686113563932956" lon="114.27285877448912"><ele>158.0</ele><time>2026-04-15T02:38:45.998Z</time></trkpt><trkpt lat="-27.68617495992216" lon="114.27302756644191"><ele>157.0</ele><time>2026-04-15T02:38:46.998Z</time></trkpt><trkpt lat="-27.686236239509643" lon="114.2732124200073"><ele>156.0</ele><time>2026-04-15T02:38:47.998Z</time></trkpt><trkpt lat="-27.686292589369796" lon="114.27339877525083"><ele>155.0</ele><time>2026-04-15T02:38:48.998Z</time></trkpt><trkpt lat="-27.686349144709332" lon="114.27359833884665"><ele>155.0</ele><time>2026-04-15T02:38:49.998Z</time></trkpt><trkpt lat="-27.68641190136804" lon="114.27380217938394"><ele>155.0</ele><time>2026-04-15T02:38:50.998Z</time></trkpt><trkpt lat="-27.68647906552851" lon="114.27401710875152"><ele>155.0</ele><time>2026-04-15T02:38:51.998Z</time></trkpt><trkpt lat="-27.686552033287096" lon="114.27424697492303"><ele>153.5</ele><time>2026-04-15T02:38:52.998Z</time></trkpt><trkpt lat="-27.686623153518813" lon="114.27448584173361"><ele>152.0</ele><time>2026-04-15T02:38:53.998Z</time></trkpt><trkpt lat="-27.686693447814974" lon="114.27472904818545"><ele>150.5</ele><time>2026-04-15T02:38:54.998Z</time></trkpt><trkpt lat="-27.686770499984448" lon="114.274988013433"><ele>149.0</ele><time>2026-04-15T02:38:55.998Z</time></trkpt><trkpt lat="-27.686853801938774" lon="114.27526021064622"><ele>148.0</ele><time>2026-04-15T02:38:56.998Z</time></trkpt><trkpt lat="-27.686942447765365" lon="114.27555029611678"><ele>147.0</ele><time>2026-04-15T02:38:57.997Z</time></trkpt><trkpt lat="-27.68702901197538" lon="114.27583979483977"><ele>146.0</ele><time>2026-04-15T02:38:58.997Z</time></trkpt><trkpt lat="-27.68711254301879" lon="114.2761243186766"><ele>145.0</ele><time>2026-04-15T02:38:59.997Z</time></trkpt><trkpt lat="-27.68719568042789" lon="114.2764068748605"><ele>145.0</ele><time>2026-04-15T02:39:00.997Z</time></trkpt><trkpt lat="-27.687282396110533" lon="114.27669320073839"><ele>145.0</ele><time>2026-04-15T02:39:01.998Z</time></trkpt><trkpt lat="-27.687368450316598" lon="114.27697874037366"><ele>145.0</ele><time>2026-04-15T02:39:02.998Z</time></trkpt><trkpt lat="-27.687452290976566" lon="114.27726362740175"><ele>145.0</ele><time>2026-04-15T02:39:03.998Z</time></trkpt><trkpt lat="-27.6875372063921" lon="114.27754668333341"><ele>145.0</ele><time>2026-04-15T02:39:04.998Z</time></trkpt><trkpt lat="-27.68762446491457" lon="114.27783435959755"><ele>145.0</ele><time>2026-04-15T02:39:05.998Z</time></trkpt><trkpt lat="-27.68771328268959" lon="114.2781176121647"><ele>146.0</ele><time>2026-04-15T02:39:06.998Z</time></trkpt><trkpt lat="-27.687800300575823" lon="114.2784035731006"><ele>147.0</ele><time>2026-04-15T02:39:07.998Z</time></trkpt><trkpt lat="-27.687888287698676" lon="114.2786884136982"><ele>147.0</ele><time>2026-04-15T02:39:08.998Z</time></trkpt><trkpt lat="-27.68797542407298" lon="114.27897366192914"><ele>147.0</ele><time>2026-04-15T02:39:09.999Z</time></trkpt><trkpt lat="-27.688061232664847" lon="114.27925941017186"><ele>147.0</ele><time>2026-04-15T02:39:10.999Z</time></trkpt><trkpt lat="-27.688147676729763" lon="114.27954956838744"><ele>147.0</ele><time>2026-04-15T02:39:11.999Z</time></trkpt><trkpt lat="-27.688233833057236" lon="114.27984088244175"><ele>147.0</ele><time>2026-04-15T02:39:12.999Z</time></trkpt><trkpt lat="-27.688318960206843" lon="114.2801340303708"><ele>147.0</ele><time>2026-04-15T02:39:13.999Z</time></trkpt><trkpt lat="-27.688406702453705" lon="114.28042908432529"><ele>147.5</ele><time>2026-04-15T02:39:14.999Z</time></trkpt><trkpt lat="-27.688495949212147" lon="114.28072826560228"><ele>148.0</ele><time>2026-04-15T02:39:15.999Z</time></trkpt><trkpt lat="-27.688584949846877" lon="114.28102588588739"><ele>148.0</ele><time>2026-04-15T02:39:16.999Z</time></trkpt><trkpt lat="-27.68867391997143" lon="114.2813234638911"><ele>148.0</ele><time>2026-04-15T02:39:17.999Z</time></trkpt><trkpt lat="-27.688763696121452" lon="114.2816190270913"><ele>148.0</ele><time>2026-04-15T02:39:18.999Z</time></trkpt><trkpt lat="-27.688853437210344" lon="114.28191310696212"><ele>148.0</ele><time>2026-04-15T02:39:19.999Z</time></trkpt><trkpt lat="-27.68894548902923" lon="114.28220851119455"><ele>149.0</ele><time>2026-04-15T02:39:20.999Z</time></trkpt><trkpt lat="-27.689038215158075" lon="114.28250346223777"><ele>150.0</ele><time>2026-04-15T02:39:21.999Z</time></trkpt><trkpt lat="-27.689131000086704" lon="114.2828010024689"><ele>150.0</ele><time>2026-04-15T02:39:22.999Z</time></trkpt><trkpt lat="-27.689222588756305" lon="114.28310019571916"><ele>150.0</ele><time>2026-04-15T02:39:23.999Z</time></trkpt><trkpt lat="-27.689310826266876" lon="114.28339863419302"><ele>150.0</ele><time>2026-04-15T02:39:24.999Z</time></trkpt><trkpt lat="-27.6894007355876" lon="114.28369685744376"><ele>150.0</ele><time>2026-04-15T02:39:25.999Z</time></trkpt><trkpt lat="-27.68949038720388" lon="114.2839930342516"><ele>149.5</ele><time>2026-04-15T02:39:26.999Z</time></trkpt><trkpt lat="-27.68958073366188" lon="114.28429199709473"><ele>149.0</ele><time>2026-04-15T02:39:27.999Z</time></trkpt><trkpt lat="-27.68967012426883" lon="114.28459003126585"><ele>149.5</ele><time>2026-04-15T02:39:29Z</time></trkpt><trkpt lat="-27.689760694163617" lon="114.28487994909565"><ele>150.0</ele><time>2026-04-15T02:39:30Z</time></trkpt><trkpt lat="-27.689856023143992" lon="114.28516404247002"><ele>150.0</ele><time>2026-04-15T02:39:31Z</time></trkpt><trkpt lat="-27.689958916877707" lon="114.2854422102119"><ele>150.0</ele><time>2026-04-15T02:39:32Z</time></trkpt><trkpt lat="-27.6900735344629" lon="114.28571312778895"><ele>150.5</ele><time>2026-04-15T02:39:33Z</time></trkpt><trkpt lat="-27.690200650821634" lon="114.28598365286469"><ele>151.0</ele><time>2026-04-15T02:39:34Z</time></trkpt><trkpt lat="-27.69033751594991" lon="114.2862547999943"><ele>151.5</ele><time>2026-04-15T02:39:35Z</time></trkpt><trkpt lat="-27.69048265441057" lon="114.28652519925666"><ele>152.0</ele><time>2026-04-15T02:39:36Z</time></trkpt><trkpt lat="-27.690633920031893" lon="114.28679568353371"><ele>152.0</ele><time>2026-04-15T02:39:37Z</time></trkpt><trkpt lat="-27.69079247428426" lon="114.28706456693462"><ele>152.0</ele><time>2026-04-15T02:39:38Z</time></trkpt><trkpt lat="-27.690957261349165" lon="114.28733012472915"><ele>152.5</ele><time>2026-04-15T02:39:39Z</time></trkpt><trkpt lat="-27.69112842801812" lon="114.2875962342543"><ele>153.0</ele><time>2026-04-15T02:39:40Z</time></trkpt><trkpt lat="-27.691300070345054" lon="114.28786228088057"><ele>152.5</ele><time>2026-04-15T02:39:41Z</time></trkpt><trkpt lat="-27.691472293530687" lon="114.28813446837525"><ele>152.0</ele><time>2026-04-15T02:39:42Z</time></trkpt><trkpt lat="-27.69163912015179" lon="114.28840151281389"><ele>152.0</ele><time>2026-04-15T02:39:43Z</time></trkpt><trkpt lat="-27.691806703089345" lon="114.28866558528598"><ele>152.0</ele><time>2026-04-15T02:39:44Z</time></trkpt><trkpt lat="-27.69197597560073" lon="114.2889300494316"><ele>152.0</ele><time>2026-04-15T02:39:45Z</time></trkpt><trkpt lat="-27.69214427321871" lon="114.28919054876461"><ele>152.0</ele><time>2026-04-15T02:39:46Z</time></trkpt><trkpt lat="-27.69231079434217" lon="114.28945537228822"><ele>152.0</ele><time>2026-04-15T02:39:47Z</time></trkpt><trkpt lat="-27.69247247350321" lon="114.28971939034744"><ele>152.0</ele><time>2026-04-15T02:39:48Z</time></trkpt><trkpt lat="-27.692635064857317" lon="114.28998131265634"><ele>153.0</ele><time>2026-04-15T02:39:49Z</time></trkpt><trkpt lat="-27.692799641394107" lon="114.29024230848499"><ele>154.0</ele><time>2026-04-15T02:39:50Z</time></trkpt><trkpt lat="-27.692964275313376" lon="114.29050390723913"><ele>153.5</ele><time>2026-04-15T02:39:51Z</time></trkpt><trkpt lat="-27.693128302028533" lon="114.29076680958434"><ele>153.0</ele><time>2026-04-15T02:39:52Z</time></trkpt><trkpt lat="-27.693295060842306" lon="114.29102992879726"><ele>153.0</ele><time>2026-04-15T02:39:53Z</time></trkpt><trkpt lat="-27.693464931877298" lon="114.29129804960019"><ele>153.0</ele><time>2026-04-15T02:39:54Z</time></trkpt><trkpt lat="-27.693634267474906" lon="114.29156236596909"><ele>152.5</ele><time>2026-04-15T02:39:55Z</time></trkpt><trkpt lat="-27.693805464192614" lon="114.29183519173132"><ele>152.0</ele><time>2026-04-15T02:39:56Z</time></trkpt><trkpt lat="-27.693974940100915" lon="114.29210168849896"><ele>152.5</ele><time>2026-04-15T02:39:57Z</time></trkpt><trkpt lat="-27.69414344504351" lon="114.29237190544335"><ele>153.0</ele><time>2026-04-15T02:39:58Z</time></trkpt><trkpt lat="-27.69431364747701" lon="114.2926432271053"><ele>153.0</ele><time>2026-04-15T02:39:59Z</time></trkpt><trkpt lat="-27.694484276706994" lon="114.29291434592152"><ele>153.0</ele><time>2026-04-15T02:40:00Z</time></trkpt><trkpt lat="-27.694653488207813" lon="114.29318276473568"><ele>153.5</ele><time>2026-04-15T02:40:01Z</time></trkpt><trkpt lat="-27.694823501050163" lon="114.29345329756484"><ele>154.0</ele><time>2026-04-15T02:40:02Z</time></trkpt><trkpt lat="-27.694993611550466" lon="114.29372217944973"><ele>154.0</ele><time>2026-04-15T02:40:03Z</time></trkpt><trkpt lat="-27.695162711449633" lon="114.29399088830857"><ele>154.0</ele><time>2026-04-15T02:40:04Z</time></trkpt><trkpt lat="-27.69533285948303" lon="114.29426274372595"><ele>154.0</ele><time>2026-04-15T02:40:05Z</time></trkpt><trkpt lat="-27.695502991173687" lon="114.29453452166179"><ele>154.0</ele><time>2026-04-15T02:40:06Z</time></trkpt><trkpt lat="-27.695672236795406" lon="114.29480474039127"><ele>154.5</ele><time>2026-04-15T02:40:07Z</time></trkpt><trkpt lat="-27.695841330493938" lon="114.29506999797331"><ele>155.0</ele><time>2026-04-15T02:40:08Z</time></trkpt><trkpt lat="-27.696008125085132" lon="114.2953386698967"><ele>156.5</ele><time>2026-04-15T02:40:09Z</time></trkpt><trkpt lat="-27.696173551463254" lon="114.29560263394058"><ele>158.0</ele><time>2026-04-15T02:40:10Z</time></trkpt><trkpt lat="-27.696341375506915" lon="114.29586271294977"><ele>158.0</ele><time>2026-04-15T02:40:11Z</time></trkpt><trkpt lat="-27.69650549254142" lon="114.29612174131007"><ele>158.0</ele><time>2026-04-15T02:40:12Z</time></trkpt><trkpt lat="-27.696666619120318" lon="114.29637611775097"><ele>158.0</ele><time>2026-04-15T02:40:13Z</time></trkpt><trkpt lat="-27.696825261780766" lon="114.29662688563656"><ele>158.0</ele><time>2026-04-15T02:40:14Z</time></trkpt><trkpt lat="-27.696981483273802" lon="114.29687676323542"><ele>157.5</ele><time>2026-04-15T02:40:15Z</time></trkpt><trkpt lat="-27.697135528221576" lon="114.29712635685115"><ele>157.0</ele><time>2026-04-15T02:40:16Z</time></trkpt><trkpt lat="-27.697288099966485" lon="114.29737455509023"><ele>155.5</ele><time>2026-04-15T02:40:17Z</time></trkpt><trkpt lat="-27.69744382756665" lon="114.29762485899822"><ele>154.0</ele><time>2026-04-15T02:40:18Z</time></trkpt><trkpt lat="-27.697600316100672" lon="114.29787173700504"><ele>154.5</ele><time>2026-04-15T02:40:19Z</time></trkpt><trkpt lat="-27.69775356131775" lon="114.29811066404976"><ele>155.0</ele><time>2026-04-15T02:40:20Z</time></trkpt><trkpt lat="-27.69790579741717" lon="114.29834836862604"><ele>155.0</ele><time>2026-04-15T02:40:21Z</time></trkpt><trkpt lat="-27.6980572699239" lon="114.2985866068717"><ele>155.0</ele><time>2026-04-15T02:40:22Z</time></trkpt><trkpt lat="-27.698207512783586" lon="114.29882564113505"><ele>156.0</ele><time>2026-04-15T02:40:23Z</time></trkpt><trkpt lat="-27.698358397361883" lon="114.29906188816516"><ele>157.0</ele><time>2026-04-15T02:40:24Z</time></trkpt><trkpt lat="-27.698506026960562" lon="114.2992998146148"><ele>157.0</ele><time>2026-04-15T02:40:25Z</time></trkpt><trkpt lat="-27.69865288852939" lon="114.29953848128308"><ele>157.0</ele><time>2026-04-15T02:40:26Z</time></trkpt><trkpt lat="-27.698805490208102" lon="114.29977342685882"><ele>157.5</ele><time>2026-04-15T02:40:27Z</time></trkpt><trkpt lat="-27.698956178686092" lon="114.30000775517277"><ele>158.0</ele><time>2026-04-15T02:40:28Z</time></trkpt><trkpt lat="-27.699104256503386" lon="114.3002407030026"><ele>158.0</ele><time>2026-04-15T02:40:29Z</time></trkpt><trkpt lat="-27.699254790005458" lon="114.30047880625231"><ele>158.0</ele><time>2026-04-15T02:40:30Z</time></trkpt><trkpt lat="-27.69940679275536" lon="114.30072155369028"><ele>158.0</ele><time>2026-04-15T02:40:31Z</time></trkpt><trkpt lat="-27.69956257693595" lon="114.30097007670017"><ele>158.0</ele><time>2026-04-15T02:40:32Z</time></trkpt><trkpt lat="-27.699717764490995" lon="114.30121871118114"><ele>157.5</ele><time>2026-04-15T02:40:33Z</time></trkpt><trkpt lat="-27.699873120758987" lon="114.30147173194831"><ele>157.0</ele><time>2026-04-15T02:40:34Z</time></trkpt><trkpt lat="-27.700031732885552" lon="114.30172652662736"><ele>157.0</ele><time>2026-04-15T02:40:35Z</time></trkpt><trkpt lat="-27.700191536765082" lon="114.30198121099122"><ele>157.0</ele><time>2026-04-15T02:40:36Z</time></trkpt><trkpt lat="-27.700353083320465" lon="114.3022399671053"><ele>158.0</ele><time>2026-04-15T02:40:37Z</time></trkpt><trkpt lat="-27.700516036290953" lon="114.3024990855391"><ele>159.0</ele><time>2026-04-15T02:40:38Z</time></trkpt><trkpt lat="-27.70067978007923" lon="114.30275759594396"><ele>159.0</ele><time>2026-04-15T02:40:39Z</time></trkpt><trkpt lat="-27.700843210747372" lon="114.30301446679448"><ele>159.0</ele><time>2026-04-15T02:40:40Z</time></trkpt><trkpt lat="-27.701005188287596" lon="114.30327253624269"><ele>159.0</ele><time>2026-04-15T02:40:41Z</time></trkpt><trkpt lat="-27.701167090117433" lon="114.30353130123794"><ele>159.0</ele><time>2026-04-15T02:40:42Z</time></trkpt><trkpt lat="-27.701331455501023" lon="114.30379274763013"><ele>160.0</ele><time>2026-04-15T02:40:43Z</time></trkpt><trkpt lat="-27.701497822820862" lon="114.30405182042809"><ele>161.0</ele><time>2026-04-15T02:40:44Z</time></trkpt><trkpt lat="-27.701665245789616" lon="114.30431104391388"><ele>161.0</ele><time>2026-04-15T02:40:45Z</time></trkpt><trkpt lat="-27.70183132669943" lon="114.30457178936402"><ele>161.0</ele><time>2026-04-15T02:40:46Z</time></trkpt><trkpt lat="-27.70199409599118" lon="114.3048323246776"><ele>161.5</ele><time>2026-04-15T02:40:47Z</time></trkpt><trkpt lat="-27.702154881255964" lon="114.30509057451624"><ele>162.0</ele><time>2026-04-15T02:40:48Z</time></trkpt><trkpt lat="-27.70231347611689" lon="114.30534610610009"><ele>162.0</ele><time>2026-04-15T02:40:49Z</time></trkpt><trkpt lat="-27.702473595007856" lon="114.30560189028637"><ele>162.0</ele><time>2026-04-15T02:40:50Z</time></trkpt><trkpt lat="-27.70263319819702" lon="114.30585616495624"><ele>162.0</ele><time>2026-04-15T02:40:51Z</time></trkpt><trkpt lat="-27.702795444271764" lon="114.3061126720627"><ele>162.0</ele><time>2026-04-15T02:40:52Z</time></trkpt><trkpt lat="-27.70295763901239" lon="114.30636953749458"><ele>162.0</ele><time>2026-04-15T02:40:53Z</time></trkpt><trkpt lat="-27.703120148778904" lon="114.30662993697975"><ele>162.0</ele><time>2026-04-15T02:40:54Z</time></trkpt><trkpt lat="-27.703283670380113" lon="114.30689171231134"><ele>162.0</ele><time>2026-04-15T02:40:55Z</time></trkpt><trkpt lat="-27.70344781665319" lon="114.30715061894252"><ele>162.0</ele><time>2026-04-15T02:40:56Z</time></trkpt><trkpt lat="-27.703611901250692" lon="114.30741009143819"><ele>163.0</ele><time>2026-04-15T02:40:57Z</time></trkpt><trkpt lat="-27.703774261147327" lon="114.307669763351"><ele>164.0</ele><time>2026-04-15T02:40:58Z</time></trkpt><trkpt lat="-27.703938882368814" lon="114.30793228244232"><ele>164.0</ele><time>2026-04-15T02:40:59Z</time></trkpt><trkpt lat="-27.704104380027538" lon="114.30819368085875"><ele>164.0</ele><time>2026-04-15T02:41:00Z</time></trkpt><trkpt lat="-27.704272464932952" lon="114.3084569712504"><ele>164.5</ele><time>2026-04-15T02:41:01Z</time></trkpt><trkpt lat="-27.7044417656011" lon="114.30872242072347"><ele>165.0</ele><time>2026-04-15T02:41:02Z</time></trkpt><trkpt lat="-27.70461203107479" lon="114.30899118071083"><ele>165.0</ele><time>2026-04-15T02:41:03Z</time></trkpt><trkpt lat="-27.704784934836546" lon="114.3092619103937"><ele>165.0</ele><time>2026-04-15T02:41:04Z</time></trkpt><trkpt lat="-27.704955043178693" lon="114.30953048695852"><ele>164.5</ele><time>2026-04-15T02:41:05Z</time></trkpt><trkpt lat="-27.705124985195038" lon="114.30980390885964"><ele>164.0</ele><time>2026-04-15T02:41:06Z</time></trkpt><trkpt lat="-27.705294235067413" lon="114.31007670699489"><ele>164.0</ele><time>2026-04-15T02:41:07Z</time></trkpt><trkpt lat="-27.705464519080596" lon="114.31034824671833"><ele>164.0</ele><time>2026-04-15T02:41:08Z</time></trkpt><trkpt lat="-27.70563521942056" lon="114.31061809548304"><ele>164.5</ele><time>2026-04-15T02:41:09Z</time></trkpt><trkpt lat="-27.705802625261846" lon="114.31088508902407"><ele>165.0</ele><time>2026-04-15T02:41:10Z</time></trkpt><trkpt lat="-27.70596860974163" lon="114.31115490498456"><ele>165.5</ele><time>2026-04-15T02:41:11Z</time></trkpt><trkpt lat="-27.706134894722066" lon="114.3114207812755"><ele>166.0</ele><time>2026-04-15T02:41:12Z</time></trkpt><trkpt lat="-27.70630332362396" lon="114.31168520440625"><ele>166.0</ele><time>2026-04-15T02:41:13Z</time></trkpt><trkpt lat="-27.706471158703383" lon="114.31194935780437"><ele>166.0</ele><time>2026-04-15T02:41:14Z</time></trkpt><trkpt lat="-27.70680219312706" lon="114.31248002567185"><ele>166.5</ele><time>2026-04-15T02:41:16Z</time></trkpt><trkpt lat="-27.706963512022092" lon="114.31273950928244"><ele>167.0</ele><time>2026-04-15T02:41:17Z</time></trkpt><trkpt lat="-27.707124143329217" lon="114.31299512164087"><ele>167.0</ele><time>2026-04-15T02:41:18Z</time></trkpt><trkpt lat="-27.707286957170933" lon="114.31325085263511"><ele>167.0</ele><time>2026-04-15T02:41:19Z</time></trkpt><trkpt lat="-27.70744669459733" lon="114.3135065026198"><ele>167.0</ele><time>2026-04-15T02:41:20Z</time></trkpt><trkpt lat="-27.707608287808046" lon="114.3137622498073"><ele>167.0</ele><time>2026-04-15T02:41:21Z</time></trkpt><trkpt lat="-27.70777230869781" lon="114.31402049349353"><ele>169.0</ele><time>2026-04-15T02:41:22Z</time></trkpt><trkpt lat="-27.70793781011686" lon="114.31428067998928"><ele>171.0</ele><time>2026-04-15T02:41:23Z</time></trkpt><trkpt lat="-27.708107491325677" lon="114.31453844765204"><ele>171.5</ele><time>2026-04-15T02:41:24Z</time></trkpt><trkpt lat="-27.708286054646724" lon="114.31479307670658"><ele>172.0</ele><time>2026-04-15T02:41:25Z</time></trkpt><trkpt lat="-27.708474212484482" lon="114.31503846996846"><ele>172.0</ele><time>2026-04-15T02:41:26Z</time></trkpt><trkpt lat="-27.708673226219222" lon="114.31527531085136"><ele>172.0</ele><time>2026-04-15T02:41:27Z</time></trkpt><trkpt lat="-27.708876510488448" lon="114.31550425701242"><ele>173.0</ele><time>2026-04-15T02:41:28Z</time></trkpt><trkpt lat="-27.70908450924846" lon="114.31572518080009"><ele>174.0</ele><time>2026-04-15T02:41:29Z</time></trkpt><trkpt lat="-27.709297005160753" lon="114.31593613439367"><ele>174.0</ele><time>2026-04-15T02:41:30Z</time></trkpt><trkpt lat="-27.70951380047663" lon="114.31614444200714"><ele>174.0</ele><time>2026-04-15T02:41:31Z</time></trkpt><trkpt lat="-27.709728122229333" lon="114.31635571662615"><ele>175.0</ele><time>2026-04-15T02:41:32Z</time></trkpt><trkpt lat="-27.709944988688928" lon="114.31657338679298"><ele>176.0</ele><time>2026-04-15T02:41:33Z</time></trkpt><trkpt lat="-27.71016184816551" lon="114.3167935054832"><ele>176.0</ele><time>2026-04-15T02:41:34Z</time></trkpt><trkpt lat="-27.710378580383907" lon="114.31701412342228"><ele>176.0</ele><time>2026-04-15T02:41:35Z</time></trkpt><trkpt lat="-27.710594128697203" lon="114.31723087444543"><ele>177.0</ele><time>2026-04-15T02:41:36Z</time></trkpt><trkpt lat="-27.710810222302218" lon="114.31744593965738"><ele>178.0</ele><time>2026-04-15T02:41:37Z</time></trkpt><trkpt lat="-27.71102498797681" lon="114.31765831971136"><ele>178.0</ele><time>2026-04-15T02:41:38Z</time></trkpt><trkpt lat="-27.711238035874903" lon="114.31786999009203"><ele>178.0</ele><time>2026-04-15T02:41:39Z</time></trkpt><trkpt lat="-27.71145071976939" lon="114.31808212953456"><ele>178.0</ele><time>2026-04-15T02:41:40Z</time></trkpt><trkpt lat="-27.71166729008084" lon="114.31829654307559"><ele>178.0</ele><time>2026-04-15T02:41:41Z</time></trkpt><trkpt lat="-27.711884001083448" lon="114.31851272670072"><ele>178.5</ele><time>2026-04-15T02:41:42Z</time></trkpt><trkpt lat="-27.71210170215066" lon="114.31872949510382"><ele>179.0</ele><time>2026-04-15T02:41:43Z</time></trkpt><trkpt lat="-27.712321020075773" lon="114.31894745295186"><ele>179.0</ele><time>2026-04-15T02:41:44Z</time></trkpt><trkpt lat="-27.71254851877859" lon="114.31917333788984"><ele>179.0</ele><time>2026-04-15T02:41:45Z</time></trkpt><trkpt lat="-27.712781583532816" lon="114.31940421948113"><ele>180.5</ele><time>2026-04-15T02:41:46Z</time></trkpt><trkpt lat="-27.713013995384728" lon="114.31963007917518"><ele>182.0</ele><time>2026-04-15T02:41:47Z</time></trkpt><trkpt lat="-27.713245016903954" lon="114.3198553550268"><ele>182.5</ele><time>2026-04-15T02:41:48Z</time></trkpt><trkpt lat="-27.713473544051016" lon="114.32008432157227"><ele>183.0</ele><time>2026-04-15T02:41:49Z</time></trkpt><trkpt lat="-27.713700948989572" lon="114.32031468494986"><ele>183.0</ele><time>2026-04-15T02:41:50Z</time></trkpt><trkpt lat="-27.713929162868112" lon="114.3205447595951"><ele>183.0</ele><time>2026-04-15T02:41:51Z</time></trkpt><trkpt lat="-27.714155161684598" lon="114.32077126008797"><ele>185.0</ele><time>2026-04-15T02:41:52Z</time></trkpt><trkpt lat="-27.714379217210666" lon="114.32099192950912"><ele>187.0</ele><time>2026-04-15T02:41:53Z</time></trkpt><trkpt lat="-27.714603050928144" lon="114.32121526952358"><ele>189.5</ele><time>2026-04-15T02:41:54Z</time></trkpt><trkpt lat="-27.714826002838198" lon="114.32144061848169"><ele>192.0</ele><time>2026-04-15T02:41:55Z</time></trkpt><trkpt lat="-27.71505033333391" lon="114.32166193517399"><ele>192.0</ele><time>2026-04-15T02:41:56Z</time></trkpt><trkpt lat="-27.7152716933611" lon="114.32188002892946"><ele>192.0</ele><time>2026-04-15T02:41:57Z</time></trkpt><trkpt lat="-27.71549281732387" lon="114.32210124576481"><ele>192.0</ele><time>2026-04-15T02:41:58Z</time></trkpt><trkpt lat="-27.715714001811033" lon="114.32232265220445"><ele>192.0</ele><time>2026-04-15T02:41:59Z</time></trkpt><trkpt lat="-27.715931688108444" lon="114.3225428771641"><ele>191.0</ele><time>2026-04-15T02:42:00Z</time></trkpt><trkpt lat="-27.71614775513863" lon="114.32276605121058"><ele>190.0</ele><time>2026-04-15T02:42:01Z</time></trkpt><trkpt lat="-27.716361727364124" lon="114.32299741840512"><ele>191.0</ele><time>2026-04-15T02:42:02Z</time></trkpt><trkpt lat="-27.716575674262593" lon="114.32323727092091"><ele>192.0</ele><time>2026-04-15T02:42:03Z</time></trkpt><trkpt lat="-27.716786688268133" lon="114.32347978313108"><ele>191.0</ele><time>2026-04-15T02:42:04Z</time></trkpt><trkpt lat="-27.716995201134225" lon="114.32372303536023"><ele>190.0</ele><time>2026-04-15T02:42:05Z</time></trkpt><trkpt lat="-27.717198632621532" lon="114.32396529024297"><ele>190.0</ele><time>2026-04-15T02:42:06Z</time></trkpt><trkpt lat="-27.71740382036553" lon="114.3242083273387"><ele>190.0</ele><time>2026-04-15T02:42:07Z</time></trkpt><trkpt lat="-27.71760686040763" lon="114.32444794991143"><ele>190.0</ele><time>2026-04-15T02:42:08Z</time></trkpt><trkpt lat="-27.71780910983028" lon="114.32468855922136"><ele>190.0</ele><time>2026-04-15T02:42:09Z</time></trkpt><trkpt lat="-27.718012484654107" lon="114.32493219263043"><ele>190.0</ele><time>2026-04-15T02:42:10Z</time></trkpt><trkpt lat="-27.718216364789082" lon="114.32517769136417"><ele>190.0</ele><time>2026-04-15T02:42:11Z</time></trkpt><trkpt lat="-27.718419404443658" lon="114.32542366685199"><ele>188.5</ele><time>2026-04-15T02:42:12Z</time></trkpt><trkpt lat="-27.718625314988945" lon="114.32567174862086"><ele>187.0</ele><time>2026-04-15T02:42:13Z</time></trkpt><trkpt lat="-27.71883367058235" lon="114.32591691402357"><ele>187.0</ele><time>2026-04-15T02:42:14Z</time></trkpt><trkpt lat="-27.719041896180755" lon="114.32616576361849"><ele>187.0</ele><time>2026-04-15T02:42:15Z</time></trkpt><trkpt lat="-27.719249608851726" lon="114.3264115059086"><ele>184.5</ele><time>2026-04-15T02:42:16Z</time></trkpt><trkpt lat="-27.719457277127866" lon="114.32665786340922"><ele>182.0</ele><time>2026-04-15T02:42:17Z</time></trkpt><trkpt lat="-27.719665180303533" lon="114.32690688255876"><ele>182.0</ele><time>2026-04-15T02:42:18Z</time></trkpt><trkpt lat="-27.71987068733475" lon="114.32715354624337"><ele>182.0</ele><time>2026-04-15T02:42:19Z</time></trkpt><trkpt lat="-27.720078861536482" lon="114.32740155383041"><ele>181.0</ele><time>2026-04-15T02:42:20Z</time></trkpt><trkpt lat="-27.720287464348" lon="114.32764991313655"><ele>180.0</ele><time>2026-04-15T02:42:21Z</time></trkpt><trkpt lat="-27.720496503803865" lon="114.32789754510554"><ele>180.0</ele><time>2026-04-15T02:42:22Z</time></trkpt><trkpt lat="-27.72070672237701" lon="114.32814531579207"><ele>180.0</ele><time>2026-04-15T02:42:23Z</time></trkpt><trkpt lat="-27.720917573062618" lon="114.3283973425611"><ele>180.5</ele><time>2026-04-15T02:42:24Z</time></trkpt><trkpt lat="-27.721125711502474" lon="114.328641338976"><ele>181.0</ele><time>2026-04-15T02:42:25Z</time></trkpt><trkpt lat="-27.721332516026457" lon="114.32888671261239"><ele>181.5</ele><time>2026-04-15T02:42:26Z</time></trkpt><trkpt lat="-27.721536173948124" lon="114.3291296108014"><ele>182.0</ele><time>2026-04-15T02:42:27Z</time></trkpt><trkpt lat="-27.721738161552285" lon="114.32937086089585"><ele>181.5</ele><time>2026-04-15T02:42:28Z</time></trkpt><trkpt lat="-27.721939180326746" lon="114.32961293368176"><ele>181.0</ele><time>2026-04-15T02:42:29Z</time></trkpt><trkpt lat="-27.72214207702867" lon="114.32985425114107"><ele>180.0</ele><time>2026-04-15T02:42:30Z</time></trkpt><trkpt lat="-27.722347036709273" lon="114.3300944245265"><ele>179.0</ele><time>2026-04-15T02:42:31Z</time></trkpt><trkpt lat="-27.722550138127428" lon="114.3303371900814"><ele>180.0</ele><time>2026-04-15T02:42:32Z</time></trkpt><trkpt lat="-27.722752470438397" lon="114.33057811889354"><ele>181.0</ele><time>2026-04-15T02:42:33Z</time></trkpt><trkpt lat="-27.722953892559104" lon="114.33081644111753"><ele>181.0</ele><time>2026-04-15T02:42:34Z</time></trkpt><trkpt lat="-27.72315546870145" lon="114.33104970605895"><ele>181.0</ele><time>2026-04-15T02:42:35Z</time></trkpt><trkpt lat="-27.723356194908842" lon="114.33128725404222"><ele>181.0</ele><time>2026-04-15T02:42:36Z</time></trkpt><trkpt lat="-27.72355688131056" lon="114.33152684070046"><ele>181.0</ele><time>2026-04-15T02:42:37Z</time></trkpt><trkpt lat="-27.72375875289156" lon="114.33176937995033"><ele>181.0</ele><time>2026-04-15T02:42:38Z</time></trkpt><trkpt lat="-27.723961236871176" lon="114.33201202373534"><ele>181.0</ele><time>2026-04-15T02:42:39Z</time></trkpt><trkpt lat="-27.724164860076954" lon="114.33225766636035"><ele>181.5</ele><time>2026-04-15T02:42:40Z</time></trkpt><trkpt lat="-27.724367262177083" lon="114.3325026279653"><ele>182.0</ele><time>2026-04-15T02:42:41Z</time></trkpt><trkpt lat="-27.724573721283768" lon="114.33274680168414"><ele>182.0</ele><time>2026-04-15T02:42:42Z</time></trkpt><trkpt lat="-27.724779367688537" lon="114.3329909311846"><ele>182.0</ele><time>2026-04-15T02:42:43Z</time></trkpt><trkpt lat="-27.72498560828886" lon="114.33323822360971"><ele>182.0</ele><time>2026-04-15T02:42:44Z</time></trkpt><trkpt lat="-27.72519293172035" lon="114.3334852229136"><ele>182.0</ele><time>2026-04-15T02:42:45Z</time></trkpt><trkpt lat="-27.72540235593365" lon="114.33373298257015"><ele>182.5</ele><time>2026-04-15T02:42:46Z</time></trkpt><trkpt lat="-27.725611770017473" lon="114.33398165846079"><ele>183.0</ele><time>2026-04-15T02:42:47Z</time></trkpt><trkpt lat="-27.72582102860939" lon="114.33423162824816"><ele>183.0</ele><time>2026-04-15T02:42:48Z</time></trkpt><trkpt lat="-27.726029868213207" lon="114.33448417548877"><ele>183.0</ele><time>2026-04-15T02:42:49Z</time></trkpt><trkpt lat="-27.726238415998658" lon="114.33473844392931"><ele>183.5</ele><time>2026-04-15T02:42:50Z</time></trkpt><trkpt lat="-27.726447934982755" lon="114.33499678443273"><ele>184.0</ele><time>2026-04-15T02:42:51Z</time></trkpt><trkpt lat="-27.72665776326558" lon="114.33525313190914"><ele>184.0</ele><time>2026-04-15T02:42:52Z</time></trkpt><trkpt lat="-27.726868604658456" lon="114.33551192025053"><ele>184.0</ele><time>2026-04-15T02:42:53Z</time></trkpt><trkpt lat="-27.727080084806907" lon="114.3357723582368"><ele>184.5</ele><time>2026-04-15T02:42:54Z</time></trkpt><trkpt lat="-27.727291719911396" lon="114.33603423354434"><ele>185.0</ele><time>2026-04-15T02:42:55Z</time></trkpt><trkpt lat="-27.727504110030534" lon="114.3362982641438"><ele>185.0</ele><time>2026-04-15T02:42:56Z</time></trkpt><trkpt lat="-27.727716772154587" lon="114.33656348184957"><ele>185.0</ele><time>2026-04-15T02:42:57Z</time></trkpt><trkpt lat="-27.727929225909" lon="114.33682753208068"><ele>185.0</ele><time>2026-04-15T02:42:58Z</time></trkpt><trkpt lat="-27.728140838164148" lon="114.337087594796"><ele>185.0</ele><time>2026-04-15T02:42:59Z</time></trkpt><trkpt lat="-27.728352671499017" lon="114.33734135279953"><ele>185.5</ele><time>2026-04-15T02:43:00Z</time></trkpt><trkpt lat="-27.728562611667087" lon="114.33759484719849"><ele>186.0</ele><time>2026-04-15T02:43:01Z</time></trkpt><trkpt lat="-27.728769490648602" lon="114.33784816147697"><ele>186.0</ele><time>2026-04-15T02:43:02Z</time></trkpt><trkpt lat="-27.72897334882923" lon="114.33810380856328"><ele>186.0</ele><time>2026-04-15T02:43:03Z</time></trkpt><trkpt lat="-27.729175311731996" lon="114.33835980238487"><ele>186.0</ele><time>2026-04-15T02:43:04Z</time></trkpt><trkpt lat="-27.729377711647214" lon="114.33861418964037"><ele>186.0</ele><time>2026-04-15T02:43:05Z</time></trkpt><trkpt lat="-27.729580322106337" lon="114.3388617754856"><ele>186.0</ele><time>2026-04-15T02:43:06Z</time></trkpt><trkpt lat="-27.729783408380396" lon="114.33910342907045"><ele>186.0</ele><time>2026-04-15T02:43:07Z</time></trkpt><trkpt lat="-27.729986961419833" lon="114.3393496146596"><ele>186.0</ele><time>2026-04-15T02:43:08Z</time></trkpt><trkpt lat="-27.730186612233133" lon="114.33959227381354"><ele>186.0</ele><time>2026-04-15T02:43:09Z</time></trkpt><trkpt lat="-27.730383705279333" lon="114.33983502437911"><ele>187.0</ele><time>2026-04-15T02:43:09.999Z</time></trkpt><trkpt lat="-27.730579026831563" lon="114.34007634843616"><ele>188.0</ele><time>2026-04-15T02:43:10.999Z</time></trkpt><trkpt lat="-27.73077461669929" lon="114.34031951758581"><ele>188.0</ele><time>2026-04-15T02:43:11.999Z</time></trkpt><trkpt lat="-27.730966955071004" lon="114.34055976349444"><ele>188.0</ele><time>2026-04-15T02:43:12.999Z</time></trkpt><trkpt lat="-27.731160762085622" lon="114.34079692550318"><ele>188.0</ele><time>2026-04-15T02:43:13.999Z</time></trkpt><trkpt lat="-27.73135583843753" lon="114.34103019582048"><ele>188.0</ele><time>2026-04-15T02:43:14.999Z</time></trkpt><trkpt lat="-27.731548265155933" lon="114.34126765526722"><ele>188.0</ele><time>2026-04-15T02:43:16Z</time></trkpt><trkpt lat="-27.731738917369483" lon="114.34150161931227"><ele>188.0</ele><time>2026-04-15T02:43:17Z</time></trkpt><trkpt lat="-27.731927226543455" lon="114.34173824645244"><ele>188.0</ele><time>2026-04-15T02:43:18Z</time></trkpt><trkpt lat="-27.732119573994108" lon="114.34197408871202"><ele>188.0</ele><time>2026-04-15T02:43:19Z</time></trkpt><trkpt lat="-27.732309793469636" lon="114.34220742426966"><ele>188.0</ele><time>2026-04-15T02:43:20Z</time></trkpt><trkpt lat="-27.73249969616505" lon="114.3424454245448"><ele>188.0</ele><time>2026-04-15T02:43:21Z</time></trkpt><trkpt lat="-27.732693254060038" lon="114.3426873081703"><ele>188.5</ele><time>2026-04-15T02:43:22Z</time></trkpt><trkpt lat="-27.732888244551955" lon="114.34292774154159"><ele>189.0</ele><time>2026-04-15T02:43:23Z</time></trkpt><trkpt lat="-27.733085441872202" lon="114.34317185382086"><ele>189.5</ele><time>2026-04-15T02:43:24Z</time></trkpt><trkpt lat="-27.733287553010236" lon="114.34341865795132"><ele>190.0</ele><time>2026-04-15T02:43:25Z</time></trkpt><trkpt lat="-27.733490136348063" lon="114.34366714015631"><ele>190.0</ele><time>2026-04-15T02:43:26Z</time></trkpt><trkpt lat="-27.733694402989816" lon="114.34391865316131"><ele>190.0</ele><time>2026-04-15T02:43:27Z</time></trkpt><trkpt lat="-27.733898375562646" lon="114.34416913498173"><ele>190.0</ele><time>2026-04-15T02:43:28Z</time></trkpt><trkpt lat="-27.734102114966532" lon="114.34441930346381"><ele>190.0</ele><time>2026-04-15T02:43:29Z</time></trkpt><trkpt lat="-27.73430401724868" lon="114.3446700312148"><ele>190.0</ele><time>2026-04-15T02:43:30Z</time></trkpt><trkpt lat="-27.734502802778707" lon="114.34491801888632"><ele>190.0</ele><time>2026-04-15T02:43:31Z</time></trkpt><trkpt lat="-27.734698091180018" lon="114.34516971752458"><ele>190.0</ele><time>2026-04-15T02:43:32Z</time></trkpt><trkpt lat="-27.734893632256636" lon="114.34542191199725"><ele>190.0</ele><time>2026-04-15T02:43:33Z</time></trkpt><trkpt lat="-27.73508967953309" lon="114.34566920231856"><ele>190.5</ele><time>2026-04-15T02:43:34Z</time></trkpt><trkpt lat="-27.735285964869252" lon="114.34591831055315"><ele>191.0</ele><time>2026-04-15T02:43:35Z</time></trkpt><trkpt lat="-27.7354805304358" lon="114.34616332484468"><ele>191.5</ele><time>2026-04-15T02:43:36Z</time></trkpt><trkpt lat="-27.735677087368142" lon="114.34640845656598"><ele>192.0</ele><time>2026-04-15T02:43:37Z</time></trkpt><trkpt lat="-27.735872710565882" lon="114.34665411495006"><ele>191.5</ele><time>2026-04-15T02:43:38Z</time></trkpt><trkpt lat="-27.73606592090954" lon="114.3469001520379"><ele>191.0</ele><time>2026-04-15T02:43:39Z</time></trkpt><trkpt lat="-27.73626225900522" lon="114.34715078222885"><ele>192.0</ele><time>2026-04-15T02:43:40Z</time></trkpt><trkpt lat="-27.736458732921772" lon="114.34740063578147"><ele>193.0</ele><time>2026-04-15T02:43:41Z</time></trkpt><trkpt lat="-27.73665654668366" lon="114.34765251073867"><ele>193.0</ele><time>2026-04-15T02:43:42Z</time></trkpt><trkpt lat="-27.736855700831438" lon="114.34790109869049"><ele>193.0</ele><time>2026-04-15T02:43:43Z</time></trkpt><trkpt lat="-27.737056573192504" lon="114.34814979487284"><ele>193.0</ele><time>2026-04-15T02:43:44Z</time></trkpt><trkpt lat="-27.737258741444222" lon="114.34839837429209"><ele>193.0</ele><time>2026-04-15T02:43:45Z</time></trkpt><trkpt lat="-27.73745967377027" lon="114.34864901676222"><ele>193.0</ele><time>2026-04-15T02:43:46Z</time></trkpt><trkpt lat="-27.73765544273284" lon="114.348895269262"><ele>193.0</ele><time>2026-04-15T02:43:47Z</time></trkpt><trkpt lat="-27.737847183220627" lon="114.34913742281523"><ele>192.5</ele><time>2026-04-15T02:43:48Z</time></trkpt><trkpt lat="-27.738035927517075" lon="114.34937878614997"><ele>192.0</ele><time>2026-04-15T02:43:49Z</time></trkpt><trkpt lat="-27.738223012759647" lon="114.3496198710047"><ele>193.0</ele><time>2026-04-15T02:43:50Z</time></trkpt><trkpt lat="-27.738414330286393" lon="114.34986361730851"><ele>194.0</ele><time>2026-04-15T02:43:51Z</time></trkpt><trkpt lat="-27.738605229505023" lon="114.35009947312348"><ele>194.5</ele><time>2026-04-15T02:43:52Z</time></trkpt><trkpt lat="-27.73879446223447" lon="114.35033476151101"><ele>195.0</ele><time>2026-04-15T02:43:53Z</time></trkpt><trkpt lat="-27.738982468086533" lon="114.35057376635976"><ele>195.0</ele><time>2026-04-15T02:43:54Z</time></trkpt><trkpt lat="-27.73916911952392" lon="114.35081135930766"><ele>195.0</ele><time>2026-04-15T02:43:55Z</time></trkpt><trkpt lat="-27.739356166534982" lon="114.35105054373165"><ele>195.0</ele><time>2026-04-15T02:43:56Z</time></trkpt><trkpt lat="-27.73954629011892" lon="114.35129262202948"><ele>195.0</ele><time>2026-04-15T02:43:57Z</time></trkpt><trkpt lat="-27.739735737464258" lon="114.35153452498496"><ele>195.0</ele><time>2026-04-15T02:43:58Z</time></trkpt><trkpt lat="-27.73992516860936" lon="114.35177862251483"><ele>195.0</ele><time>2026-04-15T02:43:59Z</time></trkpt><trkpt lat="-27.740115272570314" lon="114.35202141766551"><ele>196.0</ele><time>2026-04-15T02:44:00Z</time></trkpt><trkpt lat="-27.74030621604965" lon="114.35226571942837"><ele>197.0</ele><time>2026-04-15T02:44:01Z</time></trkpt><trkpt lat="-27.74049725508532" lon="114.35250595847914"><ele>197.0</ele><time>2026-04-15T02:44:02Z</time></trkpt><trkpt lat="-27.740690222633038" lon="114.35274922601427"><ele>197.0</ele><time>2026-04-15T02:44:03Z</time></trkpt><trkpt lat="-27.74088247728481" lon="114.35299073920287"><ele>197.5</ele><time>2026-04-15T02:44:04Z</time></trkpt><trkpt lat="-27.741076149820845" lon="114.35323691653537"><ele>198.0</ele><time>2026-04-15T02:44:05Z</time></trkpt><trkpt lat="-27.741268647266406" lon="114.35348316161135"><ele>198.0</ele><time>2026-04-15T02:44:06Z</time></trkpt><trkpt lat="-27.741461731580532" lon="114.35373035729432"><ele>198.0</ele><time>2026-04-15T02:44:07Z</time></trkpt><trkpt lat="-27.741655189302996" lon="114.35397593435243"><ele>198.0</ele><time>2026-04-15T02:44:08Z</time></trkpt><trkpt lat="-27.741848407655006" lon="114.35421692667927"><ele>198.0</ele><time>2026-04-15T02:44:09Z</time></trkpt><trkpt lat="-27.742042086297282" lon="114.35445796104737"><ele>198.0</ele><time>2026-04-15T02:44:10Z</time></trkpt><trkpt lat="-27.742235514879237" lon="114.35469905200355"><ele>198.0</ele><time>2026-04-15T02:44:11Z</time></trkpt><trkpt lat="-27.742427357244377" lon="114.35494308601014"><ele>198.0</ele><time>2026-04-15T02:44:12Z</time></trkpt><trkpt lat="-27.742618235159252" lon="114.35518560749755"><ele>198.0</ele><time>2026-04-15T02:44:13Z</time></trkpt><trkpt lat="-27.74280832397948" lon="114.35542868121799"><ele>199.0</ele><time>2026-04-15T02:44:14Z</time></trkpt><trkpt lat="-27.74299963687054" lon="114.35567011692235"><ele>200.0</ele><time>2026-04-15T02:44:15Z</time></trkpt><trkpt lat="-27.74319199331825" lon="114.35591229987726"><ele>200.0</ele><time>2026-04-15T02:44:16Z</time></trkpt><trkpt lat="-27.743383136776412" lon="114.35615356159397"><ele>200.0</ele><time>2026-04-15T02:44:17Z</time></trkpt><trkpt lat="-27.743573937657985" lon="114.35639657673843"><ele>200.0</ele><time>2026-04-15T02:44:18Z</time></trkpt><trkpt lat="-27.743764564250803" lon="114.35663876126476"><ele>200.0</ele><time>2026-04-15T02:44:19Z</time></trkpt><trkpt lat="-27.743955610875556" lon="114.35688044721267"><ele>200.0</ele><time>2026-04-15T02:44:20Z</time></trkpt><trkpt lat="-27.744149288348837" lon="114.35712695378693"><ele>200.0</ele><time>2026-04-15T02:44:21Z</time></trkpt><trkpt lat="-27.744345227877204" lon="114.35737198931112"><ele>200.5</ele><time>2026-04-15T02:44:22Z</time></trkpt><trkpt lat="-27.744543917083742" lon="114.35762198449615"><ele>201.0</ele><time>2026-04-15T02:44:23Z</time></trkpt><trkpt lat="-27.744740279147557" lon="114.35787071157218"><ele>202.0</ele><time>2026-04-15T02:44:24Z</time></trkpt><trkpt lat="-27.744938902964055" lon="114.35812238326002"><ele>203.0</ele><time>2026-04-15T02:44:25Z</time></trkpt><trkpt lat="-27.745137587544868" lon="114.3583732445043"><ele>203.0</ele><time>2026-04-15T02:44:26Z</time></trkpt><trkpt lat="-27.74533531185759" lon="114.35862451042092"><ele>203.0</ele><time>2026-04-15T02:44:27Z</time></trkpt><trkpt lat="-27.745532988814443" lon="114.35887345180357"><ele>204.5</ele><time>2026-04-15T02:44:28Z</time></trkpt><trkpt lat="-27.745732670720127" lon="114.35912163778394"><ele>206.0</ele><time>2026-04-15T02:44:29Z</time></trkpt><trkpt lat="-27.745930798794575" lon="114.3593690209727"><ele>206.0</ele><time>2026-04-15T02:44:30Z</time></trkpt><trkpt lat="-27.746128758281856" lon="114.35961776240231"><ele>206.0</ele><time>2026-04-15T02:44:31Z</time></trkpt><trkpt lat="-27.746324432472107" lon="114.3598684758603"><ele>206.0</ele><time>2026-04-15T02:44:32Z</time></trkpt><trkpt lat="-27.746520533924066" lon="114.36012065829773"><ele>206.0</ele><time>2026-04-15T02:44:33Z</time></trkpt><trkpt lat="-27.74671748003046" lon="114.36037240087848"><ele>206.0</ele><time>2026-04-15T02:44:34Z</time></trkpt><trkpt lat="-27.746917739393353" lon="114.36062456299129"><ele>206.0</ele><time>2026-04-15T02:44:35Z</time></trkpt><trkpt lat="-27.74711756834784" lon="114.36087772090629"><ele>206.0</ele><time>2026-04-15T02:44:36Z</time></trkpt><trkpt lat="-27.74731457429916" lon="114.36112855783267"><ele>206.0</ele><time>2026-04-15T02:44:37Z</time></trkpt><trkpt lat="-27.747509649407558" lon="114.36137764681413"><ele>206.5</ele><time>2026-04-15T02:44:38Z</time></trkpt><trkpt lat="-27.74770768148551" lon="114.36162700353957"><ele>207.0</ele><time>2026-04-15T02:44:39Z</time></trkpt><trkpt lat="-27.747903434641245" lon="114.36187604152917"><ele>207.0</ele><time>2026-04-15T02:44:40Z</time></trkpt><trkpt lat="-27.748101250978642" lon="114.36212527570024"><ele>207.0</ele><time>2026-04-15T02:44:41Z</time></trkpt><trkpt lat="-27.748299426468062" lon="114.36237462428781"><ele>208.0</ele><time>2026-04-15T02:44:42Z</time></trkpt><trkpt lat="-27.74849914632075" lon="114.36262368252024"><ele>209.0</ele><time>2026-04-15T02:44:43Z</time></trkpt><trkpt lat="-27.74869810707865" lon="114.3628745540829"><ele>210.0</ele><time>2026-04-15T02:44:44Z</time></trkpt><trkpt lat="-27.748896187708265" lon="114.3631273841092"><ele>211.0</ele><time>2026-04-15T02:44:45Z</time></trkpt><trkpt lat="-27.74909339568106" lon="114.36338192327918"><ele>211.0</ele><time>2026-04-15T02:44:46Z</time></trkpt><trkpt lat="-27.749291554593857" lon="114.36363562313292"><ele>211.0</ele><time>2026-04-15T02:44:47Z</time></trkpt><trkpt lat="-27.74949280357919" lon="114.36389177241898"><ele>211.5</ele><time>2026-04-15T02:44:48Z</time></trkpt><trkpt lat="-27.749693888020463" lon="114.36414698135464"><ele>212.0</ele><time>2026-04-15T02:44:49Z</time></trkpt><trkpt lat="-27.749895296590424" lon="114.36439946805794"><ele>212.0</ele><time>2026-04-15T02:44:50Z</time></trkpt><trkpt lat="-27.75009598789135" lon="114.36465076830258"><ele>212.0</ele><time>2026-04-15T02:44:51Z</time></trkpt><trkpt lat="-27.750298233088053" lon="114.36490544769845"><ele>213.0</ele><time>2026-04-15T02:44:52Z</time></trkpt><trkpt lat="-27.750500413780887" lon="114.36515954543378"><ele>214.0</ele><time>2026-04-15T02:44:53Z</time></trkpt><trkpt lat="-27.75070277437919" lon="114.36541307030609"><ele>213.5</ele><time>2026-04-15T02:44:54Z</time></trkpt><trkpt lat="-27.750904058759353" lon="114.36566532138772"><ele>213.0</ele><time>2026-04-15T02:44:55Z</time></trkpt><trkpt lat="-27.75110089960158" lon="114.36591747559368"><ele>214.0</ele><time>2026-04-15T02:44:56Z</time></trkpt><trkpt lat="-27.75129015061783" lon="114.36617495872679"><ele>215.0</ele><time>2026-04-15T02:44:57Z</time></trkpt><trkpt lat="-27.75147350617562" lon="114.36643672020634"><ele>215.5</ele><time>2026-04-15T02:44:58Z</time></trkpt><trkpt lat="-27.751646984938322" lon="114.36670352810393"><ele>216.0</ele><time>2026-04-15T02:44:59Z</time></trkpt><trkpt lat="-27.75181307569945" lon="114.36697621904217"><ele>217.0</ele><time>2026-04-15T02:45:00Z</time></trkpt><trkpt lat="-27.751973212081044" lon="114.3672511812206"><ele>218.0</ele><time>2026-04-15T02:45:01Z</time></trkpt><trkpt lat="-27.75212679395528" lon="114.36752968471332"><ele>218.0</ele><time>2026-04-15T02:45:02Z</time></trkpt><trkpt lat="-27.752271784599785" lon="114.36781371509211"><ele>218.0</ele><time>2026-04-15T02:45:03Z</time></trkpt><trkpt lat="-27.752409026610966" lon="114.36809957339574"><ele>218.0</ele><time>2026-04-15T02:45:04Z</time></trkpt><trkpt lat="-27.752542220664754" lon="114.36838509822422"><ele>218.0</ele><time>2026-04-15T02:45:05Z</time></trkpt><trkpt lat="-27.752674709865754" lon="114.36867295158106"><ele>220.0</ele><time>2026-04-15T02:45:06Z</time></trkpt><trkpt lat="-27.75280718387522" lon="114.36896292447842"><ele>222.0</ele><time>2026-04-15T02:45:07Z</time></trkpt><trkpt lat="-27.752940016885535" lon="114.36924797166293"><ele>222.0</ele><time>2026-04-15T02:45:08Z</time></trkpt><trkpt lat="-27.753072248358606" lon="114.3695260142046"><ele>222.0</ele><time>2026-04-15T02:45:09Z</time></trkpt><trkpt lat="-27.753203526677396" lon="114.36979667924727"><ele>223.0</ele><time>2026-04-15T02:45:10Z</time></trkpt><trkpt lat="-27.753337651316574" lon="114.37006758670235"><ele>224.0</ele><time>2026-04-15T02:45:11Z</time></trkpt><trkpt lat="-27.753481164557083" lon="114.37033314318525"><ele>225.0</ele><time>2026-04-15T02:45:12Z</time></trkpt><trkpt lat="-27.75363996347135" lon="114.37059924170607"><ele>226.0</ele><time>2026-04-15T02:45:13Z</time></trkpt><trkpt lat="-27.753807627284907" lon="114.37086072976007"><ele>226.0</ele><time>2026-04-15T02:45:14Z</time></trkpt><trkpt lat="-27.753980129967655" lon="114.37112037759444"><ele>226.0</ele><time>2026-04-15T02:45:15Z</time></trkpt><trkpt lat="-27.754161922175843" lon="114.37137798109804"><ele>226.5</ele><time>2026-04-15T02:45:16Z</time></trkpt><trkpt lat="-27.754349566822984" lon="114.37162319457465"><ele>227.0</ele><time>2026-04-15T02:45:17Z</time></trkpt><trkpt lat="-27.754548793877426" lon="114.37186028106787"><ele>227.0</ele><time>2026-04-15T02:45:18Z</time></trkpt><trkpt lat="-27.75475767538057" lon="114.3720958402013"><ele>227.0</ele><time>2026-04-15T02:45:19Z</time></trkpt><trkpt lat="-27.7549682627104" lon="114.37232527510915"><ele>227.0</ele><time>2026-04-15T02:45:20Z</time></trkpt><trkpt lat="-27.755179633039646" lon="114.37255320388428"><ele>227.0</ele><time>2026-04-15T02:45:21Z</time></trkpt><trkpt lat="-27.75539146898729" lon="114.37278397478342"><ele>227.0</ele><time>2026-04-15T02:45:22Z</time></trkpt><trkpt lat="-27.755602362194594" lon="114.37301878469957"><ele>227.0</ele><time>2026-04-15T02:45:23Z</time></trkpt><trkpt lat="-27.75581368603406" lon="114.37325489018093"><ele>227.5</ele><time>2026-04-15T02:45:24Z</time></trkpt><trkpt lat="-27.756027292851098" lon="114.37349461861805"><ele>228.0</ele><time>2026-04-15T02:45:25Z</time></trkpt><trkpt lat="-27.756241140698076" lon="114.37373651759057"><ele>228.5</ele><time>2026-04-15T02:45:26Z</time></trkpt><trkpt lat="-27.756456405355607" lon="114.37397752312194"><ele>229.0</ele><time>2026-04-15T02:45:27Z</time></trkpt><trkpt lat="-27.756671503784247" lon="114.37421638239714"><ele>229.5</ele><time>2026-04-15T02:45:28Z</time></trkpt><trkpt lat="-27.756890229519" lon="114.37445582703845"><ele>230.0</ele><time>2026-04-15T02:45:29Z</time></trkpt><trkpt lat="-27.757110055294547" lon="114.37469666584606"><ele>230.0</ele><time>2026-04-15T02:45:30Z</time></trkpt><trkpt lat="-27.75732787815714" lon="114.37493454934415"><ele>230.0</ele><time>2026-04-15T02:45:31Z</time></trkpt><trkpt lat="-27.75754401518162" lon="114.37517425199746"><ele>230.5</ele><time>2026-04-15T02:45:32Z</time></trkpt><trkpt lat="-27.757761059678995" lon="114.37541238841"><ele>231.0</ele><time>2026-04-15T02:45:33Z</time></trkpt><trkpt lat="-27.757977654164232" lon="114.37565116728683"><ele>231.5</ele><time>2026-04-15T02:45:34Z</time></trkpt><trkpt lat="-27.758193427269845" lon="114.37588801621455"><ele>232.0</ele><time>2026-04-15T02:45:35Z</time></trkpt><trkpt lat="-27.758409519522928" lon="114.37612577501166"><ele>232.0</ele><time>2026-04-15T02:45:36Z</time></trkpt><trkpt lat="-27.75862298092245" lon="114.37636450966087"><ele>232.0</ele><time>2026-04-15T02:45:37Z</time></trkpt><trkpt lat="-27.758836549167047" lon="114.37660530021316"><ele>232.0</ele><time>2026-04-15T02:45:38Z</time></trkpt><trkpt lat="-27.75905035197508" lon="114.37684310066759"><ele>232.0</ele><time>2026-04-15T02:45:39Z</time></trkpt><trkpt lat="-27.75926529113807" lon="114.37707932450527"><ele>233.0</ele><time>2026-04-15T02:45:40Z</time></trkpt><trkpt lat="-27.759480702755436" lon="114.37731736994054"><ele>234.0</ele><time>2026-04-15T02:45:41Z</time></trkpt><trkpt lat="-27.759694926560616" lon="114.3775535473263"><ele>234.0</ele><time>2026-04-15T02:45:42Z</time></trkpt><trkpt lat="-27.759911210241174" lon="114.37778759097226"><ele>234.0</ele><time>2026-04-15T02:45:43Z</time></trkpt><trkpt lat="-27.760127813076963" lon="114.37802321326267"><ele>233.5</ele><time>2026-04-15T02:45:44Z</time></trkpt><trkpt lat="-27.760344932156784" lon="114.37825843360251"><ele>233.0</ele><time>2026-04-15T02:45:45Z</time></trkpt><trkpt lat="-27.76056156302132" lon="114.37849449616209"><ele>233.0</ele><time>2026-04-15T02:45:46Z</time></trkpt><trkpt lat="-27.76077691582925" lon="114.37873204026535"><ele>233.0</ele><time>2026-04-15T02:45:47Z</time></trkpt><trkpt lat="-27.7609913551871" lon="114.37896897825763"><ele>233.0</ele><time>2026-04-15T02:45:48Z</time></trkpt><trkpt lat="-27.761202841876987" lon="114.37920669662402"><ele>233.0</ele><time>2026-04-15T02:45:49Z</time></trkpt><trkpt lat="-27.761412103498138" lon="114.37944539377308"><ele>232.5</ele><time>2026-04-15T02:45:50Z</time></trkpt><trkpt lat="-27.761619040810853" lon="114.37968566667736"><ele>232.0</ele><time>2026-04-15T02:45:51Z</time></trkpt><trkpt lat="-27.761822187744404" lon="114.37993047949811"><ele>232.0</ele><time>2026-04-15T02:45:52Z</time></trkpt><trkpt lat="-27.76202165556387" lon="114.38018430037467"><ele>232.0</ele><time>2026-04-15T02:45:53Z</time></trkpt><trkpt lat="-27.762212538079524" lon="114.3804427364734"><ele>231.0</ele><time>2026-04-15T02:45:54Z</time></trkpt><trkpt lat="-27.762404153148854" lon="114.38070751542116"><ele>230.0</ele><time>2026-04-15T02:45:55Z</time></trkpt><trkpt lat="-27.762594357769313" lon="114.38096707420449"><ele>229.5</ele><time>2026-04-15T02:45:56Z</time></trkpt><trkpt lat="-27.76278748268297" lon="114.38122675951891"><ele>229.0</ele><time>2026-04-15T02:45:57Z</time></trkpt><trkpt lat="-27.76298346939199" lon="114.38148771158056"><ele>228.5</ele><time>2026-04-15T02:45:58Z</time></trkpt><trkpt lat="-27.76318224825498" lon="114.38174824723399"><ele>228.0</ele><time>2026-04-15T02:45:59Z</time></trkpt><trkpt lat="-27.763381913593186" lon="114.38201126868671"><ele>227.0</ele><time>2026-04-15T02:46:00Z</time></trkpt><trkpt lat="-27.763581774933037" lon="114.3822758095871"><ele>226.0</ele><time>2026-04-15T02:46:01Z</time></trkpt><trkpt lat="-27.76378145530822" lon="114.38253946113099"><ele>226.0</ele><time>2026-04-15T02:46:02Z</time></trkpt><trkpt lat="-27.76397968760344" lon="114.38280559700375"><ele>226.0</ele><time>2026-04-15T02:46:03Z</time></trkpt><trkpt lat="-27.76417799920533" lon="114.38307034561593"><ele>226.0</ele><time>2026-04-15T02:46:04Z</time></trkpt><trkpt lat="-27.76437682726732" lon="114.38333346393443"><ele>226.0</ele><time>2026-04-15T02:46:05Z</time></trkpt><trkpt lat="-27.764574113256483" lon="114.38359515236222"><ele>226.5</ele><time>2026-04-15T02:46:06Z</time></trkpt><trkpt lat="-27.76477185051339" lon="114.38385688634511"><ele>227.0</ele><time>2026-04-15T02:46:07Z</time></trkpt><trkpt lat="-27.764965781963873" lon="114.38411541525174"><ele>227.0</ele><time>2026-04-15T02:46:08Z</time></trkpt><trkpt lat="-27.76515966173254" lon="114.38437496990673"><ele>227.0</ele><time>2026-04-15T02:46:09Z</time></trkpt><trkpt lat="-27.765352753148218" lon="114.38463296836949"><ele>225.0</ele><time>2026-04-15T02:46:10Z</time></trkpt><trkpt lat="-27.7655449255417" lon="114.38489116673"><ele>223.0</ele><time>2026-04-15T02:46:11Z</time></trkpt><trkpt lat="-27.765734364174627" lon="114.38514882670749"><ele>223.0</ele><time>2026-04-15T02:46:12Z</time></trkpt><trkpt lat="-27.76592730001762" lon="114.38540406941725"><ele>223.0</ele><time>2026-04-15T02:46:13Z</time></trkpt><trkpt lat="-27.766117784080528" lon="114.38565764236263"><ele>223.0</ele><time>2026-04-15T02:46:14Z</time></trkpt><trkpt lat="-27.766306457271988" lon="114.3859094868878"><ele>223.0</ele><time>2026-04-15T02:46:15Z</time></trkpt><trkpt lat="-27.766496304844395" lon="114.38616117508664"><ele>222.5</ele><time>2026-04-15T02:46:16Z</time></trkpt><trkpt lat="-27.76668232737867" lon="114.38640954467425"><ele>222.0</ele><time>2026-04-15T02:46:17Z</time></trkpt><trkpt lat="-27.766869502328387" lon="114.38665769184767"><ele>221.0</ele><time>2026-04-15T02:46:18Z</time></trkpt><trkpt lat="-27.767056902249674" lon="114.3869038028873"><ele>220.0</ele><time>2026-04-15T02:46:19Z</time></trkpt><trkpt lat="-27.76724449763146" lon="114.3871528227234"><ele>221.0</ele><time>2026-04-15T02:46:20Z</time></trkpt><trkpt lat="-27.767433437689224" lon="114.38740509724099"><ele>222.0</ele><time>2026-04-15T02:46:21Z</time></trkpt><trkpt lat="-27.76762090806144" lon="114.38765592279546"><ele>222.0</ele><time>2026-04-15T02:46:22Z</time></trkpt><trkpt lat="-27.767805329572795" lon="114.3879056578913"><ele>222.0</ele><time>2026-04-15T02:46:23Z</time></trkpt><trkpt lat="-27.76798803409526" lon="114.38815285881535"><ele>222.5</ele><time>2026-04-15T02:46:24Z</time></trkpt><trkpt lat="-27.768169389940752" lon="114.38839613472561"><ele>223.0</ele><time>2026-04-15T02:46:25Z</time></trkpt><trkpt lat="-27.768351634314477" lon="114.38863927144897"><ele>224.0</ele><time>2026-04-15T02:46:26Z</time></trkpt><trkpt lat="-27.768534492803433" lon="114.38888238129044"><ele>225.0</ele><time>2026-04-15T02:46:27Z</time></trkpt><trkpt lat="-27.768718297033587" lon="114.3891252364296"><ele>225.0</ele><time>2026-04-15T02:46:28Z</time></trkpt><trkpt lat="-27.768903424196843" lon="114.38937280063853"><ele>225.0</ele><time>2026-04-15T02:46:29Z</time></trkpt><trkpt lat="-27.769088470834355" lon="114.38962018951361"><ele>225.0</ele><time>2026-04-15T02:46:30Z</time></trkpt><trkpt lat="-27.76927550473617" lon="114.38987014962531"><ele>225.0</ele><time>2026-04-15T02:46:31Z</time></trkpt><trkpt lat="-27.769460068573398" lon="114.39011740623252"><ele>225.0</ele><time>2026-04-15T02:46:32Z</time></trkpt><trkpt lat="-27.769643990558485" lon="114.39036563204498"><ele>225.0</ele><time>2026-04-15T02:46:33Z</time></trkpt><trkpt lat="-27.76982770963107" lon="114.39061106564792"><ele>225.5</ele><time>2026-04-15T02:46:34Z</time></trkpt><trkpt lat="-27.77001399380005" lon="114.39085426899914"><ele>226.0</ele><time>2026-04-15T02:46:35Z</time></trkpt><trkpt lat="-27.770199678450037" lon="114.39109550935439"><ele>226.0</ele><time>2026-04-15T02:46:36Z</time></trkpt><trkpt lat="-27.77038567224339" lon="114.39134232925834"><ele>226.0</ele><time>2026-04-15T02:46:37Z</time></trkpt><trkpt lat="-27.770571177747996" lon="114.39159195183268"><ele>226.0</ele><time>2026-04-15T02:46:38Z</time></trkpt><trkpt lat="-27.770757953810485" lon="114.39184654281776"><ele>226.0</ele><time>2026-04-15T02:46:39Z</time></trkpt><trkpt lat="-27.770944638956976" lon="114.39209692435998"><ele>226.0</ele><time>2026-04-15T02:46:40Z</time></trkpt><trkpt lat="-27.771131406142572" lon="114.39234615520186"><ele>226.0</ele><time>2026-04-15T02:46:41Z</time></trkpt><trkpt lat="-27.771319036127974" lon="114.3925935269103"><ele>226.0</ele><time>2026-04-15T02:46:42Z</time></trkpt><trkpt lat="-27.771506160683494" lon="114.39283918453644"><ele>226.0</ele><time>2026-04-15T02:46:43Z</time></trkpt><trkpt lat="-27.771693770809364" lon="114.39308743649975"><ele>226.5</ele><time>2026-04-15T02:46:44Z</time></trkpt><trkpt lat="-27.771880821188628" lon="114.3933392593405"><ele>227.0</ele><time>2026-04-15T02:46:45Z</time></trkpt><trkpt lat="-27.772067566543488" lon="114.39359192160377"><ele>227.0</ele><time>2026-04-15T02:46:46Z</time></trkpt><trkpt lat="-27.772254102870225" lon="114.39384253595904"><ele>227.0</ele><time>2026-04-15T02:46:47Z</time></trkpt><trkpt lat="-27.77244259153278" lon="114.3940927824699"><ele>227.0</ele><time>2026-04-15T02:46:48Z</time></trkpt><trkpt lat="-27.77263133948806" lon="114.39434427362475"><ele>227.0</ele><time>2026-04-15T02:46:49Z</time></trkpt><trkpt lat="-27.772819217415822" lon="114.39459357257269"><ele>226.5</ele><time>2026-04-15T02:46:50Z</time></trkpt><trkpt lat="-27.773005104319168" lon="114.39484320371852"><ele>226.0</ele><time>2026-04-15T02:46:51Z</time></trkpt><trkpt lat="-27.77319388655526" lon="114.39509438305257"><ele>226.0</ele><time>2026-04-15T02:46:52Z</time></trkpt><trkpt lat="-27.773383469264658" lon="114.39534660558873"><ele>226.0</ele><time>2026-04-15T02:46:53Z</time></trkpt><trkpt lat="-27.773574535372294" lon="114.3956017989893"><ele>226.0</ele><time>2026-04-15T02:46:54Z</time></trkpt><trkpt lat="-27.77376702101036" lon="114.39585844806658"><ele>226.0</ele><time>2026-04-15T02:46:55Z</time></trkpt><trkpt lat="-27.77395893648695" lon="114.39611230048732"><ele>224.5</ele><time>2026-04-15T02:46:56Z</time></trkpt><trkpt lat="-27.774149218251722" lon="114.39636444852817"><ele>223.0</ele><time>2026-04-15T02:46:57Z</time></trkpt><trkpt lat="-27.77433965426751" lon="114.39661523331023"><ele>223.0</ele><time>2026-04-15T02:46:58Z</time></trkpt><trkpt lat="-27.774529033622585" lon="114.39686661565447"><ele>223.0</ele><time>2026-04-15T02:46:59Z</time></trkpt><trkpt lat="-27.774715921699233" lon="114.39711773457637"><ele>222.5</ele><time>2026-04-15T02:47:00Z</time></trkpt><trkpt lat="-27.774903633300347" lon="114.3973652859011"><ele>222.0</ele><time>2026-04-15T02:47:01Z</time></trkpt><trkpt lat="-27.77509025495508" lon="114.39761218031703"><ele>221.5</ele><time>2026-04-15T02:47:02Z</time></trkpt><trkpt lat="-27.775273441732818" lon="114.39785569715433"><ele>221.0</ele><time>2026-04-15T02:47:03Z</time></trkpt><trkpt lat="-27.775457503718123" lon="114.39810042652607"><ele>220.5</ele><time>2026-04-15T02:47:04Z</time></trkpt><trkpt lat="-27.775642310009673" lon="114.39834401992071"><ele>220.0</ele><time>2026-04-15T02:47:05Z</time></trkpt><trkpt lat="-27.77582653541942" lon="114.39859272129536"><ele>220.0</ele><time>2026-04-15T02:47:06Z</time></trkpt><trkpt lat="-27.776012383353887" lon="114.39884116840942"><ele>220.0</ele><time>2026-04-15T02:47:07Z</time></trkpt><trkpt lat="-27.776202863392655" lon="114.39908810263333"><ele>220.0</ele><time>2026-04-15T02:47:08Z</time></trkpt><trkpt lat="-27.77639127675546" lon="114.39933585697125"><ele>220.0</ele><time>2026-04-15T02:47:09Z</time></trkpt><trkpt lat="-27.776576835488203" lon="114.39958390262242"><ele>219.5</ele><time>2026-04-15T02:47:10Z</time></trkpt><trkpt lat="-27.776764008003628" lon="114.39983612334791"><ele>219.0</ele><time>2026-04-15T02:47:11Z</time></trkpt><trkpt lat="-27.776951482388583" lon="114.40008359940244"><ele>219.0</ele><time>2026-04-15T02:47:12Z</time></trkpt><trkpt lat="-27.777141972293037" lon="114.40033202425201"><ele>219.0</ele><time>2026-04-15T02:47:13Z</time></trkpt><trkpt lat="-27.77732919979029" lon="114.40057913628618"><ele>219.0</ele><time>2026-04-15T02:47:14Z</time></trkpt><trkpt lat="-27.777515857949133" lon="114.4008266648385"><ele>219.0</ele><time>2026-04-15T02:47:15Z</time></trkpt><trkpt lat="-27.77770141732542" lon="114.40107545333856"><ele>219.0</ele><time>2026-04-15T02:47:16Z</time></trkpt><trkpt lat="-27.777886886791656" lon="114.40132358185444"><ele>219.0</ele><time>2026-04-15T02:47:17Z</time></trkpt><trkpt lat="-27.778071801075214" lon="114.40157297720874"><ele>220.0</ele><time>2026-04-15T02:47:18Z</time></trkpt><trkpt lat="-27.778257993800473" lon="114.4018200018803"><ele>221.0</ele><time>2026-04-15T02:47:19Z</time></trkpt><trkpt lat="-27.778446256421255" lon="114.40206544239871"><ele>220.5</ele><time>2026-04-15T02:47:20Z</time></trkpt><trkpt lat="-27.77863803916253" lon="114.4023148159632"><ele>220.0</ele><time>2026-04-15T02:47:21Z</time></trkpt><trkpt lat="-27.778827060052077" lon="114.40256387583813"><ele>220.0</ele><time>2026-04-15T02:47:22Z</time></trkpt><trkpt lat="-27.779011482804822" lon="114.40281319132639"><ele>220.0</ele><time>2026-04-15T02:47:23Z</time></trkpt><trkpt lat="-27.779192702320245" lon="114.4030574810309"><ele>220.0</ele><time>2026-04-15T02:47:24Z</time></trkpt><trkpt lat="-27.779377846903973" lon="114.40330464908544"><ele>220.0</ele><time>2026-04-15T02:47:25Z</time></trkpt><trkpt lat="-27.77956563891103" lon="114.40355565921968"><ele>220.0</ele><time>2026-04-15T02:47:26Z</time></trkpt><trkpt lat="-27.779757163060285" lon="114.40380615947814"><ele>220.0</ele><time>2026-04-15T02:47:27Z</time></trkpt><trkpt lat="-27.77994789549457" lon="114.40405548465841"><ele>220.0</ele><time>2026-04-15T02:47:28Z</time></trkpt><trkpt lat="-27.78013841055803" lon="114.40430480259427"><ele>220.0</ele><time>2026-04-15T02:47:29Z</time></trkpt><trkpt lat="-27.78032830151997" lon="114.40455326700467"><ele>220.0</ele><time>2026-04-15T02:47:30Z</time></trkpt><trkpt lat="-27.780512770376816" lon="114.4047996797976"><ele>220.0</ele><time>2026-04-15T02:47:31Z</time></trkpt><trkpt lat="-27.780696606630244" lon="114.40504715558448"><ele>220.0</ele><time>2026-04-15T02:47:32Z</time></trkpt><trkpt lat="-27.780877725677627" lon="114.40529366128227"><ele>220.0</ele><time>2026-04-15T02:47:33Z</time></trkpt><trkpt lat="-27.78106026606871" lon="114.40554089957682"><ele>219.5</ele><time>2026-04-15T02:47:34Z</time></trkpt><trkpt lat="-27.781242717274633" lon="114.40578326589441"><ele>219.0</ele><time>2026-04-15T02:47:35Z</time></trkpt><trkpt lat="-27.781427865997596" lon="114.40602385975512"><ele>219.0</ele><time>2026-04-15T02:47:36Z</time></trkpt><trkpt lat="-27.781611934771604" lon="114.40626624234923"><ele>219.0</ele><time>2026-04-15T02:47:37Z</time></trkpt><trkpt lat="-27.78179443971252" lon="114.40650737795656"><ele>217.0</ele><time>2026-04-15T02:47:38Z</time></trkpt><trkpt lat="-27.781978247729178" lon="114.40674910526374"><ele>215.0</ele><time>2026-04-15T02:47:39Z</time></trkpt><trkpt lat="-27.782161458544618" lon="114.4069940006311"><ele>215.0</ele><time>2026-04-15T02:47:40Z</time></trkpt><trkpt lat="-27.782345337673245" lon="114.40723719542763"><ele>215.0</ele><time>2026-04-15T02:47:41Z</time></trkpt><trkpt lat="-27.782530601570745" lon="114.40748494102895"><ele>214.0</ele><time>2026-04-15T02:47:42Z</time></trkpt><trkpt lat="-27.78271641014829" lon="114.40773218799428"><ele>213.0</ele><time>2026-04-15T02:47:43Z</time></trkpt><trkpt lat="-27.7829046033655" lon="114.40798214127655"><ele>212.5</ele><time>2026-04-15T02:47:44Z</time></trkpt><trkpt lat="-27.783091341647463" lon="114.40823293306377"><ele>212.0</ele><time>2026-04-15T02:47:45Z</time></trkpt><trkpt lat="-27.78328235126891" lon="114.40848565955771"><ele>212.0</ele><time>2026-04-15T02:47:46Z</time></trkpt><trkpt lat="-27.78347095248746" lon="114.40873571079227"><ele>212.0</ele><time>2026-04-15T02:47:47Z</time></trkpt><trkpt lat="-27.78366011593961" lon="114.4089864708457"><ele>210.5</ele><time>2026-04-15T02:47:48Z</time></trkpt><trkpt lat="-27.783848280494723" lon="114.40923828444977"><ele>209.0</ele><time>2026-04-15T02:47:49Z</time></trkpt><trkpt lat="-27.784034817212948" lon="114.409486894888"><ele>209.5</ele><time>2026-04-15T02:47:50Z</time></trkpt><trkpt lat="-27.784221894421627" lon="114.409735773906"><ele>210.0</ele><time>2026-04-15T02:47:51Z</time></trkpt><trkpt lat="-27.784412754829727" lon="114.40998495900148"><ele>210.0</ele><time>2026-04-15T02:47:52Z</time></trkpt><trkpt lat="-27.784605587049793" lon="114.41023469352989"><ele>210.0</ele><time>2026-04-15T02:47:53Z</time></trkpt><trkpt lat="-27.78479721414393" lon="114.41048056531004"><ele>209.5</ele><time>2026-04-15T02:47:54Z</time></trkpt><trkpt lat="-27.78498466336288" lon="114.41072693341145"><ele>209.0</ele><time>2026-04-15T02:47:55Z</time></trkpt><trkpt lat="-27.78516817431002" lon="114.41097404891872"><ele>209.0</ele><time>2026-04-15T02:47:56Z</time></trkpt><trkpt lat="-27.78535135074423" lon="114.41122163148351"><ele>209.0</ele><time>2026-04-15T02:47:57Z</time></trkpt><trkpt lat="-27.785532809452192" lon="114.41146661292451"><ele>209.0</ele><time>2026-04-15T02:47:58Z</time></trkpt><trkpt lat="-27.785716779000943" lon="114.41171144791194"><ele>209.0</ele><time>2026-04-15T02:47:59Z</time></trkpt><trkpt lat="-27.78589996203913" lon="114.41195553742244"><ele>211.0</ele><time>2026-04-15T02:48:00Z</time></trkpt><trkpt lat="-27.786082593734342" lon="114.41219757187264"><ele>213.0</ele><time>2026-04-15T02:48:01Z</time></trkpt><trkpt lat="-27.78626101440769" lon="114.41243550364403"><ele>213.0</ele><time>2026-04-15T02:48:02Z</time></trkpt><trkpt lat="-27.786438704417574" lon="114.41267363557532"><ele>213.0</ele><time>2026-04-15T02:48:03Z</time></trkpt><trkpt lat="-27.786615300239127" lon="114.4129106223688"><ele>212.5</ele><time>2026-04-15T02:48:04Z</time></trkpt><trkpt lat="-27.786793967462263" lon="114.4131509863008"><ele>212.0</ele><time>2026-04-15T02:48:05Z</time></trkpt><trkpt lat="-27.786973476265388" lon="114.4133901776405"><ele>211.0</ele><time>2026-04-15T02:48:06Z</time></trkpt><trkpt lat="-27.78715440678417" lon="114.41362757169415"><ele>210.0</ele><time>2026-04-15T02:48:07Z</time></trkpt><trkpt lat="-27.787338592303236" lon="114.41387091233325"><ele>210.0</ele><time>2026-04-15T02:48:08Z</time></trkpt><trkpt lat="-27.78752445904576" lon="114.41411104719994"><ele>210.0</ele><time>2026-04-15T02:48:09Z</time></trkpt><trkpt lat="-27.787709961022607" lon="114.41435129790942"><ele>210.0</ele><time>2026-04-15T02:48:10Z</time></trkpt><trkpt lat="-27.787894287677453" lon="114.41459293647611"><ele>210.0</ele><time>2026-04-15T02:48:11Z</time></trkpt><trkpt lat="-27.788076038963396" lon="114.41483640941371"><ele>210.0</ele><time>2026-04-15T02:48:12Z</time></trkpt><trkpt lat="-27.788256406605026" lon="114.4150766278634"><ele>210.0</ele><time>2026-04-15T02:48:13Z</time></trkpt><trkpt lat="-27.78843483721106" lon="114.41531689566881"><ele>210.0</ele><time>2026-04-15T02:48:14Z</time></trkpt><trkpt lat="-27.788611089274678" lon="114.4155542457133"><ele>210.0</ele><time>2026-04-15T02:48:15Z</time></trkpt><trkpt lat="-27.788786736086344" lon="114.41579150379812"><ele>210.0</ele><time>2026-04-15T02:48:16Z</time></trkpt><trkpt lat="-27.788962639054542" lon="114.41602662197751"><ele>210.0</ele><time>2026-04-15T02:48:17Z</time></trkpt><trkpt lat="-27.789138704743554" lon="114.41626163174021"><ele>210.0</ele><time>2026-04-15T02:48:18Z</time></trkpt><trkpt lat="-27.7893171290973" lon="114.41650059731911"><ele>210.0</ele><time>2026-04-15T02:48:19Z</time></trkpt><trkpt lat="-27.78949592467709" lon="114.41673847742064"><ele>210.0</ele><time>2026-04-15T02:48:20Z</time></trkpt><trkpt lat="-27.789672873206108" lon="114.41697328929257"><ele>210.0</ele><time>2026-04-15T02:48:21Z</time></trkpt><trkpt lat="-27.78984911926519" lon="114.41720634605223"><ele>210.5</ele><time>2026-04-15T02:48:22Z</time></trkpt><trkpt lat="-27.790023258829" lon="114.41743728070642"><ele>211.0</ele><time>2026-04-15T02:48:23Z</time></trkpt><trkpt lat="-27.79020069213109" lon="114.41767194974041"><ele>210.0</ele><time>2026-04-15T02:48:24Z</time></trkpt><trkpt lat="-27.790378423419288" lon="114.41791020687583"><ele>209.0</ele><time>2026-04-15T02:48:25Z</time></trkpt><trkpt lat="-27.79055803309004" lon="114.41814970146282"><ele>209.0</ele><time>2026-04-15T02:48:26Z</time></trkpt><trkpt lat="-27.79073657516141" lon="114.4183865333925"><ele>209.0</ele><time>2026-04-15T02:48:27Z</time></trkpt><trkpt lat="-27.790915043203356" lon="114.4186205072101"><ele>209.0</ele><time>2026-04-15T02:48:28Z</time></trkpt><trkpt lat="-27.791094647685377" lon="114.4188581886374"><ele>209.0</ele><time>2026-04-15T02:48:29Z</time></trkpt><trkpt lat="-27.791275952210444" lon="114.41909729468668"><ele>209.0</ele><time>2026-04-15T02:48:30Z</time></trkpt><trkpt lat="-27.79145934436627" lon="114.41933957637842"><ele>209.0</ele><time>2026-04-15T02:48:31Z</time></trkpt><trkpt lat="-27.79164069680615" lon="114.41957659331878"><ele>209.5</ele><time>2026-04-15T02:48:32Z</time></trkpt><trkpt lat="-27.791823398692127" lon="114.41982055482362"><ele>210.0</ele><time>2026-04-15T02:48:33Z</time></trkpt><trkpt lat="-27.79200586922085" lon="114.42006538892889"><ele>210.0</ele><time>2026-04-15T02:48:34Z</time></trkpt><trkpt lat="-27.79219036755976" lon="114.42030977604338"><ele>210.0</ele><time>2026-04-15T02:48:35Z</time></trkpt><trkpt lat="-27.792376169699" lon="114.42055564927321"><ele>210.0</ele><time>2026-04-15T02:48:36Z</time></trkpt><trkpt lat="-27.79256348387663" lon="114.42080448695377"><ele>210.0</ele><time>2026-04-15T02:48:37Z</time></trkpt><trkpt lat="-27.79274806160827" lon="114.42105125971648"><ele>210.5</ele><time>2026-04-15T02:48:38Z</time></trkpt><trkpt lat="-27.792932411215233" lon="114.42129670457956"><ele>211.0</ele><time>2026-04-15T02:48:39Z</time></trkpt><trkpt lat="-27.793114657461807" lon="114.42154174027321"><ele>210.0</ele><time>2026-04-15T02:48:40Z</time></trkpt><trkpt lat="-27.79329557124272" lon="114.42178672922707"><ele>209.0</ele><time>2026-04-15T02:48:41Z</time></trkpt><trkpt lat="-27.793477197048833" lon="114.42202987184115"><ele>209.0</ele><time>2026-04-15T02:48:42Z</time></trkpt><trkpt lat="-27.793660076213186" lon="114.42226943914326"><ele>209.0</ele><time>2026-04-15T02:48:43Z</time></trkpt><trkpt lat="-27.79384358145996" lon="114.42251108153219"><ele>209.0</ele><time>2026-04-15T02:48:44Z</time></trkpt><trkpt lat="-27.794025104473253" lon="114.42275122390184"><ele>209.0</ele><time>2026-04-15T02:48:45Z</time></trkpt><trkpt lat="-27.79420421115982" lon="114.42298957349308"><ele>210.5</ele><time>2026-04-15T02:48:46Z</time></trkpt><trkpt lat="-27.79437858138716" lon="114.42322368179475"><ele>212.0</ele><time>2026-04-15T02:48:47Z</time></trkpt><trkpt lat="-27.79455017587498" lon="114.42345839270573"><ele>212.0</ele><time>2026-04-15T02:48:48Z</time></trkpt><trkpt lat="-27.79472187501028" lon="114.42369171884704"><ele>212.0</ele><time>2026-04-15T02:48:49Z</time></trkpt><trkpt lat="-27.794896852966968" lon="114.42392430334522"><ele>212.5</ele><time>2026-04-15T02:48:50Z</time></trkpt><trkpt lat="-27.79507397212431" lon="114.42415699754751"><ele>213.0</ele><time>2026-04-15T02:48:51Z</time></trkpt><trkpt lat="-27.795249394442934" lon="114.42438927195043"><ele>213.5</ele><time>2026-04-15T02:48:52Z</time></trkpt><trkpt lat="-27.795426220395477" lon="114.42461896142245"><ele>214.0</ele><time>2026-04-15T02:48:53Z</time></trkpt><trkpt lat="-27.79560274366277" lon="114.42485090258265"><ele>214.0</ele><time>2026-04-15T02:48:54Z</time></trkpt><trkpt lat="-27.795782492030558" lon="114.42508674820633"><ele>214.0</ele><time>2026-04-15T02:48:55Z</time></trkpt><trkpt lat="-27.795964959162898" lon="114.42532457104177"><ele>214.5</ele><time>2026-04-15T02:48:56Z</time></trkpt><trkpt lat="-27.79614585635725" lon="114.4255608972013"><ele>215.0</ele><time>2026-04-15T02:48:57Z</time></trkpt><trkpt lat="-27.796325561308475" lon="114.425799406221"><ele>215.0</ele><time>2026-04-15T02:48:58Z</time></trkpt><trkpt lat="-27.79650465709418" lon="114.42604156185696"><ele>215.0</ele><time>2026-04-15T02:48:59Z</time></trkpt><trkpt lat="-27.796683035972237" lon="114.42628272424123"><ele>215.5</ele><time>2026-04-15T02:49:00Z</time></trkpt><trkpt lat="-27.7968635871717" lon="114.42652505491608"><ele>216.0</ele><time>2026-04-15T02:49:01Z</time></trkpt><trkpt lat="-27.79704587249693" lon="114.42676669881742"><ele>216.0</ele><time>2026-04-15T02:49:02Z</time></trkpt><trkpt lat="-27.797229751058822" lon="114.42700949147743"><ele>216.0</ele><time>2026-04-15T02:49:03Z</time></trkpt><trkpt lat="-27.79741552983141" lon="114.427252719362"><ele>215.5</ele><time>2026-04-15T02:49:04Z</time></trkpt><trkpt lat="-27.797600060590156" lon="114.42749815824502"><ele>215.0</ele><time>2026-04-15T02:49:05Z</time></trkpt><trkpt lat="-27.79778533840696" lon="114.42774382949169"><ele>214.5</ele><time>2026-04-15T02:49:06Z</time></trkpt><trkpt lat="-27.797967826665193" lon="114.42798842527915"><ele>214.0</ele><time>2026-04-15T02:49:07Z</time></trkpt><trkpt lat="-27.79814859324921" lon="114.42823290633042"><ele>214.0</ele><time>2026-04-15T02:49:08Z</time></trkpt><trkpt lat="-27.798510273858412" lon="114.42871899484962"><ele>213.5</ele><time>2026-04-15T02:49:10Z</time></trkpt><trkpt lat="-27.798689059542006" lon="114.42895190617708"><ele>213.0</ele><time>2026-04-15T02:49:11Z</time></trkpt><trkpt lat="-27.798869716951103" lon="114.42918521361564"><ele>213.0</ele><time>2026-04-15T02:49:12Z</time></trkpt><trkpt lat="-27.799046819609217" lon="114.42941551077715"><ele>213.0</ele><time>2026-04-15T02:49:13Z</time></trkpt><trkpt lat="-27.799220919263792" lon="114.42964265510656"><ele>212.5</ele><time>2026-04-15T02:49:14Z</time></trkpt><trkpt lat="-27.79939500620319" lon="114.42987121596458"><ele>212.0</ele><time>2026-04-15T02:49:15Z</time></trkpt><trkpt lat="-27.79956808858559" lon="114.43009941908493"><ele>212.0</ele><time>2026-04-15T02:49:16Z</time></trkpt><trkpt lat="-27.79974002103327" lon="114.43033170872167"><ele>212.0</ele><time>2026-04-15T02:49:17Z</time></trkpt><trkpt lat="-27.799907592278068" lon="114.43056034647003"><ele>212.0</ele><time>2026-04-15T02:49:18Z</time></trkpt><trkpt lat="-27.80007809458677" lon="114.43078773995508"><ele>212.0</ele><time>2026-04-15T02:49:19Z</time></trkpt><trkpt lat="-27.800248607454183" lon="114.43101650839824"><ele>212.0</ele><time>2026-04-15T02:49:20Z</time></trkpt><trkpt lat="-27.800420681584924" lon="114.43124778690321"><ele>212.0</ele><time>2026-04-15T02:49:21Z</time></trkpt><trkpt lat="-27.800593346522685" lon="114.43147759147045"><ele>211.5</ele><time>2026-04-15T02:49:22Z</time></trkpt><trkpt lat="-27.80076531194962" lon="114.43170763699003"><ele>211.0</ele><time>2026-04-15T02:49:23Z</time></trkpt><trkpt lat="-27.800937444547706" lon="114.43193960174239"><ele>211.0</ele><time>2026-04-15T02:49:24Z</time></trkpt><trkpt lat="-27.801109778541164" lon="114.43217033604067"><ele>211.0</ele><time>2026-04-15T02:49:25Z</time></trkpt><trkpt lat="-27.80128258221069" lon="114.43239711057971"><ele>211.0</ele><time>2026-04-15T02:49:26Z</time></trkpt><trkpt lat="-27.801457974373598" lon="114.43263111508669"><ele>211.0</ele><time>2026-04-15T02:49:27Z</time></trkpt><trkpt lat="-27.80163047713362" lon="114.43286066929618"><ele>210.5</ele><time>2026-04-15T02:49:28Z</time></trkpt><trkpt lat="-27.801803684252786" lon="114.43309154540982"><ele>210.0</ele><time>2026-04-15T02:49:29Z</time></trkpt><trkpt lat="-27.80197658279676" lon="114.43331893460248"><ele>211.0</ele><time>2026-04-15T02:49:30Z</time></trkpt><trkpt lat="-27.802149615385606" lon="114.43354796960047"><ele>212.0</ele><time>2026-04-15T02:49:31Z</time></trkpt><trkpt lat="-27.802322759648092" lon="114.43377687741692"><ele>211.0</ele><time>2026-04-15T02:49:32Z</time></trkpt><trkpt lat="-27.80249941335328" lon="114.43400883525933"><ele>210.0</ele><time>2026-04-15T02:49:33Z</time></trkpt><trkpt lat="-27.802678056685362" lon="114.43424518340167"><ele>210.0</ele><time>2026-04-15T02:49:34Z</time></trkpt><trkpt lat="-27.802859550465477" lon="114.43448482014126"><ele>210.0</ele><time>2026-04-15T02:49:35Z</time></trkpt><trkpt lat="-27.80304163658047" lon="114.43472343514702"><ele>210.0</ele><time>2026-04-15T02:49:36Z</time></trkpt><trkpt lat="-27.803221062893083" lon="114.43496001356122"><ele>210.0</ele><time>2026-04-15T02:49:37Z</time></trkpt><trkpt lat="-27.803398565057083" lon="114.43519408584888"><ele>209.5</ele><time>2026-04-15T02:49:38Z</time></trkpt><trkpt lat="-27.803575031402783" lon="114.43542752770243"><ele>209.0</ele><time>2026-04-15T02:49:39Z</time></trkpt><trkpt lat="-27.803748401618776" lon="114.43565911517399"><ele>210.0</ele><time>2026-04-15T02:49:40Z</time></trkpt><trkpt lat="-27.8039204439088" lon="114.43589177585717"><ele>211.0</ele><time>2026-04-15T02:49:41Z</time></trkpt><trkpt lat="-27.80409334884487" lon="114.43612528200582"><ele>211.5</ele><time>2026-04-15T02:49:42Z</time></trkpt><trkpt lat="-27.80426665543449" lon="114.43635946120777"><ele>212.0</ele><time>2026-04-15T02:49:43Z</time></trkpt><trkpt lat="-27.804438728229727" lon="114.43659189838316"><ele>211.0</ele><time>2026-04-15T02:49:44Z</time></trkpt><trkpt lat="-27.80461368316025" lon="114.43682613716805"><ele>210.0</ele><time>2026-04-15T02:49:45Z</time></trkpt><trkpt lat="-27.804787180040353" lon="114.4370590858008"><ele>210.0</ele><time>2026-04-15T02:49:46Z</time></trkpt><trkpt lat="-27.804962966427876" lon="114.4372921935472"><ele>210.0</ele><time>2026-04-15T02:49:47Z</time></trkpt><trkpt lat="-27.80513784718521" lon="114.43752338018632"><ele>210.0</ele><time>2026-04-15T02:49:48Z</time></trkpt><trkpt lat="-27.80531121818693" lon="114.43775619786825"><ele>210.0</ele><time>2026-04-15T02:49:49Z</time></trkpt><trkpt lat="-27.80548098298092" lon="114.4379870430754"><ele>210.0</ele><time>2026-04-15T02:49:50Z</time></trkpt><trkpt lat="-27.80565240285318" lon="114.4382170989268"><ele>210.0</ele><time>2026-04-15T02:49:51Z</time></trkpt><trkpt lat="-27.80582620316686" lon="114.4384456607436"><ele>210.5</ele><time>2026-04-15T02:49:52Z</time></trkpt><trkpt lat="-27.806006880493154" lon="114.43867757267031"><ele>211.0</ele><time>2026-04-15T02:49:53Z</time></trkpt><trkpt lat="-27.806188812009946" lon="114.43891261872274"><ele>211.5</ele><time>2026-04-15T02:49:54Z</time></trkpt><trkpt lat="-27.806371908023" lon="114.43915189565683"><ele>212.0</ele><time>2026-04-15T02:49:55Z</time></trkpt><trkpt lat="-27.806556368286454" lon="114.43939426545347"><ele>211.5</ele><time>2026-04-15T02:49:56Z</time></trkpt><trkpt lat="-27.806736143123636" lon="114.43963403663248"><ele>211.0</ele><time>2026-04-15T02:49:57Z</time></trkpt><trkpt lat="-27.806914634617307" lon="114.43987505579099"><ele>211.0</ele><time>2026-04-15T02:49:58Z</time></trkpt><trkpt lat="-27.80709176889492" lon="114.44011534833884"><ele>211.0</ele><time>2026-04-15T02:49:59Z</time></trkpt><trkpt lat="-27.807266192309537" lon="114.44035324643885"><ele>211.0</ele><time>2026-04-15T02:50:00Z</time></trkpt><trkpt lat="-27.80743872575544" lon="114.44058590166762"><ele>211.0</ele><time>2026-04-15T02:50:01Z</time></trkpt><trkpt lat="-27.807613570552917" lon="114.44081586657431"><ele>210.5</ele><time>2026-04-15T02:50:02Z</time></trkpt><trkpt lat="-27.807788975426735" lon="114.44104104929099"><ele>210.0</ele><time>2026-04-15T02:50:03Z</time></trkpt><trkpt lat="-27.80796350132571" lon="114.44126435860741"><ele>211.0</ele><time>2026-04-15T02:50:04Z</time></trkpt><trkpt lat="-27.808131205508836" lon="114.4414882136663"><ele>212.0</ele><time>2026-04-15T02:50:05Z</time></trkpt><trkpt lat="-27.808295811022347" lon="114.44170704902572"><ele>212.0</ele><time>2026-04-15T02:50:06Z</time></trkpt><trkpt lat="-27.808461643194345" lon="114.44192565169483"><ele>212.0</ele><time>2026-04-15T02:50:07Z</time></trkpt><trkpt lat="-27.80862344748023" lon="114.44214153072754"><ele>211.0</ele><time>2026-04-15T02:50:08Z</time></trkpt><trkpt lat="-27.808782661729975" lon="114.44235817726829"><ele>210.0</ele><time>2026-04-15T02:50:09Z</time></trkpt><trkpt lat="-27.80893988051872" lon="114.44257015191207"><ele>210.0</ele><time>2026-04-15T02:50:10Z</time></trkpt><trkpt lat="-27.809097216397912" lon="114.44278187100882"><ele>210.0</ele><time>2026-04-15T02:50:11Z</time></trkpt><trkpt lat="-27.809253416563656" lon="114.44299035278537"><ele>210.5</ele><time>2026-04-15T02:50:12Z</time></trkpt><trkpt lat="-27.809411653480307" lon="114.44320321804206"><ele>211.0</ele><time>2026-04-15T02:50:13Z</time></trkpt><trkpt lat="-27.809572003745945" lon="114.44341970098439"><ele>211.0</ele><time>2026-04-15T02:50:14Z</time></trkpt><trkpt lat="-27.80973504174743" lon="114.44363847025402"><ele>211.0</ele><time>2026-04-15T02:50:15Z</time></trkpt><trkpt lat="-27.809900213481075" lon="114.44385994972755"><ele>211.0</ele><time>2026-04-15T02:50:16Z</time></trkpt><trkpt lat="-27.810068479674747" lon="114.44408129164744"><ele>211.0</ele><time>2026-04-15T02:50:17Z</time></trkpt><trkpt lat="-27.81023670494622" lon="114.44430333786879"><ele>210.5</ele><time>2026-04-15T02:50:18Z</time></trkpt><trkpt lat="-27.81040244380454" lon="114.44452357382245"><ele>210.0</ele><time>2026-04-15T02:50:19Z</time></trkpt><trkpt lat="-27.81056354149564" lon="114.44473855700649"><ele>210.0</ele><time>2026-04-15T02:50:20Z</time></trkpt><trkpt lat="-27.810721167185367" lon="114.44495102516755"><ele>210.0</ele><time>2026-04-15T02:50:21Z</time></trkpt><trkpt lat="-27.81087509385748" lon="114.4451691339511"><ele>210.5</ele><time>2026-04-15T02:50:22Z</time></trkpt><trkpt lat="-27.81102507331733" lon="114.4453970922183"><ele>211.0</ele><time>2026-04-15T02:50:23Z</time></trkpt><trkpt lat="-27.811168475847197" lon="114.44563489722994"><ele>211.5</ele><time>2026-04-15T02:50:24Z</time></trkpt><trkpt lat="-27.811305426213163" lon="114.44588077497846"><ele>212.0</ele><time>2026-04-15T02:50:25Z</time></trkpt><trkpt lat="-27.811438368741012" lon="114.44613063458974"><ele>211.5</ele><time>2026-04-15T02:50:26Z</time></trkpt><trkpt lat="-27.811564324221173" lon="114.44638661323677"><ele>211.0</ele><time>2026-04-15T02:50:27Z</time></trkpt><trkpt lat="-27.811685278877103" lon="114.44664990382427"><ele>211.0</ele><time>2026-04-15T02:50:28Z</time></trkpt><trkpt lat="-27.811802650937413" lon="114.44691629659408"><ele>211.0</ele><time>2026-04-15T02:50:29Z</time></trkpt><trkpt lat="-27.811920255494954" lon="114.44718289474477"><ele>211.0</ele><time>2026-04-15T02:50:30Z</time></trkpt><trkpt lat="-27.812038871078247" lon="114.44744617947941"><ele>211.0</ele><time>2026-04-15T02:50:31Z</time></trkpt><trkpt lat="-27.812158587448184" lon="114.44770964263724"><ele>210.5</ele><time>2026-04-15T02:50:32Z</time></trkpt><trkpt lat="-27.81227650491765" lon="114.44796842427074"><ele>210.0</ele><time>2026-04-15T02:50:33Z</time></trkpt><trkpt lat="-27.81239521377012" lon="114.4482248702966"><ele>210.0</ele><time>2026-04-15T02:50:34Z</time></trkpt><trkpt lat="-27.812509127870584" lon="114.44846961046204"><ele>210.0</ele><time>2026-04-15T02:50:35Z</time></trkpt><trkpt lat="-27.812622970664197" lon="114.4487115397721"><ele>210.0</ele><time>2026-04-15T02:50:36Z</time></trkpt><trkpt lat="-27.8127346062358" lon="114.4489526209887"><ele>210.0</ele><time>2026-04-15T02:50:37Z</time></trkpt><trkpt lat="-27.81284354934143" lon="114.44918667054576"><ele>210.0</ele><time>2026-04-15T02:50:38Z</time></trkpt><trkpt lat="-27.812955145250093" lon="114.44942064727616"><ele>210.0</ele><time>2026-04-15T02:50:39Z</time></trkpt><trkpt lat="-27.813069362365916" lon="114.44966263154066"><ele>209.5</ele><time>2026-04-15T02:50:40Z</time></trkpt><trkpt lat="-27.813184351925592" lon="114.44991371598206"><ele>209.0</ele><time>2026-04-15T02:50:41Z</time></trkpt><trkpt lat="-27.813296871512136" lon="114.4501632022087"><ele>209.0</ele><time>2026-04-15T02:50:42Z</time></trkpt><trkpt lat="-27.81340881687803" lon="114.45041195066382"><ele>209.0</ele><time>2026-04-15T02:50:43Z</time></trkpt><trkpt lat="-27.813521604208578" lon="114.45065945748962"><ele>209.5</ele><time>2026-04-15T02:50:44Z</time></trkpt><trkpt lat="-27.813632952905333" lon="114.45090969495217"><ele>210.0</ele><time>2026-04-15T02:50:45Z</time></trkpt><trkpt lat="-27.8137472274767" lon="114.45116001233141"><ele>210.0</ele><time>2026-04-15T02:50:46Z</time></trkpt><trkpt lat="-27.813864140925528" lon="114.45141458735677"><ele>210.0</ele><time>2026-04-15T02:50:47Z</time></trkpt><trkpt lat="-27.81398333317759" lon="114.45167162775823"><ele>210.0</ele><time>2026-04-15T02:50:48Z</time></trkpt><trkpt lat="-27.814104235507596" lon="114.45193199816612"><ele>210.0</ele><time>2026-04-15T02:50:49Z</time></trkpt><trkpt lat="-27.814226793116408" lon="114.45219313184282"><ele>211.0</ele><time>2026-04-15T02:50:50Z</time></trkpt><trkpt lat="-27.81435016313995" lon="114.45245815348632"><ele>212.0</ele><time>2026-04-15T02:50:51Z</time></trkpt><trkpt lat="-27.81447414497903" lon="114.45272280255423"><ele>212.0</ele><time>2026-04-15T02:50:52Z</time></trkpt><trkpt lat="-27.814595623256324" lon="114.4529899775249"><ele>212.0</ele><time>2026-04-15T02:50:53Z</time></trkpt><trkpt lat="-27.8147170351459" lon="114.45325778695357"><ele>212.0</ele><time>2026-04-15T02:50:54Z</time></trkpt><trkpt lat="-27.81483542319286" lon="114.4535220500143"><ele>212.0</ele><time>2026-04-15T02:50:55Z</time></trkpt><trkpt lat="-27.81495511055678" lon="114.4537889608877"><ele>212.0</ele><time>2026-04-15T02:50:56Z</time></trkpt><trkpt lat="-27.815074267903274" lon="114.45405073066166"><ele>212.0</ele><time>2026-04-15T02:50:57Z</time></trkpt><trkpt lat="-27.815197499534804" lon="114.45431252653769"><ele>212.5</ele><time>2026-04-15T02:50:58Z</time></trkpt><trkpt lat="-27.815322494807763" lon="114.45457095665577"><ele>213.0</ele><time>2026-04-15T02:50:59Z</time></trkpt><trkpt lat="-27.81544477749881" lon="114.45482998258"><ele>211.5</ele><time>2026-04-15T02:51:00Z</time></trkpt><trkpt lat="-27.81556422893962" lon="114.45509324965859"><ele>210.0</ele><time>2026-04-15T02:51:01Z</time></trkpt><trkpt lat="-27.815682306647705" lon="114.45536278769224"><ele>209.0</ele><time>2026-04-15T02:51:02Z</time></trkpt><trkpt lat="-27.81579957794066" lon="114.45563220097449"><ele>208.0</ele><time>2026-04-15T02:51:03Z</time></trkpt><trkpt lat="-27.8159177428137" lon="114.45589662681793"><ele>208.5</ele><time>2026-04-15T02:51:04Z</time></trkpt><trkpt lat="-27.81603837282959" lon="114.45615642477799"><ele>209.0</ele><time>2026-04-15T02:51:05Z</time></trkpt><trkpt lat="-27.816162614218523" lon="114.45641540849651"><ele>209.0</ele><time>2026-04-15T02:51:06Z</time></trkpt><trkpt lat="-27.81628775863913" lon="114.45666956393542"><ele>209.0</ele><time>2026-04-15T02:51:07Z</time></trkpt><trkpt lat="-27.81642103231152" lon="114.45691408667315"><ele>210.5</ele><time>2026-04-15T02:51:08Z</time></trkpt><trkpt lat="-27.816562818896724" lon="114.457149903877"><ele>212.0</ele><time>2026-04-15T02:51:09Z</time></trkpt><trkpt lat="-27.816712121099112" lon="114.4573810665914"><ele>211.0</ele><time>2026-04-15T02:51:10Z</time></trkpt><trkpt lat="-27.81686497998743" lon="114.45759978552648"><ele>210.0</ele><time>2026-04-15T02:51:11Z</time></trkpt><trkpt lat="-27.817025865305666" lon="114.45781407505717"><ele>210.0</ele><time>2026-04-15T02:51:12Z</time></trkpt><trkpt lat="-27.817190054250183" lon="114.45803331246339"><ele>210.0</ele><time>2026-04-15T02:51:13Z</time></trkpt><trkpt lat="-27.817356212278067" lon="114.45825225443174"><ele>210.0</ele><time>2026-04-15T02:51:14Z</time></trkpt><trkpt lat="-27.81752876687439" lon="114.45846710848211"><ele>210.0</ele><time>2026-04-15T02:51:15Z</time></trkpt><trkpt lat="-27.81771149678821" lon="114.45867328958671"><ele>210.0</ele><time>2026-04-15T02:51:16Z</time></trkpt><trkpt lat="-27.817903576767264" lon="114.4588713844883"><ele>210.0</ele><time>2026-04-15T02:51:17Z</time></trkpt><trkpt lat="-27.818101342303443" lon="114.45905971652184"><ele>210.0</ele><time>2026-04-15T02:51:18Z</time></trkpt><trkpt lat="-27.818307694117337" lon="114.4592457102696"><ele>210.0</ele><time>2026-04-15T02:51:19Z</time></trkpt><trkpt lat="-27.818516940644344" lon="114.45942521115553"><ele>210.0</ele><time>2026-04-15T02:51:20Z</time></trkpt><trkpt lat="-27.8187325983059" lon="114.45960587158656"><ele>210.0</ele><time>2026-04-15T02:51:21Z</time></trkpt><trkpt lat="-27.818945307547967" lon="114.45978128386865"><ele>210.0</ele><time>2026-04-15T02:51:22Z</time></trkpt><trkpt lat="-27.8191534120312" lon="114.45995634349029"><ele>210.0</ele><time>2026-04-15T02:51:23Z</time></trkpt><trkpt lat="-27.819358470532116" lon="114.46013179751563"><ele>209.5</ele><time>2026-04-15T02:51:24Z</time></trkpt><trkpt lat="-27.81955595727167" lon="114.46030318207178"><ele>209.0</ele><time>2026-04-15T02:51:25Z</time></trkpt><trkpt lat="-27.819749244940393" lon="114.46047203369339"><ele>208.5</ele><time>2026-04-15T02:51:26Z</time></trkpt><trkpt lat="-27.81994229972362" lon="114.46063461269708"><ele>208.0</ele><time>2026-04-15T02:51:27Z</time></trkpt><trkpt lat="-27.82013732454067" lon="114.46079842722071"><ele>209.0</ele><time>2026-04-15T02:51:28Z</time></trkpt><trkpt lat="-27.820338352337497" lon="114.46096734349553"><ele>210.0</ele><time>2026-04-15T02:51:29Z</time></trkpt><trkpt lat="-27.8205420894669" lon="114.46113910128116"><ele>209.5</ele><time>2026-04-15T02:51:30Z</time></trkpt><trkpt lat="-27.82074465645017" lon="114.46131104750582"><ele>209.0</ele><time>2026-04-15T02:51:31Z</time></trkpt><trkpt lat="-27.820947182222085" lon="114.46148479040866"><ele>208.5</ele><time>2026-04-15T02:51:32Z</time></trkpt><trkpt lat="-27.821153032532305" lon="114.46165843157839"><ele>208.0</ele><time>2026-04-15T02:51:33Z</time></trkpt><trkpt lat="-27.821364412511887" lon="114.46182311818426"><ele>208.0</ele><time>2026-04-15T02:51:34Z</time></trkpt><trkpt lat="-27.821584040006922" lon="114.46197711168843"><ele>208.0</ele><time>2026-04-15T02:51:35Z</time></trkpt><trkpt lat="-27.821811383639833" lon="114.4621236021725"><ele>209.5</ele><time>2026-04-15T02:51:36Z</time></trkpt><trkpt lat="-27.822041742880113" lon="114.46226098980516"><ele>211.0</ele><time>2026-04-15T02:51:37Z</time></trkpt><trkpt lat="-27.82227494964168" lon="114.46239110199001"><ele>211.0</ele><time>2026-04-15T02:51:38Z</time></trkpt><trkpt lat="-27.8225116331977" lon="114.46251203440033"><ele>211.0</ele><time>2026-04-15T02:51:39Z</time></trkpt><trkpt lat="-27.822748096258056" lon="114.4626165630972"><ele>211.5</ele><time>2026-04-15T02:51:39.999Z</time></trkpt><trkpt lat="-27.822987152741756" lon="114.46270888111164"><ele>212.0</ele><time>2026-04-15T02:51:40.999Z</time></trkpt><trkpt lat="-27.82322578185355" lon="114.46279447583443"><ele>212.0</ele><time>2026-04-15T02:51:41.999Z</time></trkpt><trkpt lat="-27.823467064460676" lon="114.46287544594217"><ele>212.0</ele><time>2026-04-15T02:51:42.999Z</time></trkpt><trkpt lat="-27.823710121392892" lon="114.4629474361357"><ele>212.5</ele><time>2026-04-15T02:51:43.999Z</time></trkpt><trkpt lat="-27.82395467397723" lon="114.46301134427621"><ele>213.0</ele><time>2026-04-15T02:51:44.999Z</time></trkpt><trkpt lat="-27.824199723840408" lon="114.46306845073781"><ele>214.0</ele><time>2026-04-15T02:51:46Z</time></trkpt><trkpt lat="-27.824446948503248" lon="114.46311705352709"><ele>215.0</ele><time>2026-04-15T02:51:47Z</time></trkpt><trkpt lat="-27.824696518642373" lon="114.46315543291074"><ele>215.0</ele><time>2026-04-15T02:51:48Z</time></trkpt><trkpt lat="-27.82494813697188" lon="114.46317914022703"><ele>215.0</ele><time>2026-04-15T02:51:49Z</time></trkpt><trkpt lat="-27.82520711109502" lon="114.46319632669505"><ele>215.5</ele><time>2026-04-15T02:51:50Z</time></trkpt><trkpt lat="-27.825465268794872" lon="114.46320849135114"><ele>216.0</ele><time>2026-04-15T02:51:51Z</time></trkpt><trkpt lat="-27.825726865299984" lon="114.46322210108198"><ele>215.5</ele><time>2026-04-15T02:51:52Z</time></trkpt><trkpt lat="-27.82598300045298" lon="114.46323572774519"><ele>215.0</ele><time>2026-04-15T02:51:53Z</time></trkpt><trkpt lat="-27.826234569586227" lon="114.4632510462174"><ele>215.0</ele><time>2026-04-15T02:51:54Z</time></trkpt><trkpt lat="-27.826491012379496" lon="114.46326845368253"><ele>215.0</ele><time>2026-04-15T02:51:55Z</time></trkpt><trkpt lat="-27.82674370172993" lon="114.46328728156428"><ele>215.0</ele><time>2026-04-15T02:51:56Z</time></trkpt><trkpt lat="-27.826993648331616" lon="114.46330563212224"><ele>215.0</ele><time>2026-04-15T02:51:57Z</time></trkpt><trkpt lat="-27.827233063557856" lon="114.46332393282901"><ele>215.0</ele><time>2026-04-15T02:51:58Z</time></trkpt><trkpt lat="-27.827458376148023" lon="114.46334048716209"><ele>215.0</ele><time>2026-04-15T02:51:59Z</time></trkpt><trkpt lat="-27.827673249151616" lon="114.46335451324576"><ele>215.0</ele><time>2026-04-15T02:52:00Z</time></trkpt><trkpt lat="-27.82788756256926" lon="114.46336755095751"><ele>215.33333333333334</ele><time>2026-04-15T02:52:01Z</time></trkpt><trkpt lat="-27.828100310160146" lon="114.46337965278038"><ele>215.66666666666669</ele><time>2026-04-15T02:52:02Z</time></trkpt><trkpt lat="-27.82829700712121" lon="114.46339020349187"><ele>216.0</ele><time>2026-04-15T02:52:03Z</time></trkpt><trkpt lat="-27.828477630524493" lon="114.46339908676909"><ele>216.33333333333331</ele><time>2026-04-15T02:52:04Z</time></trkpt><trkpt lat="-27.828649118469272" lon="114.46340980900389"><ele>216.66666666666666</ele><time>2026-04-15T02:52:05Z</time></trkpt><trkpt lat="-27.828802288824157" lon="114.4634150043681"><ele>217.0</ele><time>2026-04-15T02:52:06Z</time></trkpt><trkpt lat="-27.828939826854455" lon="114.46340890517747"><ele>217.0</ele><time>2026-04-15T02:52:07Z</time></trkpt><trkpt lat="-27.82906256075353" lon="114.46339390389868"><ele>217.0</ele><time>2026-04-15T02:52:08Z</time></trkpt><trkpt lat="-27.82916585264242" lon="114.4633780368277"><ele>217.0</ele><time>2026-04-15T02:52:09Z</time></trkpt><trkpt lat="-27.8292596683106" lon="114.46337319825783"><ele>217.0</ele><time>2026-04-15T02:52:10Z</time></trkpt><trkpt lat="-27.82934050160533" lon="114.46337778764769"><ele>217.0</ele><time>2026-04-15T02:52:11Z</time></trkpt><trkpt lat="-27.829411858396362" lon="114.46338523124211"><ele>216.75</ele><time>2026-04-15T02:52:12Z</time></trkpt><trkpt lat="-27.82953218521488" lon="114.46340719864634"><ele>216.5</ele><time>2026-04-15T02:52:14Z</time></trkpt><trkpt lat="-27.829676565372495" lon="114.46344907626248"><ele>216.25</ele><time>2026-04-15T02:52:16Z</time></trkpt><trkpt lat="-27.829779753083116" lon="114.46348190320549"><ele>216.0</ele><time>2026-04-15T02:52:17Z</time></trkpt><trkpt lat="-27.829899809063832" lon="114.46350314342774"><ele>216.0</ele><time>2026-04-15T02:52:18Z</time></trkpt><trkpt lat="-27.8300341362172" lon="114.46351355315277"><ele>216.0</ele><time>2026-04-15T02:52:19Z</time></trkpt><trkpt lat="-27.830170013956607" lon="114.46351875167112"><ele>216.0</ele><time>2026-04-15T02:52:20Z</time></trkpt><trkpt lat="-27.83032281238159" lon="114.46353386633818"><ele>216.0</ele><time>2026-04-15T02:52:21Z</time></trkpt><trkpt lat="-27.83049368715533" lon="114.46356669488928"><ele>216.0</ele><time>2026-04-15T02:52:22Z</time></trkpt><trkpt lat="-27.830674679523824" lon="114.46360962528207"><ele>216.0</ele><time>2026-04-15T02:52:23Z</time></trkpt><trkpt lat="-27.830861248098095" lon="114.46365313358572"><ele>216.0</ele><time>2026-04-15T02:52:24Z</time></trkpt><trkpt lat="-27.8310438440364" lon="114.46369669173725"><ele>216.0</ele><time>2026-04-15T02:52:25Z</time></trkpt><trkpt lat="-27.83123160319101" lon="114.46374612008142"><ele>216.0</ele><time>2026-04-15T02:52:26Z</time></trkpt><trkpt lat="-27.831423291575184" lon="114.46380066374209"><ele>216.0</ele><time>2026-04-15T02:52:27Z</time></trkpt><trkpt lat="-27.83161964041263" lon="114.46386356593688"><ele>214.66666666666669</ele><time>2026-04-15T02:52:28Z</time></trkpt><trkpt lat="-27.831827573167942" lon="114.46393909000464"><ele>213.33333333333334</ele><time>2026-04-15T02:52:29Z</time></trkpt><trkpt lat="-27.832025985699268" lon="114.46402145149273"><ele>212.0</ele><time>2026-04-15T02:52:30Z</time></trkpt><trkpt lat="-27.832217433146738" lon="114.46410715371452"><ele>212.0</ele><time>2026-04-15T02:52:31Z</time></trkpt><trkpt lat="-27.832415443646255" lon="114.46419592030642"><ele>212.0</ele><time>2026-04-15T02:52:32Z</time></trkpt><trkpt lat="-27.832619729434743" lon="114.46428945243669"><ele>212.0</ele><time>2026-04-15T02:52:33Z</time></trkpt><trkpt lat="-27.832826815538503" lon="114.46438519109951"><ele>213.0</ele><time>2026-04-15T02:52:34Z</time></trkpt><trkpt lat="-27.833036054216503" lon="114.4644791157189"><ele>214.0</ele><time>2026-04-15T02:52:35Z</time></trkpt><trkpt lat="-27.83325214068077" lon="114.46457538063345"><ele>214.0</ele><time>2026-04-15T02:52:36Z</time></trkpt><trkpt lat="-27.833473793786144" lon="114.4646727252966"><ele>214.0</ele><time>2026-04-15T02:52:37Z</time></trkpt><trkpt lat="-27.83368369707835" lon="114.46476579353381"><ele>214.0</ele><time>2026-04-15T02:52:38Z</time></trkpt><trkpt lat="-27.833888788393566" lon="114.46485339907532"><ele>214.0</ele><time>2026-04-15T02:52:39Z</time></trkpt><trkpt lat="-27.83409647052054" lon="114.46494294359364"><ele>214.0</ele><time>2026-04-15T02:52:40Z</time></trkpt><trkpt lat="-27.834308699055825" lon="114.46503996922137"><ele>215.0</ele><time>2026-04-15T02:52:41Z</time></trkpt><trkpt lat="-27.834523262747556" lon="114.46514027674318"><ele>216.0</ele><time>2026-04-15T02:52:42Z</time></trkpt><trkpt lat="-27.834737087012137" lon="114.46524137061688"><ele>216.0</ele><time>2026-04-15T02:52:43Z</time></trkpt><trkpt lat="-27.834958606548874" lon="114.46534445760011"><ele>216.0</ele><time>2026-04-15T02:52:44Z</time></trkpt><trkpt lat="-27.83517977674335" lon="114.46544573765863"><ele>215.5</ele><time>2026-04-15T02:52:45Z</time></trkpt><trkpt lat="-27.835406308749263" lon="114.46554843165758"><ele>215.0</ele><time>2026-04-15T02:52:46Z</time></trkpt><trkpt lat="-27.835632818451025" lon="114.46564790241649"><ele>215.0</ele><time>2026-04-15T02:52:47Z</time></trkpt><trkpt lat="-27.835864744546516" lon="114.46574920082696"><ele>215.0</ele><time>2026-04-15T02:52:48Z</time></trkpt><trkpt lat="-27.836101314417334" lon="114.46585287059156"><ele>215.0</ele><time>2026-04-15T02:52:49Z</time></trkpt><trkpt lat="-27.836339838627605" lon="114.46595953337119"><ele>215.0</ele><time>2026-04-15T02:52:50Z</time></trkpt><trkpt lat="-27.83657515937151" lon="114.46606805748745"><ele>215.0</ele><time>2026-04-15T02:52:51Z</time></trkpt><trkpt lat="-27.836808840901117" lon="114.46617820854786"><ele>215.0</ele><time>2026-04-15T02:52:52Z</time></trkpt><trkpt lat="-27.83704353640005" lon="114.4662864014392"><ele>215.0</ele><time>2026-04-15T02:52:53Z</time></trkpt><trkpt lat="-27.837506298184554" lon="114.4664916283732"><ele>215.0</ele><time>2026-04-15T02:52:55Z</time></trkpt><trkpt lat="-27.83773522031811" lon="114.46659265732505"><ele>215.0</ele><time>2026-04-15T02:52:56Z</time></trkpt><trkpt lat="-27.837963596272754" lon="114.46669795611945"><ele>215.0</ele><time>2026-04-15T02:52:57Z</time></trkpt><trkpt lat="-27.83819016645549" lon="114.46680178448725"><ele>215.0</ele><time>2026-04-15T02:52:58Z</time></trkpt><trkpt lat="-27.838416392602884" lon="114.466903887818"><ele>215.5</ele><time>2026-04-15T02:52:59Z</time></trkpt><trkpt lat="-27.838641977542053" lon="114.46700517114002"><ele>216.0</ele><time>2026-04-15T02:53:00Z</time></trkpt><trkpt lat="-27.838868057172203" lon="114.46710912738912"><ele>215.5</ele><time>2026-04-15T02:53:01Z</time></trkpt><trkpt lat="-27.83909163189453" lon="114.46721472446129"><ele>215.0</ele><time>2026-04-15T02:53:02Z</time></trkpt><trkpt lat="-27.83931406205175" lon="114.46731848943439"><ele>215.0</ele><time>2026-04-15T02:53:03Z</time></trkpt><trkpt lat="-27.839539459109393" lon="114.46742254584282"><ele>215.0</ele><time>2026-04-15T02:53:04Z</time></trkpt><trkpt lat="-27.839769639728562" lon="114.46752360111849"><ele>215.0</ele><time>2026-04-15T02:53:05Z</time></trkpt><trkpt lat="-27.839999030087558" lon="114.46762546686732"><ele>215.0</ele><time>2026-04-15T02:53:06Z</time></trkpt><trkpt lat="-27.84023160270825" lon="114.4677291884496"><ele>216.0</ele><time>2026-04-15T02:53:07Z</time></trkpt><trkpt lat="-27.840460026941404" lon="114.4678330269247"><ele>217.0</ele><time>2026-04-15T02:53:08Z</time></trkpt><trkpt lat="-27.84069178063918" lon="114.4679386220683"><ele>217.5</ele><time>2026-04-15T02:53:09Z</time></trkpt><trkpt lat="-27.840924194651215" lon="114.46804448587528"><ele>218.0</ele><time>2026-04-15T02:53:10Z</time></trkpt><trkpt lat="-27.841157425152115" lon="114.4681481716912"><ele>218.5</ele><time>2026-04-15T02:53:11Z</time></trkpt><trkpt lat="-27.841390732227527" lon="114.46825138709835"><ele>219.0</ele><time>2026-04-15T02:53:12Z</time></trkpt><trkpt lat="-27.84162641639068" lon="114.4683612623515"><ele>219.0</ele><time>2026-04-15T02:53:13Z</time></trkpt><trkpt lat="-27.84186123563063" lon="114.46846965503649"><ele>219.0</ele><time>2026-04-15T02:53:14Z</time></trkpt><trkpt lat="-27.8420978392657" lon="114.4685765281393"><ele>219.0</ele><time>2026-04-15T02:53:15Z</time></trkpt><trkpt lat="-27.84232993630476" lon="114.46868045204016"><ele>219.0</ele><time>2026-04-15T02:53:16Z</time></trkpt><trkpt lat="-27.842559843697593" lon="114.4687852254865"><ele>219.5</ele><time>2026-04-15T02:53:17Z</time></trkpt><trkpt lat="-27.84278842955091" lon="114.46888930665315"><ele>220.0</ele><time>2026-04-15T02:53:18Z</time></trkpt><trkpt lat="-27.843008546741448" lon="114.46898743409605"><ele>220.0</ele><time>2026-04-15T02:53:19Z</time></trkpt><trkpt lat="-27.843230907103866" lon="114.46908898376311"><ele>220.0</ele><time>2026-04-15T02:53:20Z</time></trkpt><trkpt lat="-27.8434531851041" lon="114.46919517046908"><ele>219.5</ele><time>2026-04-15T02:53:21Z</time></trkpt><trkpt lat="-27.843673302916606" lon="114.46930720376552"><ele>219.0</ele><time>2026-04-15T02:53:22Z</time></trkpt><trkpt lat="-27.843890830967876" lon="114.46943246308824"><ele>219.0</ele><time>2026-04-15T02:53:23Z</time></trkpt><trkpt lat="-27.84410658841234" lon="114.46957189373697"><ele>219.0</ele><time>2026-04-15T02:53:24Z</time></trkpt><trkpt lat="-27.84431730943122" lon="114.46971596312413"><ele>219.5</ele><time>2026-04-15T02:53:25Z</time></trkpt><trkpt lat="-27.844526770783624" lon="114.46986536519509"><ele>220.0</ele><time>2026-04-15T02:53:26Z</time></trkpt><trkpt lat="-27.844730801184294" lon="114.47001846060243"><ele>220.0</ele><time>2026-04-15T02:53:27Z</time></trkpt><trkpt lat="-27.844931356997023" lon="114.4701815113486"><ele>220.0</ele><time>2026-04-15T02:53:28Z</time></trkpt><trkpt lat="-27.845128279502116" lon="114.47035116857607"><ele>220.0</ele><time>2026-04-15T02:53:29Z</time></trkpt><trkpt lat="-27.845320682226056" lon="114.47052540952645"><ele>220.0</ele><time>2026-04-15T02:53:30Z</time></trkpt><trkpt lat="-27.845509141614755" lon="114.47070646147912"><ele>220.0</ele><time>2026-04-15T02:53:31Z</time></trkpt><trkpt lat="-27.845693040822646" lon="114.47089943810435"><ele>220.0</ele><time>2026-04-15T02:53:32Z</time></trkpt><trkpt lat="-27.84587474984044" lon="114.4711023244594"><ele>221.0</ele><time>2026-04-15T02:53:33Z</time></trkpt><trkpt lat="-27.846051490410147" lon="114.4713144965805"><ele>222.0</ele><time>2026-04-15T02:53:34Z</time></trkpt><trkpt lat="-27.846218279041324" lon="114.47152880732105"><ele>222.0</ele><time>2026-04-15T02:53:35Z</time></trkpt><trkpt lat="-27.846380263919524" lon="114.4717440929775"><ele>222.0</ele><time>2026-04-15T02:53:36Z</time></trkpt><trkpt lat="-27.8465359995622" lon="114.47196441130528"><ele>222.0</ele><time>2026-04-15T02:53:37Z</time></trkpt><trkpt lat="-27.846689611777556" lon="114.47219140757274"><ele>222.0</ele><time>2026-04-15T02:53:38Z</time></trkpt><trkpt lat="-27.846839530633048" lon="114.47242481918506"><ele>222.0</ele><time>2026-04-15T02:53:39Z</time></trkpt><trkpt lat="-27.846989139078886" lon="114.47266262457352"><ele>222.0</ele><time>2026-04-15T02:53:39.999Z</time></trkpt><trkpt lat="-27.847143470609307" lon="114.4729024915717"><ele>222.0</ele><time>2026-04-15T02:53:40.999Z</time></trkpt><trkpt lat="-27.847304083545453" lon="114.47314392179227"><ele>222.0</ele><time>2026-04-15T02:53:41.999Z</time></trkpt><trkpt lat="-27.847463698869507" lon="114.47338909062924"><ele>222.0</ele><time>2026-04-15T02:53:42.999Z</time></trkpt><trkpt lat="-27.84761787777498" lon="114.47363540329292"><ele>222.0</ele><time>2026-04-15T02:53:43.999Z</time></trkpt><trkpt lat="-27.84777116184871" lon="114.47388027217646"><ele>222.5</ele><time>2026-04-15T02:53:44.999Z</time></trkpt><trkpt lat="-27.847925993480963" lon="114.47412331958472"><ele>223.0</ele><time>2026-04-15T02:53:45.999Z</time></trkpt><trkpt lat="-27.84808238863539" lon="114.47436409888495"><ele>223.0</ele><time>2026-04-15T02:53:46.999Z</time></trkpt><trkpt lat="-27.84824259871717" lon="114.47460454080719"><ele>223.0</ele><time>2026-04-15T02:53:47.999Z</time></trkpt><trkpt lat="-27.84840514285887" lon="114.4748487949824"><ele>224.0</ele><time>2026-04-15T02:53:48.999Z</time></trkpt><trkpt lat="-27.84856715145525" lon="114.47509587927868"><ele>225.0</ele><time>2026-04-15T02:53:49.999Z</time></trkpt><trkpt lat="-27.84872549069779" lon="114.47533879558833"><ele>224.0</ele><time>2026-04-15T02:53:50.999Z</time></trkpt><trkpt lat="-27.848883027808927" lon="114.47558193852123"><ele>223.0</ele><time>2026-04-15T02:53:51.999Z</time></trkpt><trkpt lat="-27.84903800988763" lon="114.47582282334726"><ele>223.0</ele><time>2026-04-15T02:53:52.999Z</time></trkpt><trkpt lat="-27.849192402330026" lon="114.47606677567607"><ele>223.0</ele><time>2026-04-15T02:53:54Z</time></trkpt><trkpt lat="-27.849347217350882" lon="114.47630822902678"><ele>223.5</ele><time>2026-04-15T02:53:55Z</time></trkpt><trkpt lat="-27.849504077419763" lon="114.47654768830242"><ele>224.0</ele><time>2026-04-15T02:53:56Z</time></trkpt><trkpt lat="-27.84966300260205" lon="114.4767845212859"><ele>224.0</ele><time>2026-04-15T02:53:57Z</time></trkpt><trkpt lat="-27.84981912821604" lon="114.47702355316562"><ele>224.0</ele><time>2026-04-15T02:53:58Z</time></trkpt><trkpt lat="-27.849973011703156" lon="114.47726593780098"><ele>224.5</ele><time>2026-04-15T02:53:59Z</time></trkpt><trkpt lat="-27.85012580376057" lon="114.47750570536367"><ele>225.0</ele><time>2026-04-15T02:54:00Z</time></trkpt><trkpt lat="-27.850279369149828" lon="114.47774462793258"><ele>224.5</ele><time>2026-04-15T02:54:01Z</time></trkpt><trkpt lat="-27.85043568322677" lon="114.47798440718672"><ele>224.0</ele><time>2026-04-15T02:54:02Z</time></trkpt><trkpt lat="-27.850591502522086" lon="114.47822086275146"><ele>224.0</ele><time>2026-04-15T02:54:03Z</time></trkpt><trkpt lat="-27.850749960882897" lon="114.4784594576722"><ele>224.0</ele><time>2026-04-15T02:54:04Z</time></trkpt><trkpt lat="-27.850906108790543" lon="114.47869861608285"><ele>225.0</ele><time>2026-04-15T02:54:05Z</time></trkpt><trkpt lat="-27.851061001862114" lon="114.4789412007572"><ele>226.0</ele><time>2026-04-15T02:54:06Z</time></trkpt><trkpt lat="-27.851214211351483" lon="114.47918556787894"><ele>226.0</ele><time>2026-04-15T02:54:07Z</time></trkpt><trkpt lat="-27.851366860781688" lon="114.47942625890623"><ele>226.0</ele><time>2026-04-15T02:54:08Z</time></trkpt><trkpt lat="-27.85152089064029" lon="114.47966493354524"><ele>225.5</ele><time>2026-04-15T02:54:09Z</time></trkpt><trkpt lat="-27.851679863130183" lon="114.47990064301884"><ele>225.0</ele><time>2026-04-15T02:54:10Z</time></trkpt><trkpt lat="-27.851841285096445" lon="114.48013147234109"><ele>225.0</ele><time>2026-04-15T02:54:11Z</time></trkpt><trkpt lat="-27.852006455615612" lon="114.48035983297318"><ele>225.0</ele><time>2026-04-15T02:54:12Z</time></trkpt><trkpt lat="-27.85217649447365" lon="114.4805827465351"><ele>225.0</ele><time>2026-04-15T02:54:13Z</time></trkpt><trkpt lat="-27.852351964996785" lon="114.48080844148852"><ele>225.0</ele><time>2026-04-15T02:54:14Z</time></trkpt><trkpt lat="-27.852531495791062" lon="114.4810325369852"><ele>224.5</ele><time>2026-04-15T02:54:15Z</time></trkpt><trkpt lat="-27.85271513970558" lon="114.48125101883846"><ele>224.0</ele><time>2026-04-15T02:54:16Z</time></trkpt><trkpt lat="-27.85307970626605" lon="114.48168731088914"><ele>224.0</ele><time>2026-04-15T02:54:18Z</time></trkpt><trkpt lat="-27.853259705469462" lon="114.48190447925425"><ele>224.0</ele><time>2026-04-15T02:54:19Z</time></trkpt><trkpt lat="-27.85343932159231" lon="114.48212245972535"><ele>224.5</ele><time>2026-04-15T02:54:20Z</time></trkpt><trkpt lat="-27.853617777726182" lon="114.48233902495028"><ele>225.0</ele><time>2026-04-15T02:54:21Z</time></trkpt><trkpt lat="-27.85379692539908" lon="114.48255825418263"><ele>225.0</ele><time>2026-04-15T02:54:22Z</time></trkpt><trkpt lat="-27.853971310243907" lon="114.48277481105197"><ele>225.0</ele><time>2026-04-15T02:54:23Z</time></trkpt><trkpt lat="-27.85414624932066" lon="114.48299070056201"><ele>226.0</ele><time>2026-04-15T02:54:24Z</time></trkpt><trkpt lat="-27.854320202719023" lon="114.48320097192837"><ele>227.0</ele><time>2026-04-15T02:54:25Z</time></trkpt><trkpt lat="-27.854496196873356" lon="114.48340891344428"><ele>227.0</ele><time>2026-04-15T02:54:26Z</time></trkpt><trkpt lat="-27.85466614792935" lon="114.48362139262879"><ele>227.0</ele><time>2026-04-15T02:54:27Z</time></trkpt><trkpt lat="-27.85482845851887" lon="114.48384217604573"><ele>227.0</ele><time>2026-04-15T02:54:28Z</time></trkpt><trkpt lat="-27.85498022515105" lon="114.48407093186435"><ele>227.0</ele><time>2026-04-15T02:54:29Z</time></trkpt><trkpt lat="-27.855125957116208" lon="114.48429705390612"><ele>227.0</ele><time>2026-04-15T02:54:30Z</time></trkpt><trkpt lat="-27.85527288723255" lon="114.48452558443681"><ele>227.0</ele><time>2026-04-15T02:54:31Z</time></trkpt><trkpt lat="-27.85541832516552" lon="114.48475421115144"><ele>227.0</ele><time>2026-04-15T02:54:32Z</time></trkpt><trkpt lat="-27.8555622418252" lon="114.48498295057922"><ele>227.0</ele><time>2026-04-15T02:54:33Z</time></trkpt><trkpt lat="-27.85570645269236" lon="114.4852093017383"><ele>227.0</ele><time>2026-04-15T02:54:34Z</time></trkpt><trkpt lat="-27.85585152843037" lon="114.48543476733597"><ele>227.0</ele><time>2026-04-15T02:54:35Z</time></trkpt><trkpt lat="-27.85599950183096" lon="114.48566248056419"><ele>227.0</ele><time>2026-04-15T02:54:36Z</time></trkpt><trkpt lat="-27.856149200374485" lon="114.48589458193534"><ele>227.0</ele><time>2026-04-15T02:54:37Z</time></trkpt><trkpt lat="-27.85629911884763" lon="114.48613057953338"><ele>227.0</ele><time>2026-04-15T02:54:38Z</time></trkpt><trkpt lat="-27.856452037806505" lon="114.48637081115004"><ele>227.0</ele><time>2026-04-15T02:54:39Z</time></trkpt><trkpt lat="-27.856604283900662" lon="114.4866092086405"><ele>228.0</ele><time>2026-04-15T02:54:40Z</time></trkpt><trkpt lat="-27.8569024757129" lon="114.48707227147635"><ele>228.0</ele><time>2026-04-15T02:54:42Z</time></trkpt><trkpt lat="-27.857051934421357" lon="114.48729934513001"><ele>228.0</ele><time>2026-04-15T02:54:43Z</time></trkpt><trkpt lat="-27.85720272283413" lon="114.48752894154735"><ele>228.0</ele><time>2026-04-15T02:54:44Z</time></trkpt><trkpt lat="-27.85734922964373" lon="114.48776352112397"><ele>228.0</ele><time>2026-04-15T02:54:45Z</time></trkpt><trkpt lat="-27.85749713833141" lon="114.4880020063399"><ele>228.0</ele><time>2026-04-15T02:54:46Z</time></trkpt><trkpt lat="-27.85764798529267" lon="114.48823979618466"><ele>228.0</ele><time>2026-04-15T02:54:47Z</time></trkpt><trkpt lat="-27.857802419445164" lon="114.48847981629358"><ele>228.0</ele><time>2026-04-15T02:54:48Z</time></trkpt><trkpt lat="-27.85795630610763" lon="114.48872094113449"><ele>228.0</ele><time>2026-04-15T02:54:49Z</time></trkpt><trkpt lat="-27.858112770019687" lon="114.48896379622573"><ele>228.5</ele><time>2026-04-15T02:54:50Z</time></trkpt><trkpt lat="-27.858271201260397" lon="114.48920761982579"><ele>229.0</ele><time>2026-04-15T02:54:51Z</time></trkpt><trkpt lat="-27.858430857805647" lon="114.48945563320983"><ele>228.5</ele><time>2026-04-15T02:54:52Z</time></trkpt><trkpt lat="-27.858594384287105" lon="114.4897106184256"><ele>228.0</ele><time>2026-04-15T02:54:53Z</time></trkpt><trkpt lat="-27.858758737650575" lon="114.48996921226573"><ele>228.0</ele><time>2026-04-15T02:54:54Z</time></trkpt><trkpt lat="-27.85892370804615" lon="114.49022217733732"><ele>228.0</ele><time>2026-04-15T02:54:55Z</time></trkpt><trkpt lat="-27.859090351869337" lon="114.49047894115012"><ele>228.0</ele><time>2026-04-15T02:54:56Z</time></trkpt><trkpt lat="-27.859255419005294" lon="114.49073202124765"><ele>228.0</ele><time>2026-04-15T02:54:57Z</time></trkpt><trkpt lat="-27.85941901805247" lon="114.49098501062805"><ele>228.0</ele><time>2026-04-15T02:54:58Z</time></trkpt><trkpt lat="-27.859579741864536" lon="114.49123266129568"><ele>228.0</ele><time>2026-04-15T02:54:59Z</time></trkpt><trkpt lat="-27.859740099962064" lon="114.4914824077458"><ele>228.5</ele><time>2026-04-15T02:55:00Z</time></trkpt><trkpt lat="-27.85990102971283" lon="114.49172890436175"><ele>229.0</ele><time>2026-04-15T02:55:01Z</time></trkpt><trkpt lat="-27.860059556830425" lon="114.49197711693175"><ele>229.5</ele><time>2026-04-15T02:55:02Z</time></trkpt><trkpt lat="-27.860216489785092" lon="114.49222490299489"><ele>230.0</ele><time>2026-04-15T02:55:03Z</time></trkpt><trkpt lat="-27.860374950047216" lon="114.49247484600576"><ele>230.0</ele><time>2026-04-15T02:55:04Z</time></trkpt><trkpt lat="-27.860534376764107" lon="114.49272534165735"><ele>230.0</ele><time>2026-04-15T02:55:05Z</time></trkpt><trkpt lat="-27.860694177772032" lon="114.49297300122807"><ele>230.0</ele><time>2026-04-15T02:55:06Z</time></trkpt><trkpt lat="-27.860853239214716" lon="114.49321928646367"><ele>230.0</ele><time>2026-04-15T02:55:07Z</time></trkpt><trkpt lat="-27.86101196596251" lon="114.4934651431676"><ele>230.0</ele><time>2026-04-15T02:55:08Z</time></trkpt><trkpt lat="-27.861170676200896" lon="114.49371077386819"><ele>230.0</ele><time>2026-04-15T02:55:09Z</time></trkpt><trkpt lat="-27.86133014281261" lon="114.49395876218266"><ele>230.0</ele><time>2026-04-15T02:55:10Z</time></trkpt><trkpt lat="-27.861494539766657" lon="114.49420974095179"><ele>230.0</ele><time>2026-04-15T02:55:11Z</time></trkpt><trkpt lat="-27.861658738983344" lon="114.49446047461262"><ele>230.5</ele><time>2026-04-15T02:55:12Z</time></trkpt><trkpt lat="-27.861822519173163" lon="114.49471287935788"><ele>231.0</ele><time>2026-04-15T02:55:13Z</time></trkpt><trkpt lat="-27.861985669664964" lon="114.49496721433788"><ele>231.0</ele><time>2026-04-15T02:55:14Z</time></trkpt><trkpt lat="-27.862148245143324" lon="114.49522387167453"><ele>231.0</ele><time>2026-04-15T02:55:15Z</time></trkpt><trkpt lat="-27.862310748596386" lon="114.4954818128047"><ele>230.5</ele><time>2026-04-15T02:55:16Z</time></trkpt><trkpt lat="-27.862473183308957" lon="114.49573682528182"><ele>230.0</ele><time>2026-04-15T02:55:17Z</time></trkpt><trkpt lat="-27.862637343360017" lon="114.49599539009637"><ele>230.5</ele><time>2026-04-15T02:55:18Z</time></trkpt><trkpt lat="-27.862801264942583" lon="114.49625323448785"><ele>231.0</ele><time>2026-04-15T02:55:19Z</time></trkpt><trkpt lat="-27.862967423582024" lon="114.49650967221214"><ele>231.0</ele><time>2026-04-15T02:55:20Z</time></trkpt><trkpt lat="-27.86313229498682" lon="114.4967647663808"><ele>231.0</ele><time>2026-04-15T02:55:21Z</time></trkpt><trkpt lat="-27.86329805629658" lon="114.49702180567333"><ele>232.0</ele><time>2026-04-15T02:55:22Z</time></trkpt><trkpt lat="-27.863464649306277" lon="114.4972753247066"><ele>233.0</ele><time>2026-04-15T02:55:23Z</time></trkpt><trkpt lat="-27.863629218646047" lon="114.49753095064234"><ele>233.0</ele><time>2026-04-15T02:55:24Z</time></trkpt><trkpt lat="-27.863791993299184" lon="114.49778828462489"><ele>233.0</ele><time>2026-04-15T02:55:25Z</time></trkpt><trkpt lat="-27.863952228403374" lon="114.49804222321085"><ele>232.0</ele><time>2026-04-15T02:55:26Z</time></trkpt><trkpt lat="-27.864113066440343" lon="114.4982934238619"><ele>231.0</ele><time>2026-04-15T02:55:27Z</time></trkpt><trkpt lat="-27.864274552518502" lon="114.4985436010775"><ele>231.5</ele><time>2026-04-15T02:55:28Z</time></trkpt><trkpt lat="-27.864435180573842" lon="114.49879340548375"><ele>232.0</ele><time>2026-04-15T02:55:29Z</time></trkpt><trkpt lat="-27.864595792649453" lon="114.49904127120507"><ele>232.0</ele><time>2026-04-15T02:55:30Z</time></trkpt><trkpt lat="-27.864753669579915" lon="114.49928866538762"><ele>232.0</ele><time>2026-04-15T02:55:31Z</time></trkpt><trkpt lat="-27.86491023043976" lon="114.49953246795705"><ele>232.0</ele><time>2026-04-15T02:55:32Z</time></trkpt><trkpt lat="-27.865065800880497" lon="114.49977806626877"><ele>232.0</ele><time>2026-04-15T02:55:33Z</time></trkpt><trkpt lat="-27.86522006421311" lon="114.50002063714899"><ele>232.5</ele><time>2026-04-15T02:55:34Z</time></trkpt><trkpt lat="-27.86537698445288" lon="114.5002611454502"><ele>233.0</ele><time>2026-04-15T02:55:35Z</time></trkpt><trkpt lat="-27.865532736808458" lon="114.50050041819634"><ele>233.0</ele><time>2026-04-15T02:55:36Z</time></trkpt><trkpt lat="-27.865689839564585" lon="114.50073935441277"><ele>233.0</ele><time>2026-04-15T02:55:37Z</time></trkpt><trkpt lat="-27.865846828955572" lon="114.50098152447677"><ele>233.0</ele><time>2026-04-15T02:55:38Z</time></trkpt><trkpt lat="-27.866001502398806" lon="114.50122315586238"><ele>233.0</ele><time>2026-04-15T02:55:39Z</time></trkpt><trkpt lat="-27.86615645722423" lon="114.50146231198907"><ele>233.0</ele><time>2026-04-15T02:55:40Z</time></trkpt><trkpt lat="-27.866311551135933" lon="114.50170476291109"><ele>233.0</ele><time>2026-04-15T02:55:41Z</time></trkpt><trkpt lat="-27.86646660913317" lon="114.50194208335448"><ele>233.5</ele><time>2026-04-15T02:55:42Z</time></trkpt><trkpt lat="-27.866621588082772" lon="114.50218296600549"><ele>234.0</ele><time>2026-04-15T02:55:43Z</time></trkpt><trkpt lat="-27.866774563680323" lon="114.50242731381047"><ele>234.0</ele><time>2026-04-15T02:55:44Z</time></trkpt><trkpt lat="-27.866927967764898" lon="114.50267478325242"><ele>234.0</ele><time>2026-04-15T02:55:45Z</time></trkpt><trkpt lat="-27.867086593423906" lon="114.50292376917189"><ele>234.5</ele><time>2026-04-15T02:55:45.999Z</time></trkpt><trkpt lat="-27.86724969244923" lon="114.50317295381714"><ele>235.0</ele><time>2026-04-15T02:55:46.999Z</time></trkpt><trkpt lat="-27.867412682845085" lon="114.50342118934425"><ele>235.0</ele><time>2026-04-15T02:55:47.999Z</time></trkpt><trkpt lat="-27.867577654527768" lon="114.50367224088767"><ele>235.0</ele><time>2026-04-15T02:55:48.999Z</time></trkpt><trkpt lat="-27.8677398198816" lon="114.50392331234916"><ele>235.0</ele><time>2026-04-15T02:55:49.999Z</time></trkpt><trkpt lat="-27.86790005719525" lon="114.5041749912453"><ele>235.0</ele><time>2026-04-15T02:55:50.999Z</time></trkpt><trkpt lat="-27.868061517983335" lon="114.50442710187326"><ele>235.5</ele><time>2026-04-15T02:55:51.999Z</time></trkpt><trkpt lat="-27.868220019571243" lon="114.5046776332694"><ele>236.0</ele><time>2026-04-15T02:55:52.999Z</time></trkpt><trkpt lat="-27.868378177072582" lon="114.50492539160334"><ele>236.0</ele><time>2026-04-15T02:55:53.999Z</time></trkpt><trkpt lat="-27.868537908479716" lon="114.5051746532282"><ele>236.0</ele><time>2026-04-15T02:55:54.999Z</time></trkpt><trkpt lat="-27.86869825447174" lon="114.50542456400899"><ele>236.0</ele><time>2026-04-15T02:55:55.999Z</time></trkpt><trkpt lat="-27.868860004789436" lon="114.5056771794759"><ele>236.0</ele><time>2026-04-15T02:55:56.999Z</time></trkpt><trkpt lat="-27.869022825738487" lon="114.50593067271429"><ele>236.0</ele><time>2026-04-15T02:55:57.999Z</time></trkpt><trkpt lat="-27.86918506042518" lon="114.50617988744787"><ele>236.0</ele><time>2026-04-15T02:55:58.999Z</time></trkpt><trkpt lat="-27.869347332520423" lon="114.50643110550507"><ele>236.5</ele><time>2026-04-15T02:55:59.999Z</time></trkpt><trkpt lat="-27.869510634627137" lon="114.5066793261156"><ele>237.0</ele><time>2026-04-15T02:56:00.999Z</time></trkpt><trkpt lat="-27.8696722223759" lon="114.5069304812115"><ele>237.0</ele><time>2026-04-15T02:56:01.999Z</time></trkpt><trkpt lat="-27.869831132753685" lon="114.50718352796115"><ele>237.0</ele><time>2026-04-15T02:56:02.999Z</time></trkpt><trkpt lat="-27.869989353449554" lon="114.50743647874567"><ele>237.0</ele><time>2026-04-15T02:56:03.999Z</time></trkpt><trkpt lat="-27.870150380906807" lon="114.50768656131584"><ele>237.0</ele><time>2026-04-15T02:56:04.999Z</time></trkpt><trkpt lat="-27.87031512312032" lon="114.5079401160318"><ele>237.5</ele><time>2026-04-15T02:56:05.999Z</time></trkpt><trkpt lat="-27.870479220482206" lon="114.50819346838882"><ele>238.0</ele><time>2026-04-15T02:56:06.999Z</time></trkpt><trkpt lat="-27.87064203750011" lon="114.50844932828323"><ele>238.0</ele><time>2026-04-15T02:56:07.999Z</time></trkpt><trkpt lat="-27.870801686897963" lon="114.50870231416643"><ele>238.0</ele><time>2026-04-15T02:56:08.999Z</time></trkpt><trkpt lat="-27.870963564425328" lon="114.50895462063542"><ele>238.0</ele><time>2026-04-15T02:56:09.999Z</time></trkpt><trkpt lat="-27.87112679846435" lon="114.50920614145366"><ele>238.0</ele><time>2026-04-15T02:56:10.999Z</time></trkpt><trkpt lat="-27.871290376914477" lon="114.50945845941153"><ele>238.5</ele><time>2026-04-15T02:56:11.999Z</time></trkpt><trkpt lat="-27.87145434883945" lon="114.50971384788564"><ele>239.0</ele><time>2026-04-15T02:56:12.999Z</time></trkpt><trkpt lat="-27.871617352731274" lon="114.5099698820494"><ele>240.0</ele><time>2026-04-15T02:56:13.999Z</time></trkpt><trkpt lat="-27.87178131650288" lon="114.51022511802664"><ele>241.0</ele><time>2026-04-15T02:56:14.999Z</time></trkpt><trkpt lat="-27.87194610029006" lon="114.51047888142679"><ele>241.0</ele><time>2026-04-15T02:56:15.999Z</time></trkpt><trkpt lat="-27.872111007049718" lon="114.51073518947514"><ele>241.0</ele><time>2026-04-15T02:56:16.999Z</time></trkpt><trkpt lat="-27.872274720509573" lon="114.51098935103498"><ele>240.5</ele><time>2026-04-15T02:56:17.999Z</time></trkpt><trkpt lat="-27.872437654531073" lon="114.51124257650972"><ele>240.0</ele><time>2026-04-15T02:56:18.999Z</time></trkpt><trkpt lat="-27.87260061770369" lon="114.51149560764456"><ele>239.5</ele><time>2026-04-15T02:56:19.999Z</time></trkpt><trkpt lat="-27.872765381887053" lon="114.51174799426488"><ele>239.0</ele><time>2026-04-15T02:56:20.999Z</time></trkpt><trkpt lat="-27.872930613040445" lon="114.5119988021154"><ele>239.0</ele><time>2026-04-15T02:56:21.999Z</time></trkpt><trkpt lat="-27.873095440523418" lon="114.51225149992166"><ele>239.0</ele><time>2026-04-15T02:56:22.999Z</time></trkpt><trkpt lat="-27.873260503782486" lon="114.51250443337464"><ele>239.0</ele><time>2026-04-15T02:56:23.999Z</time></trkpt><trkpt lat="-27.873426671409742" lon="114.51276101523142"><ele>239.0</ele><time>2026-04-15T02:56:25Z</time></trkpt><trkpt lat="-27.87359220674794" lon="114.51301830525995"><ele>239.0</ele><time>2026-04-15T02:56:26Z</time></trkpt><trkpt lat="-27.873758602488422" lon="114.51327725247563"><ele>239.0</ele><time>2026-04-15T02:56:27Z</time></trkpt><trkpt lat="-27.873925270325802" lon="114.51353765459605"><ele>239.0</ele><time>2026-04-15T02:56:28Z</time></trkpt><trkpt lat="-27.874092519817292" lon="114.51379658276271"><ele>239.0</ele><time>2026-04-15T02:56:29Z</time></trkpt><trkpt lat="-27.874260374399046" lon="114.51405520570594"><ele>239.5</ele><time>2026-04-15T02:56:30Z</time></trkpt><trkpt lat="-27.874429157357604" lon="114.51431538946368"><ele>240.0</ele><time>2026-04-15T02:56:31Z</time></trkpt><trkpt lat="-27.87459828227756" lon="114.51457544265044"><ele>240.0</ele><time>2026-04-15T02:56:32Z</time></trkpt><trkpt lat="-27.87476682313984" lon="114.51483471561234"><ele>240.0</ele><time>2026-04-15T02:56:33Z</time></trkpt><trkpt lat="-27.874935764831527" lon="114.51509668978227"><ele>240.0</ele><time>2026-04-15T02:56:34Z</time></trkpt><trkpt lat="-27.8751034518748" lon="114.51536136970644"><ele>240.0</ele><time>2026-04-15T02:56:35Z</time></trkpt><trkpt lat="-27.875270521032263" lon="114.51562889184541"><ele>239.5</ele><time>2026-04-15T02:56:36Z</time></trkpt><trkpt lat="-27.87543746280034" lon="114.51589425601898"><ele>239.0</ele><time>2026-04-15T02:56:37Z</time></trkpt><trkpt lat="-27.87561043233188" lon="114.51616599567498"><ele>239.0</ele><time>2026-04-15T02:56:38Z</time></trkpt><trkpt lat="-27.87578054620795" lon="114.51642909694822"><ele>239.0</ele><time>2026-04-15T02:56:39Z</time></trkpt><trkpt lat="-27.87595061477967" lon="114.51669125320515"><ele>239.0</ele><time>2026-04-15T02:56:40Z</time></trkpt><trkpt lat="-27.87612226009597" lon="114.5169540202076"><ele>239.0</ele><time>2026-04-15T02:56:41Z</time></trkpt><trkpt lat="-27.87629363940107" lon="114.51721359006764"><ele>240.0</ele><time>2026-04-15T02:56:42Z</time></trkpt><trkpt lat="-27.876464002030772" lon="114.51747588506475"><ele>241.0</ele><time>2026-04-15T02:56:43Z</time></trkpt><trkpt lat="-27.87663134455091" lon="114.51773407344116"><ele>241.0</ele><time>2026-04-15T02:56:44Z</time></trkpt><trkpt lat="-27.876797324738163" lon="114.5179957069326"><ele>241.0</ele><time>2026-04-15T02:56:45Z</time></trkpt><trkpt lat="-27.876963142525966" lon="114.5182542953427"><ele>241.0</ele><time>2026-04-15T02:56:46Z</time></trkpt><trkpt lat="-27.877129481873443" lon="114.51851183414686"><ele>241.0</ele><time>2026-04-15T02:56:47Z</time></trkpt><trkpt lat="-27.877293220676552" lon="114.5187663447346"><ele>240.5</ele><time>2026-04-15T02:56:48Z</time></trkpt><trkpt lat="-27.877455715559364" lon="114.51901906212822"><ele>240.0</ele><time>2026-04-15T02:56:49Z</time></trkpt><trkpt lat="-27.877616926560073" lon="114.5192675399801"><ele>240.0</ele><time>2026-04-15T02:56:50Z</time></trkpt><trkpt lat="-27.87777577573506" lon="114.5195165507925"><ele>240.0</ele><time>2026-04-15T02:56:51Z</time></trkpt><trkpt lat="-27.877935100966596" lon="114.51975874682441"><ele>239.5</ele><time>2026-04-15T02:56:52Z</time></trkpt><trkpt lat="-27.878091259001337" lon="114.5200008832793"><ele>239.0</ele><time>2026-04-15T02:56:53Z</time></trkpt><trkpt lat="-27.878246500651617" lon="114.52024148480297"><ele>239.5</ele><time>2026-04-15T02:56:54Z</time></trkpt><trkpt lat="-27.87840080853518" lon="114.52048637876555"><ele>240.0</ele><time>2026-04-15T02:56:55Z</time></trkpt><trkpt lat="-27.878556171132377" lon="114.52073110871868"><ele>240.0</ele><time>2026-04-15T02:56:56Z</time></trkpt><trkpt lat="-27.87871293796873" lon="114.52097905739748"><ele>240.0</ele><time>2026-04-15T02:56:57Z</time></trkpt><trkpt lat="-27.878871171301945" lon="114.5212267690884"><ele>240.5</ele><time>2026-04-15T02:56:58Z</time></trkpt><trkpt lat="-27.879031220258867" lon="114.52147829287497"><ele>241.0</ele><time>2026-04-15T02:56:59Z</time></trkpt><trkpt lat="-27.879192689143107" lon="114.52172965247834"><ele>241.0</ele><time>2026-04-15T02:57:00Z</time></trkpt><trkpt lat="-27.879355073777862" lon="114.52198011060536"><ele>241.0</ele><time>2026-04-15T02:57:01Z</time></trkpt><trkpt lat="-27.879518387383907" lon="114.52223156473282"><ele>241.0</ele><time>2026-04-15T02:57:02Z</time></trkpt><trkpt lat="-27.879684064460168" lon="114.52248286785932"><ele>241.0</ele><time>2026-04-15T02:57:03Z</time></trkpt><trkpt lat="-27.879850211149893" lon="114.52273664887434"><ele>241.0</ele><time>2026-04-15T02:57:04Z</time></trkpt><trkpt lat="-27.88001689570637" lon="114.52299417200798"><ele>241.0</ele><time>2026-04-15T02:57:05Z</time></trkpt><trkpt lat="-27.880184396042555" lon="114.52325029410174"><ele>241.0</ele><time>2026-04-15T02:57:06Z</time></trkpt><trkpt lat="-27.880349876370456" lon="114.52350974341056"><ele>241.0</ele><time>2026-04-15T02:57:07Z</time></trkpt><trkpt lat="-27.880513014157206" lon="114.52376714577665"><ele>241.0</ele><time>2026-04-15T02:57:08Z</time></trkpt><trkpt lat="-27.880674423863233" lon="114.52402570073654"><ele>241.0</ele><time>2026-04-15T02:57:09Z</time></trkpt><trkpt lat="-27.88083811478847" lon="114.52428036394817"><ele>241.0</ele><time>2026-04-15T02:57:10Z</time></trkpt><trkpt lat="-27.881004541195065" lon="114.52453575221192"><ele>241.0</ele><time>2026-04-15T02:57:11Z</time></trkpt><trkpt lat="-27.881173879452167" lon="114.5247939051575"><ele>241.5</ele><time>2026-04-15T02:57:12Z</time></trkpt><trkpt lat="-27.881344318135785" lon="114.525051584409"><ele>242.0</ele><time>2026-04-15T02:57:13Z</time></trkpt><trkpt lat="-27.881516868635742" lon="114.52531254846137"><ele>242.0</ele><time>2026-04-15T02:57:14Z</time></trkpt><trkpt lat="-27.881689520662576" lon="114.52557417649825"><ele>242.0</ele><time>2026-04-15T02:57:15Z</time></trkpt><trkpt lat="-27.881861666452732" lon="114.52583918122316"><ele>242.5</ele><time>2026-04-15T02:57:16Z</time></trkpt><trkpt lat="-27.88203315494848" lon="114.5261092683584"><ele>243.0</ele><time>2026-04-15T02:57:17Z</time></trkpt><trkpt lat="-27.88220218327431" lon="114.52637607990034"><ele>243.0</ele><time>2026-04-15T02:57:18Z</time></trkpt><trkpt lat="-27.88237101637625" lon="114.52664150715391"><ele>243.0</ele><time>2026-04-15T02:57:19Z</time></trkpt><trkpt lat="-27.882537067254948" lon="114.52690614811786"><ele>244.0</ele><time>2026-04-15T02:57:20Z</time></trkpt><trkpt lat="-27.882703553984122" lon="114.52716889668335"><ele>245.0</ele><time>2026-04-15T02:57:21Z</time></trkpt><trkpt lat="-27.882870202124074" lon="114.52742956799058"><ele>245.0</ele><time>2026-04-15T02:57:22Z</time></trkpt><trkpt lat="-27.883036618487125" lon="114.5276872620513"><ele>245.0</ele><time>2026-04-15T02:57:23Z</time></trkpt><trkpt lat="-27.883204558756212" lon="114.52794419076159"><ele>244.5</ele><time>2026-04-15T02:57:24Z</time></trkpt><trkpt lat="-27.88337096542927" lon="114.52820002260924"><ele>244.0</ele><time>2026-04-15T02:57:25Z</time></trkpt><trkpt lat="-27.883531239656122" lon="114.52845919091264"><ele>243.5</ele><time>2026-04-15T02:57:26Z</time></trkpt><trkpt lat="-27.883684564307178" lon="114.52872389512633"><ele>243.0</ele><time>2026-04-15T02:57:27Z</time></trkpt><trkpt lat="-27.883831909514683" lon="114.52899512200923"><ele>243.0</ele><time>2026-04-15T02:57:28Z</time></trkpt><trkpt lat="-27.883969982261686" lon="114.52927249221358"><ele>243.0</ele><time>2026-04-15T02:57:29Z</time></trkpt><trkpt lat="-27.88410190541782" lon="114.52955507951773"><ele>243.0</ele><time>2026-04-15T02:57:30Z</time></trkpt><trkpt lat="-27.88423066676248" lon="114.52984261568048"><ele>243.0</ele><time>2026-04-15T02:57:31Z</time></trkpt><trkpt lat="-27.88435627878421" lon="114.53012632183237"><ele>244.0</ele><time>2026-04-15T02:57:32Z</time></trkpt><trkpt lat="-27.88448187333974" lon="114.53040842610986"><ele>245.0</ele><time>2026-04-15T02:57:33Z</time></trkpt><trkpt lat="-27.884613269203452" lon="114.53069831561612"><ele>245.0</ele><time>2026-04-15T02:57:34Z</time></trkpt><trkpt lat="-27.884746470529283" lon="114.5309864852282"><ele>245.0</ele><time>2026-04-15T02:57:35Z</time></trkpt><trkpt lat="-27.884882768980546" lon="114.5312717832899"><ele>245.5</ele><time>2026-04-15T02:57:36Z</time></trkpt><trkpt lat="-27.885018663144287" lon="114.5315598461863"><ele>246.0</ele><time>2026-04-15T02:57:37Z</time></trkpt><trkpt lat="-27.885153110690883" lon="114.53185069228782"><ele>247.5</ele><time>2026-04-15T02:57:38Z</time></trkpt><trkpt lat="-27.885287697654732" lon="114.5321418016193"><ele>249.0</ele><time>2026-04-15T02:57:39Z</time></trkpt><trkpt lat="-27.8854195333197" lon="114.53243070584"><ele>249.0</ele><time>2026-04-15T02:57:40Z</time></trkpt><trkpt lat="-27.88554840861876" lon="114.5327205031884"><ele>249.0</ele><time>2026-04-15T02:57:41Z</time></trkpt><trkpt lat="-27.885676807476457" lon="114.53300958774584"><ele>249.0</ele><time>2026-04-15T02:57:42Z</time></trkpt><trkpt lat="-27.8858074999112" lon="114.5332972124697"><ele>249.0</ele><time>2026-04-15T02:57:43Z</time></trkpt><trkpt lat="-27.88593892005658" lon="114.53358231723567"><ele>249.0</ele><time>2026-04-15T02:57:44Z</time></trkpt><trkpt lat="-27.886071160859867" lon="114.53386739893945"><ele>249.0</ele><time>2026-04-15T02:57:45Z</time></trkpt><trkpt lat="-27.886204343290032" lon="114.53414840360493"><ele>249.0</ele><time>2026-04-15T02:57:46Z</time></trkpt><trkpt lat="-27.8863382469183" lon="114.5344321466238"><ele>249.0</ele><time>2026-04-15T02:57:47Z</time></trkpt><trkpt lat="-27.886469677702262" lon="114.53471648921668"><ele>249.5</ele><time>2026-04-15T02:57:48Z</time></trkpt><trkpt lat="-27.886601312331333" lon="114.53500239226302"><ele>250.0</ele><time>2026-04-15T02:57:49Z</time></trkpt><trkpt lat="-27.88673073784625" lon="114.53528922294862"><ele>250.5</ele><time>2026-04-15T02:57:50Z</time></trkpt><trkpt lat="-27.886861369366454" lon="114.53557319962307"><ele>251.0</ele><time>2026-04-15T02:57:51Z</time></trkpt><trkpt lat="-27.886993480860017" lon="114.53585906443246"><ele>251.0</ele><time>2026-04-15T02:57:51.999Z</time></trkpt><trkpt lat="-27.88712517520137" lon="114.5361464241846"><ele>251.0</ele><time>2026-04-15T02:57:52.999Z</time></trkpt><trkpt lat="-27.887255349856204" lon="114.5364359239299"><ele>251.0</ele><time>2026-04-15T02:57:53.999Z</time></trkpt><trkpt lat="-27.887386133307256" lon="114.53672783318522"><ele>251.0</ele><time>2026-04-15T02:57:54.999Z</time></trkpt><trkpt lat="-27.88751546323229" lon="114.53701676839053"><ele>251.0</ele><time>2026-04-15T02:57:55.999Z</time></trkpt><trkpt lat="-27.8876454518866" lon="114.53730657439937"><ele>251.0</ele><time>2026-04-15T02:57:56.999Z</time></trkpt><trkpt lat="-27.88777787637973" lon="114.53759492231718"><ele>251.0</ele><time>2026-04-15T02:57:57.999Z</time></trkpt><trkpt lat="-27.887911662875943" lon="114.53787971313756"><ele>251.0</ele><time>2026-04-15T02:57:58.999Z</time></trkpt><trkpt lat="-27.888045401246668" lon="114.53816405468349"><ele>253.0</ele><time>2026-04-15T02:57:59.999Z</time></trkpt><trkpt lat="-27.88817496404225" lon="114.53844761332518"><ele>255.0</ele><time>2026-04-15T02:58:00.999Z</time></trkpt><trkpt lat="-27.888301928950032" lon="114.53872756067516"><ele>255.0</ele><time>2026-04-15T02:58:01.999Z</time></trkpt><trkpt lat="-27.888427719082493" lon="114.53900746139057"><ele>255.0</ele><time>2026-04-15T02:58:02.999Z</time></trkpt><trkpt lat="-27.888552346189197" lon="114.53928444409588"><ele>254.5</ele><time>2026-04-15T02:58:03.999Z</time></trkpt><trkpt lat="-27.888676139651277" lon="114.53955981475141"><ele>254.0</ele><time>2026-04-15T02:58:04.999Z</time></trkpt><trkpt lat="-27.888800793813594" lon="114.53983556168875"><ele>254.0</ele><time>2026-04-15T02:58:05.999Z</time></trkpt><trkpt lat="-27.888926337735676" lon="114.5401096930608"><ele>254.0</ele><time>2026-04-15T02:58:06.999Z</time></trkpt><trkpt lat="-27.889053552896414" lon="114.5403800048334"><ele>253.0</ele><time>2026-04-15T02:58:07.999Z</time></trkpt><trkpt lat="-27.88917553032162" lon="114.54064825618808"><ele>252.0</ele><time>2026-04-15T02:58:08.999Z</time></trkpt><trkpt lat="-27.88929598255641" lon="114.54092253733059"><ele>252.0</ele><time>2026-04-15T02:58:09.999Z</time></trkpt><trkpt lat="-27.88941733908403" lon="114.5411938698564"><ele>252.0</ele><time>2026-04-15T02:58:10.999Z</time></trkpt><trkpt lat="-27.889541023486935" lon="114.54146429773397"><ele>252.0</ele><time>2026-04-15T02:58:11.999Z</time></trkpt><trkpt lat="-27.88966541049761" lon="114.54174155298819"><ele>252.0</ele><time>2026-04-15T02:58:12.999Z</time></trkpt><trkpt lat="-27.889791648828993" lon="114.54202044607001"><ele>251.5</ele><time>2026-04-15T02:58:13.999Z</time></trkpt><trkpt lat="-27.889917441163973" lon="114.54230021937659"><ele>251.0</ele><time>2026-04-15T02:58:14.999Z</time></trkpt><trkpt lat="-27.890038388886833" lon="114.54256425737871"><ele>251.5</ele><time>2026-04-15T02:58:15.999Z</time></trkpt><trkpt lat="-27.890150776861553" lon="114.54280732064723"><ele>252.0</ele><time>2026-04-15T02:58:16.999Z</time></trkpt><trkpt lat="-27.89025880655848" lon="114.54304169749703"><ele>252.5</ele><time>2026-04-15T02:58:17.999Z</time></trkpt><trkpt lat="-27.89036613723544" lon="114.54327723180953"><ele>253.0</ele><time>2026-04-15T02:58:18.999Z</time></trkpt><trkpt lat="-27.89047912637801" lon="114.543520982135"><ele>252.5</ele><time>2026-04-15T02:58:19.999Z</time></trkpt><trkpt lat="-27.890596284565127" lon="114.54376973925747"><ele>252.0</ele><time>2026-04-15T02:58:21Z</time></trkpt><trkpt lat="-27.890722297843666" lon="114.54402232133717"><ele>252.0</ele><time>2026-04-15T02:58:22Z</time></trkpt><trkpt lat="-27.890857796842266" lon="114.54427379216233"><ele>252.0</ele><time>2026-04-15T02:58:23Z</time></trkpt><trkpt lat="-27.891006152753434" lon="114.54452085040327"><ele>252.0</ele><time>2026-04-15T02:58:24Z</time></trkpt><trkpt lat="-27.891158726872927" lon="114.5447694139419"><ele>252.0</ele><time>2026-04-15T02:58:25Z</time></trkpt><trkpt lat="-27.89131195029885" lon="114.54501907431032"><ele>252.0</ele><time>2026-04-15T02:58:26Z</time></trkpt><trkpt lat="-27.89146489991648" lon="114.54526587529362"><ele>252.0</ele><time>2026-04-15T02:58:27Z</time></trkpt><trkpt lat="-27.8916189331241" lon="114.54551101733034"><ele>251.0</ele><time>2026-04-15T02:58:28Z</time></trkpt><trkpt lat="-27.891773350318616" lon="114.54575866370308"><ele>250.0</ele><time>2026-04-15T02:58:29Z</time></trkpt><trkpt lat="-27.891926955583248" lon="114.54601133005035"><ele>249.5</ele><time>2026-04-15T02:58:30Z</time></trkpt><trkpt lat="-27.892078434406866" lon="114.54626272006915"><ele>249.0</ele><time>2026-04-15T02:58:31Z</time></trkpt><trkpt lat="-27.892229859366452" lon="114.54651334054745"><ele>249.0</ele><time>2026-04-15T02:58:32Z</time></trkpt><trkpt lat="-27.892383832842654" lon="114.546764104171"><ele>249.0</ele><time>2026-04-15T02:58:33Z</time></trkpt><trkpt lat="-27.892538794720764" lon="114.54701541004805"><ele>250.0</ele><time>2026-04-15T02:58:34Z</time></trkpt><trkpt lat="-27.892691831499416" lon="114.54726541395192"><ele>251.0</ele><time>2026-04-15T02:58:35Z</time></trkpt><trkpt lat="-27.892843946483133" lon="114.5475170463644"><ele>251.0</ele><time>2026-04-15T02:58:36Z</time></trkpt><trkpt lat="-27.89299580788861" lon="114.5477630983898"><ele>251.0</ele><time>2026-04-15T02:58:37Z</time></trkpt><trkpt lat="-27.893145531198744" lon="114.54800343006602"><ele>251.5</ele><time>2026-04-15T02:58:38Z</time></trkpt><trkpt lat="-27.893295350597732" lon="114.5482447067065"><ele>252.0</ele><time>2026-04-15T02:58:39Z</time></trkpt><trkpt lat="-27.89344125026687" lon="114.54848023810331"><ele>251.5</ele><time>2026-04-15T02:58:40Z</time></trkpt><trkpt lat="-27.89358543064956" lon="114.54871309845056"><ele>251.0</ele><time>2026-04-15T02:58:41Z</time></trkpt><trkpt lat="-27.89372621715466" lon="114.54894218356444"><ele>251.0</ele><time>2026-04-15T02:58:42Z</time></trkpt><trkpt lat="-27.893866763557526" lon="114.54917024618175"><ele>251.0</ele><time>2026-04-15T02:58:43Z</time></trkpt><trkpt lat="-27.894008020144497" lon="114.54939980431148"><ele>250.0</ele><time>2026-04-15T02:58:44Z</time></trkpt><trkpt lat="-27.894147990895533" lon="114.5496315929301"><ele>249.0</ele><time>2026-04-15T02:58:45Z</time></trkpt><trkpt lat="-27.89429155076518" lon="114.54986785656205"><ele>249.0</ele><time>2026-04-15T02:58:46Z</time></trkpt><trkpt lat="-27.89443727358159" lon="114.55010682789607"><ele>249.0</ele><time>2026-04-15T02:58:47Z</time></trkpt><trkpt lat="-27.894580430819257" lon="114.55034136761833"><ele>248.0</ele><time>2026-04-15T02:58:48Z</time></trkpt><trkpt lat="-27.89472014067294" lon="114.55056983943562"><ele>247.0</ele><time>2026-04-15T02:58:49Z</time></trkpt><trkpt lat="-27.894855298338186" lon="114.55078938451811"><ele>247.0</ele><time>2026-04-15T02:58:50Z</time></trkpt><trkpt lat="-27.89498976794876" lon="114.5509997072961"><ele>247.0</ele><time>2026-04-15T02:58:51Z</time></trkpt><trkpt lat="-27.895123753115026" lon="114.5512052041391"><ele>246.33333333333331</ele><time>2026-04-15T02:58:52Z</time></trkpt><trkpt lat="-27.89524945209791" lon="114.5514110207228"><ele>245.66666666666669</ele><time>2026-04-15T02:58:53Z</time></trkpt><trkpt lat="-27.895371826435078" lon="114.55162003096041"><ele>245.0</ele><time>2026-04-15T02:58:54Z</time></trkpt><trkpt lat="-27.895499682551822" lon="114.55182794940899"><ele>245.0</ele><time>2026-04-15T02:58:55Z</time></trkpt><trkpt lat="-27.895623173208886" lon="114.55203100264416"><ele>245.0</ele><time>2026-04-15T02:58:56Z</time></trkpt><trkpt lat="-27.89574239761033" lon="114.5522321194498"><ele>245.0</ele><time>2026-04-15T02:58:57Z</time></trkpt><trkpt lat="-27.89586367991956" lon="114.55243305259462"><ele>244.5</ele><time>2026-04-15T02:58:58Z</time></trkpt><trkpt lat="-27.8959913587033" lon="114.55263947307908"><ele>244.0</ele><time>2026-04-15T02:58:59Z</time></trkpt><trkpt lat="-27.896122113953318" lon="114.55284932991187"><ele>243.66666666666666</ele><time>2026-04-15T02:59:00Z</time></trkpt><trkpt lat="-27.896247923438903" lon="114.55305727923408"><ele>243.33333333333331</ele><time>2026-04-15T02:59:01Z</time></trkpt><trkpt lat="-27.89636446389144" lon="114.55324860306176"><ele>243.0</ele><time>2026-04-15T02:59:02Z</time></trkpt><trkpt lat="-27.896477092865844" lon="114.55343141993151"><ele>243.0</ele><time>2026-04-15T02:59:03Z</time></trkpt><trkpt lat="-27.896584146930433" lon="114.55360684832263"><ele>243.0</ele><time>2026-04-15T02:59:04Z</time></trkpt><trkpt lat="-27.896687725778392" lon="114.55377515064444"><ele>243.0</ele><time>2026-04-15T02:59:05Z</time></trkpt><trkpt lat="-27.896781399320883" lon="114.55392606267822"><ele>242.2</ele><time>2026-04-15T02:59:06Z</time></trkpt><trkpt lat="-27.89685949800168" lon="114.554057129023"><ele>241.4</ele><time>2026-04-15T02:59:07Z</time></trkpt><trkpt lat="-27.89691890370135" lon="114.55415851816441"><ele>240.59999999999997</ele><time>2026-04-15T02:59:08Z</time></trkpt><trkpt lat="-27.896968012319544" lon="114.5542375510903"><ele>239.79999999999998</ele><time>2026-04-15T02:59:09Z</time></trkpt><trkpt lat="-27.897011572042462" lon="114.55430430906912"><ele>239.0</ele><time>2026-04-15T02:59:10Z</time></trkpt><trkpt lat="-27.89705531382248" lon="114.55436653806538"><ele>239.0</ele><time>2026-04-15T02:59:11Z</time></trkpt><trkpt lat="-27.897101503903805" lon="114.55443230845859"><ele>238.99999999999997</ele><time>2026-04-15T02:59:12Z</time></trkpt><trkpt lat="-27.897151694611303" lon="114.55451433262942"><ele>238.99999999999997</ele><time>2026-04-15T02:59:13Z</time></trkpt><trkpt lat="-27.897209962826334" lon="114.55461677123135"><ele>239.0</ele><time>2026-04-15T02:59:14Z</time></trkpt><trkpt lat="-27.89727771810854" lon="114.55473774544055"><ele>239.0</ele><time>2026-04-15T02:59:15Z</time></trkpt><trkpt lat="-27.897356680722176" lon="114.55487287571724"><ele>237.66666666666669</ele><time>2026-04-15T02:59:16Z</time></trkpt><trkpt lat="-27.89744733649729" lon="114.55501918092023"><ele>236.33333333333331</ele><time>2026-04-15T02:59:17Z</time></trkpt><trkpt lat="-27.89755101522702" lon="114.55517703744353"><ele>235.0</ele><time>2026-04-15T02:59:18Z</time></trkpt><trkpt lat="-27.897662898488065" lon="114.55535661030427"><ele>233.0</ele><time>2026-04-15T02:59:19Z</time></trkpt><trkpt lat="-27.897768807151024" lon="114.55553170144641"><ele>231.0</ele><time>2026-04-15T02:59:20Z</time></trkpt><trkpt lat="-27.897875834076533" lon="114.55570997692318"><ele>229.0</ele><time>2026-04-15T02:59:21Z</time></trkpt><trkpt lat="-27.897986290648614" lon="114.55589410063278"><ele>229.0</ele><time>2026-04-15T02:59:22Z</time></trkpt><trkpt lat="-27.898106045080855" lon="114.55608707353302"><ele>229.0</ele><time>2026-04-15T02:59:23Z</time></trkpt><trkpt lat="-27.898233442333055" lon="114.55628764288173"><ele>229.0</ele><time>2026-04-15T02:59:24Z</time></trkpt><trkpt lat="-27.898361077577484" lon="114.55649834641108"><ele>228.33333333333331</ele><time>2026-04-15T02:59:25Z</time></trkpt><trkpt lat="-27.89848077103647" lon="114.55669563568436"><ele>227.66666666666669</ele><time>2026-04-15T02:59:26Z</time></trkpt><trkpt lat="-27.898600933171114" lon="114.55689281914297"><ele>227.0</ele><time>2026-04-15T02:59:27Z</time></trkpt><trkpt lat="-27.898724169864593" lon="114.55709561546176"><ele>224.5</ele><time>2026-04-15T02:59:28Z</time></trkpt><trkpt lat="-27.89885155329614" lon="114.55730599107268"><ele>222.0</ele><time>2026-04-15T02:59:29Z</time></trkpt><trkpt lat="-27.898986315894504" lon="114.55752416103257"><ele>222.0</ele><time>2026-04-15T02:59:30Z</time></trkpt><trkpt lat="-27.8991243406787" lon="114.55774654282241"><ele>222.0</ele><time>2026-04-15T02:59:31Z</time></trkpt><trkpt lat="-27.899267772798467" lon="114.55797939142866"><ele>222.0</ele><time>2026-04-15T02:59:32Z</time></trkpt><trkpt lat="-27.89941044894138" lon="114.55821444243685"><ele>222.0</ele><time>2026-04-15T02:59:33Z</time></trkpt><trkpt lat="-27.899549002439468" lon="114.55844024780586"><ele>222.0</ele><time>2026-04-15T02:59:34Z</time></trkpt><trkpt lat="-27.89968410515513" lon="114.55865504524847"><ele>222.0</ele><time>2026-04-15T02:59:35Z</time></trkpt><trkpt lat="-27.899818862763496" lon="114.55887270715192"><ele>220.5</ele><time>2026-04-15T02:59:36Z</time></trkpt><trkpt lat="-27.89995320546293" lon="114.55909227135481"><ele>219.0</ele><time>2026-04-15T02:59:37Z</time></trkpt><trkpt lat="-27.900089160368413" lon="114.55931389294588"><ele>217.0</ele><time>2026-04-15T02:59:38Z</time></trkpt><trkpt lat="-27.900223533494547" lon="114.55953414713689"><ele>215.0</ele><time>2026-04-15T02:59:39Z</time></trkpt><trkpt lat="-27.900360763289033" lon="114.55975698989818"><ele>215.0</ele><time>2026-04-15T02:59:40Z</time></trkpt><trkpt lat="-27.90049889738942" lon="114.55997829438567"><ele>215.0</ele><time>2026-04-15T02:59:41Z</time></trkpt><trkpt lat="-27.90063578076272" lon="114.56019863093654"><ele>215.5</ele><time>2026-04-15T02:59:42Z</time></trkpt><trkpt lat="-27.90077379486451" lon="114.56042488365078"><ele>216.0</ele><time>2026-04-15T02:59:43Z</time></trkpt><trkpt lat="-27.90091654331353" lon="114.56066105725341"><ele>216.0</ele><time>2026-04-15T02:59:44Z</time></trkpt><trkpt lat="-27.90106078979305" lon="114.56089821435094"><ele>216.0</ele><time>2026-04-15T02:59:45Z</time></trkpt><trkpt lat="-27.901206001622214" lon="114.56113492622397"><ele>214.5</ele><time>2026-04-15T02:59:46Z</time></trkpt><trkpt lat="-27.90134986014102" lon="114.56136825433428"><ele>213.0</ele><time>2026-04-15T02:59:47Z</time></trkpt><trkpt lat="-27.901496331821033" lon="114.56160268446138"><ele>213.0</ele><time>2026-04-15T02:59:48Z</time></trkpt><trkpt lat="-27.901639865178883" lon="114.56183301893691"><ele>213.0</ele><time>2026-04-15T02:59:49Z</time></trkpt><trkpt lat="-27.901785067976924" lon="114.56207013884884"><ele>212.5</ele><time>2026-04-15T02:59:50Z</time></trkpt><trkpt lat="-27.901925174629728" lon="114.56229835702618"><ele>212.0</ele><time>2026-04-15T02:59:51Z</time></trkpt><trkpt lat="-27.902064543337886" lon="114.56252733320419"><ele>212.0</ele><time>2026-04-15T02:59:52Z</time></trkpt><trkpt lat="-27.90220361307642" lon="114.56275218164035"><ele>212.0</ele><time>2026-04-15T02:59:53Z</time></trkpt><trkpt lat="-27.90234116143907" lon="114.56297371265393"><ele>210.5</ele><time>2026-04-15T02:59:54Z</time></trkpt><trkpt lat="-27.902478250208564" lon="114.56319515350901"><ele>209.0</ele><time>2026-04-15T02:59:55Z</time></trkpt><trkpt lat="-27.902611906413807" lon="114.563411992068"><ele>209.0</ele><time>2026-04-15T02:59:56Z</time></trkpt><trkpt lat="-27.902743094498902" lon="114.56362486045059"><ele>209.0</ele><time>2026-04-15T02:59:57Z</time></trkpt><trkpt lat="-27.902876595295343" lon="114.56383871975956"><ele>209.66666666666669</ele><time>2026-04-15T02:59:58Z</time></trkpt><trkpt lat="-27.903013466730826" lon="114.56404052444105"><ele>210.33333333333331</ele><time>2026-04-15T02:59:59Z</time></trkpt><trkpt lat="-27.9031550282059" lon="114.56423709674907"><ele>211.0</ele><time>2026-04-15T03:00:00Z</time></trkpt><trkpt lat="-27.903303954569918" lon="114.56443590469459"><ele>211.0</ele><time>2026-04-15T03:00:01Z</time></trkpt><trkpt lat="-27.90345509034535" lon="114.56462829229629"><ele>211.0</ele><time>2026-04-15T03:00:02Z</time></trkpt><trkpt lat="-27.9036087109194" lon="114.56482042226119"><ele>211.0</ele><time>2026-04-15T03:00:03Z</time></trkpt><trkpt lat="-27.90376867268751" lon="114.56500910644661"><ele>211.0</ele><time>2026-04-15T03:00:04Z</time></trkpt><trkpt lat="-27.903936080213036" lon="114.56519425546846"><ele>211.5</ele><time>2026-04-15T03:00:05Z</time></trkpt><trkpt lat="-27.904108340567" lon="114.56537769883377"><ele>212.0</ele><time>2026-04-15T03:00:06Z</time></trkpt><trkpt lat="-27.90428435337408" lon="114.5655596261502"><ele>212.0</ele><time>2026-04-15T03:00:07Z</time></trkpt><trkpt lat="-27.904458094191494" lon="114.56574284831362"><ele>212.0</ele><time>2026-04-15T03:00:08Z</time></trkpt><trkpt lat="-27.90462992019373" lon="114.56592548436595"><ele>212.0</ele><time>2026-04-15T03:00:09Z</time></trkpt><trkpt lat="-27.904799380987527" lon="114.5661153800236"><ele>212.0</ele><time>2026-04-15T03:00:10Z</time></trkpt><trkpt lat="-27.904968735472686" lon="114.56630244923957"><ele>213.5</ele><time>2026-04-15T03:00:11Z</time></trkpt><trkpt lat="-27.905141398408837" lon="114.56649658248253"><ele>215.0</ele><time>2026-04-15T03:00:12Z</time></trkpt><trkpt lat="-27.905316668133374" lon="114.56669792615119"><ele>215.0</ele><time>2026-04-15T03:00:13Z</time></trkpt><trkpt lat="-27.905488095149035" lon="114.56690712012902"><ele>215.0</ele><time>2026-04-15T03:00:14Z</time></trkpt><trkpt lat="-27.905653316731758" lon="114.56711855384877"><ele>214.5</ele><time>2026-04-15T03:00:15Z</time></trkpt><trkpt lat="-27.905815348819026" lon="114.56733179099453"><ele>214.0</ele><time>2026-04-15T03:00:16Z</time></trkpt><trkpt lat="-27.90597202983315" lon="114.56754874881757"><ele>213.0</ele><time>2026-04-15T03:00:17Z</time></trkpt><trkpt lat="-27.906123095660053" lon="114.56776645751972"><ele>212.0</ele><time>2026-04-15T03:00:18Z</time></trkpt><trkpt lat="-27.906271796507728" lon="114.56798765380557"><ele>211.0</ele><time>2026-04-15T03:00:19Z</time></trkpt><trkpt lat="-27.90641727580614" lon="114.56820800930934"><ele>210.0</ele><time>2026-04-15T03:00:20Z</time></trkpt><trkpt lat="-27.90656455611751" lon="114.56843007444762"><ele>210.0</ele><time>2026-04-15T03:00:21Z</time></trkpt><trkpt lat="-27.906711423051853" lon="114.56864175698831"><ele>210.0</ele><time>2026-04-15T03:00:22Z</time></trkpt><trkpt lat="-27.906862472872916" lon="114.56886173066533"><ele>208.5</ele><time>2026-04-15T03:00:23Z</time></trkpt><trkpt lat="-27.907012850954132" lon="114.5690792065475"><ele>207.0</ele><time>2026-04-15T03:00:24Z</time></trkpt><trkpt lat="-27.907163067262537" lon="114.56929943614841"><ele>207.0</ele><time>2026-04-15T03:00:25Z</time></trkpt><trkpt lat="-27.90731018495436" lon="114.56951742508902"><ele>207.0</ele><time>2026-04-15T03:00:26Z</time></trkpt><trkpt lat="-27.907453923728834" lon="114.56973582219544"><ele>206.5</ele><time>2026-04-15T03:00:27Z</time></trkpt><trkpt lat="-27.907599807437734" lon="114.56995314169598"><ele>206.0</ele><time>2026-04-15T03:00:28Z</time></trkpt><trkpt lat="-27.90775413205836" lon="114.57017659991266"><ele>204.5</ele><time>2026-04-15T03:00:29Z</time></trkpt><trkpt lat="-27.907913446281295" lon="114.57040678470253"><ele>203.0</ele><time>2026-04-15T03:00:30Z</time></trkpt><trkpt lat="-27.908077209458458" lon="114.5706455388398"><ele>203.0</ele><time>2026-04-15T03:00:31Z</time></trkpt><trkpt lat="-27.908237961726346" lon="114.57087981718124"><ele>203.0</ele><time>2026-04-15T03:00:32Z</time></trkpt><trkpt lat="-27.90839634464538" lon="114.57111042301234"><ele>202.5</ele><time>2026-04-15T03:00:33Z</time></trkpt><trkpt lat="-27.90855524019443" lon="114.57133896082021"><ele>202.0</ele><time>2026-04-15T03:00:34Z</time></trkpt><trkpt lat="-27.908713102177753" lon="114.57156765245823"><ele>202.0</ele><time>2026-04-15T03:00:35Z</time></trkpt><trkpt lat="-27.908870430737615" lon="114.57179917788314"><ele>202.0</ele><time>2026-04-15T03:00:36Z</time></trkpt><trkpt lat="-27.909025111650255" lon="114.5720270789231"><ele>202.5</ele><time>2026-04-15T03:00:37Z</time></trkpt><trkpt lat="-27.909176941885242" lon="114.57225228179361"><ele>203.0</ele><time>2026-04-15T03:00:38Z</time></trkpt><trkpt lat="-27.90933123464252" lon="114.57248134220383"><ele>204.5</ele><time>2026-04-15T03:00:39Z</time></trkpt><trkpt lat="-27.90948919426813" lon="114.57271419637455"><ele>206.0</ele><time>2026-04-15T03:00:40Z</time></trkpt><trkpt lat="-27.909652971947153" lon="114.57295606127235"><ele>207.0</ele><time>2026-04-15T03:00:41Z</time></trkpt><trkpt lat="-27.909821967456974" lon="114.57320198712917"><ele>208.0</ele><time>2026-04-15T03:00:42Z</time></trkpt><trkpt lat="-27.909991388399956" lon="114.57344860187129"><ele>211.5</ele><time>2026-04-15T03:00:43Z</time></trkpt><trkpt lat="-27.910156106420576" lon="114.57368922317235"><ele>215.0</ele><time>2026-04-15T03:00:44Z</time></trkpt><trkpt lat="-27.910320233234916" lon="114.57392751002413"><ele>215.0</ele><time>2026-04-15T03:00:45Z</time></trkpt><trkpt lat="-27.910479108621637" lon="114.57416360591658"><ele>215.0</ele><time>2026-04-15T03:00:46Z</time></trkpt><trkpt lat="-27.91063863616951" lon="114.57439624058136"><ele>214.5</ele><time>2026-04-15T03:00:47Z</time></trkpt><trkpt lat="-27.91079913400698" lon="114.57462841969227"><ele>214.0</ele><time>2026-04-15T03:00:48Z</time></trkpt><trkpt lat="-27.910958133172333" lon="114.57485849300434"><ele>217.0</ele><time>2026-04-15T03:00:49Z</time></trkpt><trkpt lat="-27.91111992081111" lon="114.5750955731227"><ele>220.0</ele><time>2026-04-15T03:00:50Z</time></trkpt><trkpt lat="-27.911280431879092" lon="114.57533339428932"><ele>219.0</ele><time>2026-04-15T03:00:51Z</time></trkpt><trkpt lat="-27.911444320407536" lon="114.57557214122052"><ele>218.0</ele><time>2026-04-15T03:00:52Z</time></trkpt><trkpt lat="-27.911607471132616" lon="114.57580665404988"><ele>218.0</ele><time>2026-04-15T03:00:53Z</time></trkpt><trkpt lat="-27.911768154394814" lon="114.57604116902401"><ele>218.0</ele><time>2026-04-15T03:00:54Z</time></trkpt><trkpt lat="-27.911926501159375" lon="114.57627570453943"><ele>218.0</ele><time>2026-04-15T03:00:55Z</time></trkpt><trkpt lat="-27.91208317530142" lon="114.57650608069873"><ele>218.0</ele><time>2026-04-15T03:00:56Z</time></trkpt><trkpt lat="-27.912241115663974" lon="114.57673770091864"><ele>218.0</ele><time>2026-04-15T03:00:57Z</time></trkpt><trkpt lat="-27.91239514733846" lon="114.57696158792237"><ele>218.0</ele><time>2026-04-15T03:00:58Z</time></trkpt><trkpt lat="-27.912547626094206" lon="114.57718813713154"><ele>220.0</ele><time>2026-04-15T03:00:59Z</time></trkpt><trkpt lat="-27.912698890530578" lon="114.57741331342869"><ele>222.0</ele><time>2026-04-15T03:01:00Z</time></trkpt><trkpt lat="-27.912852746736043" lon="114.57764187529527"><ele>223.0</ele><time>2026-04-15T03:01:01Z</time></trkpt><trkpt lat="-27.91300598842717" lon="114.5778674628847"><ele>224.0</ele><time>2026-04-15T03:01:02Z</time></trkpt><trkpt lat="-27.913161151042143" lon="114.57809309082168"><ele>224.0</ele><time>2026-04-15T03:01:03Z</time></trkpt><trkpt lat="-27.913319307575247" lon="114.57831984185555"><ele>224.0</ele><time>2026-04-15T03:01:04Z</time></trkpt><trkpt lat="-27.913477272366798" lon="114.5785494772718"><ele>226.0</ele><time>2026-04-15T03:01:05Z</time></trkpt><trkpt lat="-27.913636341564455" lon="114.57878366337192"><ele>228.0</ele><time>2026-04-15T03:01:06Z</time></trkpt><trkpt lat="-27.913790755219896" lon="114.57901583362667"><ele>228.0</ele><time>2026-04-15T03:01:07Z</time></trkpt><trkpt lat="-27.913946786011234" lon="114.57924862598696"><ele>228.0</ele><time>2026-04-15T03:01:08Z</time></trkpt><trkpt lat="-27.91410452178519" lon="114.57948349011862"><ele>229.5</ele><time>2026-04-15T03:01:09Z</time></trkpt><trkpt lat="-27.914262360657467" lon="114.57971271365449"><ele>231.0</ele><time>2026-04-15T03:01:10Z</time></trkpt><trkpt lat="-27.91442062243187" lon="114.57994309338056"><ele>231.0</ele><time>2026-04-15T03:01:11Z</time></trkpt><trkpt lat="-27.914579426559666" lon="114.58017189421327"><ele>231.0</ele><time>2026-04-15T03:01:12Z</time></trkpt><trkpt lat="-27.914735197291" lon="114.58039361583907"><ele>231.5</ele><time>2026-04-15T03:01:13Z</time></trkpt><trkpt lat="-27.914882713290897" lon="114.58061172864171"><ele>232.0</ele><time>2026-04-15T03:01:14Z</time></trkpt><trkpt lat="-27.915033035542297" lon="114.58083409279855"><ele>234.0</ele><time>2026-04-15T03:01:15Z</time></trkpt><trkpt lat="-27.915184843090117" lon="114.58105815266754"><ele>236.0</ele><time>2026-04-15T03:01:16Z</time></trkpt><trkpt lat="-27.915335965121503" lon="114.58127995872618"><ele>237.0</ele><time>2026-04-15T03:01:17Z</time></trkpt><trkpt lat="-27.915489434955877" lon="114.58149991596562"><ele>238.0</ele><time>2026-04-15T03:01:18Z</time></trkpt><trkpt lat="-27.915640219508127" lon="114.58171860190336"><ele>238.0</ele><time>2026-04-15T03:01:19Z</time></trkpt><trkpt lat="-27.915783956581155" lon="114.58192752937973"><ele>238.0</ele><time>2026-04-15T03:01:20Z</time></trkpt><trkpt lat="-27.91592449435167" lon="114.58212975811927"><ele>238.5</ele><time>2026-04-15T03:01:21Z</time></trkpt><trkpt lat="-27.916066203393864" lon="114.58233636726501"><ele>239.0</ele><time>2026-04-15T03:01:22Z</time></trkpt><trkpt lat="-27.916205426117582" lon="114.5825456930467"><ele>239.0</ele><time>2026-04-15T03:01:23Z</time></trkpt><trkpt lat="-27.91633947646488" lon="114.58274974682968"><ele>239.0</ele><time>2026-04-15T03:01:24Z</time></trkpt><trkpt lat="-27.916469428704744" lon="114.58295783102598"><ele>238.0</ele><time>2026-04-15T03:01:25Z</time></trkpt><trkpt lat="-27.9165912392355" lon="114.58316648474235"><ele>237.0</ele><time>2026-04-15T03:01:26Z</time></trkpt><trkpt lat="-27.9167034024632" lon="114.5833756782509"><ele>236.0</ele><time>2026-04-15T03:01:27Z</time></trkpt><trkpt lat="-27.916810036986632" lon="114.58358321124201"><ele>235.0</ele><time>2026-04-15T03:01:28Z</time></trkpt><trkpt lat="-27.916906205560604" lon="114.58377963900654"><ele>234.0</ele><time>2026-04-15T03:01:29Z</time></trkpt><trkpt lat="-27.916999338345654" lon="114.58397363112597"><ele>233.0</ele><time>2026-04-15T03:01:30Z</time></trkpt><trkpt lat="-27.917086955478247" lon="114.58416232449584"><ele>233.0</ele><time>2026-04-15T03:01:31Z</time></trkpt><trkpt lat="-27.917165359237618" lon="114.584348414099"><ele>233.0</ele><time>2026-04-15T03:01:32Z</time></trkpt><trkpt lat="-27.917239451229047" lon="114.58454178642977"><ele>233.0</ele><time>2026-04-15T03:01:33Z</time></trkpt><trkpt lat="-27.917309994189072" lon="114.58473175189779"><ele>231.0</ele><time>2026-04-15T03:01:34Z</time></trkpt><trkpt lat="-27.917379613068515" lon="114.58491604725741"><ele>229.0</ele><time>2026-04-15T03:01:35Z</time></trkpt><trkpt lat="-27.917443705218748" lon="114.58508901774195"><ele>227.0</ele><time>2026-04-15T03:01:36Z</time></trkpt><trkpt lat="-27.917504837796074" lon="114.58524623035274"><ele>225.75</ele><time>2026-04-15T03:01:37Z</time></trkpt><trkpt lat="-27.917561208778487" lon="114.58539154827204"><ele>224.5</ele><time>2026-04-15T03:01:38Z</time></trkpt><trkpt lat="-27.917620337620185" lon="114.58553565558391"><ele>223.25</ele><time>2026-04-15T03:01:39Z</time></trkpt><trkpt lat="-27.91768136272285" lon="114.58568487681971"><ele>222.0</ele><time>2026-04-15T03:01:40Z</time></trkpt><trkpt lat="-27.917744523545124" lon="114.58584642132428"><ele>221.66666666666669</ele><time>2026-04-15T03:01:41Z</time></trkpt><trkpt lat="-27.91780833398837" lon="114.58601477938355"><ele>221.33333333333334</ele><time>2026-04-15T03:01:42Z</time></trkpt><trkpt lat="-27.917876814332992" lon="114.5861893119266"><ele>221.0</ele><time>2026-04-15T03:01:43Z</time></trkpt><trkpt lat="-27.91794508437471" lon="114.58636253586273"><ele>220.0</ele><time>2026-04-15T03:01:44Z</time></trkpt><trkpt lat="-27.918015222008197" lon="114.58653512233872"><ele>219.0</ele><time>2026-04-15T03:01:45Z</time></trkpt><trkpt lat="-27.918085099898757" lon="114.5867114505062"><ele>218.0</ele><time>2026-04-15T03:01:46Z</time></trkpt><trkpt lat="-27.918152909229317" lon="114.58688655593939"><ele>216.33333333333334</ele><time>2026-04-15T03:01:47Z</time></trkpt><trkpt lat="-27.918218006175795" lon="114.58706715087548"><ele>214.66666666666669</ele><time>2026-04-15T03:01:48Z</time></trkpt><trkpt lat="-27.918286584820255" lon="114.5872583227578"><ele>213.0</ele><time>2026-04-15T03:01:49Z</time></trkpt><trkpt lat="-27.918358914729914" lon="114.58744661360699"><ele>213.0</ele><time>2026-04-15T03:01:50Z</time></trkpt><trkpt lat="-27.918437776573136" lon="114.58765288561395"><ele>213.0</ele><time>2026-04-15T03:01:51Z</time></trkpt><trkpt lat="-27.91851985158316" lon="114.58786387820624"><ele>213.0</ele><time>2026-04-15T03:01:52Z</time></trkpt><trkpt lat="-27.91860525190317" lon="114.58808780663794"><ele>213.0</ele><time>2026-04-15T03:01:53Z</time></trkpt><trkpt lat="-27.918693457055937" lon="114.5883156809942"><ele>213.0</ele><time>2026-04-15T03:01:54Z</time></trkpt><trkpt lat="-27.91878385724027" lon="114.58854379718994"><ele>213.0</ele><time>2026-04-15T03:01:55Z</time></trkpt><trkpt lat="-27.918875232493093" lon="114.58876981277506"><ele>212.33333333333331</ele><time>2026-04-15T03:01:56Z</time></trkpt><trkpt lat="-27.918967690140082" lon="114.58899887476153"><ele>211.66666666666666</ele><time>2026-04-15T03:01:57Z</time></trkpt><trkpt lat="-27.919059378042164" lon="114.58922414703973"><ele>211.0</ele><time>2026-04-15T03:01:58Z</time></trkpt><trkpt lat="-27.919149367039473" lon="114.58944640826645"><ele>211.0</ele><time>2026-04-15T03:01:59Z</time></trkpt><trkpt lat="-27.9192364657678" lon="114.58966970272884"><ele>211.0</ele><time>2026-04-15T03:02:00Z</time></trkpt><trkpt lat="-27.919327741172243" lon="114.58988907713997"><ele>211.0</ele><time>2026-04-15T03:02:01Z</time></trkpt><trkpt lat="-27.919425486644872" lon="114.59009821145588"><ele>211.0</ele><time>2026-04-15T03:02:02Z</time></trkpt><trkpt lat="-27.91953190802056" lon="114.59030244500764"><ele>211.0</ele><time>2026-04-15T03:02:03Z</time></trkpt><trkpt lat="-27.91963772628673" lon="114.59049860555065"><ele>211.0</ele><time>2026-04-15T03:02:03.999Z</time></trkpt><trkpt lat="-27.91974451936302" lon="114.59069293331726"><ele>210.0</ele><time>2026-04-15T03:02:04.999Z</time></trkpt><trkpt lat="-27.91985363640326" lon="114.5908792894133"><ele>209.0</ele><time>2026-04-15T03:02:05.999Z</time></trkpt><trkpt lat="-27.919966213770294" lon="114.5910608268982"><ele>208.0</ele><time>2026-04-15T03:02:06.999Z</time></trkpt><trkpt lat="-27.92008051067798" lon="114.59123829228079"><ele>207.66666666666666</ele><time>2026-04-15T03:02:07.999Z</time></trkpt><trkpt lat="-27.920197591002555" lon="114.59140948932118"><ele>207.33333333333331</ele><time>2026-04-15T03:02:08.999Z</time></trkpt><trkpt lat="-27.92031848081715" lon="114.59157514589076"><ele>207.0</ele><time>2026-04-15T03:02:09.999Z</time></trkpt><trkpt lat="-27.92044012032348" lon="114.5917397681667"><ele>207.0</ele><time>2026-04-15T03:02:10.999Z</time></trkpt><trkpt lat="-27.920566817430096" lon="114.59190028607489"><ele>207.0</ele><time>2026-04-15T03:02:11.999Z</time></trkpt><trkpt lat="-27.920697753611723" lon="114.59205856037643"><ele>207.0</ele><time>2026-04-15T03:02:12.999Z</time></trkpt><trkpt lat="-27.92082867439246" lon="114.59221303679115"><ele>207.0</ele><time>2026-04-15T03:02:13.999Z</time></trkpt><trkpt lat="-27.920955550832097" lon="114.59235452419775"><ele>207.0</ele><time>2026-04-15T03:02:14.999Z</time></trkpt><trkpt lat="-27.921079505956182" lon="114.59248524148575"><ele>207.0</ele><time>2026-04-15T03:02:15.999Z</time></trkpt><trkpt lat="-27.92120220204003" lon="114.59260863648167"><ele>207.0</ele><time>2026-04-15T03:02:16.999Z</time></trkpt><trkpt lat="-27.92132180239124" lon="114.59272480988274"><ele>207.0</ele><time>2026-04-15T03:02:17.999Z</time></trkpt><trkpt lat="-27.92143276789366" lon="114.59283188466601"><ele>207.0</ele><time>2026-04-15T03:02:18.999Z</time></trkpt><trkpt lat="-27.92154036112254" lon="114.59293228872306"><ele>207.0</ele><time>2026-04-15T03:02:19.999Z</time></trkpt><trkpt lat="-27.921641670481044" lon="114.59301892849915"><ele>206.8</ele><time>2026-04-15T03:02:20.999Z</time></trkpt><trkpt lat="-27.921732365500755" lon="114.5930954333911"><ele>206.6</ele><time>2026-04-15T03:02:21.999Z</time></trkpt><trkpt lat="-27.9218157777797" lon="114.59316705679606"><ele>206.4</ele><time>2026-04-15T03:02:22.999Z</time></trkpt><trkpt lat="-27.921897058945948" lon="114.59323489189963"><ele>206.20000000000002</ele><time>2026-04-15T03:02:24Z</time></trkpt><trkpt lat="-27.921977133746076" lon="114.59329846366596"><ele>206.0</ele><time>2026-04-15T03:02:25Z</time></trkpt><trkpt lat="-27.922055737314246" lon="114.59335564492639"><ele>206.0</ele><time>2026-04-15T03:02:26Z</time></trkpt><trkpt lat="-27.922135372686363" lon="114.593414376467"><ele>206.0</ele><time>2026-04-15T03:02:27Z</time></trkpt><trkpt lat="-27.92222086844184" lon="114.59348322376938"><ele>206.0</ele><time>2026-04-15T03:02:28Z</time></trkpt><trkpt lat="-27.922315217066206" lon="114.59355600385696"><ele>206.0</ele><time>2026-04-15T03:02:29Z</time></trkpt><trkpt lat="-27.922416977840022" lon="114.59362723033598"><ele>206.0</ele><time>2026-04-15T03:02:30Z</time></trkpt><trkpt lat="-27.922526486068488" lon="114.59369443109398"><ele>206.75</ele><time>2026-04-15T03:02:31Z</time></trkpt><trkpt lat="-27.92264250083964" lon="114.59376689523324"><ele>207.5</ele><time>2026-04-15T03:02:32Z</time></trkpt><trkpt lat="-27.922758999392233" lon="114.59383999717502"><ele>208.25</ele><time>2026-04-15T03:02:33Z</time></trkpt><trkpt lat="-27.922876790989307" lon="114.59391127033777"><ele>209.0</ele><time>2026-04-15T03:02:34Z</time></trkpt><trkpt lat="-27.922995305248868" lon="114.5939771289118"><ele>209.0</ele><time>2026-04-15T03:02:35Z</time></trkpt><trkpt lat="-27.923119118047552" lon="114.59404049081984"><ele>209.0</ele><time>2026-04-15T03:02:36Z</time></trkpt><trkpt lat="-27.923243677305287" lon="114.5941031521736"><ele>209.0</ele><time>2026-04-15T03:02:37Z</time></trkpt><trkpt lat="-27.92336601192431" lon="114.59416352670885"><ele>209.0</ele><time>2026-04-15T03:02:38Z</time></trkpt><trkpt lat="-27.923490319534462" lon="114.59422440480996"><ele>209.0</ele><time>2026-04-15T03:02:39Z</time></trkpt><trkpt lat="-27.923615634135516" lon="114.59428556397143"><ele>209.0</ele><time>2026-04-15T03:02:40Z</time></trkpt><trkpt lat="-27.923742953286332" lon="114.59434501571448"><ele>209.0</ele><time>2026-04-15T03:02:41Z</time></trkpt><trkpt lat="-27.92387692085642" lon="114.59440482465071"><ele>209.0</ele><time>2026-04-15T03:02:42Z</time></trkpt><trkpt lat="-27.924018594587483" lon="114.59446256972495"><ele>208.66666666666669</ele><time>2026-04-15T03:02:43Z</time></trkpt><trkpt lat="-27.924163995551766" lon="114.59451825522028"><ele>208.33333333333331</ele><time>2026-04-15T03:02:44Z</time></trkpt><trkpt lat="-27.92430859676375" lon="114.59456790545035"><ele>208.0</ele><time>2026-04-15T03:02:45Z</time></trkpt><trkpt lat="-27.924458479689356" lon="114.59462077926587"><ele>207.66666666666666</ele><time>2026-04-15T03:02:46Z</time></trkpt><trkpt lat="-27.924615803072637" lon="114.59468061341516"><ele>207.33333333333331</ele><time>2026-04-15T03:02:47Z</time></trkpt><trkpt lat="-27.924780709578144" lon="114.5947428583114"><ele>207.0</ele><time>2026-04-15T03:02:48Z</time></trkpt><trkpt lat="-27.924956647566038" lon="114.59481106120653"><ele>208.0</ele><time>2026-04-15T03:02:49Z</time></trkpt><trkpt lat="-27.92512680252542" lon="114.59487670577988"><ele>209.0</ele><time>2026-04-15T03:02:50Z</time></trkpt><trkpt lat="-27.925480987172083" lon="114.59500809325053"><ele>209.0</ele><time>2026-04-15T03:02:52Z</time></trkpt><trkpt lat="-27.925666241166088" lon="114.59507911024103"><ele>209.0</ele><time>2026-04-15T03:02:53Z</time></trkpt><trkpt lat="-27.92585491019426" lon="114.59514900304497"><ele>209.0</ele><time>2026-04-15T03:02:54Z</time></trkpt><trkpt lat="-27.92604382514994" lon="114.595221364847"><ele>208.66666666666669</ele><time>2026-04-15T03:02:55Z</time></trkpt><trkpt lat="-27.926241556903634" lon="114.59529776015255"><ele>208.33333333333331</ele><time>2026-04-15T03:02:56Z</time></trkpt><trkpt lat="-27.92644358747322" lon="114.59537294423546"><ele>208.0</ele><time>2026-04-15T03:02:57Z</time></trkpt><trkpt lat="-27.926634350765365" lon="114.5954434218884"><ele>208.66666666666666</ele><time>2026-04-15T03:02:58Z</time></trkpt><trkpt lat="-27.926828281475636" lon="114.59551552422946"><ele>209.33333333333331</ele><time>2026-04-15T03:02:59Z</time></trkpt><trkpt lat="-27.927027973767697" lon="114.59559036244501"><ele>210.0</ele><time>2026-04-15T03:03:00Z</time></trkpt><trkpt lat="-27.92722604162115" lon="114.59566087702107"><ele>210.0</ele><time>2026-04-15T03:03:01Z</time></trkpt><trkpt lat="-27.92743327226817" lon="114.59573302732872"><ele>210.0</ele><time>2026-04-15T03:03:02Z</time></trkpt><trkpt lat="-27.927638878062936" lon="114.59580261083057"><ele>210.0</ele><time>2026-04-15T03:03:03Z</time></trkpt><trkpt lat="-27.92784861166937" lon="114.59587198781844"><ele>211.0</ele><time>2026-04-15T03:03:04Z</time></trkpt><trkpt lat="-27.92805612904995" lon="114.59593922814345"><ele>212.0</ele><time>2026-04-15T03:03:05Z</time></trkpt><trkpt lat="-27.928264860314307" lon="114.59600727313628"><ele>213.0</ele><time>2026-04-15T03:03:06Z</time></trkpt><trkpt lat="-27.92847449569813" lon="114.59607032198312"><ele>213.0</ele><time>2026-04-15T03:03:07Z</time></trkpt><trkpt lat="-27.928688429857807" lon="114.59612870129659"><ele>213.0</ele><time>2026-04-15T03:03:08Z</time></trkpt><trkpt lat="-27.928896554165746" lon="114.59617452931103"><ele>213.0</ele><time>2026-04-15T03:03:09Z</time></trkpt><trkpt lat="-27.929104248076605" lon="114.59621688514734"><ele>214.0</ele><time>2026-04-15T03:03:10Z</time></trkpt><trkpt lat="-27.929317609970962" lon="114.59625666393939"><ele>215.0</ele><time>2026-04-15T03:03:11Z</time></trkpt><trkpt lat="-27.929534413985277" lon="114.5963007907905"><ele>216.0</ele><time>2026-04-15T03:03:12Z</time></trkpt><trkpt lat="-27.929748493238304" lon="114.59634728301968"><ele>216.0</ele><time>2026-04-15T03:03:13Z</time></trkpt><trkpt lat="-27.929964123601337" lon="114.59639597434185"><ele>216.0</ele><time>2026-04-15T03:03:14Z</time></trkpt><trkpt lat="-27.930180812124703" lon="114.59644318354437"><ele>216.0</ele><time>2026-04-15T03:03:15Z</time></trkpt><trkpt lat="-27.93040532676971" lon="114.59648582905206"><ele>216.5</ele><time>2026-04-15T03:03:16Z</time></trkpt><trkpt lat="-27.930637304481785" lon="114.5965324637194"><ele>217.0</ele><time>2026-04-15T03:03:17Z</time></trkpt><trkpt lat="-27.930870391555555" lon="114.59658327831116"><ele>217.5</ele><time>2026-04-15T03:03:18Z</time></trkpt><trkpt lat="-27.93110314922745" lon="114.59663439645412"><ele>218.0</ele><time>2026-04-15T03:03:19Z</time></trkpt><trkpt lat="-27.93133060762821" lon="114.59668202692055"><ele>218.0</ele><time>2026-04-15T03:03:20Z</time></trkpt><trkpt lat="-27.93155513775139" lon="114.59672738870397"><ele>218.0</ele><time>2026-04-15T03:03:21Z</time></trkpt><trkpt lat="-27.93177914768707" lon="114.59677295828966"><ele>218.0</ele><time>2026-04-15T03:03:22Z</time></trkpt><trkpt lat="-27.932002692670387" lon="114.59681913493631"><ele>218.0</ele><time>2026-04-15T03:03:23Z</time></trkpt><trkpt lat="-27.9322289970254" lon="114.59686722086518"><ele>218.0</ele><time>2026-04-15T03:03:24Z</time></trkpt><trkpt lat="-27.932456269030894" lon="114.59691423143427"><ele>218.0</ele><time>2026-04-15T03:03:25Z</time></trkpt><trkpt lat="-27.9326843956775" lon="114.59696033131155"><ele>218.5</ele><time>2026-04-15T03:03:26Z</time></trkpt><trkpt lat="-27.93291196631235" lon="114.59700790262563"><ele>219.0</ele><time>2026-04-15T03:03:27Z</time></trkpt><trkpt lat="-27.933139875277647" lon="114.5970571547514"><ele>219.0</ele><time>2026-04-15T03:03:28Z</time></trkpt><trkpt lat="-27.933366639977542" lon="114.59710773984705"><ele>219.0</ele><time>2026-04-15T03:03:29Z</time></trkpt><trkpt lat="-27.933592027088856" lon="114.59715581677499"><ele>222.0</ele><time>2026-04-15T03:03:30Z</time></trkpt><trkpt lat="-27.93381775302195" lon="114.5972011561788"><ele>225.0</ele><time>2026-04-15T03:03:31Z</time></trkpt><trkpt lat="-27.93404081955185" lon="114.59724797801604"><ele>227.0</ele><time>2026-04-15T03:03:32Z</time></trkpt><trkpt lat="-27.93426441759654" lon="114.59729651962962"><ele>229.0</ele><time>2026-04-15T03:03:33Z</time></trkpt><trkpt lat="-27.934483604445226" lon="114.5973440401895"><ele>229.0</ele><time>2026-04-15T03:03:34Z</time></trkpt><trkpt lat="-27.934703340107596" lon="114.59739052209837"><ele>229.0</ele><time>2026-04-15T03:03:35Z</time></trkpt><trkpt lat="-27.934922875310328" lon="114.59743552113173"><ele>229.0</ele><time>2026-04-15T03:03:36Z</time></trkpt><trkpt lat="-27.935142663638082" lon="114.59747992264657"><ele>229.66666666666666</ele><time>2026-04-15T03:03:37Z</time></trkpt><trkpt lat="-27.93536361146966" lon="114.59752411212469"><ele>230.33333333333331</ele><time>2026-04-15T03:03:38Z</time></trkpt><trkpt lat="-27.935584883354892" lon="114.59757027877056"><ele>231.0</ele><time>2026-04-15T03:03:39Z</time></trkpt><trkpt lat="-27.935811313361324" lon="114.59761891148277"><ele>233.0</ele><time>2026-04-15T03:03:40Z</time></trkpt><trkpt lat="-27.936041106830196" lon="114.59767023295697"><ele>235.0</ele><time>2026-04-15T03:03:41Z</time></trkpt><trkpt lat="-27.936270180585893" lon="114.59772041991356"><ele>235.0</ele><time>2026-04-15T03:03:42Z</time></trkpt><trkpt lat="-27.936498515118174" lon="114.59776926004305"><ele>235.0</ele><time>2026-04-15T03:03:43Z</time></trkpt><trkpt lat="-27.936730236734473" lon="114.59781746886365"><ele>235.0</ele><time>2026-04-15T03:03:44Z</time></trkpt><trkpt lat="-27.93696407991905" lon="114.59786559634968"><ele>235.0</ele><time>2026-04-15T03:03:45Z</time></trkpt><trkpt lat="-27.937199917206822" lon="114.59791608634379"><ele>235.0</ele><time>2026-04-15T03:03:46Z</time></trkpt><trkpt lat="-27.937436770551248" lon="114.59796462817008"><ele>235.0</ele><time>2026-04-15T03:03:47Z</time></trkpt><trkpt lat="-27.937676133140894" lon="114.59801231259763"><ele>234.5</ele><time>2026-04-15T03:03:48Z</time></trkpt><trkpt lat="-27.93791794857936" lon="114.59806155480074"><ele>234.0</ele><time>2026-04-15T03:03:49Z</time></trkpt><trkpt lat="-27.93816330026802" lon="114.59811104899126"><ele>234.0</ele><time>2026-04-15T03:03:50Z</time></trkpt><trkpt lat="-27.93840994437551" lon="114.5981614365709"><ele>234.0</ele><time>2026-04-15T03:03:51Z</time></trkpt><trkpt lat="-27.938658400419143" lon="114.59821667503068"><ele>234.0</ele><time>2026-04-15T03:03:52Z</time></trkpt><trkpt lat="-27.938906530608467" lon="114.59827262619645"><ele>234.0</ele><time>2026-04-15T03:03:53Z</time></trkpt><trkpt lat="-27.939152857269573" lon="114.59832814460779"><ele>234.5</ele><time>2026-04-15T03:03:54Z</time></trkpt><trkpt lat="-27.93940013010511" lon="114.59838054365669"><ele>235.0</ele><time>2026-04-15T03:03:55Z</time></trkpt><trkpt lat="-27.939879678071765" lon="114.59847849114584"><ele>235.5</ele><time>2026-04-15T03:03:57Z</time></trkpt><trkpt lat="-27.940112107960434" lon="114.59852213389703"><ele>236.0</ele><time>2026-04-15T03:03:58Z</time></trkpt><trkpt lat="-27.94034787599601" lon="114.59856798247002"><ele>236.0</ele><time>2026-04-15T03:03:59Z</time></trkpt><trkpt lat="-27.940585355641808" lon="114.59862047818379"><ele>236.0</ele><time>2026-04-15T03:04:00Z</time></trkpt><trkpt lat="-27.940819618644337" lon="114.59867358739923"><ele>234.0</ele><time>2026-04-15T03:04:01Z</time></trkpt><trkpt lat="-27.941054996269173" lon="114.59872670625379"><ele>232.0</ele><time>2026-04-15T03:04:02Z</time></trkpt><trkpt lat="-27.941287103903186" lon="114.5987764438906"><ele>232.0</ele><time>2026-04-15T03:04:03Z</time></trkpt><trkpt lat="-27.941516890392663" lon="114.59882470818732"><ele>232.0</ele><time>2026-04-15T03:04:04Z</time></trkpt><trkpt lat="-27.941746810410027" lon="114.5988708283021"><ele>232.0</ele><time>2026-04-15T03:04:05Z</time></trkpt><trkpt lat="-27.941972528838576" lon="114.59891821976824"><ele>232.0</ele><time>2026-04-15T03:04:06Z</time></trkpt><trkpt lat="-27.94219789837736" lon="114.59896820473456"><ele>232.0</ele><time>2026-04-15T03:04:07Z</time></trkpt><trkpt lat="-27.94241794662934" lon="114.59902448234779"><ele>232.0</ele><time>2026-04-15T03:04:08Z</time></trkpt><trkpt lat="-27.942635313673204" lon="114.59909168135253"><ele>231.66666666666666</ele><time>2026-04-15T03:04:09Z</time></trkpt><trkpt lat="-27.942847783835013" lon="114.59916963587335"><ele>231.33333333333331</ele><time>2026-04-15T03:04:09.999Z</time></trkpt><trkpt lat="-27.943056283117926" lon="114.59926253865859"><ele>231.0</ele><time>2026-04-15T03:04:10.999Z</time></trkpt><trkpt lat="-27.943257773222356" lon="114.59936859707636"><ele>230.33333333333331</ele><time>2026-04-15T03:04:11.999Z</time></trkpt><trkpt lat="-27.94345336100297" lon="114.59948825806622"><ele>229.66666666666666</ele><time>2026-04-15T03:04:12.999Z</time></trkpt><trkpt lat="-27.943642517528207" lon="114.59961972113148"><ele>229.0</ele><time>2026-04-15T03:04:13.999Z</time></trkpt><trkpt lat="-27.943828847438088" lon="114.59976526423739"><ele>228.0</ele><time>2026-04-15T03:04:14.999Z</time></trkpt><trkpt lat="-27.94400986012583" lon="114.59992275544862"><ele>227.0</ele><time>2026-04-15T03:04:15.999Z</time></trkpt><trkpt lat="-27.944190769845317" lon="114.60009775133992"><ele>225.5</ele><time>2026-04-15T03:04:16.999Z</time></trkpt><trkpt lat="-27.944366801564577" lon="114.60028931972653"><ele>224.0</ele><time>2026-04-15T03:04:17.999Z</time></trkpt><trkpt lat="-27.944535670781935" lon="114.60049518047315"><ele>224.0</ele><time>2026-04-15T03:04:18.999Z</time></trkpt><trkpt lat="-27.944693850711417" lon="114.60070986380899"><ele>224.0</ele><time>2026-04-15T03:04:19.999Z</time></trkpt><trkpt lat="-27.944837601184638" lon="114.60093086224231"><ele>224.0</ele><time>2026-04-15T03:04:20.999Z</time></trkpt><trkpt lat="-27.94496164755927" lon="114.60115471986528"><ele>224.0</ele><time>2026-04-15T03:04:21.999Z</time></trkpt><trkpt lat="-27.945071482662957" lon="114.60138916547318"><ele>220.0</ele><time>2026-04-15T03:04:22.999Z</time></trkpt><trkpt lat="-27.945174317019887" lon="114.60161929424419"><ele>216.0</ele><time>2026-04-15T03:04:23.999Z</time></trkpt><trkpt lat="-27.94528010535169" lon="114.60184672311864"><ele>215.33333333333331</ele><time>2026-04-15T03:04:24.999Z</time></trkpt><trkpt lat="-27.945383442309282" lon="114.6020679571146"><ele>214.66666666666666</ele><time>2026-04-15T03:04:25.999Z</time></trkpt><trkpt lat="-27.94548735707271" lon="114.6022802301405"><ele>214.0</ele><time>2026-04-15T03:04:26.999Z</time></trkpt><trkpt lat="-27.94559602220773" lon="114.6024988887146"><ele>214.0</ele><time>2026-04-15T03:04:27.999Z</time></trkpt><trkpt lat="-27.94570244261225" lon="114.60271667169215"><ele>214.0</ele><time>2026-04-15T03:04:28.999Z</time></trkpt><trkpt lat="-27.945808608073477" lon="114.60293708719263"><ele>214.0</ele><time>2026-04-15T03:04:29.999Z</time></trkpt><trkpt lat="-27.945916410862527" lon="114.60315848554832"><ele>211.0</ele><time>2026-04-15T03:04:30.999Z</time></trkpt><trkpt lat="-27.94602775433461" lon="114.60338255493645"><ele>208.0</ele><time>2026-04-15T03:04:31.999Z</time></trkpt><trkpt lat="-27.94614244703079" lon="114.603612498339"><ele>207.0</ele><time>2026-04-15T03:04:32.999Z</time></trkpt><trkpt lat="-27.946259241107324" lon="114.60383512195908"><ele>206.0</ele><time>2026-04-15T03:04:33.999Z</time></trkpt><trkpt lat="-27.946384553678648" lon="114.60405365253281"><ele>206.0</ele><time>2026-04-15T03:04:34.999Z</time></trkpt><trkpt lat="-27.946517169159875" lon="114.60426397641564"><ele>206.0</ele><time>2026-04-15T03:04:35.999Z</time></trkpt><trkpt lat="-27.946659339813223" lon="114.60446374209494"><ele>206.0</ele><time>2026-04-15T03:04:36.999Z</time></trkpt><trkpt lat="-27.94681223023649" lon="114.60465689785917"><ele>206.0</ele><time>2026-04-15T03:04:37.999Z</time></trkpt><trkpt lat="-27.946974209340933" lon="114.60485108679742"><ele>206.0</ele><time>2026-04-15T03:04:38.999Z</time></trkpt><trkpt lat="-27.94714386391168" lon="114.60504918581796"><ele>206.0</ele><time>2026-04-15T03:04:39.999Z</time></trkpt><trkpt lat="-27.947313983338034" lon="114.60524809550799"><ele>205.5</ele><time>2026-04-15T03:04:40.999Z</time></trkpt><trkpt lat="-27.94748213031189" lon="114.60544320924953"><ele>205.0</ele><time>2026-04-15T03:04:41.999Z</time></trkpt><trkpt lat="-27.94764206988" lon="114.60563172310108"><ele>205.66666666666666</ele><time>2026-04-15T03:04:42.999Z</time></trkpt><trkpt lat="-27.947796522352874" lon="114.60581822701204"><ele>206.33333333333331</ele><time>2026-04-15T03:04:44Z</time></trkpt><trkpt lat="-27.947946869912567" lon="114.60599808360304"><ele>207.0</ele><time>2026-04-15T03:04:45Z</time></trkpt><trkpt lat="-27.94809738414073" lon="114.60617288169487"><ele>207.0</ele><time>2026-04-15T03:04:46Z</time></trkpt><trkpt lat="-27.94824634159905" lon="114.60634506588022"><ele>207.0</ele><time>2026-04-15T03:04:47Z</time></trkpt><trkpt lat="-27.948390032766653" lon="114.60650914532032"><ele>207.0</ele><time>2026-04-15T03:04:48Z</time></trkpt><trkpt lat="-27.948521590508545" lon="114.60666272229646"><ele>208.0</ele><time>2026-04-15T03:04:49Z</time></trkpt><trkpt lat="-27.948638120601675" lon="114.6067993351005"><ele>209.0</ele><time>2026-04-15T03:04:50Z</time></trkpt><trkpt lat="-27.948744129639724" lon="114.60692634499856"><ele>210.0</ele><time>2026-04-15T03:04:51Z</time></trkpt><trkpt lat="-27.948833236481263" lon="114.60703022349631"><ele>210.0</ele><time>2026-04-15T03:04:52Z</time></trkpt><trkpt lat="-27.948904449785278" lon="114.60711672010184"><ele>210.0</ele><time>2026-04-15T03:04:53Z</time></trkpt><trkpt lat="-27.948957783962538" lon="114.60719953417826"><ele>210.0</ele><time>2026-04-15T03:04:54Z</time></trkpt><trkpt lat="-27.948990566436198" lon="114.60727154114153"><ele>210.0</ele><time>2026-04-15T03:04:55Z</time></trkpt><trkpt lat="-27.949007095371947" lon="114.60737575936702"><ele>210.0</ele><time>2026-04-15T03:04:57Z</time></trkpt><trkpt lat="-27.94891505713408" lon="114.60750938320882"><ele>210.0</ele><time>2026-04-15T03:05:24Z</time></trkpt><trkpt lat="-27.94879888695917" lon="114.60755203223445"><ele>210.0</ele><time>2026-04-15T03:05:26Z</time></trkpt><trkpt lat="-27.948720769018838" lon="114.60758071131511"><ele>210.0</ele><time>2026-04-15T03:05:27Z</time></trkpt><trkpt lat="-27.948635662641905" lon="114.60763005100334"><ele>210.0</ele><time>2026-04-15T03:05:28Z</time></trkpt><trkpt lat="-27.948529178102657" lon="114.60765104919751"><ele>210.0</ele><time>2026-04-15T03:05:29Z</time></trkpt><trkpt lat="-27.948427949378704" lon="114.60768821283517"><ele>210.25</ele><time>2026-04-15T03:05:30Z</time></trkpt><trkpt lat="-27.94831430330465" lon="114.60772993518793"><ele>210.5</ele><time>2026-04-15T03:05:31Z</time></trkpt><trkpt lat="-27.94818938616883" lon="114.60777571517966"><ele>210.75</ele><time>2026-04-15T03:05:32Z</time></trkpt><trkpt lat="-27.948061920419306" lon="114.60783794004038"><ele>211.0</ele><time>2026-04-15T03:05:33Z</time></trkpt><trkpt lat="-27.947920207665575" lon="114.60788749807543"><ele>211.0</ele><time>2026-04-15T03:05:34Z</time></trkpt><trkpt lat="-27.94777768829594" lon="114.60794038534893"><ele>211.0</ele><time>2026-04-15T03:05:35Z</time></trkpt><trkpt lat="-27.94762695846559" lon="114.6079973345686"><ele>211.0</ele><time>2026-04-15T03:05:36Z</time></trkpt><trkpt lat="-27.947305902672092" lon="114.60811339835423"><ele>211.0</ele><time>2026-04-15T03:05:38Z</time></trkpt><trkpt lat="-27.947137240450658" lon="114.60817106700382"><ele>211.0</ele><time>2026-04-15T03:05:39Z</time></trkpt><trkpt lat="-27.946960553682697" lon="114.60823594139866"><ele>211.0</ele><time>2026-04-15T03:05:40Z</time></trkpt><trkpt lat="-27.946785104310802" lon="114.60829752028162"><ele>210.33333333333331</ele><time>2026-04-15T03:05:41Z</time></trkpt><trkpt lat="-27.94659678871697" lon="114.60836550495432"><ele>209.66666666666669</ele><time>2026-04-15T03:05:42Z</time></trkpt><trkpt lat="-27.946394015756397" lon="114.60844035144365"><ele>209.0</ele><time>2026-04-15T03:05:43Z</time></trkpt><trkpt lat="-27.9461704173927" lon="114.60852452717428"><ele>209.0</ele><time>2026-04-15T03:05:44Z</time></trkpt><trkpt lat="-27.945954515741253" lon="114.60860708144631"><ele>209.0</ele><time>2026-04-15T03:05:45Z</time></trkpt><trkpt lat="-27.94573647485924" lon="114.60869030082428"><ele>208.5</ele><time>2026-04-15T03:05:46Z</time></trkpt><trkpt lat="-27.945502161584702" lon="114.60877844687735"><ele>208.0</ele><time>2026-04-15T03:05:47Z</time></trkpt><trkpt lat="-27.94525488232851" lon="114.6088714098356"><ele>208.0</ele><time>2026-04-15T03:05:48Z</time></trkpt><trkpt lat="-27.945010796787983" lon="114.6089428280838"><ele>208.0</ele><time>2026-04-15T03:05:49Z</time></trkpt><trkpt lat="-27.944787076981473" lon="114.6090248126682"><ele>208.0</ele><time>2026-04-15T03:05:50Z</time></trkpt><trkpt lat="-27.944569086321803" lon="114.60910490361373"><ele>208.0</ele><time>2026-04-15T03:05:51Z</time></trkpt><trkpt lat="-27.9443440055793" lon="114.60918778483068"><ele>206.0</ele><time>2026-04-15T03:05:52Z</time></trkpt><trkpt lat="-27.94412186057984" lon="114.6092695850545"><ele>204.0</ele><time>2026-04-15T03:05:53Z</time></trkpt><trkpt lat="-27.94390298292186" lon="114.60936909128041"><ele>204.0</ele><time>2026-04-15T03:05:54Z</time></trkpt><trkpt lat="-27.943680467477073" lon="114.60944634229394"><ele>204.0</ele><time>2026-04-15T03:05:55Z</time></trkpt><trkpt lat="-27.94345255260637" lon="114.60952551306548"><ele>205.0</ele><time>2026-04-15T03:05:56Z</time></trkpt><trkpt lat="-27.943226403848193" lon="114.60960392143097"><ele>206.0</ele><time>2026-04-15T03:05:57Z</time></trkpt><trkpt lat="-27.94300609645891" lon="114.60968380938394"><ele>206.0</ele><time>2026-04-15T03:05:58Z</time></trkpt><trkpt lat="-27.942783584813753" lon="114.60976441153754"><ele>206.0</ele><time>2026-04-15T03:05:59Z</time></trkpt><trkpt lat="-27.942558458603465" lon="114.60984287065556"><ele>206.5</ele><time>2026-04-15T03:06:00Z</time></trkpt><trkpt lat="-27.942336860601078" lon="114.60991594747486"><ele>207.0</ele><time>2026-04-15T03:06:01Z</time></trkpt><trkpt lat="-27.94211018446646" lon="114.60996340031609"><ele>207.0</ele><time>2026-04-15T03:06:02Z</time></trkpt><trkpt lat="-27.94189496277985" lon="114.61002052311123"><ele>207.0</ele><time>2026-04-15T03:06:03Z</time></trkpt><trkpt lat="-27.941678131364792" lon="114.61007688618271"><ele>207.0</ele><time>2026-04-15T03:06:04Z</time></trkpt><trkpt lat="-27.941444321361534" lon="114.61013674254976"><ele>205.0</ele><time>2026-04-15T03:06:05Z</time></trkpt><trkpt lat="-27.941206078647006" lon="114.61019701087761"><ele>203.0</ele><time>2026-04-15T03:06:06Z</time></trkpt><trkpt lat="-27.940968919371933" lon="114.61025735751363"><ele>203.5</ele><time>2026-04-15T03:06:07Z</time></trkpt><trkpt lat="-27.940734015950035" lon="114.61031713017486"><ele>204.0</ele><time>2026-04-15T03:06:08Z</time></trkpt><trkpt lat="-27.94050648797552" lon="114.61039441765782"><ele>204.0</ele><time>2026-04-15T03:06:09Z</time></trkpt><trkpt lat="-27.940286840177993" lon="114.61044700112282"><ele>204.0</ele><time>2026-04-15T03:06:10Z</time></trkpt><trkpt lat="-27.940068681778826" lon="114.61050056649225"><ele>204.0</ele><time>2026-04-15T03:06:11Z</time></trkpt><trkpt lat="-27.93984439339987" lon="114.6105551579136"><ele>202.0</ele><time>2026-04-15T03:06:12Z</time></trkpt><trkpt lat="-27.939618995739565" lon="114.61061070409528"><ele>200.0</ele><time>2026-04-15T03:06:13Z</time></trkpt><trkpt lat="-27.93939360746823" lon="114.61066760378613"><ele>201.5</ele><time>2026-04-15T03:06:14Z</time></trkpt><trkpt lat="-27.93916055132721" lon="114.61072836652555"><ele>203.0</ele><time>2026-04-15T03:06:15Z</time></trkpt><trkpt lat="-27.9389266904423" lon="114.6107880285031"><ele>203.0</ele><time>2026-04-15T03:06:15.999Z</time></trkpt><trkpt lat="-27.938692462568948" lon="114.61085144680888"><ele>203.0</ele><time>2026-04-15T03:06:16.999Z</time></trkpt><trkpt lat="-27.938458124315737" lon="114.61091107456646"><ele>203.0</ele><time>2026-04-15T03:06:17.999Z</time></trkpt><trkpt lat="-27.93821816728659" lon="114.61097167354568"><ele>203.0</ele><time>2026-04-15T03:06:18.999Z</time></trkpt><trkpt lat="-27.93798302957436" lon="114.61103517711355"><ele>203.0</ele><time>2026-04-15T03:06:19.999Z</time></trkpt><trkpt lat="-27.937739030500307" lon="114.61107740392713"><ele>203.0</ele><time>2026-04-15T03:06:20.999Z</time></trkpt><trkpt lat="-27.937496448465097" lon="114.61113667407864"><ele>202.0</ele><time>2026-04-15T03:06:21.999Z</time></trkpt><trkpt lat="-27.93725342550065" lon="114.61121550654701"><ele>201.0</ele><time>2026-04-15T03:06:22.999Z</time></trkpt><trkpt lat="-27.937007811156487" lon="114.61127601424299"><ele>201.0</ele><time>2026-04-15T03:06:23.999Z</time></trkpt><trkpt lat="-27.93676048573251" lon="114.61133343716749"><ele>201.0</ele><time>2026-04-15T03:06:24.999Z</time></trkpt><trkpt lat="-27.936513575869345" lon="114.61139028404017"><ele>201.0</ele><time>2026-04-15T03:06:25.999Z</time></trkpt><trkpt lat="-27.93627215959256" lon="114.61144946612711"><ele>201.0</ele><time>2026-04-15T03:06:26.999Z</time></trkpt><trkpt lat="-27.936031953218972" lon="114.6115069191201"><ele>202.5</ele><time>2026-04-15T03:06:27.999Z</time></trkpt><trkpt lat="-27.93579155749927" lon="114.61156445956944"><ele>204.0</ele><time>2026-04-15T03:06:28.999Z</time></trkpt><trkpt lat="-27.935555110141365" lon="114.61162433984751"><ele>204.0</ele><time>2026-04-15T03:06:29.999Z</time></trkpt><trkpt lat="-27.935315736195605" lon="114.61168279275712"><ele>204.0</ele><time>2026-04-15T03:06:30.999Z</time></trkpt><trkpt lat="-27.93507492826311" lon="114.61174123447793"><ele>204.0</ele><time>2026-04-15T03:06:31.999Z</time></trkpt><trkpt lat="-27.934835675708918" lon="114.61180122450631"><ele>204.0</ele><time>2026-04-15T03:06:32.999Z</time></trkpt><trkpt lat="-27.93459465415105" lon="114.61186288257625"><ele>204.0</ele><time>2026-04-15T03:06:33.999Z</time></trkpt><trkpt lat="-27.934352545458648" lon="114.61192310209351"><ele>204.0</ele><time>2026-04-15T03:06:34.999Z</time></trkpt><trkpt lat="-27.93411265550423" lon="114.6119823473254"><ele>204.5</ele><time>2026-04-15T03:06:35.999Z</time></trkpt><trkpt lat="-27.93387157289523" lon="114.61204085448092"><ele>205.0</ele><time>2026-04-15T03:06:36.999Z</time></trkpt><trkpt lat="-27.933621150925642" lon="114.61209971011165"><ele>204.5</ele><time>2026-04-15T03:06:37.999Z</time></trkpt><trkpt lat="-27.93337268054442" lon="114.61216024345318"><ele>204.0</ele><time>2026-04-15T03:06:38.999Z</time></trkpt><trkpt lat="-27.93312791799341" lon="114.61222185931044"><ele>204.0</ele><time>2026-04-15T03:06:39.999Z</time></trkpt><trkpt lat="-27.93287905656504" lon="114.61228440699627"><ele>204.0</ele><time>2026-04-15T03:06:40.999Z</time></trkpt><trkpt lat="-27.9326344669013" lon="114.61235114516393"><ele>203.0</ele><time>2026-04-15T03:06:41.999Z</time></trkpt><trkpt lat="-27.932385082251738" lon="114.61241642405955"><ele>202.0</ele><time>2026-04-15T03:06:42.999Z</time></trkpt><trkpt lat="-27.93213333088459" lon="114.61248173966648"><ele>202.0</ele><time>2026-04-15T03:06:43.999Z</time></trkpt><trkpt lat="-27.931880943190333" lon="114.61254398775581"><ele>202.0</ele><time>2026-04-15T03:06:44.999Z</time></trkpt><trkpt lat="-27.931627861132416" lon="114.61260465300207"><ele>201.0</ele><time>2026-04-15T03:06:45.999Z</time></trkpt><trkpt lat="-27.9313754974198" lon="114.612665615167"><ele>200.0</ele><time>2026-04-15T03:06:46.999Z</time></trkpt><trkpt lat="-27.931127792613612" lon="114.61272736021381"><ele>200.0</ele><time>2026-04-15T03:06:47.999Z</time></trkpt><trkpt lat="-27.930881369316882" lon="114.6127893725909"><ele>200.0</ele><time>2026-04-15T03:06:48.999Z</time></trkpt><trkpt lat="-27.930633660308747" lon="114.6128488007776"><ele>200.0</ele><time>2026-04-15T03:06:49.999Z</time></trkpt><trkpt lat="-27.930388158089606" lon="114.61290931484656"><ele>200.0</ele><time>2026-04-15T03:06:50.999Z</time></trkpt><trkpt lat="-27.930142234732287" lon="114.61297044266567"><ele>202.0</ele><time>2026-04-15T03:06:51.999Z</time></trkpt><trkpt lat="-27.929895309479758" lon="114.61303259343548"><ele>204.0</ele><time>2026-04-15T03:06:52.999Z</time></trkpt><trkpt lat="-27.929650752792124" lon="114.61309482945367"><ele>204.0</ele><time>2026-04-15T03:06:53.999Z</time></trkpt><trkpt lat="-27.929406544463664" lon="114.61315216835006"><ele>204.0</ele><time>2026-04-15T03:06:54.999Z</time></trkpt><trkpt lat="-27.92916477357663" lon="114.61320951555459"><ele>203.5</ele><time>2026-04-15T03:06:55.999Z</time></trkpt><trkpt lat="-27.92892328709973" lon="114.61326854927866"><ele>203.0</ele><time>2026-04-15T03:06:56.999Z</time></trkpt><trkpt lat="-27.92867847873226" lon="114.61332803162672"><ele>203.0</ele><time>2026-04-15T03:06:58Z</time></trkpt><trkpt lat="-27.928430498875468" lon="114.61338977679446"><ele>203.0</ele><time>2026-04-15T03:06:59Z</time></trkpt><trkpt lat="-27.92818383137603" lon="114.61345466345917"><ele>204.0</ele><time>2026-04-15T03:07:00Z</time></trkpt><trkpt lat="-27.92793298007508" lon="114.61351969033511"><ele>205.0</ele><time>2026-04-15T03:07:01Z</time></trkpt><trkpt lat="-27.92768428630342" lon="114.61358263784749"><ele>203.5</ele><time>2026-04-15T03:07:02Z</time></trkpt><trkpt lat="-27.92743332272088" lon="114.61364198133022"><ele>202.0</ele><time>2026-04-15T03:07:03Z</time></trkpt><trkpt lat="-27.927190684270194" lon="114.61370211343024"><ele>201.5</ele><time>2026-04-15T03:07:04Z</time></trkpt><trkpt lat="-27.92693578680647" lon="114.61375878864537"><ele>201.0</ele><time>2026-04-15T03:07:05Z</time></trkpt><trkpt lat="-27.926682776538286" lon="114.6138163902581"><ele>201.0</ele><time>2026-04-15T03:07:06Z</time></trkpt><trkpt lat="-27.926431286798906" lon="114.6138766299488"><ele>201.0</ele><time>2026-04-15T03:07:07Z</time></trkpt><trkpt lat="-27.926186063196845" lon="114.61393455423499"><ele>201.0</ele><time>2026-04-15T03:07:08Z</time></trkpt><trkpt lat="-27.925942837861115" lon="114.61399089297107"><ele>201.0</ele><time>2026-04-15T03:07:09Z</time></trkpt><trkpt lat="-27.92570680074971" lon="114.61404420529702"><ele>201.33333333333331</ele><time>2026-04-15T03:07:10Z</time></trkpt><trkpt lat="-27.925481447313064" lon="114.61409781478771"><ele>201.66666666666666</ele><time>2026-04-15T03:07:11Z</time></trkpt><trkpt lat="-27.92527263233366" lon="114.61414726941146"><ele>202.0</ele><time>2026-04-15T03:07:12Z</time></trkpt><trkpt lat="-27.925070048567438" lon="114.61419752867157"><ele>203.66666666666666</ele><time>2026-04-15T03:07:13Z</time></trkpt><trkpt lat="-27.92487347727556" lon="114.61424848842796"><ele>205.33333333333331</ele><time>2026-04-15T03:07:14Z</time></trkpt><trkpt lat="-27.924680607468666" lon="114.61430137873941"><ele>207.0</ele><time>2026-04-15T03:07:15Z</time></trkpt><trkpt lat="-27.924493519526763" lon="114.61436201351557"><ele>207.0</ele><time>2026-04-15T03:07:16Z</time></trkpt><trkpt lat="-27.924306516841742" lon="114.61443372288656"><ele>207.0</ele><time>2026-04-15T03:07:17Z</time></trkpt><trkpt lat="-27.924118315395408" lon="114.61451293690352"><ele>207.0</ele><time>2026-04-15T03:07:18Z</time></trkpt><trkpt lat="-27.923928503121314" lon="114.61459596665982"><ele>206.66666666666669</ele><time>2026-04-15T03:07:19Z</time></trkpt><trkpt lat="-27.92373423315162" lon="114.61468635916668"><ele>206.33333333333334</ele><time>2026-04-15T03:07:20Z</time></trkpt><trkpt lat="-27.923536015602668" lon="114.61477831190207"><ele>206.0</ele><time>2026-04-15T03:07:21Z</time></trkpt><trkpt lat="-27.92333896501411" lon="114.61486906674082"><ele>205.0</ele><time>2026-04-15T03:07:22Z</time></trkpt><trkpt lat="-27.923133149309848" lon="114.61496129861273"><ele>204.0</ele><time>2026-04-15T03:07:23Z</time></trkpt><trkpt lat="-27.922927812352103" lon="114.61505645630685"><ele>203.0</ele><time>2026-04-15T03:07:24Z</time></trkpt><trkpt lat="-27.922713060188325" lon="114.61515467634935"><ele>203.0</ele><time>2026-04-15T03:07:25Z</time></trkpt><trkpt lat="-27.922497031841473" lon="114.61525336665473"><ele>203.0</ele><time>2026-04-15T03:07:26Z</time></trkpt><trkpt lat="-27.922274775541204" lon="114.61535496217999"><ele>203.0</ele><time>2026-04-15T03:07:27Z</time></trkpt><trkpt lat="-27.922049536008803" lon="114.61545756116342"><ele>203.0</ele><time>2026-04-15T03:07:28Z</time></trkpt><trkpt lat="-27.921825018782634" lon="114.6155600015938"><ele>202.5</ele><time>2026-04-15T03:07:29Z</time></trkpt><trkpt lat="-27.921597276200615" lon="114.6156644326661"><ele>202.0</ele><time>2026-04-15T03:07:30Z</time></trkpt><trkpt lat="-27.92136771700194" lon="114.61576852220395"><ele>202.0</ele><time>2026-04-15T03:07:31Z</time></trkpt><trkpt lat="-27.921126532986666" lon="114.61587676234107"><ele>202.0</ele><time>2026-04-15T03:07:32Z</time></trkpt><trkpt lat="-27.920887884872258" lon="114.61598075452754"><ele>201.0</ele><time>2026-04-15T03:07:33Z</time></trkpt><trkpt lat="-27.92066175600217" lon="114.61608321684197"><ele>200.0</ele><time>2026-04-15T03:07:34Z</time></trkpt><trkpt lat="-27.920437154038456" lon="114.61618571818374"><ele>200.0</ele><time>2026-04-15T03:07:35Z</time></trkpt><trkpt lat="-27.92022398333475" lon="114.61628389707258"><ele>200.0</ele><time>2026-04-15T03:07:36Z</time></trkpt><trkpt lat="-27.92001068823411" lon="114.61637774138666"><ele>200.0</ele><time>2026-04-15T03:07:37Z</time></trkpt><trkpt lat="-27.919797153560403" lon="114.61646961606296"><ele>200.0</ele><time>2026-04-15T03:07:38Z</time></trkpt><trkpt lat="-27.919589822110517" lon="114.61655853005223"><ele>200.0</ele><time>2026-04-15T03:07:39Z</time></trkpt><trkpt lat="-27.91939645030515" lon="114.61664372228229"><ele>200.0</ele><time>2026-04-15T03:07:40Z</time></trkpt><trkpt lat="-27.919206459129022" lon="114.61673149296178"><ele>200.0</ele><time>2026-04-15T03:07:41Z</time></trkpt><trkpt lat="-27.91901041085267" lon="114.61682507244846"><ele>199.33333333333334</ele><time>2026-04-15T03:07:42Z</time></trkpt><trkpt lat="-27.918818718521692" lon="114.61692169820554"><ele>198.66666666666669</ele><time>2026-04-15T03:07:43Z</time></trkpt><trkpt lat="-27.918629734454107" lon="114.6170285140358"><ele>198.0</ele><time>2026-04-15T03:07:44Z</time></trkpt><trkpt lat="-27.918445374812926" lon="114.61714374778211"><ele>198.33333333333331</ele><time>2026-04-15T03:07:45Z</time></trkpt><trkpt lat="-27.918258052382217" lon="114.61726830830746"><ele>198.66666666666666</ele><time>2026-04-15T03:07:46Z</time></trkpt><trkpt lat="-27.918068734797814" lon="114.61740048203414"><ele>199.0</ele><time>2026-04-15T03:07:47Z</time></trkpt><trkpt lat="-27.917878311195597" lon="114.61754107306827"><ele>199.0</ele><time>2026-04-15T03:07:48Z</time></trkpt><trkpt lat="-27.917694913184018" lon="114.61767981745398"><ele>199.0</ele><time>2026-04-15T03:07:49Z</time></trkpt><trkpt lat="-27.91751529763631" lon="114.61781553499964"><ele>199.0</ele><time>2026-04-15T03:07:50Z</time></trkpt><trkpt lat="-27.91733685539143" lon="114.61794360527348"><ele>197.66666666666666</ele><time>2026-04-15T03:07:51Z</time></trkpt><trkpt lat="-27.917166615345817" lon="114.61806221038228"><ele>196.33333333333331</ele><time>2026-04-15T03:07:52Z</time></trkpt><trkpt lat="-27.91700396868632" lon="114.61816833632585"><ele>195.0</ele><time>2026-04-15T03:07:53Z</time></trkpt><trkpt lat="-27.916844832345305" lon="114.61825805538724"><ele>194.66666666666669</ele><time>2026-04-15T03:07:54Z</time></trkpt><trkpt lat="-27.916690930342792" lon="114.61833423297202"><ele>194.33333333333334</ele><time>2026-04-15T03:07:55Z</time></trkpt><trkpt lat="-27.916540488947252" lon="114.61838997964558"><ele>194.0</ele><time>2026-04-15T03:07:56Z</time></trkpt><trkpt lat="-27.91637362108653" lon="114.61843287365008"><ele>194.0</ele><time>2026-04-15T03:07:57Z</time></trkpt><trkpt lat="-27.91619254610574" lon="114.6184439168195"><ele>194.0</ele><time>2026-04-15T03:07:58Z</time></trkpt><trkpt lat="-27.915999343895614" lon="114.61845931163745"><ele>194.0</ele><time>2026-04-15T03:07:59Z</time></trkpt><trkpt lat="-27.915807531800937" lon="114.6184872995144"><ele>193.66666666666669</ele><time>2026-04-15T03:08:00Z</time></trkpt><trkpt lat="-27.915605044698907" lon="114.61850016404702"><ele>193.33333333333331</ele><time>2026-04-15T03:08:01Z</time></trkpt><trkpt lat="-27.91540721864357" lon="114.61851855361189"><ele>193.0</ele><time>2026-04-15T03:08:02Z</time></trkpt><trkpt lat="-27.915210776672303" lon="114.61854016747773"><ele>193.33333333333331</ele><time>2026-04-15T03:08:03Z</time></trkpt><trkpt lat="-27.91501043751303" lon="114.61856850358237"><ele>193.66666666666669</ele><time>2026-04-15T03:08:04Z</time></trkpt><trkpt lat="-27.91480350731691" lon="114.61859877046098"><ele>194.0</ele><time>2026-04-15T03:08:05Z</time></trkpt><trkpt lat="-27.914608417750475" lon="114.61863262512892"><ele>193.66666666666669</ele><time>2026-04-15T03:08:06Z</time></trkpt><trkpt lat="-27.914411366819206" lon="114.6186652013514"><ele>193.33333333333331</ele><time>2026-04-15T03:08:07Z</time></trkpt><trkpt lat="-27.914223600908386" lon="114.61868984098672"><ele>193.0</ele><time>2026-04-15T03:08:08Z</time></trkpt><trkpt lat="-27.914033613368723" lon="114.61870644836642"><ele>193.0</ele><time>2026-04-15T03:08:09Z</time></trkpt><trkpt lat="-27.9138388278901" lon="114.61871122710386"><ele>193.0</ele><time>2026-04-15T03:08:10Z</time></trkpt><trkpt lat="-27.91363404297457" lon="114.61870900088722"><ele>193.0</ele><time>2026-04-15T03:08:11Z</time></trkpt><trkpt lat="-27.91342476088756" lon="114.61870422753239"><ele>192.33333333333331</ele><time>2026-04-15T03:08:12Z</time></trkpt><trkpt lat="-27.913202328694492" lon="114.61869878589766"><ele>191.66666666666666</ele><time>2026-04-15T03:08:13Z</time></trkpt><trkpt lat="-27.912982875321354" lon="114.61868792201007"><ele>191.0</ele><time>2026-04-15T03:08:14Z</time></trkpt><trkpt lat="-27.912752900675166" lon="114.61867537788174"><ele>191.0</ele><time>2026-04-15T03:08:15Z</time></trkpt><trkpt lat="-27.91252502281901" lon="114.61866470995191"><ele>191.0</ele><time>2026-04-15T03:08:16Z</time></trkpt><trkpt lat="-27.912309404774646" lon="114.61865163121085"><ele>191.0</ele><time>2026-04-15T03:08:17Z</time></trkpt><trkpt lat="-27.912103645169317" lon="114.61863719367916"><ele>192.0</ele><time>2026-04-15T03:08:18Z</time></trkpt><trkpt lat="-27.911906209156385" lon="114.61862288031878"><ele>193.0</ele><time>2026-04-15T03:08:19Z</time></trkpt><trkpt lat="-27.911694442812603" lon="114.61860928164755"><ele>194.0</ele><time>2026-04-15T03:08:20Z</time></trkpt><trkpt lat="-27.91146691220679" lon="114.61859701309724"><ele>194.0</ele><time>2026-04-15T03:08:21Z</time></trkpt><trkpt lat="-27.911243366492204" lon="114.61858312404613"><ele>194.0</ele><time>2026-04-15T03:08:21.999Z</time></trkpt><trkpt lat="-27.91103483779636" lon="114.61856645337755"><ele>194.0</ele><time>2026-04-15T03:08:22.999Z</time></trkpt><trkpt lat="-27.910841111793435" lon="114.61855036384341"><ele>192.66666666666669</ele><time>2026-04-15T03:08:23.999Z</time></trkpt><trkpt lat="-27.910655976790547" lon="114.61853212920703"><ele>191.33333333333334</ele><time>2026-04-15T03:08:24.999Z</time></trkpt><trkpt lat="-27.910475929815103" lon="114.6185137678787"><ele>190.0</ele><time>2026-04-15T03:08:25.999Z</time></trkpt><trkpt lat="-27.910300044668347" lon="114.61849268212647"><ele>190.0</ele><time>2026-04-15T03:08:26.999Z</time></trkpt><trkpt lat="-27.91011978237675" lon="114.61846127436885"><ele>190.0</ele><time>2026-04-15T03:08:27.999Z</time></trkpt><trkpt lat="-27.909941555054697" lon="114.618418906072"><ele>190.0</ele><time>2026-04-15T03:08:28.999Z</time></trkpt><trkpt lat="-27.90975505900832" lon="114.61835830458088"><ele>189.66666666666669</ele><time>2026-04-15T03:08:29.999Z</time></trkpt><trkpt lat="-27.90959221419783" lon="114.61829275728876"><ele>189.33333333333334</ele><time>2026-04-15T03:08:30.999Z</time></trkpt><trkpt lat="-27.909440782302614" lon="114.6182248998236"><ele>189.0</ele><time>2026-04-15T03:08:31.999Z</time></trkpt><trkpt lat="-27.909301736075985" lon="114.61816544715774"><ele>188.75</ele><time>2026-04-15T03:08:32.999Z</time></trkpt><trkpt lat="-27.90916735371187" lon="114.61811428425588"><ele>188.5</ele><time>2026-04-15T03:08:33.999Z</time></trkpt><trkpt lat="-27.90904069750621" lon="114.61807489598743"><ele>188.25</ele><time>2026-04-15T03:08:34.999Z</time></trkpt><trkpt lat="-27.908916744890387" lon="114.6180320856328"><ele>188.0</ele><time>2026-04-15T03:08:35.999Z</time></trkpt><trkpt lat="-27.90878951013429" lon="114.61804658337546"><ele>188.0</ele><time>2026-04-15T03:08:37Z</time></trkpt><trkpt lat="-27.90866880352921" lon="114.61805868396681"><ele>188.0</ele><time>2026-04-15T03:08:38Z</time></trkpt><trkpt lat="-27.908556475211505" lon="114.6180944537828"><ele>188.0</ele><time>2026-04-15T03:08:39Z</time></trkpt><trkpt lat="-27.9084573987808" lon="114.61814589433682"><ele>188.0</ele><time>2026-04-15T03:08:40Z</time></trkpt><trkpt lat="-27.90835931143996" lon="114.61820029557722"><ele>188.5</ele><time>2026-04-15T03:08:41Z</time></trkpt><trkpt lat="-27.908255792010397" lon="114.61824437742314"><ele>189.0</ele><time>2026-04-15T03:08:42Z</time></trkpt><trkpt lat="-27.90814017506531" lon="114.61826187167318"><ele>189.5</ele><time>2026-04-15T03:08:43Z</time></trkpt><trkpt lat="-27.90801375632713" lon="114.61825366780039"><ele>190.0</ele><time>2026-04-15T03:08:44Z</time></trkpt><trkpt lat="-27.907876588326317" lon="114.61822480220238"><ele>190.0</ele><time>2026-04-15T03:08:45Z</time></trkpt><trkpt lat="-27.907732177779984" lon="114.61818520492886"><ele>190.0</ele><time>2026-04-15T03:08:46Z</time></trkpt><trkpt lat="-27.9075841303123" lon="114.61813931723005"><ele>190.0</ele><time>2026-04-15T03:08:47Z</time></trkpt><trkpt lat="-27.907440265279835" lon="114.6181042351702"><ele>190.0</ele><time>2026-04-15T03:08:48Z</time></trkpt><trkpt lat="-27.907298908363654" lon="114.6180847125159"><ele>190.5</ele><time>2026-04-15T03:08:49Z</time></trkpt><trkpt lat="-27.907167325559342" lon="114.61808521977144"><ele>191.0</ele><time>2026-04-15T03:08:50Z</time></trkpt><trkpt lat="-27.90704199609927" lon="114.61810430899685"><ele>191.5</ele><time>2026-04-15T03:08:51Z</time></trkpt><trkpt lat="-27.90692744684009" lon="114.61814002829891"><ele>192.0</ele><time>2026-04-15T03:08:52Z</time></trkpt><trkpt lat="-27.90681643103048" lon="114.618194550003"><ele>192.66666666666669</ele><time>2026-04-15T03:08:53Z</time></trkpt><trkpt lat="-27.90669476767115" lon="114.61827318653214"><ele>193.33333333333334</ele><time>2026-04-15T03:08:54Z</time></trkpt><trkpt lat="-27.90656434937981" lon="114.61837645509378"><ele>194.0</ele><time>2026-04-15T03:08:55Z</time></trkpt><trkpt lat="-27.9064232539605" lon="114.61850179570177"><ele>194.0</ele><time>2026-04-15T03:08:56Z</time></trkpt><trkpt lat="-27.906277888875085" lon="114.61864886301872"><ele>194.0</ele><time>2026-04-15T03:08:57Z</time></trkpt><trkpt lat="-27.906131483862477" lon="114.61881274169923"><ele>194.0</ele><time>2026-04-15T03:08:58Z</time></trkpt><trkpt lat="-27.905983667349627" lon="114.6189804342806"><ele>195.0</ele><time>2026-04-15T03:08:59Z</time></trkpt><trkpt lat="-27.90584740471339" lon="114.61913824975849"><ele>196.0</ele><time>2026-04-15T03:09:00Z</time></trkpt><trkpt lat="-27.905709593387126" lon="114.61929548745601"><ele>197.0</ele><time>2026-04-15T03:09:01Z</time></trkpt><trkpt lat="-27.905565417403615" lon="114.61945835986344"><ele>197.66666666666669</ele><time>2026-04-15T03:09:02Z</time></trkpt><trkpt lat="-27.905422145460115" lon="114.61961865986804"><ele>198.33333333333331</ele><time>2026-04-15T03:09:03Z</time></trkpt><trkpt lat="-27.905279356539886" lon="114.61976506108114"><ele>199.0</ele><time>2026-04-15T03:09:04Z</time></trkpt><trkpt lat="-27.905137012307808" lon="114.61990678728507"><ele>199.33333333333331</ele><time>2026-04-15T03:09:05Z</time></trkpt><trkpt lat="-27.904980289229183" lon="114.6200521532881"><ele>199.66666666666669</ele><time>2026-04-15T03:09:06Z</time></trkpt><trkpt lat="-27.904816740045966" lon="114.62019120717302"><ele>200.0</ele><time>2026-04-15T03:09:07Z</time></trkpt><trkpt lat="-27.904644724836295" lon="114.62034122580829"><ele>200.33333333333334</ele><time>2026-04-15T03:09:08Z</time></trkpt><trkpt lat="-27.904477021245054" lon="114.6204873018692"><ele>200.66666666666669</ele><time>2026-04-15T03:09:09Z</time></trkpt><trkpt lat="-27.904314292915668" lon="114.62063053721734"><ele>201.0</ele><time>2026-04-15T03:09:10Z</time></trkpt><trkpt lat="-27.904153822347286" lon="114.6207731493092"><ele>201.0</ele><time>2026-04-15T03:09:11Z</time></trkpt><trkpt lat="-27.90398406712857" lon="114.6209205755037"><ele>201.0</ele><time>2026-04-15T03:09:12Z</time></trkpt><trkpt lat="-27.903801857841334" lon="114.62108177742667"><ele>201.0</ele><time>2026-04-15T03:09:13Z</time></trkpt><trkpt lat="-27.903620866522328" lon="114.62124905548681"><ele>200.33333333333331</ele><time>2026-04-15T03:09:14Z</time></trkpt><trkpt lat="-27.903444967212717" lon="114.62140752308022"><ele>199.66666666666666</ele><time>2026-04-15T03:09:15Z</time></trkpt><trkpt lat="-27.903270943396226" lon="114.62156194478177"><ele>199.0</ele><time>2026-04-15T03:09:16Z</time></trkpt><trkpt lat="-27.90310870226474" lon="114.62170718241163"><ele>199.0</ele><time>2026-04-15T03:09:17Z</time></trkpt><trkpt lat="-27.902946901121283" lon="114.6218552579011"><ele>199.0</ele><time>2026-04-15T03:09:18Z</time></trkpt><trkpt lat="-27.902798111011993" lon="114.62199226094707"><ele>199.0</ele><time>2026-04-15T03:09:19Z</time></trkpt><trkpt lat="-27.9026588808987" lon="114.62211545259714"><ele>199.0</ele><time>2026-04-15T03:09:20Z</time></trkpt><trkpt lat="-27.9025322067759" lon="114.62223018079551"><ele>199.0</ele><time>2026-04-15T03:09:21Z</time></trkpt><trkpt lat="-27.90240513026818" lon="114.62234337930018"><ele>199.0</ele><time>2026-04-15T03:09:22Z</time></trkpt><trkpt lat="-27.90227142613654" lon="114.62246040037746"><ele>199.0</ele><time>2026-04-15T03:09:23Z</time></trkpt><trkpt lat="-27.902136193645646" lon="114.62256323866559"><ele>199.0</ele><time>2026-04-15T03:09:24Z</time></trkpt><trkpt lat="-27.901976703048312" lon="114.62266821274709"><ele>199.0</ele><time>2026-04-15T03:09:25Z</time></trkpt><trkpt lat="-27.901791762836204" lon="114.6227709085437"><ele>197.0</ele><time>2026-04-15T03:09:26Z</time></trkpt><trkpt lat="-27.901584280182362" lon="114.62286688845526"><ele>195.0</ele><time>2026-04-15T03:09:27Z</time></trkpt><trkpt lat="-27.901363200924443" lon="114.62295516724095"><ele>195.0</ele><time>2026-04-15T03:09:28Z</time></trkpt><trkpt lat="-27.901144312047254" lon="114.6230333875099"><ele>195.0</ele><time>2026-04-15T03:09:29Z</time></trkpt><trkpt lat="-27.900914541471106" lon="114.62311577642345"><ele>195.5</ele><time>2026-04-15T03:09:30Z</time></trkpt><trkpt lat="-27.90069398816961" lon="114.62320010151524"><ele>196.0</ele><time>2026-04-15T03:09:31Z</time></trkpt><trkpt lat="-27.900471948266464" lon="114.62328634737584"><ele>196.0</ele><time>2026-04-15T03:09:32Z</time></trkpt><trkpt lat="-27.900248375425218" lon="114.62337342634807"><ele>196.0</ele><time>2026-04-15T03:09:33Z</time></trkpt><trkpt lat="-27.900017551390253" lon="114.6234625505065"><ele>197.0</ele><time>2026-04-15T03:09:34Z</time></trkpt><trkpt lat="-27.89979142725233" lon="114.62355023210328"><ele>198.0</ele><time>2026-04-15T03:09:35Z</time></trkpt><trkpt lat="-27.899561992365925" lon="114.62364105537362"><ele>197.5</ele><time>2026-04-15T03:09:36Z</time></trkpt><trkpt lat="-27.89933169965911" lon="114.62373276113357"><ele>197.0</ele><time>2026-04-15T03:09:37Z</time></trkpt><trkpt lat="-27.899106890202113" lon="114.62382629164163"><ele>198.0</ele><time>2026-04-15T03:09:38Z</time></trkpt><trkpt lat="-27.8988693171298" lon="114.62392209352025"><ele>199.0</ele><time>2026-04-15T03:09:39Z</time></trkpt><trkpt lat="-27.89864294298207" lon="114.62401650470085"><ele>199.0</ele><time>2026-04-15T03:09:40Z</time></trkpt><trkpt lat="-27.898420842733263" lon="114.62411024026036"><ele>199.0</ele><time>2026-04-15T03:09:41Z</time></trkpt><trkpt lat="-27.898201626932646" lon="114.62420238216951"><ele>200.5</ele><time>2026-04-15T03:09:42Z</time></trkpt><trkpt lat="-27.897983205747597" lon="114.62429116197137"><ele>202.0</ele><time>2026-04-15T03:09:43Z</time></trkpt><trkpt lat="-27.897762728255703" lon="114.62438093233573"><ele>203.5</ele><time>2026-04-15T03:09:44Z</time></trkpt><trkpt lat="-27.897537089297472" lon="114.62447179251839"><ele>205.0</ele><time>2026-04-15T03:09:45Z</time></trkpt><trkpt lat="-27.897309148085704" lon="114.62456263112952"><ele>205.5</ele><time>2026-04-15T03:09:46Z</time></trkpt><trkpt lat="-27.897082758031974" lon="114.62465436741908"><ele>206.0</ele><time>2026-04-15T03:09:47Z</time></trkpt><trkpt lat="-27.89686862295821" lon="114.62473336188123"><ele>207.33333333333334</ele><time>2026-04-15T03:09:48Z</time></trkpt><trkpt lat="-27.896672746997393" lon="114.62480342640424"><ele>208.66666666666669</ele><time>2026-04-15T03:09:49Z</time></trkpt><trkpt lat="-27.89649139582622" lon="114.62486728655992"><ele>210.0</ele><time>2026-04-15T03:09:50Z</time></trkpt><trkpt lat="-27.896312097153913" lon="114.62492340571085"><ele>210.0</ele><time>2026-04-15T03:09:51Z</time></trkpt><trkpt lat="-27.8961475738971" lon="114.62496192935588"><ele>210.0</ele><time>2026-04-15T03:09:52Z</time></trkpt><trkpt lat="-27.895989810516088" lon="114.62498030020204"><ele>210.0</ele><time>2026-04-15T03:09:53Z</time></trkpt><trkpt lat="-27.89582279795807" lon="114.62498803870952"><ele>210.66666666666669</ele><time>2026-04-15T03:09:54Z</time></trkpt><trkpt lat="-27.89564140469429" lon="114.62497861030428"><ele>211.33333333333334</ele><time>2026-04-15T03:09:55Z</time></trkpt><trkpt lat="-27.895449397647145" lon="114.62495221555571"><ele>212.0</ele><time>2026-04-15T03:09:56Z</time></trkpt><trkpt lat="-27.895245419387113" lon="114.62491502409121"><ele>210.33333333333334</ele><time>2026-04-15T03:09:57Z</time></trkpt><trkpt lat="-27.895062428969776" lon="114.62487028884718"><ele>208.66666666666669</ele><time>2026-04-15T03:09:58Z</time></trkpt><trkpt lat="-27.894885341118734" lon="114.62482935078812"><ele>207.0</ele><time>2026-04-15T03:09:59Z</time></trkpt><trkpt lat="-27.894704605760612" lon="114.62479782794104"><ele>207.0</ele><time>2026-04-15T03:10:00Z</time></trkpt><trkpt lat="-27.894537435516696" lon="114.62477524390762"><ele>207.0</ele><time>2026-04-15T03:10:01Z</time></trkpt><trkpt lat="-27.894377896250827" lon="114.62476361319763"><ele>207.0</ele><time>2026-04-15T03:10:02Z</time></trkpt><trkpt lat="-27.8942111346075" lon="114.62476554973907"><ele>206.33333333333331</ele><time>2026-04-15T03:10:03Z</time></trkpt><trkpt lat="-27.894038844301484" lon="114.62478802222572"><ele>205.66666666666666</ele><time>2026-04-15T03:10:04Z</time></trkpt><trkpt lat="-27.893865585108898" lon="114.62483101743281"><ele>205.0</ele><time>2026-04-15T03:10:05Z</time></trkpt><trkpt lat="-27.893688087830753" lon="114.62488874972153"><ele>205.0</ele><time>2026-04-15T03:10:06Z</time></trkpt><trkpt lat="-27.89352937836388" lon="114.62494088622425"><ele>205.0</ele><time>2026-04-15T03:10:07Z</time></trkpt><trkpt lat="-27.8933835563951" lon="114.62498830336787"><ele>205.0</ele><time>2026-04-15T03:10:08Z</time></trkpt><trkpt lat="-27.89321080018358" lon="114.62503107774863"><ele>205.33333333333331</ele><time>2026-04-15T03:10:09Z</time></trkpt><trkpt lat="-27.893021233867007" lon="114.6250667078325"><ele>205.66666666666669</ele><time>2026-04-15T03:10:10Z</time></trkpt><trkpt lat="-27.892815763977776" lon="114.62509268061687"><ele>206.0</ele><time>2026-04-15T03:10:11Z</time></trkpt><trkpt lat="-27.89260069984132" lon="114.62510452395827"><ele>205.66666666666669</ele><time>2026-04-15T03:10:12Z</time></trkpt><trkpt lat="-27.892381501662715" lon="114.62510463244188"><ele>205.33333333333331</ele><time>2026-04-15T03:10:13Z</time></trkpt><trkpt lat="-27.892167719443464" lon="114.62510360783605"><ele>205.0</ele><time>2026-04-15T03:10:14Z</time></trkpt><trkpt lat="-27.891956076122295" lon="114.62510360261338"><ele>204.66666666666666</ele><time>2026-04-15T03:10:15Z</time></trkpt><trkpt lat="-27.891742938486072" lon="114.62510077864786"><ele>204.33333333333331</ele><time>2026-04-15T03:10:16Z</time></trkpt><trkpt lat="-27.891540685103156" lon="114.62509688330265"><ele>204.0</ele><time>2026-04-15T03:10:17Z</time></trkpt><trkpt lat="-27.89135465357348" lon="114.62509483365501"><ele>204.0</ele><time>2026-04-15T03:10:18Z</time></trkpt><trkpt lat="-27.891181777903967" lon="114.62509414999774"><ele>204.0</ele><time>2026-04-15T03:10:19Z</time></trkpt><trkpt lat="-27.891016365536906" lon="114.62508170279456"><ele>204.0</ele><time>2026-04-15T03:10:20Z</time></trkpt><trkpt lat="-27.89083838234459" lon="114.62504787694303"><ele>203.66666666666669</ele><time>2026-04-15T03:10:21Z</time></trkpt><trkpt lat="-27.890651402869494" lon="114.62499334538334"><ele>203.33333333333334</ele><time>2026-04-15T03:10:22Z</time></trkpt><trkpt lat="-27.890467067340804" lon="114.62493605926753"><ele>203.0</ele><time>2026-04-15T03:10:23Z</time></trkpt><trkpt lat="-27.890308071120106" lon="114.62489006437295"><ele>203.0</ele><time>2026-04-15T03:10:24Z</time></trkpt><trkpt lat="-27.890163800261774" lon="114.62485198253883"><ele>203.0</ele><time>2026-04-15T03:10:25Z</time></trkpt><trkpt lat="-27.890014118455056" lon="114.62482176304522"><ele>203.0</ele><time>2026-04-15T03:10:26Z</time></trkpt><trkpt lat="-27.88985144874975" lon="114.62480510015122"><ele>203.66666666666669</ele><time>2026-04-15T03:10:27Z</time></trkpt><trkpt lat="-27.889684312700968" lon="114.62481320310012"><ele>204.33333333333331</ele><time>2026-04-15T03:10:28Z</time></trkpt><trkpt lat="-27.889504924870383" lon="114.62484834726928"><ele>205.0</ele><time>2026-04-15T03:10:29Z</time></trkpt><trkpt lat="-27.88931972057529" lon="114.62489778595923"><ele>206.0</ele><time>2026-04-15T03:10:30Z</time></trkpt><trkpt lat="-27.889133684552505" lon="114.62495562033973"><ele>207.0</ele><time>2026-04-15T03:10:31Z</time></trkpt><trkpt lat="-27.888936817056535" lon="114.62500340219056"><ele>208.0</ele><time>2026-04-15T03:10:32Z</time></trkpt><trkpt lat="-27.8887205145485" lon="114.62503877029609"><ele>208.0</ele><time>2026-04-15T03:10:33Z</time></trkpt><trkpt lat="-27.888489191360318" lon="114.62506017590813"><ele>208.0</ele><time>2026-04-15T03:10:34Z</time></trkpt><trkpt lat="-27.888242653155363" lon="114.62506930295858"><ele>208.5</ele><time>2026-04-15T03:10:35Z</time></trkpt><trkpt lat="-27.88798866654568" lon="114.62506850912283"><ele>209.0</ele><time>2026-04-15T03:10:36Z</time></trkpt><trkpt lat="-27.887745751292726" lon="114.6250651489825"><ele>208.66666666666669</ele><time>2026-04-15T03:10:37Z</time></trkpt><trkpt lat="-27.887514334387667" lon="114.62505840693065"><ele>208.33333333333331</ele><time>2026-04-15T03:10:38Z</time></trkpt><trkpt lat="-27.88729791427868" lon="114.62505513011482"><ele>208.0</ele><time>2026-04-15T03:10:39Z</time></trkpt><trkpt lat="-27.887096791610038" lon="114.62505558287292"><ele>208.0</ele><time>2026-04-15T03:10:40Z</time></trkpt><trkpt lat="-27.88691137711175" lon="114.62505868856476"><ele>208.0</ele><time>2026-04-15T03:10:41Z</time></trkpt><trkpt lat="-27.886741143761668" lon="114.62506408083371"><ele>208.0</ele><time>2026-04-15T03:10:42Z</time></trkpt><trkpt lat="-27.886573511658895" lon="114.62508114857435"><ele>208.33333333333331</ele><time>2026-04-15T03:10:43Z</time></trkpt><trkpt lat="-27.886416879653112" lon="114.62511722892513"><ele>208.66666666666669</ele><time>2026-04-15T03:10:44Z</time></trkpt><trkpt lat="-27.886270189877067" lon="114.62517393338867"><ele>209.0</ele><time>2026-04-15T03:10:45Z</time></trkpt><trkpt lat="-27.88613996645131" lon="114.62524794462192"><ele>210.0</ele><time>2026-04-15T03:10:46Z</time></trkpt><trkpt lat="-27.88600448039527" lon="114.6253358236973"><ele>211.0</ele><time>2026-04-15T03:10:47Z</time></trkpt><trkpt lat="-27.885858447743008" lon="114.62543690981182"><ele>212.0</ele><time>2026-04-15T03:10:48Z</time></trkpt><trkpt lat="-27.885701401173392" lon="114.62553872692011"><ele>213.0</ele><time>2026-04-15T03:10:49Z</time></trkpt><trkpt lat="-27.88553589725622" lon="114.62565364932313"><ele>214.0</ele><time>2026-04-15T03:10:50Z</time></trkpt><trkpt lat="-27.885361619830018" lon="114.62577661216974"><ele>215.0</ele><time>2026-04-15T03:10:51Z</time></trkpt><trkpt lat="-27.88517651517452" lon="114.62590748259802"><ele>215.5</ele><time>2026-04-15T03:10:52Z</time></trkpt><trkpt lat="-27.88498556456891" lon="114.6260412837488"><ele>216.0</ele><time>2026-04-15T03:10:53Z</time></trkpt><trkpt lat="-27.88478012873508" lon="114.6261805319138"><ele>216.5</ele><time>2026-04-15T03:10:54Z</time></trkpt><trkpt lat="-27.88457238580232" lon="114.62631950192302"><ele>217.0</ele><time>2026-04-15T03:10:55Z</time></trkpt><trkpt lat="-27.88435983813772" lon="114.6264617376393"><ele>216.0</ele><time>2026-04-15T03:10:56Z</time></trkpt><trkpt lat="-27.88415120415485" lon="114.62660300407462"><ele>215.0</ele><time>2026-04-15T03:10:57Z</time></trkpt><trkpt lat="-27.883955929436066" lon="114.62673527428578"><ele>215.0</ele><time>2026-04-15T03:10:58Z</time></trkpt><trkpt lat="-27.88376522310047" lon="114.62686262429406"><ele>215.0</ele><time>2026-04-15T03:10:59Z</time></trkpt><trkpt lat="-27.883572768991275" lon="114.62699257104654"><ele>215.0</ele><time>2026-04-15T03:11:00Z</time></trkpt><trkpt lat="-27.883376778174405" lon="114.62713776961402"><ele>215.5</ele><time>2026-04-15T03:11:01Z</time></trkpt><trkpt lat="-27.883180079983955" lon="114.62730155947968"><ele>216.0</ele><time>2026-04-15T03:11:02Z</time></trkpt><trkpt lat="-27.88297884506238" lon="114.62747808211337"><ele>216.0</ele><time>2026-04-15T03:11:03Z</time></trkpt><trkpt lat="-27.88278307301579" lon="114.62765948848315"><ele>216.0</ele><time>2026-04-15T03:11:04Z</time></trkpt><trkpt lat="-27.882585731003648" lon="114.62783620148663"><ele>217.0</ele><time>2026-04-15T03:11:05Z</time></trkpt><trkpt lat="-27.882388855223308" lon="114.62800422949975"><ele>218.0</ele><time>2026-04-15T03:11:06Z</time></trkpt><trkpt lat="-27.882194366626592" lon="114.62816705002943"><ele>218.0</ele><time>2026-04-15T03:11:07Z</time></trkpt><trkpt lat="-27.88200472086352" lon="114.62832462270542"><ele>218.0</ele><time>2026-04-15T03:11:08Z</time></trkpt><trkpt lat="-27.881825089883684" lon="114.62847239056325"><ele>218.0</ele><time>2026-04-15T03:11:09Z</time></trkpt><trkpt lat="-27.881663163358652" lon="114.62861576018248"><ele>218.0</ele><time>2026-04-15T03:11:10Z</time></trkpt><trkpt lat="-27.88150424990696" lon="114.62876823760153"><ele>218.0</ele><time>2026-04-15T03:11:11Z</time></trkpt><trkpt lat="-27.88134219982671" lon="114.62893486774017"><ele>218.66666666666669</ele><time>2026-04-15T03:11:12Z</time></trkpt><trkpt lat="-27.881181509278477" lon="114.62910992068515"><ele>219.33333333333331</ele><time>2026-04-15T03:11:13Z</time></trkpt><trkpt lat="-27.881027414880258" lon="114.6292868974652"><ele>220.0</ele><time>2026-04-15T03:11:14Z</time></trkpt><trkpt lat="-27.88088491341891" lon="114.62945104467425"><ele>219.66666666666666</ele><time>2026-04-15T03:11:15Z</time></trkpt><trkpt lat="-27.880742042458092" lon="114.62959644997096"><ele>219.33333333333331</ele><time>2026-04-15T03:11:16Z</time></trkpt><trkpt lat="-27.880586049793305" lon="114.62972274630282"><ele>219.0</ele><time>2026-04-15T03:11:17Z</time></trkpt><trkpt lat="-27.880400739621546" lon="114.62984638491751"><ele>219.0</ele><time>2026-04-15T03:11:18Z</time></trkpt><trkpt lat="-27.88018649551766" lon="114.62996334208695"><ele>219.0</ele><time>2026-04-15T03:11:19Z</time></trkpt><trkpt lat="-27.87996018957618" lon="114.63007583254758"><ele>218.5</ele><time>2026-04-15T03:11:20Z</time></trkpt><trkpt lat="-27.879724253547888" lon="114.63018951060508"><ele>218.0</ele><time>2026-04-15T03:11:21Z</time></trkpt><trkpt lat="-27.879491595496926" lon="114.63030178296093"><ele>218.0</ele><time>2026-04-15T03:11:22Z</time></trkpt><trkpt lat="-27.87926414952307" lon="114.63040902104055"><ele>218.0</ele><time>2026-04-15T03:11:23Z</time></trkpt><trkpt lat="-27.879041375284608" lon="114.63051541022249"><ele>218.0</ele><time>2026-04-15T03:11:24Z</time></trkpt><trkpt lat="-27.87884253270963" lon="114.63061283099113"><ele>218.0</ele><time>2026-04-15T03:11:25Z</time></trkpt><trkpt lat="-27.87865901487116" lon="114.63070668710829"><ele>218.0</ele><time>2026-04-15T03:11:26Z</time></trkpt><trkpt lat="-27.878482113386934" lon="114.63080131122118"><ele>217.66666666666669</ele><time>2026-04-15T03:11:27Z</time></trkpt><trkpt lat="-27.878306518571367" lon="114.63090018396747"><ele>217.33333333333331</ele><time>2026-04-15T03:11:28Z</time></trkpt><trkpt lat="-27.878131861698282" lon="114.63100706511452"><ele>217.0</ele><time>2026-04-15T03:11:29Z</time></trkpt><trkpt lat="-27.87797224863465" lon="114.63112100445107"><ele>217.0</ele><time>2026-04-15T03:11:30Z</time></trkpt><trkpt lat="-27.877812104208207" lon="114.63125941885767"><ele>217.0</ele><time>2026-04-15T03:11:31Z</time></trkpt><trkpt lat="-27.877663132054085" lon="114.63141063052413"><ele>217.0</ele><time>2026-04-15T03:11:32Z</time></trkpt><trkpt lat="-27.87753043330308" lon="114.63155900634155"><ele>216.66666666666666</ele><time>2026-04-15T03:11:33Z</time></trkpt><trkpt lat="-27.877408421421723" lon="114.63170125598751"><ele>216.33333333333331</ele><time>2026-04-15T03:11:34Z</time></trkpt><trkpt lat="-27.87727777093688" lon="114.63181651380086"><ele>216.0</ele><time>2026-04-15T03:11:35Z</time></trkpt><trkpt lat="-27.877165534055088" lon="114.63192783214114"><ele>215.75</ele><time>2026-04-15T03:11:36Z</time></trkpt><trkpt lat="-27.877063427743316" lon="114.63203366109067"><ele>215.5</ele><time>2026-04-15T03:11:37Z</time></trkpt><trkpt lat="-27.876954977385488" lon="114.63210334427897"><ele>215.25</ele><time>2026-04-15T03:11:38Z</time></trkpt><trkpt lat="-27.876830702610857" lon="114.63216309208799"><ele>215.0</ele><time>2026-04-15T03:11:39Z</time></trkpt><trkpt lat="-27.876671742801893" lon="114.63219807725046"><ele>214.33333333333334</ele><time>2026-04-15T03:11:40Z</time></trkpt><trkpt lat="-27.876487691333885" lon="114.63225553991983"><ele>213.66666666666669</ele><time>2026-04-15T03:11:41Z</time></trkpt><trkpt lat="-27.876289186101047" lon="114.63233933564769"><ele>213.0</ele><time>2026-04-15T03:11:42Z</time></trkpt><trkpt lat="-27.876072105659745" lon="114.63241047331326"><ele>212.0</ele><time>2026-04-15T03:11:43Z</time></trkpt><trkpt lat="-27.875847308905588" lon="114.63248502964781"><ele>211.0</ele><time>2026-04-15T03:11:44Z</time></trkpt><trkpt lat="-27.875624127755454" lon="114.63255797764887"><ele>211.0</ele><time>2026-04-15T03:11:45Z</time></trkpt><trkpt lat="-27.875406765128368" lon="114.6326337929124"><ele>211.0</ele><time>2026-04-15T03:11:46Z</time></trkpt><trkpt lat="-27.87517029688171" lon="114.63271472080136"><ele>210.5</ele><time>2026-04-15T03:11:47Z</time></trkpt><trkpt lat="-27.874939709855948" lon="114.6327958626379"><ele>210.0</ele><time>2026-04-15T03:11:48Z</time></trkpt><trkpt lat="-27.874717392351503" lon="114.632870870699"><ele>209.33333333333331</ele><time>2026-04-15T03:11:49Z</time></trkpt><trkpt lat="-27.874504674014318" lon="114.63294282276792"><ele>208.66666666666666</ele><time>2026-04-15T03:11:50Z</time></trkpt><trkpt lat="-27.87430241468177" lon="114.63301072683969"><ele>208.0</ele><time>2026-04-15T03:11:51Z</time></trkpt><trkpt lat="-27.874108672396538" lon="114.63307538984967"><ele>207.33333333333331</ele><time>2026-04-15T03:11:52Z</time></trkpt><trkpt lat="-27.87392550794434" lon="114.63313696034982"><ele>206.66666666666669</ele><time>2026-04-15T03:11:53Z</time></trkpt><trkpt lat="-27.873747204668817" lon="114.6331973387608"><ele>206.0</ele><time>2026-04-15T03:11:54Z</time></trkpt><trkpt lat="-27.87357584964421" lon="114.63326011193897"><ele>205.66666666666669</ele><time>2026-04-15T03:11:55Z</time></trkpt><trkpt lat="-27.873394799272244" lon="114.63332043379239"><ele>205.33333333333331</ele><time>2026-04-15T03:11:56Z</time></trkpt><trkpt lat="-27.87321925979962" lon="114.63337831591342"><ele>205.0</ele><time>2026-04-15T03:11:57Z</time></trkpt><trkpt lat="-27.873055202333532" lon="114.63343472233481"><ele>205.0</ele><time>2026-04-15T03:11:58Z</time></trkpt><trkpt lat="-27.87289521972027" lon="114.63348941636252"><ele>205.0</ele><time>2026-04-15T03:11:59Z</time></trkpt><trkpt lat="-27.872724890139544" lon="114.63354599984945"><ele>205.0</ele><time>2026-04-15T03:12:00Z</time></trkpt><trkpt lat="-27.872556301294367" lon="114.63360548744105"><ele>204.66666666666666</ele><time>2026-04-15T03:12:01Z</time></trkpt><trkpt lat="-27.87238114373776" lon="114.63366904884975"><ele>204.33333333333331</ele><time>2026-04-15T03:12:02Z</time></trkpt><trkpt lat="-27.872183172164203" lon="114.63373923020468"><ele>204.0</ele><time>2026-04-15T03:12:03Z</time></trkpt><trkpt lat="-27.87196367467608" lon="114.63381841730852"><ele>202.33333333333331</ele><time>2026-04-15T03:12:04Z</time></trkpt><trkpt lat="-27.871745752807893" lon="114.63389339461543"><ele>200.66666666666666</ele><time>2026-04-15T03:12:05Z</time></trkpt><trkpt lat="-27.871531586598365" lon="114.63394269842206"><ele>199.0</ele><time>2026-04-15T03:12:06Z</time></trkpt><trkpt lat="-27.871311058386507" lon="114.63401208346959"><ele>199.0</ele><time>2026-04-15T03:12:07Z</time></trkpt><trkpt lat="-27.871087342974786" lon="114.63408139368974"><ele>199.0</ele><time>2026-04-15T03:12:08Z</time></trkpt><trkpt lat="-27.870865355171482" lon="114.63414865174057"><ele>198.0</ele><time>2026-04-15T03:12:09Z</time></trkpt><trkpt lat="-27.870660690256276" lon="114.63422914886523"><ele>197.0</ele><time>2026-04-15T03:12:10Z</time></trkpt><trkpt lat="-27.870459548682085" lon="114.63426737951706"><ele>196.0</ele><time>2026-04-15T03:12:11Z</time></trkpt><trkpt lat="-27.87027303781739" lon="114.63431814858679"><ele>195.66666666666666</ele><time>2026-04-15T03:12:12Z</time></trkpt><trkpt lat="-27.870100978943405" lon="114.63435963149156"><ele>195.33333333333331</ele><time>2026-04-15T03:12:13Z</time></trkpt><trkpt lat="-27.869946039390438" lon="114.63439164665746"><ele>195.0</ele><time>2026-04-15T03:12:14Z</time></trkpt><trkpt lat="-27.869804493831417" lon="114.63441904122502"><ele>195.0</ele><time>2026-04-15T03:12:15Z</time></trkpt><trkpt lat="-27.86968036824981" lon="114.63444382718046"><ele>195.0</ele><time>2026-04-15T03:12:16Z</time></trkpt><trkpt lat="-27.869578325395008" lon="114.63446498265026"><ele>195.0</ele><time>2026-04-15T03:12:17Z</time></trkpt><trkpt lat="-27.869494290846845" lon="114.63448194146221"><ele>195.0</ele><time>2026-04-15T03:12:18Z</time></trkpt><trkpt lat="-27.86942899468127" lon="114.63450584455772"><ele>195.0</ele><time>2026-04-15T03:12:19Z</time></trkpt><trkpt lat="-27.86934269973566" lon="114.63451587391889"><ele>195.2</ele><time>2026-04-15T03:12:21Z</time></trkpt><trkpt lat="-27.869207643276276" lon="114.63457392010108"><ele>195.4</ele><time>2026-04-15T03:15:58.001Z</time></trkpt><trkpt lat="-27.869138838995376" lon="114.63454967419335"><ele>195.60000000000002</ele><time>2026-04-15T03:15:59.001Z</time></trkpt><trkpt lat="-27.869056066871" lon="114.63456796930923"><ele>195.8</ele><time>2026-04-15T03:16:00.001Z</time></trkpt><trkpt lat="-27.868958530377977" lon="114.63459412105749"><ele>196.0</ele><time>2026-04-15T03:16:01.001Z</time></trkpt><trkpt lat="-27.868857613991008" lon="114.63462842013234"><ele>196.0</ele><time>2026-04-15T03:16:02.001Z</time></trkpt><trkpt lat="-27.868755531418692" lon="114.63467161179318"><ele>196.0</ele><time>2026-04-15T03:16:03.001Z</time></trkpt><trkpt lat="-27.868648096228984" lon="114.63472738564103"><ele>196.0</ele><time>2026-04-15T03:16:04.001Z</time></trkpt><trkpt lat="-27.868533987176114" lon="114.63479634386594"><ele>196.0</ele><time>2026-04-15T03:16:05.001Z</time></trkpt><trkpt lat="-27.868406229769235" lon="114.63487830700832"><ele>196.0</ele><time>2026-04-15T03:16:06.001Z</time></trkpt><trkpt lat="-27.868283069679396" lon="114.6349798576452"><ele>196.0</ele><time>2026-04-15T03:16:07.001Z</time></trkpt><trkpt lat="-27.868157349680164" lon="114.6350758842721"><ele>196.0</ele><time>2026-04-15T03:16:08.001Z</time></trkpt><trkpt lat="-27.86801537580688" lon="114.63518804556949"><ele>196.0</ele><time>2026-04-15T03:16:09.001Z</time></trkpt><trkpt lat="-27.867853619101883" lon="114.63529245847786"><ele>196.0</ele><time>2026-04-15T03:16:10.001Z</time></trkpt><trkpt lat="-27.86770243406323" lon="114.63540957252167"><ele>196.0</ele><time>2026-04-15T03:16:11.001Z</time></trkpt><trkpt lat="-27.867545755551316" lon="114.63553229613619"><ele>197.0</ele><time>2026-04-15T03:16:12.001Z</time></trkpt><trkpt lat="-27.86739486002283" lon="114.63565224479414"><ele>198.0</ele><time>2026-04-15T03:16:13.001Z</time></trkpt><trkpt lat="-27.8672509803228" lon="114.63578897183004"><ele>199.0</ele><time>2026-04-15T03:16:14.001Z</time></trkpt><trkpt lat="-27.867091618436934" lon="114.63591460518087"><ele>199.0</ele><time>2026-04-15T03:16:15.001Z</time></trkpt><trkpt lat="-27.866938200774182" lon="114.6360258703693"><ele>199.0</ele><time>2026-04-15T03:16:16.001Z</time></trkpt><trkpt lat="-27.866771104309624" lon="114.63610587945618"><ele>199.0</ele><time>2026-04-15T03:16:17.001Z</time></trkpt><trkpt lat="-27.866613357873497" lon="114.63622025470849"><ele>199.33333333333331</ele><time>2026-04-15T03:16:18.001Z</time></trkpt><trkpt lat="-27.8664824956206" lon="114.63636049219146"><ele>199.66666666666669</ele><time>2026-04-15T03:16:19.001Z</time></trkpt><trkpt lat="-27.866342902237648" lon="114.6364915125407"><ele>200.0</ele><time>2026-04-15T03:16:20.001Z</time></trkpt><trkpt lat="-27.866207373788736" lon="114.63663680223888"><ele>200.0</ele><time>2026-04-15T03:16:21.001Z</time></trkpt><trkpt lat="-27.866068117216123" lon="114.63679722191702"><ele>200.0</ele><time>2026-04-15T03:16:22.001Z</time></trkpt><trkpt lat="-27.865927839537115" lon="114.63696652442604"><ele>200.0</ele><time>2026-04-15T03:16:23.001Z</time></trkpt><trkpt lat="-27.865787719829644" lon="114.63713907615869"><ele>201.33333333333334</ele><time>2026-04-15T03:16:24.001Z</time></trkpt><trkpt lat="-27.865663548245767" lon="114.63730102048214"><ele>202.66666666666669</ele><time>2026-04-15T03:16:25.001Z</time></trkpt><trkpt lat="-27.86555522915504" lon="114.63745017080781"><ele>204.0</ele><time>2026-04-15T03:16:26.001Z</time></trkpt><trkpt lat="-27.86544663261594" lon="114.63759486804958"><ele>204.0</ele><time>2026-04-15T03:16:27.001Z</time></trkpt><trkpt lat="-27.86531252579043" lon="114.63770035638102"><ele>204.0</ele><time>2026-04-15T03:16:28.001Z</time></trkpt><trkpt lat="-27.865178777837176" lon="114.63781037353607"><ele>204.0</ele><time>2026-04-15T03:16:29.001Z</time></trkpt><trkpt lat="-27.865025497609576" lon="114.63793264585067"><ele>204.0</ele><time>2026-04-15T03:16:30.001Z</time></trkpt><trkpt lat="-27.864860381936168" lon="114.63806275665162"><ele>204.0</ele><time>2026-04-15T03:16:31.001Z</time></trkpt><trkpt lat="-27.864677473268408" lon="114.63821140926756"><ele>204.0</ele><time>2026-04-15T03:16:32.001Z</time></trkpt><trkpt lat="-27.864475487711832" lon="114.63835005684754"><ele>203.5</ele><time>2026-04-15T03:16:33.001Z</time></trkpt><trkpt lat="-27.864264852970393" lon="114.63849956074915"><ele>203.0</ele><time>2026-04-15T03:16:34.001Z</time></trkpt><trkpt lat="-27.864049923072514" lon="114.63865064103273"><ele>202.5</ele><time>2026-04-15T03:16:35.001Z</time></trkpt><trkpt lat="-27.86381799427647" lon="114.63881303538605"><ele>202.0</ele><time>2026-04-15T03:16:36.001Z</time></trkpt><trkpt lat="-27.86359561490403" lon="114.63897205223503"><ele>201.0</ele><time>2026-04-15T03:16:37.001Z</time></trkpt><trkpt lat="-27.86338637452481" lon="114.63912341390636"><ele>200.0</ele><time>2026-04-15T03:16:38.001Z</time></trkpt><trkpt lat="-27.863191641765464" lon="114.63926630931087"><ele>200.0</ele><time>2026-04-15T03:16:39.001Z</time></trkpt><trkpt lat="-27.86299225061231" lon="114.63941318614724"><ele>200.0</ele><time>2026-04-15T03:16:40.001Z</time></trkpt><trkpt lat="-27.862790736844236" lon="114.63955546479431"><ele>198.5</ele><time>2026-04-15T03:16:41.001Z</time></trkpt><trkpt lat="-27.86258998019437" lon="114.6396966747809"><ele>197.0</ele><time>2026-04-15T03:16:42.001Z</time></trkpt><trkpt lat="-27.86239338683239" lon="114.63983171267927"><ele>197.0</ele><time>2026-04-15T03:16:43.001Z</time></trkpt><trkpt lat="-27.86219555539656" lon="114.63997053189128"><ele>197.0</ele><time>2026-04-15T03:16:44.001Z</time></trkpt><trkpt lat="-27.862006642095633" lon="114.64010930369628"><ele>197.0</ele><time>2026-04-15T03:16:45.001Z</time></trkpt><trkpt lat="-27.86182175385837" lon="114.64024333439221"><ele>197.0</ele><time>2026-04-15T03:16:46.001Z</time></trkpt><trkpt lat="-27.861632413668147" lon="114.64038086713164"><ele>197.0</ele><time>2026-04-15T03:16:47.001Z</time></trkpt><trkpt lat="-27.861445448078108" lon="114.6405139980693"><ele>196.66666666666669</ele><time>2026-04-15T03:16:48.001Z</time></trkpt><trkpt lat="-27.86126290614442" lon="114.6406441748043"><ele>196.33333333333331</ele><time>2026-04-15T03:16:49.001Z</time></trkpt><trkpt lat="-27.861090214088236" lon="114.6407700835552"><ele>196.0</ele><time>2026-04-15T03:16:50.001Z</time></trkpt><trkpt lat="-27.860912561041708" lon="114.64089750732367"><ele>196.0</ele><time>2026-04-15T03:16:51.001Z</time></trkpt><trkpt lat="-27.860734654856035" lon="114.64102409277103"><ele>196.0</ele><time>2026-04-15T03:16:52.001Z</time></trkpt><trkpt lat="-27.860545353167566" lon="114.64115683533389"><ele>196.0</ele><time>2026-04-15T03:16:53.001Z</time></trkpt><trkpt lat="-27.860356530716253" lon="114.64129047116496"><ele>197.0</ele><time>2026-04-15T03:16:54.001Z</time></trkpt><trkpt lat="-27.86016792699573" lon="114.64142418920993"><ele>198.0</ele><time>2026-04-15T03:16:55.001Z</time></trkpt><trkpt lat="-27.859979609092907" lon="114.64155707488938"><ele>199.0</ele><time>2026-04-15T03:16:56.001Z</time></trkpt><trkpt lat="-27.859790783744256" lon="114.64168891310354"><ele>199.66666666666666</ele><time>2026-04-15T03:16:57.001Z</time></trkpt><trkpt lat="-27.85960345170031" lon="114.64181857975686"><ele>200.33333333333331</ele><time>2026-04-15T03:16:58.001Z</time></trkpt><trkpt lat="-27.859415327691096" lon="114.64194795269432"><ele>201.0</ele><time>2026-04-15T03:16:59.001Z</time></trkpt><trkpt lat="-27.859237446565075" lon="114.64206023363899"><ele>201.0</ele><time>2026-04-15T03:17:00.001Z</time></trkpt><trkpt lat="-27.85906452566301" lon="114.64215931126142"><ele>201.0</ele><time>2026-04-15T03:17:01.001Z</time></trkpt><trkpt lat="-27.85889631663141" lon="114.64224644198613"><ele>201.0</ele><time>2026-04-15T03:17:02.001Z</time></trkpt><trkpt lat="-27.85872740108029" lon="114.64231924146823"><ele>201.0</ele><time>2026-04-15T03:17:03.001Z</time></trkpt><trkpt lat="-27.858554487050892" lon="114.64238455595306"><ele>201.0</ele><time>2026-04-15T03:17:04.001Z</time></trkpt><trkpt lat="-27.858380985394938" lon="114.64243502756815"><ele>201.0</ele><time>2026-04-15T03:17:05.001Z</time></trkpt><trkpt lat="-27.858200633864612" lon="114.64247930439582"><ele>199.66666666666669</ele><time>2026-04-15T03:17:06.001Z</time></trkpt><trkpt lat="-27.858012937276072" lon="114.6425287893358"><ele>198.33333333333334</ele><time>2026-04-15T03:17:07.001Z</time></trkpt><trkpt lat="-27.857824802261977" lon="114.64259195224734"><ele>197.0</ele><time>2026-04-15T03:17:08.001Z</time></trkpt><trkpt lat="-27.857635901978234" lon="114.64267643146053"><ele>197.0</ele><time>2026-04-15T03:17:09.001Z</time></trkpt><trkpt lat="-27.85745254810812" lon="114.64277397247194"><ele>197.0</ele><time>2026-04-15T03:17:10.001Z</time></trkpt><trkpt lat="-27.857272415500404" lon="114.64289101462302"><ele>197.0</ele><time>2026-04-15T03:17:11.001Z</time></trkpt><trkpt lat="-27.85709242462488" lon="114.64303103905502"><ele>195.66666666666669</ele><time>2026-04-15T03:17:12.001Z</time></trkpt><trkpt lat="-27.85691074108296" lon="114.64318277808417"><ele>194.33333333333331</ele><time>2026-04-15T03:17:13.001Z</time></trkpt><trkpt lat="-27.856746572044617" lon="114.64333339359048"><ele>193.0</ele><time>2026-04-15T03:17:14.001Z</time></trkpt><trkpt lat="-27.856599157582867" lon="114.64348509892727"><ele>193.0</ele><time>2026-04-15T03:17:15.001Z</time></trkpt><trkpt lat="-27.856470795761712" lon="114.64362538413465"><ele>193.0</ele><time>2026-04-15T03:17:16.001Z</time></trkpt><trkpt lat="-27.85636159719165" lon="114.64375241982245"><ele>193.0</ele><time>2026-04-15T03:17:17.001Z</time></trkpt><trkpt lat="-27.856265455956063" lon="114.64386774260134"><ele>192.75</ele><time>2026-04-15T03:17:18.001Z</time></trkpt><trkpt lat="-27.85618380557429" lon="114.64396608053106"><ele>192.5</ele><time>2026-04-15T03:17:19.001Z</time></trkpt><trkpt lat="-27.856087530357414" lon="114.64406455736079"><ele>192.25</ele><time>2026-04-15T03:17:20.001Z</time></trkpt><trkpt lat="-27.85597345069851" lon="114.6441549458561"><ele>192.0</ele><time>2026-04-15T03:17:21.001Z</time></trkpt><trkpt lat="-27.855847938141164" lon="114.6442243065892"><ele>191.33333333333334</ele><time>2026-04-15T03:17:22.001Z</time></trkpt><trkpt lat="-27.85571809982725" lon="114.64426530499178"><ele>190.66666666666669</ele><time>2026-04-15T03:17:23.001Z</time></trkpt><trkpt lat="-27.85557421206572" lon="114.64428588299718"><ele>190.0</ele><time>2026-04-15T03:17:24.001Z</time></trkpt><trkpt lat="-27.855402340471766" lon="114.64429439678193"><ele>190.0</ele><time>2026-04-15T03:17:25.001Z</time></trkpt><trkpt lat="-27.855209502058674" lon="114.64429060293595"><ele>190.0</ele><time>2026-04-15T03:17:26.001Z</time></trkpt><trkpt lat="-27.855005283595155" lon="114.64427348937286"><ele>190.0</ele><time>2026-04-15T03:17:27.001Z</time></trkpt><trkpt lat="-27.854826258030705" lon="114.6442546420574"><ele>190.0</ele><time>2026-04-15T03:17:28.001Z</time></trkpt><trkpt lat="-27.854673322196344" lon="114.64423997880887"><ele>190.0</ele><time>2026-04-15T03:17:29.001Z</time></trkpt><trkpt lat="-27.85454774576599" lon="114.64423927537808"><ele>190.0</ele><time>2026-04-15T03:17:30.001Z</time></trkpt><trkpt lat="-27.85444864104374" lon="114.64425143859756"><ele>190.0</ele><time>2026-04-15T03:17:31.001Z</time></trkpt><trkpt lat="-27.8543584806756" lon="114.64427284280484"><ele>189.8</ele><time>2026-04-15T03:17:32.001Z</time></trkpt><trkpt lat="-27.854278228467077" lon="114.64430687740972"><ele>189.6</ele><time>2026-04-15T03:17:33.001Z</time></trkpt><trkpt lat="-27.854199092848596" lon="114.64436716537122"><ele>189.39999999999998</ele><time>2026-04-15T03:17:34.001Z</time></trkpt><trkpt lat="-27.85412793913386" lon="114.64445227415129"><ele>189.2</ele><time>2026-04-15T03:17:35.001Z</time></trkpt><trkpt lat="-27.854060863513048" lon="114.64456135978598"><ele>189.0</ele><time>2026-04-15T03:17:36.001Z</time></trkpt><trkpt lat="-27.854013180574988" lon="114.64468686423584"><ele>189.66666666666666</ele><time>2026-04-15T03:17:37.001Z</time></trkpt><trkpt lat="-27.85398117138209" lon="114.64483950132689"><ele>190.33333333333331</ele><time>2026-04-15T03:17:38.001Z</time></trkpt><trkpt lat="-27.853953572762844" lon="114.64501907514436"><ele>191.0</ele><time>2026-04-15T03:17:39.001Z</time></trkpt><trkpt lat="-27.853920834238966" lon="114.64521296278899"><ele>192.66666666666666</ele><time>2026-04-15T03:17:40.001Z</time></trkpt><trkpt lat="-27.85388350499147" lon="114.64540734905017"><ele>194.33333333333331</ele><time>2026-04-15T03:17:41.001Z</time></trkpt><trkpt lat="-27.853839100485946" lon="114.64559477854938"><ele>196.0</ele><time>2026-04-15T03:17:42.001Z</time></trkpt><trkpt lat="-27.853784983410613" lon="114.64579374256634"><ele>196.0</ele><time>2026-04-15T03:17:43.001Z</time></trkpt><trkpt lat="-27.853726040588928" lon="114.64600111075877"><ele>196.0</ele><time>2026-04-15T03:17:44.001Z</time></trkpt><trkpt lat="-27.853664619555147" lon="114.64621932422531"><ele>196.0</ele><time>2026-04-15T03:17:45.001Z</time></trkpt><trkpt lat="-27.853596364246293" lon="114.64646203707137"><ele>196.5</ele><time>2026-04-15T03:17:46.001Z</time></trkpt><trkpt lat="-27.85353127789333" lon="114.64671099176732"><ele>197.0</ele><time>2026-04-15T03:17:47.001Z</time></trkpt><trkpt lat="-27.853468326611363" lon="114.64696155473366"><ele>196.5</ele><time>2026-04-15T03:17:48.001Z</time></trkpt><trkpt lat="-27.853403216201226" lon="114.64721779423846"><ele>196.0</ele><time>2026-04-15T03:17:49.001Z</time></trkpt><trkpt lat="-27.85334083536452" lon="114.64746205986535"><ele>196.0</ele><time>2026-04-15T03:17:50.001Z</time></trkpt><trkpt lat="-27.853277191495064" lon="114.64770879689831"><ele>196.0</ele><time>2026-04-15T03:17:51.001Z</time></trkpt><trkpt lat="-27.853212234462625" lon="114.64796137269695"><ele>197.0</ele><time>2026-04-15T03:17:52.001Z</time></trkpt><trkpt lat="-27.853143858581653" lon="114.64821862039673"><ele>198.0</ele><time>2026-04-15T03:17:53.001Z</time></trkpt><trkpt lat="-27.853073015359296" lon="114.64847937924597"><ele>199.5</ele><time>2026-04-15T03:17:54.001Z</time></trkpt><trkpt lat="-27.853003377217405" lon="114.64874311169942"><ele>201.0</ele><time>2026-04-15T03:17:55.001Z</time></trkpt><trkpt lat="-27.85293424167909" lon="114.64900277911862"><ele>201.0</ele><time>2026-04-15T03:17:56.001Z</time></trkpt><trkpt lat="-27.852863448695" lon="114.6492650126558"><ele>201.0</ele><time>2026-04-15T03:17:57.001Z</time></trkpt><trkpt lat="-27.852796293057473" lon="114.64952361396867"><ele>201.5</ele><time>2026-04-15T03:17:58.001Z</time></trkpt><trkpt lat="-27.85272962093001" lon="114.64976926370908"><ele>202.0</ele><time>2026-04-15T03:17:59.001Z</time></trkpt><trkpt lat="-27.852662751653156" lon="114.65001788309367"><ele>201.0</ele><time>2026-04-15T03:18:00.001Z</time></trkpt><trkpt lat="-27.852598220449856" lon="114.65026605354191"><ele>200.0</ele><time>2026-04-15T03:18:01.001Z</time></trkpt><trkpt lat="-27.852531023931185" lon="114.65052228979451"><ele>199.0</ele><time>2026-04-15T03:18:02.001Z</time></trkpt><trkpt lat="-27.85246398399372" lon="114.65077519948379"><ele>198.0</ele><time>2026-04-15T03:18:03.001Z</time></trkpt><trkpt lat="-27.852392813840346" lon="114.65103994599276"><ele>197.0</ele><time>2026-04-15T03:18:04.001Z</time></trkpt><trkpt lat="-27.852324491114064" lon="114.65128943359716"><ele>196.0</ele><time>2026-04-15T03:18:05.001Z</time></trkpt><trkpt lat="-27.852258897583614" lon="114.65152953341158"><ele>196.0</ele><time>2026-04-15T03:18:06.001Z</time></trkpt><trkpt lat="-27.85219785731609" lon="114.65175503448079"><ele>196.0</ele><time>2026-04-15T03:18:07.001Z</time></trkpt><trkpt lat="-27.85214029246933" lon="114.65197868269357"><ele>196.0</ele><time>2026-04-15T03:18:08.001Z</time></trkpt><trkpt lat="-27.852087315326497" lon="114.65219707679958"><ele>196.0</ele><time>2026-04-15T03:18:09.001Z</time></trkpt><trkpt lat="-27.85203414796551" lon="114.65240192024966"><ele>196.0</ele><time>2026-04-15T03:18:10.001Z</time></trkpt><trkpt lat="-27.851987414995406" lon="114.65259265311165"><ele>196.0</ele><time>2026-04-15T03:18:11.001Z</time></trkpt><trkpt lat="-27.85194314855229" lon="114.65277299514446"><ele>197.66666666666666</ele><time>2026-04-15T03:18:12.001Z</time></trkpt><trkpt lat="-27.85188995843923" lon="114.65296478046307"><ele>199.33333333333331</ele><time>2026-04-15T03:18:13.001Z</time></trkpt><trkpt lat="-27.851827042251557" lon="114.65315988800076"><ele>201.0</ele><time>2026-04-15T03:18:14.001Z</time></trkpt><trkpt lat="-27.85176921700324" lon="114.65335860826046"><ele>201.0</ele><time>2026-04-15T03:18:15.001Z</time></trkpt><trkpt lat="-27.85170849715945" lon="114.65356089969852"><ele>201.0</ele><time>2026-04-15T03:18:16.001Z</time></trkpt><trkpt lat="-27.85165152318936" lon="114.65377330583"><ele>201.0</ele><time>2026-04-15T03:18:17.001Z</time></trkpt><trkpt lat="-27.85159351585892" lon="114.6539986294918"><ele>202.0</ele><time>2026-04-15T03:18:18.001Z</time></trkpt><trkpt lat="-27.851538172181765" lon="114.65421648558808"><ele>203.0</ele><time>2026-04-15T03:18:19.001Z</time></trkpt><trkpt lat="-27.851480416983833" lon="114.65443743586859"><ele>204.0</ele><time>2026-04-15T03:18:20.001Z</time></trkpt><trkpt lat="-27.85141878004929" lon="114.65466034837786"><ele>205.33333333333331</ele><time>2026-04-15T03:18:21.001Z</time></trkpt><trkpt lat="-27.85135845480745" lon="114.65488391934423"><ele>206.66666666666666</ele><time>2026-04-15T03:18:22.001Z</time></trkpt><trkpt lat="-27.851296691035547" lon="114.65511135957178"><ele>208.0</ele><time>2026-04-15T03:18:23.001Z</time></trkpt><trkpt lat="-27.85123534875019" lon="114.65533324170046"><ele>208.0</ele><time>2026-04-15T03:18:24.001Z</time></trkpt><trkpt lat="-27.851177407850642" lon="114.65555067095539"><ele>208.0</ele><time>2026-04-15T03:18:25.001Z</time></trkpt><trkpt lat="-27.851118890710186" lon="114.65576419008767"><ele>208.0</ele><time>2026-04-15T03:18:26.001Z</time></trkpt><trkpt lat="-27.85105863569435" lon="114.65597662415261"><ele>208.33333333333331</ele><time>2026-04-15T03:18:27.001Z</time></trkpt><trkpt lat="-27.85100470178015" lon="114.65618839872954"><ele>208.66666666666669</ele><time>2026-04-15T03:18:28.001Z</time></trkpt><trkpt lat="-27.850953523396576" lon="114.65639554261355"><ele>209.0</ele><time>2026-04-15T03:18:29.001Z</time></trkpt><trkpt lat="-27.850879272459487" lon="114.6565998130493"><ele>209.0</ele><time>2026-04-15T03:18:30.001Z</time></trkpt><trkpt lat="-27.850816643481348" lon="114.65681113766416"><ele>209.0</ele><time>2026-04-15T03:18:31.001Z</time></trkpt><trkpt lat="-27.85075008960571" lon="114.65703003825243"><ele>209.0</ele><time>2026-04-15T03:18:32.001Z</time></trkpt><trkpt lat="-27.850687482673223" lon="114.65723060092385"><ele>209.66666666666669</ele><time>2026-04-15T03:18:33.001Z</time></trkpt><trkpt lat="-27.85062632488401" lon="114.6574436817649"><ele>210.33333333333331</ele><time>2026-04-15T03:18:34.001Z</time></trkpt><trkpt lat="-27.8505549493473" lon="114.6576193276218"><ele>211.0</ele><time>2026-04-15T03:18:35.001Z</time></trkpt><trkpt lat="-27.85050272493104" lon="114.65777048129125"><ele>211.0</ele><time>2026-04-15T03:18:36.001Z</time></trkpt><trkpt lat="-27.850459811958547" lon="114.65791530769859"><ele>211.0</ele><time>2026-04-15T03:18:37.001Z</time></trkpt><trkpt lat="-27.85041030914584" lon="114.65809025102693"><ele>211.0</ele><time>2026-04-15T03:18:38.001Z</time></trkpt><trkpt lat="-27.85035885817931" lon="114.65828064887067"><ele>211.0</ele><time>2026-04-15T03:18:39.001Z</time></trkpt><trkpt lat="-27.850313781296496" lon="114.65849213523224"><ele>211.0</ele><time>2026-04-15T03:18:40.001Z</time></trkpt><trkpt lat="-27.850270402077616" lon="114.65871386534027"><ele>211.0</ele><time>2026-04-15T03:18:41.001Z</time></trkpt><trkpt lat="-27.850224489132312" lon="114.65894230859844"><ele>210.33333333333331</ele><time>2026-04-15T03:18:42.001Z</time></trkpt><trkpt lat="-27.850178781784688" lon="114.65916679070519"><ele>209.66666666666669</ele><time>2026-04-15T03:18:43.001Z</time></trkpt><trkpt lat="-27.85012303173271" lon="114.65939632069652"><ele>209.0</ele><time>2026-04-15T03:18:44.001Z</time></trkpt><trkpt lat="-27.85006424562613" lon="114.65962785331007"><ele>208.0</ele><time>2026-04-15T03:18:45.001Z</time></trkpt><trkpt lat="-27.85000556997184" lon="114.65985491867598"><ele>207.0</ele><time>2026-04-15T03:18:46.001Z</time></trkpt><trkpt lat="-27.84994641977336" lon="114.66008007414987"><ele>206.0</ele><time>2026-04-15T03:18:47.001Z</time></trkpt><trkpt lat="-27.849887401378137" lon="114.66029430536605"><ele>205.0</ele><time>2026-04-15T03:18:48.001Z</time></trkpt><trkpt lat="-27.84982641090923" lon="114.66050397665977"><ele>204.0</ele><time>2026-04-15T03:18:49.001Z</time></trkpt><trkpt lat="-27.849767306129163" lon="114.66072263164274"><ele>203.0</ele><time>2026-04-15T03:18:50.001Z</time></trkpt><trkpt lat="-27.849709096195046" lon="114.66095869113691"><ele>203.0</ele><time>2026-04-15T03:18:51Z</time></trkpt><trkpt lat="-27.849647074756405" lon="114.66120278643827"><ele>203.0</ele><time>2026-04-15T03:18:52Z</time></trkpt><trkpt lat="-27.849579520681818" lon="114.66146105500155"><ele>203.0</ele><time>2026-04-15T03:18:53Z</time></trkpt><trkpt lat="-27.849511234973846" lon="114.66171681040997"><ele>203.0</ele><time>2026-04-15T03:18:54Z</time></trkpt><trkpt lat="-27.849440841126714" lon="114.66196820833906"><ele>201.5</ele><time>2026-04-15T03:18:55Z</time></trkpt><trkpt lat="-27.849366255912486" lon="114.66221992744512"><ele>200.0</ele><time>2026-04-15T03:18:56Z</time></trkpt><trkpt lat="-27.849294910115365" lon="114.66247020270549"><ele>200.5</ele><time>2026-04-15T03:18:57Z</time></trkpt><trkpt lat="-27.84922383278147" lon="114.6627258147146"><ele>201.0</ele><time>2026-04-15T03:18:58Z</time></trkpt><trkpt lat="-27.849148456109738" lon="114.66298964212618"><ele>200.0</ele><time>2026-04-15T03:18:59Z</time></trkpt><trkpt lat="-27.849069115569907" lon="114.66325665611855"><ele>199.0</ele><time>2026-04-15T03:19:00Z</time></trkpt><trkpt lat="-27.848989336256253" lon="114.66352328622936"><ele>199.0</ele><time>2026-04-15T03:19:01Z</time></trkpt><trkpt lat="-27.848916260157278" lon="114.66377950104349"><ele>199.0</ele><time>2026-04-15T03:19:02Z</time></trkpt><trkpt lat="-27.8488485095696" lon="114.66403366928083"><ele>199.0</ele><time>2026-04-15T03:19:03Z</time></trkpt><trkpt lat="-27.848783152277758" lon="114.66427585374677"><ele>199.0</ele><time>2026-04-15T03:19:04Z</time></trkpt><trkpt lat="-27.848723449565405" lon="114.66451879571206"><ele>199.0</ele><time>2026-04-15T03:19:05Z</time></trkpt><trkpt lat="-27.84866670131478" lon="114.66474447883768"><ele>197.66666666666666</ele><time>2026-04-15T03:19:06Z</time></trkpt><trkpt lat="-27.84861730638832" lon="114.66496674004657"><ele>196.33333333333331</ele><time>2026-04-15T03:19:07Z</time></trkpt><trkpt lat="-27.848566644197586" lon="114.66519335459608"><ele>195.0</ele><time>2026-04-15T03:19:08Z</time></trkpt><trkpt lat="-27.84851487123159" lon="114.66542448626085"><ele>195.33333333333331</ele><time>2026-04-15T03:19:09Z</time></trkpt><trkpt lat="-27.84846128608864" lon="114.66564395512799"><ele>195.66666666666666</ele><time>2026-04-15T03:19:10Z</time></trkpt><trkpt lat="-27.848405126411407" lon="114.66586491406414"><ele>196.0</ele><time>2026-04-15T03:19:11Z</time></trkpt><trkpt lat="-27.848345912193793" lon="114.66608476968243"><ele>195.33333333333331</ele><time>2026-04-15T03:19:12Z</time></trkpt><trkpt lat="-27.848288221032572" lon="114.66629304453613"><ele>194.66666666666669</ele><time>2026-04-15T03:19:13Z</time></trkpt><trkpt lat="-27.8482349812525" lon="114.66648407279163"><ele>194.0</ele><time>2026-04-15T03:19:14Z</time></trkpt><trkpt lat="-27.848187266072" lon="114.66665155131372"><ele>194.0</ele><time>2026-04-15T03:19:15Z</time></trkpt><trkpt lat="-27.848136161036763" lon="114.66679958659415"><ele>194.0</ele><time>2026-04-15T03:19:16Z</time></trkpt><trkpt lat="-27.84807243026543" lon="114.66694209455058"><ele>194.0</ele><time>2026-04-15T03:19:17Z</time></trkpt><trkpt lat="-27.847976086155423" lon="114.66706532591716"><ele>194.0</ele><time>2026-04-15T03:19:18Z</time></trkpt><trkpt lat="-27.847868575838717" lon="114.66721155494922"><ele>193.33333333333334</ele><time>2026-04-15T03:19:19Z</time></trkpt><trkpt lat="-27.847739271852433" lon="114.66736422778612"><ele>192.66666666666669</ele><time>2026-04-15T03:19:20Z</time></trkpt><trkpt lat="-27.84760030665898" lon="114.66752059461166"><ele>192.0</ele><time>2026-04-15T03:19:21Z</time></trkpt><trkpt lat="-27.847470506653657" lon="114.66768881070615"><ele>191.0</ele><time>2026-04-15T03:19:22Z</time></trkpt><trkpt lat="-27.84734103143694" lon="114.66783034112264"><ele>190.0</ele><time>2026-04-15T03:19:23.001Z</time></trkpt><trkpt lat="-27.847218428851214" lon="114.66797127066964"><ele>189.0</ele><time>2026-04-15T03:19:24.001Z</time></trkpt><trkpt lat="-27.84709204751218" lon="114.66811443999057"><ele>189.0</ele><time>2026-04-15T03:19:25.001Z</time></trkpt><trkpt lat="-27.846966801804804" lon="114.66825447950195"><ele>189.0</ele><time>2026-04-15T03:19:26.001Z</time></trkpt><trkpt lat="-27.84684060561609" lon="114.6683904824083"><ele>189.0</ele><time>2026-04-15T03:19:27.001Z</time></trkpt><trkpt lat="-27.84671377635892" lon="114.66853633719519"><ele>189.0</ele><time>2026-04-15T03:19:28.001Z</time></trkpt><trkpt lat="-27.846594963036186" lon="114.66870355704849"><ele>189.0</ele><time>2026-04-15T03:19:29.001Z</time></trkpt><trkpt lat="-27.84648372378779" lon="114.66888724917023"><ele>189.0</ele><time>2026-04-15T03:19:30.001Z</time></trkpt><trkpt lat="-27.846381718650264" lon="114.66906882832383"><ele>189.0</ele><time>2026-04-15T03:19:31.001Z</time></trkpt><trkpt lat="-27.846288872785777" lon="114.66925627662665"><ele>189.0</ele><time>2026-04-15T03:19:32.001Z</time></trkpt><trkpt lat="-27.846206301737503" lon="114.66945490032658"><ele>189.0</ele><time>2026-04-15T03:19:33.001Z</time></trkpt><trkpt lat="-27.846132231104793" lon="114.66967367647818"><ele>190.0</ele><time>2026-04-15T03:19:34.001Z</time></trkpt><trkpt lat="-27.8460714816593" lon="114.66991214030944"><ele>191.0</ele><time>2026-04-15T03:19:35.001Z</time></trkpt><trkpt lat="-27.84601396496325" lon="114.67016972895479"><ele>192.33333333333331</ele><time>2026-04-15T03:19:36.001Z</time></trkpt><trkpt lat="-27.84595904882554" lon="114.67042551419111"><ele>193.66666666666666</ele><time>2026-04-15T03:19:37.001Z</time></trkpt><trkpt lat="-27.845912534774843" lon="114.67066098081709"><ele>195.0</ele><time>2026-04-15T03:19:38.001Z</time></trkpt><trkpt lat="-27.84587623545735" lon="114.67087523735773"><ele>195.0</ele><time>2026-04-15T03:19:39.001Z</time></trkpt><trkpt lat="-27.845839476468708" lon="114.67108056285863"><ele>195.0</ele><time>2026-04-15T03:19:40.001Z</time></trkpt><trkpt lat="-27.845792861009947" lon="114.67127486607707"><ele>195.0</ele><time>2026-04-15T03:19:41.001Z</time></trkpt><trkpt lat="-27.84572956839195" lon="114.67146673351655"><ele>195.0</ele><time>2026-04-15T03:19:42.001Z</time></trkpt><trkpt lat="-27.84565301780618" lon="114.67166030388128"><ele>195.0</ele><time>2026-04-15T03:19:43.001Z</time></trkpt><trkpt lat="-27.845564502045654" lon="114.6718565961902"><ele>195.0</ele><time>2026-04-15T03:19:44.001Z</time></trkpt><trkpt lat="-27.845449248275415" lon="114.67203087039954"><ele>195.0</ele><time>2026-04-15T03:19:45.001Z</time></trkpt><trkpt lat="-27.845323261955937" lon="114.67222497374584"><ele>195.0</ele><time>2026-04-15T03:19:46.001Z</time></trkpt><trkpt lat="-27.845200575920867" lon="114.67243490571325"><ele>195.0</ele><time>2026-04-15T03:19:47.001Z</time></trkpt><trkpt lat="-27.845052624899992" lon="114.67264029049078"><ele>196.5</ele><time>2026-04-15T03:19:48.001Z</time></trkpt><trkpt lat="-27.844906521968035" lon="114.67284417993945"><ele>198.0</ele><time>2026-04-15T03:19:49.001Z</time></trkpt><trkpt lat="-27.84475771484016" lon="114.67305543510574"><ele>198.0</ele><time>2026-04-15T03:19:50.001Z</time></trkpt><trkpt lat="-27.84460966655791" lon="114.67326351258028"><ele>198.0</ele><time>2026-04-15T03:19:51.001Z</time></trkpt><trkpt lat="-27.844464301815268" lon="114.67347148230805"><ele>198.5</ele><time>2026-04-15T03:19:52.001Z</time></trkpt><trkpt lat="-27.844312848356342" lon="114.67368647215257"><ele>199.0</ele><time>2026-04-15T03:19:53.001Z</time></trkpt><trkpt lat="-27.84417217433857" lon="114.67388502844541"><ele>199.0</ele><time>2026-04-15T03:19:54.001Z</time></trkpt><trkpt lat="-27.84403662813937" lon="114.67407376895324"><ele>199.0</ele><time>2026-04-15T03:19:55.001Z</time></trkpt><trkpt lat="-27.843914586169817" lon="114.67425415180794"><ele>199.0</ele><time>2026-04-15T03:19:56.001Z</time></trkpt><trkpt lat="-27.84380944987958" lon="114.67442002394051"><ele>199.33333333333331</ele><time>2026-04-15T03:19:57.001Z</time></trkpt><trkpt lat="-27.843720278841378" lon="114.67457733140087"><ele>199.66666666666669</ele><time>2026-04-15T03:19:58.001Z</time></trkpt><trkpt lat="-27.843642614060066" lon="114.67473965622365"><ele>200.0</ele><time>2026-04-15T03:19:59.001Z</time></trkpt><trkpt lat="-27.843565057567385" lon="114.67492538729292"><ele>200.0</ele><time>2026-04-15T03:20:00.001Z</time></trkpt><trkpt lat="-27.843485853025467" lon="114.67512992446638"><ele>200.0</ele><time>2026-04-15T03:20:01.001Z</time></trkpt><trkpt lat="-27.843402789656942" lon="114.67535308943344"><ele>200.0</ele><time>2026-04-15T03:20:02.001Z</time></trkpt><trkpt lat="-27.84331894752363" lon="114.67558301902316"><ele>199.0</ele><time>2026-04-15T03:20:03.001Z</time></trkpt><trkpt lat="-27.843229132110462" lon="114.67582175419012"><ele>198.0</ele><time>2026-04-15T03:20:04.001Z</time></trkpt><trkpt lat="-27.843132433321603" lon="114.67607350834456"><ele>197.5</ele><time>2026-04-15T03:20:05.001Z</time></trkpt><trkpt lat="-27.84303509911731" lon="114.67633906565399"><ele>197.0</ele><time>2026-04-15T03:20:06.001Z</time></trkpt><trkpt lat="-27.842943470908676" lon="114.67659964858439"><ele>197.0</ele><time>2026-04-15T03:20:07.001Z</time></trkpt><trkpt lat="-27.842848540756787" lon="114.67685817898219"><ele>197.0</ele><time>2026-04-15T03:20:08.001Z</time></trkpt><trkpt lat="-27.84274904531757" lon="114.67711903682975"><ele>197.0</ele><time>2026-04-15T03:20:09.001Z</time></trkpt><trkpt lat="-27.842648258255487" lon="114.67737764537773"><ele>197.0</ele><time>2026-04-15T03:20:10.001Z</time></trkpt><trkpt lat="-27.842548994762858" lon="114.67763479406015"><ele>196.5</ele><time>2026-04-15T03:20:11.001Z</time></trkpt><trkpt lat="-27.842450450096415" lon="114.67789515585267"><ele>196.0</ele><time>2026-04-15T03:20:12.001Z</time></trkpt><trkpt lat="-27.842355932772104" lon="114.67814080037294"><ele>196.0</ele><time>2026-04-15T03:20:13.001Z</time></trkpt><trkpt lat="-27.842255429921902" lon="114.6783931223237"><ele>196.0</ele><time>2026-04-15T03:20:14.001Z</time></trkpt><trkpt lat="-27.842157631958184" lon="114.67863841580063"><ele>195.0</ele><time>2026-04-15T03:20:15.001Z</time></trkpt><trkpt lat="-27.84206502981532" lon="114.67887599193938"><ele>194.0</ele><time>2026-04-15T03:20:16.001Z</time></trkpt><trkpt lat="-27.841974742658415" lon="114.67910391360302"><ele>194.0</ele><time>2026-04-15T03:20:17.001Z</time></trkpt><trkpt lat="-27.841877440636857" lon="114.67933972319673"><ele>194.0</ele><time>2026-04-15T03:20:18.001Z</time></trkpt><trkpt lat="-27.841781018769417" lon="114.6795782777008"><ele>193.33333333333334</ele><time>2026-04-15T03:20:19.001Z</time></trkpt><trkpt lat="-27.841687585231156" lon="114.67980455438135"><ele>192.66666666666669</ele><time>2026-04-15T03:20:20.001Z</time></trkpt><trkpt lat="-27.84159822973457" lon="114.68001902186275"><ele>192.0</ele><time>2026-04-15T03:20:21.001Z</time></trkpt><trkpt lat="-27.841511931308556" lon="114.68023578389185"><ele>192.0</ele><time>2026-04-15T03:20:22.001Z</time></trkpt><trkpt lat="-27.841428463074767" lon="114.68045514226733"><ele>192.0</ele><time>2026-04-15T03:20:23.001Z</time></trkpt><trkpt lat="-27.841344018204897" lon="114.68067776978438"><ele>192.0</ele><time>2026-04-15T03:20:24.001Z</time></trkpt><trkpt lat="-27.841264514062402" lon="114.68088669611855"><ele>192.0</ele><time>2026-04-15T03:20:25.001Z</time></trkpt><trkpt lat="-27.841185578997433" lon="114.68109878265976"><ele>192.0</ele><time>2026-04-15T03:20:26.001Z</time></trkpt><trkpt lat="-27.841102639187223" lon="114.68132581494469"><ele>192.0</ele><time>2026-04-15T03:20:27.001Z</time></trkpt><trkpt lat="-27.841017282182808" lon="114.68156420123609"><ele>192.5</ele><time>2026-04-15T03:20:28.001Z</time></trkpt><trkpt lat="-27.84092997813177" lon="114.68180742224521"><ele>193.0</ele><time>2026-04-15T03:20:29.001Z</time></trkpt><trkpt lat="-27.840842377124602" lon="114.6820470219876"><ele>193.66666666666666</ele><time>2026-04-15T03:20:30.001Z</time></trkpt><trkpt lat="-27.840750231848023" lon="114.68228122290266"><ele>194.33333333333331</ele><time>2026-04-15T03:20:31.001Z</time></trkpt><trkpt lat="-27.840657915288208" lon="114.68250472481948"><ele>195.0</ele><time>2026-04-15T03:20:32.001Z</time></trkpt><trkpt lat="-27.840575317886866" lon="114.68270143086967"><ele>195.33333333333331</ele><time>2026-04-15T03:20:33.001Z</time></trkpt><trkpt lat="-27.84050352777197" lon="114.68288430048987"><ele>195.66666666666666</ele><time>2026-04-15T03:20:34.001Z</time></trkpt><trkpt lat="-27.84044382907035" lon="114.68305260835642"><ele>196.0</ele><time>2026-04-15T03:20:35.001Z</time></trkpt><trkpt lat="-27.840394678940743" lon="114.68322263967734"><ele>196.0</ele><time>2026-04-15T03:20:36.001Z</time></trkpt><trkpt lat="-27.8403646677123" lon="114.68339098179159"><ele>196.0</ele><time>2026-04-15T03:20:37.001Z</time></trkpt><trkpt lat="-27.84034887843" lon="114.68358536127096"><ele>196.0</ele><time>2026-04-15T03:20:38.001Z</time></trkpt><trkpt lat="-27.840344285265406" lon="114.68380983312906"><ele>196.33333333333331</ele><time>2026-04-15T03:20:39.001Z</time></trkpt><trkpt lat="-27.840350396095076" lon="114.68405294147378"><ele>196.66666666666669</ele><time>2026-04-15T03:20:40.001Z</time></trkpt><trkpt lat="-27.84035773604126" lon="114.68430835729271"><ele>197.0</ele><time>2026-04-15T03:20:41.001Z</time></trkpt><trkpt lat="-27.84036030298212" lon="114.68454744302826"><ele>196.33333333333334</ele><time>2026-04-15T03:20:42.001Z</time></trkpt><trkpt lat="-27.840361401193" lon="114.68477037690512"><ele>195.66666666666669</ele><time>2026-04-15T03:20:43.001Z</time></trkpt><trkpt lat="-27.840362644969904" lon="114.68497971509674"><ele>195.0</ele><time>2026-04-15T03:20:44.001Z</time></trkpt><trkpt lat="-27.840365413784884" lon="114.68518673792654"><ele>194.33333333333331</ele><time>2026-04-15T03:20:45.001Z</time></trkpt><trkpt lat="-27.840362932679785" lon="114.68540038054506"><ele>193.66666666666666</ele><time>2026-04-15T03:20:46.001Z</time></trkpt><trkpt lat="-27.84036204416797" lon="114.6856165521167"><ele>193.0</ele><time>2026-04-15T03:20:47.001Z</time></trkpt><trkpt lat="-27.840362868607933" lon="114.68583690237895"><ele>193.0</ele><time>2026-04-15T03:20:48.001Z</time></trkpt><trkpt lat="-27.840365068829563" lon="114.68604734394638"><ele>193.0</ele><time>2026-04-15T03:20:49.001Z</time></trkpt><trkpt lat="-27.840364782771807" lon="114.68623489484513"><ele>193.0</ele><time>2026-04-15T03:20:50.001Z</time></trkpt><trkpt lat="-27.84036604920768" lon="114.68641143445781"><ele>193.33333333333331</ele><time>2026-04-15T03:20:51.001Z</time></trkpt><trkpt lat="-27.84036717340664" lon="114.68658432020348"><ele>193.66666666666669</ele><time>2026-04-15T03:20:52.001Z</time></trkpt><trkpt lat="-27.840366791263925" lon="114.68676895177416"><ele>194.0</ele><time>2026-04-15T03:20:53.001Z</time></trkpt><trkpt lat="-27.840369466936224" lon="114.6869511770559"><ele>194.66666666666669</ele><time>2026-04-15T03:20:54.001Z</time></trkpt><trkpt lat="-27.840374334993847" lon="114.68713278122662"><ele>195.33333333333331</ele><time>2026-04-15T03:20:55.001Z</time></trkpt><trkpt lat="-27.840379580073236" lon="114.6873110877288"><ele>196.0</ele><time>2026-04-15T03:20:56.001Z</time></trkpt><trkpt lat="-27.840376875526616" lon="114.68748237258507"><ele>196.0</ele><time>2026-04-15T03:20:57Z</time></trkpt><trkpt lat="-27.84037502800584" lon="114.68766637094389"><ele>196.0</ele><time>2026-04-15T03:20:58Z</time></trkpt><trkpt lat="-27.840375575758937" lon="114.68787896234566"><ele>196.0</ele><time>2026-04-15T03:20:59Z</time></trkpt><trkpt lat="-27.840373226430266" lon="114.68809667474251"><ele>196.0</ele><time>2026-04-15T03:21:00Z</time></trkpt><trkpt lat="-27.840372995229117" lon="114.68832398080129"><ele>196.0</ele><time>2026-04-15T03:21:01Z</time></trkpt><trkpt lat="-27.84037546888401" lon="114.68856892551024"><ele>196.0</ele><time>2026-04-15T03:21:02Z</time></trkpt><trkpt lat="-27.84038140334232" lon="114.6888160068169"><ele>195.66666666666666</ele><time>2026-04-15T03:21:03Z</time></trkpt><trkpt lat="-27.840382822915494" lon="114.68904141069652"><ele>195.33333333333331</ele><time>2026-04-15T03:21:04Z</time></trkpt><trkpt lat="-27.84038144693236" lon="114.68925485155944"><ele>195.0</ele><time>2026-04-15T03:21:05Z</time></trkpt><trkpt lat="-27.84038174362784" lon="114.68945572869258"><ele>194.0</ele><time>2026-04-15T03:21:06Z</time></trkpt><trkpt lat="-27.840381259187378" lon="114.68964697636412"><ele>193.0</ele><time>2026-04-15T03:21:07Z</time></trkpt><trkpt lat="-27.840382349826854" lon="114.68982186287323"><ele>192.0</ele><time>2026-04-15T03:21:08Z</time></trkpt><trkpt lat="-27.840386409180056" lon="114.68999305939101"><ele>192.0</ele><time>2026-04-15T03:21:09Z</time></trkpt><trkpt lat="-27.840390268531195" lon="114.69017746447425"><ele>192.0</ele><time>2026-04-15T03:21:10Z</time></trkpt><trkpt lat="-27.840388519000882" lon="114.69036846238163"><ele>192.0</ele><time>2026-04-15T03:21:11Z</time></trkpt><trkpt lat="-27.840387659113386" lon="114.69055340603995"><ele>192.66666666666669</ele><time>2026-04-15T03:21:12Z</time></trkpt><trkpt lat="-27.840386605648263" lon="114.69075438863027"><ele>193.33333333333334</ele><time>2026-04-15T03:21:13Z</time></trkpt><trkpt lat="-27.840384148555025" lon="114.69097036036787"><ele>194.0</ele><time>2026-04-15T03:21:14Z</time></trkpt><trkpt lat="-27.840375523375567" lon="114.69117349388777"><ele>194.0</ele><time>2026-04-15T03:21:15Z</time></trkpt><trkpt lat="-27.84036211336285" lon="114.6913736500909"><ele>194.0</ele><time>2026-04-15T03:21:16Z</time></trkpt><trkpt lat="-27.840336978315605" lon="114.69157445464131"><ele>194.0</ele><time>2026-04-15T03:21:17Z</time></trkpt><trkpt lat="-27.84030416537278" lon="114.69175193637209"><ele>194.0</ele><time>2026-04-15T03:21:18Z</time></trkpt><trkpt lat="-27.840267914954893" lon="114.6918994559715"><ele>194.0</ele><time>2026-04-15T03:21:19Z</time></trkpt><trkpt lat="-27.840231808352318" lon="114.69202634047936"><ele>194.0</ele><time>2026-04-15T03:21:20Z</time></trkpt><trkpt lat="-27.84020215237546" lon="114.69212537640095"><ele>194.0</ele><time>2026-04-15T03:21:21Z</time></trkpt><trkpt lat="-27.840179944550407" lon="114.69219311316529"><ele>194.0</ele><time>2026-04-15T03:21:22Z</time></trkpt><trkpt lat="-27.840141475783057" lon="114.69229776996991"><ele>193.79999999999998</ele><time>2026-04-15T03:21:24Z</time></trkpt><trkpt lat="-27.84010364317781" lon="114.69237424898404"><ele>193.6</ele><time>2026-04-15T03:21:26Z</time></trkpt><trkpt lat="-27.840080646804168" lon="114.6924431308491"><ele>193.4</ele><time>2026-04-15T03:21:29Z</time></trkpt><trkpt lat="-27.840099556895865" lon="114.69261572304949"><ele>193.2</ele><time>2026-04-15T03:21:31Z</time></trkpt><trkpt lat="-27.840094901859676" lon="114.69273839618391"><ele>193.0</ele><time>2026-04-15T03:21:32Z</time></trkpt><trkpt lat="-27.840077862126698" lon="114.6928693873511"><ele>194.25</ele><time>2026-04-15T03:21:33Z</time></trkpt><trkpt lat="-27.840054876782283" lon="114.69301663829542"><ele>195.5</ele><time>2026-04-15T03:21:34Z</time></trkpt><trkpt lat="-27.84003603865157" lon="114.69318737606002"><ele>196.75</ele><time>2026-04-15T03:21:35Z</time></trkpt><trkpt lat="-27.840025419135767" lon="114.69336806564617"><ele>198.0</ele><time>2026-04-15T03:21:36Z</time></trkpt><trkpt lat="-27.840020520288995" lon="114.69357697075141"><ele>199.0</ele><time>2026-04-15T03:21:37Z</time></trkpt><trkpt lat="-27.840023053704062" lon="114.69381278080652"><ele>200.0</ele><time>2026-04-15T03:21:38Z</time></trkpt><trkpt lat="-27.840031698437016" lon="114.69407612858345"><ele>201.0</ele><time>2026-04-15T03:21:39Z</time></trkpt><trkpt lat="-27.840042556495714" lon="114.69435125520646"><ele>201.5</ele><time>2026-04-15T03:21:40Z</time></trkpt><trkpt lat="-27.84005065982529" lon="114.69463530212845"><ele>202.0</ele><time>2026-04-15T03:21:41Z</time></trkpt><trkpt lat="-27.8400602387232" lon="114.69494156170775"><ele>204.0</ele><time>2026-04-15T03:21:42Z</time></trkpt><trkpt lat="-27.840069330280794" lon="114.6952610322751"><ele>206.0</ele><time>2026-04-15T03:21:43Z</time></trkpt><trkpt lat="-27.84007931258156" lon="114.69557318226794"><ele>206.0</ele><time>2026-04-15T03:21:44Z</time></trkpt><trkpt lat="-27.840091533367527" lon="114.69586230546038"><ele>206.0</ele><time>2026-04-15T03:21:45.001Z</time></trkpt><trkpt lat="-27.840101573200336" lon="114.69613307092598"><ele>207.0</ele><time>2026-04-15T03:21:46.001Z</time></trkpt><trkpt lat="-27.840110409266632" lon="114.6964024629657"><ele>208.0</ele><time>2026-04-15T03:21:47.001Z</time></trkpt><trkpt lat="-27.840116398213297" lon="114.69666076786403"><ele>208.0</ele><time>2026-04-15T03:21:48.001Z</time></trkpt><trkpt lat="-27.8401190535462" lon="114.69691873579588"><ele>208.0</ele><time>2026-04-15T03:21:49.001Z</time></trkpt><trkpt lat="-27.840111911761213" lon="114.6971894488488"><ele>207.0</ele><time>2026-04-15T03:21:50.001Z</time></trkpt><trkpt lat="-27.840094201116944" lon="114.69746875025935"><ele>206.0</ele><time>2026-04-15T03:21:51.001Z</time></trkpt><trkpt lat="-27.840065589860522" lon="114.69775578112"><ele>205.5</ele><time>2026-04-15T03:21:52.001Z</time></trkpt><trkpt lat="-27.840027161798872" lon="114.69805359634698"><ele>205.0</ele><time>2026-04-15T03:21:53.001Z</time></trkpt><trkpt lat="-27.83998212886703" lon="114.6983590786307"><ele>205.5</ele><time>2026-04-15T03:21:54.001Z</time></trkpt><trkpt lat="-27.839929158431065" lon="114.69866187816928"><ele>206.0</ele><time>2026-04-15T03:21:55.001Z</time></trkpt><trkpt lat="-27.83987588461887" lon="114.69894417111179"><ele>206.0</ele><time>2026-04-15T03:21:56.001Z</time></trkpt><trkpt lat="-27.83982297240992" lon="114.69921778208771"><ele>206.0</ele><time>2026-04-15T03:21:57.001Z</time></trkpt><trkpt lat="-27.839767827246416" lon="114.69948590672274"><ele>206.5</ele><time>2026-04-15T03:21:58.001Z</time></trkpt><trkpt lat="-27.839705936308405" lon="114.6997610100833"><ele>207.0</ele><time>2026-04-15T03:21:59.001Z</time></trkpt><trkpt lat="-27.83964103250478" lon="114.70003505638391"><ele>206.0</ele><time>2026-04-15T03:22:00.001Z</time></trkpt><trkpt lat="-27.839574379632296" lon="114.70031345658555"><ele>205.0</ele><time>2026-04-15T03:22:01.001Z</time></trkpt><trkpt lat="-27.839506277326652" lon="114.70059323617338"><ele>205.0</ele><time>2026-04-15T03:22:02.001Z</time></trkpt><trkpt lat="-27.8394350501987" lon="114.700879923167"><ele>205.0</ele><time>2026-04-15T03:22:03.001Z</time></trkpt><trkpt lat="-27.839362471836154" lon="114.70116564795254"><ele>202.5</ele><time>2026-04-15T03:22:04.001Z</time></trkpt><trkpt lat="-27.83929350482744" lon="114.70144793281082"><ele>200.0</ele><time>2026-04-15T03:22:05.001Z</time></trkpt><trkpt lat="-27.839230827942067" lon="114.70172222491158"><ele>199.5</ele><time>2026-04-15T03:22:06.001Z</time></trkpt><trkpt lat="-27.839171882419407" lon="114.70198372659313"><ele>199.0</ele><time>2026-04-15T03:22:07.001Z</time></trkpt><trkpt lat="-27.839117008208824" lon="114.70222875715682"><ele>199.0</ele><time>2026-04-15T03:22:08.001Z</time></trkpt><trkpt lat="-27.83906879378696" lon="114.702468210856"><ele>199.0</ele><time>2026-04-15T03:22:09.001Z</time></trkpt><trkpt lat="-27.83902092202103" lon="114.70273062025106"><ele>199.0</ele><time>2026-04-15T03:22:10.001Z</time></trkpt><trkpt lat="-27.838978640047696" lon="114.70301126645421"><ele>199.0</ele><time>2026-04-15T03:22:11.001Z</time></trkpt><trkpt lat="-27.838945055186638" lon="114.70329333764596"><ele>199.0</ele><time>2026-04-15T03:22:12.001Z</time></trkpt><trkpt lat="-27.83891570322201" lon="114.70357465988943"><ele>199.0</ele><time>2026-04-15T03:22:13.001Z</time></trkpt><trkpt lat="-27.838886726046155" lon="114.703861465757"><ele>198.0</ele><time>2026-04-15T03:22:14.001Z</time></trkpt><trkpt lat="-27.838856102304618" lon="114.70414747618702"><ele>197.0</ele><time>2026-04-15T03:22:15.001Z</time></trkpt><trkpt lat="-27.838823756908145" lon="114.70443555206839"><ele>196.0</ele><time>2026-04-15T03:22:16.001Z</time></trkpt><trkpt lat="-27.838789268535308" lon="114.70472215201234"><ele>195.0</ele><time>2026-04-15T03:22:17.001Z</time></trkpt><trkpt lat="-27.838756725236976" lon="114.70500701413683"><ele>194.5</ele><time>2026-04-15T03:22:18.001Z</time></trkpt><trkpt lat="-27.83872526218929" lon="114.70529280259798"><ele>194.0</ele><time>2026-04-15T03:22:19.001Z</time></trkpt><trkpt lat="-27.83869547237603" lon="114.70558084039425"><ele>194.0</ele><time>2026-04-15T03:22:20.001Z</time></trkpt><trkpt lat="-27.838661541109882" lon="114.7058747688318"><ele>194.0</ele><time>2026-04-15T03:22:21.001Z</time></trkpt><trkpt lat="-27.83862686691264" lon="114.70616867750206"><ele>193.5</ele><time>2026-04-15T03:22:22.001Z</time></trkpt><trkpt lat="-27.838593353446832" lon="114.70646328652096"><ele>193.0</ele><time>2026-04-15T03:22:23.001Z</time></trkpt><trkpt lat="-27.838561503654855" lon="114.70675810915857"><ele>193.5</ele><time>2026-04-15T03:22:24.001Z</time></trkpt><trkpt lat="-27.838528269143147" lon="114.70705130081855"><ele>194.0</ele><time>2026-04-15T03:22:25.001Z</time></trkpt><trkpt lat="-27.838495759139906" lon="114.70734764687916"><ele>193.0</ele><time>2026-04-15T03:22:26.001Z</time></trkpt><trkpt lat="-27.83846213933457" lon="114.7076381615286"><ele>192.0</ele><time>2026-04-15T03:22:27.001Z</time></trkpt><trkpt lat="-27.838428329714418" lon="114.70793192707971"><ele>191.0</ele><time>2026-04-15T03:22:28.001Z</time></trkpt><trkpt lat="-27.838396273858603" lon="114.70822187304557"><ele>190.0</ele><time>2026-04-15T03:22:29.001Z</time></trkpt><trkpt lat="-27.838362208688228" lon="114.70851412299011"><ele>189.0</ele><time>2026-04-15T03:22:30.001Z</time></trkpt><trkpt lat="-27.838328791687548" lon="114.70880355405463"><ele>188.0</ele><time>2026-04-15T03:22:31.001Z</time></trkpt><trkpt lat="-27.838296125967858" lon="114.7090869277006"><ele>188.0</ele><time>2026-04-15T03:22:32.001Z</time></trkpt><trkpt lat="-27.83826539267239" lon="114.70936389809611"><ele>188.0</ele><time>2026-04-15T03:22:33.001Z</time></trkpt><trkpt lat="-27.83823413748104" lon="114.70963966871365"><ele>188.0</ele><time>2026-04-15T03:22:34.001Z</time></trkpt><trkpt lat="-27.838202173960138" lon="114.70991436892936"><ele>188.0</ele><time>2026-04-15T03:22:35.001Z</time></trkpt><trkpt lat="-27.838167611325023" lon="114.71019897060334"><ele>188.0</ele><time>2026-04-15T03:22:36.001Z</time></trkpt><trkpt lat="-27.838133992442998" lon="114.71048394856197"><ele>188.0</ele><time>2026-04-15T03:22:37.001Z</time></trkpt><trkpt lat="-27.83810420391508" lon="114.71077326429558"><ele>188.0</ele><time>2026-04-15T03:22:38.001Z</time></trkpt><trkpt lat="-27.83807536426039" lon="114.71105927706782"><ele>188.0</ele><time>2026-04-15T03:22:39.001Z</time></trkpt><trkpt lat="-27.83804355408161" lon="114.71135362616285"><ele>187.5</ele><time>2026-04-15T03:22:40.001Z</time></trkpt><trkpt lat="-27.83801194746949" lon="114.71164728607279"><ele>187.0</ele><time>2026-04-15T03:22:41.001Z</time></trkpt><trkpt lat="-27.83797761909709" lon="114.71194990837373"><ele>188.0</ele><time>2026-04-15T03:22:42.001Z</time></trkpt><trkpt lat="-27.837942801333696" lon="114.71225076501646"><ele>189.0</ele><time>2026-04-15T03:22:43.001Z</time></trkpt><trkpt lat="-27.837907563148413" lon="114.71255260291215"><ele>188.5</ele><time>2026-04-15T03:22:44.001Z</time></trkpt><trkpt lat="-27.837873936510924" lon="114.71285158492906"><ele>188.0</ele><time>2026-04-15T03:22:45.001Z</time></trkpt><trkpt lat="-27.837840784042246" lon="114.71314983776642"><ele>188.0</ele><time>2026-04-15T03:22:46.001Z</time></trkpt><trkpt lat="-27.837808987080606" lon="114.71343935212545"><ele>188.0</ele><time>2026-04-15T03:22:47.001Z</time></trkpt><trkpt lat="-27.837776652362972" lon="114.71373080076019"><ele>188.0</ele><time>2026-04-15T03:22:48.001Z</time></trkpt><trkpt lat="-27.83774444710415" lon="114.71401512751929"><ele>188.0</ele><time>2026-04-15T03:22:49.001Z</time></trkpt><trkpt lat="-27.837711511704878" lon="114.71430287331115"><ele>188.0</ele><time>2026-04-15T03:22:50.001Z</time></trkpt><trkpt lat="-27.837681909654762" lon="114.71456873439504"><ele>188.0</ele><time>2026-04-15T03:22:51.001Z</time></trkpt><trkpt lat="-27.83765222008441" lon="114.71483145238247"><ele>187.5</ele><time>2026-04-15T03:22:52.001Z</time></trkpt><trkpt lat="-27.837622252110275" lon="114.7150903315132"><ele>187.0</ele><time>2026-04-15T03:22:53.001Z</time></trkpt><trkpt lat="-27.83759332863124" lon="114.71535090170626"><ele>186.66666666666669</ele><time>2026-04-15T03:22:54.001Z</time></trkpt><trkpt lat="-27.837563970279113" lon="114.71558685009137"><ele>186.33333333333334</ele><time>2026-04-15T03:22:55.001Z</time></trkpt><trkpt lat="-27.837539095474806" lon="114.71579527021163"><ele>186.0</ele><time>2026-04-15T03:22:56.001Z</time></trkpt><trkpt lat="-27.837515851509234" lon="114.71598795959525"><ele>185.66666666666666</ele><time>2026-04-15T03:22:57.001Z</time></trkpt><trkpt lat="-27.83749296031259" lon="114.71617200056588"><ele>185.33333333333331</ele><time>2026-04-15T03:22:58.001Z</time></trkpt><trkpt lat="-27.83747091762077" lon="114.71635327497508"><ele>185.0</ele><time>2026-04-15T03:22:59.001Z</time></trkpt><trkpt lat="-27.837447234701337" lon="114.71653513334203"><ele>185.0</ele><time>2026-04-15T03:23:00.001Z</time></trkpt><trkpt lat="-27.837419986717723" lon="114.71670018659215"><ele>185.0</ele><time>2026-04-15T03:23:01.001Z</time></trkpt><trkpt lat="-27.837365123422025" lon="114.71683934322577"><ele>185.0</ele><time>2026-04-15T03:23:02.001Z</time></trkpt><trkpt lat="-27.83731363952612" lon="114.71698120916281"><ele>185.0</ele><time>2026-04-15T03:23:03Z</time></trkpt><trkpt lat="-27.83725239188109" lon="114.71713298528816"><ele>185.0</ele><time>2026-04-15T03:23:04Z</time></trkpt><trkpt lat="-27.83715312880278" lon="114.71728028540427"><ele>185.0</ele><time>2026-04-15T03:23:05Z</time></trkpt><trkpt lat="-27.8370258074284" lon="114.71740543860447"><ele>185.0</ele><time>2026-04-15T03:23:06Z</time></trkpt><trkpt lat="-27.836903720141642" lon="114.71752920406644"><ele>185.33333333333331</ele><time>2026-04-15T03:23:07Z</time></trkpt><trkpt lat="-27.836783165832607" lon="114.71764409293773"><ele>185.66666666666666</ele><time>2026-04-15T03:23:08Z</time></trkpt><trkpt lat="-27.8366774330931" lon="114.71776783688377"><ele>186.0</ele><time>2026-04-15T03:23:09Z</time></trkpt><trkpt lat="-27.83656198657374" lon="114.71787924224722"><ele>186.0</ele><time>2026-04-15T03:23:10Z</time></trkpt><trkpt lat="-27.83644461633" lon="114.7180093493284"><ele>186.0</ele><time>2026-04-15T03:23:11Z</time></trkpt><trkpt lat="-27.836333249496185" lon="114.71815920683477"><ele>186.0</ele><time>2026-04-15T03:23:12Z</time></trkpt><trkpt lat="-27.836228280090143" lon="114.71832138585165"><ele>186.0</ele><time>2026-04-15T03:23:13Z</time></trkpt><trkpt lat="-27.836126356797674" lon="114.71850553211938"><ele>186.0</ele><time>2026-04-15T03:23:14Z</time></trkpt><trkpt lat="-27.836042321464923" lon="114.71870268350723"><ele>186.0</ele><time>2026-04-15T03:23:15Z</time></trkpt><trkpt lat="-27.835965084864892" lon="114.71892907093553"><ele>185.5</ele><time>2026-04-15T03:23:16Z</time></trkpt><trkpt lat="-27.835905218952117" lon="114.71917628186408"><ele>185.0</ele><time>2026-04-15T03:23:17Z</time></trkpt><trkpt lat="-27.83585689347822" lon="114.71944309316115"><ele>185.0</ele><time>2026-04-15T03:23:18Z</time></trkpt><trkpt lat="-27.835796797306784" lon="114.71973476107061"><ele>185.0</ele><time>2026-04-15T03:23:19Z</time></trkpt><trkpt lat="-27.835742976457336" lon="114.72002297811359"><ele>186.0</ele><time>2026-04-15T03:23:20Z</time></trkpt><trkpt lat="-27.83575256966505" lon="114.72033320724594"><ele>187.0</ele><time>2026-04-15T03:23:21Z</time></trkpt><trkpt lat="-27.835717587112946" lon="114.72063014340577"><ele>187.0</ele><time>2026-04-15T03:23:22Z</time></trkpt><trkpt lat="-27.835686373410166" lon="114.72092142028244"><ele>187.0</ele><time>2026-04-15T03:23:23Z</time></trkpt><trkpt lat="-27.835654947539535" lon="114.72121507917318"><ele>187.0</ele><time>2026-04-15T03:23:24Z</time></trkpt><trkpt lat="-27.835622172173778" lon="114.72150182100958"><ele>187.0</ele><time>2026-04-15T03:23:25Z</time></trkpt><trkpt lat="-27.835588787387398" lon="114.72178495988373"><ele>185.5</ele><time>2026-04-15T03:23:26Z</time></trkpt><trkpt lat="-27.835556372959413" lon="114.72206496792063"><ele>184.0</ele><time>2026-04-15T03:23:27Z</time></trkpt><trkpt lat="-27.835526468958584" lon="114.72234284370805"><ele>184.0</ele><time>2026-04-15T03:23:28Z</time></trkpt><trkpt lat="-27.835495704105135" lon="114.72262383431405"><ele>184.0</ele><time>2026-04-15T03:23:29Z</time></trkpt><trkpt lat="-27.83546693644861" lon="114.7228992497622"><ele>184.5</ele><time>2026-04-15T03:23:30Z</time></trkpt><trkpt lat="-27.835438614045046" lon="114.7231682586568"><ele>185.0</ele><time>2026-04-15T03:23:31Z</time></trkpt><trkpt lat="-27.8354058265052" lon="114.72343616900245"><ele>185.5</ele><time>2026-04-15T03:23:32Z</time></trkpt><trkpt lat="-27.835367901702835" lon="114.72370235124423"><ele>186.0</ele><time>2026-04-15T03:23:33Z</time></trkpt><trkpt lat="-27.835321178575295" lon="114.72397034298602"><ele>186.0</ele><time>2026-04-15T03:23:34Z</time></trkpt><trkpt lat="-27.83526449810685" lon="114.7242360627112"><ele>186.0</ele><time>2026-04-15T03:23:35Z</time></trkpt><trkpt lat="-27.835193756845236" lon="114.7244979439807"><ele>186.5</ele><time>2026-04-15T03:23:36Z</time></trkpt><trkpt lat="-27.8351055506423" lon="114.72476193858047"><ele>187.0</ele><time>2026-04-15T03:23:37Z</time></trkpt><trkpt lat="-27.83500675527521" lon="114.72502240544505"><ele>187.0</ele><time>2026-04-15T03:23:38Z</time></trkpt><trkpt lat="-27.83490230160988" lon="114.72528649267323"><ele>187.0</ele><time>2026-04-15T03:23:39Z</time></trkpt><trkpt lat="-27.834799387496076" lon="114.7255519693535"><ele>187.0</ele><time>2026-04-15T03:23:40Z</time></trkpt><trkpt lat="-27.83469808298672" lon="114.72582216747496"><ele>187.0</ele><time>2026-04-15T03:23:41Z</time></trkpt><trkpt lat="-27.834598456618814" lon="114.72608705969398"><ele>187.0</ele><time>2026-04-15T03:23:42Z</time></trkpt><trkpt lat="-27.83449462653087" lon="114.72635181443192"><ele>187.0</ele><time>2026-04-15T03:23:43Z</time></trkpt><trkpt lat="-27.834389280839574" lon="114.72661968310211"><ele>186.5</ele><time>2026-04-15T03:23:44Z</time></trkpt><trkpt lat="-27.834287411450568" lon="114.72688764432831"><ele>186.0</ele><time>2026-04-15T03:23:45Z</time></trkpt><trkpt lat="-27.834184352954455" lon="114.72716014181259"><ele>186.0</ele><time>2026-04-15T03:23:46Z</time></trkpt><trkpt lat="-27.834082948896178" lon="114.72742800634698"><ele>186.0</ele><time>2026-04-15T03:23:47Z</time></trkpt><trkpt lat="-27.833976856541696" lon="114.72769961834685"><ele>185.0</ele><time>2026-04-15T03:23:48Z</time></trkpt><trkpt lat="-27.833871027714093" lon="114.72797421413998"><ele>184.0</ele><time>2026-04-15T03:23:49Z</time></trkpt><trkpt lat="-27.833763513950608" lon="114.7282469137257"><ele>184.0</ele><time>2026-04-15T03:23:50Z</time></trkpt><trkpt lat="-27.83365994699001" lon="114.72851721399375"><ele>184.0</ele><time>2026-04-15T03:23:51Z</time></trkpt><trkpt lat="-27.833557671899175" lon="114.72878710870935"><ele>184.5</ele><time>2026-04-15T03:23:52Z</time></trkpt><trkpt lat="-27.83345527610882" lon="114.72905906711713"><ele>185.0</ele><time>2026-04-15T03:23:53Z</time></trkpt><trkpt lat="-27.833350317988263" lon="114.72933626363802"><ele>185.0</ele><time>2026-04-15T03:23:54Z</time></trkpt><trkpt lat="-27.833246894520126" lon="114.72961080258725"><ele>185.0</ele><time>2026-04-15T03:23:55Z</time></trkpt><trkpt lat="-27.83314841130057" lon="114.7298679339685"><ele>185.0</ele><time>2026-04-15T03:23:56Z</time></trkpt><trkpt lat="-27.833055764678882" lon="114.73011445948087"><ele>185.0</ele><time>2026-04-15T03:23:57Z</time></trkpt><trkpt lat="-27.832959171123704" lon="114.7303639923364"><ele>186.0</ele><time>2026-04-15T03:23:58Z</time></trkpt><trkpt lat="-27.83286268816886" lon="114.73061549289359"><ele>187.0</ele><time>2026-04-15T03:23:59Z</time></trkpt><trkpt lat="-27.83276509575543" lon="114.73087020403774"><ele>186.5</ele><time>2026-04-15T03:24:00Z</time></trkpt><trkpt lat="-27.832665688475302" lon="114.7311315520857"><ele>186.0</ele><time>2026-04-15T03:24:01Z</time></trkpt><trkpt lat="-27.832567334561283" lon="114.73138917972737"><ele>186.0</ele><time>2026-04-15T03:24:02Z</time></trkpt><trkpt lat="-27.83246812171889" lon="114.7316486608661"><ele>186.0</ele><time>2026-04-15T03:24:03Z</time></trkpt><trkpt lat="-27.832370114306848" lon="114.7319072266062"><ele>186.0</ele><time>2026-04-15T03:24:04Z</time></trkpt><trkpt lat="-27.832279197550633" lon="114.73215076806655"><ele>186.0</ele><time>2026-04-15T03:24:05Z</time></trkpt><trkpt lat="-27.83219157850648" lon="114.73238397170154"><ele>186.0</ele><time>2026-04-15T03:24:06Z</time></trkpt><trkpt lat="-27.832102232530808" lon="114.73261486342517"><ele>186.0</ele><time>2026-04-15T03:24:07.001Z</time></trkpt><trkpt lat="-27.832012241260298" lon="114.73284188763581"><ele>186.0</ele><time>2026-04-15T03:24:08.001Z</time></trkpt><trkpt lat="-27.831915945587614" lon="114.73307796322831"><ele>186.0</ele><time>2026-04-15T03:24:09.001Z</time></trkpt><trkpt lat="-27.831813642544077" lon="114.73332391282466"><ele>186.0</ele><time>2026-04-15T03:24:10.001Z</time></trkpt><trkpt lat="-27.831708731766565" lon="114.73357807088654"><ele>187.0</ele><time>2026-04-15T03:24:11.001Z</time></trkpt><trkpt lat="-27.831608363308657" lon="114.73383426477531"><ele>188.0</ele><time>2026-04-15T03:24:12.001Z</time></trkpt><trkpt lat="-27.831506560969796" lon="114.73408792938208"><ele>188.0</ele><time>2026-04-15T03:24:13.001Z</time></trkpt><trkpt lat="-27.831403332192558" lon="114.7343413386182"><ele>188.0</ele><time>2026-04-15T03:24:14.001Z</time></trkpt><trkpt lat="-27.83130118993869" lon="114.73459094501004"><ele>188.5</ele><time>2026-04-15T03:24:15.001Z</time></trkpt><trkpt lat="-27.83119623318541" lon="114.7348375581832"><ele>189.0</ele><time>2026-04-15T03:24:16.001Z</time></trkpt><trkpt lat="-27.831093925972723" lon="114.73508208978643"><ele>189.0</ele><time>2026-04-15T03:24:17.001Z</time></trkpt><trkpt lat="-27.830994700520232" lon="114.73532817974474"><ele>189.0</ele><time>2026-04-15T03:24:18.001Z</time></trkpt><trkpt lat="-27.830896886126" lon="114.73557507570409"><ele>189.0</ele><time>2026-04-15T03:24:19.001Z</time></trkpt><trkpt lat="-27.830797904674203" lon="114.73582253181742"><ele>189.0</ele><time>2026-04-15T03:24:20.001Z</time></trkpt><trkpt lat="-27.830696283064842" lon="114.73607086660883"><ele>189.0</ele><time>2026-04-15T03:24:21.001Z</time></trkpt><trkpt lat="-27.830593051451164" lon="114.73632103258882"><ele>189.0</ele><time>2026-04-15T03:24:22.001Z</time></trkpt><trkpt lat="-27.83048595887922" lon="114.736577742715"><ele>189.0</ele><time>2026-04-15T03:24:23.001Z</time></trkpt><trkpt lat="-27.830378211494626" lon="114.73683800039849"><ele>189.0</ele><time>2026-04-15T03:24:24.001Z</time></trkpt><trkpt lat="-27.830268094799447" lon="114.73710434093985"><ele>188.0</ele><time>2026-04-15T03:24:25.001Z</time></trkpt><trkpt lat="-27.830158437654102" lon="114.73736698017332"><ele>187.0</ele><time>2026-04-15T03:24:26.001Z</time></trkpt><trkpt lat="-27.830050601069114" lon="114.73763333363183"><ele>185.5</ele><time>2026-04-15T03:24:27.001Z</time></trkpt><trkpt lat="-27.829943110143073" lon="114.73789967695349"><ele>184.0</ele><time>2026-04-15T03:24:28.001Z</time></trkpt><trkpt lat="-27.82983995214251" lon="114.73816438652365"><ele>184.0</ele><time>2026-04-15T03:24:29.001Z</time></trkpt><trkpt lat="-27.829737342355173" lon="114.73843065551034"><ele>184.0</ele><time>2026-04-15T03:24:30.001Z</time></trkpt><trkpt lat="-27.829633333699228" lon="114.738701411722"><ele>185.5</ele><time>2026-04-15T03:24:31.001Z</time></trkpt><trkpt lat="-27.829526400029806" lon="114.73896943011972"><ele>187.0</ele><time>2026-04-15T03:24:32.001Z</time></trkpt><trkpt lat="-27.829425112389263" lon="114.73922539173645"><ele>186.5</ele><time>2026-04-15T03:24:33.001Z</time></trkpt><trkpt lat="-27.829321415971297" lon="114.73947597728124"><ele>186.0</ele><time>2026-04-15T03:24:34.001Z</time></trkpt><trkpt lat="-27.82922084153847" lon="114.73972836922088"><ele>187.0</ele><time>2026-04-15T03:24:35.001Z</time></trkpt><trkpt lat="-27.829114867094944" lon="114.7399845011017"><ele>188.0</ele><time>2026-04-15T03:24:36.001Z</time></trkpt><trkpt lat="-27.82901699591606" lon="114.74022183766233"><ele>189.0</ele><time>2026-04-15T03:24:37.001Z</time></trkpt><trkpt lat="-27.82892692344103" lon="114.74044176810513"><ele>190.0</ele><time>2026-04-15T03:24:38.001Z</time></trkpt><trkpt lat="-27.828832498766953" lon="114.7406595555627"><ele>191.0</ele><time>2026-04-15T03:24:39.001Z</time></trkpt><trkpt lat="-27.828731102847776" lon="114.74087685432973"><ele>191.33333333333331</ele><time>2026-04-15T03:24:40.001Z</time></trkpt><trkpt lat="-27.828626722133535" lon="114.74107513109925"><ele>191.66666666666666</ele><time>2026-04-15T03:24:41.001Z</time></trkpt><trkpt lat="-27.82850507406101" lon="114.74126074658398"><ele>192.0</ele><time>2026-04-15T03:24:42.001Z</time></trkpt><trkpt lat="-27.828361992931878" lon="114.74145347130246"><ele>190.5</ele><time>2026-04-15T03:24:43.001Z</time></trkpt><trkpt lat="-27.828204720658036" lon="114.74164512515345"><ele>189.0</ele><time>2026-04-15T03:24:44.001Z</time></trkpt><trkpt lat="-27.828036372493717" lon="114.74184218109197"><ele>190.0</ele><time>2026-04-15T03:24:45.001Z</time></trkpt><trkpt lat="-27.82786628637382" lon="114.74204520652798"><ele>191.0</ele><time>2026-04-15T03:24:46.001Z</time></trkpt><trkpt lat="-27.827695155059374" lon="114.74225463480181"><ele>190.0</ele><time>2026-04-15T03:24:47.001Z</time></trkpt><trkpt lat="-27.827519796136226" lon="114.74247108591679"><ele>189.0</ele><time>2026-04-15T03:24:48.001Z</time></trkpt><trkpt lat="-27.827345750813127" lon="114.74268511663715"><ele>189.0</ele><time>2026-04-15T03:24:49.001Z</time></trkpt><trkpt lat="-27.827169205050986" lon="114.74290186664666"><ele>189.0</ele><time>2026-04-15T03:24:50.001Z</time></trkpt><trkpt lat="-27.826996350706843" lon="114.74311505209407"><ele>189.0</ele><time>2026-04-15T03:24:51.001Z</time></trkpt><trkpt lat="-27.826820099885786" lon="114.74333469919326"><ele>189.0</ele><time>2026-04-15T03:24:52.001Z</time></trkpt><trkpt lat="-27.826641748826386" lon="114.74355332179108"><ele>188.0</ele><time>2026-04-15T03:24:53.001Z</time></trkpt><trkpt lat="-27.826458982386914" lon="114.74377531478667"><ele>187.0</ele><time>2026-04-15T03:24:54.001Z</time></trkpt><trkpt lat="-27.82627591303826" lon="114.74400013024302"><ele>187.0</ele><time>2026-04-15T03:24:55.001Z</time></trkpt><trkpt lat="-27.826095374524208" lon="114.74422588102439"><ele>187.0</ele><time>2026-04-15T03:24:56.001Z</time></trkpt><trkpt lat="-27.82591363630584" lon="114.74444993242716"><ele>187.0</ele><time>2026-04-15T03:24:57.001Z</time></trkpt><trkpt lat="-27.82573493717199" lon="114.74467067286793"><ele>187.0</ele><time>2026-04-15T03:24:58.001Z</time></trkpt><trkpt lat="-27.825557969312605" lon="114.74489198194429"><ele>187.0</ele><time>2026-04-15T03:24:59.001Z</time></trkpt><trkpt lat="-27.825378479152654" lon="114.74510959625158"><ele>187.0</ele><time>2026-04-15T03:25:00.001Z</time></trkpt><trkpt lat="-27.825196105380847" lon="114.74532889016348"><ele>187.5</ele><time>2026-04-15T03:25:01.001Z</time></trkpt><trkpt lat="-27.82500932243646" lon="114.74555050738864"><ele>188.0</ele><time>2026-04-15T03:25:02.001Z</time></trkpt><trkpt lat="-27.824822689604105" lon="114.74577135205573"><ele>188.0</ele><time>2026-04-15T03:25:03.001Z</time></trkpt><trkpt lat="-27.82463537024243" lon="114.74599320927246"><ele>188.0</ele><time>2026-04-15T03:25:04.001Z</time></trkpt><trkpt lat="-27.824449773591077" lon="114.74621528494436"><ele>188.0</ele><time>2026-04-15T03:25:05.001Z</time></trkpt><trkpt lat="-27.824263243756125" lon="114.74643923329461"><ele>188.0</ele><time>2026-04-15T03:25:06.001Z</time></trkpt><trkpt lat="-27.824078275140504" lon="114.74665917883176"><ele>188.5</ele><time>2026-04-15T03:25:07.001Z</time></trkpt><trkpt lat="-27.823896126603607" lon="114.74687951306063"><ele>189.0</ele><time>2026-04-15T03:25:08.001Z</time></trkpt><trkpt lat="-27.82371233198109" lon="114.74709972040904"><ele>189.0</ele><time>2026-04-15T03:25:09Z</time></trkpt><trkpt lat="-27.823530595992505" lon="114.7473174877038"><ele>189.0</ele><time>2026-04-15T03:25:10Z</time></trkpt><trkpt lat="-27.823345927736295" lon="114.74753722008937"><ele>188.0</ele><time>2026-04-15T03:25:11Z</time></trkpt><trkpt lat="-27.823162482017967" lon="114.74775562345931"><ele>187.0</ele><time>2026-04-15T03:25:12Z</time></trkpt><trkpt lat="-27.82297981093486" lon="114.74797126894852"><ele>187.0</ele><time>2026-04-15T03:25:13Z</time></trkpt><trkpt lat="-27.822798091738427" lon="114.74818804575726"><ele>187.0</ele><time>2026-04-15T03:25:14Z</time></trkpt><trkpt lat="-27.822614636857743" lon="114.74840703635877"><ele>187.5</ele><time>2026-04-15T03:25:15Z</time></trkpt><trkpt lat="-27.822432239995333" lon="114.74862376148803"><ele>188.0</ele><time>2026-04-15T03:25:16Z</time></trkpt><trkpt lat="-27.822250641895984" lon="114.7488416115845"><ele>188.0</ele><time>2026-04-15T03:25:17Z</time></trkpt><trkpt lat="-27.82207327700119" lon="114.7490523502492"><ele>188.0</ele><time>2026-04-15T03:25:18Z</time></trkpt><trkpt lat="-27.82189372608221" lon="114.7492658989916"><ele>188.0</ele><time>2026-04-15T03:25:19Z</time></trkpt><trkpt lat="-27.821716278678714" lon="114.74947994116985"><ele>188.0</ele><time>2026-04-15T03:25:20Z</time></trkpt><trkpt lat="-27.821539316753356" lon="114.74969013573751"><ele>188.0</ele><time>2026-04-15T03:25:21Z</time></trkpt><trkpt lat="-27.821362771377007" lon="114.74990305137332"><ele>188.0</ele><time>2026-04-15T03:25:22Z</time></trkpt><trkpt lat="-27.82119635938012" lon="114.75010736975203"><ele>187.0</ele><time>2026-04-15T03:25:23Z</time></trkpt><trkpt lat="-27.82104234037339" lon="114.7503026413482"><ele>186.0</ele><time>2026-04-15T03:25:24Z</time></trkpt><trkpt lat="-27.820899244226812" lon="114.75049965490015"><ele>186.0</ele><time>2026-04-15T03:25:25Z</time></trkpt><trkpt lat="-27.82076571317766" lon="114.75071203818574"><ele>186.0</ele><time>2026-04-15T03:25:26Z</time></trkpt><trkpt lat="-27.820648952311398" lon="114.75093846817678"><ele>186.5</ele><time>2026-04-15T03:25:27Z</time></trkpt><trkpt lat="-27.820552448139303" lon="114.75117520764812"><ele>187.0</ele><time>2026-04-15T03:25:28Z</time></trkpt><trkpt lat="-27.820470524768297" lon="114.7514268540814"><ele>187.0</ele><time>2026-04-15T03:25:29Z</time></trkpt><trkpt lat="-27.82039830763387" lon="114.75169289950713"><ele>187.0</ele><time>2026-04-15T03:25:30Z</time></trkpt><trkpt lat="-27.820347211023726" lon="114.75197233480706"><ele>187.0</ele><time>2026-04-15T03:25:31Z</time></trkpt><trkpt lat="-27.820305890304834" lon="114.75226103816482"><ele>187.0</ele><time>2026-04-15T03:25:32Z</time></trkpt><trkpt lat="-27.82027883074075" lon="114.75256370696123"><ele>188.0</ele><time>2026-04-15T03:25:33Z</time></trkpt><trkpt lat="-27.820251728623703" lon="114.7528758365509"><ele>189.0</ele><time>2026-04-15T03:25:34Z</time></trkpt><trkpt lat="-27.82022439220246" lon="114.75317678095867"><ele>189.0</ele><time>2026-04-15T03:25:35Z</time></trkpt><trkpt lat="-27.8201974310589" lon="114.75347215649943"><ele>189.0</ele><time>2026-04-15T03:25:36Z</time></trkpt><trkpt lat="-27.82016920338432" lon="114.75376351530286"><ele>188.0</ele><time>2026-04-15T03:25:37Z</time></trkpt><trkpt lat="-27.820143878055752" lon="114.7540585110555"><ele>187.0</ele><time>2026-04-15T03:25:38Z</time></trkpt><trkpt lat="-27.82012214986724" lon="114.75435638183278"><ele>188.0</ele><time>2026-04-15T03:25:39Z</time></trkpt><trkpt lat="-27.820107853768942" lon="114.75464902718466"><ele>189.0</ele><time>2026-04-15T03:25:40Z</time></trkpt><trkpt lat="-27.82009956617694" lon="114.75494297684494"><ele>188.0</ele><time>2026-04-15T03:25:41Z</time></trkpt><trkpt lat="-27.820101657437498" lon="114.75523638776977"><ele>187.0</ele><time>2026-04-15T03:25:42Z</time></trkpt><trkpt lat="-27.820109562954116" lon="114.75552895109817"><ele>187.0</ele><time>2026-04-15T03:25:43Z</time></trkpt><trkpt lat="-27.820116402002515" lon="114.75581634561918"><ele>187.0</ele><time>2026-04-15T03:25:44Z</time></trkpt><trkpt lat="-27.820120780151253" lon="114.75610481527217"><ele>187.0</ele><time>2026-04-15T03:25:45Z</time></trkpt><trkpt lat="-27.820124327574977" lon="114.75639503051723"><ele>187.0</ele><time>2026-04-15T03:25:46Z</time></trkpt><trkpt lat="-27.820128347696624" lon="114.75668480096122"><ele>187.0</ele><time>2026-04-15T03:25:47Z</time></trkpt><trkpt lat="-27.820134022909603" lon="114.75697744738699"><ele>187.0</ele><time>2026-04-15T03:25:48Z</time></trkpt><trkpt lat="-27.82014239511766" lon="114.75726997851628"><ele>187.0</ele><time>2026-04-15T03:25:49Z</time></trkpt><trkpt lat="-27.82014720043717" lon="114.75756645441933"><ele>187.0</ele><time>2026-04-15T03:25:50Z</time></trkpt><trkpt lat="-27.820149202081755" lon="114.75786835665784"><ele>188.0</ele><time>2026-04-15T03:25:51Z</time></trkpt><trkpt lat="-27.82015300950613" lon="114.75817252617635"><ele>189.0</ele><time>2026-04-15T03:25:52Z</time></trkpt><trkpt lat="-27.82015494548513" lon="114.75847650215118"><ele>189.5</ele><time>2026-04-15T03:25:53Z</time></trkpt><trkpt lat="-27.82015399572545" lon="114.7587755073141"><ele>190.0</ele><time>2026-04-15T03:25:54Z</time></trkpt><trkpt lat="-27.820151303560355" lon="114.75907792730418"><ele>189.5</ele><time>2026-04-15T03:25:55Z</time></trkpt><trkpt lat="-27.820149091264966" lon="114.75937979137193"><ele>189.0</ele><time>2026-04-15T03:25:56Z</time></trkpt><trkpt lat="-27.820147136547252" lon="114.75967992118885"><ele>189.0</ele><time>2026-04-15T03:25:57Z</time></trkpt><trkpt lat="-27.8201449012222" lon="114.7599842069816"><ele>189.0</ele><time>2026-04-15T03:25:58Z</time></trkpt><trkpt lat="-27.82014332382009" lon="114.76028391333483"><ele>189.5</ele><time>2026-04-15T03:25:59Z</time></trkpt><trkpt lat="-27.820140533671037" lon="114.76058489362568"><ele>190.0</ele><time>2026-04-15T03:26:00Z</time></trkpt><trkpt lat="-27.82013891297468" lon="114.76088983415163"><ele>188.5</ele><time>2026-04-15T03:26:01Z</time></trkpt><trkpt lat="-27.820139168380575" lon="114.76119209269174"><ele>187.0</ele><time>2026-04-15T03:26:02Z</time></trkpt><trkpt lat="-27.820139582382897" lon="114.76146874855526"><ele>187.0</ele><time>2026-04-15T03:26:03Z</time></trkpt><trkpt lat="-27.82014093444704" lon="114.76171969404486"><ele>187.0</ele><time>2026-04-15T03:26:04Z</time></trkpt><trkpt lat="-27.820141366557877" lon="114.76193253177826"><ele>187.0</ele><time>2026-04-15T03:26:05Z</time></trkpt><trkpt lat="-27.82014158249877" lon="114.76211130669621"><ele>187.25</ele><time>2026-04-15T03:26:06Z</time></trkpt><trkpt lat="-27.820142941064947" lon="114.76226964051412"><ele>187.5</ele><time>2026-04-15T03:26:07Z</time></trkpt><trkpt lat="-27.820142985376123" lon="114.7624217322122"><ele>187.75</ele><time>2026-04-15T03:26:08Z</time></trkpt><trkpt lat="-27.820142721507974" lon="114.76257787333691"><ele>188.0</ele><time>2026-04-15T03:26:09Z</time></trkpt><trkpt lat="-27.820146085560655" lon="114.76276388486443"><ele>188.33333333333331</ele><time>2026-04-15T03:26:10Z</time></trkpt><trkpt lat="-27.820148589278727" lon="114.76296463221544"><ele>188.66666666666666</ele><time>2026-04-15T03:26:11Z</time></trkpt><trkpt lat="-27.820143617836997" lon="114.76318110993941"><ele>189.0</ele><time>2026-04-15T03:26:12Z</time></trkpt><trkpt lat="-27.820137796854343" lon="114.7634011623564"><ele>189.0</ele><time>2026-04-15T03:26:13Z</time></trkpt><trkpt lat="-27.8201321578246" lon="114.76363151977824"><ele>189.0</ele><time>2026-04-15T03:26:14Z</time></trkpt><trkpt lat="-27.82012905422171" lon="114.76386985375412"><ele>189.0</ele><time>2026-04-15T03:26:15Z</time></trkpt><trkpt lat="-27.820127210157892" lon="114.76410238753516"><ele>189.0</ele><time>2026-04-15T03:26:16Z</time></trkpt><trkpt lat="-27.82012266262525" lon="114.76434289421151"><ele>189.0</ele><time>2026-04-15T03:26:17Z</time></trkpt><trkpt lat="-27.820117065706356" lon="114.76459820523374"><ele>189.0</ele><time>2026-04-15T03:26:18Z</time></trkpt><trkpt lat="-27.8201124990159" lon="114.76486769358523"><ele>188.5</ele><time>2026-04-15T03:26:19Z</time></trkpt><trkpt lat="-27.820108840094246" lon="114.76514005757478"><ele>188.0</ele><time>2026-04-15T03:26:20Z</time></trkpt><trkpt lat="-27.820105559116485" lon="114.76541259450796"><ele>187.5</ele><time>2026-04-15T03:26:21Z</time></trkpt><trkpt lat="-27.820101915175123" lon="114.76569890634865"><ele>187.0</ele><time>2026-04-15T03:26:22Z</time></trkpt><trkpt lat="-27.82009929006665" lon="114.76599239610299"><ele>188.0</ele><time>2026-04-15T03:26:23Z</time></trkpt><trkpt lat="-27.82009825599172" lon="114.76627968228479"><ele>189.0</ele><time>2026-04-15T03:26:24Z</time></trkpt><trkpt lat="-27.82009659593418" lon="114.76656113696912"><ele>189.0</ele><time>2026-04-15T03:26:25Z</time></trkpt><trkpt lat="-27.82009516161884" lon="114.76684916474026"><ele>189.0</ele><time>2026-04-15T03:26:26.001Z</time></trkpt><trkpt lat="-27.820095956757612" lon="114.76714353796109"><ele>189.5</ele><time>2026-04-15T03:26:27.001Z</time></trkpt><trkpt lat="-27.820096346619376" lon="114.76744056059331"><ele>190.0</ele><time>2026-04-15T03:26:28.001Z</time></trkpt><trkpt lat="-27.820096665199706" lon="114.76773726995354"><ele>190.0</ele><time>2026-04-15T03:26:29.001Z</time></trkpt><trkpt lat="-27.820094756017763" lon="114.76802866528924"><ele>190.0</ele><time>2026-04-15T03:26:30.001Z</time></trkpt><trkpt lat="-27.820091609424285" lon="114.76831938900395"><ele>190.0</ele><time>2026-04-15T03:26:31.001Z</time></trkpt><trkpt lat="-27.820086884161267" lon="114.76860963966546"><ele>190.0</ele><time>2026-04-15T03:26:32.001Z</time></trkpt><trkpt lat="-27.82008117637118" lon="114.76890001591559"><ele>190.0</ele><time>2026-04-15T03:26:33.001Z</time></trkpt><trkpt lat="-27.820076860769973" lon="114.76919088206401"><ele>190.0</ele><time>2026-04-15T03:26:34.001Z</time></trkpt><trkpt lat="-27.82007462875591" lon="114.76948345968356"><ele>190.5</ele><time>2026-04-15T03:26:35.001Z</time></trkpt><trkpt lat="-27.820073363856718" lon="114.76977962086487"><ele>191.0</ele><time>2026-04-15T03:26:36.001Z</time></trkpt><trkpt lat="-27.820071163343094" lon="114.77006907421939"><ele>191.5</ele><time>2026-04-15T03:26:37.001Z</time></trkpt><trkpt lat="-27.820068716245018" lon="114.770360109937"><ele>192.0</ele><time>2026-04-15T03:26:38.001Z</time></trkpt><trkpt lat="-27.82006586448383" lon="114.77064746635499"><ele>192.0</ele><time>2026-04-15T03:26:39.001Z</time></trkpt><trkpt lat="-27.82006488397905" lon="114.770939090632"><ele>192.0</ele><time>2026-04-15T03:26:40.001Z</time></trkpt><trkpt lat="-27.820064881496386" lon="114.77123399832793"><ele>191.5</ele><time>2026-04-15T03:26:41.001Z</time></trkpt><trkpt lat="-27.820063842605038" lon="114.77153250184297"><ele>191.0</ele><time>2026-04-15T03:26:42.001Z</time></trkpt><trkpt lat="-27.820062284339496" lon="114.7718235884968"><ele>191.0</ele><time>2026-04-15T03:26:43.001Z</time></trkpt><trkpt lat="-27.820057163812784" lon="114.77209627524894"><ele>191.0</ele><time>2026-04-15T03:26:44.001Z</time></trkpt><trkpt lat="-27.82004778953634" lon="114.77235197844008"><ele>191.0</ele><time>2026-04-15T03:26:45.001Z</time></trkpt><trkpt lat="-27.8200268944241" lon="114.77258990195968"><ele>191.0</ele><time>2026-04-15T03:26:46.001Z</time></trkpt><trkpt lat="-27.819992461853747" lon="114.77282983913"><ele>191.0</ele><time>2026-04-15T03:26:47.001Z</time></trkpt><trkpt lat="-27.81994261374822" lon="114.77306510442463"><ele>192.0</ele><time>2026-04-15T03:26:48.001Z</time></trkpt><trkpt lat="-27.819869343434696" lon="114.77332163459094"><ele>193.0</ele><time>2026-04-15T03:26:49.001Z</time></trkpt><trkpt lat="-27.81977996353222" lon="114.77357044838081"><ele>193.0</ele><time>2026-04-15T03:26:50.001Z</time></trkpt><trkpt lat="-27.819669710409492" lon="114.77383809834897"><ele>193.0</ele><time>2026-04-15T03:26:51.001Z</time></trkpt><trkpt lat="-27.81955845903144" lon="114.7741007324869"><ele>193.5</ele><time>2026-04-15T03:26:52.001Z</time></trkpt><trkpt lat="-27.819444915025368" lon="114.77437262161341"><ele>194.0</ele><time>2026-04-15T03:26:53.001Z</time></trkpt><trkpt lat="-27.819336954815896" lon="114.77464813082807"><ele>193.5</ele><time>2026-04-15T03:26:54.001Z</time></trkpt><trkpt lat="-27.819232387364877" lon="114.77491943399714"><ele>193.0</ele><time>2026-04-15T03:26:55.001Z</time></trkpt><trkpt lat="-27.819127913076073" lon="114.77518906772345"><ele>193.0</ele><time>2026-04-15T03:26:56.001Z</time></trkpt><trkpt lat="-27.819022227858234" lon="114.77545593020179"><ele>193.0</ele><time>2026-04-15T03:26:57.001Z</time></trkpt><trkpt lat="-27.81891658091713" lon="114.77572271380228"><ele>193.0</ele><time>2026-04-15T03:26:58.001Z</time></trkpt><trkpt lat="-27.818809551114413" lon="114.77599126336494"><ele>193.0</ele><time>2026-04-15T03:26:59.001Z</time></trkpt><trkpt lat="-27.818703623922474" lon="114.77626086940091"><ele>193.0</ele><time>2026-04-15T03:27:00.001Z</time></trkpt><trkpt lat="-27.81860141671128" lon="114.77652900301128"><ele>193.0</ele><time>2026-04-15T03:27:01.001Z</time></trkpt><trkpt lat="-27.818501115107217" lon="114.7767962399299"><ele>191.5</ele><time>2026-04-15T03:27:02.001Z</time></trkpt><trkpt lat="-27.81840022888625" lon="114.77706358386516"><ele>190.0</ele><time>2026-04-15T03:27:03.001Z</time></trkpt><trkpt lat="-27.81829906071851" lon="114.77732860031112"><ele>190.0</ele><time>2026-04-15T03:27:04.001Z</time></trkpt><trkpt lat="-27.818195168155388" lon="114.7775878463101"><ele>190.0</ele><time>2026-04-15T03:27:05.001Z</time></trkpt><trkpt lat="-27.818096436021786" lon="114.77783668729312"><ele>190.5</ele><time>2026-04-15T03:27:06.001Z</time></trkpt><trkpt lat="-27.817998498200364" lon="114.77807938868185"><ele>191.0</ele><time>2026-04-15T03:27:07.001Z</time></trkpt><trkpt lat="-27.817898563724995" lon="114.77832006842512"><ele>190.5</ele><time>2026-04-15T03:27:08.001Z</time></trkpt><trkpt lat="-27.81777038936258" lon="114.77855235965305"><ele>190.0</ele><time>2026-04-15T03:27:09.001Z</time></trkpt><trkpt lat="-27.817647219112605" lon="114.77879042152865"><ele>191.0</ele><time>2026-04-15T03:27:10.001Z</time></trkpt><trkpt lat="-27.817528909847233" lon="114.7790368513741"><ele>192.0</ele><time>2026-04-15T03:27:11.001Z</time></trkpt><trkpt lat="-27.817390753538493" lon="114.77927261856665"><ele>191.5</ele><time>2026-04-15T03:27:12.001Z</time></trkpt><trkpt lat="-27.817250725657004" lon="114.77951051390897"><ele>191.0</ele><time>2026-04-15T03:27:13.001Z</time></trkpt><trkpt lat="-27.8171138088693" lon="114.77974907306987"><ele>191.0</ele><time>2026-04-15T03:27:14.001Z</time></trkpt><trkpt lat="-27.816976623735137" lon="114.77999255688198"><ele>191.0</ele><time>2026-04-15T03:27:15Z</time></trkpt><trkpt lat="-27.816840093043407" lon="114.78023705231791"><ele>191.5</ele><time>2026-04-15T03:27:16Z</time></trkpt><trkpt lat="-27.81670201477867" lon="114.78048484736465"><ele>192.0</ele><time>2026-04-15T03:27:17Z</time></trkpt><trkpt lat="-27.81656477521691" lon="114.78073208145386"><ele>192.0</ele><time>2026-04-15T03:27:18Z</time></trkpt><trkpt lat="-27.816427432470853" lon="114.7809838057564"><ele>192.0</ele><time>2026-04-15T03:27:19Z</time></trkpt><trkpt lat="-27.816287203999984" lon="114.78124167238082"><ele>193.0</ele><time>2026-04-15T03:27:20Z</time></trkpt><trkpt lat="-27.81614240292319" lon="114.78150393548093"><ele>194.0</ele><time>2026-04-15T03:27:21Z</time></trkpt><trkpt lat="-27.81599431934772" lon="114.78177216911021"><ele>192.0</ele><time>2026-04-15T03:27:22Z</time></trkpt><trkpt lat="-27.81584687886282" lon="114.78204219325009"><ele>190.0</ele><time>2026-04-15T03:27:23Z</time></trkpt><trkpt lat="-27.815696127708826" lon="114.78231699066633"><ele>190.0</ele><time>2026-04-15T03:27:24Z</time></trkpt><trkpt lat="-27.815544287483846" lon="114.7825881200054"><ele>190.0</ele><time>2026-04-15T03:27:25Z</time></trkpt><trkpt lat="-27.815392121851293" lon="114.78285689130824"><ele>190.5</ele><time>2026-04-15T03:27:26Z</time></trkpt><trkpt lat="-27.81524395629772" lon="114.78312115151563"><ele>191.0</ele><time>2026-04-15T03:27:27Z</time></trkpt><trkpt lat="-27.81509588657386" lon="114.7833865093505"><ele>190.5</ele><time>2026-04-15T03:27:28Z</time></trkpt><trkpt lat="-27.814950235152743" lon="114.78364962540904"><ele>190.0</ele><time>2026-04-15T03:27:29Z</time></trkpt><trkpt lat="-27.814808785707186" lon="114.78390817779137"><ele>190.0</ele><time>2026-04-15T03:27:30Z</time></trkpt><trkpt lat="-27.814666965890577" lon="114.78416976362175"><ele>190.0</ele><time>2026-04-15T03:27:31Z</time></trkpt><trkpt lat="-27.8145268302221" lon="114.78442707558607"><ele>192.0</ele><time>2026-04-15T03:27:32Z</time></trkpt><trkpt lat="-27.814387151668225" lon="114.78468045677215"><ele>194.0</ele><time>2026-04-15T03:27:33Z</time></trkpt><trkpt lat="-27.81424853359745" lon="114.78492945168084"><ele>194.0</ele><time>2026-04-15T03:27:34Z</time></trkpt><trkpt lat="-27.814113569253312" lon="114.7851742133978"><ele>194.0</ele><time>2026-04-15T03:27:35Z</time></trkpt><trkpt lat="-27.813980407691044" lon="114.78541781796206"><ele>195.5</ele><time>2026-04-15T03:27:36Z</time></trkpt><trkpt lat="-27.813844342662147" lon="114.78565815647453"><ele>197.0</ele><time>2026-04-15T03:27:37Z</time></trkpt><trkpt lat="-27.813710923256494" lon="114.78589430470359"><ele>197.5</ele><time>2026-04-15T03:27:38Z</time></trkpt><trkpt lat="-27.813582068674886" lon="114.78612042025247"><ele>198.0</ele><time>2026-04-15T03:27:39Z</time></trkpt><trkpt lat="-27.81346636502115" lon="114.7863267676391"><ele>198.0</ele><time>2026-04-15T03:27:40Z</time></trkpt><trkpt lat="-27.813346562382886" lon="114.78652935999602"><ele>198.0</ele><time>2026-04-15T03:27:41Z</time></trkpt><trkpt lat="-27.813222993758263" lon="114.78672587173112"><ele>198.0</ele><time>2026-04-15T03:27:42Z</time></trkpt><trkpt lat="-27.813086831920007" lon="114.78692172818066"><ele>198.33333333333331</ele><time>2026-04-15T03:27:43Z</time></trkpt><trkpt lat="-27.812942209928703" lon="114.78710901689244"><ele>198.66666666666666</ele><time>2026-04-15T03:27:44Z</time></trkpt><trkpt lat="-27.812785513059726" lon="114.78729153446724"><ele>199.0</ele><time>2026-04-15T03:27:45Z</time></trkpt><trkpt lat="-27.812623844446573" lon="114.78746470305109"><ele>199.0</ele><time>2026-04-15T03:27:46Z</time></trkpt><trkpt lat="-27.81245570530647" lon="114.78763154687812"><ele>199.0</ele><time>2026-04-15T03:27:47Z</time></trkpt><trkpt lat="-27.812275815220392" lon="114.78779875624365"><ele>199.0</ele><time>2026-04-15T03:27:48Z</time></trkpt><trkpt lat="-27.8120932311608" lon="114.78796528567885"><ele>199.0</ele><time>2026-04-15T03:27:49Z</time></trkpt><trkpt lat="-27.811910143057023" lon="114.78813274419726"><ele>198.66666666666666</ele><time>2026-04-15T03:27:50Z</time></trkpt><trkpt lat="-27.81174407900952" lon="114.78828791729826"><ele>198.33333333333331</ele><time>2026-04-15T03:27:51Z</time></trkpt><trkpt lat="-27.8115889103202" lon="114.78843496645806"><ele>198.0</ele><time>2026-04-15T03:27:52Z</time></trkpt><trkpt lat="-27.811446399682623" lon="114.7885675516982"><ele>198.0</ele><time>2026-04-15T03:27:53Z</time></trkpt><trkpt lat="-27.811316284602444" lon="114.78869421038775"><ele>198.0</ele><time>2026-04-15T03:27:54Z</time></trkpt><trkpt lat="-27.81120377070686" lon="114.78881270669523"><ele>198.0</ele><time>2026-04-15T03:27:55Z</time></trkpt><trkpt lat="-27.811094335509978" lon="114.78894243444545"><ele>198.0</ele><time>2026-04-15T03:27:56Z</time></trkpt><trkpt lat="-27.810991407996244" lon="114.7890791634464"><ele>198.0</ele><time>2026-04-15T03:27:57Z</time></trkpt><trkpt lat="-27.810890835334018" lon="114.78922974337642"><ele>198.0</ele><time>2026-04-15T03:27:58Z</time></trkpt><trkpt lat="-27.81079722344142" lon="114.78940045166684"><ele>198.33333333333331</ele><time>2026-04-15T03:27:59Z</time></trkpt><trkpt lat="-27.810704912481242" lon="114.78959243055276"><ele>198.66666666666666</ele><time>2026-04-15T03:28:00Z</time></trkpt><trkpt lat="-27.81062663262155" lon="114.7897941822233"><ele>199.0</ele><time>2026-04-15T03:28:01Z</time></trkpt><trkpt lat="-27.810546985860064" lon="114.79001431966614"><ele>199.66666666666666</ele><time>2026-04-15T03:28:02Z</time></trkpt><trkpt lat="-27.810488512625355" lon="114.79023771095466"><ele>200.33333333333331</ele><time>2026-04-15T03:28:03Z</time></trkpt><trkpt lat="-27.810430577375037" lon="114.79047385014616"><ele>201.0</ele><time>2026-04-15T03:28:04Z</time></trkpt><trkpt lat="-27.81037541229176" lon="114.79072328066268"><ele>201.0</ele><time>2026-04-15T03:28:05Z</time></trkpt><trkpt lat="-27.81031378715578" lon="114.79099055604648"><ele>201.0</ele><time>2026-04-15T03:28:06Z</time></trkpt><trkpt lat="-27.810258020676354" lon="114.7912377671463"><ele>201.5</ele><time>2026-04-15T03:28:07Z</time></trkpt><trkpt lat="-27.8101958419078" lon="114.79150166350868"><ele>202.0</ele><time>2026-04-15T03:28:08Z</time></trkpt><trkpt lat="-27.81013166458368" lon="114.79177118582993"><ele>201.0</ele><time>2026-04-15T03:28:09Z</time></trkpt><trkpt lat="-27.810070858927133" lon="114.79203636185228"><ele>200.0</ele><time>2026-04-15T03:28:10Z</time></trkpt><trkpt lat="-27.810009586966256" lon="114.79230567450116"><ele>200.0</ele><time>2026-04-15T03:28:11Z</time></trkpt><trkpt lat="-27.809953372430314" lon="114.79257649980826"><ele>200.0</ele><time>2026-04-15T03:28:12Z</time></trkpt><trkpt lat="-27.809900208775332" lon="114.79285241679254"><ele>198.5</ele><time>2026-04-15T03:28:13Z</time></trkpt><trkpt lat="-27.809850867476456" lon="114.79312625062201"><ele>197.0</ele><time>2026-04-15T03:28:14Z</time></trkpt><trkpt lat="-27.809802538748418" lon="114.79339032529698"><ele>196.66666666666669</ele><time>2026-04-15T03:28:15Z</time></trkpt><trkpt lat="-27.8097575448527" lon="114.79364197282925"><ele>196.33333333333331</ele><time>2026-04-15T03:28:16Z</time></trkpt><trkpt lat="-27.809714571225566" lon="114.79388737617279"><ele>196.0</ele><time>2026-04-15T03:28:17Z</time></trkpt><trkpt lat="-27.809673217409305" lon="114.79412414943874"><ele>197.66666666666666</ele><time>2026-04-15T03:28:18Z</time></trkpt><trkpt lat="-27.80962784085101" lon="114.79435012293382"><ele>199.33333333333331</ele><time>2026-04-15T03:28:19Z</time></trkpt><trkpt lat="-27.809587257493416" lon="114.79457740888233"><ele>201.0</ele><time>2026-04-15T03:28:20Z</time></trkpt><trkpt lat="-27.80955112160533" lon="114.79481272034192"><ele>201.0</ele><time>2026-04-15T03:28:21Z</time></trkpt><trkpt lat="-27.8095187527369" lon="114.7950551997365"><ele>201.0</ele><time>2026-04-15T03:28:22Z</time></trkpt><trkpt lat="-27.80949036941035" lon="114.79531739479563"><ele>201.0</ele><time>2026-04-15T03:28:23Z</time></trkpt><trkpt lat="-27.809467965999822" lon="114.79558309342927"><ele>201.0</ele><time>2026-04-15T03:28:24Z</time></trkpt><trkpt lat="-27.80945433546777" lon="114.79585664448723"><ele>201.0</ele><time>2026-04-15T03:28:25Z</time></trkpt><trkpt lat="-27.80944338856555" lon="114.79613413632003"><ele>201.0</ele><time>2026-04-15T03:28:26Z</time></trkpt><trkpt lat="-27.809440359592802" lon="114.79641110736989"><ele>201.0</ele><time>2026-04-15T03:28:27Z</time></trkpt><trkpt lat="-27.8094383079235" lon="114.79668968773126"><ele>201.0</ele><time>2026-04-15T03:28:28Z</time></trkpt><trkpt lat="-27.80943495637434" lon="114.79696743717024"><ele>200.0</ele><time>2026-04-15T03:28:29Z</time></trkpt><trkpt lat="-27.809430015289472" lon="114.79725149868108"><ele>199.0</ele><time>2026-04-15T03:28:30Z</time></trkpt><trkpt lat="-27.809426127583357" lon="114.7975314499438"><ele>197.5</ele><time>2026-04-15T03:28:31Z</time></trkpt><trkpt lat="-27.80942311357799" lon="114.79781317100513"><ele>196.0</ele><time>2026-04-15T03:28:32Z</time></trkpt><trkpt lat="-27.809421269071713" lon="114.79809936002235"><ele>196.0</ele><time>2026-04-15T03:28:33Z</time></trkpt><trkpt lat="-27.809418326851564" lon="114.79838975725272"><ele>196.0</ele><time>2026-04-15T03:28:34Z</time></trkpt><trkpt lat="-27.809419180464168" lon="114.79868259496986"><ele>195.5</ele><time>2026-04-15T03:28:35Z</time></trkpt><trkpt lat="-27.809421044627825" lon="114.79897810308744"><ele>195.0</ele><time>2026-04-15T03:28:36Z</time></trkpt><trkpt lat="-27.8094223760872" lon="114.79927979617351"><ele>196.0</ele><time>2026-04-15T03:28:37Z</time></trkpt><trkpt lat="-27.809423386999583" lon="114.7995676127708"><ele>197.0</ele><time>2026-04-15T03:28:38Z</time></trkpt><trkpt lat="-27.8094224028364" lon="114.79984368309859"><ele>197.0</ele><time>2026-04-15T03:28:39.001Z</time></trkpt><trkpt lat="-27.809422700248348" lon="114.80011962781383"><ele>197.0</ele><time>2026-04-15T03:28:40.001Z</time></trkpt><trkpt lat="-27.809427100995514" lon="114.80039067867037"><ele>196.5</ele><time>2026-04-15T03:28:41.001Z</time></trkpt><trkpt lat="-27.809431782022255" lon="114.80065925227139"><ele>196.0</ele><time>2026-04-15T03:28:42.001Z</time></trkpt><trkpt lat="-27.809434248013574" lon="114.80091871589579"><ele>195.66666666666666</ele><time>2026-04-15T03:28:43.001Z</time></trkpt><trkpt lat="-27.80943427967884" lon="114.80116438261116"><ele>195.33333333333331</ele><time>2026-04-15T03:28:44.001Z</time></trkpt><trkpt lat="-27.809433629311346" lon="114.80140710922782"><ele>195.0</ele><time>2026-04-15T03:28:45.001Z</time></trkpt><trkpt lat="-27.809427109378962" lon="114.8016510465048"><ele>194.33333333333331</ele><time>2026-04-15T03:28:46.001Z</time></trkpt><trkpt lat="-27.809410663230068" lon="114.80188900367901"><ele>193.66666666666666</ele><time>2026-04-15T03:28:47.001Z</time></trkpt><trkpt lat="-27.809375475380513" lon="114.80213280652093"><ele>193.0</ele><time>2026-04-15T03:28:48.001Z</time></trkpt><trkpt lat="-27.809320664714146" lon="114.8023898328166"><ele>191.5</ele><time>2026-04-15T03:28:49.001Z</time></trkpt><trkpt lat="-27.80924705142968" lon="114.80265352082839"><ele>190.0</ele><time>2026-04-15T03:28:50.001Z</time></trkpt><trkpt lat="-27.809150252492053" lon="114.8029314166567"><ele>189.0</ele><time>2026-04-15T03:28:51.001Z</time></trkpt><trkpt lat="-27.809040904411315" lon="114.80320420680161"><ele>188.0</ele><time>2026-04-15T03:28:52.001Z</time></trkpt><trkpt lat="-27.80893083063946" lon="114.80347130257479"><ele>189.0</ele><time>2026-04-15T03:28:53.001Z</time></trkpt><trkpt lat="-27.808826960746515" lon="114.80372939830421"><ele>190.0</ele><time>2026-04-15T03:28:54.001Z</time></trkpt><trkpt lat="-27.808720328013873" lon="114.80398987229673"><ele>190.0</ele><time>2026-04-15T03:28:55.001Z</time></trkpt><trkpt lat="-27.808614877658975" lon="114.8042506265949"><ele>190.0</ele><time>2026-04-15T03:28:56.001Z</time></trkpt><trkpt lat="-27.808516969242376" lon="114.80450196603834"><ele>190.5</ele><time>2026-04-15T03:28:57.001Z</time></trkpt><trkpt lat="-27.808417810470356" lon="114.80475708031616"><ele>191.0</ele><time>2026-04-15T03:28:58.001Z</time></trkpt><trkpt lat="-27.808316598558307" lon="114.80500959001694"><ele>191.5</ele><time>2026-04-15T03:28:59.001Z</time></trkpt><trkpt lat="-27.808204765745646" lon="114.80525926644607"><ele>192.0</ele><time>2026-04-15T03:29:00.001Z</time></trkpt><trkpt lat="-27.808082788034195" lon="114.80550446161212"><ele>192.0</ele><time>2026-04-15T03:29:01.001Z</time></trkpt><trkpt lat="-27.807945864524125" lon="114.80574889575095"><ele>192.0</ele><time>2026-04-15T03:29:02.001Z</time></trkpt><trkpt lat="-27.80779864244878" lon="114.80598388347316"><ele>192.0</ele><time>2026-04-15T03:29:03.001Z</time></trkpt><trkpt lat="-27.807635077945026" lon="114.80621607847146"><ele>192.0</ele><time>2026-04-15T03:29:04.001Z</time></trkpt><trkpt lat="-27.807467414645508" lon="114.80643980810123"><ele>192.0</ele><time>2026-04-15T03:29:05.001Z</time></trkpt><trkpt lat="-27.807290755275687" lon="114.80665514530902"><ele>192.0</ele><time>2026-04-15T03:29:06.001Z</time></trkpt><trkpt lat="-27.807106029484903" lon="114.80686710067737"><ele>192.5</ele><time>2026-04-15T03:29:07.001Z</time></trkpt><trkpt lat="-27.806919505723883" lon="114.80707367838518"><ele>193.0</ele><time>2026-04-15T03:29:08.001Z</time></trkpt><trkpt lat="-27.806733398387674" lon="114.80727669939158"><ele>192.5</ele><time>2026-04-15T03:29:09.001Z</time></trkpt><trkpt lat="-27.80654504358746" lon="114.80747905972694"><ele>192.0</ele><time>2026-04-15T03:29:10.001Z</time></trkpt><trkpt lat="-27.806351745004186" lon="114.80768192403062"><ele>192.0</ele><time>2026-04-15T03:29:11.001Z</time></trkpt><trkpt lat="-27.806155410513412" lon="114.80788776193383"><ele>192.0</ele><time>2026-04-15T03:29:12.001Z</time></trkpt><trkpt lat="-27.80595999091878" lon="114.80809449271604"><ele>192.5</ele><time>2026-04-15T03:29:13.001Z</time></trkpt><trkpt lat="-27.80576375002118" lon="114.80830629913822"><ele>193.0</ele><time>2026-04-15T03:29:14.001Z</time></trkpt><trkpt lat="-27.805568163635648" lon="114.8085216617565"><ele>193.0</ele><time>2026-04-15T03:29:15.001Z</time></trkpt><trkpt lat="-27.80537286720205" lon="114.8087387687319"><ele>193.0</ele><time>2026-04-15T03:29:16.001Z</time></trkpt><trkpt lat="-27.805179899177173" lon="114.80896221338337"><ele>193.0</ele><time>2026-04-15T03:29:17.001Z</time></trkpt><trkpt lat="-27.804990695929344" lon="114.80918864618813"><ele>193.0</ele><time>2026-04-15T03:29:18.001Z</time></trkpt><trkpt lat="-27.804800055356615" lon="114.80941689354303"><ele>192.5</ele><time>2026-04-15T03:29:19.001Z</time></trkpt><trkpt lat="-27.80460822436017" lon="114.80964637118903"><ele>192.0</ele><time>2026-04-15T03:29:20.001Z</time></trkpt><trkpt lat="-27.804418895533143" lon="114.80987565145925"><ele>192.0</ele><time>2026-04-15T03:29:21Z</time></trkpt><trkpt lat="-27.804228466783275" lon="114.81010528436536"><ele>192.0</ele><time>2026-04-15T03:29:22Z</time></trkpt><trkpt lat="-27.804038786770995" lon="114.81033407322622"><ele>192.0</ele><time>2026-04-15T03:29:23Z</time></trkpt><trkpt lat="-27.80385011952298" lon="114.81056228821275"><ele>192.0</ele><time>2026-04-15T03:29:24Z</time></trkpt><trkpt lat="-27.80365732567217" lon="114.81079329555698"><ele>192.0</ele><time>2026-04-15T03:29:25Z</time></trkpt><trkpt lat="-27.80347350843263" lon="114.81101676801386"><ele>192.0</ele><time>2026-04-15T03:29:26Z</time></trkpt><trkpt lat="-27.803296112097954" lon="114.8112390015892"><ele>192.0</ele><time>2026-04-15T03:29:27Z</time></trkpt><trkpt lat="-27.80312551367342" lon="114.81145778203401"><ele>192.0</ele><time>2026-04-15T03:29:28Z</time></trkpt><trkpt lat="-27.80295614137719" lon="114.81167200520281"><ele>192.0</ele><time>2026-04-15T03:29:29Z</time></trkpt><trkpt lat="-27.802793351970152" lon="114.81187031570931"><ele>192.0</ele><time>2026-04-15T03:29:30Z</time></trkpt><trkpt lat="-27.802636188459456" lon="114.81205546087328"><ele>192.0</ele><time>2026-04-15T03:29:31Z</time></trkpt><trkpt lat="-27.80248337622411" lon="114.81222319289544"><ele>192.0</ele><time>2026-04-15T03:29:32Z</time></trkpt><trkpt lat="-27.802324008931294" lon="114.81237773495226"><ele>192.0</ele><time>2026-04-15T03:29:33Z</time></trkpt><trkpt lat="-27.802150827227916" lon="114.81252053265504"><ele>192.0</ele><time>2026-04-15T03:29:34Z</time></trkpt><trkpt lat="-27.801969574391556" lon="114.81265170114703"><ele>192.0</ele><time>2026-04-15T03:29:35Z</time></trkpt><trkpt lat="-27.801792005475257" lon="114.81276396041947"><ele>192.0</ele><time>2026-04-15T03:29:36Z</time></trkpt><trkpt lat="-27.801605475090547" lon="114.81285616037631"><ele>191.33333333333334</ele><time>2026-04-15T03:29:37Z</time></trkpt><trkpt lat="-27.801401907135702" lon="114.8129356914185"><ele>190.66666666666669</ele><time>2026-04-15T03:29:38Z</time></trkpt><trkpt lat="-27.801192972711693" lon="114.81299599188813"><ele>190.0</ele><time>2026-04-15T03:29:39Z</time></trkpt><trkpt lat="-27.80098270831485" lon="114.81303774997987"><ele>190.0</ele><time>2026-04-15T03:29:40Z</time></trkpt><trkpt lat="-27.800775718803216" lon="114.8130539114892"><ele>190.0</ele><time>2026-04-15T03:29:41Z</time></trkpt><trkpt lat="-27.800570420758696" lon="114.81305229496107"><ele>190.0</ele><time>2026-04-15T03:29:42Z</time></trkpt><trkpt lat="-27.80035698024062" lon="114.81302924882029"><ele>190.33333333333334</ele><time>2026-04-15T03:29:43Z</time></trkpt><trkpt lat="-27.800153240890495" lon="114.81298600967564"><ele>190.66666666666666</ele><time>2026-04-15T03:29:44Z</time></trkpt><trkpt lat="-27.799951988084448" lon="114.81291214083315"><ele>191.0</ele><time>2026-04-15T03:29:45Z</time></trkpt><trkpt lat="-27.799748199350798" lon="114.81281439908192"><ele>191.0</ele><time>2026-04-15T03:29:46Z</time></trkpt><trkpt lat="-27.799551340214503" lon="114.81269861742351"><ele>191.0</ele><time>2026-04-15T03:29:47Z</time></trkpt><trkpt lat="-27.799357887964565" lon="114.81255486321677"><ele>191.0</ele><time>2026-04-15T03:29:48Z</time></trkpt><trkpt lat="-27.7991642198762" lon="114.81238610040342"><ele>191.0</ele><time>2026-04-15T03:29:49Z</time></trkpt><trkpt lat="-27.79898005191284" lon="114.81220823837637"><ele>191.0</ele><time>2026-04-15T03:29:50Z</time></trkpt><trkpt lat="-27.798817401690755" lon="114.8120394020484"><ele>191.0</ele><time>2026-04-15T03:29:51Z</time></trkpt><trkpt lat="-27.79866003765678" lon="114.81187217267329"><ele>191.0</ele><time>2026-04-15T03:29:52Z</time></trkpt><trkpt lat="-27.798495421072882" lon="114.81171581186798"><ele>191.0</ele><time>2026-04-15T03:29:53Z</time></trkpt><trkpt lat="-27.7983278129148" lon="114.81157210043862"><ele>191.0</ele><time>2026-04-15T03:29:54Z</time></trkpt><trkpt lat="-27.798156232052683" lon="114.81144718414549"><ele>191.0</ele><time>2026-04-15T03:29:55Z</time></trkpt><trkpt lat="-27.79798157949723" lon="114.8113441132167"><ele>191.0</ele><time>2026-04-15T03:29:56Z</time></trkpt><trkpt lat="-27.79780065476775" lon="114.81126573933729"><ele>191.0</ele><time>2026-04-15T03:29:57Z</time></trkpt><trkpt lat="-27.797619359619315" lon="114.81121673331572"><ele>191.0</ele><time>2026-04-15T03:29:58Z</time></trkpt><trkpt lat="-27.79743647761704" lon="114.81119574511676"><ele>191.33333333333331</ele><time>2026-04-15T03:29:59Z</time></trkpt><trkpt lat="-27.79724102530472" lon="114.81120529444387"><ele>191.66666666666666</ele><time>2026-04-15T03:30:00Z</time></trkpt><trkpt lat="-27.797036327144692" lon="114.81123720397585"><ele>192.0</ele><time>2026-04-15T03:30:01Z</time></trkpt><trkpt lat="-27.796814250538834" lon="114.81128683859451"><ele>192.0</ele><time>2026-04-15T03:30:02Z</time></trkpt><trkpt lat="-27.79657893386745" lon="114.81134461714723"><ele>192.0</ele><time>2026-04-15T03:30:03Z</time></trkpt><trkpt lat="-27.79633663592857" lon="114.81140740446635"><ele>192.0</ele><time>2026-04-15T03:30:04Z</time></trkpt><trkpt lat="-27.796088894771625" lon="114.81146881961544"><ele>192.0</ele><time>2026-04-15T03:30:05Z</time></trkpt><trkpt lat="-27.795848660201077" lon="114.81152752260971"><ele>191.5</ele><time>2026-04-15T03:30:06Z</time></trkpt><trkpt lat="-27.795609024937775" lon="114.81158025611174"><ele>191.0</ele><time>2026-04-15T03:30:07Z</time></trkpt><trkpt lat="-27.79538281978332" lon="114.81162637944104"><ele>191.0</ele><time>2026-04-15T03:30:08Z</time></trkpt><trkpt lat="-27.795169167718665" lon="114.81165958928902"><ele>191.0</ele><time>2026-04-15T03:30:09Z</time></trkpt><trkpt lat="-27.794955518807097" lon="114.81167700665222"><ele>191.0</ele><time>2026-04-15T03:30:10Z</time></trkpt><trkpt lat="-27.7947368809026" lon="114.81167732863013"><ele>191.0</ele><time>2026-04-15T03:30:11Z</time></trkpt><trkpt lat="-27.794510860528103" lon="114.81166344675373"><ele>191.0</ele><time>2026-04-15T03:30:12Z</time></trkpt><trkpt lat="-27.794280565977232" lon="114.81163540746512"><ele>191.0</ele><time>2026-04-15T03:30:13Z</time></trkpt><trkpt lat="-27.794055992028955" lon="114.81159225373129"><ele>191.0</ele><time>2026-04-15T03:30:14Z</time></trkpt><trkpt lat="-27.79383780812152" lon="114.81153619569213"><ele>191.0</ele><time>2026-04-15T03:30:15Z</time></trkpt><trkpt lat="-27.793620203282806" lon="114.81146678429184"><ele>191.0</ele><time>2026-04-15T03:30:16Z</time></trkpt><trkpt lat="-27.793403510445483" lon="114.81138078179609"><ele>191.5</ele><time>2026-04-15T03:30:17Z</time></trkpt><trkpt lat="-27.79319221279044" lon="114.8112782272258"><ele>192.0</ele><time>2026-04-15T03:30:18Z</time></trkpt><trkpt lat="-27.792983812961204" lon="114.8111608358"><ele>192.0</ele><time>2026-04-15T03:30:19Z</time></trkpt><trkpt lat="-27.792783191675518" lon="114.81103648399417"><ele>192.0</ele><time>2026-04-15T03:30:20Z</time></trkpt><trkpt lat="-27.792582041372285" lon="114.81090338402457"><ele>190.5</ele><time>2026-04-15T03:30:21Z</time></trkpt><trkpt lat="-27.792376592053962" lon="114.81076396176324"><ele>189.0</ele><time>2026-04-15T03:30:22Z</time></trkpt><trkpt lat="-27.792173706862283" lon="114.81061885759516"><ele>189.0</ele><time>2026-04-15T03:30:23Z</time></trkpt><trkpt lat="-27.791967992071807" lon="114.81046550906777"><ele>189.0</ele><time>2026-04-15T03:30:24Z</time></trkpt><trkpt lat="-27.791766094182712" lon="114.81031313822604"><ele>189.5</ele><time>2026-04-15T03:30:25Z</time></trkpt><trkpt lat="-27.791557991441152" lon="114.81015653599134"><ele>190.0</ele><time>2026-04-15T03:30:26Z</time></trkpt><trkpt lat="-27.79134602938657" lon="114.80999718565636"><ele>190.0</ele><time>2026-04-15T03:30:27Z</time></trkpt><trkpt lat="-27.791138535950637" lon="114.80984438036977"><ele>190.0</ele><time>2026-04-15T03:30:28Z</time></trkpt><trkpt lat="-27.79092957890233" lon="114.80968796156655"><ele>190.0</ele><time>2026-04-15T03:30:29Z</time></trkpt><trkpt lat="-27.790724322303873" lon="114.80953209418266"><ele>190.0</ele><time>2026-04-15T03:30:30Z</time></trkpt><trkpt lat="-27.790520465289937" lon="114.80937887651929"><ele>189.0</ele><time>2026-04-15T03:30:31Z</time></trkpt><trkpt lat="-27.790315604686043" lon="114.80922730751573"><ele>188.0</ele><time>2026-04-15T03:30:32Z</time></trkpt><trkpt lat="-27.79011553047927" lon="114.8090784250064"><ele>188.0</ele><time>2026-04-15T03:30:33Z</time></trkpt><trkpt lat="-27.789918300150912" lon="114.80892989097899"><ele>188.0</ele><time>2026-04-15T03:30:34.001Z</time></trkpt><trkpt lat="-27.78974055720024" lon="114.80879355675154"><ele>188.0</ele><time>2026-04-15T03:30:35.001Z</time></trkpt><trkpt lat="-27.789592704933476" lon="114.80868255655449"><ele>188.0</ele><time>2026-04-15T03:30:36.001Z</time></trkpt><trkpt lat="-27.789455184391585" lon="114.8085857143335"><ele>188.0</ele><time>2026-04-15T03:30:37.001Z</time></trkpt><trkpt lat="-27.78930809693551" lon="114.80850003192079"><ele>188.66666666666666</ele><time>2026-04-15T03:30:38.001Z</time></trkpt><trkpt lat="-27.78916300933226" lon="114.80843034960955"><ele>189.33333333333334</ele><time>2026-04-15T03:30:39.001Z</time></trkpt><trkpt lat="-27.789020261304714" lon="114.80837065086745"><ele>190.0</ele><time>2026-04-15T03:30:40.001Z</time></trkpt><trkpt lat="-27.788880283649522" lon="114.80833289676961"><ele>190.0</ele><time>2026-04-15T03:30:41.001Z</time></trkpt><trkpt lat="-27.7887329469916" lon="114.80831861593973"><ele>190.0</ele><time>2026-04-15T03:30:42.001Z</time></trkpt><trkpt lat="-27.788576148027154" lon="114.80832926902902"><ele>190.0</ele><time>2026-04-15T03:30:43.001Z</time></trkpt><trkpt lat="-27.788422707747944" lon="114.80836391508284"><ele>190.33333333333334</ele><time>2026-04-15T03:30:44.001Z</time></trkpt><trkpt lat="-27.788280921093413" lon="114.80842342012217"><ele>190.66666666666666</ele><time>2026-04-15T03:30:45.001Z</time></trkpt><trkpt lat="-27.788134436066557" lon="114.80850881705189"><ele>191.0</ele><time>2026-04-15T03:30:46.001Z</time></trkpt><trkpt lat="-27.787988138213105" lon="114.80861589681545"><ele>191.33333333333331</ele><time>2026-04-15T03:30:47.001Z</time></trkpt><trkpt lat="-27.787846881292477" lon="114.80874768728229"><ele>191.66666666666666</ele><time>2026-04-15T03:30:48.001Z</time></trkpt><trkpt lat="-27.787713689547864" lon="114.80890087813103"><ele>192.0</ele><time>2026-04-15T03:30:49.001Z</time></trkpt><trkpt lat="-27.78759118379965" lon="114.8090818393714"><ele>192.0</ele><time>2026-04-15T03:30:50.001Z</time></trkpt><trkpt lat="-27.787473066444807" lon="114.80929266219307"><ele>192.0</ele><time>2026-04-15T03:30:51.001Z</time></trkpt><trkpt lat="-27.787364199575137" lon="114.80952251999767"><ele>192.5</ele><time>2026-04-15T03:30:52.001Z</time></trkpt><trkpt lat="-27.787268430835372" lon="114.80976524366211"><ele>193.0</ele><time>2026-04-15T03:30:53.001Z</time></trkpt><trkpt lat="-27.787185476162627" lon="114.81001627231089"><ele>192.33333333333331</ele><time>2026-04-15T03:30:54.001Z</time></trkpt><trkpt lat="-27.78710946453919" lon="114.81025825672766"><ele>191.66666666666666</ele><time>2026-04-15T03:30:55.001Z</time></trkpt><trkpt lat="-27.787041779276052" lon="114.81049060497523"><ele>191.0</ele><time>2026-04-15T03:30:56.001Z</time></trkpt><trkpt lat="-27.786992556495147" lon="114.81073093050829"><ele>191.0</ele><time>2026-04-15T03:30:57.001Z</time></trkpt><trkpt lat="-27.786963113098338" lon="114.81098953017758"><ele>191.0</ele><time>2026-04-15T03:30:58.001Z</time></trkpt><trkpt lat="-27.786951105696485" lon="114.81126427528079"><ele>191.5</ele><time>2026-04-15T03:30:59.001Z</time></trkpt><trkpt lat="-27.78694828031364" lon="114.81154146256803"><ele>192.0</ele><time>2026-04-15T03:31:00.001Z</time></trkpt><trkpt lat="-27.786950840954564" lon="114.81182509104066"><ele>193.0</ele><time>2026-04-15T03:31:01.001Z</time></trkpt><trkpt lat="-27.78694939804255" lon="114.8121087010531"><ele>194.0</ele><time>2026-04-15T03:31:02.001Z</time></trkpt><trkpt lat="-27.786947313524472" lon="114.81239600042865"><ele>195.0</ele><time>2026-04-15T03:31:03.001Z</time></trkpt><trkpt lat="-27.786943623648977" lon="114.8126829003135"><ele>196.0</ele><time>2026-04-15T03:31:04.001Z</time></trkpt><trkpt lat="-27.78694080307313" lon="114.812975216894"><ele>196.0</ele><time>2026-04-15T03:31:05.001Z</time></trkpt><trkpt lat="-27.786939981096552" lon="114.81327157692358"><ele>196.0</ele><time>2026-04-15T03:31:06.001Z</time></trkpt><trkpt lat="-27.786939891351633" lon="114.8135709220013"><ele>195.0</ele><time>2026-04-15T03:31:07.001Z</time></trkpt><trkpt lat="-27.786940740211712" lon="114.81386282969142"><ele>194.0</ele><time>2026-04-15T03:31:08.001Z</time></trkpt><trkpt lat="-27.786939585586953" lon="114.81414092323637"><ele>195.5</ele><time>2026-04-15T03:31:09.001Z</time></trkpt><trkpt lat="-27.786937063159403" lon="114.81441374439096"><ele>197.0</ele><time>2026-04-15T03:31:10.001Z</time></trkpt><trkpt lat="-27.78693395015063" lon="114.81468991552846"><ele>197.0</ele><time>2026-04-15T03:31:11.001Z</time></trkpt><trkpt lat="-27.786931416334085" lon="114.81497147665293"><ele>197.0</ele><time>2026-04-15T03:31:12.001Z</time></trkpt><trkpt lat="-27.786928796346512" lon="114.81526283163718"><ele>196.5</ele><time>2026-04-15T03:31:13.001Z</time></trkpt><trkpt lat="-27.786927529412868" lon="114.81555271804106"><ele>196.0</ele><time>2026-04-15T03:31:14.001Z</time></trkpt><trkpt lat="-27.786926265777197" lon="114.81584584925056"><ele>199.0</ele><time>2026-04-15T03:31:15.001Z</time></trkpt><trkpt lat="-27.786924960761382" lon="114.81612840448143"><ele>202.0</ele><time>2026-04-15T03:31:16.001Z</time></trkpt><trkpt lat="-27.78692295487039" lon="114.8164094741712"><ele>202.0</ele><time>2026-04-15T03:31:17.001Z</time></trkpt><trkpt lat="-27.78691942078143" lon="114.81668851846692"><ele>202.0</ele><time>2026-04-15T03:31:18.001Z</time></trkpt><trkpt lat="-27.786916968155907" lon="114.81696622611382"><ele>201.5</ele><time>2026-04-15T03:31:19.001Z</time></trkpt><trkpt lat="-27.78691390638828" lon="114.81724253786939"><ele>201.0</ele><time>2026-04-15T03:31:20.001Z</time></trkpt><trkpt lat="-27.786911923381922" lon="114.81751954604653"><ele>202.5</ele><time>2026-04-15T03:31:21.001Z</time></trkpt><trkpt lat="-27.78691045200414" lon="114.81779500199252"><ele>204.0</ele><time>2026-04-15T03:31:22.001Z</time></trkpt><trkpt lat="-27.786908573229717" lon="114.81807513751377"><ele>204.0</ele><time>2026-04-15T03:31:23.001Z</time></trkpt><trkpt lat="-27.786907226228013" lon="114.8183583328592"><ele>204.0</ele><time>2026-04-15T03:31:24.001Z</time></trkpt><trkpt lat="-27.786907891573204" lon="114.8186425723265"><ele>203.5</ele><time>2026-04-15T03:31:25.001Z</time></trkpt><trkpt lat="-27.78690745013276" lon="114.81892654271816"><ele>203.0</ele><time>2026-04-15T03:31:26Z</time></trkpt><trkpt lat="-27.78690577627999" lon="114.81920840940721"><ele>204.0</ele><time>2026-04-15T03:31:27Z</time></trkpt><trkpt lat="-27.78690413539312" lon="114.81948411836422"><ele>205.0</ele><time>2026-04-15T03:31:28Z</time></trkpt><trkpt lat="-27.786903355701902" lon="114.81975960069683"><ele>205.0</ele><time>2026-04-15T03:31:29Z</time></trkpt><trkpt lat="-27.78690421851549" lon="114.82003567565953"><ele>205.0</ele><time>2026-04-15T03:31:30Z</time></trkpt><trkpt lat="-27.786906501918487" lon="114.82031187923738"><ele>205.0</ele><time>2026-04-15T03:31:31Z</time></trkpt><trkpt lat="-27.786906062020385" lon="114.82058998968984"><ele>205.0</ele><time>2026-04-15T03:31:32Z</time></trkpt><trkpt lat="-27.786904110463134" lon="114.82087168430137"><ele>205.5</ele><time>2026-04-15T03:31:33Z</time></trkpt><trkpt lat="-27.786902372616442" lon="114.82115361694714"><ele>206.0</ele><time>2026-04-15T03:31:34Z</time></trkpt><trkpt lat="-27.786898658259705" lon="114.82144168982249"><ele>206.0</ele><time>2026-04-15T03:31:35Z</time></trkpt><trkpt lat="-27.786895145933794" lon="114.82173271183451"><ele>206.0</ele><time>2026-04-15T03:31:36Z</time></trkpt><trkpt lat="-27.78689443829667" lon="114.82202610449748"><ele>207.5</ele><time>2026-04-15T03:31:37Z</time></trkpt><trkpt lat="-27.78689276885429" lon="114.82232009105462"><ele>209.0</ele><time>2026-04-15T03:31:38Z</time></trkpt><trkpt lat="-27.786889219077455" lon="114.82261268401788"><ele>208.5</ele><time>2026-04-15T03:31:39Z</time></trkpt><trkpt lat="-27.78688491475467" lon="114.8229048644613"><ele>208.0</ele><time>2026-04-15T03:31:40Z</time></trkpt><trkpt lat="-27.78687992380207" lon="114.82319782954899"><ele>208.0</ele><time>2026-04-15T03:31:41Z</time></trkpt><trkpt lat="-27.786876348758835" lon="114.82349065530903"><ele>208.0</ele><time>2026-04-15T03:31:42Z</time></trkpt><trkpt lat="-27.786874011001753" lon="114.82378790530461"><ele>208.0</ele><time>2026-04-15T03:31:43Z</time></trkpt><trkpt lat="-27.78687159265627" lon="114.82408200922808"><ele>208.0</ele><time>2026-04-15T03:31:44Z</time></trkpt><trkpt lat="-27.786870039225537" lon="114.82436959872896"><ele>209.0</ele><time>2026-04-15T03:31:45Z</time></trkpt><trkpt lat="-27.786869382317178" lon="114.82464821672859"><ele>210.0</ele><time>2026-04-15T03:31:46Z</time></trkpt><trkpt lat="-27.78686826502579" lon="114.82492629774956"><ele>211.5</ele><time>2026-04-15T03:31:47Z</time></trkpt><trkpt lat="-27.786865532603407" lon="114.82520771069215"><ele>213.0</ele><time>2026-04-15T03:31:48Z</time></trkpt><trkpt lat="-27.786862872359638" lon="114.82548928105633"><ele>213.0</ele><time>2026-04-15T03:31:49Z</time></trkpt><trkpt lat="-27.786861063068766" lon="114.82576946904011"><ele>213.0</ele><time>2026-04-15T03:31:50Z</time></trkpt><trkpt lat="-27.78685680877478" lon="114.82604394440946"><ele>213.5</ele><time>2026-04-15T03:31:51Z</time></trkpt><trkpt lat="-27.78685416444056" lon="114.82632112233746"><ele>214.0</ele><time>2026-04-15T03:31:52Z</time></trkpt><trkpt lat="-27.786852220614605" lon="114.8265986112283"><ele>214.0</ele><time>2026-04-15T03:31:53Z</time></trkpt><trkpt lat="-27.786851180169755" lon="114.82688191663445"><ele>214.0</ele><time>2026-04-15T03:31:54Z</time></trkpt><trkpt lat="-27.786849274344444" lon="114.82717213208863"><ele>214.0</ele><time>2026-04-15T03:31:55Z</time></trkpt><trkpt lat="-27.786847828541816" lon="114.82746716919092"><ele>214.0</ele><time>2026-04-15T03:31:56Z</time></trkpt><trkpt lat="-27.786845570939064" lon="114.8277679821085"><ele>217.0</ele><time>2026-04-15T03:31:57Z</time></trkpt><trkpt lat="-27.786842852845684" lon="114.82806776919892"><ele>220.0</ele><time>2026-04-15T03:31:58Z</time></trkpt><trkpt lat="-27.786841029034388" lon="114.82836521989813"><ele>220.5</ele><time>2026-04-15T03:31:59Z</time></trkpt><trkpt lat="-27.786839499672226" lon="114.8286600515858"><ele>221.0</ele><time>2026-04-15T03:32:00Z</time></trkpt><trkpt lat="-27.786837650239068" lon="114.82895207526623"><ele>221.0</ele><time>2026-04-15T03:32:01Z</time></trkpt><trkpt lat="-27.786834237576773" lon="114.82924450035844"><ele>221.0</ele><time>2026-04-15T03:32:02Z</time></trkpt><trkpt lat="-27.786830944654277" lon="114.82953594841706"><ele>220.5</ele><time>2026-04-15T03:32:03Z</time></trkpt><trkpt lat="-27.786830420647675" lon="114.82982775776935"><ele>220.0</ele><time>2026-04-15T03:32:04Z</time></trkpt><trkpt lat="-27.786831285975424" lon="114.83011716260381"><ele>220.5</ele><time>2026-04-15T03:32:05Z</time></trkpt><trkpt lat="-27.786831952446367" lon="114.83041032981554"><ele>221.0</ele><time>2026-04-15T03:32:06Z</time></trkpt><trkpt lat="-27.786829780469468" lon="114.83070420267272"><ele>221.0</ele><time>2026-04-15T03:32:07Z</time></trkpt><trkpt lat="-27.78682624497101" lon="114.8310021537374"><ele>221.0</ele><time>2026-04-15T03:32:08Z</time></trkpt><trkpt lat="-27.786822667591753" lon="114.83129660549022"><ele>221.0</ele><time>2026-04-15T03:32:09Z</time></trkpt><trkpt lat="-27.786819201768303" lon="114.83158302854686"><ele>221.0</ele><time>2026-04-15T03:32:10Z</time></trkpt><trkpt lat="-27.78681848569224" lon="114.83184452746245"><ele>220.66666666666669</ele><time>2026-04-15T03:32:11Z</time></trkpt><trkpt lat="-27.786816544340763" lon="114.83208948879177"><ele>220.33333333333331</ele><time>2026-04-15T03:32:12Z</time></trkpt><trkpt lat="-27.786813976209064" lon="114.83233025483325"><ele>220.0</ele><time>2026-04-15T03:32:13Z</time></trkpt><trkpt lat="-27.786812530833586" lon="114.83255688828461"><ele>220.66666666666666</ele><time>2026-04-15T03:32:14Z</time></trkpt><trkpt lat="-27.78681081771104" lon="114.83278324580847"><ele>221.33333333333331</ele><time>2026-04-15T03:32:15Z</time></trkpt><trkpt lat="-27.786803158472775" lon="114.83300414997336"><ele>222.0</ele><time>2026-04-15T03:32:16Z</time></trkpt><trkpt lat="-27.78678586635736" lon="114.83320881061483"><ele>222.0</ele><time>2026-04-15T03:32:17Z</time></trkpt><trkpt lat="-27.786756771129916" lon="114.83340719585242"><ele>222.0</ele><time>2026-04-15T03:32:18Z</time></trkpt><trkpt lat="-27.786711328522564" lon="114.83359671269852"><ele>222.0</ele><time>2026-04-15T03:32:19Z</time></trkpt><trkpt lat="-27.78664860118062" lon="114.83377946854722"><ele>221.66666666666669</ele><time>2026-04-15T03:32:20Z</time></trkpt><trkpt lat="-27.786567187926003" lon="114.8339588529887"><ele>221.33333333333334</ele><time>2026-04-15T03:32:21Z</time></trkpt><trkpt lat="-27.786465595967083" lon="114.83413088851823"><ele>221.0</ele><time>2026-04-15T03:32:22Z</time></trkpt><trkpt lat="-27.786346596001934" lon="114.83429996786519"><ele>221.33333333333334</ele><time>2026-04-15T03:32:23Z</time></trkpt><trkpt lat="-27.78620771481958" lon="114.83447095178298"><ele>221.66666666666669</ele><time>2026-04-15T03:32:24Z</time></trkpt><trkpt lat="-27.786053235264976" lon="114.83464415342937"><ele>222.0</ele><time>2026-04-15T03:32:25Z</time></trkpt><trkpt lat="-27.785884801102135" lon="114.83482689009044"><ele>222.0</ele><time>2026-04-15T03:32:26Z</time></trkpt><trkpt lat="-27.785710665040533" lon="114.83501589910293"><ele>222.0</ele><time>2026-04-15T03:32:27Z</time></trkpt><trkpt lat="-27.785531797201866" lon="114.83520842130199"><ele>222.5</ele><time>2026-04-15T03:32:28Z</time></trkpt><trkpt lat="-27.78534891705562" lon="114.8353981935426"><ele>223.0</ele><time>2026-04-15T03:32:29Z</time></trkpt><trkpt lat="-27.785159375943852" lon="114.83558902890307"><ele>223.0</ele><time>2026-04-15T03:32:30Z</time></trkpt><trkpt lat="-27.78496434398879" lon="114.83579033174526"><ele>223.0</ele><time>2026-04-15T03:32:31Z</time></trkpt><trkpt lat="-27.784765481064493" lon="114.83599755304829"><ele>223.5</ele><time>2026-04-15T03:32:32Z</time></trkpt><trkpt lat="-27.784564799322943" lon="114.83621074123393"><ele>224.0</ele><time>2026-04-15T03:32:33Z</time></trkpt><trkpt lat="-27.784360993938535" lon="114.83642786773636"><ele>224.5</ele><time>2026-04-15T03:32:34Z</time></trkpt><trkpt lat="-27.784152913780797" lon="114.83665378430278"><ele>225.0</ele><time>2026-04-15T03:32:35Z</time></trkpt><trkpt lat="-27.78395587687043" lon="114.83687005006487"><ele>225.0</ele><time>2026-04-15T03:32:36Z</time></trkpt><trkpt lat="-27.783761206003796" lon="114.83707594612672"><ele>225.0</ele><time>2026-04-15T03:32:37Z</time></trkpt><trkpt lat="-27.783568016603645" lon="114.83727888135711"><ele>226.5</ele><time>2026-04-15T03:32:38Z</time></trkpt><trkpt lat="-27.783375122739095" lon="114.83748434614914"><ele>228.0</ele><time>2026-04-15T03:32:39Z</time></trkpt><trkpt lat="-27.783183954328326" lon="114.83768827294385"><ele>228.0</ele><time>2026-04-15T03:32:40Z</time></trkpt><trkpt lat="-27.782994462567938" lon="114.83789002334854"><ele>228.0</ele><time>2026-04-15T03:32:41Z</time></trkpt><trkpt lat="-27.78280831761796" lon="114.83808611879496"><ele>229.5</ele><time>2026-04-15T03:32:42Z</time></trkpt><trkpt lat="-27.78261986802331" lon="114.83828328597625"><ele>231.0</ele><time>2026-04-15T03:32:43Z</time></trkpt><trkpt lat="-27.78243388325723" lon="114.83847560929793"><ele>232.5</ele><time>2026-04-15T03:32:44Z</time></trkpt><trkpt lat="-27.782223881110905" lon="114.83864083455852"><ele>234.0</ele><time>2026-04-15T03:32:45Z</time></trkpt><trkpt lat="-27.782043579838906" lon="114.83883914869783"><ele>234.0</ele><time>2026-04-15T03:32:46.001Z</time></trkpt><trkpt lat="-27.781865701529398" lon="114.83903413382986"><ele>234.0</ele><time>2026-04-15T03:32:47.001Z</time></trkpt><trkpt lat="-27.781685613871563" lon="114.83922932462741"><ele>235.0</ele><time>2026-04-15T03:32:48.001Z</time></trkpt><trkpt lat="-27.781503455107426" lon="114.83942317087079"><ele>236.0</ele><time>2026-04-15T03:32:49.001Z</time></trkpt><trkpt lat="-27.78132311228548" lon="114.8396114603844"><ele>236.0</ele><time>2026-04-15T03:32:50.001Z</time></trkpt><trkpt lat="-27.781145689253407" lon="114.83979552963221"><ele>236.0</ele><time>2026-04-15T03:32:51.001Z</time></trkpt><trkpt lat="-27.77101916979098" lon="114.85007640306941"><ele>239.5</ele><time>2026-04-15T03:33:43Z</time></trkpt><trkpt lat="-27.770833249222576" lon="114.85029780080579"><ele>243.0</ele><time>2026-04-15T03:33:44Z</time></trkpt><trkpt lat="-27.770644406612004" lon="114.85052267816496"><ele>243.0</ele><time>2026-04-15T03:33:45Z</time></trkpt><trkpt lat="-27.770492332909786" lon="114.85079771034157"><ele>243.0</ele><time>2026-04-15T03:33:46Z</time></trkpt><trkpt lat="-27.770320439066666" lon="114.85104185360258"><ele>244.0</ele><time>2026-04-15T03:33:47Z</time></trkpt><trkpt lat="-27.770152102449362" lon="114.85128365325681"><ele>245.0</ele><time>2026-04-15T03:33:48Z</time></trkpt><trkpt lat="-27.769986953659227" lon="114.85152227466028"><ele>245.0</ele><time>2026-04-15T03:33:49Z</time></trkpt><trkpt lat="-27.769824678778456" lon="114.85175273342107"><ele>245.0</ele><time>2026-04-15T03:33:50Z</time></trkpt><trkpt lat="-27.769663648022675" lon="114.85198540109194"><ele>244.5</ele><time>2026-04-15T03:33:51Z</time></trkpt><trkpt lat="-27.769508729093975" lon="114.85222117835544"><ele>244.0</ele><time>2026-04-15T03:33:52Z</time></trkpt><trkpt lat="-27.769356022786674" lon="114.85246655213257"><ele>242.0</ele><time>2026-04-15T03:33:53Z</time></trkpt><trkpt lat="-27.769060897744353" lon="114.85297020658189"><ele>242.0</ele><time>2026-04-15T03:33:55Z</time></trkpt><trkpt lat="-27.768911753875187" lon="114.85322050727062"><ele>242.0</ele><time>2026-04-15T03:33:56Z</time></trkpt><trkpt lat="-27.76876080512478" lon="114.85347085563882"><ele>242.0</ele><time>2026-04-15T03:33:57Z</time></trkpt><trkpt lat="-27.768611720503333" lon="114.85372346317891"><ele>242.0</ele><time>2026-04-15T03:33:58Z</time></trkpt><trkpt lat="-27.768461105884835" lon="114.85398258572235"><ele>241.0</ele><time>2026-04-15T03:33:59Z</time></trkpt><trkpt lat="-27.768306778029544" lon="114.85424746590941"><ele>240.0</ele><time>2026-04-15T03:34:00Z</time></trkpt><trkpt lat="-27.76815230293581" lon="114.85450988112153"><ele>240.0</ele><time>2026-04-15T03:34:01Z</time></trkpt><trkpt lat="-27.768002804294056" lon="114.85476951109719"><ele>240.0</ele><time>2026-04-15T03:34:02Z</time></trkpt><trkpt lat="-27.767853339339073" lon="114.85503196328885"><ele>240.0</ele><time>2026-04-15T03:34:03Z</time></trkpt><trkpt lat="-27.767705101927202" lon="114.85529377507"><ele>240.0</ele><time>2026-04-15T03:34:04Z</time></trkpt><trkpt lat="-27.767554893175248" lon="114.85555436474996"><ele>240.0</ele><time>2026-04-15T03:34:05Z</time></trkpt><trkpt lat="-27.767403873836386" lon="114.85581442193502"><ele>240.0</ele><time>2026-04-15T03:34:06Z</time></trkpt><trkpt lat="-27.767252406504316" lon="114.85607555748305"><ele>239.5</ele><time>2026-04-15T03:34:07Z</time></trkpt><trkpt lat="-27.767102025665636" lon="114.8563363588906"><ele>239.0</ele><time>2026-04-15T03:34:08Z</time></trkpt><trkpt lat="-27.766950692773907" lon="114.85659851071989"><ele>240.0</ele><time>2026-04-15T03:34:09Z</time></trkpt><trkpt lat="-27.766803646877936" lon="114.85685752983608"><ele>241.0</ele><time>2026-04-15T03:34:10Z</time></trkpt><trkpt lat="-27.76665537888035" lon="114.85711739904056"><ele>241.0</ele><time>2026-04-15T03:34:11Z</time></trkpt><trkpt lat="-27.7665090422403" lon="114.85737546490087"><ele>241.0</ele><time>2026-04-15T03:34:12Z</time></trkpt><trkpt lat="-27.76635858105131" lon="114.85763269256611"><ele>241.0</ele><time>2026-04-15T03:34:13Z</time></trkpt><trkpt lat="-27.766206701483927" lon="114.85789049367925"><ele>241.0</ele><time>2026-04-15T03:34:14Z</time></trkpt><trkpt lat="-27.765904288457833" lon="114.85840343379883"><ele>242.0</ele><time>2026-04-15T03:34:16Z</time></trkpt><trkpt lat="-27.76575038972854" lon="114.85866143943701"><ele>243.0</ele><time>2026-04-15T03:34:17Z</time></trkpt><trkpt lat="-27.765597907958902" lon="114.8589198169165"><ele>243.0</ele><time>2026-04-15T03:34:18Z</time></trkpt><trkpt lat="-27.765441342652124" lon="114.85918364987191"><ele>243.0</ele><time>2026-04-15T03:34:19Z</time></trkpt><trkpt lat="-27.76528300044701" lon="114.85944832648634"><ele>242.0</ele><time>2026-04-15T03:34:20Z</time></trkpt><trkpt lat="-27.765122246725948" lon="114.85971322495143"><ele>241.0</ele><time>2026-04-15T03:34:21Z</time></trkpt><trkpt lat="-27.76496228102604" lon="114.85997611120047"><ele>241.5</ele><time>2026-04-15T03:34:22Z</time></trkpt><trkpt lat="-27.76480131282543" lon="114.86024145474377"><ele>242.0</ele><time>2026-04-15T03:34:23Z</time></trkpt><trkpt lat="-27.76463892506357" lon="114.86051225923482"><ele>242.0</ele><time>2026-04-15T03:34:24Z</time></trkpt><trkpt lat="-27.76447682406218" lon="114.86078354739222"><ele>242.0</ele><time>2026-04-15T03:34:25Z</time></trkpt><trkpt lat="-27.764316351154765" lon="114.8610525793759"><ele>242.0</ele><time>2026-04-15T03:34:26Z</time></trkpt><trkpt lat="-27.76415733683116" lon="114.86131753892214"><ele>242.0</ele><time>2026-04-15T03:34:27Z</time></trkpt><trkpt lat="-27.764000043795733" lon="114.8615782086444"><ele>243.0</ele><time>2026-04-15T03:34:28Z</time></trkpt><trkpt lat="-27.76384202308779" lon="114.8618392380077"><ele>244.0</ele><time>2026-04-15T03:34:29Z</time></trkpt><trkpt lat="-27.763688748348034" lon="114.86209837800274"><ele>244.0</ele><time>2026-04-15T03:34:30Z</time></trkpt><trkpt lat="-27.76353412363114" lon="114.86235371977463"><ele>244.0</ele><time>2026-04-15T03:34:31Z</time></trkpt><trkpt lat="-27.76338070927277" lon="114.8626104458861"><ele>244.0</ele><time>2026-04-15T03:34:32Z</time></trkpt><trkpt lat="-27.763229119465986" lon="114.86286852684417"><ele>244.0</ele><time>2026-04-15T03:34:33Z</time></trkpt><trkpt lat="-27.763076137193686" lon="114.86312526964724"><ele>244.0</ele><time>2026-04-15T03:34:34Z</time></trkpt><trkpt lat="-27.762922827040665" lon="114.8633836764347"><ele>244.0</ele><time>2026-04-15T03:34:35Z</time></trkpt><trkpt lat="-27.762622890718138" lon="114.86389134396492"><ele>244.0</ele><time>2026-04-15T03:34:37Z</time></trkpt><trkpt lat="-27.762475969458013" lon="114.8641393689844"><ele>244.0</ele><time>2026-04-15T03:34:38Z</time></trkpt><trkpt lat="-27.762330976636203" lon="114.86437996056463"><ele>243.0</ele><time>2026-04-15T03:34:39Z</time></trkpt><trkpt lat="-27.762185587793873" lon="114.86461646527013"><ele>242.0</ele><time>2026-04-15T03:34:40Z</time></trkpt><trkpt lat="-27.7620475207948" lon="114.86483359602506"><ele>242.0</ele><time>2026-04-15T03:34:41Z</time></trkpt><trkpt lat="-27.761908926991538" lon="114.86503927412532"><ele>242.0</ele><time>2026-04-15T03:34:42Z</time></trkpt><trkpt lat="-27.76175359871849" lon="114.86524197585622"><ele>242.5</ele><time>2026-04-15T03:34:43Z</time></trkpt><trkpt lat="-27.76157857180409" lon="114.86544656955624"><ele>243.0</ele><time>2026-04-15T03:34:44Z</time></trkpt><trkpt lat="-27.761392387327316" lon="114.86564071848177"><ele>243.0</ele><time>2026-04-15T03:34:45Z</time></trkpt><trkpt lat="-27.761198482455356" lon="114.86582794068042"><ele>243.0</ele><time>2026-04-15T03:34:46Z</time></trkpt><trkpt lat="-27.76100495420089" lon="114.86601497678129"><ele>242.0</ele><time>2026-04-15T03:34:47Z</time></trkpt><trkpt lat="-27.76081395074545" lon="114.86620768391678"><ele>241.0</ele><time>2026-04-15T03:34:48Z</time></trkpt><trkpt lat="-27.760623890461154" lon="114.86639803472691"><ele>241.0</ele><time>2026-04-15T03:34:49Z</time></trkpt><trkpt lat="-27.76043078674364" lon="114.86659185715743"><ele>241.0</ele><time>2026-04-15T03:34:50Z</time></trkpt><trkpt lat="-27.760238343423882" lon="114.86678281109256"><ele>239.0</ele><time>2026-04-15T03:34:51Z</time></trkpt><trkpt lat="-27.760049099097138" lon="114.86696661333696"><ele>237.0</ele><time>2026-04-15T03:34:52Z</time></trkpt><trkpt lat="-27.759866629181634" lon="114.86714463406717"><ele>237.0</ele><time>2026-04-15T03:34:53Z</time></trkpt><trkpt lat="-27.75968727745132" lon="114.86732095248185"><ele>237.0</ele><time>2026-04-15T03:34:54Z</time></trkpt><trkpt lat="-27.75950629616662" lon="114.86749803617884"><ele>234.5</ele><time>2026-04-15T03:34:55Z</time></trkpt><trkpt lat="-27.75932930053112" lon="114.86767342994786"><ele>232.0</ele><time>2026-04-15T03:34:56.001Z</time></trkpt><trkpt lat="-27.759006330529843" lon="114.86799258226715"><ele>232.0</ele><time>2026-04-15T03:34:58.001Z</time></trkpt><trkpt lat="-27.758865730105747" lon="114.86813294295561"><ele>232.0</ele><time>2026-04-15T03:34:59.001Z</time></trkpt><trkpt lat="-27.75873560362737" lon="114.8682602949763"><ele>232.0</ele><time>2026-04-15T03:35:00.001Z</time></trkpt><trkpt lat="-27.758619120322436" lon="114.86837822875731"><ele>231.25</ele><time>2026-04-15T03:35:01.001Z</time></trkpt><trkpt lat="-27.758513215462777" lon="114.86848183503581"><ele>230.5</ele><time>2026-04-15T03:35:02.001Z</time></trkpt><trkpt lat="-27.75841690268423" lon="114.86857533920195"><ele>229.75</ele><time>2026-04-15T03:35:03.001Z</time></trkpt><trkpt lat="-27.758329190748896" lon="114.86866267836331"><ele>229.0</ele><time>2026-04-15T03:35:04.001Z</time></trkpt><trkpt lat="-27.758247063194506" lon="114.86874408594792"><ele>229.0</ele><time>2026-04-15T03:35:05.001Z</time></trkpt><trkpt lat="-27.758171679868337" lon="114.8688179542216"><ele>228.99999999999997</ele><time>2026-04-15T03:35:06.001Z</time></trkpt><trkpt lat="-27.758098636136143" lon="114.86889187114333"><ele>228.99999999999997</ele><time>2026-04-15T03:35:07.001Z</time></trkpt><trkpt lat="-27.758028927164272" lon="114.86896358329622"><ele>229.0</ele><time>2026-04-15T03:35:08.001Z</time></trkpt><trkpt lat="-27.75795727514841" lon="114.86903175692295"><ele>229.0</ele><time>2026-04-15T03:35:09.001Z</time></trkpt><trkpt lat="-27.757887814163894" lon="114.86909843460158"><ele>229.0</ele><time>2026-04-15T03:35:10.001Z</time></trkpt><trkpt lat="-27.75781617306005" lon="114.86916839213642"><ele>228.99999999999997</ele><time>2026-04-15T03:35:11.001Z</time></trkpt><trkpt lat="-27.757740598919913" lon="114.86924730854732"><ele>228.99999999999997</ele><time>2026-04-15T03:35:12.001Z</time></trkpt><trkpt lat="-27.757659313867407" lon="114.86932745717266"><ele>229.0</ele><time>2026-04-15T03:35:13.001Z</time></trkpt><trkpt lat="-27.75757754963455" lon="114.86940670506658"><ele>229.0</ele><time>2026-04-15T03:35:14.001Z</time></trkpt><trkpt lat="-27.75749427643512" lon="114.86948802338567"><ele>227.5</ele><time>2026-04-15T03:35:15.001Z</time></trkpt><trkpt lat="-27.75741065112937" lon="114.8695713323687"><ele>226.0</ele><time>2026-04-15T03:35:16.001Z</time></trkpt><trkpt lat="-27.757327334414075" lon="114.86965598458868"><ele>224.5</ele><time>2026-04-15T03:35:17.001Z</time></trkpt><trkpt lat="-27.757160493939427" lon="114.86981617110301"><ele>223.0</ele><time>2026-04-15T03:35:19.001Z</time></trkpt><trkpt lat="-27.757076024776513" lon="114.86989809627539"><ele>223.0</ele><time>2026-04-15T03:35:20.001Z</time></trkpt><trkpt lat="-27.75699468227683" lon="114.8699794308114"><ele>223.0</ele><time>2026-04-15T03:35:21.001Z</time></trkpt><trkpt lat="-27.756905441858116" lon="114.87006417594262"><ele>223.0</ele><time>2026-04-15T03:35:22.001Z</time></trkpt><trkpt lat="-27.756811886848222" lon="114.870156322196"><ele>223.0</ele><time>2026-04-15T03:35:23.001Z</time></trkpt><trkpt lat="-27.756716572237874" lon="114.87024946291884"><ele>222.25</ele><time>2026-04-15T03:35:24.001Z</time></trkpt><trkpt lat="-27.756617239620766" lon="114.87034843460071"><ele>221.5</ele><time>2026-04-15T03:35:25.001Z</time></trkpt><trkpt lat="-27.756520483285023" lon="114.87044318666088"><ele>220.75</ele><time>2026-04-15T03:35:26.001Z</time></trkpt><trkpt lat="-27.75642637758073" lon="114.87053962463186"><ele>220.0</ele><time>2026-04-15T03:35:27.001Z</time></trkpt><trkpt lat="-27.756343670223817" lon="114.870629599892"><ele>220.0</ele><time>2026-04-15T03:35:28.001Z</time></trkpt><trkpt lat="-27.756259858407482" lon="114.87071713244067"><ele>220.0</ele><time>2026-04-15T03:35:29.001Z</time></trkpt><trkpt lat="-27.756171563267213" lon="114.87080752630887"><ele>220.0</ele><time>2026-04-15T03:35:30.001Z</time></trkpt><trkpt lat="-27.75608478630322" lon="114.87088994235359"><ele>220.0</ele><time>2026-04-15T03:35:31.001Z</time></trkpt><trkpt lat="-27.755988575315385" lon="114.87097877634625"><ele>219.75</ele><time>2026-04-15T03:35:32.001Z</time></trkpt><trkpt lat="-27.755893788063588" lon="114.87107100158892"><ele>219.5</ele><time>2026-04-15T03:35:33.001Z</time></trkpt><trkpt lat="-27.755795804535623" lon="114.8711685051006"><ele>219.25</ele><time>2026-04-15T03:35:34.001Z</time></trkpt><trkpt lat="-27.75569252270436" lon="114.87126591042397"><ele>219.0</ele><time>2026-04-15T03:35:35.001Z</time></trkpt><trkpt lat="-27.75560295201168" lon="114.87136217664586"><ele>219.0</ele><time>2026-04-15T03:35:36.001Z</time></trkpt><trkpt lat="-27.755503397244592" lon="114.87145458644854"><ele>219.0</ele><time>2026-04-15T03:35:37.001Z</time></trkpt><trkpt lat="-27.75540682663373" lon="114.87154926631173"><ele>219.0</ele><time>2026-04-15T03:35:38Z</time></trkpt><trkpt lat="-27.755191150753458" lon="114.87175953491891"><ele>218.66666666666669</ele><time>2026-04-15T03:35:40Z</time></trkpt><trkpt lat="-27.755078514557955" lon="114.87187365902454"><ele>218.33333333333334</ele><time>2026-04-15T03:35:41Z</time></trkpt><trkpt lat="-27.754966316024216" lon="114.87199137844136"><ele>218.0</ele><time>2026-04-15T03:35:42Z</time></trkpt><trkpt lat="-27.754855237794178" lon="114.87210111666678"><ele>218.0</ele><time>2026-04-15T03:35:43Z</time></trkpt><trkpt lat="-27.754733051388076" lon="114.87221981345027"><ele>218.0</ele><time>2026-04-15T03:35:44Z</time></trkpt><trkpt lat="-27.754618646592714" lon="114.87233261770724"><ele>218.0</ele><time>2026-04-15T03:35:45Z</time></trkpt><trkpt lat="-27.754497056640528" lon="114.87244834155113"><ele>218.0</ele><time>2026-04-15T03:35:46Z</time></trkpt><trkpt lat="-27.754375214947967" lon="114.8725622369668"><ele>218.0</ele><time>2026-04-15T03:35:47Z</time></trkpt><trkpt lat="-27.7542644976168" lon="114.87267059331231"><ele>218.0</ele><time>2026-04-15T03:35:48Z</time></trkpt><trkpt lat="-27.75416354364372" lon="114.87277514105492"><ele>218.0</ele><time>2026-04-15T03:35:49Z</time></trkpt><trkpt lat="-27.754064441481237" lon="114.87287560609421"><ele>217.0</ele><time>2026-04-15T03:35:50Z</time></trkpt><trkpt lat="-27.75396714885932" lon="114.8729730841503"><ele>216.0</ele><time>2026-04-15T03:35:51Z</time></trkpt><trkpt lat="-27.753873130970454" lon="114.87306771718966"><ele>215.0</ele><time>2026-04-15T03:35:52Z</time></trkpt><trkpt lat="-27.753777755892504" lon="114.87316442698148"><ele>214.0</ele><time>2026-04-15T03:35:53Z</time></trkpt><trkpt lat="-27.7536776604445" lon="114.87326694568404"><ele>214.0</ele><time>2026-04-15T03:35:54Z</time></trkpt><trkpt lat="-27.753575842942006" lon="114.8733672863679"><ele>214.0</ele><time>2026-04-15T03:35:55Z</time></trkpt><trkpt lat="-27.753475657201356" lon="114.87346621855069"><ele>214.0</ele><time>2026-04-15T03:35:56Z</time></trkpt><trkpt lat="-27.753370385357638" lon="114.87357647272177"><ele>214.0</ele><time>2026-04-15T03:35:57Z</time></trkpt><trkpt lat="-27.753262834701136" lon="114.8736829572779"><ele>214.0</ele><time>2026-04-15T03:35:58Z</time></trkpt><trkpt lat="-27.753152621587926" lon="114.87379103729049"><ele>214.0</ele><time>2026-04-15T03:35:59Z</time></trkpt><trkpt lat="-27.752925430502078" lon="114.87401554335175"><ele>214.0</ele><time>2026-04-15T03:36:01Z</time></trkpt><trkpt lat="-27.752804898976063" lon="114.87413281810976"><ele>214.0</ele><time>2026-04-15T03:36:02Z</time></trkpt><trkpt lat="-27.75268050012638" lon="114.87425604327996"><ele>214.0</ele><time>2026-04-15T03:36:03Z</time></trkpt><trkpt lat="-27.752555526743564" lon="114.87438023974686"><ele>214.0</ele><time>2026-04-15T03:36:04Z</time></trkpt><trkpt lat="-27.75241895397443" lon="114.87451299940494"><ele>214.0</ele><time>2026-04-15T03:36:05Z</time></trkpt><trkpt lat="-27.752269497425047" lon="114.87466137865354"><ele>214.0</ele><time>2026-04-15T03:36:06Z</time></trkpt><trkpt lat="-27.752120421471364" lon="114.87481186966156"><ele>214.0</ele><time>2026-04-15T03:36:07Z</time></trkpt><trkpt lat="-27.751970058413228" lon="114.87496602486634"><ele>213.0</ele><time>2026-04-15T03:36:08Z</time></trkpt><trkpt lat="-27.751832796033963" lon="114.87510557697591"><ele>212.0</ele><time>2026-04-15T03:36:09Z</time></trkpt><trkpt lat="-27.751707156341144" lon="114.8752344703951"><ele>211.0</ele><time>2026-04-15T03:36:10Z</time></trkpt><trkpt lat="-27.751586845158663" lon="114.87535666601813"><ele>211.0</ele><time>2026-04-15T03:36:11Z</time></trkpt><trkpt lat="-27.75147803948935" lon="114.87546915222768"><ele>211.0</ele><time>2026-04-15T03:36:12Z</time></trkpt><trkpt lat="-27.75137233178742" lon="114.87557472454463"><ele>211.0</ele><time>2026-04-15T03:36:13Z</time></trkpt><trkpt lat="-27.751277765318118" lon="114.87566956063706"><ele>211.0</ele><time>2026-04-15T03:36:14Z</time></trkpt><trkpt lat="-27.751191551322112" lon="114.87575552051688"><ele>211.0</ele><time>2026-04-15T03:36:15Z</time></trkpt><trkpt lat="-27.75111793396881" lon="114.87582745132714"><ele>211.0</ele><time>2026-04-15T03:36:16Z</time></trkpt><trkpt lat="-27.7510592038709" lon="114.87588979026965"><ele>211.0</ele><time>2026-04-15T03:36:17Z</time></trkpt><trkpt lat="-27.751002649932783" lon="114.875942745619"><ele>211.0</ele><time>2026-04-15T03:36:18Z</time></trkpt><trkpt lat="-27.75091752820195" lon="114.87602302292025"><ele>211.0</ele><time>2026-04-15T03:36:20Z</time></trkpt><trkpt lat="-27.75081128465603" lon="114.87613297128595"><ele>211.0</ele><time>2026-04-15T03:36:26Z</time></trkpt><trkpt lat="-27.75087865843319" lon="114.87616366706509"><ele>211.0</ele><time>2026-04-15T03:36:47Z</time></trkpt><trkpt lat="-27.750789894918835" lon="114.87616559414602"><ele>211.0</ele><time>2026-04-15T03:43:05Z</time></trkpt><trkpt lat="-27.750537564712875" lon="114.87639310710334"><ele>211.0</ele><time>2026-04-15T03:44:06.997Z</time></trkpt><trkpt lat="-27.750468967710667" lon="114.87646738783938"><ele>211.0</ele><time>2026-04-15T03:44:07.997Z</time></trkpt><trkpt lat="-27.750390394969457" lon="114.87654839820195"><ele>211.0</ele><time>2026-04-15T03:44:08.997Z</time></trkpt><trkpt lat="-27.750303012599275" lon="114.8766338863758"><ele>211.0</ele><time>2026-04-15T03:44:09.997Z</time></trkpt><trkpt lat="-27.750203831570285" lon="114.8767293402823"><ele>211.0</ele><time>2026-04-15T03:44:10.997Z</time></trkpt><trkpt lat="-27.750093498274016" lon="114.87683715084754"><ele>210.66666666666666</ele><time>2026-04-15T03:44:11.997Z</time></trkpt><trkpt lat="-27.749980063906474" lon="114.87694963302442"><ele>210.33333333333331</ele><time>2026-04-15T03:44:12.998Z</time></trkpt><trkpt lat="-27.749864709714014" lon="114.8770621214664"><ele>210.0</ele><time>2026-04-15T03:44:13.998Z</time></trkpt><trkpt lat="-27.74974565919923" lon="114.87717532997362"><ele>210.0</ele><time>2026-04-15T03:44:14.998Z</time></trkpt><trkpt lat="-27.749622661841887" lon="114.87729543198341"><ele>210.0</ele><time>2026-04-15T03:44:15.998Z</time></trkpt><trkpt lat="-27.74949662724565" lon="114.87742144331534"><ele>210.0</ele><time>2026-04-15T03:44:16.998Z</time></trkpt><trkpt lat="-27.749369133645985" lon="114.87754653775559"><ele>210.0</ele><time>2026-04-15T03:44:17.998Z</time></trkpt><trkpt lat="-27.74924168113985" lon="114.87767252041795"><ele>210.0</ele><time>2026-04-15T03:44:18.998Z</time></trkpt><trkpt lat="-27.74911587001347" lon="114.87780009446877"><ele>210.0</ele><time>2026-04-15T03:44:19.998Z</time></trkpt><trkpt lat="-27.748995166700087" lon="114.87791874438408"><ele>210.0</ele><time>2026-04-15T03:44:20.998Z</time></trkpt><trkpt lat="-27.748875567528277" lon="114.87803818560805"><ele>210.0</ele><time>2026-04-15T03:44:21.998Z</time></trkpt><trkpt lat="-27.748755063757237" lon="114.8781554761925"><ele>210.0</ele><time>2026-04-15T03:44:22.998Z</time></trkpt><trkpt lat="-27.748631141041237" lon="114.8782738454613"><ele>210.33333333333331</ele><time>2026-04-15T03:44:23.998Z</time></trkpt><trkpt lat="-27.748508990420017" lon="114.8783931228985"><ele>210.66666666666666</ele><time>2026-04-15T03:44:24.998Z</time></trkpt><trkpt lat="-27.748381193938243" lon="114.87851490731033"><ele>211.0</ele><time>2026-04-15T03:44:25.998Z</time></trkpt><trkpt lat="-27.74811142475666" lon="114.87877869664054"><ele>211.66666666666666</ele><time>2026-04-15T03:44:27.998Z</time></trkpt><trkpt lat="-27.74797768307726" lon="114.87891358427714"><ele>212.33333333333331</ele><time>2026-04-15T03:44:28.998Z</time></trkpt><trkpt lat="-27.747844691666334" lon="114.8790463749781"><ele>213.0</ele><time>2026-04-15T03:44:29.999Z</time></trkpt><trkpt lat="-27.747708944799054" lon="114.87917723942138"><ele>213.33333333333331</ele><time>2026-04-15T03:44:30.999Z</time></trkpt><trkpt lat="-27.747574293778932" lon="114.87931020199304"><ele>213.66666666666666</ele><time>2026-04-15T03:44:31.999Z</time></trkpt><trkpt lat="-27.747440098060626" lon="114.87944328940166"><ele>214.0</ele><time>2026-04-15T03:44:32.999Z</time></trkpt><trkpt lat="-27.747320080348143" lon="114.87956161462927"><ele>214.0</ele><time>2026-04-15T03:44:33.999Z</time></trkpt><trkpt lat="-27.747211171993147" lon="114.87967058909824"><ele>214.0</ele><time>2026-04-15T03:44:34.999Z</time></trkpt><trkpt lat="-27.74710602976604" lon="114.87977404668636"><ele>214.0</ele><time>2026-04-15T03:44:35.999Z</time></trkpt><trkpt lat="-27.747009410396974" lon="114.87987095037872"><ele>214.0</ele><time>2026-04-15T03:44:36.999Z</time></trkpt><trkpt lat="-27.746919950611257" lon="114.87995937985497"><ele>214.2</ele><time>2026-04-15T03:44:37.999Z</time></trkpt><trkpt lat="-27.74683642238059" lon="114.88004122533584"><ele>214.39999999999998</ele><time>2026-04-15T03:44:38.999Z</time></trkpt><trkpt lat="-27.746760916260644" lon="114.88011663476297"><ele>214.6</ele><time>2026-04-15T03:44:39.999Z</time></trkpt><trkpt lat="-27.746691550829006" lon="114.88018857135722"><ele>214.8</ele><time>2026-04-15T03:44:40.999Z</time></trkpt><trkpt lat="-27.746624723220382" lon="114.88025525099322"><ele>215.0</ele><time>2026-04-15T03:44:41.999Z</time></trkpt><trkpt lat="-27.74656407949644" lon="114.88031551659036"><ele>215.75</ele><time>2026-04-15T03:44:42.999Z</time></trkpt><trkpt lat="-27.746506170781874" lon="114.88036873937249"><ele>216.5</ele><time>2026-04-15T03:44:43.999Z</time></trkpt><trkpt lat="-27.746423612187492" lon="114.88045160592674"><ele>217.25</ele><time>2026-04-15T03:44:45.999Z</time></trkpt><trkpt lat="-27.7463376142543" lon="114.88051405056272"><ele>218.0</ele><time>2026-04-15T03:45:07Z</time></trkpt><trkpt lat="-27.7461321364573" lon="114.88072521469347"><ele>218.0</ele><time>2026-04-15T03:45:10Z</time></trkpt><trkpt lat="-27.746043966203963" lon="114.88081393602519"><ele>218.0</ele><time>2026-04-15T03:45:11Z</time></trkpt><trkpt lat="-27.745939956426774" lon="114.88091512216018"><ele>218.0</ele><time>2026-04-15T03:45:12Z</time></trkpt><trkpt lat="-27.745822780658948" lon="114.88102678276739"><ele>218.0</ele><time>2026-04-15T03:45:13Z</time></trkpt><trkpt lat="-27.745706203664387" lon="114.88114096626863"><ele>217.66666666666669</ele><time>2026-04-15T03:45:14Z</time></trkpt><trkpt lat="-27.74558210634222" lon="114.88127259056114"><ele>217.33333333333331</ele><time>2026-04-15T03:45:15Z</time></trkpt><trkpt lat="-27.74544079688927" lon="114.88141607514008"><ele>217.0</ele><time>2026-04-15T03:45:16Z</time></trkpt><trkpt lat="-27.745298701546837" lon="114.88155852931476"><ele>217.0</ele><time>2026-04-15T03:45:17Z</time></trkpt><trkpt lat="-27.745148252714724" lon="114.88169782797897"><ele>217.0</ele><time>2026-04-15T03:45:18Z</time></trkpt><trkpt lat="-27.74499164396041" lon="114.88184688135613"><ele>217.0</ele><time>2026-04-15T03:45:19Z</time></trkpt><trkpt lat="-27.744827748888717" lon="114.88200614884907"><ele>218.0</ele><time>2026-04-15T03:45:20Z</time></trkpt><trkpt lat="-27.744659461710395" lon="114.88217540724588"><ele>219.0</ele><time>2026-04-15T03:45:21Z</time></trkpt><trkpt lat="-27.744485759629" lon="114.88233987004153"><ele>219.33333333333331</ele><time>2026-04-15T03:45:22Z</time></trkpt><trkpt lat="-27.744324355829413" lon="114.88250524513953"><ele>219.66666666666666</ele><time>2026-04-15T03:45:23Z</time></trkpt><trkpt lat="-27.744158035447455" lon="114.88266548582291"><ele>220.0</ele><time>2026-04-15T03:45:24Z</time></trkpt><trkpt lat="-27.743994148428225" lon="114.88282558666187"><ele>220.33333333333331</ele><time>2026-04-15T03:45:25Z</time></trkpt><trkpt lat="-27.74383434376025" lon="114.88298301384717"><ele>220.66666666666669</ele><time>2026-04-15T03:45:26Z</time></trkpt><trkpt lat="-27.743676963708783" lon="114.88314297997283"><ele>221.0</ele><time>2026-04-15T03:45:27Z</time></trkpt><trkpt lat="-27.74352009243896" lon="114.88330810081143"><ele>224.5</ele><time>2026-04-15T03:45:28Z</time></trkpt><trkpt lat="-27.743202288668417" lon="114.88363587534266"><ele>228.0</ele><time>2026-04-15T03:45:30Z</time></trkpt><trkpt lat="-27.74303084579694" lon="114.88380204686484"><ele>228.0</ele><time>2026-04-15T03:45:31Z</time></trkpt><trkpt lat="-27.742858739776597" lon="114.8839699853743"><ele>228.0</ele><time>2026-04-15T03:45:32Z</time></trkpt><trkpt lat="-27.742690595716358" lon="114.88414586888277"><ele>229.5</ele><time>2026-04-15T03:45:33Z</time></trkpt><trkpt lat="-27.742514398989698" lon="114.8843157215737"><ele>231.0</ele><time>2026-04-15T03:45:34Z</time></trkpt><trkpt lat="-27.742346347967544" lon="114.88448472993556"><ele>231.0</ele><time>2026-04-15T03:45:35Z</time></trkpt><trkpt lat="-27.74217481592294" lon="114.88465499466783"><ele>231.0</ele><time>2026-04-15T03:45:36Z</time></trkpt><trkpt lat="-27.7419988732851" lon="114.88482707339993"><ele>230.5</ele><time>2026-04-15T03:45:37Z</time></trkpt><trkpt lat="-27.74182621651412" lon="114.884996171613"><ele>230.0</ele><time>2026-04-15T03:45:38Z</time></trkpt><trkpt lat="-27.74165458268837" lon="114.88516896336264"><ele>231.5</ele><time>2026-04-15T03:45:39Z</time></trkpt><trkpt lat="-27.7414734693889" lon="114.88535039881556"><ele>233.0</ele><time>2026-04-15T03:45:40Z</time></trkpt><trkpt lat="-27.74129542555021" lon="114.8855215952427"><ele>233.0</ele><time>2026-04-15T03:45:41Z</time></trkpt><trkpt lat="-27.74112669814838" lon="114.88569484231006"><ele>233.0</ele><time>2026-04-15T03:45:42Z</time></trkpt><trkpt lat="-27.74094912115519" lon="114.88587064965232"><ele>233.5</ele><time>2026-04-15T03:45:43Z</time></trkpt><trkpt lat="-27.740768800759565" lon="114.88604245536574"><ele>234.0</ele><time>2026-04-15T03:45:44Z</time></trkpt><trkpt lat="-27.74059050365073" lon="114.88622469893232"><ele>234.0</ele><time>2026-04-15T03:45:45Z</time></trkpt><trkpt lat="-27.74040954929799" lon="114.8864014909407"><ele>234.0</ele><time>2026-04-15T03:45:46Z</time></trkpt><trkpt lat="-27.740224830344744" lon="114.88658198923069"><ele>234.5</ele><time>2026-04-15T03:45:47Z</time></trkpt><trkpt lat="-27.740041125617147" lon="114.88676099255042"><ele>235.0</ele><time>2026-04-15T03:45:48Z</time></trkpt><trkpt lat="-27.739854027709736" lon="114.88694392656758"><ele>235.0</ele><time>2026-04-15T03:45:49Z</time></trkpt><trkpt lat="-27.739477521735378" lon="114.88731531427695"><ele>233.5</ele><time>2026-04-15T03:45:51Z</time></trkpt><trkpt lat="-27.739290801724557" lon="114.88749808538302"><ele>232.0</ele><time>2026-04-15T03:45:52Z</time></trkpt><trkpt lat="-27.739103838570788" lon="114.88768202848205"><ele>232.0</ele><time>2026-04-15T03:45:53Z</time></trkpt><trkpt lat="-27.738916701449966" lon="114.88786840969777"><ele>232.0</ele><time>2026-04-15T03:45:54Z</time></trkpt><trkpt lat="-27.738727840676525" lon="114.88805182972115"><ele>231.5</ele><time>2026-04-15T03:45:55Z</time></trkpt><trkpt lat="-27.738541237945032" lon="114.88823026913109"><ele>231.0</ele><time>2026-04-15T03:45:56Z</time></trkpt><trkpt lat="-27.738355069664856" lon="114.88841494441502"><ele>230.5</ele><time>2026-04-15T03:45:57Z</time></trkpt><trkpt lat="-27.738172505295392" lon="114.88859717035021"><ele>230.0</ele><time>2026-04-15T03:45:58Z</time></trkpt><trkpt lat="-27.737983469902975" lon="114.88878501545463"><ele>230.0</ele><time>2026-04-15T03:45:59Z</time></trkpt><trkpt lat="-27.73779791803761" lon="114.88896903110773"><ele>230.0</ele><time>2026-04-15T03:46:00.001Z</time></trkpt><trkpt lat="-27.73761089146883" lon="114.88915317094192"><ele>229.0</ele><time>2026-04-15T03:46:01.001Z</time></trkpt><trkpt lat="-27.737422807091942" lon="114.88933940543338"><ele>228.0</ele><time>2026-04-15T03:46:02.001Z</time></trkpt><trkpt lat="-27.737239783308443" lon="114.88952001817344"><ele>228.0</ele><time>2026-04-15T03:46:03.001Z</time></trkpt><trkpt lat="-27.737059701949914" lon="114.8896988581818"><ele>228.0</ele><time>2026-04-15T03:46:04.001Z</time></trkpt><trkpt lat="-27.736886692183067" lon="114.88987049016131"><ele>225.0</ele><time>2026-04-15T03:46:05.001Z</time></trkpt><trkpt lat="-27.736709875502505" lon="114.89004318726802"><ele>222.0</ele><time>2026-04-15T03:46:06.001Z</time></trkpt><trkpt lat="-27.736535730017195" lon="114.89021331471065"><ele>222.0</ele><time>2026-04-15T03:46:07.001Z</time></trkpt><trkpt lat="-27.73636510689322" lon="114.89038365655317"><ele>222.0</ele><time>2026-04-15T03:46:07.998Z</time></trkpt><trkpt lat="-27.736192448192092" lon="114.89055742693748"><ele>220.5</ele><time>2026-04-15T03:46:08.998Z</time></trkpt><trkpt lat="-27.736015164811008" lon="114.89073494242474"><ele>219.0</ele><time>2026-04-15T03:46:09.998Z</time></trkpt><trkpt lat="-27.73566311990938" lon="114.89108875285834"><ele>219.0</ele><time>2026-04-15T03:46:11.998Z</time></trkpt><trkpt lat="-27.735483145500673" lon="114.8912635026723"><ele>219.0</ele><time>2026-04-15T03:46:12.998Z</time></trkpt><trkpt lat="-27.735310070665303" lon="114.89143788982481"><ele>218.5</ele><time>2026-04-15T03:46:13.998Z</time></trkpt><trkpt lat="-27.735134092607026" lon="114.89161526363995"><ele>218.0</ele><time>2026-04-15T03:46:14.998Z</time></trkpt><trkpt lat="-27.7349587117157" lon="114.89178812113082"><ele>216.0</ele><time>2026-04-15T03:46:15.998Z</time></trkpt><trkpt lat="-27.73478456399652" lon="114.89196142761543"><ele>214.0</ele><time>2026-04-15T03:46:16.998Z</time></trkpt><trkpt lat="-27.734611040536723" lon="114.8921342665795"><ele>214.0</ele><time>2026-04-15T03:46:17.998Z</time></trkpt><trkpt lat="-27.734445136578763" lon="114.89230540422808"><ele>214.0</ele><time>2026-04-15T03:46:18.999Z</time></trkpt><trkpt lat="-27.734273627321457" lon="114.89247691915193"><ele>215.0</ele><time>2026-04-15T03:46:19.999Z</time></trkpt><trkpt lat="-27.73410167257449" lon="114.89264508994187"><ele>216.0</ele><time>2026-04-15T03:46:20.999Z</time></trkpt><trkpt lat="-27.733921552626366" lon="114.89281845220012"><ele>216.0</ele><time>2026-04-15T03:46:21.999Z</time></trkpt><trkpt lat="-27.733736847795434" lon="114.8929974818076"><ele>216.0</ele><time>2026-04-15T03:46:22.999Z</time></trkpt><trkpt lat="-27.733553150672403" lon="114.89318289921121"><ele>215.5</ele><time>2026-04-15T03:46:23.999Z</time></trkpt><trkpt lat="-27.733372778257145" lon="114.89336510370929"><ele>215.0</ele><time>2026-04-15T03:46:24.999Z</time></trkpt><trkpt lat="-27.733189933310438" lon="114.89354379417134"><ele>215.0</ele><time>2026-04-15T03:46:25.999Z</time></trkpt><trkpt lat="-27.733007620586648" lon="114.89371914270238"><ele>215.0</ele><time>2026-04-15T03:46:26.999Z</time></trkpt><trkpt lat="-27.732829038255918" lon="114.89389864386419"><ele>214.0</ele><time>2026-04-15T03:46:27.999Z</time></trkpt><trkpt lat="-27.732648282520298" lon="114.89408146196338"><ele>213.0</ele><time>2026-04-15T03:46:28.999Z</time></trkpt><trkpt lat="-27.732466163725345" lon="114.89426321393995"><ele>212.0</ele><time>2026-04-15T03:46:29.999Z</time></trkpt><trkpt lat="-27.732282226794013" lon="114.89444650555184"><ele>211.0</ele><time>2026-04-15T03:46:30.999Z</time></trkpt><trkpt lat="-27.731908005365415" lon="114.89482491764782"><ele>211.0</ele><time>2026-04-15T03:46:32.999Z</time></trkpt><trkpt lat="-27.731720027582277" lon="114.89501009381816"><ele>211.0</ele><time>2026-04-15T03:46:33.999Z</time></trkpt><trkpt lat="-27.73152735001696" lon="114.89519572280366"><ele>211.0</ele><time>2026-04-15T03:46:34.999Z</time></trkpt><trkpt lat="-27.731333097007116" lon="114.89538769385618"><ele>211.0</ele><time>2026-04-15T03:46:35.999Z</time></trkpt><trkpt lat="-27.731135165883092" lon="114.89558372043851"><ele>210.5</ele><time>2026-04-15T03:46:36.999Z</time></trkpt><trkpt lat="-27.730946320023662" lon="114.89577438717455"><ele>210.0</ele><time>2026-04-15T03:46:37.999Z</time></trkpt><trkpt lat="-27.730749205277377" lon="114.89596684038632"><ele>210.0</ele><time>2026-04-15T03:46:38.999Z</time></trkpt><trkpt lat="-27.730560653776422" lon="114.89615665789704"><ele>210.0</ele><time>2026-04-15T03:46:39.999Z</time></trkpt><trkpt lat="-27.730368049078102" lon="114.89634942965795"><ele>209.0</ele><time>2026-04-15T03:46:40.999Z</time></trkpt><trkpt lat="-27.73017163896595" lon="114.8965423406191"><ele>208.0</ele><time>2026-04-15T03:46:42Z</time></trkpt><trkpt lat="-27.729976309854802" lon="114.89673703049145"><ele>208.0</ele><time>2026-04-15T03:46:43Z</time></trkpt><trkpt lat="-27.729786368030986" lon="114.89692779646566"><ele>208.0</ele><time>2026-04-15T03:46:44Z</time></trkpt><trkpt lat="-27.729601590456735" lon="114.89711558465035"><ele>208.0</ele><time>2026-04-15T03:46:45Z</time></trkpt><trkpt lat="-27.72941373424996" lon="114.89730111406219"><ele>208.0</ele><time>2026-04-15T03:46:46Z</time></trkpt><trkpt lat="-27.72923110679721" lon="114.89748362912087"><ele>208.5</ele><time>2026-04-15T03:46:47Z</time></trkpt><trkpt lat="-27.729045125984506" lon="114.89766714429501"><ele>209.0</ele><time>2026-04-15T03:46:48Z</time></trkpt><trkpt lat="-27.728857334717773" lon="114.89785204048587"><ele>209.0</ele><time>2026-04-15T03:46:49Z</time></trkpt><trkpt lat="-27.728670420828408" lon="114.89803608463117"><ele>209.0</ele><time>2026-04-15T03:46:50Z</time></trkpt><trkpt lat="-27.728483806636017" lon="114.89821970482068"><ele>209.5</ele><time>2026-04-15T03:46:51Z</time></trkpt><trkpt lat="-27.72829654315052" lon="114.89840654977993"><ele>210.0</ele><time>2026-04-15T03:46:52Z</time></trkpt><trkpt lat="-27.72791067770618" lon="114.89878403457139"><ele>210.0</ele><time>2026-04-15T03:46:54Z</time></trkpt><trkpt lat="-27.727716481423915" lon="114.89897450162107"><ele>210.0</ele><time>2026-04-15T03:46:55Z</time></trkpt><trkpt lat="-27.72751721671616" lon="114.89916980695374"><ele>210.0</ele><time>2026-04-15T03:46:56Z</time></trkpt><trkpt lat="-27.727322468600583" lon="114.89936151394163"><ele>210.0</ele><time>2026-04-15T03:46:57Z</time></trkpt><trkpt lat="-27.72712878251376" lon="114.8995522369651"><ele>210.0</ele><time>2026-04-15T03:46:58Z</time></trkpt><trkpt lat="-27.726932067944652" lon="114.89974963457053"><ele>210.0</ele><time>2026-04-15T03:46:59Z</time></trkpt><trkpt lat="-27.726742224749394" lon="114.89994060579724"><ele>210.0</ele><time>2026-04-15T03:47:00Z</time></trkpt><trkpt lat="-27.726543585655993" lon="114.90013564395863"><ele>210.0</ele><time>2026-04-15T03:47:01Z</time></trkpt><trkpt lat="-27.72634453448784" lon="114.90033114098131"><ele>210.0</ele><time>2026-04-15T03:47:02Z</time></trkpt><trkpt lat="-27.726144885931983" lon="114.90052742752972"><ele>210.0</ele><time>2026-04-15T03:47:03Z</time></trkpt><trkpt lat="-27.725945449897594" lon="114.90072526599319"><ele>209.0</ele><time>2026-04-15T03:47:04Z</time></trkpt><trkpt lat="-27.7257420931865" lon="114.9009263523649"><ele>208.0</ele><time>2026-04-15T03:47:05Z</time></trkpt><trkpt lat="-27.72553699882319" lon="114.90112725465237"><ele>208.0</ele><time>2026-04-15T03:47:06Z</time></trkpt><trkpt lat="-27.725340110857502" lon="114.90132389431838"><ele>208.0</ele><time>2026-04-15T03:47:07Z</time></trkpt><trkpt lat="-27.725144026283598" lon="114.9015177211843"><ele>209.0</ele><time>2026-04-15T03:47:08Z</time></trkpt><trkpt lat="-27.724945670274483" lon="114.90171318943962"><ele>210.0</ele><time>2026-04-15T03:47:09Z</time></trkpt><trkpt lat="-27.724747457462136" lon="114.90191078904532"><ele>210.5</ele><time>2026-04-15T03:47:10Z</time></trkpt><trkpt lat="-27.724554217029443" lon="114.90210375397933"><ele>211.0</ele><time>2026-04-15T03:47:11Z</time></trkpt><trkpt lat="-27.724362497313365" lon="114.90229707104561"><ele>211.0</ele><time>2026-04-15T03:47:12Z</time></trkpt><trkpt lat="-27.72416913969952" lon="114.90248825752452"><ele>211.0</ele><time>2026-04-15T03:47:13Z</time></trkpt><trkpt lat="-27.72378502606599" lon="114.90287157534301"><ele>211.0</ele><time>2026-04-15T03:47:15Z</time></trkpt><trkpt lat="-27.723590832607403" lon="114.90306609188512"><ele>211.0</ele><time>2026-04-15T03:47:16Z</time></trkpt><trkpt lat="-27.723393064861646" lon="114.90326314281666"><ele>210.5</ele><time>2026-04-15T03:47:17Z</time></trkpt><trkpt lat="-27.723194532721944" lon="114.90346161835397"><ele>210.0</ele><time>2026-04-15T03:47:18Z</time></trkpt><trkpt lat="-27.722997708117376" lon="114.90365482383247"><ele>210.0</ele><time>2026-04-15T03:47:19Z</time></trkpt><trkpt lat="-27.722806015057206" lon="114.90384806346482"><ele>210.0</ele><time>2026-04-15T03:47:20Z</time></trkpt><trkpt lat="-27.722613858144243" lon="114.90403790549236"><ele>210.5</ele><time>2026-04-15T03:47:21Z</time></trkpt><trkpt lat="-27.722420609356426" lon="114.90422773898575"><ele>211.0</ele><time>2026-04-15T03:47:22.001Z</time></trkpt><trkpt lat="-27.722229164059875" lon="114.90441600224462"><ele>211.0</ele><time>2026-04-15T03:47:23.001Z</time></trkpt><trkpt lat="-27.722034552201713" lon="114.9046073764354"><ele>211.0</ele><time>2026-04-15T03:47:24.001Z</time></trkpt><trkpt lat="-27.721840385233754" lon="114.90479892470023"><ele>211.5</ele><time>2026-04-15T03:47:25.001Z</time></trkpt><trkpt lat="-27.721645195550916" lon="114.90499152162056"><ele>212.0</ele><time>2026-04-15T03:47:26.001Z</time></trkpt><trkpt lat="-27.721446295869193" lon="114.90518337194453"><ele>212.0</ele><time>2026-04-15T03:47:27.001Z</time></trkpt><trkpt lat="-27.72124546089219" lon="114.90537543921766"><ele>212.0</ele><time>2026-04-15T03:47:28.001Z</time></trkpt><trkpt lat="-27.721043400831984" lon="114.90557009254367"><ele>213.0</ele><time>2026-04-15T03:47:29.001Z</time></trkpt><trkpt lat="-27.720842713150024" lon="114.90576851519982"><ele>214.0</ele><time>2026-04-15T03:47:30.001Z</time></trkpt><trkpt lat="-27.720641704389276" lon="114.90596641391171"><ele>214.0</ele><time>2026-04-15T03:47:31.001Z</time></trkpt><trkpt lat="-27.720441358614874" lon="114.90616384142922"><ele>214.0</ele><time>2026-04-15T03:47:32.001Z</time></trkpt><trkpt lat="-27.72023924317952" lon="114.90635984218163"><ele>214.0</ele><time>2026-04-15T03:47:33.001Z</time></trkpt><trkpt lat="-27.72004022969617" lon="114.90655770369564"><ele>214.0</ele><time>2026-04-15T03:47:34.001Z</time></trkpt><trkpt lat="-27.71965987834917" lon="114.90693844480414"><ele>214.0</ele><time>2026-04-15T03:47:36.001Z</time></trkpt><trkpt lat="-27.719470705191632" lon="114.90712680314253"><ele>214.0</ele><time>2026-04-15T03:47:37.001Z</time></trkpt><trkpt lat="-27.719280004396516" lon="114.90731332108139"><ele>214.0</ele><time>2026-04-15T03:47:38.001Z</time></trkpt><trkpt lat="-27.719094545565667" lon="114.90749538295245"><ele>214.0</ele><time>2026-04-15T03:47:39.001Z</time></trkpt><trkpt lat="-27.718908872476124" lon="114.90767776422267"><ele>214.0</ele><time>2026-04-15T03:47:40.001Z</time></trkpt><trkpt lat="-27.718717603303006" lon="114.90786819495159"><ele>214.0</ele><time>2026-04-15T03:47:41.001Z</time></trkpt><trkpt lat="-27.718531526236752" lon="114.90805435056805"><ele>215.0</ele><time>2026-04-15T03:47:42.001Z</time></trkpt><trkpt lat="-27.718340412639527" lon="114.90824624513363"><ele>216.0</ele><time>2026-04-15T03:47:43.001Z</time></trkpt><trkpt lat="-27.718149359322226" lon="114.90843895968757"><ele>216.0</ele><time>2026-04-15T03:47:44.001Z</time></trkpt><trkpt lat="-27.71795648362656" lon="114.90863174882556"><ele>216.0</ele><time>2026-04-15T03:47:45.001Z</time></trkpt><trkpt lat="-27.71776486014411" lon="114.90882124657372"><ele>216.0</ele><time>2026-04-15T03:47:46.001Z</time></trkpt><trkpt lat="-27.71757368698896" lon="114.90900937052257"><ele>216.0</ele><time>2026-04-15T03:47:47.001Z</time></trkpt><trkpt lat="-27.71738673548106" lon="114.90919492950464"><ele>216.5</ele><time>2026-04-15T03:47:48.001Z</time></trkpt><trkpt lat="-27.717196640106675" lon="114.90938270825882"><ele>217.0</ele><time>2026-04-15T03:47:49.001Z</time></trkpt><trkpt lat="-27.717001579663542" lon="114.90957307451265"><ele>217.0</ele><time>2026-04-15T03:47:50.001Z</time></trkpt><trkpt lat="-27.71679987372471" lon="114.90976873643744"><ele>217.0</ele><time>2026-04-15T03:47:51.001Z</time></trkpt><trkpt lat="-27.716597793421627" lon="114.90996635276504"><ele>216.5</ele><time>2026-04-15T03:47:52.001Z</time></trkpt><trkpt lat="-27.71638882275394" lon="114.91016916129652"><ele>216.0</ele><time>2026-04-15T03:47:53.001Z</time></trkpt><trkpt lat="-27.716179516518658" lon="114.91037468321383"><ele>217.5</ele><time>2026-04-15T03:47:54.001Z</time></trkpt><trkpt lat="-27.715969546620425" lon="114.91058080121407"><ele>219.0</ele><time>2026-04-15T03:47:55.001Z</time></trkpt><trkpt lat="-27.715552159204734" lon="114.91099525735694"><ele>220.0</ele><time>2026-04-15T03:47:57.001Z</time></trkpt><trkpt lat="-27.715340440887605" lon="114.91120327817134"><ele>221.0</ele><time>2026-04-15T03:47:58.001Z</time></trkpt><trkpt lat="-27.715128380668226" lon="114.91140810451918"><ele>221.5</ele><time>2026-04-15T03:47:59.001Z</time></trkpt><trkpt lat="-27.714919234190123" lon="114.91160995776646"><ele>222.0</ele><time>2026-04-15T03:48:00.001Z</time></trkpt><trkpt lat="-27.714717226706576" lon="114.91181022486637"><ele>223.0</ele><time>2026-04-15T03:48:01.001Z</time></trkpt><trkpt lat="-27.714522985522606" lon="114.91200457032258"><ele>224.0</ele><time>2026-04-15T03:48:02.001Z</time></trkpt><trkpt lat="-27.714329991340083" lon="114.91219409887186"><ele>224.5</ele><time>2026-04-15T03:48:03.001Z</time></trkpt><trkpt lat="-27.71414103895272" lon="114.91237927910639"><ele>225.0</ele><time>2026-04-15T03:48:04.001Z</time></trkpt><trkpt lat="-27.71395069556252" lon="114.91256538321291"><ele>225.0</ele><time>2026-04-15T03:48:05.001Z</time></trkpt><trkpt lat="-27.71376620724987" lon="114.91274877082348"><ele>225.0</ele><time>2026-04-15T03:48:06.001Z</time></trkpt><trkpt lat="-27.713582938024267" lon="114.9129325099598"><ele>225.0</ele><time>2026-04-15T03:48:07.001Z</time></trkpt><trkpt lat="-27.713397518339214" lon="114.91311750403065"><ele>225.0</ele><time>2026-04-15T03:48:08.001Z</time></trkpt><trkpt lat="-27.71321073518735" lon="114.91330468829423"><ele>226.0</ele><time>2026-04-15T03:48:09.001Z</time></trkpt><trkpt lat="-27.713025096844337" lon="114.91349204088455"><ele>227.0</ele><time>2026-04-15T03:48:10.002Z</time></trkpt><trkpt lat="-27.712832761854433" lon="114.91368384377876"><ele>225.0</ele><time>2026-04-15T03:48:11.002Z</time></trkpt><trkpt lat="-27.71264210617962" lon="114.913875205002"><ele>223.0</ele><time>2026-04-15T03:48:12.002Z</time></trkpt><trkpt lat="-27.712446927637956" lon="114.91406595160552"><ele>224.5</ele><time>2026-04-15T03:48:13.002Z</time></trkpt><trkpt lat="-27.712250583592503" lon="114.91425771425352"><ele>226.0</ele><time>2026-04-15T03:48:14Z</time></trkpt><trkpt lat="-27.712056167030795" lon="114.91444797341885"><ele>224.0</ele><time>2026-04-15T03:48:15Z</time></trkpt><trkpt lat="-27.71185887832187" lon="114.91464269685369"><ele>222.0</ele><time>2026-04-15T03:48:16Z</time></trkpt><trkpt lat="-27.711467352478554" lon="114.9150348702612"><ele>223.0</ele><time>2026-04-15T03:48:18Z</time></trkpt><trkpt lat="-27.711272879215162" lon="114.91523050760594"><ele>224.0</ele><time>2026-04-15T03:48:19Z</time></trkpt><trkpt lat="-27.71107665535188" lon="114.91542787798559"><ele>225.0</ele><time>2026-04-15T03:48:20Z</time></trkpt><trkpt lat="-27.71088409142634" lon="114.9156219719004"><ele>226.0</ele><time>2026-04-15T03:48:21Z</time></trkpt><trkpt lat="-27.710693962571508" lon="114.91581542987616"><ele>226.0</ele><time>2026-04-15T03:48:22Z</time></trkpt><trkpt lat="-27.710510004884817" lon="114.91600317303148"><ele>226.0</ele><time>2026-04-15T03:48:23Z</time></trkpt><trkpt lat="-27.71031943134995" lon="114.91618830193849"><ele>227.0</ele><time>2026-04-15T03:48:24Z</time></trkpt><trkpt lat="-27.710131766469168" lon="114.91636907276292"><ele>228.0</ele><time>2026-04-15T03:48:25Z</time></trkpt><trkpt lat="-27.70994598793697" lon="114.91655024991178"><ele>228.0</ele><time>2026-04-15T03:48:26Z</time></trkpt><trkpt lat="-27.709757488607906" lon="114.91673524772861"><ele>228.0</ele><time>2026-04-15T03:48:27Z</time></trkpt><trkpt lat="-27.709564411942996" lon="114.91692625126441"><ele>231.0</ele><time>2026-04-15T03:48:28Z</time></trkpt><trkpt lat="-27.709370638405268" lon="114.91711857534028"><ele>234.0</ele><time>2026-04-15T03:48:29Z</time></trkpt><trkpt lat="-27.70917579376648" lon="114.91731102360372"><ele>234.0</ele><time>2026-04-15T03:48:30Z</time></trkpt><trkpt lat="-27.708983717942864" lon="114.91750174458876"><ele>234.0</ele><time>2026-04-15T03:48:31.001Z</time></trkpt><trkpt lat="-27.70878904501244" lon="114.917692869446"><ele>235.0</ele><time>2026-04-15T03:48:32.001Z</time></trkpt><trkpt lat="-27.708594449334782" lon="114.91788387908021"><ele>236.0</ele><time>2026-04-15T03:48:33.001Z</time></trkpt><trkpt lat="-27.708402348338623" lon="114.91807418257402"><ele>236.0</ele><time>2026-04-15T03:48:34.001Z</time></trkpt><trkpt lat="-27.70820955226826" lon="114.91826313378034"><ele>236.0</ele><time>2026-04-15T03:48:35.001Z</time></trkpt><trkpt lat="-27.7080191076406" lon="114.91844734052219"><ele>238.0</ele><time>2026-04-15T03:48:36.001Z</time></trkpt><trkpt lat="-27.70782326244275" lon="114.91863647942274"><ele>240.0</ele><time>2026-04-15T03:48:37.001Z</time></trkpt><trkpt lat="-27.70742749269623" lon="114.91902409923428"><ele>240.0</ele><time>2026-04-15T03:48:39.001Z</time></trkpt><trkpt lat="-27.70723056647228" lon="114.9192190008877"><ele>240.0</ele><time>2026-04-15T03:48:40.001Z</time></trkpt><trkpt lat="-27.70703297078088" lon="114.91941556245298"><ele>240.5</ele><time>2026-04-15T03:48:41.001Z</time></trkpt><trkpt lat="-27.706831532211236" lon="114.91961228379583"><ele>241.0</ele><time>2026-04-15T03:48:42.001Z</time></trkpt><trkpt lat="-27.706627406809332" lon="114.91980590541326"><ele>241.0</ele><time>2026-04-15T03:48:43.001Z</time></trkpt><trkpt lat="-27.706422586857798" lon="114.92000268850417"><ele>241.0</ele><time>2026-04-15T03:48:44.001Z</time></trkpt><trkpt lat="-27.70621715604448" lon="114.92019923683029"><ele>242.5</ele><time>2026-04-15T03:48:45.001Z</time></trkpt><trkpt lat="-27.70601290696408" lon="114.92039567405324"><ele>244.0</ele><time>2026-04-15T03:48:46.001Z</time></trkpt><trkpt lat="-27.705807726886096" lon="114.92059411730011"><ele>244.0</ele><time>2026-04-15T03:48:47.001Z</time></trkpt><trkpt lat="-27.70559985638022" lon="114.92079433658407"><ele>244.0</ele><time>2026-04-15T03:48:48.001Z</time></trkpt><trkpt lat="-27.70538808979335" lon="114.92099664206083"><ele>245.5</ele><time>2026-04-15T03:48:49.001Z</time></trkpt><trkpt lat="-27.70517175824015" lon="114.92119809955065"><ele>247.0</ele><time>2026-04-15T03:48:50.001Z</time></trkpt><trkpt lat="-27.704960194466455" lon="114.92139969115594"><ele>247.0</ele><time>2026-04-15T03:48:51.001Z</time></trkpt><trkpt lat="-27.704748923200825" lon="114.92160273963204"><ele>247.0</ele><time>2026-04-15T03:48:52.001Z</time></trkpt><trkpt lat="-27.70454181747992" lon="114.9218067463817"><ele>248.0</ele><time>2026-04-15T03:48:53.001Z</time></trkpt><trkpt lat="-27.70433731159218" lon="114.92200808209417"><ele>249.0</ele><time>2026-04-15T03:48:54.001Z</time></trkpt><trkpt lat="-27.704134400352284" lon="114.92220829015292"><ele>249.0</ele><time>2026-04-15T03:48:55.001Z</time></trkpt><trkpt lat="-27.703930793412546" lon="114.92240741940606"><ele>249.0</ele><time>2026-04-15T03:48:56.001Z</time></trkpt><trkpt lat="-27.70372779281759" lon="114.92260426711768"><ele>249.0</ele><time>2026-04-15T03:48:57.001Z</time></trkpt><trkpt lat="-27.7035288062289" lon="114.9227967395912"><ele>249.0</ele><time>2026-04-15T03:48:58.001Z</time></trkpt><trkpt lat="-27.703129128555958" lon="114.9231879552832"><ele>249.0</ele><time>2026-04-15T03:49:00.001Z</time></trkpt><trkpt lat="-27.70292951007349" lon="114.92338446069726"><ele>249.0</ele><time>2026-04-15T03:49:01.001Z</time></trkpt><trkpt lat="-27.7027278742225" lon="114.92358394983724"><ele>249.5</ele><time>2026-04-15T03:49:02.001Z</time></trkpt><trkpt lat="-27.702527261889845" lon="114.92377969956617"><ele>250.0</ele><time>2026-04-15T03:49:03.001Z</time></trkpt><trkpt lat="-27.70232464516517" lon="114.92397294920762"><ele>250.0</ele><time>2026-04-15T03:49:04.001Z</time></trkpt><trkpt lat="-27.702123662488592" lon="114.92416497147259"><ele>250.0</ele><time>2026-04-15T03:49:05.001Z</time></trkpt><trkpt lat="-27.70192436667975" lon="114.92435796654831"><ele>250.5</ele><time>2026-04-15T03:49:06.001Z</time></trkpt><trkpt lat="-27.7017230311894" lon="114.92455359782305"><ele>251.0</ele><time>2026-04-15T03:49:07.001Z</time></trkpt><trkpt lat="-27.701522448435377" lon="114.92475447956835"><ele>251.0</ele><time>2026-04-15T03:49:08.001Z</time></trkpt><trkpt lat="-27.701322247057504" lon="114.92495428267114"><ele>251.0</ele><time>2026-04-15T03:49:09.001Z</time></trkpt><trkpt lat="-27.70111650904238" lon="114.92515525749687"><ele>251.5</ele><time>2026-04-15T03:49:10.001Z</time></trkpt><trkpt lat="-27.700909534850613" lon="114.92535671751581"><ele>252.0</ele><time>2026-04-15T03:49:11.001Z</time></trkpt><trkpt lat="-27.700699753609413" lon="114.92555753950059"><ele>252.0</ele><time>2026-04-15T03:49:12.001Z</time></trkpt><trkpt lat="-27.700490846951894" lon="114.92575859117389"><ele>252.0</ele><time>2026-04-15T03:49:13.001Z</time></trkpt><trkpt lat="-27.70028138152486" lon="114.92595976384254"><ele>252.5</ele><time>2026-04-15T03:49:14.001Z</time></trkpt><trkpt lat="-27.700074377563084" lon="114.92616297698136"><ele>253.0</ele><time>2026-04-15T03:49:15.001Z</time></trkpt><trkpt lat="-27.699864233939127" lon="114.9263665609599"><ele>253.0</ele><time>2026-04-15T03:49:16.001Z</time></trkpt><trkpt lat="-27.699650590302863" lon="114.92657428261138"><ele>253.0</ele><time>2026-04-15T03:49:17.001Z</time></trkpt><trkpt lat="-27.699437460489868" lon="114.92677874885553"><ele>253.5</ele><time>2026-04-15T03:49:18.001Z</time></trkpt><trkpt lat="-27.69922632720379" lon="114.9269834103542"><ele>254.0</ele><time>2026-04-15T03:49:19.001Z</time></trkpt><trkpt lat="-27.698805711061393" lon="114.92739428232387"><ele>254.0</ele><time>2026-04-15T03:49:21.001Z</time></trkpt><trkpt lat="-27.698596698599502" lon="114.9276018060282"><ele>254.0</ele><time>2026-04-15T03:49:22.001Z</time></trkpt><trkpt lat="-27.698390209081335" lon="114.92780425758889"><ele>254.0</ele><time>2026-04-15T03:49:23.001Z</time></trkpt><trkpt lat="-27.69818031487446" lon="114.92800712776462"><ele>254.0</ele><time>2026-04-15T03:49:24.001Z</time></trkpt><trkpt lat="-27.69797299792874" lon="114.92820640489505"><ele>253.5</ele><time>2026-04-15T03:49:25.001Z</time></trkpt><trkpt lat="-27.697768658968204" lon="114.92840522318602"><ele>253.0</ele><time>2026-04-15T03:49:26.001Z</time></trkpt><trkpt lat="-27.697565867192875" lon="114.92860492890247"><ele>253.0</ele><time>2026-04-15T03:49:27.001Z</time></trkpt><trkpt lat="-27.697364080483098" lon="114.9288057198799"><ele>253.0</ele><time>2026-04-15T03:49:28.002Z</time></trkpt><trkpt lat="-27.697159719903627" lon="114.92900513917748"><ele>253.0</ele><time>2026-04-15T03:49:29.002Z</time></trkpt><trkpt lat="-27.696956985498304" lon="114.92920386699124"><ele>253.0</ele><time>2026-04-15T03:49:30.002Z</time></trkpt><trkpt lat="-27.696754178635615" lon="114.92939869446441"><ele>253.0</ele><time>2026-04-15T03:49:31.002Z</time></trkpt><trkpt lat="-27.69655318048767" lon="114.92959225703069"><ele>253.0</ele><time>2026-04-15T03:49:32.002Z</time></trkpt><trkpt lat="-27.69635323152456" lon="114.92978576634388"><ele>253.0</ele><time>2026-04-15T03:49:33.002Z</time></trkpt><trkpt lat="-27.69615428435748" lon="114.92998029852447"><ele>253.0</ele><time>2026-04-15T03:49:34.002Z</time></trkpt><trkpt lat="-27.695952827195836" lon="114.93017561495817"><ele>252.5</ele><time>2026-04-15T03:49:35.002Z</time></trkpt><trkpt lat="-27.695755782318546" lon="114.93036951265398"><ele>252.0</ele><time>2026-04-15T03:49:36.002Z</time></trkpt><trkpt lat="-27.695554182358443" lon="114.93056736600714"><ele>252.0</ele><time>2026-04-15T03:49:37.002Z</time></trkpt><trkpt lat="-27.695349543376757" lon="114.93076642484058"><ele>252.0</ele><time>2026-04-15T03:49:38.002Z</time></trkpt><trkpt lat="-27.69514712423734" lon="114.93096481391348"><ele>249.5</ele><time>2026-04-15T03:49:39.002Z</time></trkpt><trkpt lat="-27.694946342503513" lon="114.93115988390441"><ele>247.0</ele><time>2026-04-15T03:49:40.002Z</time></trkpt><trkpt lat="-27.694558410236336" lon="114.93153369795569"><ele>247.5</ele><time>2026-04-15T03:49:42.002Z</time></trkpt><trkpt lat="-27.694360758848173" lon="114.93172250169076"><ele>248.0</ele><time>2026-04-15T03:49:43.002Z</time></trkpt><trkpt lat="-27.694157380571585" lon="114.93191735645871"><ele>249.0</ele><time>2026-04-15T03:49:44.002Z</time></trkpt><trkpt lat="-27.69395570855973" lon="114.93211198706334"><ele>250.0</ele><time>2026-04-15T03:49:45.002Z</time></trkpt><trkpt lat="-27.693753987595954" lon="114.93230820808274"><ele>249.0</ele><time>2026-04-15T03:49:46.002Z</time></trkpt><trkpt lat="-27.693555635839704" lon="114.932504028857"><ele>248.0</ele><time>2026-04-15T03:49:47.002Z</time></trkpt><trkpt lat="-27.693358746474935" lon="114.93269973007776"><ele>248.0</ele><time>2026-04-15T03:49:48.002Z</time></trkpt><trkpt lat="-27.693163765238413" lon="114.9328920004759"><ele>248.0</ele><time>2026-04-15T03:49:49.002Z</time></trkpt><trkpt lat="-27.69297260566598" lon="114.93308238485307"><ele>248.0</ele><time>2026-04-15T03:49:50.002Z</time></trkpt><trkpt lat="-27.692782396489722" lon="114.9332716307534"><ele>248.0</ele><time>2026-04-15T03:49:51.002Z</time></trkpt><trkpt lat="-27.692591225059214" lon="114.93345939997013"><ele>246.5</ele><time>2026-04-15T03:49:52.002Z</time></trkpt><trkpt lat="-27.692399233523396" lon="114.93364782537294"><ele>245.0</ele><time>2026-04-15T03:49:53.002Z</time></trkpt><trkpt lat="-27.692201182214887" lon="114.9338389737667"><ele>245.0</ele><time>2026-04-15T03:49:54.002Z</time></trkpt><trkpt lat="-27.691997943132417" lon="114.93403302989807"><ele>245.0</ele><time>2026-04-15T03:49:55.002Z</time></trkpt><trkpt lat="-27.6917960873225" lon="114.93422685482045"><ele>245.5</ele><time>2026-04-15T03:49:56.002Z</time></trkpt><trkpt lat="-27.69159487605294" lon="114.93441856785688"><ele>246.0</ele><time>2026-04-15T03:49:57.002Z</time></trkpt><trkpt lat="-27.691394030918072" lon="114.93461101656439"><ele>246.0</ele><time>2026-04-15T03:49:58.002Z</time></trkpt><trkpt lat="-27.691195385321862" lon="114.9348029880756"><ele>246.0</ele><time>2026-04-15T03:49:59.002Z</time></trkpt><trkpt lat="-27.69099342545418" lon="114.93499954416728"><ele>245.5</ele><time>2026-04-15T03:50:00.002Z</time></trkpt><trkpt lat="-27.690793704549097" lon="114.93519792997112"><ele>245.0</ele><time>2026-04-15T03:50:01.002Z</time></trkpt><trkpt lat="-27.69038919483825" lon="114.93559577765299"><ele>245.5</ele><time>2026-04-15T03:50:03.002Z</time></trkpt><trkpt lat="-27.690186782245334" lon="114.93579079898116"><ele>246.0</ele><time>2026-04-15T03:50:04.002Z</time></trkpt><trkpt lat="-27.689980085882855" lon="114.93598878876377"><ele>246.0</ele><time>2026-04-15T03:50:05.002Z</time></trkpt><trkpt lat="-27.689770803666466" lon="114.93618653248315"><ele>246.0</ele><time>2026-04-15T03:50:06.002Z</time></trkpt><trkpt lat="-27.689560720865103" lon="114.93638623887753"><ele>246.0</ele><time>2026-04-15T03:50:07.002Z</time></trkpt><trkpt lat="-27.689353259800672" lon="114.9365868366942"><ele>246.0</ele><time>2026-04-15T03:50:08.002Z</time></trkpt><trkpt lat="-27.689148114495094" lon="114.93678643467806"><ele>247.5</ele><time>2026-04-15T03:50:09.002Z</time></trkpt><trkpt lat="-27.68894434477911" lon="114.93698263259357"><ele>249.0</ele><time>2026-04-15T03:50:10.002Z</time></trkpt><trkpt lat="-27.688740808555817" lon="114.93717557246794"><ele>248.0</ele><time>2026-04-15T03:50:11.002Z</time></trkpt><trkpt lat="-27.688536305124146" lon="114.93736769478802"><ele>247.0</ele><time>2026-04-15T03:50:12.002Z</time></trkpt><trkpt lat="-27.688329683122166" lon="114.93756296858344"><ele>246.0</ele><time>2026-04-15T03:50:13.002Z</time></trkpt><trkpt lat="-27.688122806706335" lon="114.93776206022055"><ele>245.0</ele><time>2026-04-15T03:50:14.002Z</time></trkpt><trkpt lat="-27.68791821046161" lon="114.9379655151577"><ele>245.0</ele><time>2026-04-15T03:50:15.002Z</time></trkpt><trkpt lat="-27.6877123939882" lon="114.93817026118434"><ele>245.0</ele><time>2026-04-15T03:50:16.002Z</time></trkpt><trkpt lat="-27.68750706972229" lon="114.93837340225308"><ele>245.5</ele><time>2026-04-15T03:50:17.002Z</time></trkpt><trkpt lat="-27.687300047945993" lon="114.93857546937075"><ele>246.0</ele><time>2026-04-15T03:50:18.003Z</time></trkpt><trkpt lat="-27.68709296691357" lon="114.93877638596301"><ele>245.0</ele><time>2026-04-15T03:50:19.003Z</time></trkpt><trkpt lat="-27.686887078464842" lon="114.93897675711959"><ele>244.0</ele><time>2026-04-15T03:50:20.002Z</time></trkpt><trkpt lat="-27.686679875908457" lon="114.9391773395457"><ele>245.0</ele><time>2026-04-15T03:50:21.002Z</time></trkpt><trkpt lat="-27.68647063201865" lon="114.93937702850424"><ele>246.0</ele><time>2026-04-15T03:50:22.002Z</time></trkpt><trkpt lat="-27.686053160143654" lon="114.93978139280797"><ele>246.5</ele><time>2026-04-15T03:50:24.002Z</time></trkpt><trkpt lat="-27.685847067681436" lon="114.9399836875066"><ele>247.0</ele><time>2026-04-15T03:50:25.002Z</time></trkpt><trkpt lat="-27.685644523142553" lon="114.94018481629627"><ele>247.5</ele><time>2026-04-15T03:50:26.002Z</time></trkpt><trkpt lat="-27.685443688115946" lon="114.94038185184203"><ele>248.0</ele><time>2026-04-15T03:50:27.002Z</time></trkpt><trkpt lat="-27.68524266809042" lon="114.9405758254637"><ele>248.0</ele><time>2026-04-15T03:50:28.002Z</time></trkpt><trkpt lat="-27.68503645019479" lon="114.94077052887761"><ele>248.0</ele><time>2026-04-15T03:50:29.002Z</time></trkpt><trkpt lat="-27.68482929390632" lon="114.94097000357502"><ele>248.0</ele><time>2026-04-15T03:50:30.002Z</time></trkpt><trkpt lat="-27.68462375281143" lon="114.94117209685825"><ele>248.0</ele><time>2026-04-15T03:50:31.002Z</time></trkpt><trkpt lat="-27.684421663572643" lon="114.94137520097163"><ele>247.5</ele><time>2026-04-15T03:50:32.002Z</time></trkpt><trkpt lat="-27.684224632018303" lon="114.9415739175627"><ele>247.0</ele><time>2026-04-15T03:50:33.002Z</time></trkpt><trkpt lat="-27.684026342735606" lon="114.94177021073315"><ele>246.0</ele><time>2026-04-15T03:50:34.002Z</time></trkpt><trkpt lat="-27.683834307913422" lon="114.94196307161154"><ele>245.0</ele><time>2026-04-15T03:50:35.002Z</time></trkpt><trkpt lat="-27.68364271224768" lon="114.94215348052875"><ele>244.5</ele><time>2026-04-15T03:50:36.002Z</time></trkpt><trkpt lat="-27.683458252743588" lon="114.94233341256562"><ele>244.0</ele><time>2026-04-15T03:50:37.002Z</time></trkpt><trkpt lat="-27.683269835293583" lon="114.94251430972812"><ele>244.0</ele><time>2026-04-15T03:50:38.002Z</time></trkpt><trkpt lat="-27.683078173389806" lon="114.9426938387008"><ele>244.0</ele><time>2026-04-15T03:50:39.002Z</time></trkpt><trkpt lat="-27.682889322111897" lon="114.94287573190758"><ele>243.5</ele><time>2026-04-15T03:50:40.002Z</time></trkpt><trkpt lat="-27.682698145128768" lon="114.94306115361323"><ele>243.0</ele><time>2026-04-15T03:50:41.002Z</time></trkpt><trkpt lat="-27.68250452639702" lon="114.94324358014528"><ele>243.5</ele><time>2026-04-15T03:50:42.002Z</time></trkpt><trkpt lat="-27.68230927372454" lon="114.9434242045059"><ele>244.0</ele><time>2026-04-15T03:50:43.002Z</time></trkpt><trkpt lat="-27.68193667385254" lon="114.9437833284899"><ele>244.5</ele><time>2026-04-15T03:50:45.002Z</time></trkpt><trkpt lat="-27.68175639583859" lon="114.9439627364932"><ele>245.0</ele><time>2026-04-15T03:50:46.002Z</time></trkpt><trkpt lat="-27.681568150675858" lon="114.94414006430581"><ele>245.5</ele><time>2026-04-15T03:50:47.002Z</time></trkpt><trkpt lat="-27.681379325076943" lon="114.94431749289626"><ele>246.0</ele><time>2026-04-15T03:50:48.002Z</time></trkpt><trkpt lat="-27.681192084150553" lon="114.94449492241293"><ele>246.5</ele><time>2026-04-15T03:50:49.002Z</time></trkpt><trkpt lat="-27.68100354057889" lon="114.94467800814965"><ele>247.0</ele><time>2026-04-15T03:50:50.002Z</time></trkpt><trkpt lat="-27.680815120104143" lon="114.9448623168284"><ele>247.0</ele><time>2026-04-15T03:50:51.002Z</time></trkpt><trkpt lat="-27.680626646862237" lon="114.94504557521557"><ele>247.0</ele><time>2026-04-15T03:50:52.002Z</time></trkpt><trkpt lat="-27.680433733481546" lon="114.94523133104562"><ele>247.5</ele><time>2026-04-15T03:50:53.002Z</time></trkpt><trkpt lat="-27.68024529341377" lon="114.94541154727422"><ele>248.0</ele><time>2026-04-15T03:50:54.002Z</time></trkpt><trkpt lat="-27.680052935122248" lon="114.94559511064658"><ele>248.0</ele><time>2026-04-15T03:50:55.002Z</time></trkpt><trkpt lat="-27.67986358574832" lon="114.9457789850229"><ele>248.0</ele><time>2026-04-15T03:50:56.002Z</time></trkpt><trkpt lat="-27.679676034379323" lon="114.94596700967742"><ele>248.5</ele><time>2026-04-15T03:50:57.002Z</time></trkpt><trkpt lat="-27.679489499972423" lon="114.946154141469"><ele>249.0</ele><time>2026-04-15T03:50:58.002Z</time></trkpt><trkpt lat="-27.679302372794155" lon="114.94634210184502"><ele>249.5</ele><time>2026-04-15T03:50:59.002Z</time></trkpt><trkpt lat="-27.67911191128878" lon="114.94652833628876"><ele>250.0</ele><time>2026-04-15T03:51:00.002Z</time></trkpt><trkpt lat="-27.67891983042483" lon="114.9467143703454"><ele>250.0</ele><time>2026-04-15T03:51:01.002Z</time></trkpt><trkpt lat="-27.678725323165743" lon="114.94690298506838"><ele>250.0</ele><time>2026-04-15T03:51:02.002Z</time></trkpt><trkpt lat="-27.678534036229802" lon="114.94709155789728"><ele>250.0</ele><time>2026-04-15T03:51:03.002Z</time></trkpt><trkpt lat="-27.678343905181038" lon="114.94727796183831"><ele>250.0</ele><time>2026-04-15T03:51:04.002Z</time></trkpt><trkpt lat="-27.67797134388614" lon="114.9476434673132"><ele>250.0</ele><time>2026-04-15T03:51:06.002Z</time></trkpt><trkpt lat="-27.677780142028265" lon="114.94782937600567"><ele>250.0</ele><time>2026-04-15T03:51:07.002Z</time></trkpt><trkpt lat="-27.67759071905183" lon="114.94801426147247"><ele>250.0</ele><time>2026-04-15T03:51:08.002Z</time></trkpt><trkpt lat="-27.677402922874574" lon="114.94819483886184"><ele>250.0</ele><time>2026-04-15T03:51:09.002Z</time></trkpt><trkpt lat="-27.677209969449198" lon="114.94837736759318"><ele>251.0</ele><time>2026-04-15T03:51:10.002Z</time></trkpt><trkpt lat="-27.677023299951667" lon="114.94855829554159"><ele>252.0</ele><time>2026-04-15T03:51:11.002Z</time></trkpt><trkpt lat="-27.676840084495243" lon="114.94873440684974"><ele>252.0</ele><time>2026-04-15T03:51:12.002Z</time></trkpt><trkpt lat="-27.67665702208248" lon="114.9489138222992"><ele>252.0</ele><time>2026-04-15T03:51:13.002Z</time></trkpt><trkpt lat="-27.676475350924136" lon="114.9490933879213"><ele>253.0</ele><time>2026-04-15T03:51:14.002Z</time></trkpt><trkpt lat="-27.676294594485558" lon="114.94927293250736"><ele>254.0</ele><time>2026-04-15T03:51:15.002Z</time></trkpt><trkpt lat="-27.67611362296539" lon="114.94944789652789"><ele>254.5</ele><time>2026-04-15T03:51:16.002Z</time></trkpt><trkpt lat="-27.6759264764939" lon="114.94962737834561"><ele>255.0</ele><time>2026-04-15T03:51:17.002Z</time></trkpt><trkpt lat="-27.67573692085076" lon="114.94981342837538"><ele>255.0</ele><time>2026-04-15T03:51:18.002Z</time></trkpt><trkpt lat="-27.675547321070226" lon="114.95000157609128"><ele>255.0</ele><time>2026-04-15T03:51:19.002Z</time></trkpt><trkpt lat="-27.67535882245335" lon="114.95018956587847"><ele>255.0</ele><time>2026-04-15T03:51:20.002Z</time></trkpt><trkpt lat="-27.675169596139533" lon="114.950372023187"><ele>255.0</ele><time>2026-04-15T03:51:21.002Z</time></trkpt><trkpt lat="-27.674979345976958" lon="114.950552875445"><ele>255.0</ele><time>2026-04-15T03:51:22.002Z</time></trkpt><trkpt lat="-27.674791674541325" lon="114.95073590862903"><ele>255.0</ele><time>2026-04-15T03:51:23.002Z</time></trkpt><trkpt lat="-27.6746075186517" lon="114.95091791004958"><ele>254.5</ele><time>2026-04-15T03:51:24.002Z</time></trkpt><trkpt lat="-27.674419743581353" lon="114.95110230484067"><ele>254.0</ele><time>2026-04-15T03:51:25.002Z</time></trkpt><trkpt lat="-27.674049972252615" lon="114.95146669651515"><ele>254.0</ele><time>2026-04-15T03:51:27.002Z</time></trkpt><trkpt lat="-27.67386267364106" lon="114.95164532871073"><ele>254.0</ele><time>2026-04-15T03:51:28.002Z</time></trkpt><trkpt lat="-27.673671903799335" lon="114.95182404150017"><ele>254.5</ele><time>2026-04-15T03:51:29.002Z</time></trkpt><trkpt lat="-27.673482828693185" lon="114.95200440067693"><ele>255.0</ele><time>2026-04-15T03:51:30.002Z</time></trkpt><trkpt lat="-27.67329756117114" lon="114.95218780281138"><ele>255.0</ele><time>2026-04-15T03:51:31.002Z</time></trkpt><trkpt lat="-27.6731147424597" lon="114.95236742361769"><ele>255.0</ele><time>2026-04-15T03:51:32.002Z</time></trkpt><trkpt lat="-27.672928943981326" lon="114.95254738540943"><ele>255.0</ele><time>2026-04-15T03:51:33.002Z</time></trkpt><trkpt lat="-27.67273632498131" lon="114.9527351680647"><ele>255.0</ele><time>2026-04-15T03:51:34.002Z</time></trkpt><trkpt lat="-27.67253993164921" lon="114.95292643756386"><ele>255.0</ele><time>2026-04-15T03:51:35.002Z</time></trkpt><trkpt lat="-27.672343317260086" lon="114.95311670615538"><ele>255.0</ele><time>2026-04-15T03:51:36.002Z</time></trkpt><trkpt lat="-27.672143781270265" lon="114.95330830099167"><ele>255.0</ele><time>2026-04-15T03:51:37.002Z</time></trkpt><trkpt lat="-27.67194311850567" lon="114.95349906169758"><ele>255.0</ele><time>2026-04-15T03:51:38.002Z</time></trkpt><trkpt lat="-27.67174756459681" lon="114.9536888812174"><ele>255.0</ele><time>2026-04-15T03:51:39.002Z</time></trkpt><trkpt lat="-27.671550401801227" lon="114.95388488568246"><ele>255.0</ele><time>2026-04-15T03:51:40.002Z</time></trkpt><trkpt lat="-27.67135492405235" lon="114.95407493920663"><ele>254.5</ele><time>2026-04-15T03:51:41.002Z</time></trkpt><trkpt lat="-27.671158471549262" lon="114.95426576561357"><ele>254.0</ele><time>2026-04-15T03:51:42.002Z</time></trkpt><trkpt lat="-27.670965407520153" lon="114.9544573569057"><ele>254.0</ele><time>2026-04-15T03:51:43.002Z</time></trkpt><trkpt lat="-27.67077530207941" lon="114.95464506574595"><ele>254.0</ele><time>2026-04-15T03:51:44.002Z</time></trkpt><trkpt lat="-27.67059006397917" lon="114.95483227212485"><ele>254.0</ele><time>2026-04-15T03:51:45.002Z</time></trkpt><trkpt lat="-27.670403375992272" lon="114.95501873342184"><ele>254.0</ele><time>2026-04-15T03:51:46.002Z</time></trkpt><trkpt lat="-27.670039227819114" lon="114.95537152888527"><ele>252.0</ele><time>2026-04-15T03:51:48.002Z</time></trkpt><trkpt lat="-27.66985688715956" lon="114.95554910989244"><ele>250.0</ele><time>2026-04-15T03:51:49.002Z</time></trkpt><trkpt lat="-27.66967109150767" lon="114.95573081882586"><ele>250.5</ele><time>2026-04-15T03:51:50.002Z</time></trkpt><trkpt lat="-27.669486684536395" lon="114.95591089316696"><ele>251.0</ele><time>2026-04-15T03:51:51.002Z</time></trkpt><trkpt lat="-27.669305163426348" lon="114.95608831753282"><ele>251.5</ele><time>2026-04-15T03:51:52.002Z</time></trkpt><trkpt lat="-27.669124994824394" lon="114.95626398360753"><ele>252.0</ele><time>2026-04-15T03:51:53.002Z</time></trkpt><trkpt lat="-27.668944481279446" lon="114.95643657489276"><ele>252.0</ele><time>2026-04-15T03:51:54.002Z</time></trkpt><trkpt lat="-27.66876286324438" lon="114.95661238905174"><ele>252.0</ele><time>2026-04-15T03:51:55.002Z</time></trkpt><trkpt lat="-27.668581713083768" lon="114.9567886676032"><ele>251.5</ele><time>2026-04-15T03:51:56.002Z</time></trkpt><trkpt lat="-27.66840058514419" lon="114.9569650343757"><ele>251.0</ele><time>2026-04-15T03:51:57.002Z</time></trkpt><trkpt lat="-27.668220940429148" lon="114.95714306546907"><ele>251.0</ele><time>2026-04-15T03:51:58.002Z</time></trkpt><trkpt lat="-27.66804390754708" lon="114.95731950257381"><ele>251.0</ele><time>2026-04-15T03:51:59.002Z</time></trkpt><trkpt lat="-27.66786551618065" lon="114.95749559619222"><ele>250.0</ele><time>2026-04-15T03:52:00.002Z</time></trkpt><trkpt lat="-27.667683014031585" lon="114.95767721265824"><ele>249.0</ele><time>2026-04-15T03:52:01.003Z</time></trkpt><trkpt lat="-27.66750061992367" lon="114.95785820261055"><ele>249.0</ele><time>2026-04-15T03:52:02.003Z</time></trkpt><trkpt lat="-27.66732158859574" lon="114.95803735211369"><ele>249.0</ele><time>2026-04-15T03:52:03.003Z</time></trkpt><trkpt lat="-27.667131201712838" lon="114.95822404070377"><ele>249.0</ele><time>2026-04-15T03:52:04.003Z</time></trkpt><trkpt lat="-27.666945797084367" lon="114.95840870271421"><ele>249.0</ele><time>2026-04-15T03:52:05.003Z</time></trkpt><trkpt lat="-27.666756615388902" lon="114.95859327109672"><ele>249.0</ele><time>2026-04-15T03:52:06.003Z</time></trkpt><trkpt lat="-27.66657282773453" lon="114.95877231348479"><ele>249.0</ele><time>2026-04-15T03:52:07.003Z</time></trkpt><trkpt lat="-27.666197519306994" lon="114.95913984933517"><ele>250.0</ele><time>2026-04-15T03:52:09.003Z</time></trkpt><trkpt lat="-27.66600691956115" lon="114.9593229396819"><ele>251.0</ele><time>2026-04-15T03:52:10.003Z</time></trkpt><trkpt lat="-27.665821739538337" lon="114.95950565430056"><ele>251.0</ele><time>2026-04-15T03:52:11.003Z</time></trkpt><trkpt lat="-27.665631376134804" lon="114.95969089255307"><ele>251.0</ele><time>2026-04-15T03:52:12.003Z</time></trkpt><trkpt lat="-27.665439684216413" lon="114.95987522412503"><ele>250.0</ele><time>2026-04-15T03:52:13.003Z</time></trkpt><trkpt lat="-27.665241730181016" lon="114.96006422365409"><ele>249.0</ele><time>2026-04-15T03:52:14.003Z</time></trkpt><trkpt lat="-27.665044993084813" lon="114.96025494187398"><ele>249.0</ele><time>2026-04-15T03:52:15.003Z</time></trkpt><trkpt lat="-27.664846146797345" lon="114.96044848128437"><ele>249.0</ele><time>2026-04-15T03:52:16.003Z</time></trkpt><trkpt lat="-27.664647458583367" lon="114.96064420042876"><ele>249.0</ele><time>2026-04-15T03:52:17.003Z</time></trkpt><trkpt lat="-27.664449489231682" lon="114.96083934612334"><ele>249.0</ele><time>2026-04-15T03:52:18.003Z</time></trkpt><trkpt lat="-27.664252076625218" lon="114.96103048817477"><ele>249.0</ele><time>2026-04-15T03:52:19.003Z</time></trkpt><trkpt lat="-27.66406312847381" lon="114.96121821940085"><ele>249.0</ele><time>2026-04-15T03:52:20.003Z</time></trkpt><trkpt lat="-27.66387244396606" lon="114.96140622292606"><ele>249.0</ele><time>2026-04-15T03:52:21.003Z</time></trkpt><trkpt lat="-27.66368020215388" lon="114.96159333078022"><ele>249.0</ele><time>2026-04-15T03:52:22.003Z</time></trkpt><trkpt lat="-27.663492825295208" lon="114.96177218438827"><ele>248.5</ele><time>2026-04-15T03:52:23.003Z</time></trkpt><trkpt lat="-27.663310748506557" lon="114.96194597295812"><ele>248.0</ele><time>2026-04-15T03:52:24.003Z</time></trkpt><trkpt lat="-27.663130904078322" lon="114.962119640305"><ele>248.0</ele><time>2026-04-15T03:52:25.003Z</time></trkpt><trkpt lat="-27.66296407834961" lon="114.96228171461783"><ele>248.0</ele><time>2026-04-15T03:52:26.002Z</time></trkpt><trkpt lat="-27.662802007128143" lon="114.96244086350762"><ele>248.0</ele><time>2026-04-15T03:52:27.002Z</time></trkpt><trkpt lat="-27.6626168983214" lon="114.96262446142573"><ele>247.0</ele><time>2026-04-15T03:52:28.003Z</time></trkpt><trkpt lat="-27.662261828792715" lon="114.96296921483011"><ele>247.0</ele><time>2026-04-15T03:52:30.002Z</time></trkpt><trkpt lat="-27.66207431636427" lon="114.96315129834039"><ele>247.0</ele><time>2026-04-15T03:52:31.002Z</time></trkpt><trkpt lat="-27.661889985520414" lon="114.96333032010732"><ele>245.0</ele><time>2026-04-15T03:52:32.002Z</time></trkpt><trkpt lat="-27.661708345217768" lon="114.9635066571714"><ele>243.0</ele><time>2026-04-15T03:52:33.002Z</time></trkpt><trkpt lat="-27.66152228020397" lon="114.96369037010957"><ele>243.0</ele><time>2026-04-15T03:52:34.002Z</time></trkpt><trkpt lat="-27.6613323435772" lon="114.9638760051167"><ele>243.0</ele><time>2026-04-15T03:52:35.002Z</time></trkpt><trkpt lat="-27.661142028524853" lon="114.96406512566259"><ele>242.0</ele><time>2026-04-15T03:52:36.002Z</time></trkpt><trkpt lat="-27.660949398073914" lon="114.96425119489619"><ele>241.0</ele><time>2026-04-15T03:52:37.002Z</time></trkpt><trkpt lat="-27.66075949598103" lon="114.96443382909773"><ele>241.0</ele><time>2026-04-15T03:52:38.002Z</time></trkpt><trkpt lat="-27.660572455534652" lon="114.96461475122399"><ele>241.0</ele><time>2026-04-15T03:52:39.002Z</time></trkpt><trkpt lat="-27.660387129400583" lon="114.96479272857593"><ele>240.5</ele><time>2026-04-15T03:52:40.002Z</time></trkpt><trkpt lat="-27.660200511837935" lon="114.96497644011131"><ele>240.0</ele><time>2026-04-15T03:52:41.002Z</time></trkpt><trkpt lat="-27.66001074273792" lon="114.96516348450675"><ele>240.0</ele><time>2026-04-15T03:52:42.002Z</time></trkpt><trkpt lat="-27.659816399358" lon="114.96535516867962"><ele>240.0</ele><time>2026-04-15T03:52:43.002Z</time></trkpt><trkpt lat="-27.65962183083407" lon="114.96554609520479"><ele>238.5</ele><time>2026-04-15T03:52:44.002Z</time></trkpt><trkpt lat="-27.65942599160577" lon="114.96573915828625"><ele>237.0</ele><time>2026-04-15T03:52:45.002Z</time></trkpt><trkpt lat="-27.659231560421187" lon="114.9659312494442"><ele>237.0</ele><time>2026-04-15T03:52:46.002Z</time></trkpt><trkpt lat="-27.659035884729136" lon="114.96612393796244"><ele>237.0</ele><time>2026-04-15T03:52:47.002Z</time></trkpt><trkpt lat="-27.65884093165826" lon="114.966315676184"><ele>237.0</ele><time>2026-04-15T03:52:48.002Z</time></trkpt><trkpt lat="-27.658647648238166" lon="114.96650764217708"><ele>237.0</ele><time>2026-04-15T03:52:49.002Z</time></trkpt><trkpt lat="-27.658268489779246" lon="114.96688538298957"><ele>239.0</ele><time>2026-04-15T03:52:51.002Z</time></trkpt><trkpt lat="-27.658085317321564" lon="114.96706801467063"><ele>241.0</ele><time>2026-04-15T03:52:52.002Z</time></trkpt><trkpt lat="-27.657911413260667" lon="114.96723715698461"><ele>243.5</ele><time>2026-04-15T03:52:53.002Z</time></trkpt><trkpt lat="-27.657727645757507" lon="114.96741461731938"><ele>246.0</ele><time>2026-04-15T03:52:54.002Z</time></trkpt><trkpt lat="-27.657554953584686" lon="114.96757444576359"><ele>246.0</ele><time>2026-04-15T03:52:55.002Z</time></trkpt><trkpt lat="-27.657375863808873" lon="114.96775073849203"><ele>246.0</ele><time>2026-04-15T03:52:56.002Z</time></trkpt><trkpt lat="-27.657192095764792" lon="114.96792444238034"><ele>246.0</ele><time>2026-04-15T03:52:57.002Z</time></trkpt><trkpt lat="-27.65700307956429" lon="114.96810584089613"><ele>246.0</ele><time>2026-04-15T03:52:58.002Z</time></trkpt><trkpt lat="-27.65682290180372" lon="114.968284058934"><ele>247.5</ele><time>2026-04-15T03:52:59.002Z</time></trkpt><trkpt lat="-27.65665239634719" lon="114.96845711868222"><ele>249.0</ele><time>2026-04-15T03:53:00.002Z</time></trkpt><trkpt lat="-27.656476497934275" lon="114.96863373868953"><ele>249.0</ele><time>2026-04-15T03:53:01.002Z</time></trkpt><trkpt lat="-27.656290807053182" lon="114.96881917027764"><ele>249.0</ele><time>2026-04-15T03:53:02.002Z</time></trkpt><trkpt lat="-27.65610982959037" lon="114.96899999885896"><ele>248.5</ele><time>2026-04-15T03:53:03.002Z</time></trkpt><trkpt lat="-27.65592828480805" lon="114.96917906518344"><ele>248.0</ele><time>2026-04-15T03:53:04.002Z</time></trkpt><trkpt lat="-27.65574040867988" lon="114.96935979150508"><ele>249.5</ele><time>2026-04-15T03:53:05.002Z</time></trkpt><trkpt lat="-27.655549005786405" lon="114.96954463567195"><ele>251.0</ele><time>2026-04-15T03:53:06.002Z</time></trkpt><trkpt lat="-27.655360907264622" lon="114.96972794680761"><ele>251.0</ele><time>2026-04-15T03:53:07.002Z</time></trkpt><trkpt lat="-27.6551977739256" lon="114.9698911305268"><ele>251.0</ele><time>2026-04-15T03:53:08.002Z</time></trkpt><trkpt lat="-27.655029009608917" lon="114.9700546364091"><ele>251.0</ele><time>2026-04-15T03:53:09.002Z</time></trkpt><trkpt lat="-27.654677359255363" lon="114.97040031102118"><ele>252.0</ele><time>2026-04-15T03:53:11.002Z</time></trkpt><trkpt lat="-27.65450682557249" lon="114.97057283452699"><ele>253.0</ele><time>2026-04-15T03:53:12.002Z</time></trkpt><trkpt lat="-27.65433054732075" lon="114.97074584454003"><ele>253.5</ele><time>2026-04-15T03:53:13.002Z</time></trkpt><trkpt lat="-27.654159270384525" lon="114.97091289714226"><ele>254.0</ele><time>2026-04-15T03:53:14.002Z</time></trkpt><trkpt lat="-27.65398879360747" lon="114.97107982105703"><ele>254.0</ele><time>2026-04-15T03:53:15.002Z</time></trkpt><trkpt lat="-27.653818110903206" lon="114.97124729431333"><ele>254.0</ele><time>2026-04-15T03:53:16.002Z</time></trkpt><trkpt lat="-27.65364169392223" lon="114.97141961046097"><ele>254.5</ele><time>2026-04-15T03:53:17.002Z</time></trkpt><trkpt lat="-27.65346483316617" lon="114.9715934770295"><ele>255.0</ele><time>2026-04-15T03:53:18.002Z</time></trkpt><trkpt lat="-27.65329031547969" lon="114.97176552864565"><ele>256.0</ele><time>2026-04-15T03:53:19.002Z</time></trkpt><trkpt lat="-27.653114828781035" lon="114.97194415996857"><ele>257.0</ele><time>2026-04-15T03:53:20.002Z</time></trkpt><trkpt lat="-27.65293894505934" lon="114.97211806736303"><ele>257.0</ele><time>2026-04-15T03:53:21.002Z</time></trkpt><trkpt lat="-27.652759982643172" lon="114.9722933052954"><ele>257.0</ele><time>2026-04-15T03:53:22.002Z</time></trkpt><trkpt lat="-27.652577363927755" lon="114.9724721307612"><ele>257.0</ele><time>2026-04-15T03:53:23.002Z</time></trkpt><trkpt lat="-27.652392212422466" lon="114.97265296934063"><ele>257.0</ele><time>2026-04-15T03:53:24.002Z</time></trkpt><trkpt lat="-27.652209150768194" lon="114.9728328131803"><ele>257.0</ele><time>2026-04-15T03:53:25.002Z</time></trkpt><trkpt lat="-27.65202919305167" lon="114.97301476090418"><ele>257.0</ele><time>2026-04-15T03:53:26.002Z</time></trkpt><trkpt lat="-27.651848401828165" lon="114.97319481482725"><ele>255.5</ele><time>2026-04-15T03:53:27.002Z</time></trkpt><trkpt lat="-27.651667827384045" lon="114.97337377625402"><ele>254.0</ele><time>2026-04-15T03:53:28.002Z</time></trkpt><trkpt lat="-27.65148687488939" lon="114.97355508686569"><ele>254.0</ele><time>2026-04-15T03:53:29.002Z</time></trkpt><trkpt lat="-27.651309135332863" lon="114.97373162593722"><ele>254.0</ele><time>2026-04-15T03:53:30.002Z</time></trkpt><trkpt lat="-27.650939888747395" lon="114.97409291596524"><ele>254.0</ele><time>2026-04-15T03:53:32.002Z</time></trkpt><trkpt lat="-27.650751990535646" lon="114.97427740541436"><ele>254.0</ele><time>2026-04-15T03:53:33.002Z</time></trkpt><trkpt lat="-27.650562425582493" lon="114.9744614038918"><ele>254.0</ele><time>2026-04-15T03:53:34.002Z</time></trkpt><trkpt lat="-27.650375819385033" lon="114.97464211101264"><ele>254.0</ele><time>2026-04-15T03:53:35.002Z</time></trkpt><trkpt lat="-27.650190151630454" lon="114.97481928486981"><ele>254.5</ele><time>2026-04-15T03:53:36.002Z</time></trkpt><trkpt lat="-27.650005237754133" lon="114.97499813460364"><ele>255.0</ele><time>2026-04-15T03:53:37.002Z</time></trkpt><trkpt lat="-27.649821403004193" lon="114.97517321569946"><ele>255.0</ele><time>2026-04-15T03:53:38.002Z</time></trkpt><trkpt lat="-27.649648676809235" lon="114.97534560660498"><ele>255.0</ele><time>2026-04-15T03:53:39.002Z</time></trkpt><trkpt lat="-27.649474045984242" lon="114.97551761463703"><ele>253.5</ele><time>2026-04-15T03:53:40.002Z</time></trkpt><trkpt lat="-27.64929483680164" lon="114.97568874207943"><ele>252.0</ele><time>2026-04-15T03:53:41.002Z</time></trkpt><trkpt lat="-27.649119115022607" lon="114.97585842315235"><ele>251.5</ele><time>2026-04-15T03:53:42.002Z</time></trkpt><trkpt lat="-27.64894280282787" lon="114.9760241432672"><ele>251.0</ele><time>2026-04-15T03:53:43.002Z</time></trkpt><trkpt lat="-27.648753643904413" lon="114.9761971736807"><ele>249.5</ele><time>2026-04-15T03:53:44.002Z</time></trkpt><trkpt lat="-27.64857022708496" lon="114.97636702401395"><ele>248.0</ele><time>2026-04-15T03:53:45.002Z</time></trkpt><trkpt lat="-27.648377481484804" lon="114.97653441752895"><ele>247.5</ele><time>2026-04-15T03:53:46.002Z</time></trkpt><trkpt lat="-27.648187488126897" lon="114.9766988655521"><ele>247.0</ele><time>2026-04-15T03:53:47.002Z</time></trkpt><trkpt lat="-27.648011397655164" lon="114.97685202501333"><ele>247.0</ele><time>2026-04-15T03:53:48.002Z</time></trkpt><trkpt lat="-27.647847220010945" lon="114.97699481823302"><ele>247.0</ele><time>2026-04-15T03:53:49.002Z</time></trkpt><trkpt lat="-27.647689978970636" lon="114.97713025894649"><ele>247.0</ele><time>2026-04-15T03:53:50.002Z</time></trkpt><trkpt lat="-27.64753403650186" lon="114.97725611719338"><ele>246.5</ele><time>2026-04-15T03:53:51.002Z</time></trkpt><trkpt lat="-27.64720428084359" lon="114.97750559021465"><ele>246.0</ele><time>2026-04-15T03:53:53.002Z</time></trkpt><trkpt lat="-27.64702933696693" lon="114.97762444178082"><ele>245.33333333333331</ele><time>2026-04-15T03:53:54.002Z</time></trkpt><trkpt lat="-27.64685380892272" lon="114.97773456677491"><ele>244.66666666666666</ele><time>2026-04-15T03:53:55.002Z</time></trkpt><trkpt lat="-27.64667436982563" lon="114.97783164883775"><ele>244.0</ele><time>2026-04-15T03:53:56.002Z</time></trkpt><trkpt lat="-27.646493751945783" lon="114.97791441861644"><ele>244.0</ele><time>2026-04-15T03:53:57.002Z</time></trkpt><trkpt lat="-27.64630858340997" lon="114.977978840252"><ele>244.0</ele><time>2026-04-15T03:53:58.002Z</time></trkpt><trkpt lat="-27.646116028404318" lon="114.97802771264203"><ele>244.0</ele><time>2026-04-15T03:53:59.002Z</time></trkpt><trkpt lat="-27.645915782183366" lon="114.97806945575873"><ele>243.0</ele><time>2026-04-15T03:54:00.002Z</time></trkpt><trkpt lat="-27.645708949945334" lon="114.97810251320557"><ele>242.0</ele><time>2026-04-15T03:54:01.002Z</time></trkpt><trkpt lat="-27.64549412908322" lon="114.97812607898548"><ele>241.0</ele><time>2026-04-15T03:54:02.002Z</time></trkpt><trkpt lat="-27.645289940718428" lon="114.9781377922771"><ele>240.0</ele><time>2026-04-15T03:54:03.002Z</time></trkpt><trkpt lat="-27.64507367288536" lon="114.97814437861551"><ele>239.0</ele><time>2026-04-15T03:54:04.002Z</time></trkpt><trkpt lat="-27.644865821426528" lon="114.97815271090768"><ele>238.0</ele><time>2026-04-15T03:54:05.002Z</time></trkpt><trkpt lat="-27.644654376271472" lon="114.97816616807555"><ele>237.0</ele><time>2026-04-15T03:54:06.002Z</time></trkpt><trkpt lat="-27.644449430892898" lon="114.97818374095486"><ele>236.0</ele><time>2026-04-15T03:54:07.002Z</time></trkpt><trkpt lat="-27.644247858297746" lon="114.9782058352236"><ele>235.0</ele><time>2026-04-15T03:54:08.002Z</time></trkpt><trkpt lat="-27.644050224581083" lon="114.97823610471721"><ele>235.0</ele><time>2026-04-15T03:54:09.002Z</time></trkpt><trkpt lat="-27.64385506977126" lon="114.97827307021079"><ele>235.0</ele><time>2026-04-15T03:54:10.002Z</time></trkpt><trkpt lat="-27.643660283403086" lon="114.97831470161334"><ele>235.0</ele><time>2026-04-15T03:54:11.002Z</time></trkpt><trkpt lat="-27.643458967724857" lon="114.97836840517802"><ele>233.0</ele><time>2026-04-15T03:54:12.002Z</time></trkpt><trkpt lat="-27.643088487864542" lon="114.97849334763876"><ele>231.0</ele><time>2026-04-15T03:54:14.002Z</time></trkpt><trkpt lat="-27.64292729389844" lon="114.9785923379447"><ele>230.0</ele><time>2026-04-15T03:54:15.002Z</time></trkpt><trkpt lat="-27.642758559855114" lon="114.97872043119735"><ele>229.0</ele><time>2026-04-15T03:54:16.002Z</time></trkpt><trkpt lat="-27.642583579208605" lon="114.97885815185496"><ele>228.0</ele><time>2026-04-15T03:54:17.002Z</time></trkpt><trkpt lat="-27.642397674417797" lon="114.97899526146576"><ele>228.0</ele><time>2026-04-15T03:54:18.002Z</time></trkpt><trkpt lat="-27.642199542883365" lon="114.97912869720146"><ele>228.0</ele><time>2026-04-15T03:54:19.003Z</time></trkpt><trkpt lat="-27.641989713408744" lon="114.97926702192758"><ele>228.5</ele><time>2026-04-15T03:54:20.003Z</time></trkpt><trkpt lat="-27.64176980331634" lon="114.97941424308152"><ele>229.0</ele><time>2026-04-15T03:54:21.003Z</time></trkpt><trkpt lat="-27.641553799027044" lon="114.97956113728026"><ele>229.0</ele><time>2026-04-15T03:54:22.003Z</time></trkpt><trkpt lat="-27.641331186946616" lon="114.97971126618451"><ele>229.0</ele><time>2026-04-15T03:54:23.003Z</time></trkpt><trkpt lat="-27.64111221822277" lon="114.97985756932806"><ele>229.0</ele><time>2026-04-15T03:54:24.003Z</time></trkpt><trkpt lat="-27.640893563629188" lon="114.98000493544707"><ele>229.0</ele><time>2026-04-15T03:54:25.003Z</time></trkpt><trkpt lat="-27.640677188361003" lon="114.9801519724098"><ele>228.0</ele><time>2026-04-15T03:54:26.003Z</time></trkpt><trkpt lat="-27.64045912096588" lon="114.98029994098312"><ele>227.0</ele><time>2026-04-15T03:54:27.003Z</time></trkpt><trkpt lat="-27.640237833718714" lon="114.98044850571414"><ele>227.0</ele><time>2026-04-15T03:54:28.003Z</time></trkpt><trkpt lat="-27.640016975113124" lon="114.98059423330639"><ele>227.0</ele><time>2026-04-15T03:54:29.003Z</time></trkpt><trkpt lat="-27.639794208545386" lon="114.98074500418939"><ele>227.5</ele><time>2026-04-15T03:54:30.003Z</time></trkpt><trkpt lat="-27.639568626155476" lon="114.98089847991149"><ele>228.0</ele><time>2026-04-15T03:54:31.003Z</time></trkpt><trkpt lat="-27.639342512815713" lon="114.9810504157932"><ele>228.5</ele><time>2026-04-15T03:54:32.002Z</time></trkpt><trkpt lat="-27.639115791553397" lon="114.98120201375498"><ele>229.0</ele><time>2026-04-15T03:54:33.002Z</time></trkpt><trkpt lat="-27.63866663691235" lon="114.98150265289142"><ele>228.5</ele><time>2026-04-15T03:54:35.002Z</time></trkpt><trkpt lat="-27.638448937323265" lon="114.98164985654957"><ele>228.0</ele><time>2026-04-15T03:54:36.002Z</time></trkpt><trkpt lat="-27.638233900279086" lon="114.98179778220407"><ele>229.0</ele><time>2026-04-15T03:54:37.002Z</time></trkpt><trkpt lat="-27.638016137642733" lon="114.98194528275314"><ele>230.0</ele><time>2026-04-15T03:54:38.002Z</time></trkpt><trkpt lat="-27.637795574435057" lon="114.98209464478676"><ele>230.5</ele><time>2026-04-15T03:54:39.002Z</time></trkpt><trkpt lat="-27.637588688003984" lon="114.98223222288318"><ele>231.0</ele><time>2026-04-15T03:54:40.002Z</time></trkpt><trkpt lat="-27.637391926668272" lon="114.98236469186668"><ele>231.0</ele><time>2026-04-15T03:54:41.002Z</time></trkpt><trkpt lat="-27.637197450722553" lon="114.98249853602464"><ele>231.0</ele><time>2026-04-15T03:54:42.002Z</time></trkpt><trkpt lat="-27.63701368440012" lon="114.98261968531378"><ele>231.0</ele><time>2026-04-15T03:54:43.002Z</time></trkpt><trkpt lat="-27.636833304413788" lon="114.98273828525429"><ele>231.66666666666669</ele><time>2026-04-15T03:54:44.002Z</time></trkpt><trkpt lat="-27.636671446342223" lon="114.98284487637336"><ele>232.33333333333334</ele><time>2026-04-15T03:54:45.002Z</time></trkpt><trkpt lat="-27.636519504149124" lon="114.98294089860353"><ele>233.0</ele><time>2026-04-15T03:54:46.002Z</time></trkpt><trkpt lat="-27.63636150084754" lon="114.98302359932609"><ele>233.0</ele><time>2026-04-15T03:54:47.002Z</time></trkpt><trkpt lat="-27.636199675151655" lon="114.98308974445291"><ele>233.0</ele><time>2026-04-15T03:54:48.002Z</time></trkpt><trkpt lat="-27.636024371430477" lon="114.98314137398336"><ele>233.0</ele><time>2026-04-15T03:54:49.002Z</time></trkpt><trkpt lat="-27.635836792084802" lon="114.9831863823134"><ele>233.33333333333334</ele><time>2026-04-15T03:54:50.002Z</time></trkpt><trkpt lat="-27.635620561498886" lon="114.98323498080941"><ele>233.66666666666669</ele><time>2026-04-15T03:54:51.002Z</time></trkpt><trkpt lat="-27.635403103457634" lon="114.98328912874842"><ele>234.0</ele><time>2026-04-15T03:54:52.002Z</time></trkpt><trkpt lat="-27.63518832903912" lon="114.98334984612659"><ele>234.5</ele><time>2026-04-15T03:54:53.002Z</time></trkpt><trkpt lat="-27.634965640357667" lon="114.98341238513561"><ele>235.0</ele><time>2026-04-15T03:54:54.002Z</time></trkpt><trkpt lat="-27.634514071599316" lon="114.98353578944844"><ele>236.0</ele><time>2026-04-15T03:54:56.001Z</time></trkpt><trkpt lat="-27.63429684931501" lon="114.98359800109108"><ele>237.0</ele><time>2026-04-15T03:54:57.001Z</time></trkpt><trkpt lat="-27.634077096367697" lon="114.9836567308019"><ele>237.0</ele><time>2026-04-15T03:54:58.001Z</time></trkpt><trkpt lat="-27.633866727259775" lon="114.98371322810179"><ele>237.0</ele><time>2026-04-15T03:54:59.001Z</time></trkpt><trkpt lat="-27.63365344198794" lon="114.98377144917308"><ele>237.0</ele><time>2026-04-15T03:55:00.001Z</time></trkpt><trkpt lat="-27.63343254024233" lon="114.98383496399245"><ele>237.5</ele><time>2026-04-15T03:55:01.001Z</time></trkpt><trkpt lat="-27.633214345695198" lon="114.9838985376562"><ele>238.0</ele><time>2026-04-15T03:55:02.001Z</time></trkpt><trkpt lat="-27.632989715143836" lon="114.9839676739424"><ele>239.5</ele><time>2026-04-15T03:55:03.001Z</time></trkpt><trkpt lat="-27.63276705157426" lon="114.98403423777883"><ele>241.0</ele><time>2026-04-15T03:55:04.001Z</time></trkpt><trkpt lat="-27.63254433775023" lon="114.98409753921555"><ele>241.0</ele><time>2026-04-15T03:55:05.001Z</time></trkpt><trkpt lat="-27.632309991024286" lon="114.98416375860727"><ele>241.0</ele><time>2026-04-15T03:55:06.001Z</time></trkpt><trkpt lat="-27.632070971799315" lon="114.98422828634386"><ele>241.0</ele><time>2026-04-15T03:55:07.001Z</time></trkpt><trkpt lat="-27.63181951323647" lon="114.98430052130162"><ele>241.0</ele><time>2026-04-15T03:55:08.001Z</time></trkpt><trkpt lat="-27.631578471505094" lon="114.98436606752242"><ele>241.0</ele><time>2026-04-15T03:55:09.001Z</time></trkpt><trkpt lat="-27.631338703296244" lon="114.98442818415076"><ele>241.0</ele><time>2026-04-15T03:55:10.001Z</time></trkpt><trkpt lat="-27.631096583577296" lon="114.98449191056305"><ele>241.5</ele><time>2026-04-15T03:55:11.001Z</time></trkpt><trkpt lat="-27.630859885920717" lon="114.98455673389977"><ele>242.0</ele><time>2026-04-15T03:55:12.001Z</time></trkpt><trkpt lat="-27.63062372182797" lon="114.98462312168925"><ele>242.0</ele><time>2026-04-15T03:55:13.001Z</time></trkpt><trkpt lat="-27.63039201002672" lon="114.98469105569825"><ele>242.0</ele><time>2026-04-15T03:55:14.001Z</time></trkpt><trkpt lat="-27.6301622426808" lon="114.98475784861972"><ele>243.0</ele><time>2026-04-15T03:55:15.001Z</time></trkpt><trkpt lat="-27.629691343732222" lon="114.9848920266884"><ele>243.0</ele><time>2026-04-15T03:55:17.001Z</time></trkpt><trkpt lat="-27.6294557655186" lon="114.9849578626102"><ele>243.0</ele><time>2026-04-15T03:55:18.001Z</time></trkpt><trkpt lat="-27.629222005427284" lon="114.98502333280312"><ele>243.0</ele><time>2026-04-15T03:55:19.001Z</time></trkpt><trkpt lat="-27.628985389444736" lon="114.98508852547901"><ele>243.0</ele><time>2026-04-15T03:55:20.001Z</time></trkpt><trkpt lat="-27.628753777056524" lon="114.98515511111711"><ele>244.0</ele><time>2026-04-15T03:55:21.001Z</time></trkpt><trkpt lat="-27.628520072214396" lon="114.98522189780994"><ele>245.0</ele><time>2026-04-15T03:55:22.001Z</time></trkpt><trkpt lat="-27.628285851265286" lon="114.98528772677155"><ele>245.0</ele><time>2026-04-15T03:55:23.001Z</time></trkpt><trkpt lat="-27.628049713530658" lon="114.98535314486166"><ele>245.0</ele><time>2026-04-15T03:55:24.001Z</time></trkpt><trkpt lat="-27.62780922162151" lon="114.98541805838676"><ele>245.5</ele><time>2026-04-15T03:55:25.001Z</time></trkpt><trkpt lat="-27.62757011799919" lon="114.9854848131011"><ele>246.0</ele><time>2026-04-15T03:55:26.001Z</time></trkpt><trkpt lat="-27.62733504825868" lon="114.98554740016235"><ele>246.0</ele><time>2026-04-15T03:55:27.001Z</time></trkpt><trkpt lat="-27.627099153602646" lon="114.9856077151148"><ele>246.0</ele><time>2026-04-15T03:55:28.001Z</time></trkpt><trkpt lat="-27.62686328785169" lon="114.9856719394252"><ele>245.5</ele><time>2026-04-15T03:55:29.001Z</time></trkpt><trkpt lat="-27.62662975448266" lon="114.98573432310262"><ele>245.0</ele><time>2026-04-15T03:55:30.001Z</time></trkpt><trkpt lat="-27.626400946694883" lon="114.9857979742532"><ele>245.5</ele><time>2026-04-15T03:55:31.001Z</time></trkpt><trkpt lat="-27.626165941230095" lon="114.98585955919236"><ele>246.0</ele><time>2026-04-15T03:55:32.001Z</time></trkpt><trkpt lat="-27.62593918709229" lon="114.98592367537827"><ele>246.0</ele><time>2026-04-15T03:55:33.001Z</time></trkpt><trkpt lat="-27.62570625941209" lon="114.98598496650632"><ele>246.0</ele><time>2026-04-15T03:55:34.001Z</time></trkpt><trkpt lat="-27.62547426312953" lon="114.98604621739545"><ele>246.0</ele><time>2026-04-15T03:55:35.001Z</time></trkpt><trkpt lat="-27.62524682533081" lon="114.98610911070244"><ele>246.0</ele><time>2026-04-15T03:55:36.001Z</time></trkpt><trkpt lat="-27.62479019443295" lon="114.9862355004332"><ele>246.0</ele><time>2026-04-15T03:55:38.002Z</time></trkpt><trkpt lat="-27.62455502477896" lon="114.9862968632017"><ele>246.0</ele><time>2026-04-15T03:55:39.002Z</time></trkpt><trkpt lat="-27.624325082507436" lon="114.9863590184004"><ele>246.5</ele><time>2026-04-15T03:55:40.002Z</time></trkpt><trkpt lat="-27.62409862655813" lon="114.9864228460968"><ele>247.0</ele><time>2026-04-15T03:55:41.002Z</time></trkpt><trkpt lat="-27.6238680381389" lon="114.98648765132887"><ele>246.5</ele><time>2026-04-15T03:55:42.002Z</time></trkpt><trkpt lat="-27.623642060483583" lon="114.98655575096055"><ele>246.0</ele><time>2026-04-15T03:55:43.002Z</time></trkpt><trkpt lat="-27.62342260842511" lon="114.98662078573048"><ele>245.66666666666669</ele><time>2026-04-15T03:55:44.002Z</time></trkpt><trkpt lat="-27.623213572337185" lon="114.98667815764041"><ele>245.33333333333334</ele><time>2026-04-15T03:55:45.002Z</time></trkpt><trkpt lat="-27.62299625882268" lon="114.98673281320848"><ele>245.0</ele><time>2026-04-15T03:55:46.002Z</time></trkpt><trkpt lat="-27.62276804928505" lon="114.98679480451395"><ele>245.0</ele><time>2026-04-15T03:55:47.002Z</time></trkpt><trkpt lat="-27.62254277340853" lon="114.9868571863044"><ele>245.0</ele><time>2026-04-15T03:55:48.002Z</time></trkpt><trkpt lat="-27.622308791311497" lon="114.9869178414032"><ele>245.0</ele><time>2026-04-15T03:55:49.002Z</time></trkpt><trkpt lat="-27.622073646231843" lon="114.98698072323836"><ele>245.0</ele><time>2026-04-15T03:55:50.002Z</time></trkpt><trkpt lat="-27.621834531894056" lon="114.98704613308239"><ele>244.0</ele><time>2026-04-15T03:55:51.002Z</time></trkpt><trkpt lat="-27.62159934341597" lon="114.98710991492972"><ele>243.0</ele><time>2026-04-15T03:55:52.002Z</time></trkpt><trkpt lat="-27.621368181963387" lon="114.98717375741975"><ele>243.0</ele><time>2026-04-15T03:55:53.002Z</time></trkpt><trkpt lat="-27.621135426170927" lon="114.98723728627482"><ele>243.0</ele><time>2026-04-15T03:55:54.002Z</time></trkpt><trkpt lat="-27.620903903426694" lon="114.98730007008518"><ele>243.0</ele><time>2026-04-15T03:55:55.002Z</time></trkpt><trkpt lat="-27.620669673896256" lon="114.98736182338087"><ele>243.0</ele><time>2026-04-15T03:55:56.002Z</time></trkpt><trkpt lat="-27.620438981787604" lon="114.98742524013142"><ele>247.0</ele><time>2026-04-15T03:55:57.002Z</time></trkpt><trkpt lat="-27.619983713096577" lon="114.98755194896842"><ele>247.0</ele><time>2026-04-15T03:55:59.002Z</time></trkpt><trkpt lat="-27.619755037186955" lon="114.98761229483146"><ele>247.0</ele><time>2026-04-15T03:56:00.002Z</time></trkpt><trkpt lat="-27.619530233487275" lon="114.98767198724127"><ele>245.0</ele><time>2026-04-15T03:56:01.002Z</time></trkpt><trkpt lat="-27.61930542015796" lon="114.98772912386299"><ele>243.0</ele><time>2026-04-15T03:56:02.002Z</time></trkpt><trkpt lat="-27.619080912709688" lon="114.9877886536005"><ele>243.0</ele><time>2026-04-15T03:56:03.002Z</time></trkpt><trkpt lat="-27.618857639487043" lon="114.98784996413879"><ele>243.0</ele><time>2026-04-15T03:56:04.002Z</time></trkpt><trkpt lat="-27.618634452472776" lon="114.98790923227318"><ele>241.5</ele><time>2026-04-15T03:56:05.002Z</time></trkpt><trkpt lat="-27.618411145885823" lon="114.98796992784592"><ele>240.0</ele><time>2026-04-15T03:56:06.002Z</time></trkpt><trkpt lat="-27.618190210903464" lon="114.98802987750373"><ele>240.0</ele><time>2026-04-15T03:56:07.002Z</time></trkpt><trkpt lat="-27.61796394281308" lon="114.988092874613"><ele>240.0</ele><time>2026-04-15T03:56:08.002Z</time></trkpt><trkpt lat="-27.617740350406613" lon="114.98815368215249"><ele>240.0</ele><time>2026-04-15T03:56:09.002Z</time></trkpt><trkpt lat="-27.617514151710196" lon="114.98821701854163"><ele>240.0</ele><time>2026-04-15T03:56:10.002Z</time></trkpt><trkpt lat="-27.61728276181745" lon="114.98828206252637"><ele>239.0</ele><time>2026-04-15T03:56:11.002Z</time></trkpt><trkpt lat="-27.61705116584501" lon="114.98834571890085"><ele>238.0</ele><time>2026-04-15T03:56:12.002Z</time></trkpt><trkpt lat="-27.616816169926647" lon="114.98840714911876"><ele>238.0</ele><time>2026-04-15T03:56:13.002Z</time></trkpt><trkpt lat="-27.616576948961495" lon="114.98847216394039"><ele>238.0</ele><time>2026-04-15T03:56:14.002Z</time></trkpt><trkpt lat="-27.616332191125164" lon="114.98854290215851"><ele>238.0</ele><time>2026-04-15T03:56:15.002Z</time></trkpt><trkpt lat="-27.616087568610784" lon="114.98861387326636"><ele>238.0</ele><time>2026-04-15T03:56:16.002Z</time></trkpt><trkpt lat="-27.615837680926933" lon="114.98868554818553"><ele>238.0</ele><time>2026-04-15T03:56:17.002Z</time></trkpt><trkpt lat="-27.615585297206028" lon="114.98875737131868"><ele>238.0</ele><time>2026-04-15T03:56:18.002Z</time></trkpt><trkpt lat="-27.61509237127475" lon="114.98889578524046"><ele>239.0</ele><time>2026-04-15T03:56:20.002Z</time></trkpt><trkpt lat="-27.6148493539843" lon="114.98896058238896"><ele>240.0</ele><time>2026-04-15T03:56:21.002Z</time></trkpt><trkpt lat="-27.6146088613413" lon="114.98902508191276"><ele>241.0</ele><time>2026-04-15T03:56:22.002Z</time></trkpt><trkpt lat="-27.614365830739363" lon="114.98909232704425"><ele>242.0</ele><time>2026-04-15T03:56:23.002Z</time></trkpt><trkpt lat="-27.614124076999353" lon="114.98915817151317"><ele>241.0</ele><time>2026-04-15T03:56:24.002Z</time></trkpt><trkpt lat="-27.61388313294632" lon="114.98922425943005"><ele>240.0</ele><time>2026-04-15T03:56:25.002Z</time></trkpt><trkpt lat="-27.613653722932234" lon="114.98928608112806"><ele>240.0</ele><time>2026-04-15T03:56:26.002Z</time></trkpt><trkpt lat="-27.613421894323505" lon="114.98934617174751"><ele>240.0</ele><time>2026-04-15T03:56:27.002Z</time></trkpt><trkpt lat="-27.61319419956662" lon="114.98940578392934"><ele>240.0</ele><time>2026-04-15T03:56:28.002Z</time></trkpt><trkpt lat="-27.61296851100292" lon="114.98946492544754"><ele>240.0</ele><time>2026-04-15T03:56:29.002Z</time></trkpt><trkpt lat="-27.612756332282224" lon="114.9895232142288"><ele>241.33333333333331</ele><time>2026-04-15T03:56:30.002Z</time></trkpt><trkpt lat="-27.61256502898194" lon="114.98957638288441"><ele>242.66666666666666</ele><time>2026-04-15T03:56:31.002Z</time></trkpt><trkpt lat="-27.612379971650746" lon="114.98962867825118"><ele>244.0</ele><time>2026-04-15T03:56:32.002Z</time></trkpt><trkpt lat="-27.61221123639256" lon="114.98967592453616"><ele>244.0</ele><time>2026-04-15T03:56:33.002Z</time></trkpt><trkpt lat="-27.612042013641613" lon="114.989717859618"><ele>244.0</ele><time>2026-04-15T03:56:34.002Z</time></trkpt><trkpt lat="-27.61188163822456" lon="114.9897628377426"><ele>244.0</ele><time>2026-04-15T03:56:35.002Z</time></trkpt><trkpt lat="-27.61170102212402" lon="114.98981701456316"><ele>242.66666666666666</ele><time>2026-04-15T03:56:36.002Z</time></trkpt><trkpt lat="-27.611530545911712" lon="114.98987568330499"><ele>241.33333333333331</ele><time>2026-04-15T03:56:37.002Z</time></trkpt><trkpt lat="-27.61134335480646" lon="114.98993746555337"><ele>240.0</ele><time>2026-04-15T03:56:38.001Z</time></trkpt><trkpt lat="-27.61113996456007" lon="114.98998935059173"><ele>241.0</ele><time>2026-04-15T03:56:39.001Z</time></trkpt><trkpt lat="-27.610711616469153" lon="114.99008887755264"><ele>242.0</ele><time>2026-04-15T03:56:41.001Z</time></trkpt><trkpt lat="-27.61048876510158" lon="114.99014998994085"><ele>241.5</ele><time>2026-04-15T03:56:42.001Z</time></trkpt><trkpt lat="-27.61026863271022" lon="114.99021502188444"><ele>241.0</ele><time>2026-04-15T03:56:43.001Z</time></trkpt><trkpt lat="-27.61004614376576" lon="114.99028116388949"><ele>241.0</ele><time>2026-04-15T03:56:44.001Z</time></trkpt><trkpt lat="-27.609825222031542" lon="114.99034473085476"><ele>241.0</ele><time>2026-04-15T03:56:45.001Z</time></trkpt><trkpt lat="-27.609597064616487" lon="114.99040795013066"><ele>241.0</ele><time>2026-04-15T03:56:46.001Z</time></trkpt><trkpt lat="-27.609370236045507" lon="114.99047021515035"><ele>241.0</ele><time>2026-04-15T03:56:47.001Z</time></trkpt><trkpt lat="-27.609143140667186" lon="114.99053407363276"><ele>241.0</ele><time>2026-04-15T03:56:48.001Z</time></trkpt><trkpt lat="-27.608922030690845" lon="114.99059739781774"><ele>241.0</ele><time>2026-04-15T03:56:49.001Z</time></trkpt><trkpt lat="-27.608699911229284" lon="114.99066245020937"><ele>241.5</ele><time>2026-04-15T03:56:50.001Z</time></trkpt><trkpt lat="-27.608474918393433" lon="114.99072993134585"><ele>242.0</ele><time>2026-04-15T03:56:51.001Z</time></trkpt><trkpt lat="-27.608256982406846" lon="114.99079477073629"><ele>241.66666666666669</ele><time>2026-04-15T03:56:52.001Z</time></trkpt><trkpt lat="-27.608035922046778" lon="114.9908574600351"><ele>241.33333333333331</ele><time>2026-04-15T03:56:53.001Z</time></trkpt><trkpt lat="-27.607821794778253" lon="114.9909159045508"><ele>241.0</ele><time>2026-04-15T03:56:54.001Z</time></trkpt><trkpt lat="-27.607608490671698" lon="114.99097378009714"><ele>241.66666666666666</ele><time>2026-04-15T03:56:55.001Z</time></trkpt><trkpt lat="-27.607396463898837" lon="114.99103306566913"><ele>242.33333333333331</ele><time>2026-04-15T03:56:56.001Z</time></trkpt><trkpt lat="-27.607188198444433" lon="114.99109376288878"><ele>243.0</ele><time>2026-04-15T03:56:57.001Z</time></trkpt><trkpt lat="-27.606972804537616" lon="114.9911579652315"><ele>244.33333333333331</ele><time>2026-04-15T03:56:58.001Z</time></trkpt><trkpt lat="-27.60676629849882" lon="114.99122187206109"><ele>245.66666666666666</ele><time>2026-04-15T03:56:59.001Z</time></trkpt><trkpt lat="-27.606561426739738" lon="114.99128839310185"><ele>247.0</ele><time>2026-04-15T03:57:00.001Z</time></trkpt><trkpt lat="-27.60614017153859" lon="114.99144459022119"><ele>247.0</ele><time>2026-04-15T03:57:02.001Z</time></trkpt><trkpt lat="-27.605916441864323" lon="114.99153597604936"><ele>247.0</ele><time>2026-04-15T03:57:03.001Z</time></trkpt><trkpt lat="-27.605683383671863" lon="114.9916322670347"><ele>246.5</ele><time>2026-04-15T03:57:04.001Z</time></trkpt><trkpt lat="-27.60545017716655" lon="114.99173025492956"><ele>246.0</ele><time>2026-04-15T03:57:05.001Z</time></trkpt><trkpt lat="-27.605216449235993" lon="114.99182576803227"><ele>245.5</ele><time>2026-04-15T03:57:06.001Z</time></trkpt><trkpt lat="-27.60498820023779" lon="114.99192238359652"><ele>245.0</ele><time>2026-04-15T03:57:07.001Z</time></trkpt><trkpt lat="-27.604767486117172" lon="114.99201719746131"><ele>245.0</ele><time>2026-04-15T03:57:08.001Z</time></trkpt><trkpt lat="-27.6045569914705" lon="114.99210698309838"><ele>245.0</ele><time>2026-04-15T03:57:09.001Z</time></trkpt><trkpt lat="-27.60434027735902" lon="114.99220255026886"><ele>246.0</ele><time>2026-04-15T03:57:10.001Z</time></trkpt><trkpt lat="-27.604128124287545" lon="114.99229445854812"><ele>247.0</ele><time>2026-04-15T03:57:11.001Z</time></trkpt><trkpt lat="-27.603915146573353" lon="114.99238967052256"><ele>247.0</ele><time>2026-04-15T03:57:12.001Z</time></trkpt><trkpt lat="-27.60369374016688" lon="114.9924876144211"><ele>247.0</ele><time>2026-04-15T03:57:13.001Z</time></trkpt><trkpt lat="-27.603470933699978" lon="114.99258590856655"><ele>248.0</ele><time>2026-04-15T03:57:14.001Z</time></trkpt><trkpt lat="-27.603249664415415" lon="114.99268327847244"><ele>249.0</ele><time>2026-04-15T03:57:15.001Z</time></trkpt><trkpt lat="-27.60303402306594" lon="114.99277723782049"><ele>249.0</ele><time>2026-04-15T03:57:16.001Z</time></trkpt><trkpt lat="-27.602824626588593" lon="114.99286601916204"><ele>249.0</ele><time>2026-04-15T03:57:17.001Z</time></trkpt><trkpt lat="-27.602615271869265" lon="114.9929556650948"><ele>249.0</ele><time>2026-04-15T03:57:18.001Z</time></trkpt><trkpt lat="-27.602405734483447" lon="114.99304799282073"><ele>249.0</ele><time>2026-04-15T03:57:19.001Z</time></trkpt><trkpt lat="-27.602195816051967" lon="114.99313955216302"><ele>249.0</ele><time>2026-04-15T03:57:20.001Z</time></trkpt><trkpt lat="-27.60198714361044" lon="114.99323041212078"><ele>249.0</ele><time>2026-04-15T03:57:21.001Z</time></trkpt><trkpt lat="-27.601577440587924" lon="114.99340635237056"><ele>249.0</ele><time>2026-04-15T03:57:23.001Z</time></trkpt><trkpt lat="-27.601368776718516" lon="114.9934994597729"><ele>249.0</ele><time>2026-04-15T03:57:24.001Z</time></trkpt><trkpt lat="-27.60115682436939" lon="114.99359588359172"><ele>249.0</ele><time>2026-04-15T03:57:25.001Z</time></trkpt><trkpt lat="-27.60094235412444" lon="114.99369275911789"><ele>249.0</ele><time>2026-04-15T03:57:26.001Z</time></trkpt><trkpt lat="-27.600727754043245" lon="114.99378504888143"><ele>249.0</ele><time>2026-04-15T03:57:27.001Z</time></trkpt><trkpt lat="-27.60050160105078" lon="114.99388246321958"><ele>249.0</ele><time>2026-04-15T03:57:28.001Z</time></trkpt><trkpt lat="-27.60027542013673" lon="114.993981910799"><ele>250.5</ele><time>2026-04-15T03:57:29.001Z</time></trkpt><trkpt lat="-27.600038532964973" lon="114.99408769195331"><ele>252.0</ele><time>2026-04-15T03:57:30.001Z</time></trkpt><trkpt lat="-27.599804299057382" lon="114.99419122947639"><ele>252.0</ele><time>2026-04-15T03:57:31.001Z</time></trkpt><trkpt lat="-27.599565905929467" lon="114.99430036960096"><ele>252.0</ele><time>2026-04-15T03:57:32.001Z</time></trkpt><trkpt lat="-27.599336522815598" lon="114.9944022921173"><ele>251.5</ele><time>2026-04-15T03:57:33.001Z</time></trkpt><trkpt lat="-27.599101442373144" lon="114.99450453493898"><ele>251.0</ele><time>2026-04-15T03:57:34.001Z</time></trkpt><trkpt lat="-27.598867622160153" lon="114.99460467911896"><ele>251.0</ele><time>2026-04-15T03:57:35.001Z</time></trkpt><trkpt lat="-27.59863228546214" lon="114.99470618404804"><ele>251.0</ele><time>2026-04-15T03:57:36.001Z</time></trkpt><trkpt lat="-27.59839934385914" lon="114.99481028444212"><ele>251.0</ele><time>2026-04-15T03:57:37.001Z</time></trkpt><trkpt lat="-27.59816059953522" lon="114.99491695955494"><ele>251.0</ele><time>2026-04-15T03:57:38.001Z</time></trkpt><trkpt lat="-27.597912561173803" lon="114.99502544915907"><ele>250.0</ele><time>2026-04-15T03:57:39.001Z</time></trkpt><trkpt lat="-27.597671779709376" lon="114.99513196626725"><ele>249.0</ele><time>2026-04-15T03:57:40.001Z</time></trkpt><trkpt lat="-27.59743105613236" lon="114.99524020387096"><ele>249.0</ele><time>2026-04-15T03:57:41.001Z</time></trkpt><trkpt lat="-27.59718836138085" lon="114.99534816414089"><ele>249.0</ele><time>2026-04-15T03:57:42.001Z</time></trkpt><trkpt lat="-27.59669723465466" lon="114.99556759691119"><ele>250.0</ele><time>2026-04-15T03:57:44.001Z</time></trkpt><trkpt lat="-27.59644728935242" lon="114.99567791593118"><ele>251.0</ele><time>2026-04-15T03:57:45.001Z</time></trkpt><trkpt lat="-27.59619572067517" lon="114.99578760847658"><ele>251.0</ele><time>2026-04-15T03:57:46.001Z</time></trkpt><trkpt lat="-27.595949626698875" lon="114.9958922469417"><ele>251.0</ele><time>2026-04-15T03:57:47.001Z</time></trkpt><trkpt lat="-27.595703970558638" lon="114.995997409148"><ele>251.0</ele><time>2026-04-15T03:57:48.001Z</time></trkpt><trkpt lat="-27.595459720926577" lon="114.99610197768108"><ele>251.0</ele><time>2026-04-15T03:57:49.001Z</time></trkpt><trkpt lat="-27.595219224192363" lon="114.99621007249425"><ele>252.0</ele><time>2026-04-15T03:57:50.001Z</time></trkpt><trkpt lat="-27.594978627420122" lon="114.99631743076581"><ele>253.0</ele><time>2026-04-15T03:57:51.001Z</time></trkpt><trkpt lat="-27.594740733988843" lon="114.99642172055947"><ele>254.0</ele><time>2026-04-15T03:57:52.001Z</time></trkpt><trkpt lat="-27.594496456752935" lon="114.99652971510363"><ele>255.0</ele><time>2026-04-15T03:57:53.001Z</time></trkpt><trkpt lat="-27.594251647439926" lon="114.99663839507875"><ele>253.0</ele><time>2026-04-15T03:57:54.001Z</time></trkpt><trkpt lat="-27.594005644749117" lon="114.99674831019036"><ele>251.0</ele><time>2026-04-15T03:57:55.001Z</time></trkpt><trkpt lat="-27.593753520893323" lon="114.99686080736925"><ele>251.5</ele><time>2026-04-15T03:57:56.001Z</time></trkpt><trkpt lat="-27.59350589511889" lon="114.99697110909814"><ele>252.0</ele><time>2026-04-15T03:57:57.001Z</time></trkpt><trkpt lat="-27.593253947262273" lon="114.99707950047964"><ele>252.0</ele><time>2026-04-15T03:57:58.001Z</time></trkpt><trkpt lat="-27.59300296792397" lon="114.99718621210882"><ele>252.0</ele><time>2026-04-15T03:57:59.001Z</time></trkpt><trkpt lat="-27.592748273789923" lon="114.99729934730652"><ele>252.0</ele><time>2026-04-15T03:58:00.001Z</time></trkpt><trkpt lat="-27.59249827182028" lon="114.99740995774263"><ele>252.0</ele><time>2026-04-15T03:58:01.001Z</time></trkpt><trkpt lat="-27.592247335301245" lon="114.99751924736762"><ele>252.5</ele><time>2026-04-15T03:58:02.001Z</time></trkpt><trkpt lat="-27.591994075772345" lon="114.99763065848241"><ele>253.0</ele><time>2026-04-15T03:58:03.001Z</time></trkpt><trkpt lat="-27.59149080672686" lon="114.9978508434238"><ele>253.0</ele><time>2026-04-15T03:58:05.001Z</time></trkpt><trkpt lat="-27.59124818012076" lon="114.99795916261888"><ele>253.0</ele><time>2026-04-15T03:58:06.001Z</time></trkpt><trkpt lat="-27.591018865653385" lon="114.99806312486074"><ele>253.0</ele><time>2026-04-15T03:58:07.001Z</time></trkpt><trkpt lat="-27.590797799836224" lon="114.99816702167848"><ele>253.0</ele><time>2026-04-15T03:58:08.001Z</time></trkpt><trkpt lat="-27.59059219280525" lon="114.99826213559656"><ele>253.0</ele><time>2026-04-15T03:58:09.001Z</time></trkpt><trkpt lat="-27.590391072492096" lon="114.99835158626097"><ele>253.0</ele><time>2026-04-15T03:58:10.001Z</time></trkpt><trkpt lat="-27.590179743968715" lon="114.99843981643852"><ele>253.0</ele><time>2026-04-15T03:58:11.001Z</time></trkpt><trkpt lat="-27.589959612892674" lon="114.99852881514589"><ele>253.0</ele><time>2026-04-15T03:58:12.001Z</time></trkpt><trkpt lat="-27.589742094553788" lon="114.99860750363682"><ele>253.0</ele><time>2026-04-15T03:58:13.001Z</time></trkpt><trkpt lat="-27.58952130174739" lon="114.99868502890855"><ele>253.5</ele><time>2026-04-15T03:58:14.001Z</time></trkpt><trkpt lat="-27.589302472285173" lon="114.99876859664373"><ele>254.0</ele><time>2026-04-15T03:58:15.001Z</time></trkpt><trkpt lat="-27.589082709156614" lon="114.99885913907748"><ele>254.0</ele><time>2026-04-15T03:58:16.001Z</time></trkpt><trkpt lat="-27.588865676198917" lon="114.99895413427807"><ele>254.0</ele><time>2026-04-15T03:58:17.001Z</time></trkpt><trkpt lat="-27.588645849894146" lon="114.9990518843909"><ele>253.5</ele><time>2026-04-15T03:58:18.001Z</time></trkpt><trkpt lat="-27.58842730135188" lon="114.99914933624096"><ele>253.0</ele><time>2026-04-15T03:58:19.001Z</time></trkpt><trkpt lat="-27.588209100707797" lon="114.99924932782729"><ele>252.5</ele><time>2026-04-15T03:58:20.001Z</time></trkpt><trkpt lat="-27.58798594488494" lon="114.9993476944741"><ele>252.0</ele><time>2026-04-15T03:58:21.001Z</time></trkpt><trkpt lat="-27.58776065789712" lon="114.99944641853473"><ele>251.5</ele><time>2026-04-15T03:58:22.001Z</time></trkpt><trkpt lat="-27.587538558134696" lon="114.99954574367656"><ele>251.0</ele><time>2026-04-15T03:58:23.001Z</time></trkpt><trkpt lat="-27.587313672369003" lon="114.99964899803582"><ele>252.0</ele><time>2026-04-15T03:58:24.001Z</time></trkpt><trkpt lat="-27.58687566590844" lon="114.9998529214745"><ele>252.0</ele><time>2026-04-15T03:58:26.001Z</time></trkpt><trkpt lat="-27.586654364372272" lon="114.99995406440999"><ele>252.0</ele><time>2026-04-15T03:58:27.001Z</time></trkpt><trkpt lat="-27.586433652334794" lon="115.0000544524366"><ele>252.0</ele><time>2026-04-15T03:58:28.001Z</time></trkpt><trkpt lat="-27.586211716800328" lon="115.00014964275329"><ele>252.0</ele><time>2026-04-15T03:58:29.001Z</time></trkpt><trkpt lat="-27.585987660795546" lon="115.00024466530725"><ele>252.0</ele><time>2026-04-15T03:58:30.001Z</time></trkpt><trkpt lat="-27.58575578417359" lon="115.00034110560746"><ele>252.0</ele><time>2026-04-15T03:58:31.001Z</time></trkpt><trkpt lat="-27.585526949211914" lon="115.00043910173154"><ele>250.5</ele><time>2026-04-15T03:58:32.001Z</time></trkpt><trkpt lat="-27.585292792302255" lon="115.0005368026088"><ele>249.0</ele><time>2026-04-15T03:58:33.001Z</time></trkpt><trkpt lat="-27.58505560120609" lon="115.0006365909794"><ele>249.0</ele><time>2026-04-15T03:58:34.001Z</time></trkpt><trkpt lat="-27.584818216909106" lon="115.00073674687458"><ele>249.0</ele><time>2026-04-15T03:58:35.001Z</time></trkpt><trkpt lat="-27.584580244355745" lon="115.00084141655701"><ele>250.0</ele><time>2026-04-15T03:58:36.001Z</time></trkpt><trkpt lat="-27.584343641565226" lon="115.0009490366416"><ele>251.0</ele><time>2026-04-15T03:58:37.001Z</time></trkpt><trkpt lat="-27.584106617813855" lon="115.00105763386473"><ele>251.0</ele><time>2026-04-15T03:58:38.001Z</time></trkpt><trkpt lat="-27.583871715285333" lon="115.00116278800012"><ele>251.0</ele><time>2026-04-15T03:58:39.001Z</time></trkpt><trkpt lat="-27.58363694684418" lon="115.00126593850962"><ele>251.0</ele><time>2026-04-15T03:58:40.001Z</time></trkpt><trkpt lat="-27.58340336854738" lon="115.00136783697823"><ele>251.0</ele><time>2026-04-15T03:58:41.001Z</time></trkpt><trkpt lat="-27.583172336283916" lon="115.00146855257309"><ele>251.0</ele><time>2026-04-15T03:58:42.001Z</time></trkpt><trkpt lat="-27.582941052462374" lon="115.0015708442462"><ele>251.0</ele><time>2026-04-15T03:58:43.001Z</time></trkpt><trkpt lat="-27.582714349837982" lon="115.00167094721138"><ele>251.0</ele><time>2026-04-15T03:58:44.001Z</time></trkpt><trkpt lat="-27.582489456704298" lon="115.00177375790736"><ele>251.0</ele><time>2026-04-15T03:58:45.001Z</time></trkpt><trkpt lat="-27.582023939620033" lon="115.00197885390926"><ele>251.0</ele><time>2026-04-15T03:58:47.001Z</time></trkpt><trkpt lat="-27.581796998653576" lon="115.00207811219708"><ele>251.0</ele><time>2026-04-15T03:58:48.001Z</time></trkpt><trkpt lat="-27.581567728301692" lon="115.00217900033819"><ele>251.0</ele><time>2026-04-15T03:58:49.001Z</time></trkpt><trkpt lat="-27.581333327534914" lon="115.00228245065784"><ele>251.0</ele><time>2026-04-15T03:58:50.001Z</time></trkpt><trkpt lat="-27.58110597594889" lon="115.00238528805983"><ele>251.0</ele><time>2026-04-15T03:58:51.001Z</time></trkpt><trkpt lat="-27.580875254292206" lon="115.00248844902602"><ele>251.0</ele><time>2026-04-15T03:58:52.001Z</time></trkpt><trkpt lat="-27.58064768717473" lon="115.00258621166596"><ele>251.5</ele><time>2026-04-15T03:58:53.001Z</time></trkpt><trkpt lat="-27.580408808897015" lon="115.00268628181962"><ele>252.0</ele><time>2026-04-15T03:58:54.001Z</time></trkpt><trkpt lat="-27.580180912478635" lon="115.0027873239819"><ele>250.5</ele><time>2026-04-15T03:58:55.001Z</time></trkpt><trkpt lat="-27.57994906314045" lon="115.00289088861945"><ele>249.0</ele><time>2026-04-15T03:58:56.001Z</time></trkpt><trkpt lat="-27.57971806277971" lon="115.00299162182662"><ele>250.0</ele><time>2026-04-15T03:58:57.001Z</time></trkpt><trkpt lat="-27.579488302572027" lon="115.00309354206021"><ele>251.0</ele><time>2026-04-15T03:58:58.001Z</time></trkpt><trkpt lat="-27.57925650254605" lon="115.0031981967214"><ele>251.0</ele><time>2026-04-15T03:58:59.001Z</time></trkpt><trkpt lat="-27.57902631028147" lon="115.00329938268733"><ele>251.0</ele><time>2026-04-15T03:59:00.001Z</time></trkpt><trkpt lat="-27.57879434387393" lon="115.00340189718332"><ele>249.5</ele><time>2026-04-15T03:59:01.001Z</time></trkpt><trkpt lat="-27.578562986866533" lon="115.00350577073378"><ele>248.0</ele><time>2026-04-15T03:59:02.001Z</time></trkpt><trkpt lat="-27.578329655226906" lon="115.00360864508345"><ele>248.0</ele><time>2026-04-15T03:59:03.001Z</time></trkpt><trkpt lat="-27.578093724772533" lon="115.00371162786337"><ele>248.0</ele><time>2026-04-15T03:59:04.001Z</time></trkpt><trkpt lat="-27.577860794164486" lon="115.00381369067267"><ele>248.5</ele><time>2026-04-15T03:59:05.001Z</time></trkpt><trkpt lat="-27.577623309326263" lon="115.00391971973406"><ele>249.0</ele><time>2026-04-15T03:59:06.001Z</time></trkpt><trkpt lat="-27.577146703940063" lon="115.00413078453515"><ele>249.5</ele><time>2026-04-15T03:59:08.001Z</time></trkpt><trkpt lat="-27.576901269372527" lon="115.00423960880785"><ele>250.0</ele><time>2026-04-15T03:59:09.001Z</time></trkpt><trkpt lat="-27.576655535411994" lon="115.00434905269555"><ele>250.0</ele><time>2026-04-15T03:59:10.001Z</time></trkpt><trkpt lat="-27.57641650180762" lon="115.00445623758742"><ele>250.0</ele><time>2026-04-15T03:59:11.001Z</time></trkpt><trkpt lat="-27.576179070657496" lon="115.00456133296044"><ele>249.0</ele><time>2026-04-15T03:59:12.001Z</time></trkpt><trkpt lat="-27.575940332916822" lon="115.00466529748488"><ele>248.0</ele><time>2026-04-15T03:59:13.001Z</time></trkpt><trkpt lat="-27.57570573391711" lon="115.00476780501324"><ele>248.0</ele><time>2026-04-15T03:59:14.001Z</time></trkpt><trkpt lat="-27.575471092068938" lon="115.00486833951572"><ele>248.0</ele><time>2026-04-15T03:59:15.001Z</time></trkpt><trkpt lat="-27.575234927274472" lon="115.00496885535908"><ele>248.0</ele><time>2026-04-15T03:59:16.001Z</time></trkpt><trkpt lat="-27.575000473051443" lon="115.0050688050818"><ele>248.0</ele><time>2026-04-15T03:59:17.001Z</time></trkpt><trkpt lat="-27.574764003741254" lon="115.00517349249787"><ele>248.0</ele><time>2026-04-15T03:59:18.001Z</time></trkpt><trkpt lat="-27.57452724837624" lon="115.00527892078915"><ele>248.0</ele><time>2026-04-15T03:59:19.001Z</time></trkpt><trkpt lat="-27.574288073633262" lon="115.00538370267869"><ele>248.0</ele><time>2026-04-15T03:59:20.001Z</time></trkpt><trkpt lat="-27.57405258017558" lon="115.00548742724212"><ele>248.0</ele><time>2026-04-15T03:59:21.001Z</time></trkpt><trkpt lat="-27.57381962780983" lon="115.00559023601735"><ele>247.5</ele><time>2026-04-15T03:59:22.001Z</time></trkpt><trkpt lat="-27.573587453643928" lon="115.00569247852833"><ele>247.0</ele><time>2026-04-15T03:59:23.001Z</time></trkpt><trkpt lat="-27.57335752008706" lon="115.0057936309216"><ele>247.5</ele><time>2026-04-15T03:59:24.001Z</time></trkpt><trkpt lat="-27.573127302369272" lon="115.00589288752097"><ele>248.0</ele><time>2026-04-15T03:59:25.001Z</time></trkpt><trkpt lat="-27.572896692495505" lon="115.0059940513249"><ele>247.5</ele><time>2026-04-15T03:59:26.001Z</time></trkpt><trkpt lat="-27.572667246806844" lon="115.0060958432896"><ele>247.0</ele><time>2026-04-15T03:59:27.001Z</time></trkpt><trkpt lat="-27.572209297330435" lon="115.00629800333087"><ele>246.5</ele><time>2026-04-15T03:59:29.001Z</time></trkpt><trkpt lat="-27.571979257419947" lon="115.00639909825688"><ele>246.0</ele><time>2026-04-15T03:59:30.001Z</time></trkpt><trkpt lat="-27.571749059601036" lon="115.00649911149345"><ele>246.0</ele><time>2026-04-15T03:59:31.001Z</time></trkpt><trkpt lat="-27.57151634164121" lon="115.00659984961695"><ele>246.0</ele><time>2026-04-15T03:59:32.001Z</time></trkpt><trkpt lat="-27.57128951360449" lon="115.00669922759701"><ele>246.5</ele><time>2026-04-15T03:59:33.001Z</time></trkpt><trkpt lat="-27.571063608456086" lon="115.00680204198326"><ele>247.0</ele><time>2026-04-15T03:59:34.001Z</time></trkpt><trkpt lat="-27.57083630464578" lon="115.00690040933388"><ele>247.0</ele><time>2026-04-15T03:59:35.001Z</time></trkpt><trkpt lat="-27.57060901341216" lon="115.00699819373494"><ele>247.0</ele><time>2026-04-15T03:59:36.001Z</time></trkpt><trkpt lat="-27.570381935306983" lon="115.00709841091069"><ele>246.0</ele><time>2026-04-15T03:59:37.001Z</time></trkpt><trkpt lat="-27.570163030033267" lon="115.00719549363751"><ele>245.0</ele><time>2026-04-15T03:59:38.001Z</time></trkpt><trkpt lat="-27.569943956108567" lon="115.0072921639475"><ele>245.0</ele><time>2026-04-15T03:59:39.001Z</time></trkpt><trkpt lat="-27.569730718282475" lon="115.0073868264016"><ele>245.0</ele><time>2026-04-15T03:59:40.001Z</time></trkpt><trkpt lat="-27.569519209931304" lon="115.00747963798686"><ele>244.66666666666669</ele><time>2026-04-15T03:59:41.001Z</time></trkpt><trkpt lat="-27.569313234192087" lon="115.00756774080124"><ele>244.33333333333331</ele><time>2026-04-15T03:59:42.001Z</time></trkpt><trkpt lat="-27.569103091630918" lon="115.00765835222852"><ele>244.0</ele><time>2026-04-15T03:59:43.001Z</time></trkpt><trkpt lat="-27.568889313885148" lon="115.00775043546547"><ele>244.0</ele><time>2026-04-15T03:59:44.001Z</time></trkpt><trkpt lat="-27.568674222033934" lon="115.0078411672883"><ele>244.0</ele><time>2026-04-15T03:59:45.001Z</time></trkpt><trkpt lat="-27.56845901878865" lon="115.00793801308282"><ele>244.0</ele><time>2026-04-15T03:59:46.001Z</time></trkpt><trkpt lat="-27.56824099286533" lon="115.00803293811015"><ele>244.0</ele><time>2026-04-15T03:59:47.001Z</time></trkpt><trkpt lat="-27.56802546280372" lon="115.00812948377866"><ele>244.0</ele><time>2026-04-15T03:59:48.001Z</time></trkpt><trkpt lat="-27.567587508190414" lon="115.0083187553572"><ele>244.5</ele><time>2026-04-15T03:59:50.001Z</time></trkpt><trkpt lat="-27.567363139214994" lon="115.0084138551621"><ele>245.0</ele><time>2026-04-15T03:59:51.001Z</time></trkpt><trkpt lat="-27.56714100594897" lon="115.00850880861319"><ele>244.0</ele><time>2026-04-15T03:59:52.001Z</time></trkpt><trkpt lat="-27.566919803639998" lon="115.0086045694875"><ele>243.0</ele><time>2026-04-15T03:59:53.001Z</time></trkpt><trkpt lat="-27.56669752314859" lon="115.00870252286913"><ele>243.0</ele><time>2026-04-15T03:59:54.001Z</time></trkpt><trkpt lat="-27.566471391986088" lon="115.00880271897657"><ele>243.0</ele><time>2026-04-15T03:59:55.001Z</time></trkpt><trkpt lat="-27.566237265551067" lon="115.00890487067969"><ele>242.5</ele><time>2026-04-15T03:59:56.001Z</time></trkpt><trkpt lat="-27.56599276120981" lon="115.00901154633546"><ele>242.0</ele><time>2026-04-15T03:59:57.001Z</time></trkpt><trkpt lat="-27.565751134682117" lon="115.00911850400847"><ele>243.5</ele><time>2026-04-15T03:59:58.001Z</time></trkpt><trkpt lat="-27.565503994458997" lon="115.00922756175551"><ele>245.0</ele><time>2026-04-15T03:59:59.001Z</time></trkpt><trkpt lat="-27.565251886850856" lon="115.00933791740007"><ele>246.0</ele><time>2026-04-15T04:00:00.001Z</time></trkpt><trkpt lat="-27.564999050656617" lon="115.00944821342173"><ele>247.0</ele><time>2026-04-15T04:00:01.001Z</time></trkpt><trkpt lat="-27.564745104613916" lon="115.00956008683836"><ele>247.0</ele><time>2026-04-15T04:00:02.001Z</time></trkpt><trkpt lat="-27.564493006454303" lon="115.00967090052491"><ele>247.0</ele><time>2026-04-15T04:00:03.001Z</time></trkpt><trkpt lat="-27.564241138801027" lon="115.00978427918004"><ele>247.0</ele><time>2026-04-15T04:00:04.001Z</time></trkpt><trkpt lat="-27.563990289809777" lon="115.00989536793446"><ele>247.0</ele><time>2026-04-15T04:00:05.001Z</time></trkpt><trkpt lat="-27.56374193751157" lon="115.01000386279821"><ele>247.5</ele><time>2026-04-15T04:00:06.001Z</time></trkpt><trkpt lat="-27.563498835837258" lon="115.01011082812629"><ele>248.0</ele><time>2026-04-15T04:00:07.001Z</time></trkpt><trkpt lat="-27.563261459423597" lon="115.01021712409249"><ele>248.0</ele><time>2026-04-15T04:00:08.001Z</time></trkpt><trkpt lat="-27.563027364085222" lon="115.01032292967263"><ele>248.0</ele><time>2026-04-15T04:00:09.001Z</time></trkpt><trkpt lat="-27.5625681242258" lon="115.01052522137738"><ele>248.5</ele><time>2026-04-15T04:00:11.001Z</time></trkpt><trkpt lat="-27.562335349787748" lon="115.01062349602785"><ele>249.0</ele><time>2026-04-15T04:00:12.001Z</time></trkpt><trkpt lat="-27.562100770883884" lon="115.0107193428761"><ele>248.5</ele><time>2026-04-15T04:00:13.001Z</time></trkpt><trkpt lat="-27.56187465578488" lon="115.01081694065469"><ele>248.0</ele><time>2026-04-15T04:00:14.001Z</time></trkpt><trkpt lat="-27.56164716465093" lon="115.01091550796227"><ele>247.5</ele><time>2026-04-15T04:00:15.001Z</time></trkpt><trkpt lat="-27.56141718206884" lon="115.01101722019196"><ele>247.0</ele><time>2026-04-15T04:00:16.001Z</time></trkpt><trkpt lat="-27.561187576309464" lon="115.01111638321868"><ele>246.0</ele><time>2026-04-15T04:00:17.001Z</time></trkpt><trkpt lat="-27.56095729284548" lon="115.01121382242361"><ele>245.0</ele><time>2026-04-15T04:00:18.001Z</time></trkpt><trkpt lat="-27.560725402258434" lon="115.01131636529544"><ele>245.0</ele><time>2026-04-15T04:00:19.001Z</time></trkpt><trkpt lat="-27.560494540499366" lon="115.01141742703247"><ele>245.0</ele><time>2026-04-15T04:00:20.001Z</time></trkpt><trkpt lat="-27.56026271858907" lon="115.01151774244047"><ele>246.0</ele><time>2026-04-15T04:00:21.001Z</time></trkpt><trkpt lat="-27.56002816337241" lon="115.01161778168552"><ele>247.0</ele><time>2026-04-15T04:00:22.001Z</time></trkpt><trkpt lat="-27.55979476089647" lon="115.01171716259371"><ele>247.0</ele><time>2026-04-15T04:00:23.001Z</time></trkpt><trkpt lat="-27.559563168770765" lon="115.01181968770244"><ele>247.0</ele><time>2026-04-15T04:00:24.001Z</time></trkpt><trkpt lat="-27.559332266192744" lon="115.0119218266518"><ele>247.0</ele><time>2026-04-15T04:00:25.001Z</time></trkpt><trkpt lat="-27.559102548633522" lon="115.01202615558255"><ele>247.0</ele><time>2026-04-15T04:00:26.001Z</time></trkpt><trkpt lat="-27.558865794604458" lon="115.01213284855977"><ele>247.0</ele><time>2026-04-15T04:00:27.001Z</time></trkpt><trkpt lat="-27.558635125940246" lon="115.01223189563731"><ele>247.0</ele><time>2026-04-15T04:00:28.001Z</time></trkpt><trkpt lat="-27.55839992783822" lon="115.0123315955266"><ele>247.0</ele><time>2026-04-15T04:00:29.001Z</time></trkpt><trkpt lat="-27.55816834254496" lon="115.012428413522"><ele>247.0</ele><time>2026-04-15T04:00:30.001Z</time></trkpt><trkpt lat="-27.557708232494175" lon="115.01262724565136"><ele>246.5</ele><time>2026-04-15T04:00:32.001Z</time></trkpt><trkpt lat="-27.557476475042662" lon="115.01272791774683"><ele>246.0</ele><time>2026-04-15T04:00:33.001Z</time></trkpt><trkpt lat="-27.55723832011682" lon="115.01283443727655"><ele>246.0</ele><time>2026-04-15T04:00:34.001Z</time></trkpt><trkpt lat="-27.557002113585106" lon="115.01293940388425"><ele>246.0</ele><time>2026-04-15T04:00:35.001Z</time></trkpt><trkpt lat="-27.55676571774464" lon="115.01304440806926"><ele>246.0</ele><time>2026-04-15T04:00:36.001Z</time></trkpt><trkpt lat="-27.55652919966562" lon="115.01314818023496"><ele>246.0</ele><time>2026-04-15T04:00:37.001Z</time></trkpt><trkpt lat="-27.55629425240563" lon="115.01325072654593"><ele>247.0</ele><time>2026-04-15T04:00:38.001Z</time></trkpt><trkpt lat="-27.556054877041813" lon="115.01335369194148"><ele>248.0</ele><time>2026-04-15T04:00:39.001Z</time></trkpt><trkpt lat="-27.555818932560154" lon="115.01345563054994"><ele>248.0</ele><time>2026-04-15T04:00:40.001Z</time></trkpt><trkpt lat="-27.555581659268192" lon="115.0135576386276"><ele>248.0</ele><time>2026-04-15T04:00:41.001Z</time></trkpt><trkpt lat="-27.55534699744518" lon="115.01366037805833"><ele>249.0</ele><time>2026-04-15T04:00:42.001Z</time></trkpt><trkpt lat="-27.555110978030104" lon="115.01376329216102"><ele>250.0</ele><time>2026-04-15T04:00:43.001Z</time></trkpt><trkpt lat="-27.55487789911637" lon="115.01386667527099"><ele>250.0</ele><time>2026-04-15T04:00:44.001Z</time></trkpt><trkpt lat="-27.554647867893213" lon="115.01396620504387"><ele>250.0</ele><time>2026-04-15T04:00:45.001Z</time></trkpt><trkpt lat="-27.554419309152248" lon="115.01406495228551"><ele>249.5</ele><time>2026-04-15T04:00:46.001Z</time></trkpt><trkpt lat="-27.55419548774427" lon="115.01416137974562"><ele>249.0</ele><time>2026-04-15T04:00:47.001Z</time></trkpt><trkpt lat="-27.553959291656305" lon="115.01426507950296"><ele>249.0</ele><time>2026-04-15T04:00:48.001Z</time></trkpt><trkpt lat="-27.55373039087066" lon="115.01436108964609"><ele>249.0</ele><time>2026-04-15T04:00:49.001Z</time></trkpt><trkpt lat="-27.553496958921187" lon="115.01446160885361"><ele>248.0</ele><time>2026-04-15T04:00:50Z</time></trkpt><trkpt lat="-27.55326323058367" lon="115.01456100709932"><ele>247.0</ele><time>2026-04-15T04:00:51Z</time></trkpt><trkpt lat="-27.552795027615364" lon="115.01476054694942"><ele>247.0</ele><time>2026-04-15T04:00:53Z</time></trkpt><trkpt lat="-27.552557376728718" lon="115.0148612637767"><ele>247.0</ele><time>2026-04-15T04:00:54Z</time></trkpt><trkpt lat="-27.552323750793818" lon="115.01496163982529"><ele>247.5</ele><time>2026-04-15T04:00:55Z</time></trkpt><trkpt lat="-27.552092422633816" lon="115.0150620742195"><ele>248.0</ele><time>2026-04-15T04:00:56Z</time></trkpt><trkpt lat="-27.551858628368656" lon="115.01516542701467"><ele>248.5</ele><time>2026-04-15T04:00:57Z</time></trkpt><trkpt lat="-27.551621429381154" lon="115.01527149699085"><ele>249.0</ele><time>2026-04-15T04:00:58Z</time></trkpt><trkpt lat="-27.55137862539271" lon="115.01537978934248"><ele>248.5</ele><time>2026-04-15T04:00:59Z</time></trkpt><trkpt lat="-27.55113873090918" lon="115.01548302956114"><ele>248.0</ele><time>2026-04-15T04:01:00Z</time></trkpt><trkpt lat="-27.550897884896614" lon="115.01558848557437"><ele>248.0</ele><time>2026-04-15T04:01:01Z</time></trkpt><trkpt lat="-27.550665032205472" lon="115.01569047399707"><ele>248.0</ele><time>2026-04-15T04:01:02Z</time></trkpt><trkpt lat="-27.55043764391753" lon="115.01579360697387"><ele>248.0</ele><time>2026-04-15T04:01:03Z</time></trkpt><trkpt lat="-27.550219086308562" lon="115.01589422113119"><ele>248.0</ele><time>2026-04-15T04:01:04Z</time></trkpt><trkpt lat="-27.550004111847727" lon="115.01598731464063"><ele>248.0</ele><time>2026-04-15T04:01:05Z</time></trkpt><trkpt lat="-27.54978439701886" lon="115.01607990047731"><ele>248.0</ele><time>2026-04-15T04:01:06Z</time></trkpt><trkpt lat="-27.549555335842786" lon="115.01617544463394"><ele>248.5</ele><time>2026-04-15T04:01:07Z</time></trkpt><trkpt lat="-27.549340445359935" lon="115.01627115948828"><ele>249.0</ele><time>2026-04-15T04:01:08Z</time></trkpt><trkpt lat="-27.549123863564546" lon="115.01636806788137"><ele>249.0</ele><time>2026-04-15T04:01:09Z</time></trkpt><trkpt lat="-27.54890467146912" lon="115.01646589704353"><ele>249.0</ele><time>2026-04-15T04:01:10Z</time></trkpt><trkpt lat="-27.54869065321981" lon="115.01655882629032"><ele>249.0</ele><time>2026-04-15T04:01:11Z</time></trkpt><trkpt lat="-27.548472796275373" lon="115.01665301940085"><ele>249.0</ele><time>2026-04-15T04:01:12Z</time></trkpt><trkpt lat="-27.54801634677021" lon="115.01685250500694"><ele>247.5</ele><time>2026-04-15T04:01:14Z</time></trkpt><trkpt lat="-27.5477877110993" lon="115.01695307391007"><ele>246.0</ele><time>2026-04-15T04:01:15Z</time></trkpt><trkpt lat="-27.547555674541876" lon="115.01705356063884"><ele>246.0</ele><time>2026-04-15T04:01:16Z</time></trkpt><trkpt lat="-27.54731919200997" lon="115.01715328076055"><ele>246.0</ele><time>2026-04-15T04:01:17Z</time></trkpt><trkpt lat="-27.547085410560037" lon="115.01725394285299"><ele>245.5</ele><time>2026-04-15T04:01:18Z</time></trkpt><trkpt lat="-27.546855176680353" lon="115.0173519802925"><ele>245.0</ele><time>2026-04-15T04:01:19Z</time></trkpt><trkpt lat="-27.54661825623648" lon="115.01745507617979"><ele>245.5</ele><time>2026-04-15T04:01:20Z</time></trkpt><trkpt lat="-27.546383432623525" lon="115.01755528835692"><ele>246.0</ele><time>2026-04-15T04:01:21Z</time></trkpt><trkpt lat="-27.546150025289187" lon="115.01765928534952"><ele>246.0</ele><time>2026-04-15T04:01:22Z</time></trkpt><trkpt lat="-27.545908589690953" lon="115.01776630001777"><ele>246.0</ele><time>2026-04-15T04:01:23Z</time></trkpt><trkpt lat="-27.545663668717722" lon="115.01787447102967"><ele>246.0</ele><time>2026-04-15T04:01:24Z</time></trkpt><trkpt lat="-27.545421276125776" lon="115.01798352983546"><ele>246.0</ele><time>2026-04-15T04:01:25Z</time></trkpt><trkpt lat="-27.545179833935933" lon="115.01809185600477"><ele>244.5</ele><time>2026-04-15T04:01:26Z</time></trkpt><trkpt lat="-27.544938726230548" lon="115.01819940785077"><ele>243.0</ele><time>2026-04-15T04:01:27Z</time></trkpt><trkpt lat="-27.544699489671697" lon="115.01830686901816"><ele>243.0</ele><time>2026-04-15T04:01:28Z</time></trkpt><trkpt lat="-27.544464173941627" lon="115.01841159128512"><ele>243.0</ele><time>2026-04-15T04:01:29Z</time></trkpt><trkpt lat="-27.544228306788906" lon="115.01851649319185"><ele>243.0</ele><time>2026-04-15T04:01:30Z</time></trkpt><trkpt lat="-27.543992167198613" lon="115.0186223803206"><ele>243.0</ele><time>2026-04-15T04:01:31Z</time></trkpt><trkpt lat="-27.543764792988362" lon="115.01872557775383"><ele>242.5</ele><time>2026-04-15T04:01:32Z</time></trkpt><trkpt lat="-27.54353073492096" lon="115.01882835831996"><ele>242.0</ele><time>2026-04-15T04:01:33Z</time></trkpt><trkpt lat="-27.543066278440634" lon="115.01902724855728"><ele>240.5</ele><time>2026-04-15T04:01:35Z</time></trkpt><trkpt lat="-27.54283727463211" lon="115.01912521417863"><ele>239.0</ele><time>2026-04-15T04:01:36Z</time></trkpt><trkpt lat="-27.542610885961935" lon="115.01922563985471"><ele>239.0</ele><time>2026-04-15T04:01:37Z</time></trkpt><trkpt lat="-27.542378462211307" lon="115.01932857134409"><ele>239.0</ele><time>2026-04-15T04:01:38Z</time></trkpt><trkpt lat="-27.542147445840754" lon="115.01943092663033"><ele>236.5</ele><time>2026-04-15T04:01:39Z</time></trkpt><trkpt lat="-27.541914300133442" lon="115.01953782364913"><ele>234.0</ele><time>2026-04-15T04:01:40Z</time></trkpt><trkpt lat="-27.541684228296482" lon="115.01964652153542"><ele>234.0</ele><time>2026-04-15T04:01:41Z</time></trkpt><trkpt lat="-27.541456762065717" lon="115.01975276142431"><ele>234.0</ele><time>2026-04-15T04:01:42Z</time></trkpt><trkpt lat="-27.541231923713116" lon="115.01985853277003"><ele>234.0</ele><time>2026-04-15T04:01:43Z</time></trkpt><trkpt lat="-27.541004013892834" lon="115.01996387541806"><ele>234.0</ele><time>2026-04-15T04:01:44Z</time></trkpt><trkpt lat="-27.540780286452954" lon="115.02006678077656"><ele>234.0</ele><time>2026-04-15T04:01:45Z</time></trkpt><trkpt lat="-27.540564460606344" lon="115.02016835869927"><ele>234.0</ele><time>2026-04-15T04:01:46Z</time></trkpt><trkpt lat="-27.540345979865222" lon="115.02027260207096"><ele>233.0</ele><time>2026-04-15T04:01:47Z</time></trkpt><trkpt lat="-27.54013307953177" lon="115.02037087319545"><ele>232.0</ele><time>2026-04-15T04:01:48Z</time></trkpt><trkpt lat="-27.539921458274595" lon="115.0204681551463"><ele>232.0</ele><time>2026-04-15T04:01:49Z</time></trkpt><trkpt lat="-27.53971509876631" lon="115.02056331350553"><ele>232.0</ele><time>2026-04-15T04:01:50Z</time></trkpt><trkpt lat="-27.539509952998692" lon="115.02065778176737"><ele>232.0</ele><time>2026-04-15T04:01:51Z</time></trkpt><trkpt lat="-27.53931125620136" lon="115.02074865582487"><ele>231.66666666666666</ele><time>2026-04-15T04:01:52Z</time></trkpt><trkpt lat="-27.53912258518598" lon="115.02083647726602"><ele>231.33333333333331</ele><time>2026-04-15T04:01:53Z</time></trkpt><trkpt lat="-27.53893595095769" lon="115.02092623990814"><ele>231.0</ele><time>2026-04-15T04:01:54Z</time></trkpt><trkpt lat="-27.53860855388885" lon="115.02108714460465"><ele>229.66666666666669</ele><time>2026-04-15T04:01:56Z</time></trkpt><trkpt lat="-27.538443108812537" lon="115.0211712611805"><ele>228.33333333333334</ele><time>2026-04-15T04:01:57Z</time></trkpt><trkpt lat="-27.538290196075867" lon="115.021242554957"><ele>227.0</ele><time>2026-04-15T04:01:58Z</time></trkpt><trkpt lat="-27.5381443721166" lon="115.02130850866436"><ele>227.0</ele><time>2026-04-15T04:01:59Z</time></trkpt><trkpt lat="-27.53798623887665" lon="115.02137671053458"><ele>227.0</ele><time>2026-04-15T04:02:00Z</time></trkpt><trkpt lat="-27.537809791894784" lon="115.02145278095685"><ele>227.0</ele><time>2026-04-15T04:02:01Z</time></trkpt><trkpt lat="-27.53762846730105" lon="115.0215332366534"><ele>227.0</ele><time>2026-04-15T04:02:02Z</time></trkpt><trkpt lat="-27.537438811102376" lon="115.02162268164129"><ele>227.0</ele><time>2026-04-15T04:02:03Z</time></trkpt><trkpt lat="-27.53724536468068" lon="115.02171409390483"><ele>227.0</ele><time>2026-04-15T04:02:04Z</time></trkpt><trkpt lat="-27.53705023208559" lon="115.02180995102643"><ele>226.0</ele><time>2026-04-15T04:02:05Z</time></trkpt><trkpt lat="-27.536840974154096" lon="115.02191069535033"><ele>225.0</ele><time>2026-04-15T04:02:06Z</time></trkpt><trkpt lat="-27.5366429472805" lon="115.02200474322068"><ele>224.0</ele><time>2026-04-15T04:02:07Z</time></trkpt><trkpt lat="-27.536451431349835" lon="115.02209677632321"><ele>224.0</ele><time>2026-04-15T04:02:08Z</time></trkpt><trkpt lat="-27.536251183587762" lon="115.02218877799854"><ele>224.0</ele><time>2026-04-15T04:02:09Z</time></trkpt><trkpt lat="-27.53604691304139" lon="115.0222808063733"><ele>224.0</ele><time>2026-04-15T04:02:10Z</time></trkpt><trkpt lat="-27.535838567703202" lon="115.02237663190391"><ele>222.33333333333334</ele><time>2026-04-15T04:02:11Z</time></trkpt><trkpt lat="-27.53563272518512" lon="115.02247467787012"><ele>220.66666666666669</ele><time>2026-04-15T04:02:12Z</time></trkpt><trkpt lat="-27.53543282195415" lon="115.02257032909115"><ele>219.0</ele><time>2026-04-15T04:02:13Z</time></trkpt><trkpt lat="-27.53522348159685" lon="115.02267007596093"><ele>218.0</ele><time>2026-04-15T04:02:14Z</time></trkpt><trkpt lat="-27.535013553629213" lon="115.02277210342949"><ele>217.0</ele><time>2026-04-15T04:02:15Z</time></trkpt><trkpt lat="-27.534594435258075" lon="115.0229718628715"><ele>217.5</ele><time>2026-04-15T04:02:17Z</time></trkpt><trkpt lat="-27.534380332792878" lon="115.02307233962262"><ele>218.0</ele><time>2026-04-15T04:02:18Z</time></trkpt><trkpt lat="-27.534166531599915" lon="115.02317256448644"><ele>218.0</ele><time>2026-04-15T04:02:19Z</time></trkpt><trkpt lat="-27.53395150074137" lon="115.02327161384164"><ele>218.0</ele><time>2026-04-15T04:02:20Z</time></trkpt><trkpt lat="-27.533731398146802" lon="115.02337099497326"><ele>216.5</ele><time>2026-04-15T04:02:21Z</time></trkpt><trkpt lat="-27.533513562704556" lon="115.02347078848895"><ele>215.0</ele><time>2026-04-15T04:02:22Z</time></trkpt><trkpt lat="-27.53329596987769" lon="115.02357269824452"><ele>215.0</ele><time>2026-04-15T04:02:23Z</time></trkpt><trkpt lat="-27.533089578456035" lon="115.0236710762748"><ele>215.0</ele><time>2026-04-15T04:02:24Z</time></trkpt><trkpt lat="-27.53289639686922" lon="115.02376293084168"><ele>215.0</ele><time>2026-04-15T04:02:25Z</time></trkpt><trkpt lat="-27.532706359260906" lon="115.02385157178213"><ele>213.66666666666669</ele><time>2026-04-15T04:02:26Z</time></trkpt><trkpt lat="-27.532520171682204" lon="115.02393760703504"><ele>212.33333333333331</ele><time>2026-04-15T04:02:27Z</time></trkpt><trkpt lat="-27.53233639960041" lon="115.02402352525543"><ele>211.0</ele><time>2026-04-15T04:02:28Z</time></trkpt><trkpt lat="-27.53216139953707" lon="115.02410226144781"><ele>210.66666666666666</ele><time>2026-04-15T04:02:29Z</time></trkpt><trkpt lat="-27.532005649873653" lon="115.02417635815513"><ele>210.33333333333331</ele><time>2026-04-15T04:02:30Z</time></trkpt><trkpt lat="-27.531858290940683" lon="115.02426006886661"><ele>210.0</ele><time>2026-04-15T04:02:31.001Z</time></trkpt><trkpt lat="-27.53172276711538" lon="115.02436090712906"><ele>210.0</ele><time>2026-04-15T04:02:32.001Z</time></trkpt><trkpt lat="-27.53160085394125" lon="115.024481937486"><ele>210.0</ele><time>2026-04-15T04:02:33.001Z</time></trkpt><trkpt lat="-27.531494102092893" lon="115.02462801549724"><ele>210.0</ele><time>2026-04-15T04:02:34.001Z</time></trkpt><trkpt lat="-27.53140540001574" lon="115.02477246994356"><ele>210.0</ele><time>2026-04-15T04:02:35.001Z</time></trkpt><trkpt lat="-27.531292562105648" lon="115.02496439257561"><ele>210.0</ele><time>2026-04-15T04:02:36.001Z</time></trkpt><trkpt lat="-27.531100595424466" lon="115.02534062023513"><ele>210.0</ele><time>2026-04-15T04:02:38.001Z</time></trkpt><trkpt lat="-27.53103301870089" lon="115.02552616947193"><ele>210.0</ele><time>2026-04-15T04:02:39.001Z</time></trkpt><trkpt lat="-27.530983585859317" lon="115.02572095015017"><ele>210.0</ele><time>2026-04-15T04:02:40.001Z</time></trkpt><trkpt lat="-27.530949152384277" lon="115.02593095882843"><ele>210.0</ele><time>2026-04-15T04:02:41.001Z</time></trkpt><trkpt lat="-27.53092224207415" lon="115.02615119777424"><ele>210.0</ele><time>2026-04-15T04:02:42.001Z</time></trkpt><trkpt lat="-27.5308939643496" lon="115.02638498170303"><ele>210.0</ele><time>2026-04-15T04:02:43.001Z</time></trkpt><trkpt lat="-27.530864496569027" lon="115.02662550281114"><ele>210.33333333333331</ele><time>2026-04-15T04:02:44.001Z</time></trkpt><trkpt lat="-27.53083081390369" lon="115.02686068541469"><ele>210.66666666666666</ele><time>2026-04-15T04:02:45.001Z</time></trkpt><trkpt lat="-27.530792480481338" lon="115.02710578130565"><ele>211.0</ele><time>2026-04-15T04:02:46.001Z</time></trkpt><trkpt lat="-27.530756245270787" lon="115.02735481184958"><ele>211.0</ele><time>2026-04-15T04:02:47.001Z</time></trkpt><trkpt lat="-27.53072084112634" lon="115.02761199645289"><ele>211.0</ele><time>2026-04-15T04:02:48.001Z</time></trkpt><trkpt lat="-27.530689149466813" lon="115.02786092726795"><ele>211.0</ele><time>2026-04-15T04:02:49.001Z</time></trkpt><trkpt lat="-27.530654064493092" lon="115.02811929158482"><ele>211.0</ele><time>2026-04-15T04:02:50.001Z</time></trkpt><trkpt lat="-27.530620574313225" lon="115.0283796802319"><ele>212.0</ele><time>2026-04-15T04:02:51.001Z</time></trkpt><trkpt lat="-27.53058729387589" lon="115.02864100798209"><ele>213.0</ele><time>2026-04-15T04:02:52.001Z</time></trkpt><trkpt lat="-27.53055142048804" lon="115.02890657038205"><ele>213.5</ele><time>2026-04-15T04:02:53.001Z</time></trkpt><trkpt lat="-27.530515269163157" lon="115.02916734502523"><ele>214.0</ele><time>2026-04-15T04:02:54.001Z</time></trkpt><trkpt lat="-27.53047468666454" lon="115.02942736721282"><ele>214.0</ele><time>2026-04-15T04:02:55Z</time></trkpt><trkpt lat="-27.53043494801044" lon="115.02968833632013"><ele>214.0</ele><time>2026-04-15T04:02:56Z</time></trkpt><trkpt lat="-27.530394927926576" lon="115.0299594941246"><ele>215.0</ele><time>2026-04-15T04:02:57Z</time></trkpt><trkpt lat="-27.53030336523678" lon="115.03050714099192"><ele>215.0</ele><time>2026-04-15T04:02:59Z</time></trkpt><trkpt lat="-27.53024977648436" lon="115.03078166690622"><ele>215.0</ele><time>2026-04-15T04:03:00Z</time></trkpt><trkpt lat="-27.530185198730216" lon="115.03105682745077"><ele>215.0</ele><time>2026-04-15T04:03:01Z</time></trkpt><trkpt lat="-27.530112157834044" lon="115.03133655647602"><ele>215.0</ele><time>2026-04-15T04:03:02Z</time></trkpt><trkpt lat="-27.530034867159603" lon="115.03161635516557"><ele>215.0</ele><time>2026-04-15T04:03:03Z</time></trkpt><trkpt lat="-27.529952709457408" lon="115.03190784808288"><ele>215.0</ele><time>2026-04-15T04:03:04Z</time></trkpt><trkpt lat="-27.529867665725032" lon="115.03220679779183"><ele>215.5</ele><time>2026-04-15T04:03:05Z</time></trkpt><trkpt lat="-27.52978548661762" lon="115.03249411104048"><ele>216.0</ele><time>2026-04-15T04:03:06Z</time></trkpt><trkpt lat="-27.529705943106904" lon="115.03278070951852"><ele>216.0</ele><time>2026-04-15T04:03:07Z</time></trkpt><trkpt lat="-27.529626380266983" lon="115.0330726407274"><ele>216.0</ele><time>2026-04-15T04:03:08Z</time></trkpt><trkpt lat="-27.529552275548916" lon="115.03335675286124"><ele>215.5</ele><time>2026-04-15T04:03:09Z</time></trkpt><trkpt lat="-27.529472206355635" lon="115.03365341264467"><ele>215.0</ele><time>2026-04-15T04:03:10Z</time></trkpt><trkpt lat="-27.529390268720725" lon="115.03394304050352"><ele>215.0</ele><time>2026-04-15T04:03:11Z</time></trkpt><trkpt lat="-27.529309713973397" lon="115.03422951549221"><ele>215.0</ele><time>2026-04-15T04:03:12Z</time></trkpt><trkpt lat="-27.52923209967027" lon="115.034511305486"><ele>215.0</ele><time>2026-04-15T04:03:13Z</time></trkpt><trkpt lat="-27.529157793778484" lon="115.03478908599111"><ele>215.0</ele><time>2026-04-15T04:03:14Z</time></trkpt><trkpt lat="-27.529087557848367" lon="115.03506248208419"><ele>214.5</ele><time>2026-04-15T04:03:15Z</time></trkpt><trkpt lat="-27.52901729008221" lon="115.03533733910751"><ele>214.0</ele><time>2026-04-15T04:03:16Z</time></trkpt><trkpt lat="-27.52894675476325" lon="115.0356144790248"><ele>214.0</ele><time>2026-04-15T04:03:17Z</time></trkpt><trkpt lat="-27.528872885727928" lon="115.03588942744214"><ele>214.0</ele><time>2026-04-15T04:03:18Z</time></trkpt><trkpt lat="-27.52871373793718" lon="115.03645433099722"><ele>214.5</ele><time>2026-04-15T04:03:20Z</time></trkpt><trkpt lat="-27.528632741933798" lon="115.03673789854977"><ele>215.0</ele><time>2026-04-15T04:03:21Z</time></trkpt><trkpt lat="-27.528555108673505" lon="115.03702033405294"><ele>215.0</ele><time>2026-04-15T04:03:22Z</time></trkpt><trkpt lat="-27.52847768270374" lon="115.03730679278188"><ele>215.0</ele><time>2026-04-15T04:03:23Z</time></trkpt><trkpt lat="-27.528402858645286" lon="115.03758772037227"><ele>215.0</ele><time>2026-04-15T04:03:24Z</time></trkpt><trkpt lat="-27.52833026681491" lon="115.03786837697416"><ele>215.0</ele><time>2026-04-15T04:03:25Z</time></trkpt><trkpt lat="-27.528255227733627" lon="115.03814774615579"><ele>215.5</ele><time>2026-04-15T04:03:26Z</time></trkpt><trkpt lat="-27.528179035987222" lon="115.03842645288947"><ele>216.0</ele><time>2026-04-15T04:03:27Z</time></trkpt><trkpt lat="-27.528100745981632" lon="115.03871331879265"><ele>216.0</ele><time>2026-04-15T04:03:28Z</time></trkpt><trkpt lat="-27.528022832214194" lon="115.03899712721544"><ele>216.0</ele><time>2026-04-15T04:03:29Z</time></trkpt><trkpt lat="-27.527943498467856" lon="115.03928024389626"><ele>216.0</ele><time>2026-04-15T04:03:30Z</time></trkpt><trkpt lat="-27.52786556118616" lon="115.03956177799799"><ele>216.0</ele><time>2026-04-15T04:03:31Z</time></trkpt><trkpt lat="-27.527789876017618" lon="115.03984328044962"><ele>216.5</ele><time>2026-04-15T04:03:32Z</time></trkpt><trkpt lat="-27.52771495992996" lon="115.04012374067152"><ele>217.0</ele><time>2026-04-15T04:03:33Z</time></trkpt><trkpt lat="-27.527638176853742" lon="115.04040845146322"><ele>217.0</ele><time>2026-04-15T04:03:34Z</time></trkpt><trkpt lat="-27.527557243030945" lon="115.0406930594531"><ele>217.0</ele><time>2026-04-15T04:03:35Z</time></trkpt><trkpt lat="-27.527475390965172" lon="115.04098002256413"><ele>218.0</ele><time>2026-04-15T04:03:36Z</time></trkpt><trkpt lat="-27.527392927043696" lon="115.04126834256324"><ele>219.0</ele><time>2026-04-15T04:03:37Z</time></trkpt><trkpt lat="-27.527310955433055" lon="115.04155791761666"><ele>219.0</ele><time>2026-04-15T04:03:38Z</time></trkpt><trkpt lat="-27.527228415473076" lon="115.04184645081"><ele>219.0</ele><time>2026-04-15T04:03:39Z</time></trkpt><trkpt lat="-27.527060864397818" lon="115.0424258786484"><ele>218.0</ele><time>2026-04-15T04:03:41Z</time></trkpt><trkpt lat="-27.52697524372435" lon="115.04271752279159"><ele>217.0</ele><time>2026-04-15T04:03:42Z</time></trkpt><trkpt lat="-27.526896893909306" lon="115.04298877058517"><ele>217.0</ele><time>2026-04-15T04:03:43Z</time></trkpt><trkpt lat="-27.52682180801323" lon="115.04325357017893"><ele>217.0</ele><time>2026-04-15T04:03:44Z</time></trkpt><trkpt lat="-27.526751999592044" lon="115.04351252806084"><ele>218.5</ele><time>2026-04-15T04:03:45Z</time></trkpt><trkpt lat="-27.526685301516302" lon="115.04377148861339"><ele>220.0</ele><time>2026-04-15T04:03:46Z</time></trkpt><trkpt lat="-27.52662075237985" lon="115.04402689084974"><ele>220.0</ele><time>2026-04-15T04:03:47Z</time></trkpt><trkpt lat="-27.526550032265458" lon="115.04427873006952"><ele>220.0</ele><time>2026-04-15T04:03:48Z</time></trkpt><trkpt lat="-27.526476884032043" lon="115.0445293689006"><ele>220.0</ele><time>2026-04-15T04:03:49Z</time></trkpt><trkpt lat="-27.526402674454957" lon="115.04477395540604"><ele>220.0</ele><time>2026-04-15T04:03:50Z</time></trkpt><trkpt lat="-27.52634045320668" lon="115.04499517456719"><ele>220.0</ele><time>2026-04-15T04:03:51Z</time></trkpt><trkpt lat="-27.526290780586802" lon="115.04519838359117"><ele>220.0</ele><time>2026-04-15T04:03:52Z</time></trkpt><trkpt lat="-27.526254186161704" lon="115.04539231098157"><ele>220.0</ele><time>2026-04-15T04:03:53Z</time></trkpt><trkpt lat="-27.526233947693957" lon="115.04557728453696"><ele>220.0</ele><time>2026-04-15T04:03:54Z</time></trkpt><trkpt lat="-27.526229093294322" lon="115.04576080294665"><ele>219.0</ele><time>2026-04-15T04:03:55Z</time></trkpt><trkpt lat="-27.526227077494042" lon="115.04595091749077"><ele>218.0</ele><time>2026-04-15T04:03:56Z</time></trkpt><trkpt lat="-27.52621895740312" lon="115.04614880311462"><ele>217.0</ele><time>2026-04-15T04:03:57Z</time></trkpt><trkpt lat="-27.52620711759037" lon="115.04635837679743"><ele>217.0</ele><time>2026-04-15T04:03:58Z</time></trkpt><trkpt lat="-27.52619753943091" lon="115.04658638551427"><ele>217.0</ele><time>2026-04-15T04:03:59Z</time></trkpt><trkpt lat="-27.526194763294022" lon="115.04682889486355"><ele>217.0</ele><time>2026-04-15T04:04:00Z</time></trkpt><trkpt lat="-27.526204754018984" lon="115.04735399197344"><ele>218.5</ele><time>2026-04-15T04:04:02Z</time></trkpt><trkpt lat="-27.526211008468245" lon="115.04760948198317"><ele>220.0</ele><time>2026-04-15T04:04:03Z</time></trkpt><trkpt lat="-27.526217902190794" lon="115.04787171816456"><ele>220.0</ele><time>2026-04-15T04:04:04Z</time></trkpt><trkpt lat="-27.526221497379378" lon="115.0481392311526"><ele>220.0</ele><time>2026-04-15T04:04:05Z</time></trkpt><trkpt lat="-27.526220840943626" lon="115.0484012275907"><ele>219.5</ele><time>2026-04-15T04:04:06Z</time></trkpt><trkpt lat="-27.526224247817378" lon="115.04866164770031"><ele>219.0</ele><time>2026-04-15T04:04:07Z</time></trkpt><trkpt lat="-27.526236269235984" lon="115.0489214871503"><ele>221.5</ele><time>2026-04-15T04:04:08Z</time></trkpt><trkpt lat="-27.526259254885574" lon="115.04919042206905"><ele>224.0</ele><time>2026-04-15T04:04:09Z</time></trkpt><trkpt lat="-27.52629197255144" lon="115.04946199154706"><ele>224.0</ele><time>2026-04-15T04:04:10Z</time></trkpt><trkpt lat="-27.52632652500719" lon="115.04973593032585"><ele>224.0</ele><time>2026-04-15T04:04:11Z</time></trkpt><trkpt lat="-27.526358399054875" lon="115.05001616312968"><ele>224.5</ele><time>2026-04-15T04:04:12Z</time></trkpt><trkpt lat="-27.52638792593079" lon="115.05030211517075"><ele>225.0</ele><time>2026-04-15T04:04:13Z</time></trkpt><trkpt lat="-27.526417249223197" lon="115.05059487906529"><ele>224.5</ele><time>2026-04-15T04:04:14Z</time></trkpt><trkpt lat="-27.526446528405177" lon="115.05087746700977"><ele>224.0</ele><time>2026-04-15T04:04:15Z</time></trkpt><trkpt lat="-27.526477016306252" lon="115.05116839104427"><ele>224.0</ele><time>2026-04-15T04:04:16Z</time></trkpt><trkpt lat="-27.526507678802204" lon="115.0514582727095"><ele>224.0</ele><time>2026-04-15T04:04:17Z</time></trkpt><trkpt lat="-27.52654014503338" lon="115.051746515115"><ele>223.0</ele><time>2026-04-15T04:04:18Z</time></trkpt><trkpt lat="-27.52657289046324" lon="115.05202674982618"><ele>222.0</ele><time>2026-04-15T04:04:19Z</time></trkpt><trkpt lat="-27.526599381718356" lon="115.05230007091728"><ele>221.0</ele><time>2026-04-15T04:04:20Z</time></trkpt><trkpt lat="-27.526611284805895" lon="115.0525634327395"><ele>220.0</ele><time>2026-04-15T04:04:21Z</time></trkpt><trkpt lat="-27.52660927365953" lon="115.0530951919102"><ele>220.0</ele><time>2026-04-15T04:04:23Z</time></trkpt><trkpt lat="-27.526607760252034" lon="115.05334733560937"><ele>220.0</ele><time>2026-04-15T04:04:24Z</time></trkpt><trkpt lat="-27.526602665954904" lon="115.05358965986608"><ele>220.0</ele><time>2026-04-15T04:04:25Z</time></trkpt><trkpt lat="-27.52659466121031" lon="115.05381596736501"><ele>220.0</ele><time>2026-04-15T04:04:26Z</time></trkpt><trkpt lat="-27.526585744700252" lon="115.05403449877537"><ele>220.0</ele><time>2026-04-15T04:04:27Z</time></trkpt><trkpt lat="-27.52659030951858" lon="115.05424954920292"><ele>220.0</ele><time>2026-04-15T04:04:28Z</time></trkpt><trkpt lat="-27.52660607141349" lon="115.05447173385912"><ele>220.0</ele><time>2026-04-15T04:04:29Z</time></trkpt><trkpt lat="-27.52663264034668" lon="115.05469327152204"><ele>220.0</ele><time>2026-04-15T04:04:30Z</time></trkpt><trkpt lat="-27.52667075212709" lon="115.054917615013"><ele>220.0</ele><time>2026-04-15T04:04:31Z</time></trkpt><trkpt lat="-27.52671494343255" lon="115.05514741216123"><ele>220.0</ele><time>2026-04-15T04:04:32Z</time></trkpt><trkpt lat="-27.526764664679785" lon="115.05538969854464"><ele>220.0</ele><time>2026-04-15T04:04:33Z</time></trkpt><trkpt lat="-27.5268107519644" lon="115.05564244511027"><ele>220.0</ele><time>2026-04-15T04:04:34Z</time></trkpt><trkpt lat="-27.526854745439444" lon="115.05589971313002"><ele>220.0</ele><time>2026-04-15T04:04:35Z</time></trkpt><trkpt lat="-27.52689856404913" lon="115.05617678214955"><ele>220.0</ele><time>2026-04-15T04:04:36Z</time></trkpt><trkpt lat="-27.52693832532137" lon="115.05642637987646"><ele>220.66666666666666</ele><time>2026-04-15T04:04:37Z</time></trkpt><trkpt lat="-27.526973219022768" lon="115.05665144973075"><ele>221.33333333333331</ele><time>2026-04-15T04:04:38Z</time></trkpt><trkpt lat="-27.52700771181903" lon="115.05685668943472"><ele>222.0</ele><time>2026-04-15T04:04:39Z</time></trkpt><trkpt lat="-27.527038944519184" lon="115.05704058288933"><ele>222.0</ele><time>2026-04-15T04:04:40Z</time></trkpt><trkpt lat="-27.52705439609192" lon="115.05720862244229"><ele>222.0</ele><time>2026-04-15T04:04:41Z</time></trkpt><trkpt lat="-27.527037421542182" lon="115.05734687455963"><ele>222.0</ele><time>2026-04-15T04:04:42Z</time></trkpt><trkpt lat="-27.526921464391503" lon="115.0575700146731"><ele>222.0</ele><time>2026-04-15T04:04:44Z</time></trkpt><trkpt lat="-27.526828146498485" lon="115.05768188124543"><ele>222.0</ele><time>2026-04-15T04:04:45Z</time></trkpt><trkpt lat="-27.526710401436574" lon="115.05780562855652"><ele>222.0</ele><time>2026-04-15T04:04:46Z</time></trkpt><trkpt lat="-27.52658008906456" lon="115.05795170203919"><ele>222.0</ele><time>2026-04-15T04:04:47Z</time></trkpt><trkpt lat="-27.52645356090806" lon="115.0581086320844"><ele>222.0</ele><time>2026-04-15T04:04:48Z</time></trkpt><trkpt lat="-27.526341997934036" lon="115.05826116983056"><ele>222.0</ele><time>2026-04-15T04:04:49Z</time></trkpt><trkpt lat="-27.52624662933491" lon="115.05839140841736"><ele>220.25</ele><time>2026-04-15T04:04:50Z</time></trkpt><trkpt lat="-27.526167232499084" lon="115.05849705553045"><ele>218.5</ele><time>2026-04-15T04:04:51Z</time></trkpt><trkpt lat="-27.52608360062956" lon="115.05859901665777"><ele>216.75</ele><time>2026-04-15T04:04:52Z</time></trkpt><trkpt lat="-27.525991641180575" lon="115.0587140383584"><ele>215.0</ele><time>2026-04-15T04:04:53Z</time></trkpt><trkpt lat="-27.525887432556374" lon="115.05885958014217"><ele>215.0</ele><time>2026-04-15T04:04:54Z</time></trkpt><trkpt lat="-27.52580421928034" lon="115.0589950474042"><ele>215.0</ele><time>2026-04-15T04:04:55Z</time></trkpt><trkpt lat="-27.52572465518752" lon="115.05914232851312"><ele>215.0</ele><time>2026-04-15T04:04:56Z</time></trkpt><trkpt lat="-27.525665809399158" lon="115.0592804518386"><ele>215.0</ele><time>2026-04-15T04:04:57Z</time></trkpt><trkpt lat="-27.525621223390033" lon="115.05942764751319"><ele>215.33333333333334</ele><time>2026-04-15T04:04:58Z</time></trkpt><trkpt lat="-27.525586254748" lon="115.05959015982043"><ele>215.66666666666669</ele><time>2026-04-15T04:04:59Z</time></trkpt><trkpt lat="-27.52555909008236" lon="115.05977938846586"><ele>216.0</ele><time>2026-04-15T04:05:00Z</time></trkpt><trkpt lat="-27.525543482598426" lon="115.05999097127052"><ele>216.33333333333331</ele><time>2026-04-15T04:05:01Z</time></trkpt><trkpt lat="-27.525533644551842" lon="115.06021227617327"><ele>216.66666666666666</ele><time>2026-04-15T04:05:02Z</time></trkpt><trkpt lat="-27.525523933049637" lon="115.06044670723374"><ele>217.0</ele><time>2026-04-15T04:05:03Z</time></trkpt><trkpt lat="-27.525491248842542" lon="115.0609415149647"><ele>217.0</ele><time>2026-04-15T04:05:05Z</time></trkpt><trkpt lat="-27.525472549321268" lon="115.06119923784027"><ele>217.0</ele><time>2026-04-15T04:05:06Z</time></trkpt><trkpt lat="-27.525450406005536" lon="115.06146981487039"><ele>216.5</ele><time>2026-04-15T04:05:07Z</time></trkpt><trkpt lat="-27.525429234147598" lon="115.06173863775494"><ele>216.0</ele><time>2026-04-15T04:05:08Z</time></trkpt><trkpt lat="-27.525406666172643" lon="115.06202653716595"><ele>213.5</ele><time>2026-04-15T04:05:09Z</time></trkpt><trkpt lat="-27.525382697353773" lon="115.06231391579858"><ele>211.0</ele><time>2026-04-15T04:05:10Z</time></trkpt><trkpt lat="-27.525360891098487" lon="115.06258429097811"><ele>211.0</ele><time>2026-04-15T04:05:11Z</time></trkpt><trkpt lat="-27.525338228161722" lon="115.06284660953514"><ele>211.0</ele><time>2026-04-15T04:05:12Z</time></trkpt><trkpt lat="-27.525315084261244" lon="115.06311216081987"><ele>211.5</ele><time>2026-04-15T04:05:13Z</time></trkpt><trkpt lat="-27.525289466618865" lon="115.06337907676765"><ele>212.0</ele><time>2026-04-15T04:05:14Z</time></trkpt><trkpt lat="-27.525264032611602" lon="115.06365127458625"><ele>212.0</ele><time>2026-04-15T04:05:15Z</time></trkpt><trkpt lat="-27.52523894628952" lon="115.06392500426296"><ele>212.0</ele><time>2026-04-15T04:05:16Z</time></trkpt><trkpt lat="-27.525216438772887" lon="115.06419797431104"><ele>211.5</ele><time>2026-04-15T04:05:17Z</time></trkpt><trkpt lat="-27.5251927413784" lon="115.06446933274884"><ele>211.0</ele><time>2026-04-15T04:05:18Z</time></trkpt><trkpt lat="-27.525169198985722" lon="115.06474335622673"><ele>211.0</ele><time>2026-04-15T04:05:19Z</time></trkpt><trkpt lat="-27.525147264198964" lon="115.06502138430037"><ele>211.0</ele><time>2026-04-15T04:05:20Z</time></trkpt><trkpt lat="-27.525128043308303" lon="115.06530518331259"><ele>211.0</ele><time>2026-04-15T04:05:21Z</time></trkpt><trkpt lat="-27.525105431460087" lon="115.06559859155502"><ele>211.0</ele><time>2026-04-15T04:05:22Z</time></trkpt><trkpt lat="-27.525084110839817" lon="115.0658923314776"><ele>210.5</ele><time>2026-04-15T04:05:23Z</time></trkpt><trkpt lat="-27.5250626143712" lon="115.06619100220956"><ele>210.0</ele><time>2026-04-15T04:05:24Z</time></trkpt><trkpt lat="-27.525022368307994" lon="115.06679173314839"><ele>210.0</ele><time>2026-04-15T04:05:26Z</time></trkpt><trkpt lat="-27.525000897480204" lon="115.06708540673762"><ele>210.0</ele><time>2026-04-15T04:05:27Z</time></trkpt><trkpt lat="-27.524977006907818" lon="115.06737950014157"><ele>209.0</ele><time>2026-04-15T04:05:28Z</time></trkpt><trkpt lat="-27.524953823691234" lon="115.06766432284435"><ele>208.0</ele><time>2026-04-15T04:05:29Z</time></trkpt><trkpt lat="-27.524929777166076" lon="115.06793821043331"><ele>208.0</ele><time>2026-04-15T04:05:30Z</time></trkpt><trkpt lat="-27.524904780455334" lon="115.06819837423966"><ele>208.0</ele><time>2026-04-15T04:05:31Z</time></trkpt><trkpt lat="-27.524873716631998" lon="115.06846082834902"><ele>208.66666666666666</ele><time>2026-04-15T04:05:32Z</time></trkpt><trkpt lat="-27.52483762239778" lon="115.06871506814107"><ele>209.33333333333331</ele><time>2026-04-15T04:05:33Z</time></trkpt><trkpt lat="-27.524799500465146" lon="115.06895018730262"><ele>210.0</ele><time>2026-04-15T04:05:34Z</time></trkpt><trkpt lat="-27.524753720298307" lon="115.0691712673201"><ele>210.0</ele><time>2026-04-15T04:05:35Z</time></trkpt><trkpt lat="-27.52469693783272" lon="115.06937926057267"><ele>210.0</ele><time>2026-04-15T04:05:36Z</time></trkpt><trkpt lat="-27.524616950406962" lon="115.06959008058278"><ele>210.0</ele><time>2026-04-15T04:05:37Z</time></trkpt><trkpt lat="-27.524513062832053" lon="115.06980918769163"><ele>209.33333333333331</ele><time>2026-04-15T04:05:38Z</time></trkpt><trkpt lat="-27.5244005927488" lon="115.07001306698392"><ele>208.66666666666666</ele><time>2026-04-15T04:05:39Z</time></trkpt><trkpt lat="-27.52427789300416" lon="115.07022463498068"><ele>208.0</ele><time>2026-04-15T04:05:40Z</time></trkpt><trkpt lat="-27.524160987576174" lon="115.07042745607052"><ele>208.0</ele><time>2026-04-15T04:05:41Z</time></trkpt><trkpt lat="-27.52405210160229" lon="115.07062411037292"><ele>208.0</ele><time>2026-04-15T04:05:42Z</time></trkpt><trkpt lat="-27.523964265948305" lon="115.07080497599698"><ele>208.0</ele><time>2026-04-15T04:05:43Z</time></trkpt><trkpt lat="-27.523889426554714" lon="115.07096447675936"><ele>208.0</ele><time>2026-04-15T04:05:44Z</time></trkpt><trkpt lat="-27.523829085512837" lon="115.07111739406879"><ele>208.0</ele><time>2026-04-15T04:05:45Z</time></trkpt><trkpt lat="-27.523763436292796" lon="115.07144520818774"><ele>208.0</ele><time>2026-04-15T04:05:47Z</time></trkpt><trkpt lat="-27.523717156098638" lon="115.07164257513077"><ele>208.0</ele><time>2026-04-15T04:05:48Z</time></trkpt><trkpt lat="-27.52366329155565" lon="115.07184951209973"><ele>208.0</ele><time>2026-04-15T04:05:49Z</time></trkpt><trkpt lat="-27.523608669193415" lon="115.07206113014453"><ele>208.0</ele><time>2026-04-15T04:05:50Z</time></trkpt><trkpt lat="-27.523551551481" lon="115.07227213976908"><ele>208.0</ele><time>2026-04-15T04:05:51Z</time></trkpt><trkpt lat="-27.52349544272272" lon="115.07247659807085"><ele>208.0</ele><time>2026-04-15T04:05:52Z</time></trkpt><trkpt lat="-27.523430567305365" lon="115.07269336386095"><ele>208.0</ele><time>2026-04-15T04:05:53Z</time></trkpt><trkpt lat="-27.523364421741125" lon="115.07291352480071"><ele>208.0</ele><time>2026-04-15T04:05:54Z</time></trkpt><trkpt lat="-27.52330716066636" lon="115.07311236956805"><ele>208.0</ele><time>2026-04-15T04:05:55Z</time></trkpt><trkpt lat="-27.523255488466464" lon="115.07329917752998"><ele>208.0</ele><time>2026-04-15T04:05:56Z</time></trkpt><trkpt lat="-27.52320675283047" lon="115.0734744813207"><ele>209.33333333333331</ele><time>2026-04-15T04:05:57Z</time></trkpt><trkpt lat="-27.523154262396112" lon="115.07364754745403"><ele>210.66666666666669</ele><time>2026-04-15T04:05:58Z</time></trkpt><trkpt lat="-27.52309613153244" lon="115.07384168515665"><ele>212.0</ele><time>2026-04-15T04:05:59Z</time></trkpt><trkpt lat="-27.523037893999426" lon="115.07404879469166"><ele>211.0</ele><time>2026-04-15T04:06:00Z</time></trkpt><trkpt lat="-27.52298331013307" lon="115.07424948962785"><ele>210.0</ele><time>2026-04-15T04:06:01Z</time></trkpt><trkpt lat="-27.52293008367206" lon="115.07444841454299"><ele>209.0</ele><time>2026-04-15T04:06:02Z</time></trkpt><trkpt lat="-27.522878252860295" lon="115.07466129145386"><ele>208.66666666666669</ele><time>2026-04-15T04:06:03Z</time></trkpt><trkpt lat="-27.52281575449118" lon="115.07490195728857"><ele>208.33333333333331</ele><time>2026-04-15T04:06:04Z</time></trkpt><trkpt lat="-27.52274860786737" lon="115.07512392181187"><ele>208.0</ele><time>2026-04-15T04:06:05Z</time></trkpt><trkpt lat="-27.522669841797423" lon="115.07534280383025"><ele>209.5</ele><time>2026-04-15T04:06:06Z</time></trkpt><trkpt lat="-27.522513327878396" lon="115.07578645716715"><ele>211.0</ele><time>2026-04-15T04:06:08Z</time></trkpt><trkpt lat="-27.522438431109762" lon="115.07602406062465"><ele>211.0</ele><time>2026-04-15T04:06:09Z</time></trkpt><trkpt lat="-27.522364483057085" lon="115.0762693321343"><ele>211.0</ele><time>2026-04-15T04:06:10Z</time></trkpt><trkpt lat="-27.52229239927619" lon="115.07651754179847"><ele>211.0</ele><time>2026-04-15T04:06:11Z</time></trkpt><trkpt lat="-27.522215311479606" lon="115.07677540511577"><ele>211.0</ele><time>2026-04-15T04:06:12Z</time></trkpt><trkpt lat="-27.522139668834626" lon="115.07703544300821"><ele>211.0</ele><time>2026-04-15T04:06:13Z</time></trkpt><trkpt lat="-27.522072412522192" lon="115.07727437883403"><ele>211.0</ele><time>2026-04-15T04:06:14Z</time></trkpt><trkpt lat="-27.522008438507584" lon="115.07750074278466"><ele>211.0</ele><time>2026-04-15T04:06:15Z</time></trkpt><trkpt lat="-27.52194236775382" lon="115.07771813188587"><ele>210.33333333333331</ele><time>2026-04-15T04:06:16Z</time></trkpt><trkpt lat="-27.521869080728358" lon="115.07793052796605"><ele>209.66666666666669</ele><time>2026-04-15T04:06:17Z</time></trkpt><trkpt lat="-27.521798371897784" lon="115.0781534558891"><ele>209.0</ele><time>2026-04-15T04:06:18Z</time></trkpt><trkpt lat="-27.521727577133422" lon="115.0783932155582"><ele>208.5</ele><time>2026-04-15T04:06:19Z</time></trkpt><trkpt lat="-27.521656258313936" lon="115.0786454294635"><ele>208.0</ele><time>2026-04-15T04:06:20Z</time></trkpt><trkpt lat="-27.521582870511526" lon="115.07889511891176"><ele>208.66666666666666</ele><time>2026-04-15T04:06:21Z</time></trkpt><trkpt lat="-27.521509150559183" lon="115.07913821088985"><ele>209.33333333333331</ele><time>2026-04-15T04:06:22Z</time></trkpt><trkpt lat="-27.521437612169635" lon="115.0793652813322"><ele>210.0</ele><time>2026-04-15T04:06:23Z</time></trkpt><trkpt lat="-27.521368007470297" lon="115.07957802673198"><ele>210.0</ele><time>2026-04-15T04:06:24Z</time></trkpt><trkpt lat="-27.521294967891958" lon="115.07978577815133"><ele>210.0</ele><time>2026-04-15T04:06:25Z</time></trkpt><trkpt lat="-27.52121475277529" lon="115.08000724060076"><ele>210.0</ele><time>2026-04-15T04:06:26Z</time></trkpt><trkpt lat="-27.5211497670925" lon="115.08022962304965"><ele>210.0</ele><time>2026-04-15T04:06:27Z</time></trkpt><trkpt lat="-27.521061770267416" lon="115.08066119738767"><ele>210.0</ele><time>2026-04-15T04:06:29Z</time></trkpt><trkpt lat="-27.521023024175438" lon="115.08085841211185"><ele>209.66666666666669</ele><time>2026-04-15T04:06:30Z</time></trkpt><trkpt lat="-27.520993540347792" lon="115.08104615587942"><ele>209.33333333333334</ele><time>2026-04-15T04:06:31Z</time></trkpt><trkpt lat="-27.520973417579498" lon="115.08125907735672"><ele>209.0</ele><time>2026-04-15T04:06:32Z</time></trkpt><trkpt lat="-27.5209764478534" lon="115.08149670929133"><ele>209.0</ele><time>2026-04-15T04:06:33Z</time></trkpt><trkpt lat="-27.5210051917584" lon="115.08174988049116"><ele>209.0</ele><time>2026-04-15T04:06:34Z</time></trkpt><trkpt lat="-27.521050568838973" lon="115.08201798299238"><ele>209.0</ele><time>2026-04-15T04:06:35Z</time></trkpt><trkpt lat="-27.521105988655915" lon="115.08227737521565"><ele>209.0</ele><time>2026-04-15T04:06:36Z</time></trkpt><trkpt lat="-27.521160940723934" lon="115.08253446882354"><ele>209.5</ele><time>2026-04-15T04:06:37Z</time></trkpt><trkpt lat="-27.521211968567087" lon="115.08278346904136"><ele>210.0</ele><time>2026-04-15T04:06:38Z</time></trkpt><trkpt lat="-27.5212618712701" lon="115.08304241945352"><ele>210.66666666666669</ele><time>2026-04-15T04:06:39Z</time></trkpt><trkpt lat="-27.521313048941966" lon="115.08329438714787"><ele>211.33333333333334</ele><time>2026-04-15T04:06:40Z</time></trkpt><trkpt lat="-27.52135918117232" lon="115.08353105244797"><ele>212.0</ele><time>2026-04-15T04:06:41Z</time></trkpt><trkpt lat="-27.521405611432254" lon="115.08376808722183"><ele>212.0</ele><time>2026-04-15T04:06:42Z</time></trkpt><trkpt lat="-27.52145385922449" lon="115.08402584871354"><ele>212.0</ele><time>2026-04-15T04:06:43Z</time></trkpt><trkpt lat="-27.521501774304518" lon="115.08429276036247"><ele>211.0</ele><time>2026-04-15T04:06:44Z</time></trkpt><trkpt lat="-27.521552038870446" lon="115.08457667767763"><ele>210.0</ele><time>2026-04-15T04:06:45Z</time></trkpt><trkpt lat="-27.521594658374696" lon="115.0848251651429"><ele>210.66666666666669</ele><time>2026-04-15T04:06:46Z</time></trkpt><trkpt lat="-27.521634131970092" lon="115.08505474673264"><ele>211.33333333333334</ele><time>2026-04-15T04:06:47Z</time></trkpt><trkpt lat="-27.52166875317775" lon="115.08527168802509"><ele>212.0</ele><time>2026-04-15T04:06:48Z</time></trkpt><trkpt lat="-27.521716910287502" lon="115.0855940448857"><ele>212.0</ele><time>2026-04-15T04:06:50Z</time></trkpt><trkpt lat="-27.52172881987538" lon="115.0857184896733"><ele>212.0</ele><time>2026-04-15T04:06:51Z</time></trkpt><trkpt lat="-27.52173815775868" lon="115.08584314077432"><ele>212.0</ele><time>2026-04-15T04:06:52Z</time></trkpt><trkpt lat="-27.52175924750962" lon="115.08595360748306"><ele>212.0</ele><time>2026-04-15T04:06:53Z</time></trkpt><trkpt lat="-27.521793933749198" lon="115.08607467527045"><ele>212.0</ele><time>2026-04-15T04:06:54Z</time></trkpt><trkpt lat="-27.521828305886302" lon="115.08619737010115"><ele>212.0</ele><time>2026-04-15T04:06:55Z</time></trkpt><trkpt lat="-27.52186401691369" lon="115.0863452879401"><ele>212.0</ele><time>2026-04-15T04:06:56Z</time></trkpt><trkpt lat="-27.52189477378778" lon="115.0864840136623"><ele>212.0</ele><time>2026-04-15T04:06:57Z</time></trkpt><trkpt lat="-27.521950726351903" lon="115.08664840491537"><ele>212.0</ele><time>2026-04-15T04:06:58Z</time></trkpt><trkpt lat="-27.52200156486494" lon="115.08682940065378"><ele>211.33333333333334</ele><time>2026-04-15T04:06:59Z</time></trkpt><trkpt lat="-27.52205912786832" lon="115.08702833702615"><ele>210.66666666666669</ele><time>2026-04-15T04:07:00Z</time></trkpt><trkpt lat="-27.522126539391902" lon="115.087246971058"><ele>210.0</ele><time>2026-04-15T04:07:01Z</time></trkpt><trkpt lat="-27.52220550300214" lon="115.08748118533424"><ele>210.0</ele><time>2026-04-15T04:07:02Z</time></trkpt><trkpt lat="-27.52228681892475" lon="115.0877103642436"><ele>210.0</ele><time>2026-04-15T04:07:03Z</time></trkpt><trkpt lat="-27.522369100959573" lon="115.08792616530413"><ele>210.0</ele><time>2026-04-15T04:07:04Z</time></trkpt><trkpt lat="-27.522450004997854" lon="115.08813362279447"><ele>210.33333333333331</ele><time>2026-04-15T04:07:05Z</time></trkpt><trkpt lat="-27.52253027941225" lon="115.08833461810396"><ele>210.66666666666666</ele><time>2026-04-15T04:07:06Z</time></trkpt><trkpt lat="-27.52261129596082" lon="115.08853712236801"><ele>211.0</ele><time>2026-04-15T04:07:07Z</time></trkpt><trkpt lat="-27.52269322603796" lon="115.08874992451997"><ele>211.0</ele><time>2026-04-15T04:07:08Z</time></trkpt><trkpt lat="-27.522776468331376" lon="115.08896690086881"><ele>211.0</ele><time>2026-04-15T04:07:09Z</time></trkpt><trkpt lat="-27.522929992741272" lon="115.08936773734176"><ele>210.66666666666666</ele><time>2026-04-15T04:07:11Z</time></trkpt><trkpt lat="-27.523002422419946" lon="115.08957422302862"><ele>210.33333333333331</ele><time>2026-04-15T04:07:12Z</time></trkpt><trkpt lat="-27.52306708049593" lon="115.08978876772989"><ele>210.0</ele><time>2026-04-15T04:07:13Z</time></trkpt><trkpt lat="-27.52312307326859" lon="115.0900214923547"><ele>210.0</ele><time>2026-04-15T04:07:14Z</time></trkpt><trkpt lat="-27.52316858479191" lon="115.09026547540779"><ele>210.0</ele><time>2026-04-15T04:07:15Z</time></trkpt><trkpt lat="-27.52320532646309" lon="115.09051042902301"><ele>210.0</ele><time>2026-04-15T04:07:16Z</time></trkpt><trkpt lat="-27.523225685374037" lon="115.0907368748467"><ele>210.66666666666669</ele><time>2026-04-15T04:07:17Z</time></trkpt><trkpt lat="-27.52323269001577" lon="115.09095480155729"><ele>211.33333333333334</ele><time>2026-04-15T04:07:18Z</time></trkpt><trkpt lat="-27.523232756987927" lon="115.09118035475241"><ele>212.0</ele><time>2026-04-15T04:07:19Z</time></trkpt><trkpt lat="-27.5232315404044" lon="115.09141411144064"><ele>211.66666666666669</ele><time>2026-04-15T04:07:20Z</time></trkpt><trkpt lat="-27.523235237902217" lon="115.09163960007328"><ele>211.33333333333331</ele><time>2026-04-15T04:07:21Z</time></trkpt><trkpt lat="-27.523245116490497" lon="115.09185408066988"><ele>211.0</ele><time>2026-04-15T04:07:22Z</time></trkpt><trkpt lat="-27.523248400616765" lon="115.09206204253175"><ele>211.0</ele><time>2026-04-15T04:07:23Z</time></trkpt><trkpt lat="-27.523241662819967" lon="115.09225595971404"><ele>211.0</ele><time>2026-04-15T04:07:24Z</time></trkpt><trkpt lat="-27.52322367180045" lon="115.09243582860088"><ele>211.0</ele><time>2026-04-15T04:07:25Z</time></trkpt><trkpt lat="-27.523194469205787" lon="115.09260115326337"><ele>211.33333333333331</ele><time>2026-04-15T04:07:26Z</time></trkpt><trkpt lat="-27.523148551634424" lon="115.09276564106098"><ele>211.66666666666669</ele><time>2026-04-15T04:07:27Z</time></trkpt><trkpt lat="-27.523083887646525" lon="115.0929301578144"><ele>212.0</ele><time>2026-04-15T04:07:28Z</time></trkpt><trkpt lat="-27.522998807080146" lon="115.09309126435758"><ele>211.5</ele><time>2026-04-15T04:07:29Z</time></trkpt><trkpt lat="-27.522893468822048" lon="115.09324073924009"><ele>211.0</ele><time>2026-04-15T04:07:30Z</time></trkpt><trkpt lat="-27.522623566590394" lon="115.09354103032399"><ele>211.0</ele><time>2026-04-15T04:07:32Z</time></trkpt><trkpt lat="-27.522494345072168" lon="115.09368992519707"><ele>211.0</ele><time>2026-04-15T04:07:33Z</time></trkpt><trkpt lat="-27.52237456236054" lon="115.0938500617191"><ele>211.0</ele><time>2026-04-15T04:07:34Z</time></trkpt><trkpt lat="-27.52226420201825" lon="115.09402373819484"><ele>211.0</ele><time>2026-04-15T04:07:35Z</time></trkpt><trkpt lat="-27.522171109807694" lon="115.09419203106661"><ele>211.0</ele><time>2026-04-15T04:07:36Z</time></trkpt><trkpt lat="-27.522098564857163" lon="115.09435023609791"><ele>211.0</ele><time>2026-04-15T04:07:37Z</time></trkpt><trkpt lat="-27.522041242443827" lon="115.09451340178448"><ele>211.0</ele><time>2026-04-15T04:07:38Z</time></trkpt><trkpt lat="-27.521997403526314" lon="115.09468663799889"><ele>211.0</ele><time>2026-04-15T04:07:39Z</time></trkpt><trkpt lat="-27.52197059609978" lon="115.09488537609852"><ele>211.0</ele><time>2026-04-15T04:07:40Z</time></trkpt><trkpt lat="-27.521964002505545" lon="115.0951112371453"><ele>210.5</ele><time>2026-04-15T04:07:41Z</time></trkpt><trkpt lat="-27.5219775037349" lon="115.0953612397588"><ele>210.0</ele><time>2026-04-15T04:07:42Z</time></trkpt><trkpt lat="-27.521993880264933" lon="115.09561711384126"><ele>211.5</ele><time>2026-04-15T04:07:43Z</time></trkpt><trkpt lat="-27.522005780462706" lon="115.09587949641956"><ele>213.0</ele><time>2026-04-15T04:07:44Z</time></trkpt><trkpt lat="-27.522013121955506" lon="115.09613081068937"><ele>213.0</ele><time>2026-04-15T04:07:45Z</time></trkpt><trkpt lat="-27.5220215554534" lon="115.0963854111621"><ele>213.0</ele><time>2026-04-15T04:07:46Z</time></trkpt><trkpt lat="-27.522029076163314" lon="115.09664274447694"><ele>212.5</ele><time>2026-04-15T04:07:47Z</time></trkpt><trkpt lat="-27.522039956417917" lon="115.09691318824454"><ele>212.0</ele><time>2026-04-15T04:07:48Z</time></trkpt><trkpt lat="-27.52204994165356" lon="115.09719299652642"><ele>210.5</ele><time>2026-04-15T04:07:49Z</time></trkpt><trkpt lat="-27.522058285414424" lon="115.09747618958255"><ele>209.0</ele><time>2026-04-15T04:07:50Z</time></trkpt><trkpt lat="-27.522062024024752" lon="115.09773760953618"><ele>209.0</ele><time>2026-04-15T04:07:51Z</time></trkpt><trkpt lat="-27.52206723340693" lon="115.09825953479218"><ele>209.0</ele><time>2026-04-15T04:07:53Z</time></trkpt><trkpt lat="-27.5220698886276" lon="115.0985195812088"><ele>209.0</ele><time>2026-04-15T04:07:54Z</time></trkpt><trkpt lat="-27.522078112813784" lon="115.098792053275"><ele>210.0</ele><time>2026-04-15T04:07:55Z</time></trkpt><trkpt lat="-27.5220879063103" lon="115.09908663513966"><ele>211.0</ele><time>2026-04-15T04:07:56Z</time></trkpt><trkpt lat="-27.52210982587194" lon="115.09935750250771"><ele>211.0</ele><time>2026-04-15T04:07:57Z</time></trkpt><trkpt lat="-27.522138262015186" lon="115.09963145872176"><ele>211.0</ele><time>2026-04-15T04:07:58Z</time></trkpt><trkpt lat="-27.52217056563979" lon="115.09990121424497"><ele>210.5</ele><time>2026-04-15T04:07:59Z</time></trkpt><trkpt lat="-27.52220148190994" lon="115.10017063430224"><ele>210.0</ele><time>2026-04-15T04:08:00Z</time></trkpt><trkpt lat="-27.522222045518774" lon="115.10044217818488"><ele>210.0</ele><time>2026-04-15T04:08:01Z</time></trkpt><trkpt lat="-27.522234715732587" lon="115.10071559572877"><ele>210.0</ele><time>2026-04-15T04:08:02Z</time></trkpt><trkpt lat="-27.52224368540265" lon="115.10098681793009"><ele>210.5</ele><time>2026-04-15T04:08:03Z</time></trkpt><trkpt lat="-27.522253819313487" lon="115.10127254230652"><ele>211.0</ele><time>2026-04-15T04:08:04Z</time></trkpt><trkpt lat="-27.522261533391962" lon="115.10155631328593"><ele>211.5</ele><time>2026-04-15T04:08:05Z</time></trkpt><trkpt lat="-27.522270643358613" lon="115.10184390060266"><ele>212.0</ele><time>2026-04-15T04:08:06Z</time></trkpt><trkpt lat="-27.522287244816983" lon="115.10213108629065"><ele>212.0</ele><time>2026-04-15T04:08:07Z</time></trkpt><trkpt lat="-27.522312810820672" lon="115.10242265678777"><ele>212.0</ele><time>2026-04-15T04:08:08Z</time></trkpt><trkpt lat="-27.522345144517764" lon="115.10271033862088"><ele>212.0</ele><time>2026-04-15T04:08:09Z</time></trkpt><trkpt lat="-27.522380156538635" lon="115.10299625972833"><ele>212.0</ele><time>2026-04-15T04:08:10Z</time></trkpt><trkpt lat="-27.522418169738458" lon="115.10328614027995"><ele>212.0</ele><time>2026-04-15T04:08:11Z</time></trkpt><trkpt lat="-27.52245562286522" lon="115.10357691570728"><ele>212.0</ele><time>2026-04-15T04:08:12Z</time></trkpt><trkpt lat="-27.522524823050894" lon="115.10414210816289"><ele>211.66666666666669</ele><time>2026-04-15T04:08:14Z</time></trkpt><trkpt lat="-27.52255899106303" lon="115.10439314512931"><ele>211.33333333333331</ele><time>2026-04-15T04:08:15Z</time></trkpt><trkpt lat="-27.52259679181626" lon="115.10462582128788"><ele>211.0</ele><time>2026-04-15T04:08:16Z</time></trkpt><trkpt lat="-27.52263486387131" lon="115.10485128561929"><ele>210.66666666666666</ele><time>2026-04-15T04:08:17Z</time></trkpt><trkpt lat="-27.522668849437746" lon="115.10507143549232"><ele>210.33333333333331</ele><time>2026-04-15T04:08:18Z</time></trkpt><trkpt lat="-27.52269257145676" lon="115.1052836204345"><ele>210.0</ele><time>2026-04-15T04:08:19Z</time></trkpt><trkpt lat="-27.522713453034015" lon="115.10547084727622"><ele>210.0</ele><time>2026-04-15T04:08:20Z</time></trkpt><trkpt lat="-27.522732056097443" lon="115.10565127301334"><ele>210.0</ele><time>2026-04-15T04:08:21Z</time></trkpt><trkpt lat="-27.522750778054206" lon="115.10583839783973"><ele>210.0</ele><time>2026-04-15T04:08:22Z</time></trkpt><trkpt lat="-27.522772224764292" lon="115.1060411209228"><ele>209.66666666666669</ele><time>2026-04-15T04:08:23Z</time></trkpt><trkpt lat="-27.522800890345945" lon="115.10625607763761"><ele>209.33333333333334</ele><time>2026-04-15T04:08:24Z</time></trkpt><trkpt lat="-27.522833947256125" lon="115.10646467468601"><ele>209.0</ele><time>2026-04-15T04:08:25Z</time></trkpt><trkpt lat="-27.522867232379426" lon="115.10667467638011"><ele>210.0</ele><time>2026-04-15T04:08:26Z</time></trkpt><trkpt lat="-27.522903057473236" lon="115.10687146201332"><ele>211.0</ele><time>2026-04-15T04:08:27Z</time></trkpt><trkpt lat="-27.52293943659924" lon="115.10705210650849"><ele>212.0</ele><time>2026-04-15T04:08:28Z</time></trkpt><trkpt lat="-27.52297612270724" lon="115.10722020757113"><ele>212.0</ele><time>2026-04-15T04:08:29Z</time></trkpt><trkpt lat="-27.523005328923947" lon="115.10736410612226"><ele>212.0</ele><time>2026-04-15T04:08:30Z</time></trkpt><trkpt lat="-27.523026152184553" lon="115.10747636844636"><ele>212.0</ele><time>2026-04-15T04:08:31Z</time></trkpt><trkpt lat="-27.52303813138429" lon="115.10756444085753"><ele>212.0</ele><time>2026-04-15T04:08:32Z</time></trkpt><trkpt lat="-27.52303727228545" lon="115.1076781678179"><ele>212.0</ele><time>2026-04-15T04:08:34Z</time></trkpt><trkpt lat="-27.523027094761634" lon="115.10788130655426"><ele>212.0</ele><time>2026-04-15T04:08:38Z</time></trkpt><trkpt lat="-27.523041566948447" lon="115.1079570919718"><ele>212.0</ele><time>2026-04-15T04:08:40Z</time></trkpt><trkpt lat="-27.523093551795448" lon="115.10799855541738"><ele>212.0</ele><time>2026-04-15T04:08:43Z</time></trkpt><trkpt lat="-27.523101199806813" lon="115.10792766473588"><ele>212.0</ele><time>2026-04-15T04:09:06Z</time></trkpt><trkpt lat="-27.523310359603272" lon="115.1079578790084"><ele>212.0</ele><time>2026-04-15T04:10:08Z</time></trkpt><trkpt lat="-27.523377354756906" lon="115.10810082012247"><ele>212.00000000000003</ele><time>2026-04-15T04:10:10Z</time></trkpt><trkpt lat="-27.52341093760511" lon="115.108197286882"><ele>212.0</ele><time>2026-04-15T04:10:11Z</time></trkpt><trkpt lat="-27.523437498123823" lon="115.10829922490284"><ele>212.0</ele><time>2026-04-15T04:10:12Z</time></trkpt><trkpt lat="-27.52344956509616" lon="115.1083859878889"><ele>212.0</ele><time>2026-04-15T04:10:13Z</time></trkpt><trkpt lat="-27.52345465323944" lon="115.10847208852866"><ele>212.00000000000003</ele><time>2026-04-15T04:10:14Z</time></trkpt><trkpt lat="-27.523456648883013" lon="115.10854967335824"><ele>212.0</ele><time>2026-04-15T04:10:15Z</time></trkpt><trkpt lat="-27.523455943917014" lon="115.10862556210752"><ele>212.2</ele><time>2026-04-15T04:10:16Z</time></trkpt><trkpt lat="-27.523451892389577" lon="115.10871403425925"><ele>212.39999999999998</ele><time>2026-04-15T04:10:17Z</time></trkpt><trkpt lat="-27.523450459797175" lon="115.10882443742994"><ele>212.60000000000002</ele><time>2026-04-15T04:10:18Z</time></trkpt><trkpt lat="-27.523449740705225" lon="115.10895805365634"><ele>212.8</ele><time>2026-04-15T04:10:19Z</time></trkpt><trkpt lat="-27.523444275359697" lon="115.10910032885415"><ele>213.0</ele><time>2026-04-15T04:10:20Z</time></trkpt><trkpt lat="-27.523432078096736" lon="115.10924996453801"><ele>213.33333333333331</ele><time>2026-04-15T04:10:21Z</time></trkpt><trkpt lat="-27.52341751799725" lon="115.109411502163"><ele>213.66666666666666</ele><time>2026-04-15T04:10:22Z</time></trkpt><trkpt lat="-27.523405411676812" lon="115.10957659788195"><ele>214.0</ele><time>2026-04-15T04:10:23Z</time></trkpt><trkpt lat="-27.523395717261984" lon="115.10976051661727"><ele>212.5</ele><time>2026-04-15T04:10:24Z</time></trkpt><trkpt lat="-27.523388960653623" lon="115.10994440322986"><ele>211.0</ele><time>2026-04-15T04:10:25Z</time></trkpt><trkpt lat="-27.523371529907372" lon="115.1102838489512"><ele>211.0</ele><time>2026-04-15T04:10:27Z</time></trkpt><trkpt lat="-27.523354080623054" lon="115.11044957671322"><ele>211.0</ele><time>2026-04-15T04:10:28Z</time></trkpt><trkpt lat="-27.52333728463308" lon="115.11062187233206"><ele>211.0</ele><time>2026-04-15T04:10:29Z</time></trkpt><trkpt lat="-27.523323131242314" lon="115.11080324001075"><ele>210.66666666666666</ele><time>2026-04-15T04:10:30Z</time></trkpt><trkpt lat="-27.523315079950123" lon="115.11099218079214"><ele>210.33333333333331</ele><time>2026-04-15T04:10:31Z</time></trkpt><trkpt lat="-27.52330807559144" lon="115.11118522023892"><ele>210.0</ele><time>2026-04-15T04:10:32Z</time></trkpt><trkpt lat="-27.523301601617064" lon="115.1113800601034"><ele>210.33333333333331</ele><time>2026-04-15T04:10:33Z</time></trkpt><trkpt lat="-27.523296465912765" lon="115.11157993013833"><ele>210.66666666666666</ele><time>2026-04-15T04:10:34Z</time></trkpt><trkpt lat="-27.523294479727443" lon="115.11178917965897"><ele>211.0</ele><time>2026-04-15T04:10:35Z</time></trkpt><trkpt lat="-27.523293895369203" lon="115.1120124425131"><ele>211.0</ele><time>2026-04-15T04:10:36Z</time></trkpt><trkpt lat="-27.523291137370986" lon="115.11223665330868"><ele>211.0</ele><time>2026-04-15T04:10:37Z</time></trkpt><trkpt lat="-27.523280444338504" lon="115.11245516840279"><ele>211.0</ele><time>2026-04-15T04:10:38Z</time></trkpt><trkpt lat="-27.523267636863405" lon="115.11267222516818"><ele>211.33333333333331</ele><time>2026-04-15T04:10:39Z</time></trkpt><trkpt lat="-27.523258270089155" lon="115.11289113636488"><ele>211.66666666666669</ele><time>2026-04-15T04:10:40Z</time></trkpt><trkpt lat="-27.523250093017804" lon="115.11310794422032"><ele>212.0</ele><time>2026-04-15T04:10:41Z</time></trkpt><trkpt lat="-27.52324669533135" lon="115.11332585397327"><ele>212.0</ele><time>2026-04-15T04:10:42Z</time></trkpt><trkpt lat="-27.523244388905198" lon="115.11354823482793"><ele>212.0</ele><time>2026-04-15T04:10:43Z</time></trkpt><trkpt lat="-27.523240427901683" lon="115.11377110556387"><ele>212.0</ele><time>2026-04-15T04:10:44Z</time></trkpt><trkpt lat="-27.52323551642776" lon="115.11396972242842"><ele>209.5</ele><time>2026-04-15T04:10:45Z</time></trkpt><trkpt lat="-27.523231039227785" lon="115.11416528047145"><ele>207.0</ele><time>2026-04-15T04:10:46Z</time></trkpt><trkpt lat="-27.523230768780433" lon="115.11454314958354"><ele>207.0</ele><time>2026-04-15T04:10:48Z</time></trkpt><trkpt lat="-27.52323920974791" lon="115.11471690264321"><ele>207.0</ele><time>2026-04-15T04:10:49Z</time></trkpt><trkpt lat="-27.523257990708643" lon="115.11490199407369"><ele>207.0</ele><time>2026-04-15T04:10:50Z</time></trkpt><trkpt lat="-27.52328514511097" lon="115.11508747690972"><ele>208.33333333333331</ele><time>2026-04-15T04:10:51Z</time></trkpt><trkpt lat="-27.523323041938397" lon="115.1152800741539"><ele>209.66666666666666</ele><time>2026-04-15T04:10:52Z</time></trkpt><trkpt lat="-27.52337107932303" lon="115.11547709833327"><ele>211.0</ele><time>2026-04-15T04:10:53Z</time></trkpt><trkpt lat="-27.523431793075893" lon="115.11568058452528"><ele>210.66666666666666</ele><time>2026-04-15T04:10:54Z</time></trkpt><trkpt lat="-27.523501002245343" lon="115.11589517800691"><ele>210.33333333333331</ele><time>2026-04-15T04:10:55Z</time></trkpt><trkpt lat="-27.52358345014242" lon="115.11611895037598"><ele>210.0</ele><time>2026-04-15T04:10:56Z</time></trkpt><trkpt lat="-27.523668603402363" lon="115.11632793552545"><ele>210.33333333333331</ele><time>2026-04-15T04:10:57Z</time></trkpt><trkpt lat="-27.523758128575864" lon="115.11651908965632"><ele>210.66666666666666</ele><time>2026-04-15T04:10:58Z</time></trkpt><trkpt lat="-27.523858936229296" lon="115.11672316976535"><ele>211.0</ele><time>2026-04-15T04:10:59Z</time></trkpt><trkpt lat="-27.523972402185553" lon="115.11693765999799"><ele>211.0</ele><time>2026-04-15T04:11:00Z</time></trkpt><trkpt lat="-27.52410178816326" lon="115.11715949337265"><ele>211.0</ele><time>2026-04-15T04:11:01Z</time></trkpt><trkpt lat="-27.524235850337064" lon="115.11738201888129"><ele>211.5</ele><time>2026-04-15T04:11:02Z</time></trkpt><trkpt lat="-27.524375960112984" lon="115.11761199796743"><ele>212.0</ele><time>2026-04-15T04:11:03Z</time></trkpt><trkpt lat="-27.524520105840747" lon="115.1178479757198"><ele>211.5</ele><time>2026-04-15T04:11:04Z</time></trkpt><trkpt lat="-27.524654238480434" lon="115.11807382515033"><ele>211.0</ele><time>2026-04-15T04:11:05Z</time></trkpt><trkpt lat="-27.5247943654115" lon="115.11829270205911"><ele>211.0</ele><time>2026-04-15T04:11:06Z</time></trkpt><trkpt lat="-27.524927208101577" lon="115.11851114225716"><ele>211.0</ele><time>2026-04-15T04:11:07Z</time></trkpt><trkpt lat="-27.5251965679803" lon="115.11894233692647"><ele>210.33333333333331</ele><time>2026-04-15T04:11:09Z</time></trkpt><trkpt lat="-27.525329052445578" lon="115.11915282318093"><ele>209.66666666666669</ele><time>2026-04-15T04:11:10Z</time></trkpt><trkpt lat="-27.525451835697545" lon="115.11934806332106"><ele>209.0</ele><time>2026-04-15T04:11:11Z</time></trkpt><trkpt lat="-27.52558104274215" lon="115.11955719043985"><ele>209.0</ele><time>2026-04-15T04:11:12Z</time></trkpt><trkpt lat="-27.525712463277667" lon="115.11977235341449"><ele>209.0</ele><time>2026-04-15T04:11:13Z</time></trkpt><trkpt lat="-27.52584669458545" lon="115.11999231365722"><ele>209.5</ele><time>2026-04-15T04:11:14Z</time></trkpt><trkpt lat="-27.525988563353202" lon="115.12021879382789"><ele>210.0</ele><time>2026-04-15T04:11:15Z</time></trkpt><trkpt lat="-27.52612107751212" lon="115.12043636679681"><ele>211.5</ele><time>2026-04-15T04:11:16Z</time></trkpt><trkpt lat="-27.52624641795641" lon="115.12064753244063"><ele>213.0</ele><time>2026-04-15T04:11:17Z</time></trkpt><trkpt lat="-27.5263776741701" lon="115.12086154040742"><ele>213.0</ele><time>2026-04-15T04:11:18Z</time></trkpt><trkpt lat="-27.526513406017717" lon="115.12108394510587"><ele>213.0</ele><time>2026-04-15T04:11:18.999Z</time></trkpt><trkpt lat="-27.526655162314295" lon="115.12131190780751"><ele>213.0</ele><time>2026-04-15T04:11:19.999Z</time></trkpt><trkpt lat="-27.526794892486567" lon="115.12153704560642"><ele>213.0</ele><time>2026-04-15T04:11:20.999Z</time></trkpt><trkpt lat="-27.526940949987782" lon="115.12176731622317"><ele>214.5</ele><time>2026-04-15T04:11:21.999Z</time></trkpt><trkpt lat="-27.527081936480453" lon="115.1219943147878"><ele>216.0</ele><time>2026-04-15T04:11:22.999Z</time></trkpt><trkpt lat="-27.52721907289695" lon="115.12222055068922"><ele>214.5</ele><time>2026-04-15T04:11:23.999Z</time></trkpt><trkpt lat="-27.5273581766127" lon="115.12245483057569"><ele>213.0</ele><time>2026-04-15T04:11:24.999Z</time></trkpt><trkpt lat="-27.527496526773792" lon="115.1226847653075"><ele>213.0</ele><time>2026-04-15T04:11:25.999Z</time></trkpt><trkpt lat="-27.52763624081584" lon="115.12291573390144"><ele>213.0</ele><time>2026-04-15T04:11:26.999Z</time></trkpt><trkpt lat="-27.527778621763332" lon="115.12314314480244"><ele>212.0</ele><time>2026-04-15T04:11:27.999Z</time></trkpt><trkpt lat="-27.528064409562383" lon="115.12360886568496"><ele>212.0</ele><time>2026-04-15T04:11:29.999Z</time></trkpt><trkpt lat="-27.528204924143303" lon="115.12384241124605"><ele>212.0</ele><time>2026-04-15T04:11:30.999Z</time></trkpt><trkpt lat="-27.52834699711929" lon="115.12407664990408"><ele>212.5</ele><time>2026-04-15T04:11:31.999Z</time></trkpt><trkpt lat="-27.52849069908062" lon="115.12431026582084"><ele>213.0</ele><time>2026-04-15T04:11:32.999Z</time></trkpt><trkpt lat="-27.528637990292093" lon="115.12454162040343"><ele>213.0</ele><time>2026-04-15T04:11:33.999Z</time></trkpt><trkpt lat="-27.528786492680148" lon="115.12477947571506"><ele>213.0</ele><time>2026-04-15T04:11:34.999Z</time></trkpt><trkpt lat="-27.52893192639534" lon="115.12501318150119"><ele>213.0</ele><time>2026-04-15T04:11:35.999Z</time></trkpt><trkpt lat="-27.529079489465527" lon="115.1252535602757"><ele>213.0</ele><time>2026-04-15T04:11:36.999Z</time></trkpt><trkpt lat="-27.52922728039805" lon="115.12548772880419"><ele>213.0</ele><time>2026-04-15T04:11:37.999Z</time></trkpt><trkpt lat="-27.529376181636536" lon="115.12572721409684"><ele>213.0</ele><time>2026-04-15T04:11:38.999Z</time></trkpt><trkpt lat="-27.52951696946955" lon="115.12595801661517"><ele>213.0</ele><time>2026-04-15T04:11:39.999Z</time></trkpt><trkpt lat="-27.52966415464384" lon="115.12620937668324"><ele>213.0</ele><time>2026-04-15T04:11:40.999Z</time></trkpt><trkpt lat="-27.52980783937135" lon="115.12645131939566"><ele>213.0</ele><time>2026-04-15T04:11:41.999Z</time></trkpt><trkpt lat="-27.52994599806834" lon="115.12667888290555"><ele>213.0</ele><time>2026-04-15T04:11:42.999Z</time></trkpt><trkpt lat="-27.53009062812713" lon="115.12690629607661"><ele>213.0</ele><time>2026-04-15T04:11:43.999Z</time></trkpt><trkpt lat="-27.530236759053807" lon="115.12712823814758"><ele>213.0</ele><time>2026-04-15T04:11:44.999Z</time></trkpt><trkpt lat="-27.53038257953078" lon="115.1273594808556"><ele>213.5</ele><time>2026-04-15T04:11:45.999Z</time></trkpt><trkpt lat="-27.530523070047334" lon="115.12759531719081"><ele>214.0</ele><time>2026-04-15T04:11:46.999Z</time></trkpt><trkpt lat="-27.53066309349598" lon="115.12783043246206"><ele>214.0</ele><time>2026-04-15T04:11:47.999Z</time></trkpt><trkpt lat="-27.53080734594729" lon="115.12805790979756"><ele>214.0</ele><time>2026-04-15T04:11:48.999Z</time></trkpt><trkpt lat="-27.531087077003214" lon="115.12849442275143"><ele>213.5</ele><time>2026-04-15T04:11:50.999Z</time></trkpt><trkpt lat="-27.531217354965325" lon="115.12872571562583"><ele>213.0</ele><time>2026-04-15T04:11:51.999Z</time></trkpt><trkpt lat="-27.53134725329038" lon="115.12895755468271"><ele>212.0</ele><time>2026-04-15T04:11:52.999Z</time></trkpt><trkpt lat="-27.531488804485786" lon="115.12918723042549"><ele>211.0</ele><time>2026-04-15T04:11:53.999Z</time></trkpt><trkpt lat="-27.531632076500813" lon="115.12941869824122"><ele>211.0</ele><time>2026-04-15T04:11:54.999Z</time></trkpt><trkpt lat="-27.531777673495053" lon="115.12965588990645"><ele>211.0</ele><time>2026-04-15T04:11:55.999Z</time></trkpt><trkpt lat="-27.531923242565096" lon="115.12988811756351"><ele>211.0</ele><time>2026-04-15T04:11:56.999Z</time></trkpt><trkpt lat="-27.532071948182796" lon="115.13012191432864"><ele>211.0</ele><time>2026-04-15T04:11:57.999Z</time></trkpt><trkpt lat="-27.532218699241195" lon="115.13035653958013"><ele>211.0</ele><time>2026-04-15T04:11:58.999Z</time></trkpt><trkpt lat="-27.532363728120032" lon="115.13059427322457"><ele>211.0</ele><time>2026-04-15T04:11:59.999Z</time></trkpt><trkpt lat="-27.532506121316775" lon="115.13083291202861"><ele>211.0</ele><time>2026-04-15T04:12:00.999Z</time></trkpt><trkpt lat="-27.532649166672194" lon="115.13107289577626"><ele>211.0</ele><time>2026-04-15T04:12:01.999Z</time></trkpt><trkpt lat="-27.532794614372406" lon="115.13131478069852"><ele>211.5</ele><time>2026-04-15T04:12:02.999Z</time></trkpt><trkpt lat="-27.532942180345426" lon="115.13155837019015"><ele>212.0</ele><time>2026-04-15T04:12:03.999Z</time></trkpt><trkpt lat="-27.533096261973807" lon="115.13180682637699"><ele>212.0</ele><time>2026-04-15T04:12:04.999Z</time></trkpt><trkpt lat="-27.533250178921524" lon="115.13205217392047"><ele>212.0</ele><time>2026-04-15T04:12:05.999Z</time></trkpt><trkpt lat="-27.533404945454784" lon="115.13230258467222"><ele>212.0</ele><time>2026-04-15T04:12:06.999Z</time></trkpt><trkpt lat="-27.53355104734576" lon="115.13255062220054"><ele>212.0</ele><time>2026-04-15T04:12:07.999Z</time></trkpt><trkpt lat="-27.53370064845762" lon="115.13280168369639"><ele>212.5</ele><time>2026-04-15T04:12:08.999Z</time></trkpt><trkpt lat="-27.533849472678806" lon="115.13305086533887"><ele>213.0</ele><time>2026-04-15T04:12:09.999Z</time></trkpt><trkpt lat="-27.534153781707964" lon="115.13354946279526"><ele>213.0</ele><time>2026-04-15T04:12:11.999Z</time></trkpt><trkpt lat="-27.534306967258498" lon="115.13379790576822"><ele>213.0</ele><time>2026-04-15T04:12:12.999Z</time></trkpt><trkpt lat="-27.534456204215424" lon="115.1340383761926"><ele>214.0</ele><time>2026-04-15T04:12:14Z</time></trkpt><trkpt lat="-27.534606217237336" lon="115.13427663504993"><ele>215.0</ele><time>2026-04-15T04:12:15Z</time></trkpt><trkpt lat="-27.534745967164408" lon="115.13450458886673"><ele>215.0</ele><time>2026-04-15T04:12:16Z</time></trkpt><trkpt lat="-27.534876739557408" lon="115.13471762587766"><ele>215.0</ele><time>2026-04-15T04:12:17Z</time></trkpt><trkpt lat="-27.5350071351097" lon="115.13493033000213"><ele>215.0</ele><time>2026-04-15T04:12:18Z</time></trkpt><trkpt lat="-27.535140587021647" lon="115.13514387160055"><ele>215.0</ele><time>2026-04-15T04:12:19Z</time></trkpt><trkpt lat="-27.53527279453906" lon="115.13535636655072"><ele>215.0</ele><time>2026-04-15T04:12:20Z</time></trkpt><trkpt lat="-27.535404983894335" lon="115.13556572663012"><ele>215.0</ele><time>2026-04-15T04:12:21Z</time></trkpt><trkpt lat="-27.535534686756236" lon="115.13577252533162"><ele>215.5</ele><time>2026-04-15T04:12:22Z</time></trkpt><trkpt lat="-27.535668153133074" lon="115.1359855749742"><ele>216.0</ele><time>2026-04-15T04:12:23Z</time></trkpt><trkpt lat="-27.535797584503943" lon="115.13619637129445"><ele>216.0</ele><time>2026-04-15T04:12:24Z</time></trkpt><trkpt lat="-27.535929989824087" lon="115.1364124150326"><ele>216.0</ele><time>2026-04-15T04:12:25Z</time></trkpt><trkpt lat="-27.53606241852122" lon="115.13662626390213"><ele>216.0</ele><time>2026-04-15T04:12:26Z</time></trkpt><trkpt lat="-27.53619853414585" lon="115.13685544474545"><ele>216.0</ele><time>2026-04-15T04:12:27Z</time></trkpt><trkpt lat="-27.53634061299915" lon="115.13709054989349"><ele>216.0</ele><time>2026-04-15T04:12:28Z</time></trkpt><trkpt lat="-27.536475903576335" lon="115.1373120168922"><ele>216.0</ele><time>2026-04-15T04:12:29Z</time></trkpt><trkpt lat="-27.536617984748325" lon="115.13754634336925"><ele>216.5</ele><time>2026-04-15T04:12:30Z</time></trkpt><trkpt lat="-27.53676224499045" lon="115.13778277801822"><ele>217.0</ele><time>2026-04-15T04:12:31Z</time></trkpt><trkpt lat="-27.537041715920584" lon="115.13823562375772"><ele>217.0</ele><time>2026-04-15T04:12:33Z</time></trkpt><trkpt lat="-27.537171525858078" lon="115.13845215441854"><ele>217.0</ele><time>2026-04-15T04:12:34Z</time></trkpt><trkpt lat="-27.537307377588913" lon="115.13867275809338"><ele>217.0</ele><time>2026-04-15T04:12:35Z</time></trkpt><trkpt lat="-27.537448260084528" lon="115.13889965463987"><ele>217.0</ele><time>2026-04-15T04:12:36Z</time></trkpt><trkpt lat="-27.537594385741208" lon="115.13913971545216"><ele>217.0</ele><time>2026-04-15T04:12:37Z</time></trkpt><trkpt lat="-27.53773879906841" lon="115.13938109028717"><ele>217.0</ele><time>2026-04-15T04:12:38Z</time></trkpt><trkpt lat="-27.537879917625798" lon="115.13961497458804"><ele>217.0</ele><time>2026-04-15T04:12:39Z</time></trkpt><trkpt lat="-27.538019689502704" lon="115.13983875619395"><ele>217.0</ele><time>2026-04-15T04:12:40Z</time></trkpt><trkpt lat="-27.538157550447654" lon="115.14005677716413"><ele>217.0</ele><time>2026-04-15T04:12:41Z</time></trkpt><trkpt lat="-27.53829261463654" lon="115.14027219480035"><ele>217.0</ele><time>2026-04-15T04:12:42Z</time></trkpt><trkpt lat="-27.538427640429926" lon="115.14049139734071"><ele>217.0</ele><time>2026-04-15T04:12:43Z</time></trkpt><trkpt lat="-27.5385654820511" lon="115.14071364967225"><ele>217.0</ele><time>2026-04-15T04:12:44Z</time></trkpt><trkpt lat="-27.538704055063654" lon="115.14094478021981"><ele>215.5</ele><time>2026-04-15T04:12:45Z</time></trkpt><trkpt lat="-27.53884040972399" lon="115.14116437971069"><ele>214.0</ele><time>2026-04-15T04:12:46Z</time></trkpt><trkpt lat="-27.53897881952235" lon="115.14138715286637"><ele>214.5</ele><time>2026-04-15T04:12:47Z</time></trkpt><trkpt lat="-27.539116701731558" lon="115.14160680344094"><ele>215.0</ele><time>2026-04-15T04:12:48Z</time></trkpt><trkpt lat="-27.539247506194386" lon="115.14181709819695"><ele>215.0</ele><time>2026-04-15T04:12:49Z</time></trkpt><trkpt lat="-27.539368463359498" lon="115.14201443146493"><ele>215.0</ele><time>2026-04-15T04:12:50Z</time></trkpt><trkpt lat="-27.53948799808131" lon="115.14221049792057"><ele>215.0</ele><time>2026-04-15T04:12:51Z</time></trkpt><trkpt lat="-27.539606980793582" lon="115.14240084747364"><ele>216.0</ele><time>2026-04-15T04:12:52Z</time></trkpt><trkpt lat="-27.539845837288745" lon="115.14276976116571"><ele>217.0</ele><time>2026-04-15T04:12:54Z</time></trkpt><trkpt lat="-27.53995978079123" lon="115.14295491306831"><ele>217.0</ele><time>2026-04-15T04:12:55Z</time></trkpt><trkpt lat="-27.54006052845204" lon="115.14311813283976"><ele>217.0</ele><time>2026-04-15T04:12:56Z</time></trkpt><trkpt lat="-27.540149691871175" lon="115.14326020065967"><ele>217.0</ele><time>2026-04-15T04:12:57Z</time></trkpt><trkpt lat="-27.540224955911455" lon="115.14339558640276"><ele>216.5</ele><time>2026-04-15T04:12:58Z</time></trkpt><trkpt lat="-27.540284510194773" lon="115.14353325726613"><ele>216.0</ele><time>2026-04-15T04:12:59Z</time></trkpt><trkpt lat="-27.540322414306782" lon="115.143680540906"><ele>215.5</ele><time>2026-04-15T04:13:00Z</time></trkpt><trkpt lat="-27.54033420473557" lon="115.14384194521577"><ele>215.0</ele><time>2026-04-15T04:13:01Z</time></trkpt><trkpt lat="-27.540329733477865" lon="115.14401863338512"><ele>214.66666666666669</ele><time>2026-04-15T04:13:02Z</time></trkpt><trkpt lat="-27.540304725391902" lon="115.14421478731283"><ele>214.33333333333331</ele><time>2026-04-15T04:13:03Z</time></trkpt><trkpt lat="-27.540264299034366" lon="115.14443333022894"><ele>214.0</ele><time>2026-04-15T04:13:04Z</time></trkpt><trkpt lat="-27.540213492877626" lon="115.14466651270645"><ele>215.0</ele><time>2026-04-15T04:13:05Z</time></trkpt><trkpt lat="-27.54015732017578" lon="115.14491620896587"><ele>216.0</ele><time>2026-04-15T04:13:06Z</time></trkpt><trkpt lat="-27.540094674620796" lon="115.14517188296969"><ele>216.0</ele><time>2026-04-15T04:13:07Z</time></trkpt><trkpt lat="-27.540026587534605" lon="115.14543111598881"><ele>216.0</ele><time>2026-04-15T04:13:08Z</time></trkpt><trkpt lat="-27.539952458305446" lon="115.14568393899897"><ele>217.0</ele><time>2026-04-15T04:13:09Z</time></trkpt><trkpt lat="-27.539870047292442" lon="115.1459432191886"><ele>218.0</ele><time>2026-04-15T04:13:10Z</time></trkpt><trkpt lat="-27.53977900265727" lon="115.14620073923531"><ele>218.0</ele><time>2026-04-15T04:13:11Z</time></trkpt><trkpt lat="-27.539686580005462" lon="115.1464522701354"><ele>218.0</ele><time>2026-04-15T04:13:12Z</time></trkpt><trkpt lat="-27.539596548526376" lon="115.14669337961035"><ele>221.0</ele><time>2026-04-15T04:13:13Z</time></trkpt><trkpt lat="-27.53941726672687" lon="115.14719516204063"><ele>223.0</ele><time>2026-04-15T04:13:15Z</time></trkpt><trkpt lat="-27.539340176735227" lon="115.14743908515199"><ele>225.0</ele><time>2026-04-15T04:13:16Z</time></trkpt><trkpt lat="-27.539268871385694" lon="115.14767975653899"><ele>225.0</ele><time>2026-04-15T04:13:17Z</time></trkpt><trkpt lat="-27.53920635553277" lon="115.1479292509235"><ele>225.0</ele><time>2026-04-15T04:13:18Z</time></trkpt><trkpt lat="-27.539157640237296" lon="115.1481827580333"><ele>225.0</ele><time>2026-04-15T04:13:19Z</time></trkpt><trkpt lat="-27.539116912208552" lon="115.14844317173134"><ele>225.0</ele><time>2026-04-15T04:13:20Z</time></trkpt><trkpt lat="-27.539082848153498" lon="115.14870168536616"><ele>225.0</ele><time>2026-04-15T04:13:21Z</time></trkpt><trkpt lat="-27.539060217672574" lon="115.14895439382916"><ele>225.0</ele><time>2026-04-15T04:13:22Z</time></trkpt><trkpt lat="-27.53905604556958" lon="115.14920474043913"><ele>225.0</ele><time>2026-04-15T04:13:23Z</time></trkpt><trkpt lat="-27.539072875016156" lon="115.14943214112522"><ele>226.0</ele><time>2026-04-15T04:13:24Z</time></trkpt><trkpt lat="-27.539114144669128" lon="115.14965093151498"><ele>227.0</ele><time>2026-04-15T04:13:24.999Z</time></trkpt><trkpt lat="-27.539182625227994" lon="115.14987386714675"><ele>228.0</ele><time>2026-04-15T04:13:25.999Z</time></trkpt><trkpt lat="-27.53926797005149" lon="115.15010596945471"><ele>230.5</ele><time>2026-04-15T04:13:26.999Z</time></trkpt><trkpt lat="-27.53935375051342" lon="115.15033894628232"><ele>233.0</ele><time>2026-04-15T04:13:27.999Z</time></trkpt><trkpt lat="-27.539437734448498" lon="115.1505797336149"><ele>234.0</ele><time>2026-04-15T04:13:28.999Z</time></trkpt><trkpt lat="-27.53952092932088" lon="115.15082889623375"><ele>235.0</ele><time>2026-04-15T04:13:29.999Z</time></trkpt><trkpt lat="-27.539599226227185" lon="115.15108485935254"><ele>235.0</ele><time>2026-04-15T04:13:30.999Z</time></trkpt><trkpt lat="-27.539671455553002" lon="115.15134735095461"><ele>235.0</ele><time>2026-04-15T04:13:31.999Z</time></trkpt><trkpt lat="-27.53974393256295" lon="115.1516174474431"><ele>234.5</ele><time>2026-04-15T04:13:32.999Z</time></trkpt><trkpt lat="-27.53981996738165" lon="115.15188623428782"><ele>234.0</ele><time>2026-04-15T04:13:33.999Z</time></trkpt><trkpt lat="-27.539960824490343" lon="115.15240081744666"><ele>236.0</ele><time>2026-04-15T04:13:35.999Z</time></trkpt><trkpt lat="-27.54003014607521" lon="115.15266372562712"><ele>238.0</ele><time>2026-04-15T04:13:36.999Z</time></trkpt><trkpt lat="-27.54010198019027" lon="115.1529256021177"><ele>238.0</ele><time>2026-04-15T04:13:37.999Z</time></trkpt><trkpt lat="-27.54017474019671" lon="115.15318621550382"><ele>238.0</ele><time>2026-04-15T04:13:38.999Z</time></trkpt><trkpt lat="-27.540248790906546" lon="115.15345258042504"><ele>238.0</ele><time>2026-04-15T04:13:39.999Z</time></trkpt><trkpt lat="-27.54032328779112" lon="115.15372015205523"><ele>238.0</ele><time>2026-04-15T04:13:40.999Z</time></trkpt><trkpt lat="-27.540399009098277" lon="115.15399049407502"><ele>238.0</ele><time>2026-04-15T04:13:41.999Z</time></trkpt><trkpt lat="-27.540473737734015" lon="115.1542586771043"><ele>238.0</ele><time>2026-04-15T04:13:42.999Z</time></trkpt><trkpt lat="-27.540543931089893" lon="115.1545254347593"><ele>238.0</ele><time>2026-04-15T04:13:43.999Z</time></trkpt><trkpt lat="-27.54061739471327" lon="115.15479901406918"><ele>238.0</ele><time>2026-04-15T04:13:44.999Z</time></trkpt><trkpt lat="-27.540697314824683" lon="115.1550709826289"><ele>239.0</ele><time>2026-04-15T04:13:45.999Z</time></trkpt><trkpt lat="-27.540785206064957" lon="115.15533631377029"><ele>240.0</ele><time>2026-04-15T04:13:46.999Z</time></trkpt><trkpt lat="-27.54088174937272" lon="115.15560299708163"><ele>240.0</ele><time>2026-04-15T04:13:47.999Z</time></trkpt><trkpt lat="-27.540978966009337" lon="115.15586543353523"><ele>240.0</ele><time>2026-04-15T04:13:49Z</time></trkpt><trkpt lat="-27.541071458132926" lon="115.15613174195006"><ele>240.0</ele><time>2026-04-15T04:13:50Z</time></trkpt><trkpt lat="-27.541161289400808" lon="115.15640112492295"><ele>240.0</ele><time>2026-04-15T04:13:51Z</time></trkpt><trkpt lat="-27.54125015581542" lon="115.15667279820887"><ele>241.5</ele><time>2026-04-15T04:13:52Z</time></trkpt><trkpt lat="-27.541334963424795" lon="115.15695088889258"><ele>243.0</ele><time>2026-04-15T04:13:53Z</time></trkpt><trkpt lat="-27.54141604206182" lon="115.15722908573123"><ele>243.0</ele><time>2026-04-15T04:13:54Z</time></trkpt><trkpt lat="-27.541496463339737" lon="115.15750737389176"><ele>243.0</ele><time>2026-04-15T04:13:55Z</time></trkpt><trkpt lat="-27.54165482694985" lon="115.15804502041873"><ele>242.66666666666669</ele><time>2026-04-15T04:13:57Z</time></trkpt><trkpt lat="-27.54172442203504" lon="115.15828949465248"><ele>242.33333333333334</ele><time>2026-04-15T04:13:58Z</time></trkpt><trkpt lat="-27.541781438510785" lon="115.15853041559095"><ele>242.0</ele><time>2026-04-15T04:13:59Z</time></trkpt><trkpt lat="-27.541822920377257" lon="115.15878288061514"><ele>241.5</ele><time>2026-04-15T04:14:00Z</time></trkpt><trkpt lat="-27.541848386866523" lon="115.15904725093628"><ele>241.0</ele><time>2026-04-15T04:14:01Z</time></trkpt><trkpt lat="-27.541866302961417" lon="115.15932518377659"><ele>241.0</ele><time>2026-04-15T04:14:02Z</time></trkpt><trkpt lat="-27.541883383120247" lon="115.15961294004109"><ele>241.0</ele><time>2026-04-15T04:14:03Z</time></trkpt><trkpt lat="-27.541902093766677" lon="115.15990812269906"><ele>241.0</ele><time>2026-04-15T04:14:04Z</time></trkpt><trkpt lat="-27.54192159956978" lon="115.16021068143296"><ele>241.0</ele><time>2026-04-15T04:14:05Z</time></trkpt><trkpt lat="-27.541939842993358" lon="115.1605202589124"><ele>241.5</ele><time>2026-04-15T04:14:06Z</time></trkpt><trkpt lat="-27.541955749644426" lon="115.16083442349452"><ele>242.0</ele><time>2026-04-15T04:14:07Z</time></trkpt><trkpt lat="-27.541970102167024" lon="115.16114845639883"><ele>242.0</ele><time>2026-04-15T04:14:08Z</time></trkpt><trkpt lat="-27.541984904348862" lon="115.1614537482162"><ele>242.0</ele><time>2026-04-15T04:14:09Z</time></trkpt><trkpt lat="-27.5420009918219" lon="115.16174604906712"><ele>241.0</ele><time>2026-04-15T04:14:10Z</time></trkpt><trkpt lat="-27.54201750377378" lon="115.16203172597884"><ele>240.0</ele><time>2026-04-15T04:14:11Z</time></trkpt><trkpt lat="-27.54203513586689" lon="115.16232182963985"><ele>240.5</ele><time>2026-04-15T04:14:12Z</time></trkpt><trkpt lat="-27.54205456979566" lon="115.16260467409765"><ele>241.0</ele><time>2026-04-15T04:14:13Z</time></trkpt><trkpt lat="-27.54207512642362" lon="115.16288113219292"><ele>241.0</ele><time>2026-04-15T04:14:14Z</time></trkpt><trkpt lat="-27.542097405045247" lon="115.16315572909215"><ele>241.0</ele><time>2026-04-15T04:14:15Z</time></trkpt><trkpt lat="-27.542120259495157" lon="115.16343714346038"><ele>240.0</ele><time>2026-04-15T04:14:16Z</time></trkpt><trkpt lat="-27.542157136624805" lon="115.16401932467629"><ele>239.5</ele><time>2026-04-15T04:14:18Z</time></trkpt><trkpt lat="-27.542174498878925" lon="115.1643143540577"><ele>239.0</ele><time>2026-04-15T04:14:19Z</time></trkpt><trkpt lat="-27.542190267444948" lon="115.1646094213969"><ele>237.5</ele><time>2026-04-15T04:14:20Z</time></trkpt><trkpt lat="-27.542207849585683" lon="115.1649120756383"><ele>236.0</ele><time>2026-04-15T04:14:21Z</time></trkpt><trkpt lat="-27.542227398304163" lon="115.16520632407031"><ele>236.0</ele><time>2026-04-15T04:14:22Z</time></trkpt><trkpt lat="-27.54224664764228" lon="115.16550551215147"><ele>236.0</ele><time>2026-04-15T04:14:23Z</time></trkpt><trkpt lat="-27.542264023869897" lon="115.16579948265046"><ele>235.0</ele><time>2026-04-15T04:14:24Z</time></trkpt><trkpt lat="-27.542282062179694" lon="115.1661021047523"><ele>234.0</ele><time>2026-04-15T04:14:25Z</time></trkpt><trkpt lat="-27.54230097486387" lon="115.16640927088206"><ele>234.0</ele><time>2026-04-15T04:14:26Z</time></trkpt><trkpt lat="-27.54232260521445" lon="115.16671359500867"><ele>234.0</ele><time>2026-04-15T04:14:27Z</time></trkpt><trkpt lat="-27.542344739139526" lon="115.16701689064526"><ele>234.0</ele><time>2026-04-15T04:14:28Z</time></trkpt><trkpt lat="-27.542365663694593" lon="115.16731574386954"><ele>234.0</ele><time>2026-04-15T04:14:29Z</time></trkpt><trkpt lat="-27.542385298243193" lon="115.16761579714789"><ele>234.0</ele><time>2026-04-15T04:14:30Z</time></trkpt><trkpt lat="-27.542401771906135" lon="115.16791033134984"><ele>234.0</ele><time>2026-04-15T04:14:31Z</time></trkpt><trkpt lat="-27.54241599521974" lon="115.16819687336147"><ele>234.0</ele><time>2026-04-15T04:14:32Z</time></trkpt><trkpt lat="-27.542431476780976" lon="115.1684733327177"><ele>234.0</ele><time>2026-04-15T04:14:33Z</time></trkpt><trkpt lat="-27.54244932682471" lon="115.16874747089547"><ele>234.0</ele><time>2026-04-15T04:14:34Z</time></trkpt><trkpt lat="-27.542470079381268" lon="115.16902527657348"><ele>234.0</ele><time>2026-04-15T04:14:35Z</time></trkpt><trkpt lat="-27.542490193870208" lon="115.16930622633676"><ele>234.5</ele><time>2026-04-15T04:14:36Z</time></trkpt><trkpt lat="-27.542507479286336" lon="115.16959461176654"><ele>235.0</ele><time>2026-04-15T04:14:37Z</time></trkpt><trkpt lat="-27.542544169625796" lon="115.17017961109367"><ele>234.0</ele><time>2026-04-15T04:14:39Z</time></trkpt><trkpt lat="-27.542564462394694" lon="115.17047921843609"><ele>233.0</ele><time>2026-04-15T04:14:40Z</time></trkpt><trkpt lat="-27.542582127962767" lon="115.17077789990437"><ele>233.0</ele><time>2026-04-15T04:14:41Z</time></trkpt><trkpt lat="-27.542601224475167" lon="115.17107850695297"><ele>233.0</ele><time>2026-04-15T04:14:42Z</time></trkpt><trkpt lat="-27.542618653206457" lon="115.171380215796"><ele>235.0</ele><time>2026-04-15T04:14:43Z</time></trkpt><trkpt lat="-27.542637245031404" lon="115.1716825919288"><ele>237.0</ele><time>2026-04-15T04:14:44Z</time></trkpt><trkpt lat="-27.542657220482628" lon="115.17197820494891"><ele>237.0</ele><time>2026-04-15T04:14:45Z</time></trkpt><trkpt lat="-27.54268062956226" lon="115.17227681330657"><ele>237.0</ele><time>2026-04-15T04:14:46Z</time></trkpt><trkpt lat="-27.54270321487416" lon="115.17257428688045"><ele>236.0</ele><time>2026-04-15T04:14:47Z</time></trkpt><trkpt lat="-27.54272177443243" lon="115.17286809923051"><ele>235.0</ele><time>2026-04-15T04:14:48Z</time></trkpt><trkpt lat="-27.54273803879593" lon="115.17315770940496"><ele>234.5</ele><time>2026-04-15T04:14:49Z</time></trkpt><trkpt lat="-27.54275552558867" lon="115.17345202208921"><ele>234.0</ele><time>2026-04-15T04:14:50Z</time></trkpt><trkpt lat="-27.542773579646507" lon="115.17374470471694"><ele>235.5</ele><time>2026-04-15T04:14:51Z</time></trkpt><trkpt lat="-27.54279140984653" lon="115.17404364980136"><ele>237.0</ele><time>2026-04-15T04:14:52Z</time></trkpt><trkpt lat="-27.54281069734681" lon="115.17434138075838"><ele>237.0</ele><time>2026-04-15T04:14:53Z</time></trkpt><trkpt lat="-27.542831269110884" lon="115.17463857603907"><ele>237.0</ele><time>2026-04-15T04:14:54Z</time></trkpt><trkpt lat="-27.542851766770124" lon="115.17493924368418"><ele>237.0</ele><time>2026-04-15T04:14:55Z</time></trkpt><trkpt lat="-27.542870268123707" lon="115.17523854042753"><ele>237.0</ele><time>2026-04-15T04:14:56Z</time></trkpt><trkpt lat="-27.542891218175225" lon="115.17553635423816"><ele>237.5</ele><time>2026-04-15T04:14:57Z</time></trkpt><trkpt lat="-27.542915228348853" lon="115.17582897245418"><ele>238.0</ele><time>2026-04-15T04:14:58Z</time></trkpt><trkpt lat="-27.54297145784944" lon="115.17642298130835"><ele>237.5</ele><time>2026-04-15T04:15:00Z</time></trkpt><trkpt lat="-27.543002789987113" lon="115.17671822867578"><ele>237.0</ele><time>2026-04-15T04:15:01Z</time></trkpt><trkpt lat="-27.543033342751325" lon="115.1770047199541"><ele>237.0</ele><time>2026-04-15T04:15:02Z</time></trkpt><trkpt lat="-27.543063655677493" lon="115.17728861630503"><ele>237.0</ele><time>2026-04-15T04:15:03Z</time></trkpt><trkpt lat="-27.54309277016565" lon="115.17758114548171"><ele>237.0</ele><time>2026-04-15T04:15:04Z</time></trkpt><trkpt lat="-27.54312275763416" lon="115.1778764113724"><ele>237.0</ele><time>2026-04-15T04:15:05Z</time></trkpt><trkpt lat="-27.543156174003027" lon="115.17817049730881"><ele>236.5</ele><time>2026-04-15T04:15:06Z</time></trkpt><trkpt lat="-27.543187838451566" lon="115.17846108632462"><ele>236.0</ele><time>2026-04-15T04:15:07Z</time></trkpt><trkpt lat="-27.54321787119283" lon="115.17874456138796"><ele>236.0</ele><time>2026-04-15T04:15:08Z</time></trkpt><trkpt lat="-27.543244555944298" lon="115.1790098650877"><ele>236.0</ele><time>2026-04-15T04:15:09Z</time></trkpt><trkpt lat="-27.543267483828743" lon="115.17925397035638"><ele>236.0</ele><time>2026-04-15T04:15:10Z</time></trkpt><trkpt lat="-27.543286446173465" lon="115.17948477198597"><ele>236.0</ele><time>2026-04-15T04:15:11Z</time></trkpt><trkpt lat="-27.543302883404355" lon="115.17969868030694"><ele>236.0</ele><time>2026-04-15T04:15:12Z</time></trkpt><trkpt lat="-27.54331744437128" lon="115.17988654275193"><ele>236.0</ele><time>2026-04-15T04:15:13Z</time></trkpt><trkpt lat="-27.543331648386825" lon="115.18003940619764"><ele>236.00000000000003</ele><time>2026-04-15T04:15:14Z</time></trkpt><trkpt lat="-27.543342101345374" lon="115.18015129381692"><ele>236.00000000000003</ele><time>2026-04-15T04:15:15Z</time></trkpt><trkpt lat="-27.543349809980224" lon="115.18022560719056"><ele>236.0</ele><time>2026-04-15T04:15:16Z</time></trkpt><trkpt lat="-27.543261498708162" lon="115.18027442841756"><ele>236.0</ele><time>2026-04-15T04:16:28Z</time></trkpt><trkpt lat="-27.54301986978261" lon="115.18026740743814"><ele>236.00000000000003</ele><time>2026-04-15T04:16:32Z</time></trkpt><trkpt lat="-27.542939770401134" lon="115.18027637590735"><ele>236.0</ele><time>2026-04-15T04:16:33Z</time></trkpt><trkpt lat="-27.54285445540578" lon="115.18028876474112"><ele>236.0</ele><time>2026-04-15T04:16:34Z</time></trkpt><trkpt lat="-27.54276067596418" lon="115.18030298285532"><ele>236.0</ele><time>2026-04-15T04:16:35Z</time></trkpt><trkpt lat="-27.542667596036463" lon="115.1803149850153"><ele>236.00000000000003</ele><time>2026-04-15T04:16:36Z</time></trkpt><trkpt lat="-27.54257779135108" lon="115.18032343546943"><ele>236.0</ele><time>2026-04-15T04:16:37Z</time></trkpt><trkpt lat="-27.54248255962783" lon="115.18033772694714"><ele>235.0</ele><time>2026-04-15T04:16:38Z</time></trkpt><trkpt lat="-27.5423828387869" lon="115.18035209856076"><ele>234.0</ele><time>2026-04-15T04:16:39Z</time></trkpt><trkpt lat="-27.542274196851167" lon="115.18036544324215"><ele>233.0</ele><time>2026-04-15T04:16:40Z</time></trkpt><trkpt lat="-27.542157504259773" lon="115.18037752880254"><ele>232.0</ele><time>2026-04-15T04:16:41Z</time></trkpt><trkpt lat="-27.542034290178638" lon="115.1803890698464"><ele>231.5</ele><time>2026-04-15T04:16:42Z</time></trkpt><trkpt lat="-27.541904250198993" lon="115.18040172325637"><ele>231.0</ele><time>2026-04-15T04:16:43Z</time></trkpt><trkpt lat="-27.541766435274138" lon="115.18042051756372"><ele>230.5</ele><time>2026-04-15T04:16:44Z</time></trkpt><trkpt lat="-27.541629339553715" lon="115.18044144220755"><ele>230.0</ele><time>2026-04-15T04:16:45Z</time></trkpt><trkpt lat="-27.541504150243572" lon="115.18045905168177"><ele>230.0</ele><time>2026-04-15T04:16:46Z</time></trkpt><trkpt lat="-27.541389608305206" lon="115.18047473015048"><ele>230.0</ele><time>2026-04-15T04:16:47Z</time></trkpt><trkpt lat="-27.541277724301274" lon="115.18048920965408"><ele>230.0</ele><time>2026-04-15T04:16:48Z</time></trkpt><trkpt lat="-27.541157781641534" lon="115.1805061635272"><ele>230.0</ele><time>2026-04-15T04:16:49Z</time></trkpt><trkpt lat="-27.54088443338475" lon="115.18055374495319"><ele>229.25</ele><time>2026-04-15T04:16:51Z</time></trkpt><trkpt lat="-27.54075299615174" lon="115.18058219872363"><ele>228.5</ele><time>2026-04-15T04:16:52Z</time></trkpt><trkpt lat="-27.540629366902934" lon="115.18060975155907"><ele>227.75</ele><time>2026-04-15T04:16:53Z</time></trkpt><trkpt lat="-27.5405149738741" lon="115.1806396209461"><ele>227.0</ele><time>2026-04-15T04:16:54Z</time></trkpt><trkpt lat="-27.540395114432958" lon="115.18067621911524"><ele>226.39999999999998</ele><time>2026-04-15T04:16:55Z</time></trkpt><trkpt lat="-27.54026992179485" lon="115.18071187747509"><ele>225.79999999999998</ele><time>2026-04-15T04:16:56Z</time></trkpt><trkpt lat="-27.540156911794355" lon="115.1807348938828"><ele>225.2</ele><time>2026-04-15T04:16:57Z</time></trkpt><trkpt lat="-27.54005159626143" lon="115.18074894448009"><ele>224.6</ele><time>2026-04-15T04:16:58Z</time></trkpt><trkpt lat="-27.539960251650097" lon="115.18075143083689"><ele>224.0</ele><time>2026-04-15T04:16:59Z</time></trkpt><trkpt lat="-27.539860671420104" lon="115.18075140743746"><ele>224.00000000000003</ele><time>2026-04-15T04:17:00Z</time></trkpt><trkpt lat="-27.53975343616457" lon="115.18074801257127"><ele>224.0</ele><time>2026-04-15T04:17:01Z</time></trkpt><trkpt lat="-27.539662997922974" lon="115.18074394463922"><ele>224.0</ele><time>2026-04-15T04:17:02Z</time></trkpt><trkpt lat="-27.539598245223758" lon="115.1807469383446"><ele>224.0</ele><time>2026-04-15T04:17:03Z</time></trkpt><trkpt lat="-27.539520479976925" lon="115.18075009870877"><ele>224.00000000000003</ele><time>2026-04-15T04:17:04Z</time></trkpt><trkpt lat="-27.53945593586139" lon="115.18074754784661"><ele>224.0</ele><time>2026-04-15T04:17:05Z</time></trkpt><trkpt lat="-27.539389926516726" lon="115.18073117594152"><ele>223.2</ele><time>2026-04-15T04:17:06Z</time></trkpt><trkpt lat="-27.539319334380515" lon="115.18072473205437"><ele>222.39999999999998</ele><time>2026-04-15T04:17:07Z</time></trkpt><trkpt lat="-27.539210624647602" lon="115.18072719351916"><ele>221.6</ele><time>2026-04-15T04:17:09Z</time></trkpt><trkpt lat="-27.539134566269333" lon="115.18074952567602"><ele>220.8</ele><time>2026-04-15T04:17:12.001Z</time></trkpt><trkpt lat="-27.539011911609315" lon="115.18083018564892"><ele>220.0</ele><time>2026-04-15T04:17:25.001Z</time></trkpt><trkpt lat="-27.5389446042443" lon="115.18082069709955"><ele>220.0</ele><time>2026-04-15T04:17:27.001Z</time></trkpt><trkpt lat="-27.53885172363249" lon="115.18078043534989"><ele>220.0</ele><time>2026-04-15T04:17:29.001Z</time></trkpt><trkpt lat="-27.538740829892564" lon="115.18077235873159"><ele>220.0</ele><time>2026-04-15T04:17:31.001Z</time></trkpt><trkpt lat="-27.538644982118726" lon="115.18078793466609"><ele>220.0</ele><time>2026-04-15T04:17:33.001Z</time></trkpt><trkpt lat="-27.538476636940473" lon="115.18084311028376"><ele>219.16666666666666</ele><time>2026-04-15T04:17:37Z</time></trkpt><trkpt lat="-27.538405340671055" lon="115.18087086968308"><ele>218.33333333333331</ele><time>2026-04-15T04:17:39Z</time></trkpt><trkpt lat="-27.53832425277588" lon="115.18091923341517"><ele>217.5</ele><time>2026-04-15T04:17:41Z</time></trkpt><trkpt lat="-27.538251267218413" lon="115.1809249461134"><ele>216.66666666666669</ele><time>2026-04-15T04:17:44Z</time></trkpt><trkpt lat="-27.538234696791818" lon="115.1808563776506"><ele>215.83333333333334</ele><time>2026-04-15T04:17:48Z</time></trkpt><trkpt lat="-27.538201991873176" lon="115.1807935481162"><ele>215.0</ele><time>2026-04-15T04:18:01Z</time></trkpt><trkpt lat="-27.538015455621924" lon="115.18078233438408"><ele>215.0</ele><time>2026-04-15T04:18:06Z</time></trkpt><trkpt lat="-27.53794605804932" lon="115.18076982387053"><ele>215.0</ele><time>2026-04-15T04:18:08Z</time></trkpt><trkpt lat="-27.53794699715263" lon="115.18069288199949"><ele>215.0</ele><time>2026-04-15T04:18:26Z</time></trkpt><trkpt lat="-27.53796123603535" lon="115.18072249466576"><ele>215.0</ele><time>2026-04-15T04:19:03Z</time></trkpt><trkpt lat="-27.537834828204144" lon="115.18076070007601"><ele>215.0</ele><time>2026-04-15T04:19:17Z</time></trkpt><trkpt lat="-27.53776237717894" lon="115.18075788433593"><ele>215.0</ele><time>2026-04-15T04:19:22.001Z</time></trkpt><trkpt lat="-27.53769086275159" lon="115.18076948949594"><ele>215.0</ele><time>2026-04-15T04:19:28.001Z</time></trkpt><trkpt lat="-27.5375589051089" lon="115.1807666781759"><ele>215.0</ele><time>2026-04-15T04:19:40.001Z</time></trkpt><trkpt lat="-27.53763109607442" lon="115.18077453711999"><ele>215.0</ele><time>2026-04-15T04:19:54.999Z</time></trkpt><trkpt lat="-27.53776798825948" lon="115.18075222034977"><ele>215.0</ele><time>2026-04-15T04:20:09Z</time></trkpt><trkpt lat="-27.53783625231805" lon="115.18075270238357"><ele>215.0</ele><time>2026-04-15T04:20:18Z</time></trkpt><trkpt lat="-27.5379613443593" lon="115.18073359640823"><ele>215.0</ele><time>2026-04-15T04:20:34Z</time></trkpt><trkpt lat="-27.53802580331582" lon="115.18071511287037"><ele>215.0</ele><time>2026-04-15T04:20:44Z</time></trkpt><trkpt lat="-27.53822109920649" lon="115.18085647884966"><ele>215.0</ele><time>2026-04-15T04:22:29.999Z</time></trkpt><trkpt lat="-27.5383125660336" lon="115.18086958208134"><ele>215.0</ele><time>2026-04-15T04:22:31.999Z</time></trkpt><trkpt lat="-27.538387041102656" lon="115.18088509500531"><ele>215.0</ele><time>2026-04-15T04:22:33.999Z</time></trkpt><trkpt lat="-27.538470288681157" lon="115.18086985233816"><ele>215.0</ele><time>2026-04-15T04:22:37.999Z</time></trkpt><trkpt lat="-27.538528480836607" lon="115.18081938591969"><ele>215.0</ele><time>2026-04-15T04:22:39.999Z</time></trkpt><trkpt lat="-27.53861235236933" lon="115.180786113972"><ele>215.0</ele><time>2026-04-15T04:22:41.999Z</time></trkpt><trkpt lat="-27.53870100751163" lon="115.18079427648073"><ele>215.0</ele><time>2026-04-15T04:22:43.999Z</time></trkpt><trkpt lat="-27.538806347924517" lon="115.18079125054652"><ele>215.0</ele><time>2026-04-15T04:22:45.999Z</time></trkpt><trkpt lat="-27.539024750182563" lon="115.18077870887684"><ele>216.0</ele><time>2026-04-15T04:22:50Z</time></trkpt><trkpt lat="-27.53911528055717" lon="115.18077283191022"><ele>217.0</ele><time>2026-04-15T04:22:52Z</time></trkpt><trkpt lat="-27.5392076931122" lon="115.18077002544248"><ele>218.0</ele><time>2026-04-15T04:22:54Z</time></trkpt><trkpt lat="-27.539331194266538" lon="115.18076291730253"><ele>219.0</ele><time>2026-04-15T04:22:56Z</time></trkpt><trkpt lat="-27.53941341668453" lon="115.18074580778652"><ele>220.0</ele><time>2026-04-15T04:22:57Z</time></trkpt><trkpt lat="-27.539496710695857" lon="115.18075122511863"><ele>220.8</ele><time>2026-04-15T04:22:58Z</time></trkpt><trkpt lat="-27.53957664174412" lon="115.18076187674048"><ele>221.6</ele><time>2026-04-15T04:22:59Z</time></trkpt><trkpt lat="-27.539666989400185" lon="115.18076830488407"><ele>222.39999999999998</ele><time>2026-04-15T04:23:00Z</time></trkpt><trkpt lat="-27.539754376771818" lon="115.18076738080457"><ele>223.2</ele><time>2026-04-15T04:23:01Z</time></trkpt><trkpt lat="-27.539844567237083" lon="115.18077180628023"><ele>224.0</ele><time>2026-04-15T04:23:02Z</time></trkpt><trkpt lat="-27.53994854542518" lon="115.18077395449608"><ele>224.0</ele><time>2026-04-15T04:23:03Z</time></trkpt><trkpt lat="-27.540055009732484" lon="115.180765003091"><ele>223.99999999999997</ele><time>2026-04-15T04:23:04Z</time></trkpt><trkpt lat="-27.540157783579026" lon="115.18074984052635"><ele>223.99999999999997</ele><time>2026-04-15T04:23:05Z</time></trkpt><trkpt lat="-27.540259674094415" lon="115.18073093796254"><ele>224.0</ele><time>2026-04-15T04:23:06Z</time></trkpt><trkpt lat="-27.540370762729527" lon="115.18070421452647"><ele>224.0</ele><time>2026-04-15T04:23:07Z</time></trkpt><trkpt lat="-27.540633699263818" lon="115.18064102994637"><ele>224.75</ele><time>2026-04-15T04:23:09Z</time></trkpt><trkpt lat="-27.540765309941772" lon="115.18061127048084"><ele>225.5</ele><time>2026-04-15T04:23:10Z</time></trkpt><trkpt lat="-27.54090848599678" lon="115.18057967527642"><ele>226.25</ele><time>2026-04-15T04:23:11Z</time></trkpt><trkpt lat="-27.541060583287415" lon="115.18054607386532"><ele>227.0</ele><time>2026-04-15T04:23:12Z</time></trkpt><trkpt lat="-27.54121200254511" lon="115.18051552549348"><ele>227.75</ele><time>2026-04-15T04:23:13Z</time></trkpt><trkpt lat="-27.54135609837426" lon="115.18049038974686"><ele>228.5</ele><time>2026-04-15T04:23:14Z</time></trkpt><trkpt lat="-27.541504996374886" lon="115.1804699762724"><ele>229.25</ele><time>2026-04-15T04:23:15Z</time></trkpt><trkpt lat="-27.541654461425704" lon="115.18045073419849"><ele>230.0</ele><time>2026-04-15T04:23:16Z</time></trkpt><trkpt lat="-27.541802057738384" lon="115.18043143970256"><ele>230.0</ele><time>2026-04-15T04:23:17Z</time></trkpt><trkpt lat="-27.541957502782008" lon="115.18041274809464"><ele>230.0</ele><time>2026-04-15T04:23:18Z</time></trkpt><trkpt lat="-27.542105609016982" lon="115.180393745851"><ele>230.0</ele><time>2026-04-15T04:23:19Z</time></trkpt><trkpt lat="-27.542243741522277" lon="115.18037776558498"><ele>230.0</ele><time>2026-04-15T04:23:20Z</time></trkpt><trkpt lat="-27.542387444123563" lon="115.18036096468188"><ele>230.5</ele><time>2026-04-15T04:23:21Z</time></trkpt><trkpt lat="-27.542514791389856" lon="115.18034515304305"><ele>231.0</ele><time>2026-04-15T04:23:22Z</time></trkpt><trkpt lat="-27.54263497818" lon="115.1803303472601"><ele>231.5</ele><time>2026-04-15T04:23:23Z</time></trkpt><trkpt lat="-27.54275395310772" lon="115.18031548298444"><ele>232.0</ele><time>2026-04-15T04:23:24Z</time></trkpt><trkpt lat="-27.542872193635237" lon="115.18030195088242"><ele>233.0</ele><time>2026-04-15T04:23:25Z</time></trkpt><trkpt lat="-27.542992623453138" lon="115.18028818651837"><ele>234.0</ele><time>2026-04-15T04:23:26Z</time></trkpt><trkpt lat="-27.543096751407862" lon="115.18027647135038"><ele>235.0</ele><time>2026-04-15T04:23:27Z</time></trkpt><trkpt lat="-27.54328207634191" lon="115.18025416316817"><ele>236.0</ele><time>2026-04-15T04:23:30Z</time></trkpt><trkpt lat="-27.54334215239225" lon="115.1802896760157"><ele>236.0</ele><time>2026-04-15T04:23:32Z</time></trkpt><trkpt lat="-27.54338479911206" lon="115.18037482714135"><ele>236.00000000000003</ele><time>2026-04-15T04:23:34Z</time></trkpt><trkpt lat="-27.54340605766192" lon="115.18044881562254"><ele>236.00000000000003</ele><time>2026-04-15T04:23:35Z</time></trkpt><trkpt lat="-27.543422146114956" lon="115.18054256522603"><ele>236.0</ele><time>2026-04-15T04:23:36Z</time></trkpt><trkpt lat="-27.543431227377116" lon="115.18066272067479"><ele>236.0</ele><time>2026-04-15T04:23:37Z</time></trkpt><trkpt lat="-27.543436173534026" lon="115.1808061945722"><ele>235.75</ele><time>2026-04-15T04:23:38Z</time></trkpt><trkpt lat="-27.54343520669062" lon="115.18097198078539"><ele>235.5</ele><time>2026-04-15T04:23:39Z</time></trkpt><trkpt lat="-27.543436398577967" lon="115.18114315754036"><ele>235.25</ele><time>2026-04-15T04:23:40Z</time></trkpt><trkpt lat="-27.543439379472215" lon="115.18129761501717"><ele>235.0</ele><time>2026-04-15T04:23:41Z</time></trkpt><trkpt lat="-27.543445391649016" lon="115.18141767366662"><ele>235.0</ele><time>2026-04-15T04:23:42Z</time></trkpt><trkpt lat="-27.543453099790305" lon="115.18150936384467"><ele>235.0</ele><time>2026-04-15T04:23:43Z</time></trkpt><trkpt lat="-27.54346640420187" lon="115.18162000216901"><ele>235.0</ele><time>2026-04-15T04:23:45Z</time></trkpt><trkpt lat="-27.543477869055277" lon="115.1817066184949"><ele>235.0</ele><time>2026-04-15T04:24:29Z</time></trkpt><trkpt lat="-27.54349794824716" lon="115.18194582941607"><ele>234.75</ele><time>2026-04-15T04:24:32Z</time></trkpt><trkpt lat="-27.54350836177364" lon="115.18206098489348"><ele>234.5</ele><time>2026-04-15T04:24:33Z</time></trkpt><trkpt lat="-27.543519167729215" lon="115.18219082760424"><ele>234.25</ele><time>2026-04-15T04:24:34Z</time></trkpt><trkpt lat="-27.54353146861377" lon="115.18234743147129"><ele>234.0</ele><time>2026-04-15T04:24:35Z</time></trkpt><trkpt lat="-27.54354807871818" lon="115.18251533147382"><ele>234.0</ele><time>2026-04-15T04:24:36Z</time></trkpt><trkpt lat="-27.543570837396512" lon="115.18270047224247"><ele>234.0</ele><time>2026-04-15T04:24:37Z</time></trkpt><trkpt lat="-27.543594751900322" lon="115.18290143384624"><ele>234.0</ele><time>2026-04-15T04:24:38Z</time></trkpt><trkpt lat="-27.54361593248969" lon="115.18310651808598"><ele>234.0</ele><time>2026-04-15T04:24:39Z</time></trkpt><trkpt lat="-27.54363902500786" lon="115.1833207694228"><ele>234.0</ele><time>2026-04-15T04:24:40Z</time></trkpt><trkpt lat="-27.543660196804584" lon="115.18354283669296"><ele>234.0</ele><time>2026-04-15T04:24:41Z</time></trkpt><trkpt lat="-27.543684754699196" lon="115.18377784632519"><ele>234.0</ele><time>2026-04-15T04:24:42Z</time></trkpt><trkpt lat="-27.54370968078946" lon="115.18400624249674"><ele>234.0</ele><time>2026-04-15T04:24:43Z</time></trkpt><trkpt lat="-27.54373354244374" lon="115.18424080704482"><ele>234.0</ele><time>2026-04-15T04:24:44Z</time></trkpt><trkpt lat="-27.543754445223794" lon="115.18447015551546"><ele>235.0</ele><time>2026-04-15T04:24:45Z</time></trkpt><trkpt lat="-27.543774623893526" lon="115.18469999833819"><ele>236.0</ele><time>2026-04-15T04:24:46Z</time></trkpt><trkpt lat="-27.543794789120664" lon="115.18492960490278"><ele>237.0</ele><time>2026-04-15T04:24:47Z</time></trkpt><trkpt lat="-27.543816573823587" lon="115.18516063564871"><ele>237.0</ele><time>2026-04-15T04:24:48Z</time></trkpt><trkpt lat="-27.54383922204511" lon="115.18539850239483"><ele>237.0</ele><time>2026-04-15T04:24:49Z</time></trkpt><trkpt lat="-27.543865703597323" lon="115.18563582625895"><ele>237.0</ele><time>2026-04-15T04:24:50Z</time></trkpt><trkpt lat="-27.543928892054996" lon="115.18612238809057"><ele>236.66666666666669</ele><time>2026-04-15T04:24:52Z</time></trkpt><trkpt lat="-27.543954688392" lon="115.18636381449625"><ele>236.33333333333334</ele><time>2026-04-15T04:24:53Z</time></trkpt><trkpt lat="-27.543974615362615" lon="115.18659800854671"><ele>236.0</ele><time>2026-04-15T04:24:54Z</time></trkpt><trkpt lat="-27.543989263366807" lon="115.18683366353079"><ele>236.0</ele><time>2026-04-15T04:24:55Z</time></trkpt><trkpt lat="-27.5440057976987" lon="115.18707799573073"><ele>236.0</ele><time>2026-04-15T04:24:56Z</time></trkpt><trkpt lat="-27.54402230637826" lon="115.18732143102234"><ele>236.0</ele><time>2026-04-15T04:24:57Z</time></trkpt><trkpt lat="-27.544034296992677" lon="115.18756440355989"><ele>235.66666666666669</ele><time>2026-04-15T04:24:58Z</time></trkpt><trkpt lat="-27.544043865926216" lon="115.1878111434404"><ele>235.33333333333331</ele><time>2026-04-15T04:24:59Z</time></trkpt><trkpt lat="-27.54405265839865" lon="115.18805726882927"><ele>235.0</ele><time>2026-04-15T04:25:00Z</time></trkpt><trkpt lat="-27.544061941756674" lon="115.18830849146822"><ele>234.0</ele><time>2026-04-15T04:25:01Z</time></trkpt><trkpt lat="-27.54406916711463" lon="115.18856072304706"><ele>233.0</ele><time>2026-04-15T04:25:02Z</time></trkpt><trkpt lat="-27.54407359958467" lon="115.18881818865727"><ele>232.5</ele><time>2026-04-15T04:25:03Z</time></trkpt><trkpt lat="-27.544075578452123" lon="115.18908351691773"><ele>232.0</ele><time>2026-04-15T04:25:04Z</time></trkpt><trkpt lat="-27.544077832116642" lon="115.18935517959993"><ele>232.0</ele><time>2026-04-15T04:25:05Z</time></trkpt><trkpt lat="-27.544079061543332" lon="115.18963068406003"><ele>232.0</ele><time>2026-04-15T04:25:06Z</time></trkpt><trkpt lat="-27.5440782087989" lon="115.18991106635313"><ele>232.0</ele><time>2026-04-15T04:25:07Z</time></trkpt><trkpt lat="-27.544079371088554" lon="115.19018470808142"><ele>232.0</ele><time>2026-04-15T04:25:08Z</time></trkpt><trkpt lat="-27.54408260311347" lon="115.19046477925612"><ele>232.0</ele><time>2026-04-15T04:25:09Z</time></trkpt><trkpt lat="-27.544087777110008" lon="115.19074638218927"><ele>232.0</ele><time>2026-04-15T04:25:10Z</time></trkpt><trkpt lat="-27.544098126058742" lon="115.19131543820825"><ele>232.0</ele><time>2026-04-15T04:25:12Z</time></trkpt><trkpt lat="-27.54410184236745" lon="115.19159593053884"><ele>232.0</ele><time>2026-04-15T04:25:13Z</time></trkpt><trkpt lat="-27.54410834948617" lon="115.19187678428649"><ele>232.0</ele><time>2026-04-15T04:25:14Z</time></trkpt><trkpt lat="-27.544116629960385" lon="115.19216632770102"><ele>232.0</ele><time>2026-04-15T04:25:15Z</time></trkpt><trkpt lat="-27.544121742431482" lon="115.19245668248217"><ele>230.5</ele><time>2026-04-15T04:25:16Z</time></trkpt><trkpt lat="-27.54412479156886" lon="115.19275648224475"><ele>229.0</ele><time>2026-04-15T04:25:17Z</time></trkpt><trkpt lat="-27.544124535861776" lon="115.1930531201563"><ele>229.0</ele><time>2026-04-15T04:25:18Z</time></trkpt><trkpt lat="-27.544125255362328" lon="115.19334484433612"><ele>229.0</ele><time>2026-04-15T04:25:19Z</time></trkpt><trkpt lat="-27.54412789746423" lon="115.1936257803626"><ele>229.0</ele><time>2026-04-15T04:25:20Z</time></trkpt><trkpt lat="-27.54413011892199" lon="115.1938965464957"><ele>229.0</ele><time>2026-04-15T04:25:21Z</time></trkpt><trkpt lat="-27.54413387298243" lon="115.19416225000705"><ele>229.0</ele><time>2026-04-15T04:25:22Z</time></trkpt><trkpt lat="-27.54413516410523" lon="115.19442980038998"><ele>229.0</ele><time>2026-04-15T04:25:23Z</time></trkpt><trkpt lat="-27.544134125433924" lon="115.19470246230179"><ele>229.0</ele><time>2026-04-15T04:25:24Z</time></trkpt><trkpt lat="-27.544136805598985" lon="115.19498167928153"><ele>229.0</ele><time>2026-04-15T04:25:25Z</time></trkpt><trkpt lat="-27.544139844849372" lon="115.19525962752702"><ele>229.0</ele><time>2026-04-15T04:25:26Z</time></trkpt><trkpt lat="-27.54414265220381" lon="115.19553511049735"><ele>229.0</ele><time>2026-04-15T04:25:27Z</time></trkpt><trkpt lat="-27.54414589892804" lon="115.19581291634057"><ele>228.5</ele><time>2026-04-15T04:25:28Z</time></trkpt><trkpt lat="-27.54414865660438" lon="115.19609149011342"><ele>228.0</ele><time>2026-04-15T04:25:29Z</time></trkpt><trkpt lat="-27.544150553731765" lon="115.19637007395124"><ele>228.0</ele><time>2026-04-15T04:25:30Z</time></trkpt><trkpt lat="-27.544155203735237" lon="115.19665221956245"><ele>228.0</ele><time>2026-04-15T04:25:31Z</time></trkpt><trkpt lat="-27.54416333851059" lon="115.19721158936918"><ele>227.5</ele><time>2026-04-15T04:25:33Z</time></trkpt><trkpt lat="-27.54416934730125" lon="115.19748585741988"><ele>227.0</ele><time>2026-04-15T04:25:34Z</time></trkpt><trkpt lat="-27.544176996814752" lon="115.1977573741486"><ele>227.0</ele><time>2026-04-15T04:25:35Z</time></trkpt><trkpt lat="-27.544181202105747" lon="115.19802926285104"><ele>227.0</ele><time>2026-04-15T04:25:36Z</time></trkpt><trkpt lat="-27.544184610630776" lon="115.198308378402"><ele>226.5</ele><time>2026-04-15T04:25:37Z</time></trkpt><trkpt lat="-27.54418677345351" lon="115.19858989337051"><ele>226.0</ele><time>2026-04-15T04:25:38Z</time></trkpt><trkpt lat="-27.544189778067423" lon="115.19887016116509"><ele>225.0</ele><time>2026-04-15T04:25:39Z</time></trkpt><trkpt lat="-27.54419263173746" lon="115.1991487693291"><ele>224.0</ele><time>2026-04-15T04:25:40Z</time></trkpt><trkpt lat="-27.544194768173657" lon="115.19942443371677"><ele>224.0</ele><time>2026-04-15T04:25:41Z</time></trkpt><trkpt lat="-27.54419426254073" lon="115.19969699527266"><ele>224.0</ele><time>2026-04-15T04:25:42Z</time></trkpt><trkpt lat="-27.544193525535125" lon="115.19996588030328"><ele>223.66666666666669</ele><time>2026-04-15T04:25:43Z</time></trkpt><trkpt lat="-27.544191481287363" lon="115.200225282288"><ele>223.33333333333331</ele><time>2026-04-15T04:25:44Z</time></trkpt><trkpt lat="-27.544188821979024" lon="115.20046929798711"><ele>223.0</ele><time>2026-04-15T04:25:45Z</time></trkpt><trkpt lat="-27.544188417726563" lon="115.20070214647674"><ele>222.66666666666666</ele><time>2026-04-15T04:25:46.001Z</time></trkpt><trkpt lat="-27.544189659020496" lon="115.20092462600577"><ele>222.33333333333331</ele><time>2026-04-15T04:25:47.001Z</time></trkpt><trkpt lat="-27.544195252192544" lon="115.2011388501436"><ele>222.0</ele><time>2026-04-15T04:25:48.001Z</time></trkpt><trkpt lat="-27.544201883852224" lon="115.2013431162277"><ele>221.66666666666669</ele><time>2026-04-15T04:25:49.001Z</time></trkpt><trkpt lat="-27.544208187089673" lon="115.20153346736082"><ele>221.33333333333334</ele><time>2026-04-15T04:25:50.001Z</time></trkpt><trkpt lat="-27.544207314938447" lon="115.20172806374089"><ele>221.0</ele><time>2026-04-15T04:25:51.001Z</time></trkpt><trkpt lat="-27.544200321468804" lon="115.20190652603397"><ele>221.0</ele><time>2026-04-15T04:25:52.001Z</time></trkpt><trkpt lat="-27.544155789053917" lon="115.2022494416879"><ele>221.0</ele><time>2026-04-15T04:25:54.001Z</time></trkpt><trkpt lat="-27.54411391884348" lon="115.20242031189991"><ele>221.33333333333334</ele><time>2026-04-15T04:25:55.001Z</time></trkpt><trkpt lat="-27.544056345053107" lon="115.20259104090552"><ele>221.66666666666669</ele><time>2026-04-15T04:25:56.001Z</time></trkpt><trkpt lat="-27.543987350324727" lon="115.20277679284123"><ele>222.0</ele><time>2026-04-15T04:25:57.001Z</time></trkpt><trkpt lat="-27.543900984378737" lon="115.20297134058445"><ele>221.66666666666669</ele><time>2026-04-15T04:25:58.001Z</time></trkpt><trkpt lat="-27.543805153844154" lon="115.20317187797129"><ele>221.33333333333334</ele><time>2026-04-15T04:25:59.001Z</time></trkpt><trkpt lat="-27.543708240199795" lon="115.20337948809045"><ele>221.0</ele><time>2026-04-15T04:26:00Z</time></trkpt><trkpt lat="-27.543619493151947" lon="115.20358840244009"><ele>220.33333333333334</ele><time>2026-04-15T04:26:01Z</time></trkpt><trkpt lat="-27.543530346022195" lon="115.20380239754336"><ele>219.66666666666669</ele><time>2026-04-15T04:26:02Z</time></trkpt><trkpt lat="-27.54343647898855" lon="115.20402060190804"><ele>219.0</ele><time>2026-04-15T04:26:03Z</time></trkpt><trkpt lat="-27.543349685382022" lon="115.20423347088195"><ele>218.33333333333331</ele><time>2026-04-15T04:26:04Z</time></trkpt><trkpt lat="-27.543262596631703" lon="115.20445193937734"><ele>217.66666666666666</ele><time>2026-04-15T04:26:05Z</time></trkpt><trkpt lat="-27.543175799975636" lon="115.20467792495096"><ele>217.0</ele><time>2026-04-15T04:26:06Z</time></trkpt><trkpt lat="-27.54308664380235" lon="115.20490320138484"><ele>216.66666666666666</ele><time>2026-04-15T04:26:07Z</time></trkpt><trkpt lat="-27.542997591881612" lon="115.20512826800301"><ele>216.33333333333331</ele><time>2026-04-15T04:26:08Z</time></trkpt><trkpt lat="-27.542911752406585" lon="115.20535028403856"><ele>216.0</ele><time>2026-04-15T04:26:09Z</time></trkpt><trkpt lat="-27.542824235521753" lon="115.20557748757547"><ele>214.66666666666669</ele><time>2026-04-15T04:26:10Z</time></trkpt><trkpt lat="-27.54273483401305" lon="115.20580122132439"><ele>213.33333333333334</ele><time>2026-04-15T04:26:11Z</time></trkpt><trkpt lat="-27.54264095566658" lon="115.20602587619626"><ele>212.0</ele><time>2026-04-15T04:26:12Z</time></trkpt><trkpt lat="-27.54254917952087" lon="115.20624802208225"><ele>211.0</ele><time>2026-04-15T04:26:13Z</time></trkpt><trkpt lat="-27.542357213160663" lon="115.20672673767609"><ele>211.0</ele><time>2026-04-15T04:26:15Z</time></trkpt><trkpt lat="-27.54225888015251" lon="115.20697308156586"><ele>211.0</ele><time>2026-04-15T04:26:16Z</time></trkpt><trkpt lat="-27.542167973367576" lon="115.20720347230402"><ele>211.33333333333331</ele><time>2026-04-15T04:26:17Z</time></trkpt><trkpt lat="-27.542084156288755" lon="115.20741779660847"><ele>211.66666666666669</ele><time>2026-04-15T04:26:18Z</time></trkpt><trkpt lat="-27.5419999329905" lon="115.2076385863673"><ele>212.0</ele><time>2026-04-15T04:26:19Z</time></trkpt><trkpt lat="-27.54191742495396" lon="115.20785704718425"><ele>212.0</ele><time>2026-04-15T04:26:20Z</time></trkpt><trkpt lat="-27.54184154282515" lon="115.20806119399356"><ele>212.0</ele><time>2026-04-15T04:26:21Z</time></trkpt><trkpt lat="-27.541773135771656" lon="115.20825416679187"><ele>212.0</ele><time>2026-04-15T04:26:22Z</time></trkpt><trkpt lat="-27.541714405848804" lon="115.20843596469943"><ele>212.0</ele><time>2026-04-15T04:26:23Z</time></trkpt><trkpt lat="-27.54165994330202" lon="115.2086040592859"><ele>212.0</ele><time>2026-04-15T04:26:24Z</time></trkpt><trkpt lat="-27.541596550140536" lon="115.20875979782515"><ele>212.0</ele><time>2026-04-15T04:26:25Z</time></trkpt><trkpt lat="-27.541516117689056" lon="115.20890497571064"><ele>212.33333333333334</ele><time>2026-04-15T04:26:26Z</time></trkpt><trkpt lat="-27.54142276829072" lon="115.20903726706659"><ele>212.66666666666669</ele><time>2026-04-15T04:26:27Z</time></trkpt><trkpt lat="-27.541311381518646" lon="115.20916184528487"><ele>213.0</ele><time>2026-04-15T04:26:28Z</time></trkpt><trkpt lat="-27.541190776334794" lon="115.20928486492157"><ele>212.0</ele><time>2026-04-15T04:26:29Z</time></trkpt><trkpt lat="-27.54105408035101" lon="115.20941369760146"><ele>211.0</ele><time>2026-04-15T04:26:30Z</time></trkpt><trkpt lat="-27.540912818048145" lon="115.20954225009287"><ele>210.0</ele><time>2026-04-15T04:26:31Z</time></trkpt><trkpt lat="-27.5407782469191" lon="115.20967613076942"><ele>210.0</ele><time>2026-04-15T04:26:32Z</time></trkpt><trkpt lat="-27.54065939842808" lon="115.20981554239522"><ele>210.0</ele><time>2026-04-15T04:26:33Z</time></trkpt><trkpt lat="-27.540549891943193" lon="115.20997536379394"><ele>210.0</ele><time>2026-04-15T04:26:34Z</time></trkpt><trkpt lat="-27.540369920111058" lon="115.21028053613281"><ele>209.66666666666669</ele><time>2026-04-15T04:26:36Z</time></trkpt><trkpt lat="-27.540292422136257" lon="115.21042753630293"><ele>209.33333333333334</ele><time>2026-04-15T04:26:37Z</time></trkpt><trkpt lat="-27.54021491381594" lon="115.21057344679481"><ele>209.0</ele><time>2026-04-15T04:26:38Z</time></trkpt><trkpt lat="-27.540139828361472" lon="115.21072659962435"><ele>210.0</ele><time>2026-04-15T04:26:39Z</time></trkpt><trkpt lat="-27.540065992967094" lon="115.21089692565725"><ele>211.0</ele><time>2026-04-15T04:26:40Z</time></trkpt><trkpt lat="-27.539989559664285" lon="115.21107654686797"><ele>212.0</ele><time>2026-04-15T04:26:41Z</time></trkpt><trkpt lat="-27.53991267853552" lon="115.21128172775336"><ele>212.0</ele><time>2026-04-15T04:26:42Z</time></trkpt><trkpt lat="-27.539831013330932" lon="115.21150903339966"><ele>212.0</ele><time>2026-04-15T04:26:43Z</time></trkpt><trkpt lat="-27.539750714898386" lon="115.21173171175975"><ele>212.0</ele><time>2026-04-15T04:26:44Z</time></trkpt><trkpt lat="-27.5396659859629" lon="115.21196208682818"><ele>212.0</ele><time>2026-04-15T04:26:45Z</time></trkpt><trkpt lat="-27.53957728474536" lon="115.21220122896295"><ele>212.0</ele><time>2026-04-15T04:26:46Z</time></trkpt><trkpt lat="-27.539486131173604" lon="115.21245713832171"><ele>212.0</ele><time>2026-04-15T04:26:47Z</time></trkpt><trkpt lat="-27.539396580382085" lon="115.21270982253934"><ele>212.0</ele><time>2026-04-15T04:26:48Z</time></trkpt><trkpt lat="-27.53930806609564" lon="115.21295999550647"><ele>212.0</ele><time>2026-04-15T04:26:49Z</time></trkpt><trkpt lat="-27.539222557444976" lon="115.21321167937445"><ele>212.0</ele><time>2026-04-15T04:26:50Z</time></trkpt><trkpt lat="-27.5391345808045" lon="115.21346756879785"><ele>212.0</ele><time>2026-04-15T04:26:51Z</time></trkpt><trkpt lat="-27.539044227101286" lon="115.21372157149354"><ele>212.0</ele><time>2026-04-15T04:26:52Z</time></trkpt><trkpt lat="-27.53895133652342" lon="115.21396809658647"><ele>213.0</ele><time>2026-04-15T04:26:53Z</time></trkpt><trkpt lat="-27.53885202779014" lon="115.2142252263303"><ele>214.0</ele><time>2026-04-15T04:26:54Z</time></trkpt><trkpt lat="-27.53875480339508" lon="115.21447398130434"><ele>216.0</ele><time>2026-04-15T04:26:55Z</time></trkpt><trkpt lat="-27.538560708830055" lon="115.21498258384139"><ele>216.0</ele><time>2026-04-15T04:26:57Z</time></trkpt><trkpt lat="-27.53846362998846" lon="115.21523498277239"><ele>216.0</ele><time>2026-04-15T04:26:58Z</time></trkpt><trkpt lat="-27.538362282647768" lon="115.21549700845299"><ele>215.5</ele><time>2026-04-15T04:26:59Z</time></trkpt><trkpt lat="-27.538262074290436" lon="115.21576362214918"><ele>215.0</ele><time>2026-04-15T04:27:00Z</time></trkpt><trkpt lat="-27.538164580384272" lon="115.21602070842609"><ele>215.0</ele><time>2026-04-15T04:27:01Z</time></trkpt><trkpt lat="-27.538067608519913" lon="115.21626869862155"><ele>215.0</ele><time>2026-04-15T04:27:02Z</time></trkpt><trkpt lat="-27.537972193425723" lon="115.2165079854863"><ele>215.0</ele><time>2026-04-15T04:27:03Z</time></trkpt><trkpt lat="-27.537876400857375" lon="115.21675558692124"><ele>215.0</ele><time>2026-04-15T04:27:04Z</time></trkpt><trkpt lat="-27.537785187347897" lon="115.21700981348883"><ele>215.0</ele><time>2026-04-15T04:27:05Z</time></trkpt><trkpt lat="-27.537697711104304" lon="115.21726324423337"><ele>215.0</ele><time>2026-04-15T04:27:06Z</time></trkpt><trkpt lat="-27.53760372640208" lon="115.2175216816446"><ele>215.5</ele><time>2026-04-15T04:27:07Z</time></trkpt><trkpt lat="-27.537508610401233" lon="115.21777966521546"><ele>216.0</ele><time>2026-04-15T04:27:08Z</time></trkpt><trkpt lat="-27.537411261961378" lon="115.21803081426394"><ele>216.0</ele><time>2026-04-15T04:27:09Z</time></trkpt><trkpt lat="-27.537313425576404" lon="115.21827763560042"><ele>216.0</ele><time>2026-04-15T04:27:10Z</time></trkpt><trkpt lat="-27.537219565739804" lon="115.21852597756971"><ele>216.0</ele><time>2026-04-15T04:27:11Z</time></trkpt><trkpt lat="-27.537129682544766" lon="115.21878221392093"><ele>216.0</ele><time>2026-04-15T04:27:12Z</time></trkpt><trkpt lat="-27.53705129026466" lon="115.21903542342163"><ele>215.66666666666669</ele><time>2026-04-15T04:27:13Z</time></trkpt><trkpt lat="-27.53698841119438" lon="115.21927603719776"><ele>215.33333333333334</ele><time>2026-04-15T04:27:14Z</time></trkpt><trkpt lat="-27.536938220706524" lon="115.21950737048292"><ele>215.0</ele><time>2026-04-15T04:27:15Z</time></trkpt><trkpt lat="-27.536894477225285" lon="115.2197346468547"><ele>214.5</ele><time>2026-04-15T04:27:16Z</time></trkpt><trkpt lat="-27.536758149195915" lon="115.22014470420599"><ele>214.0</ele><time>2026-04-15T04:27:18Z</time></trkpt><trkpt lat="-27.53664837536043" lon="115.22035833097885"><ele>214.0</ele><time>2026-04-15T04:27:19Z</time></trkpt><trkpt lat="-27.536531155897038" lon="115.22058026213547"><ele>214.0</ele><time>2026-04-15T04:27:20Z</time></trkpt><trkpt lat="-27.536415635426714" lon="115.22081075836066"><ele>214.0</ele><time>2026-04-15T04:27:21Z</time></trkpt><trkpt lat="-27.536303570115344" lon="115.22104404034991"><ele>214.0</ele><time>2026-04-15T04:27:22Z</time></trkpt><trkpt lat="-27.53619336089246" lon="115.22127691168872"><ele>214.33333333333331</ele><time>2026-04-15T04:27:23Z</time></trkpt><trkpt lat="-27.536091527291564" lon="115.22149624003231"><ele>214.66666666666669</ele><time>2026-04-15T04:27:24Z</time></trkpt><trkpt lat="-27.535998619288335" lon="115.22170775370428"><ele>215.0</ele><time>2026-04-15T04:27:25Z</time></trkpt><trkpt lat="-27.535914763023335" lon="115.22191616524707"><ele>215.0</ele><time>2026-04-15T04:27:26Z</time></trkpt><trkpt lat="-27.535836712499535" lon="115.22212308975236"><ele>215.0</ele><time>2026-04-15T04:27:27Z</time></trkpt><trkpt lat="-27.535757149938366" lon="115.22232539128285"><ele>215.0</ele><time>2026-04-15T04:27:28Z</time></trkpt><trkpt lat="-27.535673680229788" lon="115.22252237899897"><ele>214.66666666666669</ele><time>2026-04-15T04:27:29Z</time></trkpt><trkpt lat="-27.5355885088648" lon="115.22270586757693"><ele>214.33333333333331</ele><time>2026-04-15T04:27:30Z</time></trkpt><trkpt lat="-27.535508704218362" lon="115.22287474478718"><ele>214.0</ele><time>2026-04-15T04:27:31Z</time></trkpt><trkpt lat="-27.53543750471197" lon="115.22302248999587"><ele>214.25</ele><time>2026-04-15T04:27:32Z</time></trkpt><trkpt lat="-27.53537824256881" lon="115.22314808660043"><ele>214.5</ele><time>2026-04-15T04:27:33Z</time></trkpt><trkpt lat="-27.53533020819471" lon="115.22324929935658"><ele>214.75</ele><time>2026-04-15T04:27:34Z</time></trkpt><trkpt lat="-27.535275131440656" lon="115.22335698088123"><ele>215.0</ele><time>2026-04-15T04:27:35Z</time></trkpt><trkpt lat="-27.535218183824128" lon="115.22346951364132"><ele>215.0</ele><time>2026-04-15T04:27:36Z</time></trkpt><trkpt lat="-27.53516472066412" lon="115.22358646289781"><ele>215.0</ele><time>2026-04-15T04:27:37Z</time></trkpt><trkpt lat="-27.535114890401843" lon="115.22384754836969"><ele>215.0</ele><time>2026-04-15T04:27:39.001Z</time></trkpt><trkpt lat="-27.535092778461756" lon="115.22400273215388"><ele>215.0</ele><time>2026-04-15T04:27:40.001Z</time></trkpt><trkpt lat="-27.53506495464103" lon="115.22416234121535"><ele>215.0</ele><time>2026-04-15T04:27:41.001Z</time></trkpt><trkpt lat="-27.535020891674247" lon="115.22432620805088"><ele>215.0</ele><time>2026-04-15T04:27:42.001Z</time></trkpt><trkpt lat="-27.53496262855503" lon="115.224488017562"><ele>215.0</ele><time>2026-04-15T04:27:43.001Z</time></trkpt><trkpt lat="-27.534894038409938" lon="115.22465626561845"><ele>215.0</ele><time>2026-04-15T04:27:44.001Z</time></trkpt><trkpt lat="-27.53480922655031" lon="115.22484454967595"><ele>215.0</ele><time>2026-04-15T04:27:45.001Z</time></trkpt><trkpt lat="-27.534722870050356" lon="115.22503602530271"><ele>215.33333333333334</ele><time>2026-04-15T04:27:46.001Z</time></trkpt><trkpt lat="-27.53463709424261" lon="115.22523328734043"><ele>215.66666666666669</ele><time>2026-04-15T04:27:47.001Z</time></trkpt><trkpt lat="-27.53455153934839" lon="115.22543955494854"><ele>216.0</ele><time>2026-04-15T04:27:48.001Z</time></trkpt><trkpt lat="-27.53446715523071" lon="115.22565866184367"><ele>215.33333333333331</ele><time>2026-04-15T04:27:49.001Z</time></trkpt><trkpt lat="-27.534378961738156" lon="115.2258691512089"><ele>214.66666666666666</ele><time>2026-04-15T04:27:50.001Z</time></trkpt><trkpt lat="-27.534279226697464" lon="115.22608041657985"><ele>214.0</ele><time>2026-04-15T04:27:51.001Z</time></trkpt><trkpt lat="-27.534176230569887" lon="115.22628382228132"><ele>214.0</ele><time>2026-04-15T04:27:52.001Z</time></trkpt><trkpt lat="-27.534067924138178" lon="115.22648101552265"><ele>214.0</ele><time>2026-04-15T04:27:53.001Z</time></trkpt><trkpt lat="-27.533963942656438" lon="115.22665688102619"><ele>214.0</ele><time>2026-04-15T04:27:54.001Z</time></trkpt><trkpt lat="-27.53388259042819" lon="115.2268064537064"><ele>214.0</ele><time>2026-04-15T04:27:55.001Z</time></trkpt><trkpt lat="-27.533814735362277" lon="115.2269536703299"><ele>214.0</ele><time>2026-04-15T04:27:56.001Z</time></trkpt><trkpt lat="-27.533765125894" lon="115.22711684022133"><ele>214.0</ele><time>2026-04-15T04:27:57.001Z</time></trkpt><trkpt lat="-27.53373158715529" lon="115.22730218327443"><ele>214.0</ele><time>2026-04-15T04:27:58.001Z</time></trkpt><trkpt lat="-27.53367347154047" lon="115.22770290007192"><ele>214.0</ele><time>2026-04-15T04:28:00.001Z</time></trkpt><trkpt lat="-27.533626259718197" lon="115.22789109744122"><ele>214.0</ele><time>2026-04-15T04:28:01.001Z</time></trkpt><trkpt lat="-27.533569285328188" lon="115.22807550359259"><ele>214.0</ele><time>2026-04-15T04:28:02.001Z</time></trkpt><trkpt lat="-27.533507691298944" lon="115.22825272961094"><ele>214.0</ele><time>2026-04-15T04:28:03.001Z</time></trkpt><trkpt lat="-27.533442539035832" lon="115.22841831632518"><ele>213.66666666666666</ele><time>2026-04-15T04:28:04.001Z</time></trkpt><trkpt lat="-27.533375032127157" lon="115.2285805580468"><ele>213.33333333333331</ele><time>2026-04-15T04:28:05.001Z</time></trkpt><trkpt lat="-27.5333062576112" lon="115.22873691763155"><ele>213.0</ele><time>2026-04-15T04:28:06Z</time></trkpt><trkpt lat="-27.533241039702432" lon="115.22889631029952"><ele>214.0</ele><time>2026-04-15T04:28:07Z</time></trkpt><trkpt lat="-27.533169559056375" lon="115.22907439756253"><ele>215.0</ele><time>2026-04-15T04:28:08Z</time></trkpt><trkpt lat="-27.53308792063877" lon="115.22927096408449"><ele>216.0</ele><time>2026-04-15T04:28:09Z</time></trkpt><trkpt lat="-27.533005657796807" lon="115.22947264471851"><ele>216.0</ele><time>2026-04-15T04:28:10Z</time></trkpt><trkpt lat="-27.532910413116" lon="115.22969561732984"><ele>216.0</ele><time>2026-04-15T04:28:11Z</time></trkpt><trkpt lat="-27.532826736169728" lon="115.22990345133438"><ele>216.0</ele><time>2026-04-15T04:28:12Z</time></trkpt><trkpt lat="-27.53274816568796" lon="115.23010442231187"><ele>216.0</ele><time>2026-04-15T04:28:13Z</time></trkpt><trkpt lat="-27.532670715323203" lon="115.2303096078516"><ele>216.0</ele><time>2026-04-15T04:28:14Z</time></trkpt><trkpt lat="-27.532593508581158" lon="115.23051064320742"><ele>216.0</ele><time>2026-04-15T04:28:15Z</time></trkpt><trkpt lat="-27.532519747928568" lon="115.23071451907765"><ele>215.66666666666669</ele><time>2026-04-15T04:28:16Z</time></trkpt><trkpt lat="-27.53245152354005" lon="115.23092028070099"><ele>215.33333333333334</ele><time>2026-04-15T04:28:17Z</time></trkpt><trkpt lat="-27.532381238096" lon="115.23112614436842"><ele>215.0</ele><time>2026-04-15T04:28:18Z</time></trkpt><trkpt lat="-27.532307327098675" lon="115.23133452640708"><ele>215.5</ele><time>2026-04-15T04:28:19Z</time></trkpt><trkpt lat="-27.532157669919172" lon="115.23174766388168"><ele>216.0</ele><time>2026-04-15T04:28:21Z</time></trkpt><trkpt lat="-27.53207835531347" lon="115.23196541918496"><ele>215.66666666666669</ele><time>2026-04-15T04:28:22Z</time></trkpt><trkpt lat="-27.53199526172195" lon="115.23219190392544"><ele>215.33333333333334</ele><time>2026-04-15T04:28:23Z</time></trkpt><trkpt lat="-27.531906705152174" lon="115.23242311423824"><ele>215.0</ele><time>2026-04-15T04:28:24Z</time></trkpt><trkpt lat="-27.531817525476637" lon="115.2326520972656"><ele>215.0</ele><time>2026-04-15T04:28:25Z</time></trkpt><trkpt lat="-27.531730376678105" lon="115.23288368272623"><ele>215.0</ele><time>2026-04-15T04:28:26Z</time></trkpt><trkpt lat="-27.531643963507925" lon="115.2331190163826"><ele>215.0</ele><time>2026-04-15T04:28:27Z</time></trkpt><trkpt lat="-27.531557337642234" lon="115.23335338989955"><ele>215.0</ele><time>2026-04-15T04:28:28Z</time></trkpt><trkpt lat="-27.53146741308441" lon="115.23358326272152"><ele>215.0</ele><time>2026-04-15T04:28:29Z</time></trkpt><trkpt lat="-27.531374704431844" lon="115.23381275548552"><ele>215.0</ele><time>2026-04-15T04:28:30Z</time></trkpt><trkpt lat="-27.53128340687355" lon="115.23403429381743"><ele>215.33333333333334</ele><time>2026-04-15T04:28:31Z</time></trkpt><trkpt lat="-27.531202168795588" lon="115.23424225163829"><ele>215.66666666666669</ele><time>2026-04-15T04:28:32Z</time></trkpt><trkpt lat="-27.53112714224127" lon="115.23444059466387"><ele>216.0</ele><time>2026-04-15T04:28:33Z</time></trkpt><trkpt lat="-27.531058777933417" lon="115.23462514647856"><ele>214.66666666666669</ele><time>2026-04-15T04:28:34Z</time></trkpt><trkpt lat="-27.530991452393476" lon="115.23480724401216"><ele>213.33333333333334</ele><time>2026-04-15T04:28:35Z</time></trkpt><trkpt lat="-27.530931033592104" lon="115.23498802491973"><ele>212.0</ele><time>2026-04-15T04:28:36Z</time></trkpt><trkpt lat="-27.530862438516113" lon="115.23518308862633"><ele>212.0</ele><time>2026-04-15T04:28:37Z</time></trkpt><trkpt lat="-27.530779045940363" lon="115.2353915281743"><ele>212.0</ele><time>2026-04-15T04:28:38Z</time></trkpt><trkpt lat="-27.530686616584333" lon="115.23560970028366"><ele>212.0</ele><time>2026-04-15T04:28:39Z</time></trkpt><trkpt lat="-27.530494485378664" lon="115.23603969319278"><ele>213.33333333333334</ele><time>2026-04-15T04:28:41Z</time></trkpt><trkpt lat="-27.530405364556028" lon="115.23624764818453"><ele>214.66666666666669</ele><time>2026-04-15T04:28:42Z</time></trkpt><trkpt lat="-27.53031687962023" lon="115.23645920840282"><ele>216.0</ele><time>2026-04-15T04:28:43Z</time></trkpt><trkpt lat="-27.530229033691974" lon="115.23667780637244"><ele>216.33333333333331</ele><time>2026-04-15T04:28:44Z</time></trkpt><trkpt lat="-27.53013917522632" lon="115.23689725524324"><ele>216.66666666666666</ele><time>2026-04-15T04:28:45Z</time></trkpt><trkpt lat="-27.530048169662123" lon="115.23712677847733"><ele>217.0</ele><time>2026-04-15T04:28:46Z</time></trkpt><trkpt lat="-27.52995641045712" lon="115.2373620450345"><ele>217.0</ele><time>2026-04-15T04:28:47Z</time></trkpt><trkpt lat="-27.52986387235564" lon="115.23759212785026"><ele>217.0</ele><time>2026-04-15T04:28:48Z</time></trkpt><trkpt lat="-27.529768978699742" lon="115.23782383452436"><ele>217.0</ele><time>2026-04-15T04:28:49Z</time></trkpt><trkpt lat="-27.529672641497463" lon="115.23805872528042"><ele>217.0</ele><time>2026-04-15T04:28:50Z</time></trkpt><trkpt lat="-27.529578459261838" lon="115.23829383318586"><ele>217.5</ele><time>2026-04-15T04:28:51Z</time></trkpt><trkpt lat="-27.52948425698269" lon="115.23853976480522"><ele>218.0</ele><time>2026-04-15T04:28:52Z</time></trkpt><trkpt lat="-27.529394604191175" lon="115.2387818560262"><ele>218.0</ele><time>2026-04-15T04:28:53Z</time></trkpt><trkpt lat="-27.529307872858343" lon="115.23901516490565"><ele>218.0</ele><time>2026-04-15T04:28:54Z</time></trkpt><trkpt lat="-27.529222665807513" lon="115.23924180357969"><ele>218.0</ele><time>2026-04-15T04:28:55Z</time></trkpt><trkpt lat="-27.529139843497056" lon="115.23946640591781"><ele>218.0</ele><time>2026-04-15T04:28:56Z</time></trkpt><trkpt lat="-27.529057498187733" lon="115.23968985614893"><ele>218.0</ele><time>2026-04-15T04:28:57Z</time></trkpt><trkpt lat="-27.528974468229787" lon="115.2399198146118"><ele>218.0</ele><time>2026-04-15T04:28:58Z</time></trkpt><trkpt lat="-27.528889340270737" lon="115.24016063529865"><ele>218.0</ele><time>2026-04-15T04:28:59Z</time></trkpt><trkpt lat="-27.528801908638762" lon="115.2404109950914"><ele>218.0</ele><time>2026-04-15T04:29:00Z</time></trkpt><trkpt lat="-27.528617925751" lon="115.24092556414392"><ele>218.0</ele><time>2026-04-15T04:29:02Z</time></trkpt><trkpt lat="-27.52851458177943" lon="115.24119058418485"><ele>218.0</ele><time>2026-04-15T04:29:03Z</time></trkpt><trkpt lat="-27.528405025038357" lon="115.24145256415872"><ele>217.5</ele><time>2026-04-15T04:29:04Z</time></trkpt><trkpt lat="-27.528299644183427" lon="115.24170919102355"><ele>217.0</ele><time>2026-04-15T04:29:05Z</time></trkpt><trkpt lat="-27.528199576992176" lon="115.2419644361336"><ele>217.0</ele><time>2026-04-15T04:29:06Z</time></trkpt><trkpt lat="-27.528104681852962" lon="115.24221987772239"><ele>217.0</ele><time>2026-04-15T04:29:07Z</time></trkpt><trkpt lat="-27.528011440491778" lon="115.24247263356668"><ele>216.5</ele><time>2026-04-15T04:29:08Z</time></trkpt><trkpt lat="-27.52791564717544" lon="115.24273054457822"><ele>216.0</ele><time>2026-04-15T04:29:09Z</time></trkpt><trkpt lat="-27.527817768912346" lon="115.24299110273525"><ele>216.0</ele><time>2026-04-15T04:29:10Z</time></trkpt><trkpt lat="-27.527719042110505" lon="115.24325840900632"><ele>216.0</ele><time>2026-04-15T04:29:11Z</time></trkpt><trkpt lat="-27.52761867145188" lon="115.24352534906262"><ele>216.0</ele><time>2026-04-15T04:29:12Z</time></trkpt><trkpt lat="-27.5275155407111" lon="115.2437947187937"><ele>216.0</ele><time>2026-04-15T04:29:13Z</time></trkpt><trkpt lat="-27.527411353317273" lon="115.24406469335834"><ele>216.5</ele><time>2026-04-15T04:29:14Z</time></trkpt><trkpt lat="-27.527311464378613" lon="115.24432108767715"><ele>217.0</ele><time>2026-04-15T04:29:15Z</time></trkpt><trkpt lat="-27.52720594164466" lon="115.24458345072306"><ele>217.0</ele><time>2026-04-15T04:29:16Z</time></trkpt><trkpt lat="-27.527097904771338" lon="115.24485141550603"><ele>217.0</ele><time>2026-04-15T04:29:17Z</time></trkpt><trkpt lat="-27.526990571667696" lon="115.24512107185731"><ele>217.5</ele><time>2026-04-15T04:29:18Z</time></trkpt><trkpt lat="-27.52688563679453" lon="115.24539674162904"><ele>218.0</ele><time>2026-04-15T04:29:19Z</time></trkpt><trkpt lat="-27.526785007771156" lon="115.24567173177599"><ele>218.0</ele><time>2026-04-15T04:29:20.001Z</time></trkpt><trkpt lat="-27.526679476275273" lon="115.24595049225742"><ele>218.0</ele><time>2026-04-15T04:29:21.001Z</time></trkpt><trkpt lat="-27.526464224470942" lon="115.2465008942457"><ele>218.5</ele><time>2026-04-15T04:29:23.001Z</time></trkpt><trkpt lat="-27.526357491408145" lon="115.24677774495474"><ele>219.0</ele><time>2026-04-15T04:29:24.001Z</time></trkpt><trkpt lat="-27.526251391256885" lon="115.2470565760978"><ele>219.0</ele><time>2026-04-15T04:29:25.001Z</time></trkpt><trkpt lat="-27.52614598879106" lon="115.24733637080622"><ele>219.0</ele><time>2026-04-15T04:29:26.001Z</time></trkpt><trkpt lat="-27.526040635977246" lon="115.2476158533151"><ele>219.0</ele><time>2026-04-15T04:29:27.001Z</time></trkpt><trkpt lat="-27.525933304962837" lon="115.2478927757183"><ele>219.0</ele><time>2026-04-15T04:29:28.001Z</time></trkpt><trkpt lat="-27.525825471216486" lon="115.24816757138547"><ele>219.5</ele><time>2026-04-15T04:29:29.001Z</time></trkpt><trkpt lat="-27.525715106784656" lon="115.24844638223595"><ele>220.0</ele><time>2026-04-15T04:29:30.001Z</time></trkpt><trkpt lat="-27.525607435865382" lon="115.24872174799553"><ele>219.5</ele><time>2026-04-15T04:29:31.001Z</time></trkpt><trkpt lat="-27.525502088220847" lon="115.24899581176135"><ele>219.0</ele><time>2026-04-15T04:29:32.001Z</time></trkpt><trkpt lat="-27.52539900801569" lon="115.24926358889175"><ele>219.5</ele><time>2026-04-15T04:29:33.001Z</time></trkpt><trkpt lat="-27.525294227309" lon="115.24953175980745"><ele>220.0</ele><time>2026-04-15T04:29:34.001Z</time></trkpt><trkpt lat="-27.52518808164923" lon="115.24980123513005"><ele>220.0</ele><time>2026-04-15T04:29:35.001Z</time></trkpt><trkpt lat="-27.525082075095856" lon="115.25007289304232"><ele>220.0</ele><time>2026-04-15T04:29:36.001Z</time></trkpt><trkpt lat="-27.52497651772778" lon="115.25034852213518"><ele>220.0</ele><time>2026-04-15T04:29:37.001Z</time></trkpt><trkpt lat="-27.52487089484461" lon="115.25062763527778"><ele>220.0</ele><time>2026-04-15T04:29:38.001Z</time></trkpt><trkpt lat="-27.524766091670013" lon="115.25090580962889"><ele>220.0</ele><time>2026-04-15T04:29:39.001Z</time></trkpt><trkpt lat="-27.524659866871545" lon="115.25118130860616"><ele>220.0</ele><time>2026-04-15T04:29:40.001Z</time></trkpt><trkpt lat="-27.52455484385708" lon="115.25145749738584"><ele>220.0</ele><time>2026-04-15T04:29:41.001Z</time></trkpt><trkpt lat="-27.524449997853708" lon="115.25173359826206"><ele>220.0</ele><time>2026-04-15T04:29:42.001Z</time></trkpt><trkpt lat="-27.524243891370404" lon="115.25228634681187"><ele>220.5</ele><time>2026-04-15T04:29:44.001Z</time></trkpt><trkpt lat="-27.524140466577165" lon="115.25255977127367"><ele>221.0</ele><time>2026-04-15T04:29:45.001Z</time></trkpt><trkpt lat="-27.524037115968543" lon="115.25283104730498"><ele>221.0</ele><time>2026-04-15T04:29:46.001Z</time></trkpt><trkpt lat="-27.523934017849417" lon="115.25310326144019"><ele>221.0</ele><time>2026-04-15T04:29:47.001Z</time></trkpt><trkpt lat="-27.523832376608212" lon="115.25337088636583"><ele>220.5</ele><time>2026-04-15T04:29:48.001Z</time></trkpt><trkpt lat="-27.523734284473203" lon="115.2536325989769"><ele>220.0</ele><time>2026-04-15T04:29:49.001Z</time></trkpt><trkpt lat="-27.523636888589017" lon="115.25389305015081"><ele>220.0</ele><time>2026-04-15T04:29:50.001Z</time></trkpt><trkpt lat="-27.523545451149815" lon="115.25413671301102"><ele>220.0</ele><time>2026-04-15T04:29:51.001Z</time></trkpt><trkpt lat="-27.523461306182597" lon="115.25435781875328"><ele>220.0</ele><time>2026-04-15T04:29:52.001Z</time></trkpt><trkpt lat="-27.52337820352093" lon="115.25457020089006"><ele>220.0</ele><time>2026-04-15T04:29:53.001Z</time></trkpt><trkpt lat="-27.523293057151896" lon="115.25477743917591"><ele>220.0</ele><time>2026-04-15T04:29:54.001Z</time></trkpt><trkpt lat="-27.52320183850994" lon="115.25499082386129"><ele>220.0</ele><time>2026-04-15T04:29:55.001Z</time></trkpt><trkpt lat="-27.523111525002403" lon="115.25520504744507"><ele>219.5</ele><time>2026-04-15T04:29:56.001Z</time></trkpt><trkpt lat="-27.5230130723457" lon="115.25543494735905"><ele>219.0</ele><time>2026-04-15T04:29:57.001Z</time></trkpt><trkpt lat="-27.52291244462676" lon="115.25567871085524"><ele>219.0</ele><time>2026-04-15T04:29:58.001Z</time></trkpt><trkpt lat="-27.522813762867052" lon="115.25594054965772"><ele>219.0</ele><time>2026-04-15T04:29:59.001Z</time></trkpt><trkpt lat="-27.522718712085656" lon="115.25620204436294"><ele>219.5</ele><time>2026-04-15T04:30:00.001Z</time></trkpt><trkpt lat="-27.522623841350327" lon="115.25646780644387"><ele>220.0</ele><time>2026-04-15T04:30:01.001Z</time></trkpt><trkpt lat="-27.522526976499925" lon="115.25673292868798"><ele>220.0</ele><time>2026-04-15T04:30:02.001Z</time></trkpt><trkpt lat="-27.522427223231674" lon="115.25699820686148"><ele>220.0</ele><time>2026-04-15T04:30:03.001Z</time></trkpt><trkpt lat="-27.522218545227496" lon="115.25753902862064"><ele>220.5</ele><time>2026-04-15T04:30:05.001Z</time></trkpt><trkpt lat="-27.52211536524358" lon="115.25781130724178"><ele>221.0</ele><time>2026-04-15T04:30:06.001Z</time></trkpt><trkpt lat="-27.522014481785934" lon="115.2580846397875"><ele>221.0</ele><time>2026-04-15T04:30:07.001Z</time></trkpt><trkpt lat="-27.521912340354575" lon="115.25835840482974"><ele>221.0</ele><time>2026-04-15T04:30:08.001Z</time></trkpt><trkpt lat="-27.521809202535934" lon="115.25862910368159"><ele>221.0</ele><time>2026-04-15T04:30:09.001Z</time></trkpt><trkpt lat="-27.521706968091298" lon="115.25889698959197"><ele>221.0</ele><time>2026-04-15T04:30:10.001Z</time></trkpt><trkpt lat="-27.521603238670945" lon="115.2591628501765"><ele>221.0</ele><time>2026-04-15T04:30:11.001Z</time></trkpt><trkpt lat="-27.52150092227111" lon="115.25942654025026"><ele>221.0</ele><time>2026-04-15T04:30:12Z</time></trkpt><trkpt lat="-27.521404716088835" lon="115.25967380636021"><ele>220.5</ele><time>2026-04-15T04:30:13Z</time></trkpt><trkpt lat="-27.52131200728008" lon="115.25991039949261"><ele>220.0</ele><time>2026-04-15T04:30:14Z</time></trkpt><trkpt lat="-27.521218434699836" lon="115.2601429246643"><ele>219.5</ele><time>2026-04-15T04:30:15Z</time></trkpt><trkpt lat="-27.521126308221817" lon="115.26037764330188"><ele>219.0</ele><time>2026-04-15T04:30:16Z</time></trkpt><trkpt lat="-27.521042376397777" lon="115.26061257569191"><ele>219.0</ele><time>2026-04-15T04:30:17Z</time></trkpt><trkpt lat="-27.52096288959127" lon="115.26084086305147"><ele>219.0</ele><time>2026-04-15T04:30:18Z</time></trkpt><trkpt lat="-27.520893184156975" lon="115.26106014129303"><ele>219.0</ele><time>2026-04-15T04:30:19Z</time></trkpt><trkpt lat="-27.52083515709819" lon="115.2612654164027"><ele>218.66666666666669</ele><time>2026-04-15T04:30:20Z</time></trkpt><trkpt lat="-27.520783103703412" lon="115.26146297756377"><ele>218.33333333333334</ele><time>2026-04-15T04:30:21Z</time></trkpt><trkpt lat="-27.520739174318248" lon="115.26164840124571"><ele>218.0</ele><time>2026-04-15T04:30:22Z</time></trkpt><trkpt lat="-27.520701668905996" lon="115.2618246547386"><ele>218.0</ele><time>2026-04-15T04:30:23Z</time></trkpt><trkpt lat="-27.52066395258941" lon="115.26199006628244"><ele>218.0</ele><time>2026-04-15T04:30:24Z</time></trkpt><trkpt lat="-27.520581288944864" lon="115.26229122293752"><ele>218.0</ele><time>2026-04-15T04:30:26Z</time></trkpt><trkpt lat="-27.520532662552743" lon="115.26242667975129"><ele>218.0</ele><time>2026-04-15T04:30:27Z</time></trkpt><trkpt lat="-27.52048049945794" lon="115.26255091450062"><ele>218.0</ele><time>2026-04-15T04:30:28Z</time></trkpt><trkpt lat="-27.520423419688516" lon="115.26266290554112"><ele>218.0</ele><time>2026-04-15T04:30:29Z</time></trkpt><trkpt lat="-27.520353068308633" lon="115.26275932301952"><ele>218.0</ele><time>2026-04-15T04:30:30Z</time></trkpt><trkpt lat="-27.520274777949762" lon="115.26283595315633"><ele>217.4</ele><time>2026-04-15T04:30:31Z</time></trkpt><trkpt lat="-27.520186821968668" lon="115.2628846319981"><ele>216.8</ele><time>2026-04-15T04:30:32Z</time></trkpt><trkpt lat="-27.520091294108955" lon="115.26291465973381"><ele>216.2</ele><time>2026-04-15T04:30:33Z</time></trkpt><trkpt lat="-27.519989881835624" lon="115.26293701274322"><ele>215.6</ele><time>2026-04-15T04:30:34Z</time></trkpt><trkpt lat="-27.519883094279706" lon="115.26295938788094"><ele>215.0</ele><time>2026-04-15T04:30:35Z</time></trkpt><trkpt lat="-27.51977015046892" lon="115.26299343416409"><ele>215.0</ele><time>2026-04-15T04:30:36Z</time></trkpt><trkpt lat="-27.51966300493142" lon="115.26303196942804"><ele>215.0</ele><time>2026-04-15T04:30:37Z</time></trkpt><trkpt lat="-27.519546320160284" lon="115.26307605388118"><ele>215.0</ele><time>2026-04-15T04:30:38Z</time></trkpt><trkpt lat="-27.519413379804746" lon="115.26312800716083"><ele>215.0</ele><time>2026-04-15T04:30:39Z</time></trkpt><trkpt lat="-27.519281207606426" lon="115.2631820923283"><ele>216.33333333333334</ele><time>2026-04-15T04:30:40Z</time></trkpt><trkpt lat="-27.51914811402934" lon="115.26324832474394"><ele>217.66666666666669</ele><time>2026-04-15T04:30:41Z</time></trkpt><trkpt lat="-27.519014777752115" lon="115.26333271098048"><ele>219.0</ele><time>2026-04-15T04:30:42.001Z</time></trkpt><trkpt lat="-27.518883071404762" lon="115.26342921007993"><ele>219.0</ele><time>2026-04-15T04:30:43.001Z</time></trkpt><trkpt lat="-27.518759972387777" lon="115.26353533564777"><ele>219.0</ele><time>2026-04-15T04:30:44.001Z</time></trkpt><trkpt lat="-27.518637414707808" lon="115.26364654198906"><ele>219.0</ele><time>2026-04-15T04:30:45.001Z</time></trkpt><trkpt lat="-27.518372377777776" lon="115.26392846270487"><ele>220.0</ele><time>2026-04-15T04:30:47.001Z</time></trkpt><trkpt lat="-27.518242180644307" lon="115.26408490878663"><ele>221.0</ele><time>2026-04-15T04:30:48.001Z</time></trkpt><trkpt lat="-27.518098739279722" lon="115.26425485596839"><ele>222.0</ele><time>2026-04-15T04:30:49.001Z</time></trkpt><trkpt lat="-27.51796007363451" lon="115.26442425940886"><ele>222.0</ele><time>2026-04-15T04:30:50.001Z</time></trkpt><trkpt lat="-27.517821351520958" lon="115.26460038307583"><ele>222.0</ele><time>2026-04-15T04:30:51.001Z</time></trkpt><trkpt lat="-27.517684724395636" lon="115.2647810957425"><ele>222.0</ele><time>2026-04-15T04:30:52.001Z</time></trkpt><trkpt lat="-27.517541231689385" lon="115.26496745588106"><ele>221.66666666666669</ele><time>2026-04-15T04:30:53.001Z</time></trkpt><trkpt lat="-27.517392646630427" lon="115.26515330123334"><ele>221.33333333333334</ele><time>2026-04-15T04:30:54.001Z</time></trkpt><trkpt lat="-27.5172393584015" lon="115.26533926712209"><ele>221.0</ele><time>2026-04-15T04:30:55.001Z</time></trkpt><trkpt lat="-27.517085670882746" lon="115.26552582672714"><ele>220.5</ele><time>2026-04-15T04:30:56.001Z</time></trkpt><trkpt lat="-27.516930229281567" lon="115.26571539660212"><ele>220.0</ele><time>2026-04-15T04:30:57.001Z</time></trkpt><trkpt lat="-27.516768551583286" lon="115.2659097513038"><ele>220.0</ele><time>2026-04-15T04:30:58.001Z</time></trkpt><trkpt lat="-27.516611201466887" lon="115.26609733452106"><ele>220.0</ele><time>2026-04-15T04:30:59.001Z</time></trkpt><trkpt lat="-27.516455746814803" lon="115.26628801386568"><ele>220.33333333333331</ele><time>2026-04-15T04:31:00.001Z</time></trkpt><trkpt lat="-27.51631285824032" lon="115.2664683159259"><ele>220.66666666666669</ele><time>2026-04-15T04:31:01.001Z</time></trkpt><trkpt lat="-27.5161719496514" lon="115.26664809332524"><ele>221.0</ele><time>2026-04-15T04:31:02.001Z</time></trkpt><trkpt lat="-27.51602993559622" lon="115.2668292416122"><ele>221.0</ele><time>2026-04-15T04:31:03.001Z</time></trkpt><trkpt lat="-27.515886945164343" lon="115.26701014265745"><ele>221.0</ele><time>2026-04-15T04:31:04.001Z</time></trkpt><trkpt lat="-27.51573975229859" lon="115.26719182102639"><ele>221.0</ele><time>2026-04-15T04:31:05.001Z</time></trkpt><trkpt lat="-27.51559118222669" lon="115.26737664881495"><ele>221.5</ele><time>2026-04-15T04:31:06.001Z</time></trkpt><trkpt lat="-27.515293022397046" lon="115.26774977329835"><ele>222.0</ele><time>2026-04-15T04:31:08.001Z</time></trkpt><trkpt lat="-27.51514339325446" lon="115.26793672268226"><ele>222.0</ele><time>2026-04-15T04:31:09.001Z</time></trkpt><trkpt lat="-27.514992867458748" lon="115.2681250938941"><ele>222.0</ele><time>2026-04-15T04:31:10.001Z</time></trkpt><trkpt lat="-27.514839884421747" lon="115.26831270458497"><ele>222.0</ele><time>2026-04-15T04:31:11.001Z</time></trkpt><trkpt lat="-27.51468730872225" lon="115.268498506051"><ele>222.0</ele><time>2026-04-15T04:31:12.001Z</time></trkpt><trkpt lat="-27.514529857371652" lon="115.26868971518526"><ele>221.5</ele><time>2026-04-15T04:31:13.001Z</time></trkpt><trkpt lat="-27.514373261957388" lon="115.26888446600167"><ele>221.0</ele><time>2026-04-15T04:31:14.001Z</time></trkpt><trkpt lat="-27.51421514937473" lon="115.26908287069706"><ele>221.0</ele><time>2026-04-15T04:31:15.001Z</time></trkpt><trkpt lat="-27.514053002041972" lon="115.2692878994998"><ele>221.0</ele><time>2026-04-15T04:31:16.001Z</time></trkpt><trkpt lat="-27.51388788299142" lon="115.26949461517603"><ele>221.5</ele><time>2026-04-15T04:31:17.001Z</time></trkpt><trkpt lat="-27.513719178238446" lon="115.26970300004598"><ele>222.0</ele><time>2026-04-15T04:31:18.001Z</time></trkpt><trkpt lat="-27.51355327853434" lon="115.26990775480066"><ele>222.0</ele><time>2026-04-15T04:31:19.001Z</time></trkpt><trkpt lat="-27.51338847276474" lon="115.27011212893439"><ele>222.0</ele><time>2026-04-15T04:31:20.001Z</time></trkpt><trkpt lat="-27.513225482964128" lon="115.2703150840843"><ele>222.0</ele><time>2026-04-15T04:31:21.001Z</time></trkpt><trkpt lat="-27.51306197604103" lon="115.27052070290894"><ele>222.0</ele><time>2026-04-15T04:31:22.001Z</time></trkpt><trkpt lat="-27.512898796798655" lon="115.27072970818324"><ele>221.5</ele><time>2026-04-15T04:31:23.001Z</time></trkpt><trkpt lat="-27.512732555362863" lon="115.27093799789323"><ele>221.0</ele><time>2026-04-15T04:31:24.001Z</time></trkpt><trkpt lat="-27.512561850692922" lon="115.27114590557753"><ele>221.0</ele><time>2026-04-15T04:31:25.002Z</time></trkpt><trkpt lat="-27.51239017600705" lon="115.2713564063504"><ele>221.0</ele><time>2026-04-15T04:31:26.002Z</time></trkpt><trkpt lat="-27.51221752078649" lon="115.27157133219958"><ele>222.0</ele><time>2026-04-15T04:31:27.002Z</time></trkpt><trkpt lat="-27.511890481097094" lon="115.27198597175504"><ele>222.0</ele><time>2026-04-15T04:31:29.002Z</time></trkpt><trkpt lat="-27.51173433624428" lon="115.27218281115692"><ele>222.0</ele><time>2026-04-15T04:31:30.002Z</time></trkpt><trkpt lat="-27.511583043540956" lon="115.27236896438039"><ele>222.5</ele><time>2026-04-15T04:31:31.002Z</time></trkpt><trkpt lat="-27.51143253351744" lon="115.27255609478217"><ele>223.0</ele><time>2026-04-15T04:31:32.002Z</time></trkpt><trkpt lat="-27.511283154692332" lon="115.27274792234545"><ele>223.0</ele><time>2026-04-15T04:31:33.002Z</time></trkpt><trkpt lat="-27.51113055418472" lon="115.27294137736038"><ele>223.0</ele><time>2026-04-15T04:31:34.002Z</time></trkpt><trkpt lat="-27.5109699001551" lon="115.27314183951785"><ele>223.0</ele><time>2026-04-15T04:31:35.002Z</time></trkpt><trkpt lat="-27.510805346961362" lon="115.27334595084865"><ele>223.0</ele><time>2026-04-15T04:31:36.002Z</time></trkpt><trkpt lat="-27.51063782008881" lon="115.27355209092825"><ele>223.0</ele><time>2026-04-15T04:31:37.002Z</time></trkpt><trkpt lat="-27.510471119941627" lon="115.27375830636203"><ele>223.0</ele><time>2026-04-15T04:31:38.002Z</time></trkpt><trkpt lat="-27.510304532304673" lon="115.27396534346566"><ele>223.5</ele><time>2026-04-15T04:31:39.002Z</time></trkpt><trkpt lat="-27.510136673585855" lon="115.27417670353844"><ele>224.0</ele><time>2026-04-15T04:31:40.002Z</time></trkpt><trkpt lat="-27.509968716832788" lon="115.27438824505087"><ele>224.0</ele><time>2026-04-15T04:31:41.002Z</time></trkpt><trkpt lat="-27.509796628405436" lon="115.27460329493944"><ele>224.0</ele><time>2026-04-15T04:31:42.002Z</time></trkpt><trkpt lat="-27.509620790163485" lon="115.27482180069997"><ele>224.0</ele><time>2026-04-15T04:31:43.002Z</time></trkpt><trkpt lat="-27.50944706083105" lon="115.27503710986872"><ele>224.0</ele><time>2026-04-15T04:31:44.002Z</time></trkpt><trkpt lat="-27.509277571472058" lon="115.27524720204903"><ele>224.0</ele><time>2026-04-15T04:31:45.002Z</time></trkpt><trkpt lat="-27.509107843169183" lon="115.27545892622832"><ele>224.0</ele><time>2026-04-15T04:31:46.002Z</time></trkpt><trkpt lat="-27.508939214472797" lon="115.27567058463063"><ele>224.0</ele><time>2026-04-15T04:31:47.002Z</time></trkpt><trkpt lat="-27.508771605637605" lon="115.27588343606533"><ele>224.0</ele><time>2026-04-15T04:31:48.002Z</time></trkpt><trkpt lat="-27.50843401452594" lon="115.27629927071905"><ele>224.0</ele><time>2026-04-15T04:31:50.002Z</time></trkpt><trkpt lat="-27.508259025567288" lon="115.27650956003475"><ele>224.0</ele><time>2026-04-15T04:31:51.002Z</time></trkpt><trkpt lat="-27.508084560612097" lon="115.27671708003851"><ele>223.5</ele><time>2026-04-15T04:31:52.002Z</time></trkpt><trkpt lat="-27.507906903776455" lon="115.27692796536083"><ele>223.0</ele><time>2026-04-15T04:31:53.002Z</time></trkpt><trkpt lat="-27.50772569101122" lon="115.27714552902047"><ele>224.0</ele><time>2026-04-15T04:31:54.002Z</time></trkpt><trkpt lat="-27.507548934180168" lon="115.27736175762539"><ele>225.0</ele><time>2026-04-15T04:31:55.002Z</time></trkpt><trkpt lat="-27.507375582057197" lon="115.27757989075182"><ele>225.0</ele><time>2026-04-15T04:31:56.002Z</time></trkpt><trkpt lat="-27.507202957109115" lon="115.27779697988515"><ele>225.0</ele><time>2026-04-15T04:31:57.002Z</time></trkpt><trkpt lat="-27.507030096492247" lon="115.27801297618153"><ele>224.0</ele><time>2026-04-15T04:31:58.002Z</time></trkpt><trkpt lat="-27.506859059210203" lon="115.27822700928917"><ele>223.0</ele><time>2026-04-15T04:31:59.002Z</time></trkpt><trkpt lat="-27.506690418538025" lon="115.2784404493555"><ele>223.0</ele><time>2026-04-15T04:32:00.002Z</time></trkpt><trkpt lat="-27.50652358404591" lon="115.27865119429825"><ele>223.0</ele><time>2026-04-15T04:32:01.002Z</time></trkpt><trkpt lat="-27.506359486715894" lon="115.27885789094874"><ele>224.0</ele><time>2026-04-15T04:32:02.002Z</time></trkpt><trkpt lat="-27.506194946038942" lon="115.2790664645394"><ele>225.0</ele><time>2026-04-15T04:32:03.002Z</time></trkpt><trkpt lat="-27.50603017501746" lon="115.27926773549663"><ele>225.0</ele><time>2026-04-15T04:32:04.002Z</time></trkpt><trkpt lat="-27.505865308920363" lon="115.27946593785713"><ele>225.0</ele><time>2026-04-15T04:32:05.002Z</time></trkpt><trkpt lat="-27.5057035220972" lon="115.27965669322091"><ele>224.5</ele><time>2026-04-15T04:32:06.002Z</time></trkpt><trkpt lat="-27.50554146171322" lon="115.27985695550753"><ele>224.0</ele><time>2026-04-15T04:32:07.002Z</time></trkpt><trkpt lat="-27.505382662436325" lon="115.28005345846839"><ele>224.0</ele><time>2026-04-15T04:32:08.002Z</time></trkpt><trkpt lat="-27.5052223851732" lon="115.28025298432507"><ele>224.0</ele><time>2026-04-15T04:32:09.002Z</time></trkpt><trkpt lat="-27.504905725767603" lon="115.28065234192863"><ele>224.0</ele><time>2026-04-15T04:32:11.002Z</time></trkpt><trkpt lat="-27.504748402560583" lon="115.28085486903333"><ele>224.0</ele><time>2026-04-15T04:32:12.002Z</time></trkpt><trkpt lat="-27.504587585342602" lon="115.28105773623163"><ele>224.5</ele><time>2026-04-15T04:32:13.002Z</time></trkpt><trkpt lat="-27.504425758563567" lon="115.28125627332327"><ele>225.0</ele><time>2026-04-15T04:32:14.002Z</time></trkpt><trkpt lat="-27.504264706708675" lon="115.28145750409786"><ele>225.5</ele><time>2026-04-15T04:32:15.002Z</time></trkpt><trkpt lat="-27.504100408947423" lon="115.28166123665862"><ele>226.0</ele><time>2026-04-15T04:32:16.002Z</time></trkpt><trkpt lat="-27.503935392940665" lon="115.28186559170703"><ele>226.0</ele><time>2026-04-15T04:32:17.002Z</time></trkpt><trkpt lat="-27.503770687238777" lon="115.28206771289653"><ele>226.0</ele><time>2026-04-15T04:32:18.001Z</time></trkpt><trkpt lat="-27.50360402964651" lon="115.28227481713489"><ele>225.5</ele><time>2026-04-15T04:32:19.001Z</time></trkpt><trkpt lat="-27.503434203890556" lon="115.28248398597154"><ele>225.0</ele><time>2026-04-15T04:32:20.001Z</time></trkpt><trkpt lat="-27.503262771364476" lon="115.28269704564391"><ele>225.0</ele><time>2026-04-15T04:32:21.001Z</time></trkpt><trkpt lat="-27.50308841083183" lon="115.2829175464713"><ele>225.0</ele><time>2026-04-15T04:32:22.001Z</time></trkpt><trkpt lat="-27.502910333704296" lon="115.28314363305624"><ele>227.0</ele><time>2026-04-15T04:32:23.001Z</time></trkpt><trkpt lat="-27.50273426687642" lon="115.28336915031377"><ele>229.0</ele><time>2026-04-15T04:32:24.001Z</time></trkpt><trkpt lat="-27.502557539574457" lon="115.28359339647251"><ele>229.0</ele><time>2026-04-15T04:32:25.001Z</time></trkpt><trkpt lat="-27.502382210826728" lon="115.28381284352346"><ele>229.0</ele><time>2026-04-15T04:32:26.001Z</time></trkpt><trkpt lat="-27.5022062099885" lon="115.28402896172618"><ele>229.0</ele><time>2026-04-15T04:32:27.001Z</time></trkpt><trkpt lat="-27.502029062364244" lon="115.28424349625652"><ele>229.0</ele><time>2026-04-15T04:32:28.001Z</time></trkpt><trkpt lat="-27.50185683498944" lon="115.2844541165738"><ele>229.0</ele><time>2026-04-15T04:32:29.001Z</time></trkpt><trkpt lat="-27.501516089548566" lon="115.28487511649679"><ele>229.0</ele><time>2026-04-15T04:32:31.001Z</time></trkpt><trkpt lat="-27.50134510506614" lon="115.28508904944836"><ele>229.0</ele><time>2026-04-15T04:32:32.001Z</time></trkpt><trkpt lat="-27.501178683024342" lon="115.28530076298689"><ele>229.0</ele><time>2026-04-15T04:32:33.001Z</time></trkpt><trkpt lat="-27.501013841173236" lon="115.28551128198113"><ele>229.0</ele><time>2026-04-15T04:32:34.001Z</time></trkpt><trkpt lat="-27.500848207126587" lon="115.2857252069442"><ele>229.0</ele><time>2026-04-15T04:32:35.001Z</time></trkpt><trkpt lat="-27.500682099581784" lon="115.28593712876994"><ele>229.0</ele><time>2026-04-15T04:32:36.001Z</time></trkpt><trkpt lat="-27.500515612777164" lon="115.28614811303378"><ele>229.0</ele><time>2026-04-15T04:32:37.001Z</time></trkpt><trkpt lat="-27.50035026906949" lon="115.28635589599124"><ele>229.0</ele><time>2026-04-15T04:32:38.001Z</time></trkpt><trkpt lat="-27.500188728705083" lon="115.28655685364367"><ele>229.0</ele><time>2026-04-15T04:32:39.001Z</time></trkpt><trkpt lat="-27.50002857705456" lon="115.28675203632615"><ele>229.0</ele><time>2026-04-15T04:32:40.001Z</time></trkpt><trkpt lat="-27.49987215971965" lon="115.2869435231928"><ele>229.0</ele><time>2026-04-15T04:32:41.001Z</time></trkpt><trkpt lat="-27.499716489118" lon="115.2871370954726"><ele>229.0</ele><time>2026-04-15T04:32:42.001Z</time></trkpt><trkpt lat="-27.499561435213483" lon="115.28733091193824"><ele>229.33333333333331</ele><time>2026-04-15T04:32:43.001Z</time></trkpt><trkpt lat="-27.499409996752963" lon="115.28752351759297"><ele>229.66666666666669</ele><time>2026-04-15T04:32:44.001Z</time></trkpt><trkpt lat="-27.499263331149564" lon="115.28770782986605"><ele>230.0</ele><time>2026-04-15T04:32:45.001Z</time></trkpt><trkpt lat="-27.499115798465724" lon="115.28789038554433"><ele>230.0</ele><time>2026-04-15T04:32:46.001Z</time></trkpt><trkpt lat="-27.49896283982885" lon="115.28807020816105"><ele>230.0</ele><time>2026-04-15T04:32:47.001Z</time></trkpt><trkpt lat="-27.498810208440474" lon="115.28825045282973"><ele>230.0</ele><time>2026-04-15T04:32:48.001Z</time></trkpt><trkpt lat="-27.49865780460389" lon="115.28843265972186"><ele>230.0</ele><time>2026-04-15T04:32:49.001Z</time></trkpt><trkpt lat="-27.498512298748366" lon="115.28861619539452"><ele>230.0</ele><time>2026-04-15T04:32:50.001Z</time></trkpt><trkpt lat="-27.498219739442888" lon="115.28898797127584"><ele>230.0</ele><time>2026-04-15T04:32:52.001Z</time></trkpt><trkpt lat="-27.498075561379995" lon="115.2891739940966"><ele>230.0</ele><time>2026-04-15T04:32:53.001Z</time></trkpt><trkpt lat="-27.497926694101377" lon="115.28936124406808"><ele>230.0</ele><time>2026-04-15T04:32:54.001Z</time></trkpt><trkpt lat="-27.497774429087844" lon="115.28954158432697"><ele>230.33333333333334</ele><time>2026-04-15T04:32:55.001Z</time></trkpt><trkpt lat="-27.497622697076757" lon="115.28972072589951"><ele>230.66666666666669</ele><time>2026-04-15T04:32:56.001Z</time></trkpt><trkpt lat="-27.49747453633495" lon="115.28990102841958"><ele>231.0</ele><time>2026-04-15T04:32:57.001Z</time></trkpt><trkpt lat="-27.497329259641138" lon="115.29008390325356"><ele>231.0</ele><time>2026-04-15T04:32:58.001Z</time></trkpt><trkpt lat="-27.49718186817821" lon="115.29026885140316"><ele>231.0</ele><time>2026-04-15T04:32:59.001Z</time></trkpt><trkpt lat="-27.497034284088247" lon="115.29045669454976"><ele>231.0</ele><time>2026-04-15T04:33:00.001Z</time></trkpt><trkpt lat="-27.49688984668207" lon="115.29063972358496"><ele>231.66666666666669</ele><time>2026-04-15T04:33:01.001Z</time></trkpt><trkpt lat="-27.49674401487165" lon="115.2908162321837"><ele>232.33333333333334</ele><time>2026-04-15T04:33:02.001Z</time></trkpt><trkpt lat="-27.496594526808863" lon="115.29098877614398"><ele>233.0</ele><time>2026-04-15T04:33:03.001Z</time></trkpt><trkpt lat="-27.496447493765654" lon="115.29115131300429"><ele>233.0</ele><time>2026-04-15T04:33:04.001Z</time></trkpt><trkpt lat="-27.496300161081642" lon="115.29130917606356"><ele>233.0</ele><time>2026-04-15T04:33:05.001Z</time></trkpt><trkpt lat="-27.496151693683686" lon="115.2914644267938"><ele>233.0</ele><time>2026-04-15T04:33:06.001Z</time></trkpt><trkpt lat="-27.496000956861728" lon="115.29161142448322"><ele>233.0</ele><time>2026-04-15T04:33:07.001Z</time></trkpt><trkpt lat="-27.495845962852165" lon="115.29175775605977"><ele>233.0</ele><time>2026-04-15T04:33:08.001Z</time></trkpt><trkpt lat="-27.495686493955777" lon="115.29190541867209"><ele>233.0</ele><time>2026-04-15T04:33:09.001Z</time></trkpt><trkpt lat="-27.495528194191166" lon="115.29205373535285"><ele>232.5</ele><time>2026-04-15T04:33:10.001Z</time></trkpt><trkpt lat="-27.495213841465407" lon="115.2923511439167"><ele>232.0</ele><time>2026-04-15T04:33:12.001Z</time></trkpt><trkpt lat="-27.495056127051008" lon="115.2925013631607"><ele>232.0</ele><time>2026-04-15T04:33:13.001Z</time></trkpt><trkpt lat="-27.49489586609048" lon="115.29265478203872"><ele>232.0</ele><time>2026-04-15T04:33:14.001Z</time></trkpt><trkpt lat="-27.494738473408578" lon="115.29280975050685"><ele>232.0</ele><time>2026-04-15T04:33:15.001Z</time></trkpt><trkpt lat="-27.49458294660045" lon="115.29296842018657"><ele>231.66666666666666</ele><time>2026-04-15T04:33:16.001Z</time></trkpt><trkpt lat="-27.494426468328516" lon="115.29312720474472"><ele>231.33333333333331</ele><time>2026-04-15T04:33:17.001Z</time></trkpt><trkpt lat="-27.494262951068322" lon="115.29328402458461"><ele>231.0</ele><time>2026-04-15T04:33:18.001Z</time></trkpt><trkpt lat="-27.49409429328275" lon="115.29344218424369"><ele>231.0</ele><time>2026-04-15T04:33:19.001Z</time></trkpt><trkpt lat="-27.493915078988394" lon="115.29359326823958"><ele>231.0</ele><time>2026-04-15T04:33:20.001Z</time></trkpt><trkpt lat="-27.493720426347597" lon="115.29373792273542"><ele>231.0</ele><time>2026-04-15T04:33:21.001Z</time></trkpt><trkpt lat="-27.493511833954845" lon="115.29387589433563"><ele>231.0</ele><time>2026-04-15T04:33:22.001Z</time></trkpt><trkpt lat="-27.493292041677183" lon="115.29400753358937"><ele>230.5</ele><time>2026-04-15T04:33:23.001Z</time></trkpt><trkpt lat="-27.49306582565696" lon="115.2941340590204"><ele>230.0</ele><time>2026-04-15T04:33:24.001Z</time></trkpt><trkpt lat="-27.49283300696422" lon="115.29426107475302"><ele>229.5</ele><time>2026-04-15T04:33:25.001Z</time></trkpt><trkpt lat="-27.49259710787065" lon="115.29439132974191"><ele>229.0</ele><time>2026-04-15T04:33:26.001Z</time></trkpt><trkpt lat="-27.492360526337578" lon="115.29452490894955"><ele>229.0</ele><time>2026-04-15T04:33:27.001Z</time></trkpt><trkpt lat="-27.49212467720405" lon="115.29465940387725"><ele>229.0</ele><time>2026-04-15T04:33:28.001Z</time></trkpt><trkpt lat="-27.491886485189912" lon="115.29479455266232"><ele>231.0</ele><time>2026-04-15T04:33:29.001Z</time></trkpt><trkpt lat="-27.491645737083452" lon="115.29493246769655"><ele>233.0</ele><time>2026-04-15T04:33:30.001Z</time></trkpt><trkpt lat="-27.49139895966559" lon="115.29507199108342"><ele>229.0</ele><time>2026-04-15T04:33:31.001Z</time></trkpt><trkpt lat="-27.490909821300228" lon="115.29535321410341"><ele>229.0</ele><time>2026-04-15T04:33:33.001Z</time></trkpt><trkpt lat="-27.490663468157976" lon="115.29549887716689"><ele>229.0</ele><time>2026-04-15T04:33:34.001Z</time></trkpt><trkpt lat="-27.49042324559764" lon="115.29564009375659"><ele>231.5</ele><time>2026-04-15T04:33:35.001Z</time></trkpt><trkpt lat="-27.490184264761368" lon="115.29577723448337"><ele>234.0</ele><time>2026-04-15T04:33:36.001Z</time></trkpt><trkpt lat="-27.48994697029529" lon="115.29591279059281"><ele>234.0</ele><time>2026-04-15T04:33:37.001Z</time></trkpt><trkpt lat="-27.489708698634036" lon="115.29604942344257"><ele>234.0</ele><time>2026-04-15T04:33:38.001Z</time></trkpt><trkpt lat="-27.489473035060907" lon="115.29618814584236"><ele>232.5</ele><time>2026-04-15T04:33:39.001Z</time></trkpt><trkpt lat="-27.489236329259384" lon="115.29632439959973"><ele>231.0</ele><time>2026-04-15T04:33:40.001Z</time></trkpt><trkpt lat="-27.488996373095393" lon="115.29646096156489"><ele>231.0</ele><time>2026-04-15T04:33:41.001Z</time></trkpt><trkpt lat="-27.488759159800587" lon="115.29659749239124"><ele>231.0</ele><time>2026-04-15T04:33:42.001Z</time></trkpt><trkpt lat="-27.488523380551964" lon="115.2967320768289"><ele>231.0</ele><time>2026-04-15T04:33:43.001Z</time></trkpt><trkpt lat="-27.48828939317594" lon="115.29686633022686"><ele>231.0</ele><time>2026-04-15T04:33:44.001Z</time></trkpt><trkpt lat="-27.488052744007458" lon="115.29700017421551"><ele>230.5</ele><time>2026-04-15T04:33:45.001Z</time></trkpt><trkpt lat="-27.4878209353998" lon="115.29713479775583"><ele>230.0</ele><time>2026-04-15T04:33:46.001Z</time></trkpt><trkpt lat="-27.48758910582675" lon="115.29727085557595"><ele>229.5</ele><time>2026-04-15T04:33:47.001Z</time></trkpt><trkpt lat="-27.487358359383652" lon="115.29740527170348"><ele>229.0</ele><time>2026-04-15T04:33:48.001Z</time></trkpt><trkpt lat="-27.48712390987308" lon="115.29753796670862"><ele>229.5</ele><time>2026-04-15T04:33:49.001Z</time></trkpt><trkpt lat="-27.486892246424794" lon="115.29767122450401"><ele>230.0</ele><time>2026-04-15T04:33:50.001Z</time></trkpt><trkpt lat="-27.48665916641382" lon="115.29780654160714"><ele>230.0</ele><time>2026-04-15T04:33:51.001Z</time></trkpt><trkpt lat="-27.48643021469663" lon="115.29793837631668"><ele>230.0</ele><time>2026-04-15T04:33:52.002Z</time></trkpt><trkpt lat="-27.48597616879208" lon="115.29819783050122"><ele>231.0</ele><time>2026-04-15T04:33:54.002Z</time></trkpt><trkpt lat="-27.48575615140511" lon="115.29832537995759"><ele>232.0</ele><time>2026-04-15T04:33:55.002Z</time></trkpt><trkpt lat="-27.4855525634726" lon="115.29844185081075"><ele>231.0</ele><time>2026-04-15T04:33:56.002Z</time></trkpt><trkpt lat="-27.485360393748888" lon="115.29855517987343"><ele>230.0</ele><time>2026-04-15T04:33:57.002Z</time></trkpt><trkpt lat="-27.485170600933646" lon="115.29866512028688"><ele>229.0</ele><time>2026-04-15T04:33:58.002Z</time></trkpt><trkpt lat="-27.484986401471566" lon="115.2987722060297"><ele>229.0</ele><time>2026-04-15T04:33:59.002Z</time></trkpt><trkpt lat="-27.48480723042788" lon="115.29887273666732"><ele>229.0</ele><time>2026-04-15T04:34:00.002Z</time></trkpt><trkpt lat="-27.484630075408397" lon="115.29896797451825"><ele>229.0</ele><time>2026-04-15T04:34:01.002Z</time></trkpt><trkpt lat="-27.48446368413593" lon="115.29905594950894"><ele>229.0</ele><time>2026-04-15T04:34:02.002Z</time></trkpt><trkpt lat="-27.48428877383897" lon="115.29915039118738"><ele>229.0</ele><time>2026-04-15T04:34:03.002Z</time></trkpt><trkpt lat="-27.484103455443858" lon="115.29924916192395"><ele>229.0</ele><time>2026-04-15T04:34:04.002Z</time></trkpt><trkpt lat="-27.483915774382552" lon="115.29935162470552"><ele>229.0</ele><time>2026-04-15T04:34:05.002Z</time></trkpt><trkpt lat="-27.483722932472382" lon="115.29945830026318"><ele>229.0</ele><time>2026-04-15T04:34:06.002Z</time></trkpt><trkpt lat="-27.483525372507454" lon="115.29957176753724"><ele>229.0</ele><time>2026-04-15T04:34:07.002Z</time></trkpt><trkpt lat="-27.483321253523847" lon="115.29968853112749"><ele>229.5</ele><time>2026-04-15T04:34:08.002Z</time></trkpt><trkpt lat="-27.483117175922487" lon="115.29980854798856"><ele>230.0</ele><time>2026-04-15T04:34:09.002Z</time></trkpt><trkpt lat="-27.48291882736724" lon="115.29992851558796"><ele>230.0</ele><time>2026-04-15T04:34:10.002Z</time></trkpt><trkpt lat="-27.482727351610624" lon="115.30004230797547"><ele>230.0</ele><time>2026-04-15T04:34:11.002Z</time></trkpt><trkpt lat="-27.482544809939736" lon="115.30015237628307"><ele>230.0</ele><time>2026-04-15T04:34:12.002Z</time></trkpt><trkpt lat="-27.482365702099237" lon="115.3002672966915"><ele>230.0</ele><time>2026-04-15T04:34:13.002Z</time></trkpt><trkpt lat="-27.482032375222563" lon="115.30051868421413"><ele>230.0</ele><time>2026-04-15T04:34:15.002Z</time></trkpt><trkpt lat="-27.48189698134863" lon="115.30065186522073"><ele>230.0</ele><time>2026-04-15T04:34:16.002Z</time></trkpt><trkpt lat="-27.481784058571073" lon="115.30078766068732"><ele>230.0</ele><time>2026-04-15T04:34:17.002Z</time></trkpt><trkpt lat="-27.48170037645856" lon="115.30090631294796"><ele>230.0</ele><time>2026-04-15T04:34:18.002Z</time></trkpt><trkpt lat="-27.481640230566427" lon="115.301000767727"><ele>230.0</ele><time>2026-04-15T04:34:19.002Z</time></trkpt><trkpt lat="-27.481599621062646" lon="115.30107350678942"><ele>230.0</ele><time>2026-04-15T04:34:20.002Z</time></trkpt><trkpt lat="-27.481556459614673" lon="115.30113179003742"><ele>230.0</ele><time>2026-04-15T04:34:22.002Z</time></trkpt><trkpt lat="-27.48149355961135" lon="115.30121239302336"><ele>230.0</ele><time>2026-04-15T04:35:23.001Z</time></trkpt><trkpt lat="-27.481450752589144" lon="115.30142769125267"><ele>230.0</ele><time>2026-04-15T04:35:26.001Z</time></trkpt><trkpt lat="-27.481433143143732" lon="115.30152177229672"><ele>230.0</ele><time>2026-04-15T04:35:27.001Z</time></trkpt><trkpt lat="-27.48140683243494" lon="115.30162817195107"><ele>229.75</ele><time>2026-04-15T04:35:28.001Z</time></trkpt><trkpt lat="-27.481371463902022" lon="115.30174194134597"><ele>229.5</ele><time>2026-04-15T04:35:29.001Z</time></trkpt><trkpt lat="-27.481327211708464" lon="115.30186697156522"><ele>229.25</ele><time>2026-04-15T04:35:30.001Z</time></trkpt><trkpt lat="-27.481274411404446" lon="115.30200219214989"><ele>229.0</ele><time>2026-04-15T04:35:31.001Z</time></trkpt><trkpt lat="-27.48121593893418" lon="115.30214356485203"><ele>229.33333333333331</ele><time>2026-04-15T04:35:32.001Z</time></trkpt><trkpt lat="-27.481145338486893" lon="115.30230013520722"><ele>229.66666666666669</ele><time>2026-04-15T04:35:33.001Z</time></trkpt><trkpt lat="-27.481064443318676" lon="115.30247323602057"><ele>230.0</ele><time>2026-04-15T04:35:34.001Z</time></trkpt><trkpt lat="-27.48098330469984" lon="115.30265142053635"><ele>230.0</ele><time>2026-04-15T04:35:35.001Z</time></trkpt><trkpt lat="-27.480904485666247" lon="115.30283124353973"><ele>230.0</ele><time>2026-04-15T04:35:36.001Z</time></trkpt><trkpt lat="-27.480826785709695" lon="115.30301728296813"><ele>230.0</ele><time>2026-04-15T04:35:37.001Z</time></trkpt><trkpt lat="-27.48075780663794" lon="115.30320697900501"><ele>230.0</ele><time>2026-04-15T04:35:38.001Z</time></trkpt><trkpt lat="-27.480685241797552" lon="115.30341010082992"><ele>230.0</ele><time>2026-04-15T04:35:39.001Z</time></trkpt><trkpt lat="-27.480610210456945" lon="115.3036259366453"><ele>230.0</ele><time>2026-04-15T04:35:40.001Z</time></trkpt><trkpt lat="-27.480526684334887" lon="115.30385627044359"><ele>230.33333333333334</ele><time>2026-04-15T04:35:41.001Z</time></trkpt><trkpt lat="-27.48044362174944" lon="115.30408524616351"><ele>230.66666666666669</ele><time>2026-04-15T04:35:42.001Z</time></trkpt><trkpt lat="-27.480357213299" lon="115.30431165778006"><ele>231.0</ele><time>2026-04-15T04:35:43.001Z</time></trkpt><trkpt lat="-27.48027122885377" lon="115.30453815302927"><ele>230.5</ele><time>2026-04-15T04:35:44.001Z</time></trkpt><trkpt lat="-27.48009955227484" lon="115.30500214523862"><ele>230.0</ele><time>2026-04-15T04:35:46.001Z</time></trkpt><trkpt lat="-27.480016988817862" lon="115.30523618608954"><ele>230.0</ele><time>2026-04-15T04:35:47.001Z</time></trkpt><trkpt lat="-27.479935069769617" lon="115.30547128119697"><ele>230.0</ele><time>2026-04-15T04:35:48.001Z</time></trkpt><trkpt lat="-27.47985331960035" lon="115.30570416940068"><ele>230.0</ele><time>2026-04-15T04:35:49.001Z</time></trkpt><trkpt lat="-27.479772452543955" lon="115.30592858621615"><ele>229.66666666666669</ele><time>2026-04-15T04:35:50.001Z</time></trkpt><trkpt lat="-27.479686889979575" lon="115.30615124314627"><ele>229.33333333333331</ele><time>2026-04-15T04:35:51.001Z</time></trkpt><trkpt lat="-27.479603626029284" lon="115.30636716526179"><ele>229.0</ele><time>2026-04-15T04:35:52.001Z</time></trkpt><trkpt lat="-27.479520405802297" lon="115.30659036911139"><ele>229.0</ele><time>2026-04-15T04:35:53.001Z</time></trkpt><trkpt lat="-27.479436648677513" lon="115.30682105026345"><ele>229.0</ele><time>2026-04-15T04:35:54.001Z</time></trkpt><trkpt lat="-27.4793510640418" lon="115.30705181434209"><ele>229.0</ele><time>2026-04-15T04:35:55.001Z</time></trkpt><trkpt lat="-27.479263466628165" lon="115.30728486697033"><ele>229.0</ele><time>2026-04-15T04:35:56.001Z</time></trkpt><trkpt lat="-27.47917568299746" lon="115.3075205430245"><ele>229.0</ele><time>2026-04-15T04:35:57.001Z</time></trkpt><trkpt lat="-27.47908358256294" lon="115.30776624160417"><ele>229.0</ele><time>2026-04-15T04:35:58.001Z</time></trkpt><trkpt lat="-27.47899118906959" lon="115.30801307974392"><ele>229.0</ele><time>2026-04-15T04:35:59.001Z</time></trkpt><trkpt lat="-27.47890098340519" lon="115.30826004981812"><ele>229.5</ele><time>2026-04-15T04:36:00.001Z</time></trkpt><trkpt lat="-27.47881412136711" lon="115.30850036821737"><ele>230.0</ele><time>2026-04-15T04:36:01.001Z</time></trkpt><trkpt lat="-27.478726322110983" lon="115.308738945238"><ele>229.66666666666669</ele><time>2026-04-15T04:36:02.001Z</time></trkpt><trkpt lat="-27.47864532919269" lon="115.30896626633842"><ele>229.33333333333331</ele><time>2026-04-15T04:36:03.001Z</time></trkpt><trkpt lat="-27.478571467716183" lon="115.30918173321614"><ele>229.0</ele><time>2026-04-15T04:36:04.001Z</time></trkpt><trkpt lat="-27.47850198326722" lon="115.30938674702247"><ele>228.0</ele><time>2026-04-15T04:36:05.001Z</time></trkpt><trkpt lat="-27.478351642995058" lon="115.30979950426233"><ele>227.0</ele><time>2026-04-15T04:36:07.001Z</time></trkpt><trkpt lat="-27.478272017690013" lon="115.3100146999046"><ele>227.0</ele><time>2026-04-15T04:36:08.001Z</time></trkpt><trkpt lat="-27.478191780260552" lon="115.31024013243655"><ele>227.0</ele><time>2026-04-15T04:36:09.001Z</time></trkpt><trkpt lat="-27.478107460090513" lon="115.31047366849154"><ele>227.0</ele><time>2026-04-15T04:36:10.001Z</time></trkpt><trkpt lat="-27.478021906026044" lon="115.31070911014844"><ele>226.5</ele><time>2026-04-15T04:36:11.001Z</time></trkpt><trkpt lat="-27.477930402085274" lon="115.31095024188822"><ele>226.0</ele><time>2026-04-15T04:36:12.001Z</time></trkpt><trkpt lat="-27.47783768698594" lon="115.31120001112372"><ele>227.0</ele><time>2026-04-15T04:36:13.001Z</time></trkpt><trkpt lat="-27.47774681513663" lon="115.31144318530959"><ele>228.0</ele><time>2026-04-15T04:36:14.001Z</time></trkpt><trkpt lat="-27.477652406661946" lon="115.31168793583718"><ele>228.0</ele><time>2026-04-15T04:36:15.001Z</time></trkpt><trkpt lat="-27.477557573773563" lon="115.31193217427064"><ele>228.0</ele><time>2026-04-15T04:36:16.001Z</time></trkpt><trkpt lat="-27.47746333923689" lon="115.31217968085576"><ele>228.0</ele><time>2026-04-15T04:36:17.001Z</time></trkpt><trkpt lat="-27.477370325445282" lon="115.3124246491659"><ele>228.0</ele><time>2026-04-15T04:36:18.001Z</time></trkpt><trkpt lat="-27.477273853147636" lon="115.31266905448129"><ele>228.0</ele><time>2026-04-15T04:36:19.001Z</time></trkpt><trkpt lat="-27.47717871606206" lon="115.31290904139767"><ele>228.0</ele><time>2026-04-15T04:36:20.001Z</time></trkpt><trkpt lat="-27.477082608303345" lon="115.31314263025438"><ele>228.0</ele><time>2026-04-15T04:36:21.001Z</time></trkpt><trkpt lat="-27.476983924021695" lon="115.31338456687128"><ele>228.0</ele><time>2026-04-15T04:36:22.001Z</time></trkpt><trkpt lat="-27.476880669778193" lon="115.31364290679433"><ele>228.0</ele><time>2026-04-15T04:36:23.001Z</time></trkpt><trkpt lat="-27.476779332673882" lon="115.31389830380144"><ele>228.0</ele><time>2026-04-15T04:36:24.001Z</time></trkpt><trkpt lat="-27.476685445121582" lon="115.31415396520968"><ele>226.0</ele><time>2026-04-15T04:36:25.001Z</time></trkpt><trkpt lat="-27.476498782439716" lon="115.31465978549589"><ele>226.5</ele><time>2026-04-15T04:36:27.001Z</time></trkpt><trkpt lat="-27.47640618602502" lon="115.31490953703045"><ele>227.0</ele><time>2026-04-15T04:36:28.001Z</time></trkpt><trkpt lat="-27.47631269069469" lon="115.31516262113519"><ele>227.5</ele><time>2026-04-15T04:36:29.001Z</time></trkpt><trkpt lat="-27.476220613714812" lon="115.3154141285956"><ele>228.0</ele><time>2026-04-15T04:36:30.001Z</time></trkpt><trkpt lat="-27.476126744940206" lon="115.31566542226803"><ele>228.0</ele><time>2026-04-15T04:36:31.001Z</time></trkpt><trkpt lat="-27.476030096585777" lon="115.31591793885016"><ele>228.0</ele><time>2026-04-15T04:36:32.001Z</time></trkpt><trkpt lat="-27.475933459729237" lon="115.31616941593064"><ele>228.0</ele><time>2026-04-15T04:36:33.001Z</time></trkpt><trkpt lat="-27.47583735548134" lon="115.31642138398378"><ele>228.0</ele><time>2026-04-15T04:36:34.001Z</time></trkpt><trkpt lat="-27.475744371396317" lon="115.31667002242733"><ele>228.0</ele><time>2026-04-15T04:36:35.001Z</time></trkpt><trkpt lat="-27.47565206082262" lon="115.31691891027012"><ele>228.0</ele><time>2026-04-15T04:36:36.001Z</time></trkpt><trkpt lat="-27.475562339789718" lon="115.31716733282576"><ele>228.5</ele><time>2026-04-15T04:36:37.001Z</time></trkpt><trkpt lat="-27.475471224247993" lon="115.31741501410266"><ele>229.0</ele><time>2026-04-15T04:36:38.001Z</time></trkpt><trkpt lat="-27.475376060455467" lon="115.31766130679645"><ele>229.0</ele><time>2026-04-15T04:36:39.001Z</time></trkpt><trkpt lat="-27.47528152001102" lon="115.31790635504923"><ele>229.0</ele><time>2026-04-15T04:36:40.001Z</time></trkpt><trkpt lat="-27.475188949713072" lon="115.31814998354649"><ele>229.0</ele><time>2026-04-15T04:36:41.001Z</time></trkpt><trkpt lat="-27.47509823593912" lon="115.31839234155179"><ele>229.0</ele><time>2026-04-15T04:36:42.001Z</time></trkpt><trkpt lat="-27.475004761607444" lon="115.31864168008546"><ele>229.0</ele><time>2026-04-15T04:36:43.001Z</time></trkpt><trkpt lat="-27.474910518267453" lon="115.31889697989733"><ele>229.0</ele><time>2026-04-15T04:36:44.001Z</time></trkpt><trkpt lat="-27.474814115467893" lon="115.3191609836343"><ele>229.0</ele><time>2026-04-15T04:36:45.001Z</time></trkpt><trkpt lat="-27.474716635539266" lon="115.31942717660999"><ele>229.0</ele><time>2026-04-15T04:36:46.001Z</time></trkpt><trkpt lat="-27.474524478665803" lon="115.31995125586096"><ele>229.0</ele><time>2026-04-15T04:36:48.001Z</time></trkpt><trkpt lat="-27.474429541432958" lon="115.32020840786554"><ele>229.0</ele><time>2026-04-15T04:36:49.001Z</time></trkpt><trkpt lat="-27.47433444559987" lon="115.32046848691797"><ele>229.0</ele><time>2026-04-15T04:36:50.001Z</time></trkpt><trkpt lat="-27.47423792595951" lon="115.32072721613737"><ele>229.0</ele><time>2026-04-15T04:36:51.001Z</time></trkpt><trkpt lat="-27.474144583489554" lon="115.32098286841303"><ele>229.0</ele><time>2026-04-15T04:36:52.001Z</time></trkpt><trkpt lat="-27.474055308097462" lon="115.32123199442815"><ele>229.0</ele><time>2026-04-15T04:36:53.001Z</time></trkpt><trkpt lat="-27.473971827801932" lon="115.32147221868892"><ele>229.0</ele><time>2026-04-15T04:36:54.001Z</time></trkpt><trkpt lat="-27.473894758021597" lon="115.321710520355"><ele>229.0</ele><time>2026-04-15T04:36:55.001Z</time></trkpt><trkpt lat="-27.473826151315645" lon="115.32194961201665"><ele>229.0</ele><time>2026-04-15T04:36:56.001Z</time></trkpt><trkpt lat="-27.473763306912893" lon="115.3221926366045"><ele>230.0</ele><time>2026-04-15T04:36:57.001Z</time></trkpt><trkpt lat="-27.473705459555152" lon="115.32243347984209"><ele>231.0</ele><time>2026-04-15T04:36:58.001Z</time></trkpt><trkpt lat="-27.47365326529555" lon="115.3226791770465"><ele>232.0</ele><time>2026-04-15T04:36:59.001Z</time></trkpt><trkpt lat="-27.47360426003575" lon="115.32293289592721"><ele>231.5</ele><time>2026-04-15T04:37:00.001Z</time></trkpt><trkpt lat="-27.47355760486837" lon="115.3231836059979"><ele>231.0</ele><time>2026-04-15T04:37:01.001Z</time></trkpt><trkpt lat="-27.473509692449554" lon="115.32343525892892"><ele>231.0</ele><time>2026-04-15T04:37:02.001Z</time></trkpt><trkpt lat="-27.473461679715793" lon="115.32369034131686"><ele>231.0</ele><time>2026-04-15T04:37:03.001Z</time></trkpt><trkpt lat="-27.473413394009977" lon="115.32395272757212"><ele>231.0</ele><time>2026-04-15T04:37:04.001Z</time></trkpt><trkpt lat="-27.47336717234209" lon="115.32422266432488"><ele>231.0</ele><time>2026-04-15T04:37:05.001Z</time></trkpt><trkpt lat="-27.47332531292141" lon="115.3244924589774"><ele>231.0</ele><time>2026-04-15T04:37:06.001Z</time></trkpt><trkpt lat="-27.47326563727864" lon="115.32504037348221"><ele>231.0</ele><time>2026-04-15T04:37:08.001Z</time></trkpt><trkpt lat="-27.473249044813556" lon="115.32531796306245"><ele>231.0</ele><time>2026-04-15T04:37:09.001Z</time></trkpt><trkpt lat="-27.473246701691533" lon="115.32559132966551"><ele>232.0</ele><time>2026-04-15T04:37:10.001Z</time></trkpt><trkpt lat="-27.473250207993953" lon="115.32585450533443"><ele>233.0</ele><time>2026-04-15T04:37:11.001Z</time></trkpt><trkpt lat="-27.473260748579488" lon="115.32610102659217"><ele>233.0</ele><time>2026-04-15T04:37:12.001Z</time></trkpt><trkpt lat="-27.473270696113843" lon="115.32633186245722"><ele>233.0</ele><time>2026-04-15T04:37:13.001Z</time></trkpt><trkpt lat="-27.47327824066031" lon="115.32654709981226"><ele>233.0</ele><time>2026-04-15T04:37:14.001Z</time></trkpt><trkpt lat="-27.47328118154654" lon="115.32675058736726"><ele>232.0</ele><time>2026-04-15T04:37:15.001Z</time></trkpt><trkpt lat="-27.473278718791065" lon="115.32693598502432"><ele>231.0</ele><time>2026-04-15T04:37:16.001Z</time></trkpt><trkpt lat="-27.473268351854834" lon="115.32711115806642"><ele>230.0</ele><time>2026-04-15T04:37:17.001Z</time></trkpt><trkpt lat="-27.47324444487804" lon="115.3272715058088"><ele>230.0</ele><time>2026-04-15T04:37:18.001Z</time></trkpt><trkpt lat="-27.473209139486492" lon="115.32741384746477"><ele>230.0</ele><time>2026-04-15T04:37:19.001Z</time></trkpt><trkpt lat="-27.473163829324353" lon="115.32754952790852"><ele>230.0</ele><time>2026-04-15T04:37:20.001Z</time></trkpt><trkpt lat="-27.473105435857182" lon="115.32767470810441"><ele>230.0</ele><time>2026-04-15T04:37:21.001Z</time></trkpt><trkpt lat="-27.473033288473303" lon="115.32779817898408"><ele>230.0</ele><time>2026-04-15T04:37:22.001Z</time></trkpt><trkpt lat="-27.47294633485425" lon="115.32792412880583"><ele>230.0</ele><time>2026-04-15T04:37:23.001Z</time></trkpt><trkpt lat="-27.472861161403838" lon="115.32803729086773"><ele>230.0</ele><time>2026-04-15T04:37:24.001Z</time></trkpt><trkpt lat="-27.472755147195628" lon="115.32817053849105"><ele>230.0</ele><time>2026-04-15T04:37:25.001Z</time></trkpt><trkpt lat="-27.47264527057595" lon="115.32830585616219"><ele>231.0</ele><time>2026-04-15T04:37:26.001Z</time></trkpt><trkpt lat="-27.472412281133725" lon="115.32861176843912"><ele>232.0</ele><time>2026-04-15T04:37:28.001Z</time></trkpt><trkpt lat="-27.472287554176603" lon="115.3287771715048"><ele>232.33333333333331</ele><time>2026-04-15T04:37:29.001Z</time></trkpt><trkpt lat="-27.472151242607445" lon="115.32895053529506"><ele>232.66666666666669</ele><time>2026-04-15T04:37:30.001Z</time></trkpt><trkpt lat="-27.472007388472697" lon="115.32913404857963"><ele>233.0</ele><time>2026-04-15T04:37:31.001Z</time></trkpt><trkpt lat="-27.471863493661523" lon="115.32931203801876"><ele>233.0</ele><time>2026-04-15T04:37:32.001Z</time></trkpt><trkpt lat="-27.471719512968864" lon="115.32949348674701"><ele>233.0</ele><time>2026-04-15T04:37:33.001Z</time></trkpt><trkpt lat="-27.47157772809365" lon="115.32967973185836"><ele>233.0</ele><time>2026-04-15T04:37:34.001Z</time></trkpt><trkpt lat="-27.471425152940203" lon="115.32986451115913"><ele>232.5</ele><time>2026-04-15T04:37:35.001Z</time></trkpt><trkpt lat="-27.471263278898544" lon="115.33004424150181"><ele>232.0</ele><time>2026-04-15T04:37:36.001Z</time></trkpt><trkpt lat="-27.471094498196653" lon="115.33021979759758"><ele>232.0</ele><time>2026-04-15T04:37:37.001Z</time></trkpt><trkpt lat="-27.470909370744554" lon="115.33039101373521"><ele>232.0</ele><time>2026-04-15T04:37:38.001Z</time></trkpt><trkpt lat="-27.4707350096715" lon="115.33054220226323"><ele>232.33333333333331</ele><time>2026-04-15T04:37:39.001Z</time></trkpt><trkpt lat="-27.470573440789952" lon="115.33067882689053"><ele>232.66666666666669</ele><time>2026-04-15T04:37:40.001Z</time></trkpt><trkpt lat="-27.470415528347775" lon="115.33080820738707"><ele>233.0</ele><time>2026-04-15T04:37:41.001Z</time></trkpt><trkpt lat="-27.470248269551075" lon="115.33094644788233"><ele>233.33333333333334</ele><time>2026-04-15T04:37:42.001Z</time></trkpt><trkpt lat="-27.470069303842095" lon="115.33108242534368"><ele>233.66666666666669</ele><time>2026-04-15T04:37:43.001Z</time></trkpt><trkpt lat="-27.469905734472132" lon="115.33120432226869"><ele>234.0</ele><time>2026-04-15T04:37:44.001Z</time></trkpt><trkpt lat="-27.46974631436543" lon="115.33131870670576"><ele>235.0</ele><time>2026-04-15T04:37:45.001Z</time></trkpt><trkpt lat="-27.46958445229892" lon="115.33144053433865"><ele>236.0</ele><time>2026-04-15T04:37:46.001Z</time></trkpt><trkpt lat="-27.46942378798266" lon="115.33157040798311"><ele>237.0</ele><time>2026-04-15T04:37:47.001Z</time></trkpt><trkpt lat="-27.469093820910402" lon="115.33186065202564"><ele>237.0</ele><time>2026-04-15T04:37:49.001Z</time></trkpt><trkpt lat="-27.468929935464534" lon="115.33201453271779"><ele>237.0</ele><time>2026-04-15T04:37:50.001Z</time></trkpt><trkpt lat="-27.468766783078564" lon="115.33217672895438"><ele>237.0</ele><time>2026-04-15T04:37:51.001Z</time></trkpt><trkpt lat="-27.468606330432372" lon="115.33234879829529"><ele>236.33333333333331</ele><time>2026-04-15T04:37:52.001Z</time></trkpt><trkpt lat="-27.46845535040988" lon="115.33252706810266"><ele>235.66666666666666</ele><time>2026-04-15T04:37:53.001Z</time></trkpt><trkpt lat="-27.468320294835436" lon="115.3327040370239"><ele>235.0</ele><time>2026-04-15T04:37:54.001Z</time></trkpt><trkpt lat="-27.468206800188977" lon="115.33288124336886"><ele>235.66666666666666</ele><time>2026-04-15T04:37:55.001Z</time></trkpt><trkpt lat="-27.468108907595703" lon="115.33306997550409"><ele>236.33333333333331</ele><time>2026-04-15T04:37:56.001Z</time></trkpt><trkpt lat="-27.468018879298228" lon="115.33327248380405"><ele>237.0</ele><time>2026-04-15T04:37:57.001Z</time></trkpt><trkpt lat="-27.46794925968989" lon="115.33346548445391"><ele>237.0</ele><time>2026-04-15T04:37:58.001Z</time></trkpt><trkpt lat="-27.467896014845582" lon="115.33363967876295"><ele>237.0</ele><time>2026-04-15T04:37:59.001Z</time></trkpt><trkpt lat="-27.46785460098202" lon="115.33381741410372"><ele>237.0</ele><time>2026-04-15T04:38:00.001Z</time></trkpt><trkpt lat="-27.467830002183433" lon="115.33402632201498"><ele>236.33333333333331</ele><time>2026-04-15T04:38:01.001Z</time></trkpt><trkpt lat="-27.467809779893745" lon="115.3342582492749"><ele>235.66666666666666</ele><time>2026-04-15T04:38:02.001Z</time></trkpt><trkpt lat="-27.467795207512196" lon="115.33449579004633"><ele>235.0</ele><time>2026-04-15T04:38:03.001Z</time></trkpt><trkpt lat="-27.467788944350197" lon="115.33470596623998"><ele>235.33333333333331</ele><time>2026-04-15T04:38:04.001Z</time></trkpt><trkpt lat="-27.46777985886932" lon="115.33491754120632"><ele>235.66666666666669</ele><time>2026-04-15T04:38:05.001Z</time></trkpt><trkpt lat="-27.467768941141994" lon="115.33513345049928"><ele>236.0</ele><time>2026-04-15T04:38:06.001Z</time></trkpt><trkpt lat="-27.467758634943774" lon="115.33535105379701"><ele>235.0</ele><time>2026-04-15T04:38:07.001Z</time></trkpt><trkpt lat="-27.46773255950918" lon="115.33581629670537"><ele>234.0</ele><time>2026-04-15T04:38:09.001Z</time></trkpt><trkpt lat="-27.467717027918077" lon="115.33606395209651"><ele>234.0</ele><time>2026-04-15T04:38:10.001Z</time></trkpt><trkpt lat="-27.467698442425323" lon="115.33631915127408"><ele>234.0</ele><time>2026-04-15T04:38:11.001Z</time></trkpt><trkpt lat="-27.467677358119584" lon="115.33658391242724"><ele>234.5</ele><time>2026-04-15T04:38:12.001Z</time></trkpt><trkpt lat="-27.467657107204978" lon="115.33685270682479"><ele>235.0</ele><time>2026-04-15T04:38:13.001Z</time></trkpt><trkpt lat="-27.46763690806898" lon="115.33712068607892"><ele>236.0</ele><time>2026-04-15T04:38:14.001Z</time></trkpt><trkpt lat="-27.46761915514172" lon="115.33736608958337"><ele>237.0</ele><time>2026-04-15T04:38:15.001Z</time></trkpt><trkpt lat="-27.467602733979557" lon="115.33760319267229"><ele>238.0</ele><time>2026-04-15T04:38:16.001Z</time></trkpt><trkpt lat="-27.46758887898472" lon="115.33786711542942"><ele>235.5</ele><time>2026-04-15T04:38:17.001Z</time></trkpt><trkpt lat="-27.467577981541016" lon="115.33812202360384"><ele>233.0</ele><time>2026-04-15T04:38:18.001Z</time></trkpt><trkpt lat="-27.467564426640397" lon="115.33837597633509"><ele>233.0</ele><time>2026-04-15T04:38:19.001Z</time></trkpt><trkpt lat="-27.467549745248967" lon="115.33862809523104"><ele>233.0</ele><time>2026-04-15T04:38:20.001Z</time></trkpt><trkpt lat="-27.467531372266695" lon="115.33888173106739"><ele>233.0</ele><time>2026-04-15T04:38:21.001Z</time></trkpt><trkpt lat="-27.46751371885027" lon="115.33914780565131"><ele>233.0</ele><time>2026-04-15T04:38:22.001Z</time></trkpt><trkpt lat="-27.46749615334355" lon="115.3394212343513"><ele>233.0</ele><time>2026-04-15T04:38:23.001Z</time></trkpt><trkpt lat="-27.467479566340682" lon="115.33968920207722"><ele>233.0</ele><time>2026-04-15T04:38:24.001Z</time></trkpt><trkpt lat="-27.467463210159483" lon="115.33995520822236"><ele>234.0</ele><time>2026-04-15T04:38:25.001Z</time></trkpt><trkpt lat="-27.46744858813381" lon="115.34020013933282"><ele>235.0</ele><time>2026-04-15T04:38:26.001Z</time></trkpt><trkpt lat="-27.467432276051156" lon="115.34043672084881"><ele>236.0</ele><time>2026-04-15T04:38:27.001Z</time></trkpt><trkpt lat="-27.467412429962533" lon="115.34066863390093"><ele>236.0</ele><time>2026-04-15T04:38:28.001Z</time></trkpt><trkpt lat="-27.467377388892277" lon="115.34115110413917"><ele>236.0</ele><time>2026-04-15T04:38:30.001Z</time></trkpt><trkpt lat="-27.467362854663975" lon="115.34138418377563"><ele>236.0</ele><time>2026-04-15T04:38:31.001Z</time></trkpt><trkpt lat="-27.467348088330972" lon="115.34161959826606"><ele>236.0</ele><time>2026-04-15T04:38:32.001Z</time></trkpt><trkpt lat="-27.46733750063598" lon="115.3418464201101"><ele>236.0</ele><time>2026-04-15T04:38:33.001Z</time></trkpt><trkpt lat="-27.467330286571123" lon="115.34207284915843"><ele>235.0</ele><time>2026-04-15T04:38:34.001Z</time></trkpt><trkpt lat="-27.467329142649664" lon="115.342309385194"><ele>234.0</ele><time>2026-04-15T04:38:35.001Z</time></trkpt><trkpt lat="-27.467317447184772" lon="115.34255396540803"><ele>233.0</ele><time>2026-04-15T04:38:36Z</time></trkpt><trkpt lat="-27.46731252502752" lon="115.34276785070018"><ele>233.0</ele><time>2026-04-15T04:38:37Z</time></trkpt><trkpt lat="-27.46730570490372" lon="115.34297345568916"><ele>233.0</ele><time>2026-04-15T04:38:38Z</time></trkpt><trkpt lat="-27.46729556293218" lon="115.34316635994551"><ele>233.0</ele><time>2026-04-15T04:38:39Z</time></trkpt><trkpt lat="-27.46728402051485" lon="115.34336829872646"><ele>232.33333333333334</ele><time>2026-04-15T04:38:40Z</time></trkpt><trkpt lat="-27.46727506384637" lon="115.34358349085693"><ele>231.66666666666669</ele><time>2026-04-15T04:38:41Z</time></trkpt><trkpt lat="-27.467263910783753" lon="115.34377929889591"><ele>231.0</ele><time>2026-04-15T04:38:42Z</time></trkpt><trkpt lat="-27.467259261856494" lon="115.34396166475823"><ele>232.33333333333331</ele><time>2026-04-15T04:38:43Z</time></trkpt><trkpt lat="-27.467260748179026" lon="115.34413207295472"><ele>233.66666666666666</ele><time>2026-04-15T04:38:44Z</time></trkpt><trkpt lat="-27.467267110072076" lon="115.34430129304543"><ele>235.0</ele><time>2026-04-15T04:38:45Z</time></trkpt><trkpt lat="-27.467276642644116" lon="115.34447247447123"><ele>235.0</ele><time>2026-04-15T04:38:46Z</time></trkpt><trkpt lat="-27.467291564891834" lon="115.34464740601705"><ele>235.0</ele><time>2026-04-15T04:38:47Z</time></trkpt><trkpt lat="-27.467309499485584" lon="115.34482948531932"><ele>235.0</ele><time>2026-04-15T04:38:48Z</time></trkpt><trkpt lat="-27.467331181011538" lon="115.34501447235517"><ele>235.0</ele><time>2026-04-15T04:38:49Z</time></trkpt><trkpt lat="-27.467374434123258" lon="115.34539895042737"><ele>235.0</ele><time>2026-04-15T04:38:51Z</time></trkpt><trkpt lat="-27.46739715665439" lon="115.34559813779791"><ele>235.33333333333331</ele><time>2026-04-15T04:38:52Z</time></trkpt><trkpt lat="-27.467416799586523" lon="115.34578964936428"><ele>235.66666666666669</ele><time>2026-04-15T04:38:53Z</time></trkpt><trkpt lat="-27.467436935425066" lon="115.34597299694416"><ele>236.0</ele><time>2026-04-15T04:38:54Z</time></trkpt><trkpt lat="-27.46745364792264" lon="115.346159637596"><ele>236.0</ele><time>2026-04-15T04:38:55Z</time></trkpt><trkpt lat="-27.467461312565884" lon="115.34634477223518"><ele>236.0</ele><time>2026-04-15T04:38:56Z</time></trkpt><trkpt lat="-27.46745515884144" lon="115.34653236962752"><ele>236.0</ele><time>2026-04-15T04:38:57Z</time></trkpt><trkpt lat="-27.467437922837025" lon="115.34672778066812"><ele>236.0</ele><time>2026-04-15T04:38:58.001Z</time></trkpt><trkpt lat="-27.4674117305841" lon="115.34692480124225"><ele>236.0</ele><time>2026-04-15T04:38:59.001Z</time></trkpt><trkpt lat="-27.46737082861457" lon="115.34712903526761"><ele>236.0</ele><time>2026-04-15T04:39:00.001Z</time></trkpt><trkpt lat="-27.467320259998285" lon="115.34733873621504"><ele>236.33333333333334</ele><time>2026-04-15T04:39:01.001Z</time></trkpt><trkpt lat="-27.46726103152683" lon="115.34754965805621"><ele>236.66666666666669</ele><time>2026-04-15T04:39:02.001Z</time></trkpt><trkpt lat="-27.46720483796326" lon="115.34776425779565"><ele>237.0</ele><time>2026-04-15T04:39:03.001Z</time></trkpt><trkpt lat="-27.4671503470395" lon="115.34798733459583"><ele>236.66666666666669</ele><time>2026-04-15T04:39:04.001Z</time></trkpt><trkpt lat="-27.467090430828076" lon="115.3482118622195"><ele>236.33333333333334</ele><time>2026-04-15T04:39:05.001Z</time></trkpt><trkpt lat="-27.467019438730933" lon="115.34843689264555"><ele>236.0</ele><time>2026-04-15T04:39:06.001Z</time></trkpt><trkpt lat="-27.466937442585774" lon="115.34866171167036"><ele>236.0</ele><time>2026-04-15T04:39:07.001Z</time></trkpt><trkpt lat="-27.466853252319403" lon="115.34888264583537"><ele>236.0</ele><time>2026-04-15T04:39:08.001Z</time></trkpt><trkpt lat="-27.466768894529437" lon="115.34910471689086"><ele>236.0</ele><time>2026-04-15T04:39:09.001Z</time></trkpt><trkpt lat="-27.466687297318845" lon="115.34932498466604"><ele>235.0</ele><time>2026-04-15T04:39:10.001Z</time></trkpt><trkpt lat="-27.466521182022692" lon="115.34977014619064"><ele>234.0</ele><time>2026-04-15T04:39:12.001Z</time></trkpt><trkpt lat="-27.466440311302573" lon="115.34998791910346"><ele>234.0</ele><time>2026-04-15T04:39:13.001Z</time></trkpt><trkpt lat="-27.466357974911443" lon="115.35020769016205"><ele>234.0</ele><time>2026-04-15T04:39:14.001Z</time></trkpt><trkpt lat="-27.466268897564976" lon="115.35042779909234"><ele>234.0</ele><time>2026-04-15T04:39:15.001Z</time></trkpt><trkpt lat="-27.466173447152435" lon="115.35065249202096"><ele>235.5</ele><time>2026-04-15T04:39:16.001Z</time></trkpt><trkpt lat="-27.4660698089892" lon="115.35088343006458"><ele>237.0</ele><time>2026-04-15T04:39:17.001Z</time></trkpt><trkpt lat="-27.465952202993044" lon="115.35112224049828"><ele>237.0</ele><time>2026-04-15T04:39:18.001Z</time></trkpt><trkpt lat="-27.46582674485526" lon="115.35136487061202"><ele>237.0</ele><time>2026-04-15T04:39:19.001Z</time></trkpt><trkpt lat="-27.465696707320102" lon="115.35159789290906"><ele>236.5</ele><time>2026-04-15T04:39:20.001Z</time></trkpt><trkpt lat="-27.465555338460373" lon="115.3518208408788"><ele>236.0</ele><time>2026-04-15T04:39:21.001Z</time></trkpt><trkpt lat="-27.465402332538613" lon="115.35204127955446"><ele>236.5</ele><time>2026-04-15T04:39:22.001Z</time></trkpt><trkpt lat="-27.465243479399106" lon="115.35225876951284"><ele>237.0</ele><time>2026-04-15T04:39:23.001Z</time></trkpt><trkpt lat="-27.465084130047632" lon="115.3524771466048"><ele>237.0</ele><time>2026-04-15T04:39:24.001Z</time></trkpt><trkpt lat="-27.46491700080558" lon="115.35269680938774"><ele>237.0</ele><time>2026-04-15T04:39:25.001Z</time></trkpt><trkpt lat="-27.464735902077575" lon="115.3529164010267"><ele>236.5</ele><time>2026-04-15T04:39:26.001Z</time></trkpt><trkpt lat="-27.464542302520087" lon="115.35313828501772"><ele>236.0</ele><time>2026-04-15T04:39:27.001Z</time></trkpt><trkpt lat="-27.464338523755547" lon="115.35336338140803"><ele>236.0</ele><time>2026-04-15T04:39:28.001Z</time></trkpt><trkpt lat="-27.464137358013392" lon="115.35358624440474"><ele>236.0</ele><time>2026-04-15T04:39:29.001Z</time></trkpt><trkpt lat="-27.463948486193043" lon="115.35379673716706"><ele>236.5</ele><time>2026-04-15T04:39:30.001Z</time></trkpt><trkpt lat="-27.463768579317904" lon="115.35399467848617"><ele>237.0</ele><time>2026-04-15T04:39:31.001Z</time></trkpt><trkpt lat="-27.463429817353777" lon="115.35437889662855"><ele>237.0</ele><time>2026-04-15T04:39:33.001Z</time></trkpt><trkpt lat="-27.46326259919721" lon="115.35457298995587"><ele>237.0</ele><time>2026-04-15T04:39:34.001Z</time></trkpt><trkpt lat="-27.463094632467804" lon="115.35476343947778"><ele>238.0</ele><time>2026-04-15T04:39:35.001Z</time></trkpt><trkpt lat="-27.462938415061004" lon="115.35494002266414"><ele>239.0</ele><time>2026-04-15T04:39:36.001Z</time></trkpt><trkpt lat="-27.462795317842282" lon="115.35510854661888"><ele>240.0</ele><time>2026-04-15T04:39:37.001Z</time></trkpt><trkpt lat="-27.462656640995274" lon="115.35528345367354"><ele>240.0</ele><time>2026-04-15T04:39:38.001Z</time></trkpt><trkpt lat="-27.46251265004314" lon="115.3554769483924"><ele>240.0</ele><time>2026-04-15T04:39:39.001Z</time></trkpt><trkpt lat="-27.46237181332049" lon="115.35568061031324"><ele>239.0</ele><time>2026-04-15T04:39:40.001Z</time></trkpt><trkpt lat="-27.462235263757716" lon="115.35589286336237"><ele>238.0</ele><time>2026-04-15T04:39:41.001Z</time></trkpt><trkpt lat="-27.46209916596211" lon="115.35611183512601"><ele>238.0</ele><time>2026-04-15T04:39:42.001Z</time></trkpt><trkpt lat="-27.461964340235028" lon="115.35633385982236"><ele>238.0</ele><time>2026-04-15T04:39:43.001Z</time></trkpt><trkpt lat="-27.46182633832949" lon="115.35655394881528"><ele>238.0</ele><time>2026-04-15T04:39:44.001Z</time></trkpt><trkpt lat="-27.461684287615" lon="115.35677612468922"><ele>238.0</ele><time>2026-04-15T04:39:45.001Z</time></trkpt><trkpt lat="-27.461542447237115" lon="115.35699914596667"><ele>237.5</ele><time>2026-04-15T04:39:46.001Z</time></trkpt><trkpt lat="-27.461403200921545" lon="115.35721647411486"><ele>237.0</ele><time>2026-04-15T04:39:47.001Z</time></trkpt><trkpt lat="-27.461263287384345" lon="115.35743261933116"><ele>237.0</ele><time>2026-04-15T04:39:48.001Z</time></trkpt><trkpt lat="-27.46112135922459" lon="115.35764538056782"><ele>237.0</ele><time>2026-04-15T04:39:49.001Z</time></trkpt><trkpt lat="-27.46097645424197" lon="115.35785622922027"><ele>237.5</ele><time>2026-04-15T04:39:50.001Z</time></trkpt><trkpt lat="-27.460823135767505" lon="115.35806575791291"><ele>238.0</ele><time>2026-04-15T04:39:51.001Z</time></trkpt><trkpt lat="-27.46066178653143" lon="115.35827581921919"><ele>239.0</ele><time>2026-04-15T04:39:52.001Z</time></trkpt><trkpt lat="-27.460320658689174" lon="115.35869703111777"><ele>239.5</ele><time>2026-04-15T04:39:54.001Z</time></trkpt><trkpt lat="-27.460140635170852" lon="115.35891049569096"><ele>240.0</ele><time>2026-04-15T04:39:55.001Z</time></trkpt><trkpt lat="-27.459963313752777" lon="115.3591195058071"><ele>240.0</ele><time>2026-04-15T04:39:56.001Z</time></trkpt><trkpt lat="-27.459780368710593" lon="115.35932697893871"><ele>240.0</ele><time>2026-04-15T04:39:57.001Z</time></trkpt><trkpt lat="-27.45959613809535" lon="115.35952808829865"><ele>241.0</ele><time>2026-04-15T04:39:58.001Z</time></trkpt><trkpt lat="-27.4594090172836" lon="115.35972676721487"><ele>242.0</ele><time>2026-04-15T04:39:59.001Z</time></trkpt><trkpt lat="-27.459219352969548" lon="115.35992948902944"><ele>242.0</ele><time>2026-04-15T04:40:00.001Z</time></trkpt><trkpt lat="-27.459027988663657" lon="115.36012731792964"><ele>242.0</ele><time>2026-04-15T04:40:01.001Z</time></trkpt><trkpt lat="-27.458839659026822" lon="115.36031037080751"><ele>241.0</ele><time>2026-04-15T04:40:02.001Z</time></trkpt><trkpt lat="-27.458640487141295" lon="115.36048217911703"><ele>240.0</ele><time>2026-04-15T04:40:03.001Z</time></trkpt><trkpt lat="-27.458432125074445" lon="115.36064820232004"><ele>240.0</ele><time>2026-04-15T04:40:04.001Z</time></trkpt><trkpt lat="-27.458229782148795" lon="115.36080364561023"><ele>240.0</ele><time>2026-04-15T04:40:05.001Z</time></trkpt><trkpt lat="-27.45803592889482" lon="115.36094416726648"><ele>240.5</ele><time>2026-04-15T04:40:06.001Z</time></trkpt><trkpt lat="-27.457837073669598" lon="115.36107926862049"><ele>241.0</ele><time>2026-04-15T04:40:07.001Z</time></trkpt><trkpt lat="-27.457637032913585" lon="115.36120344057278"><ele>241.0</ele><time>2026-04-15T04:40:08.001Z</time></trkpt><trkpt lat="-27.45743559830806" lon="115.36132470970504"><ele>241.0</ele><time>2026-04-15T04:40:09.001Z</time></trkpt><trkpt lat="-27.457225181408706" lon="115.36145085639362"><ele>241.0</ele><time>2026-04-15T04:40:10.001Z</time></trkpt><trkpt lat="-27.45700739600732" lon="115.36158215471595"><ele>241.0</ele><time>2026-04-15T04:40:11.001Z</time></trkpt><trkpt lat="-27.456793577982104" lon="115.36171174474207"><ele>241.0</ele><time>2026-04-15T04:40:12.001Z</time></trkpt><trkpt lat="-27.456582029674074" lon="115.3618438060676"><ele>241.0</ele><time>2026-04-15T04:40:13.001Z</time></trkpt><trkpt lat="-27.456152381372153" lon="115.3621180283538"><ele>240.5</ele><time>2026-04-15T04:40:15.001Z</time></trkpt><trkpt lat="-27.45593677549138" lon="115.36226017282107"><ele>240.0</ele><time>2026-04-15T04:40:16.001Z</time></trkpt><trkpt lat="-27.455722548805852" lon="115.36240153815993"><ele>240.0</ele><time>2026-04-15T04:40:17.001Z</time></trkpt><trkpt lat="-27.45550890392101" lon="115.36254733434255"><ele>240.0</ele><time>2026-04-15T04:40:18.001Z</time></trkpt><trkpt lat="-27.455293808709868" lon="115.36269638960047"><ele>239.5</ele><time>2026-04-15T04:40:19.001Z</time></trkpt><trkpt lat="-27.45507849712384" lon="115.3628423248247"><ele>239.0</ele><time>2026-04-15T04:40:20.001Z</time></trkpt><trkpt lat="-27.45485951494259" lon="115.36298615237389"><ele>240.0</ele><time>2026-04-15T04:40:21.001Z</time></trkpt><trkpt lat="-27.45463792488319" lon="115.36312675402931"><ele>241.0</ele><time>2026-04-15T04:40:22.001Z</time></trkpt><trkpt lat="-27.454412624781025" lon="115.36326400430129"><ele>241.5</ele><time>2026-04-15T04:40:23.001Z</time></trkpt><trkpt lat="-27.454184235992088" lon="115.36339914443303"><ele>242.0</ele><time>2026-04-15T04:40:24.001Z</time></trkpt><trkpt lat="-27.45395722605362" lon="115.36353095780606"><ele>242.0</ele><time>2026-04-15T04:40:25.001Z</time></trkpt><trkpt lat="-27.453727766997954" lon="115.36366180189954"><ele>242.0</ele><time>2026-04-15T04:40:26.001Z</time></trkpt><trkpt lat="-27.45349460907021" lon="115.36379224111529"><ele>240.0</ele><time>2026-04-15T04:40:27.001Z</time></trkpt><trkpt lat="-27.453265575979184" lon="115.36392061453465"><ele>238.0</ele><time>2026-04-15T04:40:28.001Z</time></trkpt><trkpt lat="-27.453038548598943" lon="115.3640502321582"><ele>240.0</ele><time>2026-04-15T04:40:29.001Z</time></trkpt><trkpt lat="-27.452812995978313" lon="115.36418093742711"><ele>242.0</ele><time>2026-04-15T04:40:30.001Z</time></trkpt><trkpt lat="-27.452589990957755" lon="115.36431432734776"><ele>242.0</ele><time>2026-04-15T04:40:31.001Z</time></trkpt><trkpt lat="-27.45236552909658" lon="115.36445794183699"><ele>242.0</ele><time>2026-04-15T04:40:32.001Z</time></trkpt><trkpt lat="-27.452139898452433" lon="115.3646058580508"><ele>241.5</ele><time>2026-04-15T04:40:33.001Z</time></trkpt><trkpt lat="-27.451915769470183" lon="115.36475426639478"><ele>241.0</ele><time>2026-04-15T04:40:34.001Z</time></trkpt><trkpt lat="-27.45146746842535" lon="115.3650433181176"><ele>241.5</ele><time>2026-04-15T04:40:36.001Z</time></trkpt><trkpt lat="-27.451241324723703" lon="115.36517849607563"><ele>242.0</ele><time>2026-04-15T04:40:37.001Z</time></trkpt><trkpt lat="-27.451015523876368" lon="115.36531102845483"><ele>242.0</ele><time>2026-04-15T04:40:38.001Z</time></trkpt><trkpt lat="-27.45078718777253" lon="115.36544086766838"><ele>242.0</ele><time>2026-04-15T04:40:39.001Z</time></trkpt><trkpt lat="-27.450559217182423" lon="115.36556767574844"><ele>242.0</ele><time>2026-04-15T04:40:40.001Z</time></trkpt><trkpt lat="-27.450328731404742" lon="115.36569223868489"><ele>242.0</ele><time>2026-04-15T04:40:41.001Z</time></trkpt><trkpt lat="-27.450096987434595" lon="115.36582211333206"><ele>242.0</ele><time>2026-04-15T04:40:42Z</time></trkpt><trkpt lat="-27.449867427093036" lon="115.36595132938355"><ele>242.0</ele><time>2026-04-15T04:40:43Z</time></trkpt><trkpt lat="-27.449636626514117" lon="115.36608246313192"><ele>241.0</ele><time>2026-04-15T04:40:44Z</time></trkpt><trkpt lat="-27.449405398602092" lon="115.36621536945569"><ele>240.0</ele><time>2026-04-15T04:40:45Z</time></trkpt><trkpt lat="-27.449171540844922" lon="115.36634875621986"><ele>241.0</ele><time>2026-04-15T04:40:46Z</time></trkpt><trkpt lat="-27.44894160624029" lon="115.36647408141327"><ele>242.0</ele><time>2026-04-15T04:40:47Z</time></trkpt><trkpt lat="-27.44872670895759" lon="115.36659027968396"><ele>242.0</ele><time>2026-04-15T04:40:48Z</time></trkpt><trkpt lat="-27.44851687892627" lon="115.36670637022578"><ele>242.0</ele><time>2026-04-15T04:40:49Z</time></trkpt><trkpt lat="-27.448305606882588" lon="115.36682188566586"><ele>242.0</ele><time>2026-04-15T04:40:50Z</time></trkpt><trkpt lat="-27.44808836101722" lon="115.3669458939853"><ele>242.0</ele><time>2026-04-15T04:40:51Z</time></trkpt><trkpt lat="-27.447869817776205" lon="115.3670710963209"><ele>242.5</ele><time>2026-04-15T04:40:52Z</time></trkpt><trkpt lat="-27.44765582719664" lon="115.36719669454284"><ele>243.0</ele><time>2026-04-15T04:40:53Z</time></trkpt><trkpt lat="-27.447435864282646" lon="115.3673278673989"><ele>243.0</ele><time>2026-04-15T04:40:54Z</time></trkpt><trkpt lat="-27.447215788601756" lon="115.36745983646304"><ele>243.0</ele><time>2026-04-15T04:40:55Z</time></trkpt><trkpt lat="-27.446770544619778" lon="115.36772518827145"><ele>244.0</ele><time>2026-04-15T04:40:57Z</time></trkpt><trkpt lat="-27.44654645917569" lon="115.36785596217389"><ele>245.0</ele><time>2026-04-15T04:40:58Z</time></trkpt><trkpt lat="-27.446321418387146" lon="115.36798682721734"><ele>245.0</ele><time>2026-04-15T04:40:59Z</time></trkpt><trkpt lat="-27.446096284168874" lon="115.36811678290557"><ele>245.0</ele><time>2026-04-15T04:41:00Z</time></trkpt><trkpt lat="-27.445869576096143" lon="115.3682466435995"><ele>245.0</ele><time>2026-04-15T04:41:01Z</time></trkpt><trkpt lat="-27.445640430149975" lon="115.36837672035591"><ele>245.0</ele><time>2026-04-15T04:41:02.001Z</time></trkpt><trkpt lat="-27.445413333506337" lon="115.36850572377243"><ele>245.5</ele><time>2026-04-15T04:41:03.001Z</time></trkpt><trkpt lat="-27.44518713704733" lon="115.36863187219903"><ele>246.0</ele><time>2026-04-15T04:41:04.001Z</time></trkpt><trkpt lat="-27.44496348749004" lon="115.3687591365856"><ele>245.5</ele><time>2026-04-15T04:41:05.001Z</time></trkpt><trkpt lat="-27.444739723862238" lon="115.3688849503858"><ele>245.0</ele><time>2026-04-15T04:41:06.001Z</time></trkpt><trkpt lat="-27.444513884648483" lon="115.36901101316748"><ele>246.5</ele><time>2026-04-15T04:41:07.001Z</time></trkpt><trkpt lat="-27.44429032467394" lon="115.36913696698304"><ele>248.0</ele><time>2026-04-15T04:41:08.001Z</time></trkpt><trkpt lat="-27.44406473297443" lon="115.36926328455279"><ele>248.0</ele><time>2026-04-15T04:41:09.001Z</time></trkpt><trkpt lat="-27.44384185807529" lon="115.36939007115787"><ele>248.0</ele><time>2026-04-15T04:41:10.001Z</time></trkpt><trkpt lat="-27.44361348944713" lon="115.36951706977982"><ele>246.5</ele><time>2026-04-15T04:41:11.001Z</time></trkpt><trkpt lat="-27.443380291222567" lon="115.36964116610524"><ele>245.0</ele><time>2026-04-15T04:41:12.001Z</time></trkpt><trkpt lat="-27.443144031290423" lon="115.36976356142507"><ele>246.5</ele><time>2026-04-15T04:41:13.001Z</time></trkpt><trkpt lat="-27.442908607473072" lon="115.36988770550019"><ele>248.0</ele><time>2026-04-15T04:41:14.001Z</time></trkpt><trkpt lat="-27.442675332946553" lon="115.37000957256858"><ele>248.0</ele><time>2026-04-15T04:41:15.001Z</time></trkpt><trkpt lat="-27.44245299917369" lon="115.37012714917432"><ele>248.0</ele><time>2026-04-15T04:41:16.001Z</time></trkpt><trkpt lat="-27.442062998333046" lon="115.37032587654122"><ele>247.66666666666669</ele><time>2026-04-15T04:41:18.001Z</time></trkpt><trkpt lat="-27.441871769735535" lon="115.37042170777772"><ele>247.33333333333331</ele><time>2026-04-15T04:41:19.001Z</time></trkpt><trkpt lat="-27.441669220961046" lon="115.37051940045114"><ele>247.0</ele><time>2026-04-15T04:41:20.001Z</time></trkpt><trkpt lat="-27.4414575227212" lon="115.37061783905162"><ele>248.0</ele><time>2026-04-15T04:41:21.001Z</time></trkpt><trkpt lat="-27.441242702158476" lon="115.37071645991358"><ele>249.0</ele><time>2026-04-15T04:41:22.001Z</time></trkpt><trkpt lat="-27.44101890033059" lon="115.37081934689415"><ele>249.0</ele><time>2026-04-15T04:41:23.001Z</time></trkpt><trkpt lat="-27.44078923875232" lon="115.3709281438657"><ele>249.0</ele><time>2026-04-15T04:41:24.001Z</time></trkpt><trkpt lat="-27.440558611387807" lon="115.37103997795398"><ele>249.0</ele><time>2026-04-15T04:41:25.001Z</time></trkpt><trkpt lat="-27.4403259635313" lon="115.37115372764232"><ele>249.0</ele><time>2026-04-15T04:41:26.001Z</time></trkpt><trkpt lat="-27.440096307540944" lon="115.37126403573944"><ele>249.5</ele><time>2026-04-15T04:41:27.001Z</time></trkpt><trkpt lat="-27.439858761579302" lon="115.37136607604687"><ele>250.0</ele><time>2026-04-15T04:41:28.001Z</time></trkpt><trkpt lat="-27.43961461130468" lon="115.3714585492857"><ele>250.0</ele><time>2026-04-15T04:41:29.001Z</time></trkpt><trkpt lat="-27.439370283041146" lon="115.37154487655744"><ele>250.0</ele><time>2026-04-15T04:41:30.001Z</time></trkpt><trkpt lat="-27.43912780678176" lon="115.37163590920588"><ele>250.0</ele><time>2026-04-15T04:41:31.001Z</time></trkpt><trkpt lat="-27.438889703218717" lon="115.37173617907983"><ele>250.0</ele><time>2026-04-15T04:41:32.001Z</time></trkpt><trkpt lat="-27.438655150754194" lon="115.37183972862061"><ele>249.5</ele><time>2026-04-15T04:41:33.001Z</time></trkpt><trkpt lat="-27.43843172260325" lon="115.3719490268665"><ele>249.0</ele><time>2026-04-15T04:41:34.001Z</time></trkpt><trkpt lat="-27.438208224733707" lon="115.37207227037293"><ele>249.5</ele><time>2026-04-15T04:41:35.001Z</time></trkpt><trkpt lat="-27.437975717048936" lon="115.37221187473897"><ele>250.0</ele><time>2026-04-15T04:41:36.001Z</time></trkpt><trkpt lat="-27.437736248169625" lon="115.37235769351932"><ele>250.0</ele><time>2026-04-15T04:41:37.001Z</time></trkpt><trkpt lat="-27.437257758637543" lon="115.37264428495205"><ele>248.5</ele><time>2026-04-15T04:41:39.001Z</time></trkpt><trkpt lat="-27.437018346086163" lon="115.372776541576"><ele>247.0</ele><time>2026-04-15T04:41:40.001Z</time></trkpt><trkpt lat="-27.436777030064828" lon="115.37290086228373"><ele>247.0</ele><time>2026-04-15T04:41:41.001Z</time></trkpt><trkpt lat="-27.436536320456586" lon="115.37301922665935"><ele>247.0</ele><time>2026-04-15T04:41:42.001Z</time></trkpt><trkpt lat="-27.436297467443072" lon="115.37313764107532"><ele>246.5</ele><time>2026-04-15T04:41:43.001Z</time></trkpt><trkpt lat="-27.436059003350177" lon="115.37325679053465"><ele>246.0</ele><time>2026-04-15T04:41:44.001Z</time></trkpt><trkpt lat="-27.43582648019573" lon="115.37337822883144"><ele>246.0</ele><time>2026-04-15T04:41:45.001Z</time></trkpt><trkpt lat="-27.43560516291659" lon="115.37348980425664"><ele>246.0</ele><time>2026-04-15T04:41:46.001Z</time></trkpt><trkpt lat="-27.435399262778763" lon="115.37359462734386"><ele>246.5</ele><time>2026-04-15T04:41:47.001Z</time></trkpt><trkpt lat="-27.435197457324275" lon="115.37370546809902"><ele>247.0</ele><time>2026-04-15T04:41:48.001Z</time></trkpt><trkpt lat="-27.434981568355216" lon="115.3738271923289"><ele>246.5</ele><time>2026-04-15T04:41:49.001Z</time></trkpt><trkpt lat="-27.434764955199032" lon="115.37395658274407"><ele>246.0</ele><time>2026-04-15T04:41:50.001Z</time></trkpt><trkpt lat="-27.434545036372388" lon="115.37409206148958"><ele>246.0</ele><time>2026-04-15T04:41:51.001Z</time></trkpt><trkpt lat="-27.4343249533908" lon="115.37423513174623"><ele>246.0</ele><time>2026-04-15T04:41:52.001Z</time></trkpt><trkpt lat="-27.434098966514203" lon="115.3743833955963"><ele>246.0</ele><time>2026-04-15T04:41:53.001Z</time></trkpt><trkpt lat="-27.43387619066968" lon="115.37453858525578"><ele>246.0</ele><time>2026-04-15T04:41:54.001Z</time></trkpt><trkpt lat="-27.433656749822855" lon="115.37470094730412"><ele>249.0</ele><time>2026-04-15T04:41:55.001Z</time></trkpt><trkpt lat="-27.43343732917143" lon="115.37486957625813"><ele>252.0</ele><time>2026-04-15T04:41:56.001Z</time></trkpt><trkpt lat="-27.433217074737254" lon="115.37504087451133"><ele>252.0</ele><time>2026-04-15T04:41:57.001Z</time></trkpt><trkpt lat="-27.432999051731404" lon="115.37521348184238"><ele>252.0</ele><time>2026-04-15T04:41:58.001Z</time></trkpt><trkpt lat="-27.432567533617046" lon="115.37557033562015"><ele>252.5</ele><time>2026-04-15T04:42:00.001Z</time></trkpt><trkpt lat="-27.432359153902482" lon="115.37575006602825"><ele>253.0</ele><time>2026-04-15T04:42:01.001Z</time></trkpt><trkpt lat="-27.432152768639963" lon="115.37593122466302"><ele>253.5</ele><time>2026-04-15T04:42:02.001Z</time></trkpt><trkpt lat="-27.431951548981026" lon="115.37610953643298"><ele>254.0</ele><time>2026-04-15T04:42:03.001Z</time></trkpt><trkpt lat="-27.431752872741725" lon="115.37629752878978"><ele>253.5</ele><time>2026-04-15T04:42:04.001Z</time></trkpt><trkpt lat="-27.431560633200405" lon="115.3764937905304"><ele>253.0</ele><time>2026-04-15T04:42:05.001Z</time></trkpt><trkpt lat="-27.431372438904656" lon="115.37669930495703"><ele>252.5</ele><time>2026-04-15T04:42:06.001Z</time></trkpt><trkpt lat="-27.431187818133584" lon="115.37691500735542"><ele>252.0</ele><time>2026-04-15T04:42:07.001Z</time></trkpt><trkpt lat="-27.43100849794376" lon="115.37713998074064"><ele>250.5</ele><time>2026-04-15T04:42:08.001Z</time></trkpt><trkpt lat="-27.43083200168729" lon="115.37737351100544"><ele>249.0</ele><time>2026-04-15T04:42:09.001Z</time></trkpt><trkpt lat="-27.43066194396925" lon="115.37761162333568"><ele>249.0</ele><time>2026-04-15T04:42:10.001Z</time></trkpt><trkpt lat="-27.43049988961024" lon="115.37784785190422"><ele>249.0</ele><time>2026-04-15T04:42:11.001Z</time></trkpt><trkpt lat="-27.430350451328888" lon="115.37807519441806"><ele>249.5</ele><time>2026-04-15T04:42:12.001Z</time></trkpt><trkpt lat="-27.430207394450726" lon="115.3782970712575"><ele>250.0</ele><time>2026-04-15T04:42:13.001Z</time></trkpt><trkpt lat="-27.430068849062284" lon="115.3785081793511"><ele>250.0</ele><time>2026-04-15T04:42:14.001Z</time></trkpt><trkpt lat="-27.429935714724543" lon="115.3787086452025"><ele>250.0</ele><time>2026-04-15T04:42:15.001Z</time></trkpt><trkpt lat="-27.429805469049988" lon="115.37890962118747"><ele>250.0</ele><time>2026-04-15T04:42:16.001Z</time></trkpt><trkpt lat="-27.429687035295018" lon="115.37910941501487"><ele>250.0</ele><time>2026-04-15T04:42:17.001Z</time></trkpt><trkpt lat="-27.42958176383491" lon="115.37931510462128"><ele>250.0</ele><time>2026-04-15T04:42:18.001Z</time></trkpt><trkpt lat="-27.429483345197074" lon="115.3795406352576"><ele>250.0</ele><time>2026-04-15T04:42:19.001Z</time></trkpt><trkpt lat="-27.429313304265868" lon="115.38003466116508"><ele>250.33333333333331</ele><time>2026-04-15T04:42:21.001Z</time></trkpt><trkpt lat="-27.429254338458332" lon="115.38027677549587"><ele>250.66666666666669</ele><time>2026-04-15T04:42:22.001Z</time></trkpt><trkpt lat="-27.429212731868464" lon="115.38050874611747"><ele>251.0</ele><time>2026-04-15T04:42:23.001Z</time></trkpt><trkpt lat="-27.42918621252285" lon="115.38073925066081"><ele>251.0</ele><time>2026-04-15T04:42:24.001Z</time></trkpt><trkpt lat="-27.429164572667652" lon="115.3809757243395"><ele>251.0</ele><time>2026-04-15T04:42:25.001Z</time></trkpt><trkpt lat="-27.429143976110485" lon="115.38121366420235"><ele>251.0</ele><time>2026-04-15T04:42:26.001Z</time></trkpt><trkpt lat="-27.429124366460023" lon="115.38145129045024"><ele>250.33333333333334</ele><time>2026-04-15T04:42:27.001Z</time></trkpt><trkpt lat="-27.429104999297216" lon="115.38168682235231"><ele>249.66666666666669</ele><time>2026-04-15T04:42:28.001Z</time></trkpt><trkpt lat="-27.42908872520921" lon="115.38192036461956"><ele>249.0</ele><time>2026-04-15T04:42:29.001Z</time></trkpt><trkpt lat="-27.429077704517432" lon="115.38214624413128"><ele>249.66666666666669</ele><time>2026-04-15T04:42:30.001Z</time></trkpt><trkpt lat="-27.42906631432515" lon="115.38237301447029"><ele>250.33333333333334</ele><time>2026-04-15T04:42:31.001Z</time></trkpt><trkpt lat="-27.429053012407582" lon="115.38260113823442"><ele>251.0</ele><time>2026-04-15T04:42:32.001Z</time></trkpt><trkpt lat="-27.429038168191145" lon="115.38282174152842"><ele>251.0</ele><time>2026-04-15T04:42:33.001Z</time></trkpt><trkpt lat="-27.42902107562445" lon="115.3830302144948"><ele>251.0</ele><time>2026-04-15T04:42:34.001Z</time></trkpt><trkpt lat="-27.429002857704152" lon="115.38324986816855"><ele>251.0</ele><time>2026-04-15T04:42:35.001Z</time></trkpt><trkpt lat="-27.42898713198418" lon="115.38346845659905"><ele>251.0</ele><time>2026-04-15T04:42:36.001Z</time></trkpt><trkpt lat="-27.428982487371286" lon="115.38367437161578"><ele>251.0</ele><time>2026-04-15T04:42:37.001Z</time></trkpt><trkpt lat="-27.42898452517428" lon="115.3838859486978"><ele>251.0</ele><time>2026-04-15T04:42:38.001Z</time></trkpt><trkpt lat="-27.428976922238597" lon="115.38412627752666"><ele>250.5</ele><time>2026-04-15T04:42:39.001Z</time></trkpt><trkpt lat="-27.428949860187345" lon="115.38438642066801"><ele>250.0</ele><time>2026-04-15T04:42:40.001Z</time></trkpt><trkpt lat="-27.428892752246558" lon="115.38490347857683"><ele>250.0</ele><time>2026-04-15T04:42:42.001Z</time></trkpt><trkpt lat="-27.428874311109485" lon="115.38514588860356"><ele>250.0</ele><time>2026-04-15T04:42:43.001Z</time></trkpt><trkpt lat="-27.428858863768067" lon="115.38538449849923"><ele>250.0</ele><time>2026-04-15T04:42:44.001Z</time></trkpt><trkpt lat="-27.42884268509554" lon="115.38562675070806"><ele>250.5</ele><time>2026-04-15T04:42:45.001Z</time></trkpt><trkpt lat="-27.42882771576211" lon="115.38589556830571"><ele>251.0</ele><time>2026-04-15T04:42:46.001Z</time></trkpt><trkpt lat="-27.42881474589869" lon="115.38616743274592"><ele>251.0</ele><time>2026-04-15T04:42:47.001Z</time></trkpt><trkpt lat="-27.428799148598255" lon="115.38644340116835"><ele>251.0</ele><time>2026-04-15T04:42:48.001Z</time></trkpt><trkpt lat="-27.42878372746777" lon="115.38672469520732"><ele>251.0</ele><time>2026-04-15T04:42:49.001Z</time></trkpt><trkpt lat="-27.42877071778837" lon="115.38700515408695"><ele>251.0</ele><time>2026-04-15T04:42:50.001Z</time></trkpt><trkpt lat="-27.428759998141988" lon="115.38728596106684"><ele>251.5</ele><time>2026-04-15T04:42:51.001Z</time></trkpt><trkpt lat="-27.428750662895148" lon="115.38756126118295"><ele>252.0</ele><time>2026-04-15T04:42:52.001Z</time></trkpt><trkpt lat="-27.428740679854425" lon="115.38783717752197"><ele>252.5</ele><time>2026-04-15T04:42:53.001Z</time></trkpt><trkpt lat="-27.428726710429842" lon="115.38811744937449"><ele>253.0</ele><time>2026-04-15T04:42:54.001Z</time></trkpt><trkpt lat="-27.428704461232805" lon="115.38839940846437"><ele>253.0</ele><time>2026-04-15T04:42:55.001Z</time></trkpt><trkpt lat="-27.428676177998803" lon="115.3886845094356"><ele>253.0</ele><time>2026-04-15T04:42:56.001Z</time></trkpt><trkpt lat="-27.428645055079084" lon="115.38897349459307"><ele>253.0</ele><time>2026-04-15T04:42:57.001Z</time></trkpt><trkpt lat="-27.428604912547126" lon="115.38926274006478"><ele>253.0</ele><time>2026-04-15T04:42:58.001Z</time></trkpt><trkpt lat="-27.42855839210414" lon="115.38955174601554"><ele>252.5</ele><time>2026-04-15T04:42:59.001Z</time></trkpt><trkpt lat="-27.42850725932168" lon="115.38984618055535"><ele>252.0</ele><time>2026-04-15T04:43:00.001Z</time></trkpt><trkpt lat="-27.42845164905407" lon="115.39014526314467"><ele>253.0</ele><time>2026-04-15T04:43:01.001Z</time></trkpt><trkpt lat="-27.428322002243398" lon="115.39072103771039"><ele>253.0</ele><time>2026-04-15T04:43:03.001Z</time></trkpt><trkpt lat="-27.428247760663083" lon="115.39100192941395"><ele>253.0</ele><time>2026-04-15T04:43:04.001Z</time></trkpt><trkpt lat="-27.428171014078526" lon="115.39128441457498"><ele>252.5</ele><time>2026-04-15T04:43:05.001Z</time></trkpt><trkpt lat="-27.42809237617712" lon="115.39156839553074"><ele>252.0</ele><time>2026-04-15T04:43:06.001Z</time></trkpt><trkpt lat="-27.428013481835304" lon="115.39184487776176"><ele>252.0</ele><time>2026-04-15T04:43:07.001Z</time></trkpt><trkpt lat="-27.427937218175686" lon="115.3921149815498"><ele>252.0</ele><time>2026-04-15T04:43:08.001Z</time></trkpt><trkpt lat="-27.42786075837239" lon="115.39238290542295"><ele>252.0</ele><time>2026-04-15T04:43:09.001Z</time></trkpt><trkpt lat="-27.42778689560412" lon="115.39265019382327"><ele>252.0</ele><time>2026-04-15T04:43:10.001Z</time></trkpt><trkpt lat="-27.427716414575798" lon="115.39291911181523"><ele>252.0</ele><time>2026-04-15T04:43:11.001Z</time></trkpt><trkpt lat="-27.427647203110528" lon="115.39318558212692"><ele>252.0</ele><time>2026-04-15T04:43:12.001Z</time></trkpt><trkpt lat="-27.42757850454383" lon="115.39344883263371"><ele>252.0</ele><time>2026-04-15T04:43:13.001Z</time></trkpt><trkpt lat="-27.427507907659063" lon="115.39370872061967"><ele>252.0</ele><time>2026-04-15T04:43:14.001Z</time></trkpt><trkpt lat="-27.427435636431913" lon="115.39396402010517"><ele>251.5</ele><time>2026-04-15T04:43:15.001Z</time></trkpt><trkpt lat="-27.427356681438738" lon="115.39422441537936"><ele>251.0</ele><time>2026-04-15T04:43:16.001Z</time></trkpt><trkpt lat="-27.42727243704856" lon="115.39447902139754"><ele>251.5</ele><time>2026-04-15T04:43:17.001Z</time></trkpt><trkpt lat="-27.427176548182857" lon="115.3947319997046"><ele>252.0</ele><time>2026-04-15T04:43:18.001Z</time></trkpt><trkpt lat="-27.427074553192025" lon="115.3949747289127"><ele>252.0</ele><time>2026-04-15T04:43:19.001Z</time></trkpt><trkpt lat="-27.42696305404701" lon="115.39521915139134"><ele>252.0</ele><time>2026-04-15T04:43:20.001Z</time></trkpt><trkpt lat="-27.426843259761164" lon="115.39546301473449"><ele>252.5</ele><time>2026-04-15T04:43:21.001Z</time></trkpt><trkpt lat="-27.426723957914465" lon="115.39570931574606"><ele>253.0</ele><time>2026-04-15T04:43:22.001Z</time></trkpt><trkpt lat="-27.42648884783761" lon="115.39619886165137"><ele>253.0</ele><time>2026-04-15T04:43:24.001Z</time></trkpt><trkpt lat="-27.4263736133534" lon="115.39644304631834"><ele>253.0</ele><time>2026-04-15T04:43:25.001Z</time></trkpt><trkpt lat="-27.426257238097378" lon="115.39668353453746"><ele>254.5</ele><time>2026-04-15T04:43:26.001Z</time></trkpt><trkpt lat="-27.426140435563827" lon="115.39692391049886"><ele>256.0</ele><time>2026-04-15T04:43:27.001Z</time></trkpt><trkpt lat="-27.426024182663994" lon="115.3971612662874"><ele>255.0</ele><time>2026-04-15T04:43:28.001Z</time></trkpt><trkpt lat="-27.425905037560696" lon="115.39740131796744"><ele>254.0</ele><time>2026-04-15T04:43:29.001Z</time></trkpt><trkpt lat="-27.42578228572983" lon="115.3976430997986"><ele>254.0</ele><time>2026-04-15T04:43:30.001Z</time></trkpt><trkpt lat="-27.425658066555457" lon="115.39788320081834"><ele>254.0</ele><time>2026-04-15T04:43:31.001Z</time></trkpt><trkpt lat="-27.425539739545002" lon="115.39811688809087"><ele>254.0</ele><time>2026-04-15T04:43:32.001Z</time></trkpt><trkpt lat="-27.425428551263487" lon="115.39834495662684"><ele>254.0</ele><time>2026-04-15T04:43:33.001Z</time></trkpt><trkpt lat="-27.42532086170498" lon="115.39857666879327"><ele>254.0</ele><time>2026-04-15T04:43:34.001Z</time></trkpt><trkpt lat="-27.42521487251306" lon="115.39881263879283"><ele>254.0</ele><time>2026-04-15T04:43:35.001Z</time></trkpt><trkpt lat="-27.425110244466207" lon="115.39905000506418"><ele>254.0</ele><time>2026-04-15T04:43:36.001Z</time></trkpt><trkpt lat="-27.425005157751652" lon="115.39929372906458"><ele>254.0</ele><time>2026-04-15T04:43:37.001Z</time></trkpt><trkpt lat="-27.424898274639105" lon="115.3995429533966"><ele>255.0</ele><time>2026-04-15T04:43:38.001Z</time></trkpt><trkpt lat="-27.424794757883266" lon="115.39979696423006"><ele>256.0</ele><time>2026-04-15T04:43:39.001Z</time></trkpt><trkpt lat="-27.424696033712095" lon="115.4000567610766"><ele>256.5</ele><time>2026-04-15T04:43:40.001Z</time></trkpt><trkpt lat="-27.424602799391003" lon="115.40032669317976"><ele>257.0</ele><time>2026-04-15T04:43:41.001Z</time></trkpt><trkpt lat="-27.42451107812457" lon="115.40060307599158"><ele>255.0</ele><time>2026-04-15T04:43:42.001Z</time></trkpt><trkpt lat="-27.424332361810933" lon="115.40115793754094"><ele>255.5</ele><time>2026-04-15T04:43:44.001Z</time></trkpt><trkpt lat="-27.42424387758922" lon="115.40143223021909"><ele>256.0</ele><time>2026-04-15T04:43:45.001Z</time></trkpt><trkpt lat="-27.424156293576576" lon="115.40170445480834"><ele>256.0</ele><time>2026-04-15T04:43:46.001Z</time></trkpt><trkpt lat="-27.424070830542213" lon="115.40197478456182"><ele>256.0</ele><time>2026-04-15T04:43:47.001Z</time></trkpt><trkpt lat="-27.423986027078826" lon="115.40224570664253"><ele>257.0</ele><time>2026-04-15T04:43:48.001Z</time></trkpt><trkpt lat="-27.423899548068626" lon="115.40252654217487"><ele>258.0</ele><time>2026-04-15T04:43:49.001Z</time></trkpt><trkpt lat="-27.42381291382787" lon="115.40281321890099"><ele>259.0</ele><time>2026-04-15T04:43:50.001Z</time></trkpt><trkpt lat="-27.4237261319348" lon="115.40309872033608"><ele>260.0</ele><time>2026-04-15T04:43:51.001Z</time></trkpt><trkpt lat="-27.423637640654494" lon="115.40339554573927"><ele>260.0</ele><time>2026-04-15T04:43:52.001Z</time></trkpt><trkpt lat="-27.423548186195834" lon="115.40369554649546"><ele>260.0</ele><time>2026-04-15T04:43:53.001Z</time></trkpt><trkpt lat="-27.423460144243077" lon="115.40399520277361"><ele>261.0</ele><time>2026-04-15T04:43:54.001Z</time></trkpt><trkpt lat="-27.423373399549615" lon="115.40429202850346"><ele>262.0</ele><time>2026-04-15T04:43:55.001Z</time></trkpt><trkpt lat="-27.423287290147186" lon="115.40458805158819"><ele>262.0</ele><time>2026-04-15T04:43:56.001Z</time></trkpt><trkpt lat="-27.42320002648902" lon="115.40488883233316"><ele>262.0</ele><time>2026-04-15T04:43:57.001Z</time></trkpt><trkpt lat="-27.423113039888268" lon="115.40519027785999"><ele>262.0</ele><time>2026-04-15T04:43:58.001Z</time></trkpt><trkpt lat="-27.423032274247127" lon="115.4054892307402"><ele>262.0</ele><time>2026-04-15T04:43:59.001Z</time></trkpt><trkpt lat="-27.422955887750618" lon="115.40578307189874"><ele>262.0</ele><time>2026-04-15T04:44:00.001Z</time></trkpt><trkpt lat="-27.422880639752044" lon="115.4060745277761"><ele>262.0</ele><time>2026-04-15T04:44:01.001Z</time></trkpt><trkpt lat="-27.422807259096608" lon="115.40636914736916"><ele>262.0</ele><time>2026-04-15T04:44:02.001Z</time></trkpt><trkpt lat="-27.42273770656945" lon="115.40666453591487"><ele>262.0</ele><time>2026-04-15T04:44:03.001Z</time></trkpt><trkpt lat="-27.422614140698258" lon="115.40726396977816"><ele>262.5</ele><time>2026-04-15T04:44:05.001Z</time></trkpt><trkpt lat="-27.422564285577135" lon="115.40755561507738"><ele>263.0</ele><time>2026-04-15T04:44:06.001Z</time></trkpt><trkpt lat="-27.42252914686013" lon="115.40782946298295"><ele>263.5</ele><time>2026-04-15T04:44:07.001Z</time></trkpt><trkpt lat="-27.422509745923946" lon="115.40810432967801"><ele>264.0</ele><time>2026-04-15T04:44:08.001Z</time></trkpt><trkpt lat="-27.422503460863307" lon="115.40838040783271"><ele>264.0</ele><time>2026-04-15T04:44:09.001Z</time></trkpt><trkpt lat="-27.422516503137675" lon="115.40865022944321"><ele>264.0</ele><time>2026-04-15T04:44:10.001Z</time></trkpt><trkpt lat="-27.422545621171203" lon="115.40891825848774"><ele>265.5</ele><time>2026-04-15T04:44:11.001Z</time></trkpt><trkpt lat="-27.422586850160567" lon="115.40918221052831"><ele>267.0</ele><time>2026-04-15T04:44:12.001Z</time></trkpt><trkpt lat="-27.42263254315837" lon="115.40942961499023"><ele>267.0</ele><time>2026-04-15T04:44:13.001Z</time></trkpt><trkpt lat="-27.422681479811864" lon="115.40965313305972"><ele>267.0</ele><time>2026-04-15T04:44:14.001Z</time></trkpt><trkpt lat="-27.422729186497307" lon="115.40986928140106"><ele>267.0</ele><time>2026-04-15T04:44:15.001Z</time></trkpt><trkpt lat="-27.42277856966481" lon="115.41007723933907"><ele>267.0</ele><time>2026-04-15T04:44:16.001Z</time></trkpt><trkpt lat="-27.422828679246294" lon="115.41028200360445"><ele>267.0</ele><time>2026-04-15T04:44:17.001Z</time></trkpt><trkpt lat="-27.422882287278668" lon="115.41048954222755"><ele>267.0</ele><time>2026-04-15T04:44:18.001Z</time></trkpt><trkpt lat="-27.422935755812826" lon="115.41069375040014"><ele>267.3333333333333</ele><time>2026-04-15T04:44:19.001Z</time></trkpt><trkpt lat="-27.422988924514762" lon="115.41088882657068"><ele>267.66666666666663</ele><time>2026-04-15T04:44:20.001Z</time></trkpt><trkpt lat="-27.423042422788566" lon="115.41106681489754"><ele>268.0</ele><time>2026-04-15T04:44:21.001Z</time></trkpt><trkpt lat="-27.423095467830354" lon="115.41123219425874"><ele>268.0</ele><time>2026-04-15T04:44:22.001Z</time></trkpt><trkpt lat="-27.423151520272498" lon="115.41138685200005"><ele>268.0</ele><time>2026-04-15T04:44:23.001Z</time></trkpt><trkpt lat="-27.423206099766013" lon="115.41154241112126"><ele>268.0</ele><time>2026-04-15T04:44:24.001Z</time></trkpt><trkpt lat="-27.42333128217909" lon="115.41189650637799"><ele>268.0</ele><time>2026-04-15T04:44:26.001Z</time></trkpt><trkpt lat="-27.42339834724549" lon="115.41208971810858"><ele>268.0</ele><time>2026-04-15T04:44:27.001Z</time></trkpt><trkpt lat="-27.42346724060958" lon="115.41229725705703"><ele>268.0</ele><time>2026-04-15T04:44:28.001Z</time></trkpt><trkpt lat="-27.423532569265443" lon="115.41251341702255"><ele>267.66666666666663</ele><time>2026-04-15T04:44:29.001Z</time></trkpt><trkpt lat="-27.42358997539877" lon="115.4127232363502"><ele>267.3333333333333</ele><time>2026-04-15T04:44:30.001Z</time></trkpt><trkpt lat="-27.423630210524017" lon="115.4129207957166"><ele>267.0</ele><time>2026-04-15T04:44:31.001Z</time></trkpt><trkpt lat="-27.423658986321723" lon="115.41311949631445"><ele>266.3333333333333</ele><time>2026-04-15T04:44:32.001Z</time></trkpt><trkpt lat="-27.42367745831582" lon="115.41331876251643"><ele>265.66666666666663</ele><time>2026-04-15T04:44:33.001Z</time></trkpt><trkpt lat="-27.423686375145035" lon="115.41351740938327"><ele>265.0</ele><time>2026-04-15T04:44:34.001Z</time></trkpt><trkpt lat="-27.423687629624354" lon="115.41371402807816"><ele>264.66666666666663</ele><time>2026-04-15T04:44:35.001Z</time></trkpt><trkpt lat="-27.423683971125254" lon="115.41391541853638"><ele>264.3333333333333</ele><time>2026-04-15T04:44:36.001Z</time></trkpt><trkpt lat="-27.42368241640052" lon="115.4141154474928"><ele>264.0</ele><time>2026-04-15T04:44:37.001Z</time></trkpt><trkpt lat="-27.423682799243686" lon="115.41432021928941"><ele>264.0</ele><time>2026-04-15T04:44:38.001Z</time></trkpt><trkpt lat="-27.42367435451388" lon="115.41452387286681"><ele>264.0</ele><time>2026-04-15T04:44:39.001Z</time></trkpt><trkpt lat="-27.423648003505274" lon="115.41473554357712"><ele>264.0</ele><time>2026-04-15T04:44:40.001Z</time></trkpt><trkpt lat="-27.423604000406907" lon="115.41495027407102"><ele>263.6666666666667</ele><time>2026-04-15T04:44:41.001Z</time></trkpt><trkpt lat="-27.423543248950544" lon="115.41515599589695"><ele>263.33333333333337</ele><time>2026-04-15T04:44:42.001Z</time></trkpt><trkpt lat="-27.423462324949742" lon="115.41537075546988"><ele>263.0</ele><time>2026-04-15T04:44:43.001Z</time></trkpt><trkpt lat="-27.423366646336355" lon="115.41558027551262"><ele>262.0</ele><time>2026-04-15T04:44:44.001Z</time></trkpt><trkpt lat="-27.4232550977243" lon="115.41579235104533"><ele>261.0</ele><time>2026-04-15T04:44:45.001Z</time></trkpt><trkpt lat="-27.422998542945287" lon="115.41622372569594"><ele>260.0</ele><time>2026-04-15T04:44:47.001Z</time></trkpt><trkpt lat="-27.422864727092378" lon="115.41644877122354"><ele>259.0</ele><time>2026-04-15T04:44:48.001Z</time></trkpt><trkpt lat="-27.42273274856016" lon="115.41666602802555"><ele>259.0</ele><time>2026-04-15T04:44:49.001Z</time></trkpt><trkpt lat="-27.42260289475371" lon="115.41688692933522"><ele>259.0</ele><time>2026-04-15T04:44:50.001Z</time></trkpt><trkpt lat="-27.422473242589184" lon="115.417109774844"><ele>259.0</ele><time>2026-04-15T04:44:51.001Z</time></trkpt><trkpt lat="-27.42234414402727" lon="115.417336835729"><ele>259.0</ele><time>2026-04-15T04:44:52.001Z</time></trkpt><trkpt lat="-27.422213263115356" lon="115.41756528984783"><ele>257.5</ele><time>2026-04-15T04:44:53.001Z</time></trkpt><trkpt lat="-27.42208584694959" lon="115.41778851172097"><ele>256.0</ele><time>2026-04-15T04:44:54.001Z</time></trkpt><trkpt lat="-27.421960621605585" lon="115.41800668830898"><ele>255.5</ele><time>2026-04-15T04:44:55.001Z</time></trkpt><trkpt lat="-27.421833640237146" lon="115.41822717422794"><ele>255.0</ele><time>2026-04-15T04:44:56.001Z</time></trkpt><trkpt lat="-27.421707874285985" lon="115.41844445103072"><ele>255.0</ele><time>2026-04-15T04:44:57.001Z</time></trkpt><trkpt lat="-27.421582317632254" lon="115.41866117384153"><ele>255.0</ele><time>2026-04-15T04:44:58.001Z</time></trkpt><trkpt lat="-27.421458179499158" lon="115.41888018745087"><ele>255.0</ele><time>2026-04-15T04:44:59.001Z</time></trkpt><trkpt lat="-27.42133662855317" lon="115.4191002515957"><ele>255.0</ele><time>2026-04-15T04:45:00.001Z</time></trkpt><trkpt lat="-27.421210162256482" lon="115.41933409192481"><ele>255.0</ele><time>2026-04-15T04:45:01.001Z</time></trkpt><trkpt lat="-27.421077641867882" lon="115.41956091718761"><ele>255.0</ele><time>2026-04-15T04:45:02.001Z</time></trkpt><trkpt lat="-27.42095291439034" lon="115.41977494193223"><ele>255.0</ele><time>2026-04-15T04:45:03.001Z</time></trkpt><trkpt lat="-27.42083171785216" lon="115.41997970732561"><ele>255.0</ele><time>2026-04-15T04:45:04.001Z</time></trkpt><trkpt lat="-27.420711388999525" lon="115.42018443546054"><ele>255.0</ele><time>2026-04-15T04:45:05.001Z</time></trkpt><trkpt lat="-27.42059051833233" lon="115.42039254686401"><ele>255.0</ele><time>2026-04-15T04:45:06.001Z</time></trkpt><trkpt lat="-27.420357685363395" lon="115.42082410545315"><ele>255.0</ele><time>2026-04-15T04:45:08.001Z</time></trkpt><trkpt lat="-27.420252534647677" lon="115.42105313903689"><ele>255.0</ele><time>2026-04-15T04:45:09.001Z</time></trkpt><trkpt lat="-27.42014951861649" lon="115.4212970971939"><ele>255.0</ele><time>2026-04-15T04:45:10.001Z</time></trkpt><trkpt lat="-27.420052208839305" lon="115.42155216695373"><ele>255.0</ele><time>2026-04-15T04:45:11.001Z</time></trkpt><trkpt lat="-27.419959517673373" lon="115.42181355465335"><ele>255.0</ele><time>2026-04-15T04:45:12.001Z</time></trkpt><trkpt lat="-27.419869923906067" lon="115.42208006280349"><ele>254.5</ele><time>2026-04-15T04:45:13.001Z</time></trkpt><trkpt lat="-27.419784175551726" lon="115.4223468498415"><ele>254.0</ele><time>2026-04-15T04:45:14.001Z</time></trkpt><trkpt lat="-27.419699640539907" lon="115.4226106756099"><ele>254.0</ele><time>2026-04-15T04:45:15.001Z</time></trkpt><trkpt lat="-27.41962540552008" lon="115.42287546130115"><ele>254.0</ele><time>2026-04-15T04:45:16.001Z</time></trkpt><trkpt lat="-27.419556135153954" lon="115.42314665924198"><ele>254.0</ele><time>2026-04-15T04:45:17.001Z</time></trkpt><trkpt lat="-27.419492186043126" lon="115.42342347559062"><ele>254.0</ele><time>2026-04-15T04:45:18.001Z</time></trkpt><trkpt lat="-27.41943234350934" lon="115.42370235331688"><ele>253.5</ele><time>2026-04-15T04:45:19.001Z</time></trkpt><trkpt lat="-27.41937520886691" lon="115.42398379134576"><ele>253.0</ele><time>2026-04-15T04:45:20.001Z</time></trkpt><trkpt lat="-27.419321000049315" lon="115.42426872576688"><ele>253.0</ele><time>2026-04-15T04:45:21.001Z</time></trkpt><trkpt lat="-27.419268956419014" lon="115.42454811668719"><ele>253.0</ele><time>2026-04-15T04:45:22.001Z</time></trkpt><trkpt lat="-27.41921383711248" lon="115.42482823786399"><ele>253.0</ele><time>2026-04-15T04:45:23.001Z</time></trkpt><trkpt lat="-27.419154326173246" lon="115.42510773425175"><ele>253.0</ele><time>2026-04-15T04:45:24.001Z</time></trkpt><trkpt lat="-27.419095806094454" lon="115.42537630941447"><ele>252.0</ele><time>2026-04-15T04:45:25.001Z</time></trkpt><trkpt lat="-27.41903358246077" lon="115.42564067443577"><ele>251.0</ele><time>2026-04-15T04:45:26.001Z</time></trkpt><trkpt lat="-27.418965798099777" lon="115.42590485631708"><ele>252.0</ele><time>2026-04-15T04:45:27.001Z</time></trkpt><trkpt lat="-27.418822625325348" lon="115.42642098055968"><ele>251.0</ele><time>2026-04-15T04:45:29.001Z</time></trkpt><trkpt lat="-27.418755020537514" lon="115.426671522849"><ele>250.0</ele><time>2026-04-15T04:45:30.001Z</time></trkpt><trkpt lat="-27.418689283305472" lon="115.4269246462884"><ele>250.0</ele><time>2026-04-15T04:45:31.001Z</time></trkpt><trkpt lat="-27.41862463970528" lon="115.4271748988898"><ele>250.0</ele><time>2026-04-15T04:45:32.001Z</time></trkpt><trkpt lat="-27.418560217036017" lon="115.42742728274943"><ele>250.0</ele><time>2026-04-15T04:45:33.001Z</time></trkpt><trkpt lat="-27.418496092679934" lon="115.42768162209373"><ele>250.0</ele><time>2026-04-15T04:45:34.001Z</time></trkpt><trkpt lat="-27.41843333803011" lon="115.42793608243367"><ele>250.0</ele><time>2026-04-15T04:45:35.001Z</time></trkpt><trkpt lat="-27.418368443475284" lon="115.42819412380938"><ele>250.0</ele><time>2026-04-15T04:45:36.001Z</time></trkpt><trkpt lat="-27.41830244916057" lon="115.4284477438928"><ele>250.0</ele><time>2026-04-15T04:45:37.001Z</time></trkpt><trkpt lat="-27.418233479838158" lon="115.42870184537009"><ele>250.0</ele><time>2026-04-15T04:45:38.001Z</time></trkpt><trkpt lat="-27.418156322300383" lon="115.42895943640963"><ele>249.0</ele><time>2026-04-15T04:45:39.001Z</time></trkpt><trkpt lat="-27.418076524249148" lon="115.42922301565602"><ele>248.0</ele><time>2026-04-15T04:45:40.001Z</time></trkpt><trkpt lat="-27.417990085216044" lon="115.42948297925491"><ele>248.5</ele><time>2026-04-15T04:45:41.001Z</time></trkpt><trkpt lat="-27.417901637816026" lon="115.42974603931852"><ele>249.0</ele><time>2026-04-15T04:45:42.001Z</time></trkpt><trkpt lat="-27.41780826802543" lon="115.4300068465352"><ele>249.0</ele><time>2026-04-15T04:45:43.001Z</time></trkpt><trkpt lat="-27.417710718742818" lon="115.43026590101037"><ele>249.0</ele><time>2026-04-15T04:45:44.001Z</time></trkpt><trkpt lat="-27.417606166881427" lon="115.43053082871576"><ele>248.5</ele><time>2026-04-15T04:45:45.001Z</time></trkpt><trkpt lat="-27.417499590454938" lon="115.4307965412543"><ele>248.0</ele><time>2026-04-15T04:45:46.001Z</time></trkpt><trkpt lat="-27.417394989539435" lon="115.43106191109749"><ele>248.0</ele><time>2026-04-15T04:45:47.001Z</time></trkpt><trkpt lat="-27.417290139640485" lon="115.4313251064584"><ele>248.0</ele><time>2026-04-15T04:45:48.001Z</time></trkpt><trkpt lat="-27.417079006442396" lon="115.43185100453314"><ele>248.0</ele><time>2026-04-15T04:45:50.001Z</time></trkpt><trkpt lat="-27.416973480715185" lon="115.43211703375286"><ele>248.0</ele><time>2026-04-15T04:45:51.001Z</time></trkpt><trkpt lat="-27.416869369414183" lon="115.43238286761039"><ele>247.5</ele><time>2026-04-15T04:45:52.001Z</time></trkpt><trkpt lat="-27.416765045864217" lon="115.43264658444353"><ele>247.0</ele><time>2026-04-15T04:45:53.001Z</time></trkpt><trkpt lat="-27.41666144807182" lon="115.43291079983213"><ele>245.5</ele><time>2026-04-15T04:45:54.001Z</time></trkpt><trkpt lat="-27.416556418396734" lon="115.43317477698396"><ele>244.0</ele><time>2026-04-15T04:45:55.001Z</time></trkpt><trkpt lat="-27.41645174991785" lon="115.43343353938825"><ele>244.0</ele><time>2026-04-15T04:45:56.001Z</time></trkpt><trkpt lat="-27.41634607942087" lon="115.43368647757536"><ele>244.0</ele><time>2026-04-15T04:45:57.001Z</time></trkpt><trkpt lat="-27.416246459750543" lon="115.43392771499772"><ele>245.0</ele><time>2026-04-15T04:45:58.001Z</time></trkpt><trkpt lat="-27.41615216178035" lon="115.43415507287217"><ele>246.0</ele><time>2026-04-15T04:45:59.001Z</time></trkpt><trkpt lat="-27.4160549133868" lon="115.43437899944293"><ele>247.0</ele><time>2026-04-15T04:46:00.001Z</time></trkpt><trkpt lat="-27.415955559303086" lon="115.43460305463219"><ele>246.66666666666666</ele><time>2026-04-15T04:46:01.001Z</time></trkpt><trkpt lat="-27.415854565867388" lon="115.4348265863537"><ele>246.33333333333331</ele><time>2026-04-15T04:46:02.001Z</time></trkpt><trkpt lat="-27.415756057788066" lon="115.4350504446068"><ele>246.0</ele><time>2026-04-15T04:46:03.001Z</time></trkpt><trkpt lat="-27.41565998773582" lon="115.43527553341268"><ele>246.0</ele><time>2026-04-15T04:46:04.001Z</time></trkpt><trkpt lat="-27.415571425487695" lon="115.43549613941465"><ele>246.0</ele><time>2026-04-15T04:46:05.001Z</time></trkpt><trkpt lat="-27.415489361224285" lon="115.43570426012273"><ele>246.0</ele><time>2026-04-15T04:46:06.001Z</time></trkpt><trkpt lat="-27.415406371889468" lon="115.43590993698857"><ele>246.33333333333331</ele><time>2026-04-15T04:46:07.001Z</time></trkpt><trkpt lat="-27.415321836656165" lon="115.43611683839745"><ele>246.66666666666666</ele><time>2026-04-15T04:46:08.001Z</time></trkpt><trkpt lat="-27.415243868433098" lon="115.43632040614335"><ele>247.0</ele><time>2026-04-15T04:46:09.001Z</time></trkpt><trkpt lat="-27.415099819460448" lon="115.43669582746624"><ele>247.0</ele><time>2026-04-15T04:46:11.001Z</time></trkpt><trkpt lat="-27.41503190407757" lon="115.43687948245203"><ele>247.0</ele><time>2026-04-15T04:46:12.001Z</time></trkpt><trkpt lat="-27.414977763691272" lon="115.43706918464108"><ele>247.0</ele><time>2026-04-15T04:46:13.001Z</time></trkpt><trkpt lat="-27.414929568373175" lon="115.43727477500424"><ele>246.66666666666666</ele><time>2026-04-15T04:46:14.001Z</time></trkpt><trkpt lat="-27.414891679396014" lon="115.43749704179925"><ele>246.33333333333331</ele><time>2026-04-15T04:46:15.001Z</time></trkpt><trkpt lat="-27.414872698579664" lon="115.43773304615179"><ele>246.0</ele><time>2026-04-15T04:46:16.001Z</time></trkpt><trkpt lat="-27.41487524649611" lon="115.43797458386831"><ele>245.5</ele><time>2026-04-15T04:46:17.001Z</time></trkpt><trkpt lat="-27.414902667171386" lon="115.43822554178611"><ele>245.0</ele><time>2026-04-15T04:46:18.001Z</time></trkpt><trkpt lat="-27.414951569145863" lon="115.4384832227529"><ele>245.0</ele><time>2026-04-15T04:46:19.001Z</time></trkpt><trkpt lat="-27.41501396400681" lon="115.43874791030417"><ele>245.0</ele><time>2026-04-15T04:46:20.001Z</time></trkpt><trkpt lat="-27.415085081048364" lon="115.43901383822663"><ele>245.0</ele><time>2026-04-15T04:46:21.001Z</time></trkpt><trkpt lat="-27.41516344731705" lon="115.43928195554453"><ele>245.0</ele><time>2026-04-15T04:46:22.001Z</time></trkpt><trkpt lat="-27.4152450087159" lon="115.43955576449238"><ele>245.5</ele><time>2026-04-15T04:46:23.001Z</time></trkpt><trkpt lat="-27.415326302356927" lon="115.43983646520995"><ele>246.0</ele><time>2026-04-15T04:46:24.001Z</time></trkpt><trkpt lat="-27.41540728898794" lon="115.44011183951606"><ele>246.0</ele><time>2026-04-15T04:46:25.001Z</time></trkpt><trkpt lat="-27.41548486716936" lon="115.44038630350951"><ele>246.0</ele><time>2026-04-15T04:46:26.001Z</time></trkpt><trkpt lat="-27.41556147704079" lon="115.44065692653646"><ele>246.0</ele><time>2026-04-15T04:46:27.001Z</time></trkpt><trkpt lat="-27.4156399302526" lon="115.44093022959987"><ele>246.0</ele><time>2026-04-15T04:46:28.001Z</time></trkpt><trkpt lat="-27.415714800702204" lon="115.44120071537311"><ele>245.0</ele><time>2026-04-15T04:46:29.001Z</time></trkpt><trkpt lat="-27.415789420449148" lon="115.4414729079814"><ele>244.0</ele><time>2026-04-15T04:46:30.001Z</time></trkpt><trkpt lat="-27.415937842560837" lon="115.44201893666654"><ele>244.0</ele><time>2026-04-15T04:46:32.001Z</time></trkpt><trkpt lat="-27.416016084107078" lon="115.4422918278868"><ele>244.0</ele><time>2026-04-15T04:46:33.001Z</time></trkpt><trkpt lat="-27.41609763643065" lon="115.44256420650143"><ele>244.0</ele><time>2026-04-15T04:46:34.001Z</time></trkpt><trkpt lat="-27.41618010863862" lon="115.44283746110538"><ele>244.0</ele><time>2026-04-15T04:46:35.001Z</time></trkpt><trkpt lat="-27.416262637342605" lon="115.44311430683857"><ele>244.0</ele><time>2026-04-15T04:46:36.001Z</time></trkpt><trkpt lat="-27.416343928024737" lon="115.44338817312229"><ele>244.0</ele><time>2026-04-15T04:46:37.001Z</time></trkpt><trkpt lat="-27.41642516888155" lon="115.44365652882186"><ele>244.0</ele><time>2026-04-15T04:46:38.001Z</time></trkpt><trkpt lat="-27.416504553683293" lon="115.44392523785"><ele>244.0</ele><time>2026-04-15T04:46:39.001Z</time></trkpt><trkpt lat="-27.41658177684466" lon="115.44419168611887"><ele>244.0</ele><time>2026-04-15T04:46:40.001Z</time></trkpt><trkpt lat="-27.41665793373454" lon="115.44445796756185"><ele>244.0</ele><time>2026-04-15T04:46:41.001Z</time></trkpt><trkpt lat="-27.41673228814745" lon="115.44472826368937"><ele>244.0</ele><time>2026-04-15T04:46:42.001Z</time></trkpt><trkpt lat="-27.41680629359126" lon="115.44500398628541"><ele>244.0</ele><time>2026-04-15T04:46:43.001Z</time></trkpt><trkpt lat="-27.416879226408025" lon="115.44528075879136"><ele>244.0</ele><time>2026-04-15T04:46:44.001Z</time></trkpt><trkpt lat="-27.41695574465846" lon="115.44555874549826"><ele>244.0</ele><time>2026-04-15T04:46:45.001Z</time></trkpt><trkpt lat="-27.417036297050597" lon="115.44584313466882"><ele>244.0</ele><time>2026-04-15T04:46:46.001Z</time></trkpt><trkpt lat="-27.417122414682023" lon="115.44612874096788"><ele>244.0</ele><time>2026-04-15T04:46:47.001Z</time></trkpt><trkpt lat="-27.417208049670442" lon="115.44641933080902"><ele>244.0</ele><time>2026-04-15T04:46:48.001Z</time></trkpt><trkpt lat="-27.41729099013149" lon="115.44670579497432"><ele>244.0</ele><time>2026-04-15T04:46:49.001Z</time></trkpt><trkpt lat="-27.41737022381004" lon="115.44699154585636"><ele>242.0</ele><time>2026-04-15T04:46:50.001Z</time></trkpt><trkpt lat="-27.417524489537865" lon="115.44756407086801"><ele>242.0</ele><time>2026-04-15T04:46:52.001Z</time></trkpt><trkpt lat="-27.41760426609183" lon="115.44785380923784"><ele>242.0</ele><time>2026-04-15T04:46:53.001Z</time></trkpt><trkpt lat="-27.417685243156136" lon="115.44814130095526"><ele>242.5</ele><time>2026-04-15T04:46:54.001Z</time></trkpt><trkpt lat="-27.417768002228176" lon="115.44842611050166"><ele>243.0</ele><time>2026-04-15T04:46:55.001Z</time></trkpt><trkpt lat="-27.41784783435586" lon="115.44870867843898"><ele>242.5</ele><time>2026-04-15T04:46:56.001Z</time></trkpt><trkpt lat="-27.417925895739398" lon="115.44899007691944"><ele>242.0</ele><time>2026-04-15T04:46:57.001Z</time></trkpt><trkpt lat="-27.418004716992034" lon="115.44926339217342"><ele>242.0</ele><time>2026-04-15T04:46:58.001Z</time></trkpt><trkpt lat="-27.418083434476543" lon="115.44953231602396"><ele>242.0</ele><time>2026-04-15T04:46:59.001Z</time></trkpt><trkpt lat="-27.41815594773006" lon="115.44979663311216"><ele>242.5</ele><time>2026-04-15T04:47:00.001Z</time></trkpt><trkpt lat="-27.418226037841666" lon="115.45006024940223"><ele>243.0</ele><time>2026-04-15T04:47:01.001Z</time></trkpt><trkpt lat="-27.41829680721454" lon="115.45032719189305"><ele>243.5</ele><time>2026-04-15T04:47:02.001Z</time></trkpt><trkpt lat="-27.418368446353842" lon="115.45059251346947"><ele>244.0</ele><time>2026-04-15T04:47:03.001Z</time></trkpt><trkpt lat="-27.41844286257724" lon="115.45085498938188"><ele>244.0</ele><time>2026-04-15T04:47:04.001Z</time></trkpt><trkpt lat="-27.41851804531965" lon="115.45111171871578"><ele>244.0</ele><time>2026-04-15T04:47:05.001Z</time></trkpt><trkpt lat="-27.418592893156593" lon="115.4513705352471"><ele>244.5</ele><time>2026-04-15T04:47:06.001Z</time></trkpt><trkpt lat="-27.418662346754783" lon="115.45163130491574"><ele>245.0</ele><time>2026-04-15T04:47:07.001Z</time></trkpt><trkpt lat="-27.41873129359044" lon="115.45189716881055"><ele>245.5</ele><time>2026-04-15T04:47:08.001Z</time></trkpt><trkpt lat="-27.418802656571685" lon="115.45217684057346"><ele>246.0</ele><time>2026-04-15T04:47:09.001Z</time></trkpt><trkpt lat="-27.418878265922185" lon="115.45246034913897"><ele>244.5</ele><time>2026-04-15T04:47:10.001Z</time></trkpt><trkpt lat="-27.41895560458376" lon="115.45274745645084"><ele>243.0</ele><time>2026-04-15T04:47:11.001Z</time></trkpt><trkpt lat="-27.41911438300551" lon="115.45331715711187"><ele>243.0</ele><time>2026-04-15T04:47:13.001Z</time></trkpt><trkpt lat="-27.419194170227566" lon="115.45359841424028"><ele>243.0</ele><time>2026-04-15T04:47:14.001Z</time></trkpt><trkpt lat="-27.41927088831445" lon="115.45387820979252"><ele>244.5</ele><time>2026-04-15T04:47:15.001Z</time></trkpt><trkpt lat="-27.419348447625655" lon="115.45415413988508"><ele>246.0</ele><time>2026-04-15T04:47:16.001Z</time></trkpt><trkpt lat="-27.41942901604735" lon="115.45442310755367"><ele>243.5</ele><time>2026-04-15T04:47:17.001Z</time></trkpt><trkpt lat="-27.419510189074103" lon="115.45469123315628"><ele>241.0</ele><time>2026-04-15T04:47:18.001Z</time></trkpt><trkpt lat="-27.41958780887969" lon="115.45496257091109"><ele>243.0</ele><time>2026-04-15T04:47:19.001Z</time></trkpt><trkpt lat="-27.419660500958575" lon="115.45523499849497"><ele>245.0</ele><time>2026-04-15T04:47:20.001Z</time></trkpt><trkpt lat="-27.41973487356834" lon="115.45551152699774"><ele>246.0</ele><time>2026-04-15T04:47:21.001Z</time></trkpt><trkpt lat="-27.419815418969765" lon="115.45579601729004"><ele>247.0</ele><time>2026-04-15T04:47:22.001Z</time></trkpt><trkpt lat="-27.419899229808355" lon="115.45608582706463"><ele>246.5</ele><time>2026-04-15T04:47:23.001Z</time></trkpt><trkpt lat="-27.41998366016342" lon="115.45637366037313"><ele>246.0</ele><time>2026-04-15T04:47:24.001Z</time></trkpt><trkpt lat="-27.42006689470681" lon="115.45666306051392"><ele>246.0</ele><time>2026-04-15T04:47:25.001Z</time></trkpt><trkpt lat="-27.420148033022464" lon="115.4569533937694"><ele>246.0</ele><time>2026-04-15T04:47:26.001Z</time></trkpt><trkpt lat="-27.42022590181693" lon="115.45724697052667"><ele>245.5</ele><time>2026-04-15T04:47:27.001Z</time></trkpt><trkpt lat="-27.42030428848837" lon="115.45753617720806"><ele>245.0</ele><time>2026-04-15T04:47:28.001Z</time></trkpt><trkpt lat="-27.42038515742708" lon="115.45783021464665"><ele>245.0</ele><time>2026-04-15T04:47:29.001Z</time></trkpt><trkpt lat="-27.420468268555904" lon="115.45813358209149"><ele>245.0</ele><time>2026-04-15T04:47:30.001Z</time></trkpt><trkpt lat="-27.420552571426526" lon="115.45843817394255"><ele>245.0</ele><time>2026-04-15T04:47:31.001Z</time></trkpt><trkpt lat="-27.42063715718406" lon="115.4587439256362"><ele>245.0</ele><time>2026-04-15T04:47:32.001Z</time></trkpt><trkpt lat="-27.420804103706704" lon="115.45934883987393"><ele>244.0</ele><time>2026-04-15T04:47:34.001Z</time></trkpt><trkpt lat="-27.420887646743246" lon="115.45965352818482"><ele>243.0</ele><time>2026-04-15T04:47:35.001Z</time></trkpt><trkpt lat="-27.420971669591914" lon="115.45995872070942"><ele>243.0</ele><time>2026-04-15T04:47:36.001Z</time></trkpt><trkpt lat="-27.421055091144172" lon="115.46026375233099"><ele>243.0</ele><time>2026-04-15T04:47:37.001Z</time></trkpt><trkpt lat="-27.42114192497128" lon="115.46056923864786"><ele>244.0</ele><time>2026-04-15T04:47:38.001Z</time></trkpt><trkpt lat="-27.421228457925462" lon="115.46087169796876"><ele>245.0</ele><time>2026-04-15T04:47:39.001Z</time></trkpt><trkpt lat="-27.42131293648733" lon="115.46117165728012"><ele>244.5</ele><time>2026-04-15T04:47:40.001Z</time></trkpt><trkpt lat="-27.42139537014345" lon="115.46147361781567"><ele>244.0</ele><time>2026-04-15T04:47:41.001Z</time></trkpt><trkpt lat="-27.421477359141832" lon="115.46177705161541"><ele>244.0</ele><time>2026-04-15T04:47:42.001Z</time></trkpt><trkpt lat="-27.421559643984143" lon="115.46207905928311"><ele>244.0</ele><time>2026-04-15T04:47:43.001Z</time></trkpt><trkpt lat="-27.421644659274172" lon="115.4623813467388"><ele>244.0</ele><time>2026-04-15T04:47:44.001Z</time></trkpt><trkpt lat="-27.421730872266068" lon="115.46267791162607"><ele>244.0</ele><time>2026-04-15T04:47:45.001Z</time></trkpt><trkpt lat="-27.42181806063789" lon="115.46297129985263"><ele>244.5</ele><time>2026-04-15T04:47:46.001Z</time></trkpt><trkpt lat="-27.421903876647168" lon="115.46326282898588"><ele>245.0</ele><time>2026-04-15T04:47:47.001Z</time></trkpt><trkpt lat="-27.42198821261993" lon="115.46354947705333"><ele>245.0</ele><time>2026-04-15T04:47:48.001Z</time></trkpt><trkpt lat="-27.422072335724483" lon="115.46383373450153"><ele>245.0</ele><time>2026-04-15T04:47:49.001Z</time></trkpt><trkpt lat="-27.422151361164815" lon="115.4641152084173"><ele>245.0</ele><time>2026-04-15T04:47:50.001Z</time></trkpt><trkpt lat="-27.42222253780266" lon="115.46439508283349"><ele>245.0</ele><time>2026-04-15T04:47:51.001Z</time></trkpt><trkpt lat="-27.42229522721699" lon="115.46467243413986"><ele>243.5</ele><time>2026-04-15T04:47:52.001Z</time></trkpt><trkpt lat="-27.422368150481446" lon="115.46494339736184"><ele>242.0</ele><time>2026-04-15T04:47:53.001Z</time></trkpt><trkpt lat="-27.422522225346817" lon="115.4654741658178"><ele>242.0</ele><time>2026-04-15T04:47:55.001Z</time></trkpt><trkpt lat="-27.42260102641567" lon="115.46573781671137"><ele>242.0</ele><time>2026-04-15T04:47:56.001Z</time></trkpt><trkpt lat="-27.42267518067352" lon="115.46600068152058"><ele>242.0</ele><time>2026-04-15T04:47:57.001Z</time></trkpt><trkpt lat="-27.422749131486718" lon="115.46626559464677"><ele>242.0</ele><time>2026-04-15T04:47:58.001Z</time></trkpt><trkpt lat="-27.422821229288616" lon="115.46652806144252"><ele>243.5</ele><time>2026-04-15T04:47:59.001Z</time></trkpt><trkpt lat="-27.42289338847983" lon="115.46678526470123"><ele>245.0</ele><time>2026-04-15T04:48:00.001Z</time></trkpt><trkpt lat="-27.42296487823543" lon="115.4670398019083"><ele>244.5</ele><time>2026-04-15T04:48:01.001Z</time></trkpt><trkpt lat="-27.42303889174742" lon="115.46729584023052"><ele>244.0</ele><time>2026-04-15T04:48:02.001Z</time></trkpt><trkpt lat="-27.42311280849244" lon="115.467554675419"><ele>244.0</ele><time>2026-04-15T04:48:03.001Z</time></trkpt><trkpt lat="-27.423184534034483" lon="115.46781373652267"><ele>244.0</ele><time>2026-04-15T04:48:04.001Z</time></trkpt><trkpt lat="-27.423257385536857" lon="115.46807791775946"><ele>244.5</ele><time>2026-04-15T04:48:05.001Z</time></trkpt><trkpt lat="-27.423327420664673" lon="115.46834319520688"><ele>245.0</ele><time>2026-04-15T04:48:06.001Z</time></trkpt><trkpt lat="-27.42339892849924" lon="115.4686107753309"><ele>243.0</ele><time>2026-04-15T04:48:07.001Z</time></trkpt><trkpt lat="-27.42347453560806" lon="115.46888688231373"><ele>241.0</ele><time>2026-04-15T04:48:08.001Z</time></trkpt><trkpt lat="-27.42355262495119" lon="115.46917091340568"><ele>241.0</ele><time>2026-04-15T04:48:09.001Z</time></trkpt><trkpt lat="-27.42363363743373" lon="115.46945975815201"><ele>241.0</ele><time>2026-04-15T04:48:10.001Z</time></trkpt><trkpt lat="-27.423717219956497" lon="115.46975477212384"><ele>241.5</ele><time>2026-04-15T04:48:11.001Z</time></trkpt><trkpt lat="-27.423801173484478" lon="115.47005225374137"><ele>242.0</ele><time>2026-04-15T04:48:12.001Z</time></trkpt><trkpt lat="-27.423884147505156" lon="115.47035250265846"><ele>243.0</ele><time>2026-04-15T04:48:13.001Z</time></trkpt><trkpt lat="-27.42396596634315" lon="115.4706500440495"><ele>244.0</ele><time>2026-04-15T04:48:14.001Z</time></trkpt><trkpt lat="-27.424134466712946" lon="115.47124008249696"><ele>242.5</ele><time>2026-04-15T04:48:16.001Z</time></trkpt><trkpt lat="-27.424218970866555" lon="115.47153139233416"><ele>241.0</ele><time>2026-04-15T04:48:17.001Z</time></trkpt><trkpt lat="-27.424302937528008" lon="115.47182413310003"><ele>242.5</ele><time>2026-04-15T04:48:18.001Z</time></trkpt><trkpt lat="-27.42438563372589" lon="115.47211795853437"><ele>244.0</ele><time>2026-04-15T04:48:19.001Z</time></trkpt><trkpt lat="-27.424465148197186" lon="115.47241422126582"><ele>244.0</ele><time>2026-04-15T04:48:20.001Z</time></trkpt><trkpt lat="-27.424544083358615" lon="115.47271018435362"><ele>244.0</ele><time>2026-04-15T04:48:21.001Z</time></trkpt><trkpt lat="-27.424625937195845" lon="115.47300973155234"><ele>243.0</ele><time>2026-04-15T04:48:22.001Z</time></trkpt><trkpt lat="-27.424709315685767" lon="115.47331522073668"><ele>242.0</ele><time>2026-04-15T04:48:23.001Z</time></trkpt><trkpt lat="-27.424792393741214" lon="115.47362093763111"><ele>242.5</ele><time>2026-04-15T04:48:24.001Z</time></trkpt><trkpt lat="-27.424874568784407" lon="115.47393016229331"><ele>243.0</ele><time>2026-04-15T04:48:25.001Z</time></trkpt><trkpt lat="-27.424958047947634" lon="115.4742362786049"><ele>243.0</ele><time>2026-04-15T04:48:26.001Z</time></trkpt><trkpt lat="-27.425041133934794" lon="115.4745449999483"><ele>243.0</ele><time>2026-04-15T04:48:27.001Z</time></trkpt><trkpt lat="-27.425126168771502" lon="115.47485584966306"><ele>243.0</ele><time>2026-04-15T04:48:28.001Z</time></trkpt><trkpt lat="-27.425211725599347" lon="115.47516393818178"><ele>243.0</ele><time>2026-04-15T04:48:29.001Z</time></trkpt><trkpt lat="-27.4252997836888" lon="115.47547224439438"><ele>242.5</ele><time>2026-04-15T04:48:30.001Z</time></trkpt><trkpt lat="-27.425388656958358" lon="115.47578304882356"><ele>242.0</ele><time>2026-04-15T04:48:31.001Z</time></trkpt><trkpt lat="-27.425477255473602" lon="115.47609612355443"><ele>242.0</ele><time>2026-04-15T04:48:32.001Z</time></trkpt><trkpt lat="-27.425563275833436" lon="115.47640850211097"><ele>242.0</ele><time>2026-04-15T04:48:33.001Z</time></trkpt><trkpt lat="-27.425650095629663" lon="115.4767231380869"><ele>242.0</ele><time>2026-04-15T04:48:34.001Z</time></trkpt><trkpt lat="-27.425735793315525" lon="115.47703905649895"><ele>242.0</ele><time>2026-04-15T04:48:35.001Z</time></trkpt><trkpt lat="-27.42590797141392" lon="115.47767392378536"><ele>242.0</ele><time>2026-04-15T04:48:37.001Z</time></trkpt><trkpt lat="-27.42599704122013" lon="115.47798923481977"><ele>242.0</ele><time>2026-04-15T04:48:38.001Z</time></trkpt><trkpt lat="-27.42608412932207" lon="115.4783047109252"><ele>242.0</ele><time>2026-04-15T04:48:39.001Z</time></trkpt><trkpt lat="-27.42617245736976" lon="115.47861878228218"><ele>242.0</ele><time>2026-04-15T04:48:40.001Z</time></trkpt><trkpt lat="-27.426260618497334" lon="115.47892969827198"><ele>242.5</ele><time>2026-04-15T04:48:41.001Z</time></trkpt><trkpt lat="-27.426347055082918" lon="115.47924053792158"><ele>243.0</ele><time>2026-04-15T04:48:42.001Z</time></trkpt><trkpt lat="-27.426432429658327" lon="115.47955240674068"><ele>242.5</ele><time>2026-04-15T04:48:43.001Z</time></trkpt><trkpt lat="-27.426517132229897" lon="115.47986242618764"><ele>242.0</ele><time>2026-04-15T04:48:44.001Z</time></trkpt><trkpt lat="-27.42660377348756" lon="115.4801672602772"><ele>242.0</ele><time>2026-04-15T04:48:45.001Z</time></trkpt><trkpt lat="-27.426690054464466" lon="115.48047063826384"><ele>242.0</ele><time>2026-04-15T04:48:46.001Z</time></trkpt><trkpt lat="-27.426775891974653" lon="115.48077346885611"><ele>242.0</ele><time>2026-04-15T04:48:47.001Z</time></trkpt><trkpt lat="-27.426862466513487" lon="115.48107598090219"><ele>242.0</ele><time>2026-04-15T04:48:48.001Z</time></trkpt><trkpt lat="-27.426951367836608" lon="115.48137962645814"><ele>242.5</ele><time>2026-04-15T04:48:49.001Z</time></trkpt><trkpt lat="-27.427038173270667" lon="115.48168011608777"><ele>243.0</ele><time>2026-04-15T04:48:50.001Z</time></trkpt><trkpt lat="-27.427127713166637" lon="115.48197657595152"><ele>244.5</ele><time>2026-04-15T04:48:51.001Z</time></trkpt><trkpt lat="-27.427215258123045" lon="115.48227348682246"><ele>246.0</ele><time>2026-04-15T04:48:52.001Z</time></trkpt><trkpt lat="-27.42729924714789" lon="115.48257240720747"><ele>246.0</ele><time>2026-04-15T04:48:53.001Z</time></trkpt><trkpt lat="-27.42737916247967" lon="115.48286717423974"><ele>246.0</ele><time>2026-04-15T04:48:54.001Z</time></trkpt><trkpt lat="-27.427459291500885" lon="115.48316279381014"><ele>245.0</ele><time>2026-04-15T04:48:55.001Z</time></trkpt><trkpt lat="-27.427618332889097" lon="115.48375162707264"><ele>243.5</ele><time>2026-04-15T04:48:57.001Z</time></trkpt><trkpt lat="-27.42770033521857" lon="115.48404954833788"><ele>242.0</ele><time>2026-04-15T04:48:58.001Z</time></trkpt><trkpt lat="-27.427780208145496" lon="115.48434530811147"><ele>243.0</ele><time>2026-04-15T04:48:59.001Z</time></trkpt><trkpt lat="-27.427857801280844" lon="115.48464244810857"><ele>244.0</ele><time>2026-04-15T04:49:00.001Z</time></trkpt><trkpt lat="-27.427932000649772" lon="115.48493579454671"><ele>245.0</ele><time>2026-04-15T04:49:01.001Z</time></trkpt><trkpt lat="-27.428005929458134" lon="115.48522363908614"><ele>246.0</ele><time>2026-04-15T04:49:02.001Z</time></trkpt><trkpt lat="-27.42808085525963" lon="115.48549644089853"><ele>246.0</ele><time>2026-04-15T04:49:03.001Z</time></trkpt><trkpt lat="-27.428160606220946" lon="115.48577031489752"><ele>246.0</ele><time>2026-04-15T04:49:04.001Z</time></trkpt><trkpt lat="-27.4282410712236" lon="115.48604627900686"><ele>245.5</ele><time>2026-04-15T04:49:05.001Z</time></trkpt><trkpt lat="-27.428324165731347" lon="115.48632289105197"><ele>245.0</ele><time>2026-04-15T04:49:06Z</time></trkpt><trkpt lat="-27.428406115016223" lon="115.48660348247373"><ele>245.0</ele><time>2026-04-15T04:49:07Z</time></trkpt><trkpt lat="-27.42848688350351" lon="115.48688244921462"><ele>245.0</ele><time>2026-04-15T04:49:08Z</time></trkpt><trkpt lat="-27.428565567426322" lon="115.48716316927525"><ele>244.5</ele><time>2026-04-15T04:49:09Z</time></trkpt><trkpt lat="-27.428642659320573" lon="115.48744110725998"><ele>244.0</ele><time>2026-04-15T04:49:10Z</time></trkpt><trkpt lat="-27.428722207456254" lon="115.48772197256643"><ele>243.0</ele><time>2026-04-15T04:49:11Z</time></trkpt><trkpt lat="-27.42880420660326" lon="115.48800395722338"><ele>242.0</ele><time>2026-04-15T04:49:12Z</time></trkpt><trkpt lat="-27.42888744650617" lon="115.48828995052556"><ele>242.0</ele><time>2026-04-15T04:49:13Z</time></trkpt><trkpt lat="-27.428970780647482" lon="115.48857397370425"><ele>242.0</ele><time>2026-04-15T04:49:14Z</time></trkpt><trkpt lat="-27.429053756028416" lon="115.48885983897517"><ele>242.0</ele><time>2026-04-15T04:49:15Z</time></trkpt><trkpt lat="-27.42913828800818" lon="115.48914639715944"><ele>242.0</ele><time>2026-04-15T04:49:16Z</time></trkpt><trkpt lat="-27.42930433882067" lon="115.48973724257092"><ele>243.0</ele><time>2026-04-15T04:49:18Z</time></trkpt><trkpt lat="-27.429386105535343" lon="115.49004526319676"><ele>244.0</ele><time>2026-04-15T04:49:19Z</time></trkpt><trkpt lat="-27.429469520356175" lon="115.49035488047328"><ele>245.0</ele><time>2026-04-15T04:49:20Z</time></trkpt><trkpt lat="-27.42955248025377" lon="115.49066151816412"><ele>246.0</ele><time>2026-04-15T04:49:21Z</time></trkpt><trkpt lat="-27.429635565958076" lon="115.49096509611562"><ele>245.5</ele><time>2026-04-15T04:49:22Z</time></trkpt><trkpt lat="-27.429719894386984" lon="115.49126749465756"><ele>245.0</ele><time>2026-04-15T04:49:23Z</time></trkpt><trkpt lat="-27.429806981773297" lon="115.49157069057568"><ele>245.0</ele><time>2026-04-15T04:49:24Z</time></trkpt><trkpt lat="-27.42989129523366" lon="115.49186649399567"><ele>245.0</ele><time>2026-04-15T04:49:25Z</time></trkpt><trkpt lat="-27.429974893233815" lon="115.49216600881192"><ele>245.0</ele><time>2026-04-15T04:49:26Z</time></trkpt><trkpt lat="-27.43005183224449" lon="115.49246731558866"><ele>245.0</ele><time>2026-04-15T04:49:27Z</time></trkpt><trkpt lat="-27.430129805891283" lon="115.49276946833523"><ele>245.0</ele><time>2026-04-15T04:49:28Z</time></trkpt><trkpt lat="-27.430211094351847" lon="115.49306914966974"><ele>245.0</ele><time>2026-04-15T04:49:29Z</time></trkpt><trkpt lat="-27.43029562862116" lon="115.4933726323133"><ele>245.0</ele><time>2026-04-15T04:49:30Z</time></trkpt><trkpt lat="-27.430382066888736" lon="115.49367580124411"><ele>245.0</ele><time>2026-04-15T04:49:31Z</time></trkpt><trkpt lat="-27.43046931232897" lon="115.49397725057341"><ele>245.0</ele><time>2026-04-15T04:49:32Z</time></trkpt><trkpt lat="-27.43055738940997" lon="115.49428851905286"><ele>245.0</ele><time>2026-04-15T04:49:33Z</time></trkpt><trkpt lat="-27.430644448397768" lon="115.49459926586486"><ele>245.0</ele><time>2026-04-15T04:49:34Z</time></trkpt><trkpt lat="-27.430729584823546" lon="115.4949092944721"><ele>245.0</ele><time>2026-04-15T04:49:35Z</time></trkpt><trkpt lat="-27.430814648706615" lon="115.49522147549213"><ele>244.5</ele><time>2026-04-15T04:49:36Z</time></trkpt><trkpt lat="-27.430900591735888" lon="115.49553566127516"><ele>244.0</ele><time>2026-04-15T04:49:37Z</time></trkpt><trkpt lat="-27.43107502502001" lon="115.49616177166445"><ele>243.0</ele><time>2026-04-15T04:49:39Z</time></trkpt><trkpt lat="-27.431160294718648" lon="115.49646221816666"><ele>242.0</ele><time>2026-04-15T04:49:40Z</time></trkpt><trkpt lat="-27.431239128191297" lon="115.49674305382207"><ele>243.0</ele><time>2026-04-15T04:49:41Z</time></trkpt><trkpt lat="-27.431312163774482" lon="115.49700789372079"><ele>244.0</ele><time>2026-04-15T04:49:42Z</time></trkpt><trkpt lat="-27.431381587217576" lon="115.49726983581454"><ele>244.5</ele><time>2026-04-15T04:49:43Z</time></trkpt><trkpt lat="-27.4314511051507" lon="115.49753487627521"><ele>245.0</ele><time>2026-04-15T04:49:44Z</time></trkpt><trkpt lat="-27.431513780960852" lon="115.4977855631676"><ele>244.0</ele><time>2026-04-15T04:49:45Z</time></trkpt><trkpt lat="-27.431573849715583" lon="115.4980371324527"><ele>243.0</ele><time>2026-04-15T04:49:46Z</time></trkpt><trkpt lat="-27.431631252401672" lon="115.49828696737778"><ele>243.0</ele><time>2026-04-15T04:49:47Z</time></trkpt><trkpt lat="-27.431685926987605" lon="115.49852990315054"><ele>243.0</ele><time>2026-04-15T04:49:48Z</time></trkpt><trkpt lat="-27.4317451541801" lon="115.49877417166427"><ele>243.0</ele><time>2026-04-15T04:49:49Z</time></trkpt><trkpt lat="-27.431810707131604" lon="115.49901823695603"><ele>243.0</ele><time>2026-04-15T04:49:50Z</time></trkpt><trkpt lat="-27.431877099617214" lon="115.49925242587373"><ele>243.0</ele><time>2026-04-15T04:49:51Z</time></trkpt><trkpt lat="-27.431943280337176" lon="115.49947523625912"><ele>243.0</ele><time>2026-04-15T04:49:52Z</time></trkpt><trkpt lat="-27.43200927739893" lon="115.49968229161878"><ele>243.0</ele><time>2026-04-15T04:49:53Z</time></trkpt><trkpt lat="-27.43207292611461" lon="115.49988129455858"><ele>243.0</ele><time>2026-04-15T04:49:54Z</time></trkpt><trkpt lat="-27.43213781169664" lon="115.50007639582076"><ele>243.0</ele><time>2026-04-15T04:49:55Z</time></trkpt><trkpt lat="-27.43221178728813" lon="115.50028558197252"><ele>243.66666666666669</ele><time>2026-04-15T04:49:56Z</time></trkpt><trkpt lat="-27.4322881133101" lon="115.50050924260592"><ele>244.33333333333334</ele><time>2026-04-15T04:49:57Z</time></trkpt><trkpt lat="-27.43236513901911" lon="115.5007483845608"><ele>245.0</ele><time>2026-04-15T04:49:58Z</time></trkpt><trkpt lat="-27.432508222605342" lon="115.5012594093475"><ele>245.0</ele><time>2026-04-15T04:50:00Z</time></trkpt><trkpt lat="-27.432573887469662" lon="115.50151761770874"><ele>245.0</ele><time>2026-04-15T04:50:01Z</time></trkpt><trkpt lat="-27.432638684566435" lon="115.50176578826587"><ele>245.0</ele><time>2026-04-15T04:50:02Z</time></trkpt><trkpt lat="-27.432701890133742" lon="115.50200263481639"><ele>245.0</ele><time>2026-04-15T04:50:03Z</time></trkpt><trkpt lat="-27.432766550382503" lon="115.50223793790772"><ele>245.0</ele><time>2026-04-15T04:50:04Z</time></trkpt><trkpt lat="-27.432826812709802" lon="115.50246715535292"><ele>244.66666666666669</ele><time>2026-04-15T04:50:05Z</time></trkpt><trkpt lat="-27.43288864939444" lon="115.5027027239865"><ele>244.33333333333331</ele><time>2026-04-15T04:50:06Z</time></trkpt><trkpt lat="-27.432945612261285" lon="115.50293188657402"><ele>244.0</ele><time>2026-04-15T04:50:07Z</time></trkpt><trkpt lat="-27.43300373820736" lon="115.50316564132113"><ele>244.0</ele><time>2026-04-15T04:50:08Z</time></trkpt><trkpt lat="-27.433066640572935" lon="115.5034031637798"><ele>244.0</ele><time>2026-04-15T04:50:09Z</time></trkpt><trkpt lat="-27.433133069002892" lon="115.50363386771436"><ele>244.0</ele><time>2026-04-15T04:50:10Z</time></trkpt><trkpt lat="-27.433204291323303" lon="115.50384477152053"><ele>243.66666666666666</ele><time>2026-04-15T04:50:11Z</time></trkpt><trkpt lat="-27.43327878100261" lon="115.50403820380143"><ele>243.33333333333331</ele><time>2026-04-15T04:50:12Z</time></trkpt><trkpt lat="-27.433360546753313" lon="115.50421987878464"><ele>243.0</ele><time>2026-04-15T04:50:13Z</time></trkpt><trkpt lat="-27.433449889974924" lon="115.50438073061089"><ele>243.0</ele><time>2026-04-15T04:50:14Z</time></trkpt><trkpt lat="-27.43354085553605" lon="115.50452272023583"><ele>243.0</ele><time>2026-04-15T04:50:15Z</time></trkpt><trkpt lat="-27.43363820437847" lon="115.50466374675669"><ele>243.0</ele><time>2026-04-15T04:50:16Z</time></trkpt><trkpt lat="-27.43374050379287" lon="115.50480980432633"><ele>243.0</ele><time>2026-04-15T04:50:17Z</time></trkpt><trkpt lat="-27.433842744078706" lon="115.50495756536155"><ele>243.0</ele><time>2026-04-15T04:50:18Z</time></trkpt><trkpt lat="-27.43394870642459" lon="115.5051069661343"><ele>243.0</ele><time>2026-04-15T04:50:19Z</time></trkpt><trkpt lat="-27.43416339319266" lon="115.50540449243071"><ele>243.0</ele><time>2026-04-15T04:50:21Z</time></trkpt><trkpt lat="-27.43428157164606" lon="115.50556035746413"><ele>243.0</ele><time>2026-04-15T04:50:22Z</time></trkpt><trkpt lat="-27.434397364291435" lon="115.50570935986698"><ele>243.0</ele><time>2026-04-15T04:50:23Z</time></trkpt><trkpt lat="-27.434513197543186" lon="115.50586058278199"><ele>243.0</ele><time>2026-04-15T04:50:24Z</time></trkpt><trkpt lat="-27.43462739882627" lon="115.50601027791389"><ele>243.0</ele><time>2026-04-15T04:50:25Z</time></trkpt><trkpt lat="-27.43473786535232" lon="115.50615797044519"><ele>243.0</ele><time>2026-04-15T04:50:26Z</time></trkpt><trkpt lat="-27.43484246544154" lon="115.50630416579537"><ele>241.66666666666669</ele><time>2026-04-15T04:50:27Z</time></trkpt><trkpt lat="-27.434938330684986" lon="115.50644884300435"><ele>240.33333333333334</ele><time>2026-04-15T04:50:28Z</time></trkpt><trkpt lat="-27.435020266450806" lon="115.50659722064701"><ele>239.0</ele><time>2026-04-15T04:50:29Z</time></trkpt><trkpt lat="-27.43509524150927" lon="115.5067601945081"><ele>239.0</ele><time>2026-04-15T04:50:30Z</time></trkpt><trkpt lat="-27.435147883476407" lon="115.50692566394798"><ele>239.0</ele><time>2026-04-15T04:50:31Z</time></trkpt><trkpt lat="-27.435182425572073" lon="115.50710128418055"><ele>239.0</ele><time>2026-04-15T04:50:32Z</time></trkpt><trkpt lat="-27.435196829936444" lon="115.50727995333729"><ele>238.66666666666669</ele><time>2026-04-15T04:50:33Z</time></trkpt><trkpt lat="-27.43519013036128" lon="115.50745948057804"><ele>238.33333333333331</ele><time>2026-04-15T04:50:34Z</time></trkpt><trkpt lat="-27.43516874259022" lon="115.50763432357472"><ele>238.0</ele><time>2026-04-15T04:50:35Z</time></trkpt><trkpt lat="-27.435132870853895" lon="115.50782118731829"><ele>239.0</ele><time>2026-04-15T04:50:36Z</time></trkpt><trkpt lat="-27.435089016509668" lon="115.5080181497287"><ele>240.0</ele><time>2026-04-15T04:50:37Z</time></trkpt><trkpt lat="-27.435050350872153" lon="115.50820217823437"><ele>241.0</ele><time>2026-04-15T04:50:38Z</time></trkpt><trkpt lat="-27.435019281177077" lon="115.50838006241517"><ele>241.0</ele><time>2026-04-15T04:50:39Z</time></trkpt><trkpt lat="-27.434994690454445" lon="115.50854910374913"><ele>241.0</ele><time>2026-04-15T04:50:40Z</time></trkpt><trkpt lat="-27.43495169340881" lon="115.50885561013345"><ele>241.0</ele><time>2026-04-15T04:50:42Z</time></trkpt><trkpt lat="-27.434908445643178" lon="115.5089845306118"><ele>241.20000000000002</ele><time>2026-04-15T04:50:43Z</time></trkpt><trkpt lat="-27.434850310025684" lon="115.5091029905488"><ele>241.40000000000003</ele><time>2026-04-15T04:50:44Z</time></trkpt><trkpt lat="-27.434786807609953" lon="115.5092102987682"><ele>241.6</ele><time>2026-04-15T04:50:45Z</time></trkpt><trkpt lat="-27.434719166711144" lon="115.50929402555018"><ele>241.8</ele><time>2026-04-15T04:50:46Z</time></trkpt><trkpt lat="-27.434653879407783" lon="115.50935917311668"><ele>242.0</ele><time>2026-04-15T04:50:47Z</time></trkpt><trkpt lat="-27.434603192487856" lon="115.5094144719582"><ele>241.66666666666669</ele><time>2026-04-15T04:50:48Z</time></trkpt><trkpt lat="-27.43457172941543" lon="115.50948379431804"><ele>241.33333333333334</ele><time>2026-04-15T04:50:49Z</time></trkpt><trkpt lat="-27.434559280481068" lon="115.50955832807024"><ele>241.0</ele><time>2026-04-15T04:50:50Z</time></trkpt><trkpt lat="-27.434571409248147" lon="115.50966170674441"><ele>240.66666666666669</ele><time>2026-04-15T04:50:52Z</time></trkpt><trkpt lat="-27.43459781291259" lon="115.5097735144812"><ele>240.33333333333334</ele><time>2026-04-15T04:50:55Z</time></trkpt><trkpt lat="-27.434609095902168" lon="115.50985865838946"><ele>240.0</ele><time>2026-04-15T04:50:57Z</time></trkpt><trkpt lat="-27.43461029595501" lon="115.5099357980996"><ele>239.75</ele><time>2026-04-15T04:50:59Z</time></trkpt><trkpt lat="-27.43461977328849" lon="115.51003753984835"><ele>239.5</ele><time>2026-04-15T04:51:01Z</time></trkpt><trkpt lat="-27.434630836586976" lon="115.51022919002135"><ele>239.25</ele><time>2026-04-15T04:51:05.001Z</time></trkpt><trkpt lat="-27.43461637525106" lon="115.51038322185539"><ele>239.0</ele><time>2026-04-15T04:51:07.001Z</time></trkpt><trkpt lat="-27.43460187214291" lon="115.51047716788227"><ele>239.0</ele><time>2026-04-15T04:51:08.001Z</time></trkpt><trkpt lat="-27.434576831159028" lon="115.5106084410235"><ele>238.99999999999997</ele><time>2026-04-15T04:51:09.001Z</time></trkpt><trkpt lat="-27.4345496400555" lon="115.51072457850853"><ele>238.99999999999997</ele><time>2026-04-15T04:51:10.001Z</time></trkpt><trkpt lat="-27.4345125252355" lon="115.5108287160621"><ele>239.0</ele><time>2026-04-15T04:51:11.001Z</time></trkpt><trkpt lat="-27.434452580292607" lon="115.51091794264876"><ele>239.0</ele><time>2026-04-15T04:51:12Z</time></trkpt><trkpt lat="-27.434368730691713" lon="115.51100779463562"><ele>239.0</ele><time>2026-04-15T04:51:13Z</time></trkpt><trkpt lat="-27.43426627103618" lon="115.51110286620745"><ele>239.0</ele><time>2026-04-15T04:51:14Z</time></trkpt><trkpt lat="-27.434148527271525" lon="115.5112123037286"><ele>239.0</ele><time>2026-04-15T04:51:15Z</time></trkpt><trkpt lat="-27.434038592815703" lon="115.51131648807805"><ele>239.0</ele><time>2026-04-15T04:51:16Z</time></trkpt><trkpt lat="-27.433919888126695" lon="115.51142595854125"><ele>238.66666666666669</ele><time>2026-04-15T04:51:17Z</time></trkpt><trkpt lat="-27.43380320724071" lon="115.51153838838648"><ele>238.33333333333331</ele><time>2026-04-15T04:51:18Z</time></trkpt><trkpt lat="-27.4336802709454" lon="115.51165178989224"><ele>238.0</ele><time>2026-04-15T04:51:19Z</time></trkpt><trkpt lat="-27.433555091895332" lon="115.5117605558325"><ele>238.0</ele><time>2026-04-15T04:51:20Z</time></trkpt><trkpt lat="-27.433431963527894" lon="115.51186124156796"><ele>238.0</ele><time>2026-04-15T04:51:21Z</time></trkpt><trkpt lat="-27.43319428139594" lon="115.51203587171993"><ele>238.0</ele><time>2026-04-15T04:51:23Z</time></trkpt><trkpt lat="-27.43306613462263" lon="115.51210358029297"><ele>238.75</ele><time>2026-04-15T04:51:24Z</time></trkpt><trkpt lat="-27.432942684705125" lon="115.51215892702471"><ele>239.5</ele><time>2026-04-15T04:51:25Z</time></trkpt><trkpt lat="-27.43281358065517" lon="115.5122000462911"><ele>240.25</ele><time>2026-04-15T04:51:26Z</time></trkpt><trkpt lat="-27.43268491047878" lon="115.5122367756817"><ele>241.0</ele><time>2026-04-15T04:51:27Z</time></trkpt><trkpt lat="-27.432550658452616" lon="115.51226384100136"><ele>241.0</ele><time>2026-04-15T04:51:28Z</time></trkpt><trkpt lat="-27.432414963499838" lon="115.51228607629191"><ele>241.0</ele><time>2026-04-15T04:51:29Z</time></trkpt><trkpt lat="-27.43227997229713" lon="115.51229991526381"><ele>241.0</ele><time>2026-04-15T04:51:30Z</time></trkpt><trkpt lat="-27.43214842453378" lon="115.51232135745838"><ele>241.0</ele><time>2026-04-15T04:51:31Z</time></trkpt><trkpt lat="-27.43200898589458" lon="115.51234643649042"><ele>241.0</ele><time>2026-04-15T04:51:32Z</time></trkpt><trkpt lat="-27.431850771439684" lon="115.51237840921813"><ele>241.0</ele><time>2026-04-15T04:51:33Z</time></trkpt><trkpt lat="-27.431696678007796" lon="115.5124208001827"><ele>241.0</ele><time>2026-04-15T04:51:34Z</time></trkpt><trkpt lat="-27.431539149043697" lon="115.51247591999707"><ele>241.0</ele><time>2026-04-15T04:51:35Z</time></trkpt><trkpt lat="-27.431388831571745" lon="115.51254191965005"><ele>241.0</ele><time>2026-04-15T04:51:36Z</time></trkpt><trkpt lat="-27.43124018272373" lon="115.512622405209"><ele>241.0</ele><time>2026-04-15T04:51:37Z</time></trkpt><trkpt lat="-27.431091768756104" lon="115.51271250316456"><ele>241.0</ele><time>2026-04-15T04:51:38Z</time></trkpt><trkpt lat="-27.43094115614569" lon="115.51280293238617"><ele>241.0</ele><time>2026-04-15T04:51:39Z</time></trkpt><trkpt lat="-27.43079885917655" lon="115.51288656569572"><ele>241.0</ele><time>2026-04-15T04:51:40Z</time></trkpt><trkpt lat="-27.430662933695967" lon="115.51296265956007"><ele>241.0</ele><time>2026-04-15T04:51:41Z</time></trkpt><trkpt lat="-27.430535132607872" lon="115.51303592454464"><ele>241.0</ele><time>2026-04-15T04:51:42Z</time></trkpt><trkpt lat="-27.4302907890764" lon="115.51316380238268"><ele>241.0</ele><time>2026-04-15T04:51:44Z</time></trkpt><trkpt lat="-27.430170732296936" lon="115.5132066451317"><ele>241.0</ele><time>2026-04-15T04:51:45Z</time></trkpt><trkpt lat="-27.430055557568366" lon="115.5132458812323"><ele>241.00000000000003</ele><time>2026-04-15T04:51:46Z</time></trkpt><trkpt lat="-27.42994874226994" lon="115.51328647867611"><ele>241.00000000000003</ele><time>2026-04-15T04:51:47Z</time></trkpt><trkpt lat="-27.429849541756806" lon="115.51332859753234"><ele>241.0</ele><time>2026-04-15T04:51:48Z</time></trkpt><trkpt lat="-27.42975947769832" lon="115.51336713870724"><ele>241.0</ele><time>2026-04-15T04:51:49Z</time></trkpt><trkpt lat="-27.42966638862112" lon="115.51341391015109"><ele>240.0</ele><time>2026-04-15T04:51:50Z</time></trkpt><trkpt lat="-27.4295876180622" lon="115.51346453385173"><ele>239.00000000000003</ele><time>2026-04-15T04:51:51Z</time></trkpt><trkpt lat="-27.429497616224303" lon="115.51352017887976"><ele>238.00000000000003</ele><time>2026-04-15T04:51:52Z</time></trkpt><trkpt lat="-27.429387670072327" lon="115.51358826997928"><ele>237.0</ele><time>2026-04-15T04:51:53Z</time></trkpt><trkpt lat="-27.429281479889426" lon="115.51365567576867"><ele>236.0</ele><time>2026-04-15T04:51:54Z</time></trkpt><trkpt lat="-27.429179336463132" lon="115.51372844721288"><ele>236.25</ele><time>2026-04-15T04:51:55Z</time></trkpt><trkpt lat="-27.429079937712842" lon="115.51380391038538"><ele>236.5</ele><time>2026-04-15T04:51:56Z</time></trkpt><trkpt lat="-27.428979163388934" lon="115.51387703010339"><ele>236.75</ele><time>2026-04-15T04:51:57Z</time></trkpt><trkpt lat="-27.428882675670287" lon="115.51394423477764"><ele>237.0</ele><time>2026-04-15T04:51:58Z</time></trkpt><trkpt lat="-27.428796062657753" lon="115.51400597563365"><ele>238.0</ele><time>2026-04-15T04:51:59Z</time></trkpt><trkpt lat="-27.428720704119804" lon="115.51407122082188"><ele>239.0</ele><time>2026-04-15T04:52:00Z</time></trkpt><trkpt lat="-27.428653861606985" lon="115.51414244280568"><ele>240.0</ele><time>2026-04-15T04:52:01Z</time></trkpt><trkpt lat="-27.42859313785229" lon="115.51420734383538"><ele>241.0</ele><time>2026-04-15T04:52:02Z</time></trkpt><trkpt lat="-27.42854133997704" lon="115.51426821121821"><ele>242.0</ele><time>2026-04-15T04:52:03Z</time></trkpt><trkpt lat="-27.42845735394217" lon="115.51440467874525"><ele>242.00000000000003</ele><time>2026-04-15T04:52:05Z</time></trkpt><trkpt lat="-27.42841799295301" lon="115.51448001199239"><ele>242.0</ele><time>2026-04-15T04:52:06Z</time></trkpt><trkpt lat="-27.428383795831454" lon="115.51455119731591"><ele>242.0</ele><time>2026-04-15T04:52:07Z</time></trkpt><trkpt lat="-27.428339989050922" lon="115.51466219112618"><ele>242.0</ele><time>2026-04-15T04:52:09Z</time></trkpt><trkpt lat="-27.42830221076539" lon="115.5147476077061"><ele>242.00000000000003</ele><time>2026-04-15T04:52:11Z</time></trkpt><trkpt lat="-27.428246259541286" lon="115.51484889678841"><ele>242.0</ele><time>2026-04-15T04:52:13Z</time></trkpt><trkpt lat="-27.428221140680357" lon="115.51492368320079"><ele>241.66666666666669</ele><time>2026-04-15T04:52:14Z</time></trkpt><trkpt lat="-27.42819847433764" lon="115.51500615954595"><ele>241.33333333333334</ele><time>2026-04-15T04:52:15Z</time></trkpt><trkpt lat="-27.428174107751865" lon="115.51508973318303"><ele>241.0</ele><time>2026-04-15T04:52:16Z</time></trkpt><trkpt lat="-27.428152053146857" lon="115.51517777323748"><ele>240.66666666666669</ele><time>2026-04-15T04:52:17Z</time></trkpt><trkpt lat="-27.42812878275514" lon="115.5152644233965"><ele>240.33333333333334</ele><time>2026-04-15T04:52:18Z</time></trkpt><trkpt lat="-27.428100157018427" lon="115.51535088781536"><ele>240.0</ele><time>2026-04-15T04:52:19Z</time></trkpt><trkpt lat="-27.42806922945513" lon="115.51543684939536"><ele>240.0</ele><time>2026-04-15T04:52:20Z</time></trkpt><trkpt lat="-27.428037444382916" lon="115.5155190793797"><ele>240.0</ele><time>2026-04-15T04:52:21Z</time></trkpt><trkpt lat="-27.428006934312982" lon="115.51559909161773"><ele>240.0</ele><time>2026-04-15T04:52:22Z</time></trkpt><trkpt lat="-27.42797562133361" lon="115.5156766112825"><ele>240.0</ele><time>2026-04-15T04:52:23Z</time></trkpt><trkpt lat="-27.427946303552464" lon="115.51575352312439"><ele>240.0</ele><time>2026-04-15T04:52:24Z</time></trkpt><trkpt lat="-27.427879165664773" lon="115.51592833876167"><ele>240.6</ele><time>2026-04-15T04:52:26Z</time></trkpt><trkpt lat="-27.42784969361994" lon="115.51602333506939"><ele>241.2</ele><time>2026-04-15T04:52:27Z</time></trkpt><trkpt lat="-27.4278191301516" lon="115.5161252452991"><ele>241.8</ele><time>2026-04-15T04:52:28Z</time></trkpt><trkpt lat="-27.42778949127827" lon="115.5162251748568"><ele>242.4</ele><time>2026-04-15T04:52:29Z</time></trkpt><trkpt lat="-27.427759296857904" lon="115.51632969986218"><ele>243.0</ele><time>2026-04-15T04:52:30Z</time></trkpt><trkpt lat="-27.427720318398848" lon="115.5164483690396"><ele>243.5</ele><time>2026-04-15T04:52:31Z</time></trkpt><trkpt lat="-27.42767377306208" lon="115.51657649938471"><ele>244.0</ele><time>2026-04-15T04:52:32Z</time></trkpt><trkpt lat="-27.4276251339314" lon="115.51670588775774"><ele>244.5</ele><time>2026-04-15T04:52:33Z</time></trkpt><trkpt lat="-27.42758638999203" lon="115.51682085374264"><ele>245.0</ele><time>2026-04-15T04:52:34Z</time></trkpt><trkpt lat="-27.427551591820944" lon="115.51692608888465"><ele>245.00000000000003</ele><time>2026-04-15T04:52:35Z</time></trkpt><trkpt lat="-27.42751916801347" lon="115.51701925966879"><ele>245.0</ele><time>2026-04-15T04:52:36Z</time></trkpt><trkpt lat="-27.427481781223776" lon="115.51710993127466"><ele>245.0</ele><time>2026-04-15T04:52:37Z</time></trkpt><trkpt lat="-27.427442047159737" lon="115.517197329704"><ele>245.0</ele><time>2026-04-15T04:52:38Z</time></trkpt><trkpt lat="-27.427404553425006" lon="115.51728568176082"><ele>245.00000000000003</ele><time>2026-04-15T04:52:39Z</time></trkpt><trkpt lat="-27.427370256823824" lon="115.51738059127165"><ele>245.0</ele><time>2026-04-15T04:52:40Z</time></trkpt><trkpt lat="-27.42733393887603" lon="115.51748459342457"><ele>244.4</ele><time>2026-04-15T04:52:41Z</time></trkpt><trkpt lat="-27.42729732955537" lon="115.5175966878293"><ele>243.8</ele><time>2026-04-15T04:52:42Z</time></trkpt><trkpt lat="-27.427257840111402" lon="115.5177125017608"><ele>243.2</ele><time>2026-04-15T04:52:43Z</time></trkpt><trkpt lat="-27.427216544282878" lon="115.5178328087205"><ele>242.6</ele><time>2026-04-15T04:52:44Z</time></trkpt><trkpt lat="-27.427179670233347" lon="115.51795918955845"><ele>242.0</ele><time>2026-04-15T04:52:45Z</time></trkpt><trkpt lat="-27.42712679281889" lon="115.51823109458951"><ele>242.0</ele><time>2026-04-15T04:52:47Z</time></trkpt><trkpt lat="-27.427098285044362" lon="115.51837008917512"><ele>242.0</ele><time>2026-04-15T04:52:48Z</time></trkpt><trkpt lat="-27.427069384949515" lon="115.51851083993543"><ele>242.0</ele><time>2026-04-15T04:52:49Z</time></trkpt><trkpt lat="-27.427048000834983" lon="115.51865456217685"><ele>242.0</ele><time>2026-04-15T04:52:50Z</time></trkpt><trkpt lat="-27.42702805277181" lon="115.51880278108155"><ele>242.0</ele><time>2026-04-15T04:52:51Z</time></trkpt><trkpt lat="-27.426999151474533" lon="115.51896651115035"><ele>242.0</ele><time>2026-04-15T04:52:52Z</time></trkpt><trkpt lat="-27.426965550895865" lon="115.51914409227454"><ele>242.0</ele><time>2026-04-15T04:52:53Z</time></trkpt><trkpt lat="-27.426936195586787" lon="115.51932994566847"><ele>242.0</ele><time>2026-04-15T04:52:54Z</time></trkpt><trkpt lat="-27.426909543418116" lon="115.51952387916145"><ele>242.0</ele><time>2026-04-15T04:52:55Z</time></trkpt><trkpt lat="-27.426878615244867" lon="115.51971587110359"><ele>242.0</ele><time>2026-04-15T04:52:56Z</time></trkpt><trkpt lat="-27.426845687452126" lon="115.51990556349587"><ele>242.0</ele><time>2026-04-15T04:52:57Z</time></trkpt><trkpt lat="-27.426809311959918" lon="115.52009199267816"><ele>242.0</ele><time>2026-04-15T04:52:58Z</time></trkpt><trkpt lat="-27.42677236118094" lon="115.52028269159814"><ele>242.0</ele><time>2026-04-15T04:52:59Z</time></trkpt><trkpt lat="-27.42673630415796" lon="115.52046266727405"><ele>242.0</ele><time>2026-04-15T04:53:00Z</time></trkpt><trkpt lat="-27.426699599348474" lon="115.52064224456622"><ele>242.0</ele><time>2026-04-15T04:53:01Z</time></trkpt><trkpt lat="-27.426665010400484" lon="115.5208137462975"><ele>242.0</ele><time>2026-04-15T04:53:02Z</time></trkpt><trkpt lat="-27.426633793334435" lon="115.52098109063144"><ele>242.0</ele><time>2026-04-15T04:53:03Z</time></trkpt><trkpt lat="-27.426604523998375" lon="115.52114676207837"><ele>242.0</ele><time>2026-04-15T04:53:04Z</time></trkpt><trkpt lat="-27.426577289792267" lon="115.52130055671408"><ele>242.0</ele><time>2026-04-15T04:53:05Z</time></trkpt><trkpt lat="-27.4265501714909" lon="115.52144885715241"><ele>242.0</ele><time>2026-04-15T04:53:06Z</time></trkpt><trkpt lat="-27.426508445887208" lon="115.52171361753038"><ele>242.2</ele><time>2026-04-15T04:53:08Z</time></trkpt><trkpt lat="-27.426486853309886" lon="115.52183689652999"><ele>242.39999999999998</ele><time>2026-04-15T04:53:09Z</time></trkpt><trkpt lat="-27.426457798077955" lon="115.52195437582134"><ele>242.60000000000002</ele><time>2026-04-15T04:53:10Z</time></trkpt><trkpt lat="-27.42642040651856" lon="115.52206844097431"><ele>242.8</ele><time>2026-04-15T04:53:11Z</time></trkpt><trkpt lat="-27.426374144627015" lon="115.52217883307198"><ele>243.0</ele><time>2026-04-15T04:53:12Z</time></trkpt><trkpt lat="-27.42632122763802" lon="115.52228110333517"><ele>242.8</ele><time>2026-04-15T04:53:13Z</time></trkpt><trkpt lat="-27.42625833101601" lon="115.5223699651201"><ele>242.60000000000002</ele><time>2026-04-15T04:53:14Z</time></trkpt><trkpt lat="-27.426194296504747" lon="115.52245576093456"><ele>242.39999999999998</ele><time>2026-04-15T04:53:15Z</time></trkpt><trkpt lat="-27.42611791090632" lon="115.52254531549785"><ele>242.2</ele><time>2026-04-15T04:53:16Z</time></trkpt><trkpt lat="-27.42603536261704" lon="115.52263576971612"><ele>242.0</ele><time>2026-04-15T04:53:17Z</time></trkpt><trkpt lat="-27.425947420768114" lon="115.52273273201739"><ele>242.0</ele><time>2026-04-15T04:53:18Z</time></trkpt><trkpt lat="-27.425851809460102" lon="115.5228372498981"><ele>242.0</ele><time>2026-04-15T04:53:19Z</time></trkpt><trkpt lat="-27.42575077977926" lon="115.52294980138632"><ele>242.0</ele><time>2026-04-15T04:53:20Z</time></trkpt><trkpt lat="-27.425645815739387" lon="115.52306505031802"><ele>242.0</ele><time>2026-04-15T04:53:21Z</time></trkpt><trkpt lat="-27.425539876985653" lon="115.52318423181252"><ele>243.0</ele><time>2026-04-15T04:53:22Z</time></trkpt><trkpt lat="-27.42542387508655" lon="115.52330999393102"><ele>244.0</ele><time>2026-04-15T04:53:23Z</time></trkpt><trkpt lat="-27.425301340300834" lon="115.5234413794531"><ele>245.0</ele><time>2026-04-15T04:53:24Z</time></trkpt><trkpt lat="-27.425175000862" lon="115.52358303702404"><ele>244.33333333333334</ele><time>2026-04-15T04:53:25Z</time></trkpt><trkpt lat="-27.42504533735305" lon="115.52373094967646"><ele>243.66666666666669</ele><time>2026-04-15T04:53:26Z</time></trkpt><trkpt lat="-27.42490609992722" lon="115.52388593252391"><ele>243.0</ele><time>2026-04-15T04:53:27Z</time></trkpt><trkpt lat="-27.424610740480578" lon="115.52421476140435"><ele>243.0</ele><time>2026-04-15T04:53:29Z</time></trkpt><trkpt lat="-27.4244582751107" lon="115.52438274541521"><ele>243.0</ele><time>2026-04-15T04:53:30Z</time></trkpt><trkpt lat="-27.424308162154553" lon="115.52454833587839"><ele>243.0</ele><time>2026-04-15T04:53:31Z</time></trkpt><trkpt lat="-27.42415186050424" lon="115.52472591385958"><ele>242.66666666666669</ele><time>2026-04-15T04:53:32Z</time></trkpt><trkpt lat="-27.423990046599755" lon="115.52490761039013"><ele>242.33333333333334</ele><time>2026-04-15T04:53:33Z</time></trkpt><trkpt lat="-27.423839939235492" lon="115.52508347030303"><ele>242.0</ele><time>2026-04-15T04:53:34Z</time></trkpt><trkpt lat="-27.423690386259505" lon="115.52525559903661"><ele>243.5</ele><time>2026-04-15T04:53:35Z</time></trkpt><trkpt lat="-27.423533490114938" lon="115.52543125261819"><ele>245.0</ele><time>2026-04-15T04:53:36Z</time></trkpt><trkpt lat="-27.423368584247125" lon="115.52561008642184"><ele>245.0</ele><time>2026-04-15T04:53:37Z</time></trkpt><trkpt lat="-27.42319856203013" lon="115.52579496650057"><ele>245.0</ele><time>2026-04-15T04:53:38Z</time></trkpt><trkpt lat="-27.423025557635377" lon="115.52598771397697"><ele>245.5</ele><time>2026-04-15T04:53:39Z</time></trkpt><trkpt lat="-27.42284616287151" lon="115.5261872881606"><ele>246.0</ele><time>2026-04-15T04:53:40Z</time></trkpt><trkpt lat="-27.42266510090246" lon="115.52638868556917"><ele>246.0</ele><time>2026-04-15T04:53:41Z</time></trkpt><trkpt lat="-27.42248185549259" lon="115.52659326406588"><ele>246.0</ele><time>2026-04-15T04:53:42Z</time></trkpt><trkpt lat="-27.422295902579258" lon="115.52680100824297"><ele>245.0</ele><time>2026-04-15T04:53:43Z</time></trkpt><trkpt lat="-27.422112407902397" lon="115.5270072807145"><ele>244.0</ele><time>2026-04-15T04:53:44Z</time></trkpt><trkpt lat="-27.42192782246877" lon="115.52721519987693"><ele>244.0</ele><time>2026-04-15T04:53:45Z</time></trkpt><trkpt lat="-27.42174629249396" lon="115.52742111912477"><ele>244.0</ele><time>2026-04-15T04:53:46Z</time></trkpt><trkpt lat="-27.42156716784646" lon="115.52762483537776"><ele>244.0</ele><time>2026-04-15T04:53:47Z</time></trkpt><trkpt lat="-27.421389623564508" lon="115.52782989446338"><ele>244.0</ele><time>2026-04-15T04:53:48Z</time></trkpt><trkpt lat="-27.42104376556069" lon="115.52821635688919"><ele>244.66666666666666</ele><time>2026-04-15T04:53:50Z</time></trkpt><trkpt lat="-27.420881462388746" lon="115.52837458066844"><ele>245.33333333333331</ele><time>2026-04-15T04:53:51Z</time></trkpt><trkpt lat="-27.420729181516688" lon="115.52852469563156"><ele>246.0</ele><time>2026-04-15T04:53:52Z</time></trkpt><trkpt lat="-27.420573857555585" lon="115.52868764983779"><ele>246.5</ele><time>2026-04-15T04:53:53Z</time></trkpt><trkpt lat="-27.42041368477574" lon="115.52886255142714"><ele>247.0</ele><time>2026-04-15T04:53:54Z</time></trkpt><trkpt lat="-27.42025401683738" lon="115.5290450177628"><ele>247.0</ele><time>2026-04-15T04:53:55Z</time></trkpt><trkpt lat="-27.42009045546145" lon="115.52923394295183"><ele>247.0</ele><time>2026-04-15T04:53:56Z</time></trkpt><trkpt lat="-27.419922412480307" lon="115.52942313173091"><ele>247.0</ele><time>2026-04-15T04:53:57Z</time></trkpt><trkpt lat="-27.419753903318266" lon="115.52960955424564"><ele>247.0</ele><time>2026-04-15T04:53:58Z</time></trkpt><trkpt lat="-27.41958327879754" lon="115.5297986583222"><ele>247.0</ele><time>2026-04-15T04:53:59Z</time></trkpt><trkpt lat="-27.419413807840357" lon="115.52998897469018"><ele>247.0</ele><time>2026-04-15T04:54:00Z</time></trkpt><trkpt lat="-27.419241134749484" lon="115.53018062748943"><ele>247.0</ele><time>2026-04-15T04:54:01Z</time></trkpt><trkpt lat="-27.419065525790884" lon="115.53037195485285"><ele>247.0</ele><time>2026-04-15T04:54:02Z</time></trkpt><trkpt lat="-27.418888015295497" lon="115.53056537297539"><ele>248.5</ele><time>2026-04-15T04:54:03Z</time></trkpt><trkpt lat="-27.41870860607" lon="115.53076445615109"><ele>250.0</ele><time>2026-04-15T04:54:04Z</time></trkpt><trkpt lat="-27.418528432249605" lon="115.5309690738344"><ele>250.0</ele><time>2026-04-15T04:54:05Z</time></trkpt><trkpt lat="-27.418348985462913" lon="115.53117861138689"><ele>250.0</ele><time>2026-04-15T04:54:06Z</time></trkpt><trkpt lat="-27.418172658468432" lon="115.53139153592366"><ele>250.0</ele><time>2026-04-15T04:54:07Z</time></trkpt><trkpt lat="-27.417996976312782" lon="115.5316071761393"><ele>250.0</ele><time>2026-04-15T04:54:08Z</time></trkpt><trkpt lat="-27.417823200526488" lon="115.53181857191936"><ele>249.0</ele><time>2026-04-15T04:54:09Z</time></trkpt><trkpt lat="-27.417461711196832" lon="115.53220825385209"><ele>249.0</ele><time>2026-04-15T04:54:11Z</time></trkpt><trkpt lat="-27.417281174466385" lon="115.5324038187484"><ele>249.0</ele><time>2026-04-15T04:54:12Z</time></trkpt><trkpt lat="-27.41710659888596" lon="115.53260022102221"><ele>249.0</ele><time>2026-04-15T04:54:13Z</time></trkpt><trkpt lat="-27.416930122384997" lon="115.53279353055903"><ele>249.0</ele><time>2026-04-15T04:54:14Z</time></trkpt><trkpt lat="-27.416749477654967" lon="115.53298476839349"><ele>248.5</ele><time>2026-04-15T04:54:15Z</time></trkpt><trkpt lat="-27.416572613004377" lon="115.53317542678566"><ele>248.0</ele><time>2026-04-15T04:54:16Z</time></trkpt><trkpt lat="-27.416393483957282" lon="115.53337045746362"><ele>252.0</ele><time>2026-04-15T04:54:17Z</time></trkpt><trkpt lat="-27.416036858524915" lon="115.53375939464942"><ele>252.0</ele><time>2026-04-15T04:54:19Z</time></trkpt><trkpt lat="-27.41586238423536" lon="115.53395563210194"><ele>252.0</ele><time>2026-04-15T04:54:20Z</time></trkpt><trkpt lat="-27.4156867105658" lon="115.53414960475243"><ele>252.0</ele><time>2026-04-15T04:54:21Z</time></trkpt><trkpt lat="-27.415510575638844" lon="115.5343385954927"><ele>252.0</ele><time>2026-04-15T04:54:22Z</time></trkpt><trkpt lat="-27.41533688974465" lon="115.53452598662217"><ele>251.5</ele><time>2026-04-15T04:54:23Z</time></trkpt><trkpt lat="-27.41516522795624" lon="115.53471450240451"><ele>251.0</ele><time>2026-04-15T04:54:24Z</time></trkpt><trkpt lat="-27.414995536090988" lon="115.53490366979521"><ele>251.0</ele><time>2026-04-15T04:54:25Z</time></trkpt><trkpt lat="-27.41482423847583" lon="115.53509148541086"><ele>251.0</ele><time>2026-04-15T04:54:26Z</time></trkpt><trkpt lat="-27.41465279768105" lon="115.53527708593458"><ele>252.5</ele><time>2026-04-15T04:54:27Z</time></trkpt><trkpt lat="-27.41448247271555" lon="115.53546366533409"><ele>254.0</ele><time>2026-04-15T04:54:28Z</time></trkpt><trkpt lat="-27.414310183239348" lon="115.5356533250405"><ele>254.0</ele><time>2026-04-15T04:54:29Z</time></trkpt><trkpt lat="-27.413944516493306" lon="115.53604314846551"><ele>252.5</ele><time>2026-04-15T04:54:31Z</time></trkpt><trkpt lat="-27.413756632818846" lon="115.53623831146119"><ele>251.0</ele><time>2026-04-15T04:54:32Z</time></trkpt><trkpt lat="-27.413571695058916" lon="115.53643552592972"><ele>251.0</ele><time>2026-04-15T04:54:33Z</time></trkpt><trkpt lat="-27.4133893918656" lon="115.53663262854063"><ele>251.0</ele><time>2026-04-15T04:54:34Z</time></trkpt><trkpt lat="-27.4132084802876" lon="115.53682880922261"><ele>251.0</ele><time>2026-04-15T04:54:35Z</time></trkpt><trkpt lat="-27.41303136272847" lon="115.53702843113194"><ele>251.0</ele><time>2026-04-15T04:54:36Z</time></trkpt><trkpt lat="-27.412862145157714" lon="115.53723242643754"><ele>251.0</ele><time>2026-04-15T04:54:37Z</time></trkpt><trkpt lat="-27.412696652051665" lon="115.53744509956509"><ele>251.0</ele><time>2026-04-15T04:54:38Z</time></trkpt><trkpt lat="-27.412539033816422" lon="115.53766235896809"><ele>251.5</ele><time>2026-04-15T04:54:39Z</time></trkpt><trkpt lat="-27.412388324645114" lon="115.53788925983275"><ele>252.0</ele><time>2026-04-15T04:54:40Z</time></trkpt><trkpt lat="-27.412243512977557" lon="115.53812135174307"><ele>250.5</ele><time>2026-04-15T04:54:41Z</time></trkpt><trkpt lat="-27.412098590596354" lon="115.53835302307067"><ele>249.0</ele><time>2026-04-15T04:54:42Z</time></trkpt><trkpt lat="-27.411949808881147" lon="115.53858374447412"><ele>249.5</ele><time>2026-04-15T04:54:43Z</time></trkpt><trkpt lat="-27.411794146002595" lon="115.53881659411073"><ele>250.0</ele><time>2026-04-15T04:54:44Z</time></trkpt><trkpt lat="-27.41163398621391" lon="115.53905241211613"><ele>250.0</ele><time>2026-04-15T04:54:45Z</time></trkpt><trkpt lat="-27.411470066302915" lon="115.53929460401463"><ele>250.0</ele><time>2026-04-15T04:54:46Z</time></trkpt><trkpt lat="-27.411307073835758" lon="115.53954183188218"><ele>252.5</ele><time>2026-04-15T04:54:47Z</time></trkpt><trkpt lat="-27.41114265207318" lon="115.53979576337638"><ele>255.0</ele><time>2026-04-15T04:54:48Z</time></trkpt><trkpt lat="-27.410976917524252" lon="115.54004987475432"><ele>255.0</ele><time>2026-04-15T04:54:49Z</time></trkpt><trkpt lat="-27.410811677700323" lon="115.54030650612088"><ele>255.0</ele><time>2026-04-15T04:54:50Z</time></trkpt><trkpt lat="-27.410483025210695" lon="115.54081450013358"><ele>254.0</ele><time>2026-04-15T04:54:52Z</time></trkpt><trkpt lat="-27.41031845413446" lon="115.54106424186378"><ele>253.0</ele><time>2026-04-15T04:54:53Z</time></trkpt><trkpt lat="-27.410153288948983" lon="115.54131428086662"><ele>252.0</ele><time>2026-04-15T04:54:54Z</time></trkpt><trkpt lat="-27.409991364736275" lon="115.54156629258108"><ele>251.0</ele><time>2026-04-15T04:54:55Z</time></trkpt><trkpt lat="-27.409832293446602" lon="115.54181981998049"><ele>252.0</ele><time>2026-04-15T04:54:56Z</time></trkpt><trkpt lat="-27.4096731803911" lon="115.54207496217651"><ele>253.0</ele><time>2026-04-15T04:54:57Z</time></trkpt><trkpt lat="-27.40951267941397" lon="115.54232914124015"><ele>254.0</ele><time>2026-04-15T04:54:58Z</time></trkpt><trkpt lat="-27.409351587776936" lon="115.54258365767502"><ele>255.0</ele><time>2026-04-15T04:54:59Z</time></trkpt><trkpt lat="-27.409187443987346" lon="115.54284072104966"><ele>253.5</ele><time>2026-04-15T04:55:00Z</time></trkpt><trkpt lat="-27.409028209908325" lon="115.543095309597"><ele>252.0</ele><time>2026-04-15T04:55:01Z</time></trkpt><trkpt lat="-27.40887035370481" lon="115.54334765145143"><ele>252.5</ele><time>2026-04-15T04:55:02Z</time></trkpt><trkpt lat="-27.40870825122694" lon="115.54359968403833"><ele>253.0</ele><time>2026-04-15T04:55:03Z</time></trkpt><trkpt lat="-27.40854145554773" lon="115.54385758178574"><ele>253.0</ele><time>2026-04-15T04:55:04Z</time></trkpt><trkpt lat="-27.40837567875945" lon="115.54411629592757"><ele>253.0</ele><time>2026-04-15T04:55:05Z</time></trkpt><trkpt lat="-27.408210296984546" lon="115.54437317931085"><ele>254.0</ele><time>2026-04-15T04:55:06Z</time></trkpt><trkpt lat="-27.408043962350558" lon="115.54463009498068"><ele>255.0</ele><time>2026-04-15T04:55:07Z</time></trkpt><trkpt lat="-27.407878702898703" lon="115.54488882858922"><ele>255.0</ele><time>2026-04-15T04:55:08Z</time></trkpt><trkpt lat="-27.40771595108111" lon="115.5451434956054"><ele>255.0</ele><time>2026-04-15T04:55:09Z</time></trkpt><trkpt lat="-27.407549919365227" lon="115.54540142977667"><ele>254.5</ele><time>2026-04-15T04:55:10Z</time></trkpt><trkpt lat="-27.40738416145865" lon="115.54565674170595"><ele>254.0</ele><time>2026-04-15T04:55:11Z</time></trkpt><trkpt lat="-27.407051837962932" lon="115.54617312631363"><ele>253.5</ele><time>2026-04-15T04:55:13Z</time></trkpt><trkpt lat="-27.406884328296442" lon="115.54643528565222"><ele>253.0</ele><time>2026-04-15T04:55:14Z</time></trkpt><trkpt lat="-27.406715930992444" lon="115.54669943813569"><ele>253.0</ele><time>2026-04-15T04:55:15Z</time></trkpt><trkpt lat="-27.406543404345026" lon="115.54696909533483"><ele>253.0</ele><time>2026-04-15T04:55:16Z</time></trkpt><trkpt lat="-27.406369337210343" lon="115.54724048111464"><ele>253.0</ele><time>2026-04-15T04:55:17Z</time></trkpt><trkpt lat="-27.40619726593785" lon="115.54751080465333"><ele>253.0</ele><time>2026-04-15T04:55:18Z</time></trkpt><trkpt lat="-27.406023671832628" lon="115.54777819751999"><ele>255.0</ele><time>2026-04-15T04:55:19Z</time></trkpt><trkpt lat="-27.405852171469405" lon="115.54804358818025"><ele>257.0</ele><time>2026-04-15T04:55:20Z</time></trkpt><trkpt lat="-27.4056770935327" lon="115.54831101276585"><ele>257.0</ele><time>2026-04-15T04:55:21Z</time></trkpt><trkpt lat="-27.4055063752806" lon="115.54857861688808"><ele>257.0</ele><time>2026-04-15T04:55:22Z</time></trkpt><trkpt lat="-27.405336380086407" lon="115.54884683429341"><ele>256.5</ele><time>2026-04-15T04:55:23Z</time></trkpt><trkpt lat="-27.405167736959555" lon="115.54911347437921"><ele>256.0</ele><time>2026-04-15T04:55:24Z</time></trkpt><trkpt lat="-27.404993830393273" lon="115.54937996101334"><ele>256.0</ele><time>2026-04-15T04:55:25Z</time></trkpt><trkpt lat="-27.404821141815077" lon="115.5496456905335"><ele>256.0</ele><time>2026-04-15T04:55:26Z</time></trkpt><trkpt lat="-27.404649648074184" lon="115.54991176659608"><ele>257.0</ele><time>2026-04-15T04:55:27Z</time></trkpt><trkpt lat="-27.40447907572566" lon="115.55017881129358"><ele>258.0</ele><time>2026-04-15T04:55:28Z</time></trkpt><trkpt lat="-27.40430924103859" lon="115.55044507682317"><ele>258.0</ele><time>2026-04-15T04:55:29Z</time></trkpt><trkpt lat="-27.404137277508056" lon="115.55071366365623"><ele>258.0</ele><time>2026-04-15T04:55:30Z</time></trkpt><trkpt lat="-27.40396555268799" lon="115.55098195272686"><ele>257.0</ele><time>2026-04-15T04:55:31Z</time></trkpt><trkpt lat="-27.403791599409587" lon="115.55125560863152"><ele>256.0</ele><time>2026-04-15T04:55:32Z</time></trkpt><trkpt lat="-27.40344533946755" lon="115.55179148891544"><ele>255.5</ele><time>2026-04-15T04:55:34Z</time></trkpt><trkpt lat="-27.403275668949437" lon="115.55205344116692"><ele>255.0</ele><time>2026-04-15T04:55:35Z</time></trkpt><trkpt lat="-27.403105732136474" lon="115.55231630323901"><ele>256.5</ele><time>2026-04-15T04:55:36Z</time></trkpt><trkpt lat="-27.402936141287437" lon="115.55257861221484"><ele>258.0</ele><time>2026-04-15T04:55:37Z</time></trkpt><trkpt lat="-27.40276654802098" lon="115.55284181531242"><ele>256.5</ele><time>2026-04-15T04:55:38Z</time></trkpt><trkpt lat="-27.40259332879596" lon="115.55310531210984"><ele>255.0</ele><time>2026-04-15T04:55:39Z</time></trkpt><trkpt lat="-27.402418948713514" lon="115.55336766280391"><ele>255.0</ele><time>2026-04-15T04:55:40Z</time></trkpt><trkpt lat="-27.402244723250785" lon="115.5536288779032"><ele>255.0</ele><time>2026-04-15T04:55:41Z</time></trkpt><trkpt lat="-27.402070966891362" lon="115.55389416854125"><ele>254.5</ele><time>2026-04-15T04:55:42Z</time></trkpt><trkpt lat="-27.401899783612695" lon="115.55416075259822"><ele>254.0</ele><time>2026-04-15T04:55:43Z</time></trkpt><trkpt lat="-27.401727404415173" lon="115.55443169222868"><ele>256.5</ele><time>2026-04-15T04:55:44Z</time></trkpt><trkpt lat="-27.40156393867844" lon="115.5546915245535"><ele>259.0</ele><time>2026-04-15T04:55:45Z</time></trkpt><trkpt lat="-27.401416804344873" lon="115.5549271039044"><ele>259.0</ele><time>2026-04-15T04:55:46Z</time></trkpt><trkpt lat="-27.40126589601278" lon="115.5551674608587"><ele>259.0</ele><time>2026-04-15T04:55:47Z</time></trkpt><trkpt lat="-27.401109450190916" lon="115.55540693531492"><ele>259.0</ele><time>2026-04-15T04:55:48Z</time></trkpt><trkpt lat="-27.40095001547281" lon="115.55564791755774"><ele>259.0</ele><time>2026-04-15T04:55:49Z</time></trkpt><trkpt lat="-27.400791847005276" lon="115.55588863074777"><ele>259.0</ele><time>2026-04-15T04:55:50Z</time></trkpt><trkpt lat="-27.400638141407565" lon="115.55613054237111"><ele>259.0</ele><time>2026-04-15T04:55:51Z</time></trkpt><trkpt lat="-27.40048402979567" lon="115.55637475425439"><ele>259.0</ele><time>2026-04-15T04:55:52Z</time></trkpt><trkpt lat="-27.400325187873822" lon="115.55661662484654"><ele>259.0</ele><time>2026-04-15T04:55:53Z</time></trkpt><trkpt lat="-27.40001034232141" lon="115.5571058835677"><ele>260.0</ele><time>2026-04-15T04:55:55Z</time></trkpt><trkpt lat="-27.399853866855484" lon="115.55736035473205"><ele>261.0</ele><time>2026-04-15T04:55:56Z</time></trkpt><trkpt lat="-27.399699784983834" lon="115.55761216613776"><ele>261.5</ele><time>2026-04-15T04:55:57Z</time></trkpt><trkpt lat="-27.39954406024316" lon="115.55786348800615"><ele>262.0</ele><time>2026-04-15T04:55:58Z</time></trkpt><trkpt lat="-27.39938580472062" lon="115.5581122445051"><ele>262.0</ele><time>2026-04-15T04:55:59Z</time></trkpt><trkpt lat="-27.39922127664642" lon="115.55836642949711"><ele>262.0</ele><time>2026-04-15T04:56:00Z</time></trkpt><trkpt lat="-27.399056724746607" lon="115.55861901520753"><ele>263.0</ele><time>2026-04-15T04:56:01Z</time></trkpt><trkpt lat="-27.398892049628905" lon="115.55887840278046"><ele>264.0</ele><time>2026-04-15T04:56:02Z</time></trkpt><trkpt lat="-27.39872820228286" lon="115.55913524888072"><ele>264.0</ele><time>2026-04-15T04:56:03Z</time></trkpt><trkpt lat="-27.398564074113597" lon="115.55939174328219"><ele>264.0</ele><time>2026-04-15T04:56:04Z</time></trkpt><trkpt lat="-27.398403155745378" lon="115.5596463129119"><ele>263.5</ele><time>2026-04-15T04:56:05Z</time></trkpt><trkpt lat="-27.398243661245772" lon="115.559897188681"><ele>263.0</ele><time>2026-04-15T04:56:06Z</time></trkpt><trkpt lat="-27.39808504130458" lon="115.56014730625262"><ele>264.0</ele><time>2026-04-15T04:56:07Z</time></trkpt><trkpt lat="-27.397926519092803" lon="115.5603906987498"><ele>265.0</ele><time>2026-04-15T04:56:08Z</time></trkpt><trkpt lat="-27.39776638754638" lon="115.56063237113725"><ele>265.0</ele><time>2026-04-15T04:56:09Z</time></trkpt><trkpt lat="-27.39761130251678" lon="115.56087189473784"><ele>265.0</ele><time>2026-04-15T04:56:10Z</time></trkpt><trkpt lat="-27.397461590551387" lon="115.56110694652472"><ele>265.0</ele><time>2026-04-15T04:56:11Z</time></trkpt><trkpt lat="-27.397313191583184" lon="115.56134593724543"><ele>265.0</ele><time>2026-04-15T04:56:12Z</time></trkpt><trkpt lat="-27.397161493252003" lon="115.56158282656169"><ele>263.5</ele><time>2026-04-15T04:56:13Z</time></trkpt><trkpt lat="-27.397009493244667" lon="115.56181608107482"><ele>262.0</ele><time>2026-04-15T04:56:14Z</time></trkpt><trkpt lat="-27.39670419989251" lon="115.5622845959584"><ele>262.0</ele><time>2026-04-15T04:56:16Z</time></trkpt><trkpt lat="-27.396553540793686" lon="115.56251106161102"><ele>262.0</ele><time>2026-04-15T04:56:17Z</time></trkpt><trkpt lat="-27.39639952002678" lon="115.56274884927427"><ele>262.5</ele><time>2026-04-15T04:56:18Z</time></trkpt><trkpt lat="-27.39624811137856" lon="115.56298371865847"><ele>263.0</ele><time>2026-04-15T04:56:19Z</time></trkpt><trkpt lat="-27.39610558148435" lon="115.56320789351196"><ele>263.0</ele><time>2026-04-15T04:56:20Z</time></trkpt><trkpt lat="-27.395960193188266" lon="115.56343385183341"><ele>263.0</ele><time>2026-04-15T04:56:21Z</time></trkpt><trkpt lat="-27.395823134945147" lon="115.56364971697118"><ele>263.0</ele><time>2026-04-15T04:56:22Z</time></trkpt><trkpt lat="-27.395688613013135" lon="115.56386219668804"><ele>263.0</ele><time>2026-04-15T04:56:23Z</time></trkpt><trkpt lat="-27.395545146364636" lon="115.56409664984058"><ele>263.0</ele><time>2026-04-15T04:56:24Z</time></trkpt><trkpt lat="-27.395402045363312" lon="115.56432864164714"><ele>263.0</ele><time>2026-04-15T04:56:25Z</time></trkpt><trkpt lat="-27.39525471717074" lon="115.56456389676242"><ele>264.5</ele><time>2026-04-15T04:56:26Z</time></trkpt><trkpt lat="-27.395101151177588" lon="115.56480830673696"><ele>266.0</ele><time>2026-04-15T04:56:27Z</time></trkpt><trkpt lat="-27.394941981587564" lon="115.56505460961046"><ele>266.0</ele><time>2026-04-15T04:56:28Z</time></trkpt><trkpt lat="-27.394781953786584" lon="115.56530125941742"><ele>266.0</ele><time>2026-04-15T04:56:29Z</time></trkpt><trkpt lat="-27.39462203460551" lon="115.56554605969998"><ele>266.5</ele><time>2026-04-15T04:56:30Z</time></trkpt><trkpt lat="-27.394462686846424" lon="115.56579163592515"><ele>267.0</ele><time>2026-04-15T04:56:31Z</time></trkpt><trkpt lat="-27.394305256225937" lon="115.56603649843044"><ele>267.0</ele><time>2026-04-15T04:56:32Z</time></trkpt><trkpt lat="-27.394142364851998" lon="115.56628547829938"><ele>267.0</ele><time>2026-04-15T04:56:33Z</time></trkpt><trkpt lat="-27.39398134539265" lon="115.56652755135704"><ele>267.0</ele><time>2026-04-15T04:56:34Z</time></trkpt><trkpt lat="-27.39382140533833" lon="115.56677128156653"><ele>267.0</ele><time>2026-04-15T04:56:35Z</time></trkpt><trkpt lat="-27.393500929958915" lon="115.5672561902581"><ele>267.0</ele><time>2026-04-15T04:56:37Z</time></trkpt><trkpt lat="-27.393344313989157" lon="115.56749938498893"><ele>267.0</ele><time>2026-04-15T04:56:38Z</time></trkpt><trkpt lat="-27.393189553135436" lon="115.56774088161933"><ele>267.5</ele><time>2026-04-15T04:56:39Z</time></trkpt><trkpt lat="-27.393033633682787" lon="115.56798571639257"><ele>268.0</ele><time>2026-04-15T04:56:40Z</time></trkpt><trkpt lat="-27.39287323691068" lon="115.56823376669283"><ele>266.5</ele><time>2026-04-15T04:56:41Z</time></trkpt><trkpt lat="-27.392714332284115" lon="115.56847954810654"><ele>265.0</ele><time>2026-04-15T04:56:42Z</time></trkpt><trkpt lat="-27.392554512023725" lon="115.56872543766706"><ele>264.5</ele><time>2026-04-15T04:56:43Z</time></trkpt><trkpt lat="-27.39239517993455" lon="115.5689690484926"><ele>264.0</ele><time>2026-04-15T04:56:44Z</time></trkpt><trkpt lat="-27.392235742871087" lon="115.56921467769583"><ele>264.5</ele><time>2026-04-15T04:56:45Z</time></trkpt><trkpt lat="-27.39207871050573" lon="115.56945967460436"><ele>265.0</ele><time>2026-04-15T04:56:46Z</time></trkpt><trkpt lat="-27.39192152636669" lon="115.56970760920822"><ele>265.0</ele><time>2026-04-15T04:56:47Z</time></trkpt><trkpt lat="-27.391766238140438" lon="115.56995111072683"><ele>265.0</ele><time>2026-04-15T04:56:48Z</time></trkpt><trkpt lat="-27.39160989531487" lon="115.57019374238514"><ele>265.5</ele><time>2026-04-15T04:56:49Z</time></trkpt><trkpt lat="-27.391453563261262" lon="115.57043641934307"><ele>266.0</ele><time>2026-04-15T04:56:50Z</time></trkpt><trkpt lat="-27.39130904258978" lon="115.57066287079128"><ele>266.5</ele><time>2026-04-15T04:56:51Z</time></trkpt><trkpt lat="-27.391174022020316" lon="115.57087896548398"><ele>267.0</ele><time>2026-04-15T04:56:52Z</time></trkpt><trkpt lat="-27.391033651272302" lon="115.57110118146737"><ele>267.0</ele><time>2026-04-15T04:56:53Z</time></trkpt><trkpt lat="-27.39089484129622" lon="115.5713125600405"><ele>267.0</ele><time>2026-04-15T04:56:54Z</time></trkpt><trkpt lat="-27.39074919823328" lon="115.57153603192306"><ele>267.0</ele><time>2026-04-15T04:56:55Z</time></trkpt><trkpt lat="-27.39061324721616" lon="115.57174873226094"><ele>267.0</ele><time>2026-04-15T04:56:56Z</time></trkpt><trkpt lat="-27.39033471556303" lon="115.5721799367467"><ele>268.5</ele><time>2026-04-15T04:56:58Z</time></trkpt><trkpt lat="-27.390190561501218" lon="115.57240261128976"><ele>270.0</ele><time>2026-04-15T04:56:59Z</time></trkpt><trkpt lat="-27.390048733571295" lon="115.57262446287531"><ele>270.0</ele><time>2026-04-15T04:57:00Z</time></trkpt><trkpt lat="-27.38990657173176" lon="115.57285182500974"><ele>270.0</ele><time>2026-04-15T04:57:01Z</time></trkpt><trkpt lat="-27.389762639068074" lon="115.57308157407515"><ele>269.0</ele><time>2026-04-15T04:57:02Z</time></trkpt><trkpt lat="-27.389613628388396" lon="115.57331222684492"><ele>268.0</ele><time>2026-04-15T04:57:03Z</time></trkpt><trkpt lat="-27.389466771942157" lon="115.57353913180698"><ele>269.0</ele><time>2026-04-15T04:57:04Z</time></trkpt><trkpt lat="-27.38931861536851" lon="115.57377134592421"><ele>270.0</ele><time>2026-04-15T04:57:05Z</time></trkpt><trkpt lat="-27.389170968768994" lon="115.57400751658167"><ele>270.0</ele><time>2026-04-15T04:57:06Z</time></trkpt><trkpt lat="-27.38901913027192" lon="115.57424296365012"><ele>270.0</ele><time>2026-04-15T04:57:07Z</time></trkpt><trkpt lat="-27.3888688128798" lon="115.57447788931671"><ele>271.0</ele><time>2026-04-15T04:57:08Z</time></trkpt><trkpt lat="-27.388716531880682" lon="115.57471082634386"><ele>272.0</ele><time>2026-04-15T04:57:09Z</time></trkpt><trkpt lat="-27.388561973466814" lon="115.57494600618806"><ele>272.0</ele><time>2026-04-15T04:57:10Z</time></trkpt><trkpt lat="-27.38840920981612" lon="115.57518000571132"><ele>272.0</ele><time>2026-04-15T04:57:11Z</time></trkpt><trkpt lat="-27.38825930379426" lon="115.57541372350194"><ele>272.0</ele><time>2026-04-15T04:57:12Z</time></trkpt><trkpt lat="-27.388106365366006" lon="115.57564598172992"><ele>272.0</ele><time>2026-04-15T04:57:13Z</time></trkpt><trkpt lat="-27.387950437027744" lon="115.57587887751167"><ele>272.5</ele><time>2026-04-15T04:57:14Z</time></trkpt><trkpt lat="-27.387791966548427" lon="115.57611046785361"><ele>273.0</ele><time>2026-04-15T04:57:15Z</time></trkpt><trkpt lat="-27.38763158220456" lon="115.57633743292337"><ele>273.0</ele><time>2026-04-15T04:57:16Z</time></trkpt><trkpt lat="-27.38730915689588" lon="115.57676360235877"><ele>273.0</ele><time>2026-04-15T04:57:18Z</time></trkpt><trkpt lat="-27.387155393869044" lon="115.57695944908745"><ele>273.0</ele><time>2026-04-15T04:57:19Z</time></trkpt><trkpt lat="-27.387008939036257" lon="115.57713750455812"><ele>273.0</ele><time>2026-04-15T04:57:20Z</time></trkpt><trkpt lat="-27.386870545295594" lon="115.57730113659159"><ele>273.0</ele><time>2026-04-15T04:57:21Z</time></trkpt><trkpt lat="-27.386740503046862" lon="115.57746085333528"><ele>273.0</ele><time>2026-04-15T04:57:22Z</time></trkpt><trkpt lat="-27.38662425669236" lon="115.57761500247622"><ele>273.0</ele><time>2026-04-15T04:57:23Z</time></trkpt><trkpt lat="-27.38651692656537" lon="115.57776625724719"><ele>273.0</ele><time>2026-04-15T04:57:24Z</time></trkpt><trkpt lat="-27.38642298001443" lon="115.57792374240441"><ele>273.0</ele><time>2026-04-15T04:57:25Z</time></trkpt><trkpt lat="-27.38633787579197" lon="115.57810079764067"><ele>273.0</ele><time>2026-04-15T04:57:26Z</time></trkpt><trkpt lat="-27.386274371904122" lon="115.57827778481762"><ele>273.25</ele><time>2026-04-15T04:57:27Z</time></trkpt><trkpt lat="-27.38622690229441" lon="115.5784426767196"><ele>273.5</ele><time>2026-04-15T04:57:28Z</time></trkpt><trkpt lat="-27.386200512709888" lon="115.57859333261455"><ele>273.75</ele><time>2026-04-15T04:57:29Z</time></trkpt><trkpt lat="-27.386178999913234" lon="115.57874218379392"><ele>274.0</ele><time>2026-04-15T04:57:30Z</time></trkpt><trkpt lat="-27.386166925505485" lon="115.5788851541259"><ele>272.75</ele><time>2026-04-15T04:57:31Z</time></trkpt><trkpt lat="-27.386160637611212" lon="115.5790263979441"><ele>271.5</ele><time>2026-04-15T04:57:32Z</time></trkpt><trkpt lat="-27.386149822494314" lon="115.5791722033311"><ele>270.25</ele><time>2026-04-15T04:57:33Z</time></trkpt><trkpt lat="-27.386133223638463" lon="115.57932500692134"><ele>269.0</ele><time>2026-04-15T04:57:34Z</time></trkpt><trkpt lat="-27.38611238160173" lon="115.57949738507666"><ele>269.0</ele><time>2026-04-15T04:57:35Z</time></trkpt><trkpt lat="-27.386087039485368" lon="115.57967900102791"><ele>269.0</ele><time>2026-04-15T04:57:36Z</time></trkpt><trkpt lat="-27.38605290564629" lon="115.57987907796507"><ele>269.0</ele><time>2026-04-15T04:57:37Z</time></trkpt><trkpt lat="-27.385960961688454" lon="115.5802960358237"><ele>270.0</ele><time>2026-04-15T04:57:39Z</time></trkpt><trkpt lat="-27.385887326894302" lon="115.58050966707273"><ele>271.0</ele><time>2026-04-15T04:57:40Z</time></trkpt><trkpt lat="-27.385793955100336" lon="115.58072019013993"><ele>272.0</ele><time>2026-04-15T04:57:41Z</time></trkpt><trkpt lat="-27.385682654847955" lon="115.58093554466313"><ele>272.0</ele><time>2026-04-15T04:57:42Z</time></trkpt><trkpt lat="-27.38556048987771" lon="115.58114789408783"><ele>272.0</ele><time>2026-04-15T04:57:43Z</time></trkpt><trkpt lat="-27.38542627289174" lon="115.58136090802984"><ele>271.5</ele><time>2026-04-15T04:57:44Z</time></trkpt><trkpt lat="-27.38528732694775" lon="115.58158351906992"><ele>271.0</ele><time>2026-04-15T04:57:45Z</time></trkpt><trkpt lat="-27.38514971340212" lon="115.58180834815221"><ele>272.5</ele><time>2026-04-15T04:57:46Z</time></trkpt><trkpt lat="-27.385009336353903" lon="115.58203421875419"><ele>274.0</ele><time>2026-04-15T04:57:47Z</time></trkpt><trkpt lat="-27.38485991641074" lon="115.58225984594604"><ele>274.0</ele><time>2026-04-15T04:57:48Z</time></trkpt><trkpt lat="-27.384717672098148" lon="115.58247683455015"><ele>274.0</ele><time>2026-04-15T04:57:49Z</time></trkpt><trkpt lat="-27.384584377966924" lon="115.58268800956021"><ele>275.0</ele><time>2026-04-15T04:57:50Z</time></trkpt><trkpt lat="-27.38445240214943" lon="115.58290562767172"><ele>276.0</ele><time>2026-04-15T04:57:51Z</time></trkpt><trkpt lat="-27.38433152705508" lon="115.58310330932257"><ele>277.0</ele><time>2026-04-15T04:57:52Z</time></trkpt><trkpt lat="-27.384218046614635" lon="115.58328441686527"><ele>277.0</ele><time>2026-04-15T04:57:53Z</time></trkpt><trkpt lat="-27.384102431265934" lon="115.58345183560384"><ele>277.0</ele><time>2026-04-15T04:57:54Z</time></trkpt><trkpt lat="-27.383966387077418" lon="115.58364933074027"><ele>277.0</ele><time>2026-04-15T04:57:55Z</time></trkpt><trkpt lat="-27.38383819492941" lon="115.58385308050643"><ele>277.0</ele><time>2026-04-15T04:57:56Z</time></trkpt><trkpt lat="-27.383708436075114" lon="115.5840672556362"><ele>277.0</ele><time>2026-04-15T04:57:57Z</time></trkpt><trkpt lat="-27.383570510318314" lon="115.58428756058102"><ele>277.0</ele><time>2026-04-15T04:57:58Z</time></trkpt><trkpt lat="-27.383288311755788" lon="115.5847317961543"><ele>277.0</ele><time>2026-04-15T04:58:00Z</time></trkpt><trkpt lat="-27.38315126438029" lon="115.5849523011477"><ele>277.0</ele><time>2026-04-15T04:58:01Z</time></trkpt><trkpt lat="-27.383017918251035" lon="115.58516840501078"><ele>280.0</ele><time>2026-04-15T04:58:02Z</time></trkpt><trkpt lat="-27.38287058829823" lon="115.58540645789401"><ele>283.0</ele><time>2026-04-15T04:58:03Z</time></trkpt><trkpt lat="-27.38271964874517" lon="115.5856428364592"><ele>283.0</ele><time>2026-04-15T04:58:04Z</time></trkpt><trkpt lat="-27.382571925167746" lon="115.5858687837513"><ele>283.0</ele><time>2026-04-15T04:58:05Z</time></trkpt><trkpt lat="-27.382430725001225" lon="115.5860841500415"><ele>283.5</ele><time>2026-04-15T04:58:06Z</time></trkpt><trkpt lat="-27.382297271688667" lon="115.58629602950083"><ele>284.0</ele><time>2026-04-15T04:58:07Z</time></trkpt><trkpt lat="-27.38216351444129" lon="115.58651458892028"><ele>284.0</ele><time>2026-04-15T04:58:08Z</time></trkpt><trkpt lat="-27.382028639478502" lon="115.58673915407566"><ele>284.0</ele><time>2026-04-15T04:58:09Z</time></trkpt><trkpt lat="-27.38189694711993" lon="115.58695938417233"><ele>282.5</ele><time>2026-04-15T04:58:10Z</time></trkpt><trkpt lat="-27.381770432478287" lon="115.58718116083791"><ele>281.0</ele><time>2026-04-15T04:58:11Z</time></trkpt><trkpt lat="-27.38164030212007" lon="115.58739869677414"><ele>281.0</ele><time>2026-04-15T04:58:12Z</time></trkpt><trkpt lat="-27.381514116281142" lon="115.5876022306397"><ele>281.0</ele><time>2026-04-15T04:58:13Z</time></trkpt><trkpt lat="-27.381387101834314" lon="115.58778846954549"><ele>281.0</ele><time>2026-04-15T04:58:14Z</time></trkpt><trkpt lat="-27.381271599881476" lon="115.5879669199754"><ele>280.33333333333337</ele><time>2026-04-15T04:58:15Z</time></trkpt><trkpt lat="-27.38116461229831" lon="115.58813892196662"><ele>279.6666666666667</ele><time>2026-04-15T04:58:16Z</time></trkpt><trkpt lat="-27.381057237653827" lon="115.58830040300049"><ele>279.0</ele><time>2026-04-15T04:58:17Z</time></trkpt><trkpt lat="-27.380942813559212" lon="115.58846854646856"><ele>279.5</ele><time>2026-04-15T04:58:18Z</time></trkpt><trkpt lat="-27.380684700212637" lon="115.58884007005355"><ele>280.0</ele><time>2026-04-15T04:58:20Z</time></trkpt><trkpt lat="-27.38055508757334" lon="115.58905140614952"><ele>281.0</ele><time>2026-04-15T04:58:21Z</time></trkpt><trkpt lat="-27.380431309911387" lon="115.58927172801427"><ele>282.0</ele><time>2026-04-15T04:58:22Z</time></trkpt><trkpt lat="-27.380295227816244" lon="115.5894946930195"><ele>282.5</ele><time>2026-04-15T04:58:23Z</time></trkpt><trkpt lat="-27.380153394709573" lon="115.58971318106045"><ele>283.0</ele><time>2026-04-15T04:58:24Z</time></trkpt><trkpt lat="-27.380013285846285" lon="115.5899330527736"><ele>283.0</ele><time>2026-04-15T04:58:25Z</time></trkpt><trkpt lat="-27.37987530230119" lon="115.59016067447993"><ele>283.0</ele><time>2026-04-15T04:58:26Z</time></trkpt><trkpt lat="-27.37973915264041" lon="115.5903834675458"><ele>283.5</ele><time>2026-04-15T04:58:27Z</time></trkpt><trkpt lat="-27.379597149399007" lon="115.59061359635959"><ele>284.0</ele><time>2026-04-15T04:58:28Z</time></trkpt><trkpt lat="-27.379449860887256" lon="115.59084504266146"><ele>284.0</ele><time>2026-04-15T04:58:29Z</time></trkpt><trkpt lat="-27.379307784797824" lon="115.59106920586841"><ele>284.0</ele><time>2026-04-15T04:58:30Z</time></trkpt><trkpt lat="-27.37917311831923" lon="115.5912800555399"><ele>285.0</ele><time>2026-04-15T04:58:31Z</time></trkpt><trkpt lat="-27.379025888641955" lon="115.59150635988667"><ele>286.0</ele><time>2026-04-15T04:58:32Z</time></trkpt><trkpt lat="-27.378883217970735" lon="115.5917266695086"><ele>284.5</ele><time>2026-04-15T04:58:33Z</time></trkpt><trkpt lat="-27.378737671932356" lon="115.59195075666351"><ele>283.0</ele><time>2026-04-15T04:58:34Z</time></trkpt><trkpt lat="-27.378599789597178" lon="115.59217231183408"><ele>283.0</ele><time>2026-04-15T04:58:35Z</time></trkpt><trkpt lat="-27.37846436789071" lon="115.59238953523023"><ele>283.0</ele><time>2026-04-15T04:58:36Z</time></trkpt><trkpt lat="-27.378328987495255" lon="115.59260280071621"><ele>283.0</ele><time>2026-04-15T04:58:37Z</time></trkpt><trkpt lat="-27.378201381633605" lon="115.59280251888055"><ele>283.0</ele><time>2026-04-15T04:58:38Z</time></trkpt><trkpt lat="-27.37807422575401" lon="115.59300521854928"><ele>283.0</ele><time>2026-04-15T04:58:39Z</time></trkpt><trkpt lat="-27.377821566797678" lon="115.59342986038051"><ele>285.5</ele><time>2026-04-15T04:58:41Z</time></trkpt><trkpt lat="-27.37769261283801" lon="115.5936515550277"><ele>288.0</ele><time>2026-04-15T04:58:42Z</time></trkpt><trkpt lat="-27.37756108985618" lon="115.59387115680651"><ele>288.5</ele><time>2026-04-15T04:58:43Z</time></trkpt><trkpt lat="-27.37742108202346" lon="115.59409434153253"><ele>289.0</ele><time>2026-04-15T04:58:44Z</time></trkpt><trkpt lat="-27.37728112690326" lon="115.5943072090561"><ele>292.0</ele><time>2026-04-15T04:58:45Z</time></trkpt><trkpt lat="-27.37712935973452" lon="115.59453447481957"><ele>295.0</ele><time>2026-04-15T04:58:46Z</time></trkpt><trkpt lat="-27.376982894998985" lon="115.59475746162376"><ele>295.0</ele><time>2026-04-15T04:58:47Z</time></trkpt><trkpt lat="-27.376835598620357" lon="115.5949893482565"><ele>295.0</ele><time>2026-04-15T04:58:48Z</time></trkpt><trkpt lat="-27.376690190652877" lon="115.59522254690044"><ele>295.5</ele><time>2026-04-15T04:58:49Z</time></trkpt><trkpt lat="-27.37654370083979" lon="115.59545844599106"><ele>296.0</ele><time>2026-04-15T04:58:50Z</time></trkpt><trkpt lat="-27.376395989622143" lon="115.59569632091412"><ele>296.5</ele><time>2026-04-15T04:58:51Z</time></trkpt><trkpt lat="-27.376244094449117" lon="115.59593702537009"><ele>297.0</ele><time>2026-04-15T04:58:52Z</time></trkpt><trkpt lat="-27.376092042670773" lon="115.59617830617753"><ele>298.0</ele><time>2026-04-15T04:58:53Z</time></trkpt><trkpt lat="-27.37593935599842" lon="115.59642221533733"><ele>299.0</ele><time>2026-04-15T04:58:54Z</time></trkpt><trkpt lat="-27.375787548469905" lon="115.59665954428087"><ele>299.0</ele><time>2026-04-15T04:58:55Z</time></trkpt><trkpt lat="-27.375636761610497" lon="115.59689608702965"><ele>299.0</ele><time>2026-04-15T04:58:56Z</time></trkpt><trkpt lat="-27.375483496475084" lon="115.59713673008132"><ele>299.0</ele><time>2026-04-15T04:58:57Z</time></trkpt><trkpt lat="-27.375330595329245" lon="115.59737654121969"><ele>299.0</ele><time>2026-04-15T04:58:58Z</time></trkpt><trkpt lat="-27.375179555887787" lon="115.59761580232703"><ele>298.5</ele><time>2026-04-15T04:58:59Z</time></trkpt><trkpt lat="-27.375032724238107" lon="115.5978515099285"><ele>298.0</ele><time>2026-04-15T04:59:00Z</time></trkpt><trkpt lat="-27.374727100320868" lon="115.59834064672631"><ele>299.0</ele><time>2026-04-15T04:59:02Z</time></trkpt><trkpt lat="-27.374579956535722" lon="115.59857328645641"><ele>300.0</ele><time>2026-04-15T04:59:03Z</time></trkpt><trkpt lat="-27.374446499533228" lon="115.59879620599547"><ele>301.0</ele><time>2026-04-15T04:59:04.001Z</time></trkpt><trkpt lat="-27.374325424565004" lon="115.59900780215149"><ele>302.0</ele><time>2026-04-15T04:59:05.001Z</time></trkpt><trkpt lat="-27.37421759211376" lon="115.59922144641014"><ele>303.0</ele><time>2026-04-15T04:59:06.001Z</time></trkpt><trkpt lat="-27.374120342493242" lon="115.59945163203977"><ele>302.5</ele><time>2026-04-15T04:59:07.001Z</time></trkpt><trkpt lat="-27.374034468666405" lon="115.59970157979619"><ele>302.0</ele><time>2026-04-15T04:59:08.001Z</time></trkpt><trkpt lat="-27.373960619076843" lon="115.59996933650476"><ele>302.0</ele><time>2026-04-15T04:59:09.001Z</time></trkpt><trkpt lat="-27.37389960003603" lon="115.60024897850946"><ele>302.0</ele><time>2026-04-15T04:59:10.001Z</time></trkpt><trkpt lat="-27.373851498207394" lon="115.60053796666618"><ele>302.5</ele><time>2026-04-15T04:59:11.001Z</time></trkpt><trkpt lat="-27.37380556802001" lon="115.60083032188307"><ele>303.0</ele><time>2026-04-15T04:59:12.001Z</time></trkpt><trkpt lat="-27.373757578307856" lon="115.6011177626159"><ele>304.0</ele><time>2026-04-15T04:59:13.001Z</time></trkpt><trkpt lat="-27.373711111143464" lon="115.60140237943924"><ele>305.0</ele><time>2026-04-15T04:59:14.001Z</time></trkpt><trkpt lat="-27.37366451399725" lon="115.60168501385512"><ele>305.0</ele><time>2026-04-15T04:59:15.001Z</time></trkpt><trkpt lat="-27.373615572256547" lon="115.6019708108067"><ele>305.0</ele><time>2026-04-15T04:59:16.001Z</time></trkpt><trkpt lat="-27.373564746381284" lon="115.60226306174665"><ele>304.0</ele><time>2026-04-15T04:59:17.001Z</time></trkpt><trkpt lat="-27.373510243580252" lon="115.60255305075458"><ele>303.0</ele><time>2026-04-15T04:59:18.001Z</time></trkpt><trkpt lat="-27.373458284469052" lon="115.60283259770857"><ele>303.0</ele><time>2026-04-15T04:59:19.001Z</time></trkpt><trkpt lat="-27.373411534558848" lon="115.6030815364509"><ele>303.0</ele><time>2026-04-15T04:59:20.001Z</time></trkpt><trkpt lat="-27.373369253389757" lon="115.60331248923997"><ele>303.0</ele><time>2026-04-15T04:59:21.001Z</time></trkpt><trkpt lat="-27.373287973996753" lon="115.60381641026154"><ele>302.0</ele><time>2026-04-15T04:59:23.001Z</time></trkpt><trkpt lat="-27.373244686291784" lon="115.60408129789474"><ele>301.0</ele><time>2026-04-15T04:59:24.001Z</time></trkpt><trkpt lat="-27.373202188104713" lon="115.60434944617124"><ele>301.0</ele><time>2026-04-15T04:59:25.001Z</time></trkpt><trkpt lat="-27.37316431328247" lon="115.6046186487381"><ele>301.0</ele><time>2026-04-15T04:59:26.001Z</time></trkpt><trkpt lat="-27.37312337403797" lon="115.60489084504056"><ele>301.0</ele><time>2026-04-15T04:59:27.001Z</time></trkpt><trkpt lat="-27.37307872690771" lon="115.60517313779116"><ele>301.0</ele><time>2026-04-15T04:59:28.001Z</time></trkpt><trkpt lat="-27.373032444600504" lon="115.60546058831582"><ele>301.0</ele><time>2026-04-15T04:59:29.001Z</time></trkpt><trkpt lat="-27.372986398378547" lon="115.60575040219625"><ele>301.0</ele><time>2026-04-15T04:59:30.001Z</time></trkpt><trkpt lat="-27.37293984894439" lon="115.60604431491939"><ele>301.0</ele><time>2026-04-15T04:59:31.001Z</time></trkpt><trkpt lat="-27.37289302755814" lon="115.6063428216786"><ele>301.0</ele><time>2026-04-15T04:59:32.001Z</time></trkpt><trkpt lat="-27.372844527419918" lon="115.6066434270018"><ele>301.0</ele><time>2026-04-15T04:59:33.001Z</time></trkpt><trkpt lat="-27.37279539119823" lon="115.60694053855268"><ele>301.0</ele><time>2026-04-15T04:59:34.001Z</time></trkpt><trkpt lat="-27.37274586535003" lon="115.60724790742188"><ele>299.5</ele><time>2026-04-15T04:59:35.001Z</time></trkpt><trkpt lat="-27.37269580019865" lon="115.60755408558529"><ele>298.0</ele><time>2026-04-15T04:59:36.001Z</time></trkpt><trkpt lat="-27.372643304262198" lon="115.60786531096733"><ele>298.0</ele><time>2026-04-15T04:59:37.001Z</time></trkpt><trkpt lat="-27.37258732686464" lon="115.60819358115369"><ele>298.0</ele><time>2026-04-15T04:59:38.001Z</time></trkpt><trkpt lat="-27.372532709405075" lon="115.60851782084849"><ele>299.0</ele><time>2026-04-15T04:59:39.001Z</time></trkpt><trkpt lat="-27.372477140457548" lon="115.60883672997268"><ele>300.0</ele><time>2026-04-15T04:59:40.001Z</time></trkpt><trkpt lat="-27.37242353452338" lon="115.60915513979174"><ele>300.0</ele><time>2026-04-15T04:59:41.001Z</time></trkpt><trkpt lat="-27.372371194362728" lon="115.609480511436"><ele>300.0</ele><time>2026-04-15T04:59:42.001Z</time></trkpt><trkpt lat="-27.372267257602076" lon="115.6101203882398"><ele>300.0</ele><time>2026-04-15T04:59:44.001Z</time></trkpt><trkpt lat="-27.37221530908326" lon="115.61043785790778"><ele>300.0</ele><time>2026-04-15T04:59:45.001Z</time></trkpt><trkpt lat="-27.37216406832902" lon="115.61074914884057"><ele>300.0</ele><time>2026-04-15T04:59:46.001Z</time></trkpt><trkpt lat="-27.372114398659704" lon="115.61105728929309"><ele>300.0</ele><time>2026-04-15T04:59:47.001Z</time></trkpt><trkpt lat="-27.372065183480395" lon="115.61135975837657"><ele>298.5</ele><time>2026-04-15T04:59:48.001Z</time></trkpt><trkpt lat="-27.372016801878573" lon="115.61166038606886"><ele>297.0</ele><time>2026-04-15T04:59:49Z</time></trkpt><trkpt lat="-27.371969475558267" lon="115.61196377753856"><ele>298.5</ele><time>2026-04-15T04:59:50Z</time></trkpt><trkpt lat="-27.371920339959416" lon="115.61227059116172"><ele>300.0</ele><time>2026-04-15T04:59:51Z</time></trkpt><trkpt lat="-27.37187347548116" lon="115.61257997474137"><ele>300.0</ele><time>2026-04-15T04:59:52Z</time></trkpt><trkpt lat="-27.37182713729854" lon="115.61288607208215"><ele>300.0</ele><time>2026-04-15T04:59:53Z</time></trkpt><trkpt lat="-27.371779118202518" lon="115.61320031020908"><ele>300.0</ele><time>2026-04-15T04:59:54Z</time></trkpt><trkpt lat="-27.37173087906334" lon="115.61351209405883"><ele>300.0</ele><time>2026-04-15T04:59:55Z</time></trkpt><trkpt lat="-27.3716803020837" lon="115.61382141115827"><ele>299.5</ele><time>2026-04-15T04:59:56Z</time></trkpt><trkpt lat="-27.371624285104375" lon="115.61413452035421"><ele>299.0</ele><time>2026-04-15T04:59:57Z</time></trkpt><trkpt lat="-27.371572917049317" lon="115.61444815054679"><ele>299.0</ele><time>2026-04-15T04:59:58Z</time></trkpt><trkpt lat="-27.3715221885846" lon="115.61476187233728"><ele>299.0</ele><time>2026-04-15T04:59:59Z</time></trkpt><trkpt lat="-27.3714694660502" lon="115.61507466917377"><ele>299.0</ele><time>2026-04-15T05:00:00Z</time></trkpt><trkpt lat="-27.371419759667777" lon="115.61537990868463"><ele>299.0</ele><time>2026-04-15T05:00:01Z</time></trkpt><trkpt lat="-27.37137026848854" lon="115.61568781060332"><ele>298.0</ele><time>2026-04-15T05:00:02Z</time></trkpt><trkpt lat="-27.3713212943629" lon="115.61599509094208"><ele>297.0</ele><time>2026-04-15T05:00:03Z</time></trkpt><trkpt lat="-27.37121859065991" lon="115.61662347288787"><ele>297.0</ele><time>2026-04-15T05:00:05Z</time></trkpt><trkpt lat="-27.371167071401988" lon="115.61694450648078"><ele>297.0</ele><time>2026-04-15T05:00:06Z</time></trkpt><trkpt lat="-27.371117121310583" lon="115.61726777960956"><ele>296.0</ele><time>2026-04-15T05:00:07Z</time></trkpt><trkpt lat="-27.371067376781525" lon="115.61759099479082"><ele>295.0</ele><time>2026-04-15T05:00:08Z</time></trkpt><trkpt lat="-27.371018250152186" lon="115.61791614828311"><ele>295.0</ele><time>2026-04-15T05:00:09Z</time></trkpt><trkpt lat="-27.370970357391567" lon="115.61823639959302"><ele>295.0</ele><time>2026-04-15T05:00:10Z</time></trkpt><trkpt lat="-27.370920514873664" lon="115.61856018977544"><ele>295.0</ele><time>2026-04-15T05:00:11Z</time></trkpt><trkpt lat="-27.370869877900546" lon="115.61888097665341"><ele>295.0</ele><time>2026-04-15T05:00:12Z</time></trkpt><trkpt lat="-27.37081509406914" lon="115.6192079756476"><ele>295.0</ele><time>2026-04-15T05:00:13Z</time></trkpt><trkpt lat="-27.370759878028302" lon="115.61953470799705"><ele>295.0</ele><time>2026-04-15T05:00:14Z</time></trkpt><trkpt lat="-27.37070470687794" lon="115.61985982204035"><ele>295.0</ele><time>2026-04-15T05:00:15Z</time></trkpt><trkpt lat="-27.370647873598802" lon="115.62018174666406"><ele>295.0</ele><time>2026-04-15T05:00:16Z</time></trkpt><trkpt lat="-27.370591658973012" lon="115.62050269427377"><ele>294.0</ele><time>2026-04-15T05:00:17Z</time></trkpt><trkpt lat="-27.37053632259529" lon="115.62081780114148"><ele>293.0</ele><time>2026-04-15T05:00:18Z</time></trkpt><trkpt lat="-27.370484864541385" lon="115.62111295863801"><ele>292.0</ele><time>2026-04-15T05:00:19Z</time></trkpt><trkpt lat="-27.37043715700437" lon="115.62138785057527"><ele>291.0</ele><time>2026-04-15T05:00:20Z</time></trkpt><trkpt lat="-27.370395071530762" lon="115.6216637736874"><ele>291.0</ele><time>2026-04-15T05:00:21Z</time></trkpt><trkpt lat="-27.370354280232394" lon="115.62194365466578"><ele>291.0</ele><time>2026-04-15T05:00:22Z</time></trkpt><trkpt lat="-27.370310474552088" lon="115.62222739572844"><ele>292.0</ele><time>2026-04-15T05:00:23Z</time></trkpt><trkpt lat="-27.37022278337031" lon="115.6227941870424"><ele>293.5</ele><time>2026-04-15T05:00:25Z</time></trkpt><trkpt lat="-27.370178557148932" lon="115.62308907232931"><ele>295.0</ele><time>2026-04-15T05:00:26Z</time></trkpt><trkpt lat="-27.3701299807712" lon="115.62338454562658"><ele>294.0</ele><time>2026-04-15T05:00:27Z</time></trkpt><trkpt lat="-27.370079111884106" lon="115.62368020407312"><ele>293.0</ele><time>2026-04-15T05:00:28Z</time></trkpt><trkpt lat="-27.37002734723255" lon="115.62398052604033"><ele>293.0</ele><time>2026-04-15T05:00:29Z</time></trkpt><trkpt lat="-27.36997580851973" lon="115.624284453554"><ele>293.0</ele><time>2026-04-15T05:00:30Z</time></trkpt><trkpt lat="-27.36992435460758" lon="115.62459135027234"><ele>293.0</ele><time>2026-04-15T05:00:31Z</time></trkpt><trkpt lat="-27.369873643370855" lon="115.62489488110873"><ele>293.0</ele><time>2026-04-15T05:00:32Z</time></trkpt><trkpt lat="-27.369822053894296" lon="115.62519940864874"><ele>293.0</ele><time>2026-04-15T05:00:33Z</time></trkpt><trkpt lat="-27.369767742195883" lon="115.62550161722473"><ele>293.0</ele><time>2026-04-15T05:00:34Z</time></trkpt><trkpt lat="-27.369716142284474" lon="115.62580906062773"><ele>293.0</ele><time>2026-04-15T05:00:35Z</time></trkpt><trkpt lat="-27.369665162780016" lon="115.62611608458695"><ele>293.0</ele><time>2026-04-15T05:00:36Z</time></trkpt><trkpt lat="-27.36961540774043" lon="115.62642950363278"><ele>293.0</ele><time>2026-04-15T05:00:37Z</time></trkpt><trkpt lat="-27.369563234308202" lon="115.62674803598668"><ele>293.0</ele><time>2026-04-15T05:00:38Z</time></trkpt><trkpt lat="-27.36951279260224" lon="115.6270631368684"><ele>293.5</ele><time>2026-04-15T05:00:39Z</time></trkpt><trkpt lat="-27.369461810173394" lon="115.62737546472579"><ele>294.0</ele><time>2026-04-15T05:00:40Z</time></trkpt><trkpt lat="-27.369412817692382" lon="115.62768519678228"><ele>293.0</ele><time>2026-04-15T05:00:41Z</time></trkpt><trkpt lat="-27.369362264954034" lon="115.62799723450009"><ele>292.0</ele><time>2026-04-15T05:00:42Z</time></trkpt><trkpt lat="-27.369310335323586" lon="115.62831267379542"><ele>292.0</ele><time>2026-04-15T05:00:43Z</time></trkpt><trkpt lat="-27.369260919511234" lon="115.62862767554276"><ele>292.0</ele><time>2026-04-15T05:00:44Z</time></trkpt><trkpt lat="-27.369156564720814" lon="115.62924972999751"><ele>293.0</ele><time>2026-04-15T05:00:46.001Z</time></trkpt><trkpt lat="-27.369102858581325" lon="115.62955902615799"><ele>294.0</ele><time>2026-04-15T05:00:47.001Z</time></trkpt><trkpt lat="-27.369050497800426" lon="115.62986403087739"><ele>294.0</ele><time>2026-04-15T05:00:48.001Z</time></trkpt><trkpt lat="-27.36900145213451" lon="115.63016714094502"><ele>294.0</ele><time>2026-04-15T05:00:49.001Z</time></trkpt><trkpt lat="-27.368951990670364" lon="115.63047193616316"><ele>295.0</ele><time>2026-04-15T05:00:50.001Z</time></trkpt><trkpt lat="-27.36890765781366" lon="115.6307760272852"><ele>296.0</ele><time>2026-04-15T05:00:51.001Z</time></trkpt><trkpt lat="-27.368871050242856" lon="115.63105820173523"><ele>295.0</ele><time>2026-04-15T05:00:52.001Z</time></trkpt><trkpt lat="-27.368839526532753" lon="115.63132309744933"><ele>294.0</ele><time>2026-04-15T05:00:53.001Z</time></trkpt><trkpt lat="-27.368815441758393" lon="115.63159220679559"><ele>294.0</ele><time>2026-04-15T05:00:54.001Z</time></trkpt><trkpt lat="-27.368796036761797" lon="115.6318725844355"><ele>294.0</ele><time>2026-04-15T05:00:55.001Z</time></trkpt><trkpt lat="-27.368780673498122" lon="115.63215705495028"><ele>293.0</ele><time>2026-04-15T05:00:56.001Z</time></trkpt><trkpt lat="-27.36876747754019" lon="115.63244627050105"><ele>292.0</ele><time>2026-04-15T05:00:57.001Z</time></trkpt><trkpt lat="-27.368754608863075" lon="115.63273376989001"><ele>291.5</ele><time>2026-04-15T05:00:58.001Z</time></trkpt><trkpt lat="-27.368739073749552" lon="115.63302129316897"><ele>291.0</ele><time>2026-04-15T05:00:59.001Z</time></trkpt><trkpt lat="-27.368721224842652" lon="115.63330591170273"><ele>291.0</ele><time>2026-04-15T05:01:00.001Z</time></trkpt><trkpt lat="-27.368700441254372" lon="115.63358735659341"><ele>291.0</ele><time>2026-04-15T05:01:01.001Z</time></trkpt><trkpt lat="-27.36868297471291" lon="115.63386611749232"><ele>292.0</ele><time>2026-04-15T05:01:02.001Z</time></trkpt><trkpt lat="-27.368667255829816" lon="115.63414298201583"><ele>293.0</ele><time>2026-04-15T05:01:03.001Z</time></trkpt><trkpt lat="-27.368651526321262" lon="115.63441993671877"><ele>293.5</ele><time>2026-04-15T05:01:04.001Z</time></trkpt><trkpt lat="-27.368637602399755" lon="115.63470572630241"><ele>294.0</ele><time>2026-04-15T05:01:05.001Z</time></trkpt><trkpt lat="-27.368609493380234" lon="115.63529916742388"><ele>292.0</ele><time>2026-04-15T05:01:07.001Z</time></trkpt><trkpt lat="-27.36859508395507" lon="115.6355996201555"><ele>290.0</ele><time>2026-04-15T05:01:08.001Z</time></trkpt><trkpt lat="-27.368578713041494" lon="115.63590030914686"><ele>289.0</ele><time>2026-04-15T05:01:09.001Z</time></trkpt><trkpt lat="-27.368560268389885" lon="115.6361999983037"><ele>288.0</ele><time>2026-04-15T05:01:10.001Z</time></trkpt><trkpt lat="-27.368540029247775" lon="115.63650815833138"><ele>288.0</ele><time>2026-04-15T05:01:11.001Z</time></trkpt><trkpt lat="-27.368519471184193" lon="115.63682370508398"><ele>288.0</ele><time>2026-04-15T05:01:12.001Z</time></trkpt><trkpt lat="-27.36849930370787" lon="115.6371381993939"><ele>288.0</ele><time>2026-04-15T05:01:13.001Z</time></trkpt><trkpt lat="-27.368481308595367" lon="115.63744894718553"><ele>288.0</ele><time>2026-04-15T05:01:14.001Z</time></trkpt><trkpt lat="-27.36846391288382" lon="115.63776108074298"><ele>286.0</ele><time>2026-04-15T05:01:15.001Z</time></trkpt><trkpt lat="-27.36844807377938" lon="115.63807084192149"><ele>284.0</ele><time>2026-04-15T05:01:16.001Z</time></trkpt><trkpt lat="-27.368432243618788" lon="115.6383830183838"><ele>283.5</ele><time>2026-04-15T05:01:17.001Z</time></trkpt><trkpt lat="-27.36841484114677" lon="115.6386987737712"><ele>283.0</ele><time>2026-04-15T05:01:18.001Z</time></trkpt><trkpt lat="-27.36839878582005" lon="115.63900719470165"><ele>283.0</ele><time>2026-04-15T05:01:19.001Z</time></trkpt><trkpt lat="-27.368383620291105" lon="115.63930912594482"><ele>283.0</ele><time>2026-04-15T05:01:20.001Z</time></trkpt><trkpt lat="-27.36836892632927" lon="115.63960737024946"><ele>282.5</ele><time>2026-04-15T05:01:21.001Z</time></trkpt><trkpt lat="-27.368352144846682" lon="115.63990707490595"><ele>282.0</ele><time>2026-04-15T05:01:22.001Z</time></trkpt><trkpt lat="-27.368331964031327" lon="115.6402053675018"><ele>280.5</ele><time>2026-04-15T05:01:23.001Z</time></trkpt><trkpt lat="-27.368311912009453" lon="115.64050371834948"><ele>279.0</ele><time>2026-04-15T05:01:24.001Z</time></trkpt><trkpt lat="-27.368294260041882" lon="115.64079829794292"><ele>279.0</ele><time>2026-04-15T05:01:25.001Z</time></trkpt><trkpt lat="-27.368258881172718" lon="115.64137680885248"><ele>279.0</ele><time>2026-04-15T05:01:27.001Z</time></trkpt><trkpt lat="-27.36824357652278" lon="115.641646945704"><ele>279.0</ele><time>2026-04-15T05:01:28.001Z</time></trkpt><trkpt lat="-27.368232419376497" lon="115.64190140828805"><ele>278.0</ele><time>2026-04-15T05:01:29.001Z</time></trkpt><trkpt lat="-27.368219876828416" lon="115.64215079803003"><ele>277.0</ele><time>2026-04-15T05:01:30.001Z</time></trkpt><trkpt lat="-27.368204117830434" lon="115.64240019120908"><ele>276.0</ele><time>2026-04-15T05:01:31.001Z</time></trkpt><trkpt lat="-27.36818787149141" lon="115.64265935262169"><ele>277.0</ele><time>2026-04-15T05:01:32.001Z</time></trkpt><trkpt lat="-27.36817098699791" lon="115.64292186596457"><ele>278.0</ele><time>2026-04-15T05:01:33.001Z</time></trkpt><trkpt lat="-27.36815857913403" lon="115.64319332612088"><ele>278.0</ele><time>2026-04-15T05:01:34.001Z</time></trkpt><trkpt lat="-27.36815119714032" lon="115.64346646824512"><ele>278.0</ele><time>2026-04-15T05:01:35.001Z</time></trkpt><trkpt lat="-27.36814724301692" lon="115.64374077022433"><ele>278.5</ele><time>2026-04-15T05:01:36.001Z</time></trkpt><trkpt lat="-27.368150486560033" lon="115.64401414343143"><ele>279.0</ele><time>2026-04-15T05:01:37.001Z</time></trkpt><trkpt lat="-27.368163737206856" lon="115.64427589908955"><ele>277.0</ele><time>2026-04-15T05:01:38.001Z</time></trkpt><trkpt lat="-27.368186679575814" lon="115.64453173547822"><ele>275.0</ele><time>2026-04-15T05:01:39.001Z</time></trkpt><trkpt lat="-27.36822238213729" lon="115.64478431846199"><ele>275.0</ele><time>2026-04-15T05:01:40.001Z</time></trkpt><trkpt lat="-27.36826981786966" lon="115.64503026336604"><ele>275.0</ele><time>2026-04-15T05:01:41.001Z</time></trkpt><trkpt lat="-27.368330850907647" lon="115.6452888617989"><ele>276.5</ele><time>2026-04-15T05:01:42.001Z</time></trkpt><trkpt lat="-27.36840134197814" lon="115.6455535542769"><ele>278.0</ele><time>2026-04-15T05:01:43.001Z</time></trkpt><trkpt lat="-27.36847668917616" lon="115.64581392893692"><ele>278.0</ele><time>2026-04-15T05:01:44.001Z</time></trkpt><trkpt lat="-27.36855181683984" lon="115.64606037730307"><ele>278.0</ele><time>2026-04-15T05:01:45.001Z</time></trkpt><trkpt lat="-27.368623095939988" lon="115.64629520236996"><ele>277.5</ele><time>2026-04-15T05:01:46.001Z</time></trkpt><trkpt lat="-27.368757382465244" lon="115.64673564924134"><ele>277.0</ele><time>2026-04-15T05:01:48.001Z</time></trkpt><trkpt lat="-27.368820461592666" lon="115.64695962973961"><ele>277.3333333333333</ele><time>2026-04-15T05:01:49.001Z</time></trkpt><trkpt lat="-27.368869401889736" lon="115.64719793064582"><ele>277.6666666666667</ele><time>2026-04-15T05:01:50.001Z</time></trkpt><trkpt lat="-27.36890514117824" lon="115.6474474428147"><ele>278.0</ele><time>2026-04-15T05:01:51.001Z</time></trkpt><trkpt lat="-27.368935575558332" lon="115.64770762301181"><ele>277.0</ele><time>2026-04-15T05:01:52.001Z</time></trkpt><trkpt lat="-27.368962715733065" lon="115.64797067373152"><ele>276.0</ele><time>2026-04-15T05:01:53.001Z</time></trkpt><trkpt lat="-27.368990280421897" lon="115.6482255375968"><ele>276.0</ele><time>2026-04-15T05:01:54.001Z</time></trkpt><trkpt lat="-27.369016374052528" lon="115.64847016253938"><ele>276.0</ele><time>2026-04-15T05:01:55.001Z</time></trkpt><trkpt lat="-27.36904045993907" lon="115.64870917566661"><ele>276.0</ele><time>2026-04-15T05:01:56.001Z</time></trkpt><trkpt lat="-27.369065029231304" lon="115.64893500498049"><ele>275.6666666666667</ele><time>2026-04-15T05:01:57.001Z</time></trkpt><trkpt lat="-27.36909210806852" lon="115.64915226021753"><ele>275.33333333333337</ele><time>2026-04-15T05:01:58.001Z</time></trkpt><trkpt lat="-27.369116584360725" lon="115.64936912275888"><ele>275.0</ele><time>2026-04-15T05:01:59Z</time></trkpt><trkpt lat="-27.369133381973555" lon="115.64959251687466"><ele>274.33333333333337</ele><time>2026-04-15T05:02:00Z</time></trkpt><trkpt lat="-27.369142082309317" lon="115.6498179330975"><ele>273.6666666666667</ele><time>2026-04-15T05:02:01Z</time></trkpt><trkpt lat="-27.369145627295648" lon="115.65003719533712"><ele>273.0</ele><time>2026-04-15T05:02:02Z</time></trkpt><trkpt lat="-27.369142178437965" lon="115.6502403122904"><ele>273.0</ele><time>2026-04-15T05:02:03Z</time></trkpt><trkpt lat="-27.36913208034795" lon="115.65043874484495"><ele>273.0</ele><time>2026-04-15T05:02:04Z</time></trkpt><trkpt lat="-27.369119140044248" lon="115.65062667833539"><ele>273.0</ele><time>2026-04-15T05:02:05Z</time></trkpt><trkpt lat="-27.36910704572524" lon="115.65080205278635"><ele>273.0</ele><time>2026-04-15T05:02:06Z</time></trkpt><trkpt lat="-27.3690948785211" lon="115.65096827829247"><ele>273.0</ele><time>2026-04-15T05:02:07Z</time></trkpt><trkpt lat="-27.36907208459116" lon="115.65129614588885"><ele>273.0</ele><time>2026-04-15T05:02:09Z</time></trkpt><trkpt lat="-27.36906641212864" lon="115.65145280467502"><ele>274.0</ele><time>2026-04-15T05:02:10Z</time></trkpt><trkpt lat="-27.369074231874865" lon="115.65161399231592"><ele>275.0</ele><time>2026-04-15T05:02:11Z</time></trkpt><trkpt lat="-27.369095543106134" lon="115.65178700848426"><ele>276.0</ele><time>2026-04-15T05:02:12Z</time></trkpt><trkpt lat="-27.36913630223838" lon="115.65196468167099"><ele>276.3333333333333</ele><time>2026-04-15T05:02:13Z</time></trkpt><trkpt lat="-27.36919924650547" lon="115.65214485920582"><ele>276.66666666666663</ele><time>2026-04-15T05:02:14Z</time></trkpt><trkpt lat="-27.369278853644012" lon="115.65230913619853"><ele>277.0</ele><time>2026-04-15T05:02:15Z</time></trkpt><trkpt lat="-27.369392489507156" lon="115.6524703195784"><ele>277.0</ele><time>2026-04-15T05:02:16Z</time></trkpt><trkpt lat="-27.369524502532897" lon="115.65261733689113"><ele>277.0</ele><time>2026-04-15T05:02:17Z</time></trkpt><trkpt lat="-27.369677097298524" lon="115.65274962987391"><ele>277.0</ele><time>2026-04-15T05:02:18Z</time></trkpt><trkpt lat="-27.369845846192142" lon="115.6528730720616"><ele>277.3333333333333</ele><time>2026-04-15T05:02:19Z</time></trkpt><trkpt lat="-27.370017403881135" lon="115.6529885723193"><ele>277.6666666666667</ele><time>2026-04-15T05:02:20Z</time></trkpt><trkpt lat="-27.37018396806199" lon="115.65309875398816"><ele>278.0</ele><time>2026-04-15T05:02:21Z</time></trkpt><trkpt lat="-27.370345991762072" lon="115.65320933186116"><ele>278.0</ele><time>2026-04-15T05:02:22Z</time></trkpt><trkpt lat="-27.370505507972098" lon="115.65332381845246"><ele>278.0</ele><time>2026-04-15T05:02:23Z</time></trkpt><trkpt lat="-27.370662714513372" lon="115.65343470053602"><ele>278.0</ele><time>2026-04-15T05:02:24Z</time></trkpt><trkpt lat="-27.370824250936565" lon="115.65353863859197"><ele>277.0</ele><time>2026-04-15T05:02:25Z</time></trkpt><trkpt lat="-27.370984881936998" lon="115.65364657081311"><ele>276.0</ele><time>2026-04-15T05:02:26Z</time></trkpt><trkpt lat="-27.371164877687704" lon="115.6537768496203"><ele>275.0</ele><time>2026-04-15T05:02:27Z</time></trkpt><trkpt lat="-27.371528659225497" lon="115.65403082411423"><ele>275.0</ele><time>2026-04-15T05:02:29Z</time></trkpt><trkpt lat="-27.371703436481262" lon="115.65415200022255"><ele>275.0</ele><time>2026-04-15T05:02:30Z</time></trkpt><trkpt lat="-27.371876761057973" lon="115.65427521909037"><ele>275.0</ele><time>2026-04-15T05:02:31Z</time></trkpt><trkpt lat="-27.37205116225765" lon="115.65439710818734"><ele>274.33333333333337</ele><time>2026-04-15T05:02:32Z</time></trkpt><trkpt lat="-27.372227543515038" lon="115.65451738516013"><ele>273.6666666666667</ele><time>2026-04-15T05:02:33Z</time></trkpt><trkpt lat="-27.372409090349063" lon="115.65463444786339"><ele>273.0</ele><time>2026-04-15T05:02:34Z</time></trkpt><trkpt lat="-27.37259321727823" lon="115.65475367262586"><ele>273.0</ele><time>2026-04-15T05:02:35Z</time></trkpt><trkpt lat="-27.372775104065283" lon="115.65487208177116"><ele>273.0</ele><time>2026-04-15T05:02:36Z</time></trkpt><trkpt lat="-27.372960614647777" lon="115.65499626637852"><ele>273.0</ele><time>2026-04-15T05:02:37Z</time></trkpt><trkpt lat="-27.3731428618533" lon="115.65512236531552"><ele>273.3333333333333</ele><time>2026-04-15T05:02:38Z</time></trkpt><trkpt lat="-27.37332754631477" lon="115.65524901807079"><ele>273.66666666666663</ele><time>2026-04-15T05:02:39Z</time></trkpt><trkpt lat="-27.373510646582147" lon="115.65537393967969"><ele>274.0</ele><time>2026-04-15T05:02:40Z</time></trkpt><trkpt lat="-27.37369092014527" lon="115.65550260092236"><ele>274.3333333333333</ele><time>2026-04-15T05:02:41Z</time></trkpt><trkpt lat="-27.373870408901453" lon="115.65563071825734"><ele>274.6666666666667</ele><time>2026-04-15T05:02:42Z</time></trkpt><trkpt lat="-27.374053750673188" lon="115.65576120611911"><ele>275.0</ele><time>2026-04-15T05:02:43Z</time></trkpt><trkpt lat="-27.374237632537124" lon="115.6558922936727"><ele>275.0</ele><time>2026-04-15T05:02:44Z</time></trkpt><trkpt lat="-27.374424417387573" lon="115.65602085483974"><ele>275.0</ele><time>2026-04-15T05:02:45Z</time></trkpt><trkpt lat="-27.374618602998723" lon="115.65615285270695"><ele>275.0</ele><time>2026-04-15T05:02:46Z</time></trkpt><trkpt lat="-27.3748128164916" lon="115.65628524870922"><ele>275.0</ele><time>2026-04-15T05:02:47Z</time></trkpt><trkpt lat="-27.375009548833624" lon="115.65641776769723"><ele>275.0</ele><time>2026-04-15T05:02:48Z</time></trkpt><trkpt lat="-27.37540816915551" lon="115.65668620592429"><ele>274.5</ele><time>2026-04-15T05:02:50Z</time></trkpt><trkpt lat="-27.375614211943727" lon="115.65682144303884"><ele>274.0</ele><time>2026-04-15T05:02:51Z</time></trkpt><trkpt lat="-27.375824613178455" lon="115.6569628434568"><ele>275.0</ele><time>2026-04-15T05:02:52Z</time></trkpt><trkpt lat="-27.37604142053804" lon="115.65710864933759"><ele>276.0</ele><time>2026-04-15T05:02:53Z</time></trkpt><trkpt lat="-27.376263645801792" lon="115.65726200294705"><ele>274.0</ele><time>2026-04-15T05:02:54Z</time></trkpt><trkpt lat="-27.376488183025977" lon="115.657418563208"><ele>272.0</ele><time>2026-04-15T05:02:55Z</time></trkpt><trkpt lat="-27.37671549817395" lon="115.65757404297068"><ele>272.0</ele><time>2026-04-15T05:02:56Z</time></trkpt><trkpt lat="-27.376945347075544" lon="115.65772942270006"><ele>272.0</ele><time>2026-04-15T05:02:57Z</time></trkpt><trkpt lat="-27.37717236271489" lon="115.65788045920527"><ele>272.5</ele><time>2026-04-15T05:02:58Z</time></trkpt><trkpt lat="-27.377397043798442" lon="115.65802681086596"><ele>273.0</ele><time>2026-04-15T05:02:59Z</time></trkpt><trkpt lat="-27.37761801315833" lon="115.65817026592005"><ele>273.0</ele><time>2026-04-15T05:03:00Z</time></trkpt><trkpt lat="-27.377839416891334" lon="115.6583133289435"><ele>273.0</ele><time>2026-04-15T05:03:01Z</time></trkpt><trkpt lat="-27.378055681409425" lon="115.65845779846371"><ele>272.0</ele><time>2026-04-15T05:03:02Z</time></trkpt><trkpt lat="-27.378270075140758" lon="115.65860289614054"><ele>271.0</ele><time>2026-04-15T05:03:03Z</time></trkpt><trkpt lat="-27.37848343282441" lon="115.65874605796915"><ele>271.0</ele><time>2026-04-15T05:03:04Z</time></trkpt><trkpt lat="-27.378695828588995" lon="115.65888512545196"><ele>271.0</ele><time>2026-04-15T05:03:05Z</time></trkpt><trkpt lat="-27.378909765362856" lon="115.65902365897412"><ele>271.0</ele><time>2026-04-15T05:03:06Z</time></trkpt><trkpt lat="-27.379120522458138" lon="115.65915990917745"><ele>271.0</ele><time>2026-04-15T05:03:07Z</time></trkpt><trkpt lat="-27.379332044390218" lon="115.65929686104134"><ele>271.0</ele><time>2026-04-15T05:03:08Z</time></trkpt><trkpt lat="-27.379548870583264" lon="115.65944101873826"><ele>271.0</ele><time>2026-04-15T05:03:09Z</time></trkpt><trkpt lat="-27.379982912355494" lon="115.65973090504143"><ele>271.5</ele><time>2026-04-15T05:03:11Z</time></trkpt><trkpt lat="-27.380199937237563" lon="115.65987844018434"><ele>272.0</ele><time>2026-04-15T05:03:12Z</time></trkpt><trkpt lat="-27.380419501118432" lon="115.66002959847074"><ele>272.0</ele><time>2026-04-15T05:03:13Z</time></trkpt><trkpt lat="-27.380640318022277" lon="115.66018221389855"><ele>272.0</ele><time>2026-04-15T05:03:14Z</time></trkpt><trkpt lat="-27.38085901159006" lon="115.66033457323766"><ele>271.0</ele><time>2026-04-15T05:03:15Z</time></trkpt><trkpt lat="-27.381084707474635" lon="115.66048663315964"><ele>270.0</ele><time>2026-04-15T05:03:16Z</time></trkpt><trkpt lat="-27.381312507743143" lon="115.66063836783597"><ele>271.0</ele><time>2026-04-15T05:03:17Z</time></trkpt><trkpt lat="-27.381538025552068" lon="115.66078912348587"><ele>272.0</ele><time>2026-04-15T05:03:18Z</time></trkpt><trkpt lat="-27.381761196684227" lon="115.66094117507188"><ele>272.0</ele><time>2026-04-15T05:03:19Z</time></trkpt><trkpt lat="-27.381980059052317" lon="115.66109277987911"><ele>272.0</ele><time>2026-04-15T05:03:20.001Z</time></trkpt><trkpt lat="-27.382188318410776" lon="115.66123430320879"><ele>271.5</ele><time>2026-04-15T05:03:21.001Z</time></trkpt><trkpt lat="-27.382389455605743" lon="115.66137400966133"><ele>271.0</ele><time>2026-04-15T05:03:22.001Z</time></trkpt><trkpt lat="-27.38258748598975" lon="115.66151957283121"><ele>271.0</ele><time>2026-04-15T05:03:23.001Z</time></trkpt><trkpt lat="-27.382778351506254" lon="115.661680374561"><ele>271.0</ele><time>2026-04-15T05:03:24.001Z</time></trkpt><trkpt lat="-27.382963355204538" lon="115.66184911086067"><ele>271.5</ele><time>2026-04-15T05:03:25.001Z</time></trkpt><trkpt lat="-27.383137733829663" lon="115.66203082587607"><ele>272.0</ele><time>2026-04-15T05:03:26.001Z</time></trkpt><trkpt lat="-27.383308625193166" lon="115.66222540416311"><ele>272.0</ele><time>2026-04-15T05:03:27.001Z</time></trkpt><trkpt lat="-27.383473798018848" lon="115.66242894239672"><ele>272.0</ele><time>2026-04-15T05:03:28.001Z</time></trkpt><trkpt lat="-27.383626020575694" lon="115.66263628618934"><ele>271.5</ele><time>2026-04-15T05:03:29.001Z</time></trkpt><trkpt lat="-27.38377411040504" lon="115.66285704712824"><ele>271.0</ele><time>2026-04-15T05:03:30.001Z</time></trkpt><trkpt lat="-27.384071642348456" lon="115.66329636623908"><ele>271.0</ele><time>2026-04-15T05:03:32.001Z</time></trkpt><trkpt lat="-27.384219200627037" lon="115.66350966493802"><ele>271.0</ele><time>2026-04-15T05:03:33.001Z</time></trkpt><trkpt lat="-27.384357268295062" lon="115.66371177960713"><ele>271.3333333333333</ele><time>2026-04-15T05:03:34.001Z</time></trkpt><trkpt lat="-27.384482977897463" lon="115.66390091151558"><ele>271.6666666666667</ele><time>2026-04-15T05:03:35.001Z</time></trkpt><trkpt lat="-27.384613139546556" lon="115.66409162496753"><ele>272.0</ele><time>2026-04-15T05:03:36.001Z</time></trkpt><trkpt lat="-27.384750441175274" lon="115.66428570613917"><ele>273.0</ele><time>2026-04-15T05:03:37.001Z</time></trkpt><trkpt lat="-27.384890558125058" lon="115.66448188264874"><ele>274.0</ele><time>2026-04-15T05:03:38.001Z</time></trkpt><trkpt lat="-27.385031927305068" lon="115.66467206449236"><ele>275.0</ele><time>2026-04-15T05:03:39.001Z</time></trkpt><trkpt lat="-27.38518137897335" lon="115.66485587785128"><ele>275.0</ele><time>2026-04-15T05:03:40.001Z</time></trkpt><trkpt lat="-27.38533817290666" lon="115.66502245347739"><ele>275.0</ele><time>2026-04-15T05:03:41.001Z</time></trkpt><trkpt lat="-27.385487979387314" lon="115.66516741424275"><ele>275.0</ele><time>2026-04-15T05:03:42.001Z</time></trkpt><trkpt lat="-27.385636488030734" lon="115.66530092172637"><ele>274.0</ele><time>2026-04-15T05:03:43.001Z</time></trkpt><trkpt lat="-27.385786006809024" lon="115.66542371597464"><ele>273.0</ele><time>2026-04-15T05:03:44.001Z</time></trkpt><trkpt lat="-27.385944243110718" lon="115.66555174091654"><ele>272.0</ele><time>2026-04-15T05:03:45.001Z</time></trkpt><trkpt lat="-27.38610714019618" lon="115.66568906704504"><ele>272.0</ele><time>2026-04-15T05:03:46.001Z</time></trkpt><trkpt lat="-27.386271924386453" lon="115.665834199626"><ele>272.0</ele><time>2026-04-15T05:03:47Z</time></trkpt><trkpt lat="-27.38644363442691" lon="115.66598111460401"><ele>272.0</ele><time>2026-04-15T05:03:48Z</time></trkpt><trkpt lat="-27.386628176492096" lon="115.66612518795458"><ele>273.5</ele><time>2026-04-15T05:03:49Z</time></trkpt><trkpt lat="-27.38681692468003" lon="115.66627484518357"><ele>275.0</ele><time>2026-04-15T05:03:50Z</time></trkpt><trkpt lat="-27.387001482484596" lon="115.6664199220996"><ele>276.0</ele><time>2026-04-15T05:03:51Z</time></trkpt><trkpt lat="-27.387373036861646" lon="115.66672396973965"><ele>276.0</ele><time>2026-04-15T05:03:53Z</time></trkpt><trkpt lat="-27.387566027306995" lon="115.66688150719104"><ele>276.0</ele><time>2026-04-15T05:03:54Z</time></trkpt><trkpt lat="-27.387764020234865" lon="115.66704095048557"><ele>276.0</ele><time>2026-04-15T05:03:55Z</time></trkpt><trkpt lat="-27.387966882647934" lon="115.6672054523378"><ele>276.0</ele><time>2026-04-15T05:03:56Z</time></trkpt><trkpt lat="-27.388172841236297" lon="115.66737232707068"><ele>276.0</ele><time>2026-04-15T05:03:57Z</time></trkpt><trkpt lat="-27.388382200171893" lon="115.66754190018153"><ele>276.0</ele><time>2026-04-15T05:03:58Z</time></trkpt><trkpt lat="-27.388593139422476" lon="115.66771301556334"><ele>275.5</ele><time>2026-04-15T05:03:59Z</time></trkpt><trkpt lat="-27.38880715252781" lon="115.66788685070408"><ele>275.0</ele><time>2026-04-15T05:04:00Z</time></trkpt><trkpt lat="-27.389019341818855" lon="115.66805660417499"><ele>275.0</ele><time>2026-04-15T05:04:01Z</time></trkpt><trkpt lat="-27.38923088607001" lon="115.66822199805745"><ele>275.0</ele><time>2026-04-15T05:04:02Z</time></trkpt><trkpt lat="-27.38944289258429" lon="115.6683848780182"><ele>275.0</ele><time>2026-04-15T05:04:03Z</time></trkpt><trkpt lat="-27.38965537710196" lon="115.66854976807522"><ele>275.0</ele><time>2026-04-15T05:04:04Z</time></trkpt><trkpt lat="-27.389864914903207" lon="115.66872079355049"><ele>274.5</ele><time>2026-04-15T05:04:05Z</time></trkpt><trkpt lat="-27.390075497080304" lon="115.66889787795029"><ele>274.0</ele><time>2026-04-15T05:04:06Z</time></trkpt><trkpt lat="-27.390286040839644" lon="115.66907673274557"><ele>274.0</ele><time>2026-04-15T05:04:07Z</time></trkpt><trkpt lat="-27.39049695769507" lon="115.66925349349509"><ele>274.0</ele><time>2026-04-15T05:04:08Z</time></trkpt><trkpt lat="-27.39070709785915" lon="115.6694257188549"><ele>272.5</ele><time>2026-04-15T05:04:09Z</time></trkpt><trkpt lat="-27.39091735127239" lon="115.66959318097025"><ele>271.0</ele><time>2026-04-15T05:04:10Z</time></trkpt><trkpt lat="-27.391125569704865" lon="115.66975910753442"><ele>271.0</ele><time>2026-04-15T05:04:11Z</time></trkpt><trkpt lat="-27.391548111142853" lon="115.67010402348119"><ele>271.0</ele><time>2026-04-15T05:04:13Z</time></trkpt><trkpt lat="-27.391759197056057" lon="115.67027473827834"><ele>271.0</ele><time>2026-04-15T05:04:14Z</time></trkpt><trkpt lat="-27.391969589477544" lon="115.67044419023831"><ele>271.0</ele><time>2026-04-15T05:04:15Z</time></trkpt><trkpt lat="-27.392184098462348" lon="115.67061694567037"><ele>271.0</ele><time>2026-04-15T05:04:16Z</time></trkpt><trkpt lat="-27.39240006941011" lon="115.67079306408883"><ele>271.0</ele><time>2026-04-15T05:04:17Z</time></trkpt><trkpt lat="-27.392618513017517" lon="115.67097107984172"><ele>271.0</ele><time>2026-04-15T05:04:18Z</time></trkpt><trkpt lat="-27.392838929460385" lon="115.67115084211801"><ele>272.5</ele><time>2026-04-15T05:04:19Z</time></trkpt><trkpt lat="-27.393065107355888" lon="115.67133367687396"><ele>274.0</ele><time>2026-04-15T05:04:20Z</time></trkpt><trkpt lat="-27.393294609666523" lon="115.67151725736036"><ele>274.0</ele><time>2026-04-15T05:04:21Z</time></trkpt><trkpt lat="-27.393523215410582" lon="115.6717011177128"><ele>274.0</ele><time>2026-04-15T05:04:22Z</time></trkpt><trkpt lat="-27.39374959148325" lon="115.67188454948611"><ele>273.5</ele><time>2026-04-15T05:04:23Z</time></trkpt><trkpt lat="-27.393977335878553" lon="115.67206731342344"><ele>273.0</ele><time>2026-04-15T05:04:24Z</time></trkpt><trkpt lat="-27.394202461876496" lon="115.67224745130815"><ele>273.0</ele><time>2026-04-15T05:04:25Z</time></trkpt><trkpt lat="-27.394428000596232" lon="115.67242861920244"><ele>273.0</ele><time>2026-04-15T05:04:26Z</time></trkpt><trkpt lat="-27.39465057047108" lon="115.67260800922817"><ele>274.0</ele><time>2026-04-15T05:04:27Z</time></trkpt><trkpt lat="-27.39487988036824" lon="115.67279092999952"><ele>275.0</ele><time>2026-04-15T05:04:28Z</time></trkpt><trkpt lat="-27.395107558985632" lon="115.67297199874841"><ele>275.0</ele><time>2026-04-15T05:04:29Z</time></trkpt><trkpt lat="-27.395329103216227" lon="115.67315375330352"><ele>275.0</ele><time>2026-04-15T05:04:30Z</time></trkpt><trkpt lat="-27.395554609571665" lon="115.67333919516675"><ele>274.5</ele><time>2026-04-15T05:04:31Z</time></trkpt><trkpt lat="-27.395778044355943" lon="115.67352286139621"><ele>274.0</ele><time>2026-04-15T05:04:32Z</time></trkpt><trkpt lat="-27.39622694232984" lon="115.67388504904099"><ele>274.0</ele><time>2026-04-15T05:04:34Z</time></trkpt><trkpt lat="-27.39645270466243" lon="115.67406702156472"><ele>274.0</ele><time>2026-04-15T05:04:35Z</time></trkpt><trkpt lat="-27.39667565829058" lon="115.67424895090772"><ele>274.0</ele><time>2026-04-15T05:04:36Z</time></trkpt><trkpt lat="-27.396901212474177" lon="115.67443366549315"><ele>274.0</ele><time>2026-04-15T05:04:37Z</time></trkpt><trkpt lat="-27.39712201473331" lon="115.67461851957272"><ele>274.0</ele><time>2026-04-15T05:04:38Z</time></trkpt><trkpt lat="-27.397344586830428" lon="115.67480328426768"><ele>274.0</ele><time>2026-04-15T05:04:39Z</time></trkpt><trkpt lat="-27.39757099433109" lon="115.67498487160879"><ele>274.0</ele><time>2026-04-15T05:04:40Z</time></trkpt><trkpt lat="-27.397802915234127" lon="115.67517153446903"><ele>274.0</ele><time>2026-04-15T05:04:41Z</time></trkpt><trkpt lat="-27.398031658119532" lon="115.6753563583525"><ele>273.0</ele><time>2026-04-15T05:04:42Z</time></trkpt><trkpt lat="-27.398256146246624" lon="115.67553850284027"><ele>272.0</ele><time>2026-04-15T05:04:43Z</time></trkpt><trkpt lat="-27.39848395006145" lon="115.67572170173102"><ele>272.0</ele><time>2026-04-15T05:04:44Z</time></trkpt><trkpt lat="-27.398708839212812" lon="115.67590202598669"><ele>272.0</ele><time>2026-04-15T05:04:45Z</time></trkpt><trkpt lat="-27.398933033539087" lon="115.67607710979368"><ele>271.0</ele><time>2026-04-15T05:04:46Z</time></trkpt><trkpt lat="-27.399153155991808" lon="115.67625331340119"><ele>270.0</ele><time>2026-04-15T05:04:47Z</time></trkpt><trkpt lat="-27.399376262613934" lon="115.67643343134264"><ele>270.0</ele><time>2026-04-15T05:04:48Z</time></trkpt><trkpt lat="-27.399597963848397" lon="115.67661355167895"><ele>270.0</ele><time>2026-04-15T05:04:49Z</time></trkpt><trkpt lat="-27.39982108907888" lon="115.67679287225235"><ele>271.5</ele><time>2026-04-15T05:04:50Z</time></trkpt><trkpt lat="-27.40004784664692" lon="115.67697187944948"><ele>273.0</ele><time>2026-04-15T05:04:51Z</time></trkpt><trkpt lat="-27.40027249006793" lon="115.6771518619343"><ele>273.0</ele><time>2026-04-15T05:04:52Z</time></trkpt><trkpt lat="-27.400498423429177" lon="115.67733189994689"><ele>273.0</ele><time>2026-04-15T05:04:53Z</time></trkpt><trkpt lat="-27.400950104940893" lon="115.67769827034556"><ele>272.5</ele><time>2026-04-15T05:04:55Z</time></trkpt><trkpt lat="-27.40117242767957" lon="115.67788474267938"><ele>272.0</ele><time>2026-04-15T05:04:56Z</time></trkpt><trkpt lat="-27.401395406186435" lon="115.67806997253426"><ele>272.0</ele><time>2026-04-15T05:04:57Z</time></trkpt><trkpt lat="-27.401613651136454" lon="115.6782520511422"><ele>272.0</ele><time>2026-04-15T05:04:58Z</time></trkpt><trkpt lat="-27.401828845854542" lon="115.67843273219403"><ele>272.0</ele><time>2026-04-15T05:04:59Z</time></trkpt><trkpt lat="-27.40204773221616" lon="115.67861159936585"><ele>272.0</ele><time>2026-04-15T05:05:00Z</time></trkpt><trkpt lat="-27.402270607692472" lon="115.67879142524585"><ele>272.5</ele><time>2026-04-15T05:05:01Z</time></trkpt><trkpt lat="-27.402491214390622" lon="115.67896865749454"><ele>273.0</ele><time>2026-04-15T05:05:02Z</time></trkpt><trkpt lat="-27.40271121693921" lon="115.67914857736986"><ele>273.0</ele><time>2026-04-15T05:05:03Z</time></trkpt><trkpt lat="-27.40292981649791" lon="115.67932616005218"><ele>273.0</ele><time>2026-04-15T05:05:04Z</time></trkpt><trkpt lat="-27.403154914975225" lon="115.6795100430809"><ele>274.0</ele><time>2026-04-15T05:05:05Z</time></trkpt><trkpt lat="-27.403382741275475" lon="115.67969568800397"><ele>275.0</ele><time>2026-04-15T05:05:06Z</time></trkpt><trkpt lat="-27.40361209595719" lon="115.67988500173827"><ele>275.0</ele><time>2026-04-15T05:05:07Z</time></trkpt><trkpt lat="-27.40384064258508" lon="115.6800696683427"><ele>275.0</ele><time>2026-04-15T05:05:08Z</time></trkpt><trkpt lat="-27.404070465333778" lon="115.6802554296656"><ele>275.5</ele><time>2026-04-15T05:05:09Z</time></trkpt><trkpt lat="-27.404300345034134" lon="115.68043883680565"><ele>276.0</ele><time>2026-04-15T05:05:10Z</time></trkpt><trkpt lat="-27.404529514772722" lon="115.6806218752859"><ele>276.5</ele><time>2026-04-15T05:05:11Z</time></trkpt><trkpt lat="-27.40475876122533" lon="115.68080572331895"><ele>277.0</ele><time>2026-04-15T05:05:12Z</time></trkpt><trkpt lat="-27.40498048686854" lon="115.6809902365766"><ele>277.5</ele><time>2026-04-15T05:05:13Z</time></trkpt><trkpt lat="-27.405202794881053" lon="115.68117471348761"><ele>278.0</ele><time>2026-04-15T05:05:14Z</time></trkpt><trkpt lat="-27.405652534086435" lon="115.68154504078751"><ele>278.5</ele><time>2026-04-15T05:05:16Z</time></trkpt><trkpt lat="-27.405873263628248" lon="115.68172292176784"><ele>279.0</ele><time>2026-04-15T05:05:17Z</time></trkpt><trkpt lat="-27.406097458667325" lon="115.68190537170275"><ele>278.5</ele><time>2026-04-15T05:05:18Z</time></trkpt><trkpt lat="-27.406316741087743" lon="115.6820841295597"><ele>278.0</ele><time>2026-04-15T05:05:19Z</time></trkpt><trkpt lat="-27.406537353721497" lon="115.68226142008905"><ele>277.5</ele><time>2026-04-15T05:05:20Z</time></trkpt><trkpt lat="-27.406757799617033" lon="115.68243876665696"><ele>277.0</ele><time>2026-04-15T05:05:21Z</time></trkpt><trkpt lat="-27.40697863363073" lon="115.6826191411042"><ele>277.0</ele><time>2026-04-15T05:05:22Z</time></trkpt><trkpt lat="-27.407196636433248" lon="115.68279387532262"><ele>277.0</ele><time>2026-04-15T05:05:23Z</time></trkpt><trkpt lat="-27.407415728546813" lon="115.68297311372933"><ele>277.0</ele><time>2026-04-15T05:05:24Z</time></trkpt><trkpt lat="-27.40763443972434" lon="115.6831523851334"><ele>277.0</ele><time>2026-04-15T05:05:25Z</time></trkpt><trkpt lat="-27.40785331436837" lon="115.68333122108982"><ele>275.5</ele><time>2026-04-15T05:05:26Z</time></trkpt><trkpt lat="-27.40807043285885" lon="115.68350609590398"><ele>274.0</ele><time>2026-04-15T05:05:27Z</time></trkpt><trkpt lat="-27.40828877386813" lon="115.68368199262207"><ele>274.0</ele><time>2026-04-15T05:05:28Z</time></trkpt><trkpt lat="-27.408505964748013" lon="115.68385776759935"><ele>274.0</ele><time>2026-04-15T05:05:29Z</time></trkpt><trkpt lat="-27.408722783294785" lon="115.68403543623214"><ele>273.0</ele><time>2026-04-15T05:05:30Z</time></trkpt><trkpt lat="-27.408939049319844" lon="115.68421191478178"><ele>272.0</ele><time>2026-04-15T05:05:31Z</time></trkpt><trkpt lat="-27.409155432021475" lon="115.68439037833782"><ele>273.5</ele><time>2026-04-15T05:05:32Z</time></trkpt><trkpt lat="-27.40937092510612" lon="115.68456924783297"><ele>275.0</ele><time>2026-04-15T05:05:33Z</time></trkpt><trkpt lat="-27.409586270600155" lon="115.68473695251282"><ele>274.0</ele><time>2026-04-15T05:05:34Z</time></trkpt><trkpt lat="-27.409795501769146" lon="115.68490591724854"><ele>273.0</ele><time>2026-04-15T05:05:35Z</time></trkpt><trkpt lat="-27.41022281704755" lon="115.68525610451593"><ele>273.0</ele><time>2026-04-15T05:05:37Z</time></trkpt><trkpt lat="-27.41043422013081" lon="115.68543233448587"><ele>273.0</ele><time>2026-04-15T05:05:38Z</time></trkpt><trkpt lat="-27.410645629310103" lon="115.68560769194563"><ele>272.0</ele><time>2026-04-15T05:05:39Z</time></trkpt><trkpt lat="-27.410854135076203" lon="115.68578055027679"><ele>271.0</ele><time>2026-04-15T05:05:40Z</time></trkpt><trkpt lat="-27.411058404765402" lon="115.6859496165932"><ele>271.0</ele><time>2026-04-15T05:05:41Z</time></trkpt><trkpt lat="-27.411267963845248" lon="115.6861229466304"><ele>271.0</ele><time>2026-04-15T05:05:42Z</time></trkpt><trkpt lat="-27.411476732650517" lon="115.68629740355847"><ele>271.0</ele><time>2026-04-15T05:05:43Z</time></trkpt><trkpt lat="-27.41168217082806" lon="115.68646712842958"><ele>271.0</ele><time>2026-04-15T05:05:44Z</time></trkpt><trkpt lat="-27.41188558837193" lon="115.6866352927293"><ele>271.0</ele><time>2026-04-15T05:05:45Z</time></trkpt><trkpt lat="-27.412089946805324" lon="115.6867950308313"><ele>271.0</ele><time>2026-04-15T05:05:46Z</time></trkpt><trkpt lat="-27.412292894150738" lon="115.68695374330798"><ele>270.0</ele><time>2026-04-15T05:05:47Z</time></trkpt><trkpt lat="-27.41249948006831" lon="115.68711470072479"><ele>269.0</ele><time>2026-04-15T05:05:48Z</time></trkpt><trkpt lat="-27.41271014357004" lon="115.68728099351934"><ele>269.0</ele><time>2026-04-15T05:05:49Z</time></trkpt><trkpt lat="-27.412917201380935" lon="115.68744853396848"><ele>269.0</ele><time>2026-04-15T05:05:50Z</time></trkpt><trkpt lat="-27.413128745387127" lon="115.68762025054113"><ele>268.5</ele><time>2026-04-15T05:05:51Z</time></trkpt><trkpt lat="-27.413324827349342" lon="115.68777515862585"><ele>268.0</ele><time>2026-04-15T05:05:52Z</time></trkpt><trkpt lat="-27.413517874096524" lon="115.68792487379683"><ele>268.0</ele><time>2026-04-15T05:05:53Z</time></trkpt><trkpt lat="-27.41370979711261" lon="115.68807478654321"><ele>268.0</ele><time>2026-04-15T05:05:54Z</time></trkpt><trkpt lat="-27.41389649946684" lon="115.6882207706635"><ele>268.0</ele><time>2026-04-15T05:05:55Z</time></trkpt><trkpt lat="-27.414083228075484" lon="115.68836477824303"><ele>268.0</ele><time>2026-04-15T05:05:56Z</time></trkpt><trkpt lat="-27.414452560217605" lon="115.68866555304359"><ele>268.5</ele><time>2026-04-15T05:05:58Z</time></trkpt><trkpt lat="-27.414639662354045" lon="115.68882127889157"><ele>269.0</ele><time>2026-04-15T05:05:59Z</time></trkpt><trkpt lat="-27.414827130849222" lon="115.68897688405892"><ele>269.0</ele><time>2026-04-15T05:06:00Z</time></trkpt><trkpt lat="-27.415018732907534" lon="115.68913714551661"><ele>269.0</ele><time>2026-04-15T05:06:01Z</time></trkpt><trkpt lat="-27.415214918740727" lon="115.6892979684921"><ele>268.0</ele><time>2026-04-15T05:06:02Z</time></trkpt><trkpt lat="-27.41540966926761" lon="115.68946067569722"><ele>267.0</ele><time>2026-04-15T05:06:03Z</time></trkpt><trkpt lat="-27.415603718026944" lon="115.68962595540542"><ele>267.0</ele><time>2026-04-15T05:06:04Z</time></trkpt><trkpt lat="-27.41579891289176" lon="115.68978879560024"><ele>267.0</ele><time>2026-04-15T05:06:05Z</time></trkpt><trkpt lat="-27.415993246770842" lon="115.68995003035461"><ele>267.0</ele><time>2026-04-15T05:06:06Z</time></trkpt><trkpt lat="-27.416178646446692" lon="115.69010476164182"><ele>267.0</ele><time>2026-04-15T05:06:07Z</time></trkpt><trkpt lat="-27.41635439671601" lon="115.6902493394581"><ele>267.0</ele><time>2026-04-15T05:06:08Z</time></trkpt><trkpt lat="-27.416532612362154" lon="115.69039277049113"><ele>269.0</ele><time>2026-04-15T05:06:09Z</time></trkpt><trkpt lat="-27.416712999183858" lon="115.69054151612721"><ele>271.0</ele><time>2026-04-15T05:06:10Z</time></trkpt><trkpt lat="-27.416896825935723" lon="115.6906956290878"><ele>271.0</ele><time>2026-04-15T05:06:11Z</time></trkpt><trkpt lat="-27.417079506776776" lon="115.6908502404938"><ele>271.0</ele><time>2026-04-15T05:06:12Z</time></trkpt><trkpt lat="-27.417264985835608" lon="115.69100745386066"><ele>269.5</ele><time>2026-04-15T05:06:13Z</time></trkpt><trkpt lat="-27.417449701101106" lon="115.69116249882508"><ele>268.0</ele><time>2026-04-15T05:06:14Z</time></trkpt><trkpt lat="-27.417635112328856" lon="115.69131395310326"><ele>268.0</ele><time>2026-04-15T05:06:15Z</time></trkpt><trkpt lat="-27.41781388268764" lon="115.69145356671787"><ele>268.0</ele><time>2026-04-15T05:06:16Z</time></trkpt><trkpt lat="-27.417991558406367" lon="115.69159303511273"><ele>268.0</ele><time>2026-04-15T05:06:17Z</time></trkpt><trkpt lat="-27.418338941871973" lon="115.69187023861505"><ele>268.66666666666663</ele><time>2026-04-15T05:06:19Z</time></trkpt><trkpt lat="-27.41850814244322" lon="115.69200710231046"><ele>269.3333333333333</ele><time>2026-04-15T05:06:20Z</time></trkpt><trkpt lat="-27.418677621347733" lon="115.69214481265247"><ele>270.0</ele><time>2026-04-15T05:06:21Z</time></trkpt><trkpt lat="-27.418847671142547" lon="115.69228406575594"><ele>270.0</ele><time>2026-04-15T05:06:22Z</time></trkpt><trkpt lat="-27.41901670599769" lon="115.69242182436992"><ele>270.0</ele><time>2026-04-15T05:06:23Z</time></trkpt><trkpt lat="-27.419189168499912" lon="115.69256062663938"><ele>270.0</ele><time>2026-04-15T05:06:24Z</time></trkpt><trkpt lat="-27.419359963882425" lon="115.69270128151946"><ele>270.0</ele><time>2026-04-15T05:06:25Z</time></trkpt><trkpt lat="-27.41953187275781" lon="115.69284592051088"><ele>270.0</ele><time>2026-04-15T05:06:26Z</time></trkpt><trkpt lat="-27.419703618170935" lon="115.69298539415227"><ele>270.0</ele><time>2026-04-15T05:06:27Z</time></trkpt><trkpt lat="-27.419876189517876" lon="115.69312175248906"><ele>270.0</ele><time>2026-04-15T05:06:28Z</time></trkpt><trkpt lat="-27.42005386547386" lon="115.69326602430655"><ele>270.0</ele><time>2026-04-15T05:06:29Z</time></trkpt><trkpt lat="-27.420230540950502" lon="115.69341080494198"><ele>270.0</ele><time>2026-04-15T05:06:30Z</time></trkpt><trkpt lat="-27.42041224605428" lon="115.69355455875706"><ele>272.0</ele><time>2026-04-15T05:06:31Z</time></trkpt><trkpt lat="-27.420592686239605" lon="115.69370024578083"><ele>274.0</ele><time>2026-04-15T05:06:32Z</time></trkpt><trkpt lat="-27.420778073051995" lon="115.69385335634855"><ele>274.0</ele><time>2026-04-15T05:06:33Z</time></trkpt><trkpt lat="-27.420967957531502" lon="115.69401732953858"><ele>274.0</ele><time>2026-04-15T05:06:34Z</time></trkpt><trkpt lat="-27.421164373774285" lon="115.69418852243491"><ele>273.0</ele><time>2026-04-15T05:06:35Z</time></trkpt><trkpt lat="-27.421366791053497" lon="115.6943549971644"><ele>272.0</ele><time>2026-04-15T05:06:36Z</time></trkpt><trkpt lat="-27.421565059650696" lon="115.69452327392614"><ele>271.0</ele><time>2026-04-15T05:06:37Z</time></trkpt><trkpt lat="-27.421764401897093" lon="115.69469072042858"><ele>270.0</ele><time>2026-04-15T05:06:38Z</time></trkpt><trkpt lat="-27.42216994010833" lon="115.69502893355933"><ele>270.0</ele><time>2026-04-15T05:06:40Z</time></trkpt><trkpt lat="-27.422368924338347" lon="115.69519393329917"><ele>270.0</ele><time>2026-04-15T05:06:41Z</time></trkpt><trkpt lat="-27.42256711018986" lon="115.69535846286357"><ele>270.5</ele><time>2026-04-15T05:06:42Z</time></trkpt><trkpt lat="-27.42276755438738" lon="115.69552170363322"><ele>271.0</ele><time>2026-04-15T05:06:43Z</time></trkpt><trkpt lat="-27.422965490867114" lon="115.69568552546914"><ele>270.5</ele><time>2026-04-15T05:06:44Z</time></trkpt><trkpt lat="-27.42315266178451" lon="115.69584937355887"><ele>270.0</ele><time>2026-04-15T05:06:45Z</time></trkpt><trkpt lat="-27.423343514288042" lon="115.69601267764507"><ele>270.5</ele><time>2026-04-15T05:06:46Z</time></trkpt><trkpt lat="-27.423534936818314" lon="115.69617432423085"><ele>271.0</ele><time>2026-04-15T05:06:47Z</time></trkpt><trkpt lat="-27.423726231319716" lon="115.69633749029168"><ele>270.0</ele><time>2026-04-15T05:06:48Z</time></trkpt><trkpt lat="-27.423921998506657" lon="115.69649821866147"><ele>269.0</ele><time>2026-04-15T05:06:49Z</time></trkpt><trkpt lat="-27.424115689322758" lon="115.69666065159045"><ele>269.0</ele><time>2026-04-15T05:06:50Z</time></trkpt><trkpt lat="-27.424311656286804" lon="115.69683057857411"><ele>269.0</ele><time>2026-04-15T05:06:51Z</time></trkpt><trkpt lat="-27.424523658994644" lon="115.69700875908083"><ele>269.0</ele><time>2026-04-15T05:06:52Z</time></trkpt><trkpt lat="-27.424727449731648" lon="115.69718141370187"><ele>269.0</ele><time>2026-04-15T05:06:53Z</time></trkpt><trkpt lat="-27.424937485649643" lon="115.6973566060145"><ele>269.0</ele><time>2026-04-15T05:06:54Z</time></trkpt><trkpt lat="-27.425150088911824" lon="115.6975320780356"><ele>269.0</ele><time>2026-04-15T05:06:55Z</time></trkpt><trkpt lat="-27.4253664007421" lon="115.69770949187614"><ele>269.0</ele><time>2026-04-15T05:06:56Z</time></trkpt><trkpt lat="-27.42558342843541" lon="115.69788643509544"><ele>269.0</ele><time>2026-04-15T05:06:57Z</time></trkpt><trkpt lat="-27.42579805171457" lon="115.69805927388727"><ele>269.0</ele><time>2026-04-15T05:06:58Z</time></trkpt><trkpt lat="-27.426013993873315" lon="115.69823341181129"><ele>269.0</ele><time>2026-04-15T05:06:59Z</time></trkpt><trkpt lat="-27.426439893515965" lon="115.69858977520987"><ele>268.5</ele><time>2026-04-15T05:07:01Z</time></trkpt><trkpt lat="-27.426652546170136" lon="115.69876987097423"><ele>268.0</ele><time>2026-04-15T05:07:02Z</time></trkpt><trkpt lat="-27.42686746328688" lon="115.69894770173566"><ele>268.0</ele><time>2026-04-15T05:07:03Z</time></trkpt><trkpt lat="-27.42708981296344" lon="115.69912898590388"><ele>268.0</ele><time>2026-04-15T05:07:04Z</time></trkpt><trkpt lat="-27.427312826135353" lon="115.69930829998836"><ele>268.5</ele><time>2026-04-15T05:07:05Z</time></trkpt><trkpt lat="-27.42753879692304" lon="115.69949444028741"><ele>269.0</ele><time>2026-04-15T05:07:06Z</time></trkpt><trkpt lat="-27.427757112408933" lon="115.69967871262867"><ele>269.0</ele><time>2026-04-15T05:07:07Z</time></trkpt><trkpt lat="-27.4279711790134" lon="115.69986521730071"><ele>269.0</ele><time>2026-04-15T05:07:08Z</time></trkpt><trkpt lat="-27.428184233836284" lon="115.70004510952002"><ele>268.5</ele><time>2026-04-15T05:07:09Z</time></trkpt><trkpt lat="-27.428393490250674" lon="115.70021958438348"><ele>268.0</ele><time>2026-04-15T05:07:10Z</time></trkpt><trkpt lat="-27.428604524809348" lon="115.7003909775523"><ele>267.5</ele><time>2026-04-15T05:07:11Z</time></trkpt><trkpt lat="-27.428811705990864" lon="115.70056613736439"><ele>267.0</ele><time>2026-04-15T05:07:12Z</time></trkpt><trkpt lat="-27.429018256492768" lon="115.70074288946083"><ele>267.0</ele><time>2026-04-15T05:07:13Z</time></trkpt><trkpt lat="-27.42922315201267" lon="115.70091795517531"><ele>267.0</ele><time>2026-04-15T05:07:14Z</time></trkpt><trkpt lat="-27.429426722059198" lon="115.7010887807069"><ele>268.0</ele><time>2026-04-15T05:07:15Z</time></trkpt><trkpt lat="-27.429630167467227" lon="115.70125801347305"><ele>269.0</ele><time>2026-04-15T05:07:16Z</time></trkpt><trkpt lat="-27.429828358789337" lon="115.70142107755943"><ele>269.0</ele><time>2026-04-15T05:07:17Z</time></trkpt><trkpt lat="-27.430026755110838" lon="115.70158757164312"><ele>269.0</ele><time>2026-04-15T05:07:18Z</time></trkpt><trkpt lat="-27.43022100876948" lon="115.70175445891584"><ele>269.5</ele><time>2026-04-15T05:07:19Z</time></trkpt><trkpt lat="-27.430412480960015" lon="115.70192306385408"><ele>270.0</ele><time>2026-04-15T05:07:20Z</time></trkpt><trkpt lat="-27.430810844440618" lon="115.70226288367469"><ele>270.0</ele><time>2026-04-15T05:07:22Z</time></trkpt><trkpt lat="-27.431014159191324" lon="115.70243641177842"><ele>270.0</ele><time>2026-04-15T05:07:23Z</time></trkpt><trkpt lat="-27.431219008253823" lon="115.7026065686603"><ele>268.0</ele><time>2026-04-15T05:07:24Z</time></trkpt><trkpt lat="-27.431424964718364" lon="115.7027748000424"><ele>266.0</ele><time>2026-04-15T05:07:25Z</time></trkpt><trkpt lat="-27.431632191921732" lon="115.70293956140269"><ele>266.0</ele><time>2026-04-15T05:07:26Z</time></trkpt><trkpt lat="-27.431836162935717" lon="115.70310242124694"><ele>266.0</ele><time>2026-04-15T05:07:27Z</time></trkpt><trkpt lat="-27.432036090461487" lon="115.70326746909876"><ele>266.0</ele><time>2026-04-15T05:07:28Z</time></trkpt><trkpt lat="-27.432233598076973" lon="115.70343480291815"><ele>266.0</ele><time>2026-04-15T05:07:29Z</time></trkpt><trkpt lat="-27.432428914123726" lon="115.70359954141743"><ele>266.0</ele><time>2026-04-15T05:07:30Z</time></trkpt><trkpt lat="-27.432625453792166" lon="115.70376127414609"><ele>266.0</ele><time>2026-04-15T05:07:31Z</time></trkpt><trkpt lat="-27.432827245153565" lon="115.70392881186851"><ele>266.5</ele><time>2026-04-15T05:07:32Z</time></trkpt><trkpt lat="-27.433033153638092" lon="115.70409980568657"><ele>267.0</ele><time>2026-04-15T05:07:33Z</time></trkpt><trkpt lat="-27.433243606242932" lon="115.70427568633636"><ele>267.5</ele><time>2026-04-15T05:07:34Z</time></trkpt><trkpt lat="-27.433461565257527" lon="115.70445309998397"><ele>268.0</ele><time>2026-04-15T05:07:35Z</time></trkpt><trkpt lat="-27.43368372904527" lon="115.70463443292769"><ele>268.0</ele><time>2026-04-15T05:07:36Z</time></trkpt><trkpt lat="-27.433905860152763" lon="115.7048159705384"><ele>268.0</ele><time>2026-04-15T05:07:37Z</time></trkpt><trkpt lat="-27.434134507818122" lon="115.70500094277621"><ele>268.0</ele><time>2026-04-15T05:07:38Z</time></trkpt><trkpt lat="-27.434363383991663" lon="115.70518694488128"><ele>268.0</ele><time>2026-04-15T05:07:39Z</time></trkpt><trkpt lat="-27.434587273776007" lon="115.70537323335562"><ele>267.0</ele><time>2026-04-15T05:07:40Z</time></trkpt><trkpt lat="-27.434792633319642" lon="115.70554526729421"><ele>266.0</ele><time>2026-04-15T05:07:41Z</time></trkpt><trkpt lat="-27.43520868986375" lon="115.7059055688608"><ele>266.0</ele><time>2026-04-15T05:07:43Z</time></trkpt><trkpt lat="-27.435427841716766" lon="115.70609171246879"><ele>266.0</ele><time>2026-04-15T05:07:44Z</time></trkpt><trkpt lat="-27.435650990260434" lon="115.70627730526597"><ele>266.5</ele><time>2026-04-15T05:07:45Z</time></trkpt><trkpt lat="-27.435874635493942" lon="115.70646174780006"><ele>267.0</ele><time>2026-04-15T05:07:46Z</time></trkpt><trkpt lat="-27.43609651957339" lon="115.70664618697568"><ele>266.5</ele><time>2026-04-15T05:07:47Z</time></trkpt><trkpt lat="-27.43631526187589" lon="115.70682978065916"><ele>266.0</ele><time>2026-04-15T05:07:48Z</time></trkpt><trkpt lat="-27.436539362929413" lon="115.70701411905883"><ele>266.0</ele><time>2026-04-15T05:07:49Z</time></trkpt><trkpt lat="-27.43676522182063" lon="115.7072035521416"><ele>266.0</ele><time>2026-04-15T05:07:50Z</time></trkpt><trkpt lat="-27.436987382145706" lon="115.70739154981604"><ele>266.5</ele><time>2026-04-15T05:07:51Z</time></trkpt><trkpt lat="-27.437212368935157" lon="115.7075833236819"><ele>267.0</ele><time>2026-04-15T05:07:52Z</time></trkpt><trkpt lat="-27.4374408008025" lon="115.70777782325817"><ele>267.5</ele><time>2026-04-15T05:07:53Z</time></trkpt><trkpt lat="-27.43766478908272" lon="115.70796850422326"><ele>268.0</ele><time>2026-04-15T05:07:54Z</time></trkpt><trkpt lat="-27.43788832945797" lon="115.70815481574947"><ele>268.0</ele><time>2026-04-15T05:07:55Z</time></trkpt><trkpt lat="-27.438111936777922" lon="115.70833760045959"><ele>268.0</ele><time>2026-04-15T05:07:56Z</time></trkpt><trkpt lat="-27.43833144229384" lon="115.70851843699208"><ele>267.5</ele><time>2026-04-15T05:07:57Z</time></trkpt><trkpt lat="-27.438555660531367" lon="115.70870119592175"><ele>267.0</ele><time>2026-04-15T05:07:58Z</time></trkpt><trkpt lat="-27.438776396904974" lon="115.70888169999355"><ele>266.5</ele><time>2026-04-15T05:07:59Z</time></trkpt><trkpt lat="-27.43899758369708" lon="115.70906130624604"><ele>266.0</ele><time>2026-04-15T05:08:00Z</time></trkpt><trkpt lat="-27.43921760256625" lon="115.70923829435564"><ele>265.5</ele><time>2026-04-15T05:08:01Z</time></trkpt><trkpt lat="-27.439434997709288" lon="115.7094115834487"><ele>265.0</ele><time>2026-04-15T05:08:02Z</time></trkpt><trkpt lat="-27.439858167785758" lon="115.70974820737216"><ele>266.0</ele><time>2026-04-15T05:08:04Z</time></trkpt><trkpt lat="-27.440063765438428" lon="115.70991338182772"><ele>267.0</ele><time>2026-04-15T05:08:05Z</time></trkpt><trkpt lat="-27.440255240158535" lon="115.71007251436214"><ele>267.0</ele><time>2026-04-15T05:08:06Z</time></trkpt><trkpt lat="-27.44044133943476" lon="115.71023145012994"><ele>267.0</ele><time>2026-04-15T05:08:07Z</time></trkpt><trkpt lat="-27.440643758077208" lon="115.7104023012973"><ele>266.0</ele><time>2026-04-15T05:08:08Z</time></trkpt><trkpt lat="-27.440852615360004" lon="115.71058117497634"><ele>265.0</ele><time>2026-04-15T05:08:09Z</time></trkpt><trkpt lat="-27.44106525230028" lon="115.71076287038684"><ele>265.0</ele><time>2026-04-15T05:08:10Z</time></trkpt><trkpt lat="-27.441285553205763" lon="115.71094972259107"><ele>265.0</ele><time>2026-04-15T05:08:11Z</time></trkpt><trkpt lat="-27.44150650351361" lon="115.71113716240049"><ele>264.5</ele><time>2026-04-15T05:08:12Z</time></trkpt><trkpt lat="-27.441733104100983" lon="115.71132389681433"><ele>264.0</ele><time>2026-04-15T05:08:13Z</time></trkpt><trkpt lat="-27.44196254020495" lon="115.7115109586969"><ele>265.0</ele><time>2026-04-15T05:08:14Z</time></trkpt><trkpt lat="-27.442193367223478" lon="115.71169661123398"><ele>266.0</ele><time>2026-04-15T05:08:15Z</time></trkpt><trkpt lat="-27.442421754715877" lon="115.71188372976226"><ele>265.5</ele><time>2026-04-15T05:08:16Z</time></trkpt><trkpt lat="-27.442645940480674" lon="115.71207407421619"><ele>265.0</ele><time>2026-04-15T05:08:17Z</time></trkpt><trkpt lat="-27.442873085816352" lon="115.71226928647509"><ele>264.5</ele><time>2026-04-15T05:08:18Z</time></trkpt><trkpt lat="-27.443101060941782" lon="115.71246262799703"><ele>264.0</ele><time>2026-04-15T05:08:19Z</time></trkpt><trkpt lat="-27.44333533281428" lon="115.71265914227176"><ele>264.5</ele><time>2026-04-15T05:08:20Z</time></trkpt><trkpt lat="-27.443570326383227" lon="115.71285360634381"><ele>265.0</ele><time>2026-04-15T05:08:21Z</time></trkpt><trkpt lat="-27.443809100750645" lon="115.71305098613955"><ele>265.0</ele><time>2026-04-15T05:08:22Z</time></trkpt><trkpt lat="-27.444052292429273" lon="115.7132523625734"><ele>265.0</ele><time>2026-04-15T05:08:23Z</time></trkpt><trkpt lat="-27.44454079861307" lon="115.71365972923394"><ele>265.5</ele><time>2026-04-15T05:08:25Z</time></trkpt><trkpt lat="-27.444780831686767" lon="115.71385880362746"><ele>266.0</ele><time>2026-04-15T05:08:26Z</time></trkpt><trkpt lat="-27.445022120028582" lon="115.71406020581212"><ele>266.0</ele><time>2026-04-15T05:08:27Z</time></trkpt><trkpt lat="-27.445262003016452" lon="115.71426267566616"><ele>266.0</ele><time>2026-04-15T05:08:28Z</time></trkpt><trkpt lat="-27.445500885729427" lon="115.71446382377543"><ele>265.5</ele><time>2026-04-15T05:08:29Z</time></trkpt><trkpt lat="-27.44574331022111" lon="115.7146686714505"><ele>265.0</ele><time>2026-04-15T05:08:30Z</time></trkpt><trkpt lat="-27.4459928820626" lon="115.71487890535583"><ele>265.0</ele><time>2026-04-15T05:08:31Z</time></trkpt><trkpt lat="-27.446243899370312" lon="115.71508736453148"><ele>265.0</ele><time>2026-04-15T05:08:32Z</time></trkpt><trkpt lat="-27.44649412342772" lon="115.7152951496325"><ele>265.5</ele><time>2026-04-15T05:08:33Z</time></trkpt><trkpt lat="-27.44674562196772" lon="115.71550152093455"><ele>266.0</ele><time>2026-04-15T05:08:34Z</time></trkpt><trkpt lat="-27.44700190195056" lon="115.7157104318227"><ele>266.0</ele><time>2026-04-15T05:08:35Z</time></trkpt><trkpt lat="-27.447257088239155" lon="115.71592311151986"><ele>266.0</ele><time>2026-04-15T05:08:36Z</time></trkpt><trkpt lat="-27.447517521338987" lon="115.7161363189978"><ele>266.0</ele><time>2026-04-15T05:08:37Z</time></trkpt><trkpt lat="-27.44778171317095" lon="115.71634969923706"><ele>266.0</ele><time>2026-04-15T05:08:38Z</time></trkpt><trkpt lat="-27.44804179688958" lon="115.71656141891309"><ele>266.0</ele><time>2026-04-15T05:08:39Z</time></trkpt><trkpt lat="-27.44829392152111" lon="115.71677132618139"><ele>266.0</ele><time>2026-04-15T05:08:40Z</time></trkpt><trkpt lat="-27.448542344634298" lon="115.71698339583736"><ele>266.0</ele><time>2026-04-15T05:08:41Z</time></trkpt><trkpt lat="-27.44879043990169" lon="115.71719641164758"><ele>266.0</ele><time>2026-04-15T05:08:42Z</time></trkpt><trkpt lat="-27.449038240627182" lon="115.71740519537582"><ele>265.5</ele><time>2026-04-15T05:08:43Z</time></trkpt><trkpt lat="-27.449282129040427" lon="115.7176096536552"><ele>265.0</ele><time>2026-04-15T05:08:44Z</time></trkpt><trkpt lat="-27.449762730867533" lon="115.71800924189496"><ele>266.0</ele><time>2026-04-15T05:08:46Z</time></trkpt><trkpt lat="-27.45000367106911" lon="115.7182082039225"><ele>267.0</ele><time>2026-04-15T05:08:47Z</time></trkpt><trkpt lat="-27.45024431473438" lon="115.71840639731124"><ele>266.5</ele><time>2026-04-15T05:08:48Z</time></trkpt><trkpt lat="-27.450482906785403" lon="115.7186038683529"><ele>266.0</ele><time>2026-04-15T05:08:49Z</time></trkpt><trkpt lat="-27.450723996787264" lon="115.71880380410852"><ele>266.0</ele><time>2026-04-15T05:08:50Z</time></trkpt><trkpt lat="-27.45096459216281" lon="115.71900165380421"><ele>266.0</ele><time>2026-04-15T05:08:51Z</time></trkpt><trkpt lat="-27.451206516055834" lon="115.71920105028138"><ele>266.0</ele><time>2026-04-15T05:08:52Z</time></trkpt><trkpt lat="-27.451448468068918" lon="115.7194000142469"><ele>266.0</ele><time>2026-04-15T05:08:53Z</time></trkpt><trkpt lat="-27.45168780394101" lon="115.71959851349864"><ele>266.0</ele><time>2026-04-15T05:08:54Z</time></trkpt><trkpt lat="-27.451928951854402" lon="115.71979882896885"><ele>266.0</ele><time>2026-04-15T05:08:55Z</time></trkpt><trkpt lat="-27.452164061750093" lon="115.71999027409557"><ele>266.0</ele><time>2026-04-15T05:08:56Z</time></trkpt><trkpt lat="-27.452399580370223" lon="115.72018405574964"><ele>266.0</ele><time>2026-04-15T05:08:57Z</time></trkpt><trkpt lat="-27.45263330188578" lon="115.72037753131606"><ele>266.5</ele><time>2026-04-15T05:08:58Z</time></trkpt><trkpt lat="-27.45286500943209" lon="115.72057410051292"><ele>267.0</ele><time>2026-04-15T05:08:59Z</time></trkpt><trkpt lat="-27.453085766968137" lon="115.72076464410283"><ele>266.0</ele><time>2026-04-15T05:09:00Z</time></trkpt><trkpt lat="-27.453297215890025" lon="115.7209510715638"><ele>265.0</ele><time>2026-04-15T05:09:01Z</time></trkpt><trkpt lat="-27.453506272109344" lon="115.72112995362941"><ele>265.0</ele><time>2026-04-15T05:09:02Z</time></trkpt><trkpt lat="-27.453716182998942" lon="115.72130585329289"><ele>265.0</ele><time>2026-04-15T05:09:03Z</time></trkpt><trkpt lat="-27.453926541347876" lon="115.72147487322691"><ele>265.0</ele><time>2026-04-15T05:09:04Z</time></trkpt><trkpt lat="-27.454142977140517" lon="115.72165114012526"><ele>265.0</ele><time>2026-04-15T05:09:05Z</time></trkpt><trkpt lat="-27.45458114929234" lon="115.72201212413971"><ele>266.0</ele><time>2026-04-15T05:09:07Z</time></trkpt><trkpt lat="-27.4548003773718" lon="115.7221979719718"><ele>267.0</ele><time>2026-04-15T05:09:08Z</time></trkpt><trkpt lat="-27.45502219380144" lon="115.72238528418156"><ele>267.0</ele><time>2026-04-15T05:09:09Z</time></trkpt><trkpt lat="-27.455245427458266" lon="115.72257314801047"><ele>267.0</ele><time>2026-04-15T05:09:10Z</time></trkpt><trkpt lat="-27.45546754977174" lon="115.72275748634775"><ele>267.0</ele><time>2026-04-15T05:09:11Z</time></trkpt><trkpt lat="-27.455696863008928" lon="115.72294384228081"><ele>267.0</ele><time>2026-04-15T05:09:12Z</time></trkpt><trkpt lat="-27.45593718082611" lon="115.72313741981384"><ele>267.0</ele><time>2026-04-15T05:09:13Z</time></trkpt><trkpt lat="-27.456183114885658" lon="115.72333605736142"><ele>267.0</ele><time>2026-04-15T05:09:14Z</time></trkpt><trkpt lat="-27.45642705463159" lon="115.72353253723665"><ele>268.0</ele><time>2026-04-15T05:09:15Z</time></trkpt><trkpt lat="-27.456669592499594" lon="115.72372808178149"><ele>269.0</ele><time>2026-04-15T05:09:16Z</time></trkpt><trkpt lat="-27.456912264931347" lon="115.72392077718081"><ele>268.0</ele><time>2026-04-15T05:09:17Z</time></trkpt><trkpt lat="-27.457151679189767" lon="115.72411316169361"><ele>267.0</ele><time>2026-04-15T05:09:18Z</time></trkpt><trkpt lat="-27.457391236680262" lon="115.72430352544086"><ele>267.0</ele><time>2026-04-15T05:09:19Z</time></trkpt><trkpt lat="-27.457629853011337" lon="115.72449881074678"><ele>267.0</ele><time>2026-04-15T05:09:20Z</time></trkpt><trkpt lat="-27.457869165082286" lon="115.72469567664008"><ele>267.0</ele><time>2026-04-15T05:09:21Z</time></trkpt><trkpt lat="-27.4581084647238" lon="115.72489626737394"><ele>267.0</ele><time>2026-04-15T05:09:22Z</time></trkpt><trkpt lat="-27.458352827786033" lon="115.72509717561276"><ele>268.0</ele><time>2026-04-15T05:09:23Z</time></trkpt><trkpt lat="-27.458593118482128" lon="115.72529830555322"><ele>269.0</ele><time>2026-04-15T05:09:24Z</time></trkpt><trkpt lat="-27.458832488864672" lon="115.72549711578523"><ele>269.0</ele><time>2026-04-15T05:09:25Z</time></trkpt><trkpt lat="-27.45906380984538" lon="115.72569622608256"><ele>269.0</ele><time>2026-04-15T05:09:26Z</time></trkpt><trkpt lat="-27.459524602187567" lon="115.72609002455489"><ele>268.5</ele><time>2026-04-15T05:09:28Z</time></trkpt><trkpt lat="-27.45975375237475" lon="115.72628543920098"><ele>268.0</ele><time>2026-04-15T05:09:29Z</time></trkpt><trkpt lat="-27.459982534469937" lon="115.72647928089329"><ele>268.0</ele><time>2026-04-15T05:09:30Z</time></trkpt><trkpt lat="-27.46020650814533" lon="115.72667171858228"><ele>268.0</ele><time>2026-04-15T05:09:31Z</time></trkpt><trkpt lat="-27.460435613235937" lon="115.72687297940405"><ele>266.5</ele><time>2026-04-15T05:09:32Z</time></trkpt><trkpt lat="-27.460658949587142" lon="115.72706909376338"><ele>265.0</ele><time>2026-04-15T05:09:33Z</time></trkpt><trkpt lat="-27.460882626425438" lon="115.72725940010669"><ele>265.0</ele><time>2026-04-15T05:09:34Z</time></trkpt><trkpt lat="-27.46110535515708" lon="115.7274473842918"><ele>265.0</ele><time>2026-04-15T05:09:35Z</time></trkpt><trkpt lat="-27.461329009692918" lon="115.72763379353906"><ele>264.0</ele><time>2026-04-15T05:09:36Z</time></trkpt><trkpt lat="-27.461550654400533" lon="115.72782179682736"><ele>263.0</ele><time>2026-04-15T05:09:37Z</time></trkpt><trkpt lat="-27.461770238762824" lon="115.7280082381572"><ele>263.0</ele><time>2026-04-15T05:09:38Z</time></trkpt><trkpt lat="-27.46199179982989" lon="115.72819433355507"><ele>263.0</ele><time>2026-04-15T05:09:39Z</time></trkpt><trkpt lat="-27.462216054013222" lon="115.72838015316769"><ele>263.0</ele><time>2026-04-15T05:09:40Z</time></trkpt><trkpt lat="-27.4624423830867" lon="115.7285666162434"><ele>263.0</ele><time>2026-04-15T05:09:41Z</time></trkpt><trkpt lat="-27.462671169747285" lon="115.72875264967846"><ele>263.0</ele><time>2026-04-15T05:09:42Z</time></trkpt><trkpt lat="-27.462903675612946" lon="115.72894207900629"><ele>263.0</ele><time>2026-04-15T05:09:43Z</time></trkpt><trkpt lat="-27.463135930094918" lon="115.72913359010504"><ele>263.0</ele><time>2026-04-15T05:09:44Z</time></trkpt><trkpt lat="-27.46336636944641" lon="115.72932343245085"><ele>263.0</ele><time>2026-04-15T05:09:45Z</time></trkpt><trkpt lat="-27.46359642373781" lon="115.72951287017763"><ele>264.5</ele><time>2026-04-15T05:09:46Z</time></trkpt><trkpt lat="-27.46382515410193" lon="115.72970093200169"><ele>266.0</ele><time>2026-04-15T05:09:47Z</time></trkpt><trkpt lat="-27.464268765023746" lon="115.7300685009686"><ele>264.0</ele><time>2026-04-15T05:09:49Z</time></trkpt><trkpt lat="-27.464489463180787" lon="115.73025099319364"><ele>262.0</ele><time>2026-04-15T05:09:50Z</time></trkpt><trkpt lat="-27.46471206957151" lon="115.73043298203133"><ele>262.0</ele><time>2026-04-15T05:09:51Z</time></trkpt><trkpt lat="-27.4649382738306" lon="115.73061719929721"><ele>262.0</ele><time>2026-04-15T05:09:52Z</time></trkpt><trkpt lat="-27.46516512785005" lon="115.73080226708262"><ele>262.0</ele><time>2026-04-15T05:09:53Z</time></trkpt><trkpt lat="-27.46539721940079" lon="115.73099219089298"><ele>262.0</ele><time>2026-04-15T05:09:54Z</time></trkpt><trkpt lat="-27.465624767864934" lon="115.73117760548446"><ele>262.5</ele><time>2026-04-15T05:09:55Z</time></trkpt><trkpt lat="-27.465849644180782" lon="115.73136316869265"><ele>263.0</ele><time>2026-04-15T05:09:56Z</time></trkpt><trkpt lat="-27.46607505584778" lon="115.73154946056064"><ele>262.0</ele><time>2026-04-15T05:09:57Z</time></trkpt><trkpt lat="-27.466303480119937" lon="115.73173698858962"><ele>261.0</ele><time>2026-04-15T05:09:58Z</time></trkpt><trkpt lat="-27.466532711382165" lon="115.7319245421388"><ele>261.0</ele><time>2026-04-15T05:09:59Z</time></trkpt><trkpt lat="-27.466762430611016" lon="115.7321124184157"><ele>261.0</ele><time>2026-04-15T05:10:00Z</time></trkpt><trkpt lat="-27.466986870601286" lon="115.73229841013523"><ele>261.5</ele><time>2026-04-15T05:10:01Z</time></trkpt><trkpt lat="-27.467211994513804" lon="115.73248665595035"><ele>262.0</ele><time>2026-04-15T05:10:02Z</time></trkpt><trkpt lat="-27.467432688965555" lon="115.73267400221864"><ele>261.0</ele><time>2026-04-15T05:10:03Z</time></trkpt><trkpt lat="-27.46765614913925" lon="115.73286022684303"><ele>260.0</ele><time>2026-04-15T05:10:04Z</time></trkpt><trkpt lat="-27.467879722192194" lon="115.73304598819387"><ele>260.0</ele><time>2026-04-15T05:10:05Z</time></trkpt><trkpt lat="-27.468105431219342" lon="115.73323213211226"><ele>260.0</ele><time>2026-04-15T05:10:06Z</time></trkpt><trkpt lat="-27.468330583053834" lon="115.73342205751563"><ele>260.5</ele><time>2026-04-15T05:10:07Z</time></trkpt><trkpt lat="-27.468556061904856" lon="115.73361473482402"><ele>261.0</ele><time>2026-04-15T05:10:08Z</time></trkpt><trkpt lat="-27.46900316089827" lon="115.73399933166917"><ele>261.0</ele><time>2026-04-15T05:10:10Z</time></trkpt><trkpt lat="-27.469226054936815" lon="115.7341895072555"><ele>261.0</ele><time>2026-04-15T05:10:11Z</time></trkpt><trkpt lat="-27.469451096644175" lon="115.73437958544413"><ele>260.5</ele><time>2026-04-15T05:10:12Z</time></trkpt><trkpt lat="-27.469677689976375" lon="115.7345693967168"><ele>260.0</ele><time>2026-04-15T05:10:13Z</time></trkpt><trkpt lat="-27.469903022776382" lon="115.7347547196452"><ele>260.0</ele><time>2026-04-15T05:10:14Z</time></trkpt><trkpt lat="-27.47012741610427" lon="115.73493464810231"><ele>260.0</ele><time>2026-04-15T05:10:15Z</time></trkpt><trkpt lat="-27.470348614272204" lon="115.73511364809103"><ele>261.5</ele><time>2026-04-15T05:10:16Z</time></trkpt><trkpt lat="-27.47056924974435" lon="115.73529226775837"><ele>263.0</ele><time>2026-04-15T05:10:17Z</time></trkpt><trkpt lat="-27.47079120030795" lon="115.7354731478683"><ele>263.0</ele><time>2026-04-15T05:10:18Z</time></trkpt><trkpt lat="-27.471011412329002" lon="115.7356580361354"><ele>263.0</ele><time>2026-04-15T05:10:19Z</time></trkpt><trkpt lat="-27.471236405357377" lon="115.73585133307566"><ele>262.0</ele><time>2026-04-15T05:10:20Z</time></trkpt><trkpt lat="-27.471462358372428" lon="115.73604674476304"><ele>261.0</ele><time>2026-04-15T05:10:21Z</time></trkpt><trkpt lat="-27.471691373040183" lon="115.73624073001035"><ele>261.0</ele><time>2026-04-15T05:10:22Z</time></trkpt><trkpt lat="-27.471921280135636" lon="115.73643005179127"><ele>261.0</ele><time>2026-04-15T05:10:23Z</time></trkpt><trkpt lat="-27.472148072770473" lon="115.7366186434163"><ele>261.0</ele><time>2026-04-15T05:10:24Z</time></trkpt><trkpt lat="-27.472375198901332" lon="115.7368071107937"><ele>261.0</ele><time>2026-04-15T05:10:25Z</time></trkpt><trkpt lat="-27.472601185940817" lon="115.7369946553657"><ele>261.0</ele><time>2026-04-15T05:10:26Z</time></trkpt><trkpt lat="-27.47282607468491" lon="115.73718285849289"><ele>261.0</ele><time>2026-04-15T05:10:27Z</time></trkpt><trkpt lat="-27.47304930361851" lon="115.7373713970813"><ele>262.0</ele><time>2026-04-15T05:10:28Z</time></trkpt><trkpt lat="-27.47327335660914" lon="115.73756089895666"><ele>263.0</ele><time>2026-04-15T05:10:29Z</time></trkpt><trkpt lat="-27.473721640506326" lon="115.73793505141641"><ele>263.0</ele><time>2026-04-15T05:10:31Z</time></trkpt><trkpt lat="-27.473945212496155" lon="115.73812148627948"><ele>263.0</ele><time>2026-04-15T05:10:32Z</time></trkpt><trkpt lat="-27.474170779810017" lon="115.73830710941904"><ele>263.0</ele><time>2026-04-15T05:10:33Z</time></trkpt><trkpt lat="-27.474398054373058" lon="115.73849514467138"><ele>263.0</ele><time>2026-04-15T05:10:34Z</time></trkpt><trkpt lat="-27.474624049472624" lon="115.73868249312872"><ele>264.0</ele><time>2026-04-15T05:10:35Z</time></trkpt><trkpt lat="-27.474850919241273" lon="115.73887343721952"><ele>265.0</ele><time>2026-04-15T05:10:36Z</time></trkpt><trkpt lat="-27.475077509812266" lon="115.73906376252907"><ele>265.0</ele><time>2026-04-15T05:10:37Z</time></trkpt><trkpt lat="-27.475306227920886" lon="115.73924990567794"><ele>265.0</ele><time>2026-04-15T05:10:38Z</time></trkpt><trkpt lat="-27.475532752887926" lon="115.73943432132964"><ele>264.5</ele><time>2026-04-15T05:10:39Z</time></trkpt><trkpt lat="-27.47575667070766" lon="115.73961679190622"><ele>264.0</ele><time>2026-04-15T05:10:40Z</time></trkpt><trkpt lat="-27.47597886033347" lon="115.73979880154754"><ele>264.0</ele><time>2026-04-15T05:10:41Z</time></trkpt><trkpt lat="-27.476200260473956" lon="115.73997929243627"><ele>264.0</ele><time>2026-04-15T05:10:42Z</time></trkpt><trkpt lat="-27.47642078291563" lon="115.74015844584756"><ele>263.5</ele><time>2026-04-15T05:10:43Z</time></trkpt><trkpt lat="-27.476639792085265" lon="115.74033767738605"><ele>263.0</ele><time>2026-04-15T05:10:44Z</time></trkpt><trkpt lat="-27.476853429496288" lon="115.74051896704306"><ele>263.0</ele><time>2026-04-15T05:10:45Z</time></trkpt><trkpt lat="-27.47707101468247" lon="115.7407044597043"><ele>263.0</ele><time>2026-04-15T05:10:46Z</time></trkpt><trkpt lat="-27.47729060018746" lon="115.74088912752269"><ele>265.5</ele><time>2026-04-15T05:10:47Z</time></trkpt><trkpt lat="-27.477506368000878" lon="115.74106813598726"><ele>268.0</ele><time>2026-04-15T05:10:48Z</time></trkpt><trkpt lat="-27.47771999861018" lon="115.7412454120769"><ele>266.0</ele><time>2026-04-15T05:10:49Z</time></trkpt><trkpt lat="-27.477937736018877" lon="115.74142211021986"><ele>264.0</ele><time>2026-04-15T05:10:50Z</time></trkpt><trkpt lat="-27.478359128689966" lon="115.74177879246389"><ele>265.0</ele><time>2026-04-15T05:10:52Z</time></trkpt><trkpt lat="-27.47856543148158" lon="115.74196047331729"><ele>266.0</ele><time>2026-04-15T05:10:53Z</time></trkpt><trkpt lat="-27.478767561693864" lon="115.7421334633786"><ele>266.5</ele><time>2026-04-15T05:10:54Z</time></trkpt><trkpt lat="-27.47897130399178" lon="115.7423049726126"><ele>267.0</ele><time>2026-04-15T05:10:55Z</time></trkpt><trkpt lat="-27.479171363541465" lon="115.742474596449"><ele>267.0</ele><time>2026-04-15T05:10:56Z</time></trkpt><trkpt lat="-27.47935812694144" lon="115.74263665380599"><ele>267.0</ele><time>2026-04-15T05:10:57Z</time></trkpt><trkpt lat="-27.479535141633534" lon="115.74278762313341"><ele>267.0</ele><time>2026-04-15T05:10:58Z</time></trkpt><trkpt lat="-27.47971501777759" lon="115.74293909671412"><ele>267.0</ele><time>2026-04-15T05:10:59Z</time></trkpt><trkpt lat="-27.479901293685472" lon="115.74309400901069"><ele>267.0</ele><time>2026-04-15T05:11:00Z</time></trkpt><trkpt lat="-27.480096285062043" lon="115.74325494400406"><ele>267.0</ele><time>2026-04-15T05:11:01Z</time></trkpt><trkpt lat="-27.4803002337387" lon="115.74342179145611"><ele>268.5</ele><time>2026-04-15T05:11:02Z</time></trkpt><trkpt lat="-27.480506300551383" lon="115.74359658042026"><ele>270.0</ele><time>2026-04-15T05:11:03Z</time></trkpt><trkpt lat="-27.480712593284675" lon="115.74377091523344"><ele>270.0</ele><time>2026-04-15T05:11:04Z</time></trkpt><trkpt lat="-27.480923713892164" lon="115.74394873483061"><ele>270.0</ele><time>2026-04-15T05:11:05Z</time></trkpt><trkpt lat="-27.481139338758997" lon="115.74412825123022"><ele>269.5</ele><time>2026-04-15T05:11:06Z</time></trkpt><trkpt lat="-27.48135575650937" lon="115.74430547874944"><ele>269.0</ele><time>2026-04-15T05:11:07Z</time></trkpt><trkpt lat="-27.48156688161002" lon="115.7444754766919"><ele>268.5</ele><time>2026-04-15T05:11:08Z</time></trkpt><trkpt lat="-27.481778693144847" lon="115.74464671179585"><ele>268.0</ele><time>2026-04-15T05:11:09Z</time></trkpt><trkpt lat="-27.481990302243492" lon="115.74482125523986"><ele>268.0</ele><time>2026-04-15T05:11:10Z</time></trkpt><trkpt lat="-27.48220282652961" lon="115.74499822309677"><ele>268.0</ele><time>2026-04-15T05:11:11Z</time></trkpt><trkpt lat="-27.482630761652807" lon="115.74535993181273"><ele>268.5</ele><time>2026-04-15T05:11:13Z</time></trkpt><trkpt lat="-27.482845376540144" lon="115.7455434608157"><ele>269.0</ele><time>2026-04-15T05:11:14Z</time></trkpt><trkpt lat="-27.48305972236371" lon="115.74572664654276"><ele>267.0</ele><time>2026-04-15T05:11:15Z</time></trkpt><trkpt lat="-27.48327741128362" lon="115.74590968492241"><ele>265.0</ele><time>2026-04-15T05:11:16Z</time></trkpt><trkpt lat="-27.48349280628828" lon="115.74608699504248"><ele>265.0</ele><time>2026-04-15T05:11:17Z</time></trkpt><trkpt lat="-27.48371547361266" lon="115.74626944031765"><ele>265.0</ele><time>2026-04-15T05:11:18Z</time></trkpt><trkpt lat="-27.483936162894484" lon="115.74645212175933"><ele>264.0</ele><time>2026-04-15T05:11:19Z</time></trkpt><trkpt lat="-27.484159621535284" lon="115.74663645262487"><ele>263.0</ele><time>2026-04-15T05:11:20Z</time></trkpt><trkpt lat="-27.48438693370307" lon="115.74682140393719"><ele>263.0</ele><time>2026-04-15T05:11:21Z</time></trkpt><trkpt lat="-27.48461165845058" lon="115.74700706322301"><ele>263.0</ele><time>2026-04-15T05:11:22Z</time></trkpt><trkpt lat="-27.484832363901447" lon="115.74718989246169"><ele>263.0</ele><time>2026-04-15T05:11:23Z</time></trkpt><trkpt lat="-27.485054410884693" lon="115.74737163420124"><ele>263.0</ele><time>2026-04-15T05:11:24Z</time></trkpt><trkpt lat="-27.485279837518092" lon="115.74755563902062"><ele>262.5</ele><time>2026-04-15T05:11:25Z</time></trkpt><trkpt lat="-27.485498642983355" lon="115.74773649248777"><ele>262.0</ele><time>2026-04-15T05:11:26Z</time></trkpt><trkpt lat="-27.48572217884349" lon="115.74792152412371"><ele>262.0</ele><time>2026-04-15T05:11:27Z</time></trkpt><trkpt lat="-27.485937736917204" lon="115.7481034583688"><ele>262.0</ele><time>2026-04-15T05:11:28Z</time></trkpt><trkpt lat="-27.486141432861757" lon="115.74827084939878"><ele>262.0</ele><time>2026-04-15T05:11:29Z</time></trkpt><trkpt lat="-27.48634808819809" lon="115.7484426624284"><ele>262.0</ele><time>2026-04-15T05:11:30Z</time></trkpt><trkpt lat="-27.486547337241817" lon="115.74860321230632"><ele>262.0</ele><time>2026-04-15T05:11:31Z</time></trkpt><trkpt lat="-27.48673746688096" lon="115.7487548160475"><ele>262.0</ele><time>2026-04-15T05:11:32Z</time></trkpt><trkpt lat="-27.48712241085387" lon="115.7490685057491"><ele>261.5</ele><time>2026-04-15T05:11:34Z</time></trkpt><trkpt lat="-27.487313682620474" lon="115.74923000027125"><ele>261.0</ele><time>2026-04-15T05:11:35Z</time></trkpt><trkpt lat="-27.4875078844527" lon="115.7493953399797"><ele>262.0</ele><time>2026-04-15T05:11:36Z</time></trkpt><trkpt lat="-27.48770971773331" lon="115.74956697766599"><ele>263.0</ele><time>2026-04-15T05:11:37Z</time></trkpt><trkpt lat="-27.487920172255834" lon="115.74974064372138"><ele>262.5</ele><time>2026-04-15T05:11:38Z</time></trkpt><trkpt lat="-27.488127912428574" lon="115.7499142774394"><ele>262.0</ele><time>2026-04-15T05:11:39Z</time></trkpt><trkpt lat="-27.488337969592045" lon="115.75009313483777"><ele>261.5</ele><time>2026-04-15T05:11:40Z</time></trkpt><trkpt lat="-27.48855068679239" lon="115.75027439752294"><ele>261.0</ele><time>2026-04-15T05:11:41Z</time></trkpt><trkpt lat="-27.488767854699876" lon="115.75046035282062"><ele>260.5</ele><time>2026-04-15T05:11:42Z</time></trkpt><trkpt lat="-27.48898709561792" lon="115.75064815066241"><ele>260.0</ele><time>2026-04-15T05:11:43Z</time></trkpt><trkpt lat="-27.48920597591008" lon="115.75083556017377"><ele>260.0</ele><time>2026-04-15T05:11:44Z</time></trkpt><trkpt lat="-27.48942460747683" lon="115.75102387783599"><ele>260.0</ele><time>2026-04-15T05:11:45Z</time></trkpt><trkpt lat="-27.489643308503837" lon="115.75120976481892"><ele>260.0</ele><time>2026-04-15T05:11:46Z</time></trkpt><trkpt lat="-27.489865429166404" lon="115.75139282972759"><ele>260.0</ele><time>2026-04-15T05:11:47Z</time></trkpt><trkpt lat="-27.49008808952145" lon="115.7515754323892"><ele>260.0</ele><time>2026-04-15T05:11:48Z</time></trkpt><trkpt lat="-27.49031420097869" lon="115.75176176356787"><ele>260.0</ele><time>2026-04-15T05:11:49Z</time></trkpt><trkpt lat="-27.49054213329342" lon="115.75195248860626"><ele>259.5</ele><time>2026-04-15T05:11:50Z</time></trkpt><trkpt lat="-27.490769250221145" lon="115.75213967616713"><ele>259.0</ele><time>2026-04-15T05:11:51Z</time></trkpt><trkpt lat="-27.490991797238685" lon="115.75232307443827"><ele>259.0</ele><time>2026-04-15T05:11:52Z</time></trkpt><trkpt lat="-27.491205264667258" lon="115.75250248087424"><ele>259.0</ele><time>2026-04-15T05:11:53Z</time></trkpt><trkpt lat="-27.491599780654223" lon="115.75283067600265"><ele>259.5</ele><time>2026-04-15T05:11:55Z</time></trkpt><trkpt lat="-27.491791465040805" lon="115.75298758435429"><ele>260.0</ele><time>2026-04-15T05:11:56Z</time></trkpt><trkpt lat="-27.491985471171628" lon="115.75314605558704"><ele>258.5</ele><time>2026-04-15T05:11:57Z</time></trkpt><trkpt lat="-27.492183788896707" lon="115.753306605677"><ele>257.0</ele><time>2026-04-15T05:11:58Z</time></trkpt><trkpt lat="-27.492385506563117" lon="115.75347294266204"><ele>258.5</ele><time>2026-04-15T05:11:59Z</time></trkpt><trkpt lat="-27.492589171611154" lon="115.75364155359304"><ele>260.0</ele><time>2026-04-15T05:12:00Z</time></trkpt><trkpt lat="-27.492783036741272" lon="115.75380485108911"><ele>259.33333333333337</ele><time>2026-04-15T05:12:01Z</time></trkpt><trkpt lat="-27.492964631379778" lon="115.75395852672075"><ele>258.6666666666667</ele><time>2026-04-15T05:12:02Z</time></trkpt><trkpt lat="-27.49313738131354" lon="115.75410410459658"><ele>258.0</ele><time>2026-04-15T05:12:03Z</time></trkpt><trkpt lat="-27.493312668086062" lon="115.75424920786554"><ele>258.0</ele><time>2026-04-15T05:12:04Z</time></trkpt><trkpt lat="-27.49348253634617" lon="115.75438751111635"><ele>258.0</ele><time>2026-04-15T05:12:05Z</time></trkpt><trkpt lat="-27.49364396052607" lon="115.75452300302248"><ele>258.0</ele><time>2026-04-15T05:12:06Z</time></trkpt><trkpt lat="-27.493801075355048" lon="115.7546670853278"><ele>258.0</ele><time>2026-04-15T05:12:07Z</time></trkpt><trkpt lat="-27.49395501553319" lon="115.75483474354196"><ele>258.0</ele><time>2026-04-15T05:12:08Z</time></trkpt><trkpt lat="-27.49410476075655" lon="115.75502595847635"><ele>258.0</ele><time>2026-04-15T05:12:09Z</time></trkpt><trkpt lat="-27.49424028578997" lon="115.75523287291225"><ele>259.0</ele><time>2026-04-15T05:12:10Z</time></trkpt><trkpt lat="-27.494360983891205" lon="115.75546288439216"><ele>260.0</ele><time>2026-04-15T05:12:11Z</time></trkpt><trkpt lat="-27.494466149696418" lon="115.75570572773474"><ele>260.0</ele><time>2026-04-15T05:12:12Z</time></trkpt><trkpt lat="-27.494551164276803" lon="115.75595802317517"><ele>260.0</ele><time>2026-04-15T05:12:13Z</time></trkpt><trkpt lat="-27.494621923537395" lon="115.75622589044863"><ele>259.0</ele><time>2026-04-15T05:12:14Z</time></trkpt><trkpt lat="-27.494718988303234" lon="115.75680597357709"><ele>258.5</ele><time>2026-04-15T05:12:16Z</time></trkpt><trkpt lat="-27.494745527840596" lon="115.75710127018017"><ele>258.0</ele><time>2026-04-15T05:12:17Z</time></trkpt><trkpt lat="-27.494769454684373" lon="115.75740520616198"><ele>258.0</ele><time>2026-04-15T05:12:18Z</time></trkpt><trkpt lat="-27.49479499295285" lon="115.75771480884396"><ele>258.0</ele><time>2026-04-15T05:12:19Z</time></trkpt><trkpt lat="-27.494822385402667" lon="115.75802302598724"><ele>258.0</ele><time>2026-04-15T05:12:20Z</time></trkpt><trkpt lat="-27.494849026099445" lon="115.75833268847788"><ele>258.0</ele><time>2026-04-15T05:12:21Z</time></trkpt><trkpt lat="-27.494875272375214" lon="115.75864020467884"><ele>258.0</ele><time>2026-04-15T05:12:22Z</time></trkpt><trkpt lat="-27.494902350696744" lon="115.7589490980533"><ele>258.0</ele><time>2026-04-15T05:12:23Z</time></trkpt><trkpt lat="-27.494929206333932" lon="115.75926011081529"><ele>258.5</ele><time>2026-04-15T05:12:24Z</time></trkpt><trkpt lat="-27.49495667726584" lon="115.75957358352872"><ele>259.0</ele><time>2026-04-15T05:12:25Z</time></trkpt><trkpt lat="-27.494985201036094" lon="115.75988649944037"><ele>258.0</ele><time>2026-04-15T05:12:26Z</time></trkpt><trkpt lat="-27.49501308747246" lon="115.760203002889"><ele>257.0</ele><time>2026-04-15T05:12:27Z</time></trkpt><trkpt lat="-27.49504084602665" lon="115.76052246962165"><ele>257.0</ele><time>2026-04-15T05:12:28Z</time></trkpt><trkpt lat="-27.495068460256835" lon="115.76084680521677"><ele>257.0</ele><time>2026-04-15T05:12:29Z</time></trkpt><trkpt lat="-27.4950967657311" lon="115.7611754983813"><ele>257.0</ele><time>2026-04-15T05:12:30Z</time></trkpt><trkpt lat="-27.495129006402603" lon="115.7615066593987"><ele>257.0</ele><time>2026-04-15T05:12:31Z</time></trkpt><trkpt lat="-27.49516033268227" lon="115.76183468992869"><ele>256.0</ele><time>2026-04-15T05:12:32Z</time></trkpt><trkpt lat="-27.495190058797935" lon="115.76215269281286"><ele>255.0</ele><time>2026-04-15T05:12:33Z</time></trkpt><trkpt lat="-27.495219955846515" lon="115.7624692593856"><ele>255.0</ele><time>2026-04-15T05:12:34Z</time></trkpt><trkpt lat="-27.49524924318948" lon="115.7627850449454"><ele>255.0</ele><time>2026-04-15T05:12:35Z</time></trkpt><trkpt lat="-27.495310009509033" lon="115.76341558552481"><ele>255.0</ele><time>2026-04-15T05:12:37Z</time></trkpt><trkpt lat="-27.495339006518567" lon="115.76373425274078"><ele>255.0</ele><time>2026-04-15T05:12:38Z</time></trkpt><trkpt lat="-27.495370871751636" lon="115.76405552926539"><ele>255.0</ele><time>2026-04-15T05:12:39Z</time></trkpt><trkpt lat="-27.495401794941507" lon="115.76437812204244"><ele>255.0</ele><time>2026-04-15T05:12:40Z</time></trkpt><trkpt lat="-27.49543321686663" lon="115.76470388376902"><ele>255.5</ele><time>2026-04-15T05:12:41Z</time></trkpt><trkpt lat="-27.49546267990404" lon="115.76503152998119"><ele>256.0</ele><time>2026-04-15T05:12:42Z</time></trkpt><trkpt lat="-27.49549653174622" lon="115.7653576807798"><ele>256.0</ele><time>2026-04-15T05:12:43Z</time></trkpt><trkpt lat="-27.49553165287063" lon="115.76568453395484"><ele>256.0</ele><time>2026-04-15T05:12:44Z</time></trkpt><trkpt lat="-27.49556956346588" lon="115.76601024604228"><ele>256.5</ele><time>2026-04-15T05:12:45Z</time></trkpt><trkpt lat="-27.49560510794971" lon="115.7663395280849"><ele>257.0</ele><time>2026-04-15T05:12:46Z</time></trkpt><trkpt lat="-27.495637709448797" lon="115.76666589880274"><ele>257.0</ele><time>2026-04-15T05:12:47Z</time></trkpt><trkpt lat="-27.495669202781375" lon="115.7669959526002"><ele>257.0</ele><time>2026-04-15T05:12:48Z</time></trkpt><trkpt lat="-27.495700764049325" lon="115.76732944732645"><ele>257.0</ele><time>2026-04-15T05:12:49Z</time></trkpt><trkpt lat="-27.4957335958082" lon="115.76766105735538"><ele>257.0</ele><time>2026-04-15T05:12:50Z</time></trkpt><trkpt lat="-27.495766155914946" lon="115.76799388892036"><ele>257.0</ele><time>2026-04-15T05:12:51Z</time></trkpt><trkpt lat="-27.495800223491482" lon="115.76832333743475"><ele>257.0</ele><time>2026-04-15T05:12:52Z</time></trkpt><trkpt lat="-27.495834382873184" lon="115.76865075148731"><ele>257.0</ele><time>2026-04-15T05:12:53Z</time></trkpt><trkpt lat="-27.49586935339566" lon="115.7689753020113"><ele>257.0</ele><time>2026-04-15T05:12:54Z</time></trkpt><trkpt lat="-27.49590530936604" lon="115.76929995207612"><ele>257.0</ele><time>2026-04-15T05:12:55Z</time></trkpt><trkpt lat="-27.495943307501783" lon="115.76962579932409"><ele>257.0</ele><time>2026-04-15T05:12:56Z</time></trkpt><trkpt lat="-27.49601381451032" lon="115.7702706521855"><ele>257.0</ele><time>2026-04-15T05:12:58Z</time></trkpt><trkpt lat="-27.496046011315887" lon="115.77059258810418"><ele>257.0</ele><time>2026-04-15T05:12:59Z</time></trkpt><trkpt lat="-27.496078585932324" lon="115.7709148344929"><ele>257.5</ele><time>2026-04-15T05:13:00Z</time></trkpt><trkpt lat="-27.496111755406663" lon="115.77123618799007"><ele>258.0</ele><time>2026-04-15T05:13:01Z</time></trkpt><trkpt lat="-27.49614923753988" lon="115.77156297155449"><ele>258.0</ele><time>2026-04-15T05:13:02Z</time></trkpt><trkpt lat="-27.49618483020806" lon="115.77189091774255"><ele>258.0</ele><time>2026-04-15T05:13:03Z</time></trkpt><trkpt lat="-27.496221137977457" lon="115.77222075364584"><ele>257.5</ele><time>2026-04-15T05:13:04Z</time></trkpt><trkpt lat="-27.49625653388415" lon="115.77255214847298"><ele>257.0</ele><time>2026-04-15T05:13:05Z</time></trkpt><trkpt lat="-27.496290532557403" lon="115.77288408303534"><ele>257.0</ele><time>2026-04-15T05:13:06Z</time></trkpt><trkpt lat="-27.4963237375344" lon="115.77321480825053"><ele>257.0</ele><time>2026-04-15T05:13:07Z</time></trkpt><trkpt lat="-27.496355621875413" lon="115.77354482493482"><ele>256.0</ele><time>2026-04-15T05:13:08Z</time></trkpt><trkpt lat="-27.496388610726203" lon="115.77387258499004"><ele>255.0</ele><time>2026-04-15T05:13:09Z</time></trkpt><trkpt lat="-27.496423531263318" lon="115.77420101785357"><ele>255.0</ele><time>2026-04-15T05:13:10Z</time></trkpt><trkpt lat="-27.496460599806717" lon="115.77452638999843"><ele>255.0</ele><time>2026-04-15T05:13:11Z</time></trkpt><trkpt lat="-27.496499224070476" lon="115.77484762267515"><ele>255.0</ele><time>2026-04-15T05:13:12Z</time></trkpt><trkpt lat="-27.496537071657496" lon="115.77516982783122"><ele>255.0</ele><time>2026-04-15T05:13:13Z</time></trkpt><trkpt lat="-27.496571975689065" lon="115.77549350072077"><ele>255.5</ele><time>2026-04-15T05:13:14Z</time></trkpt><trkpt lat="-27.496605345364074" lon="115.77581685307676"><ele>256.0</ele><time>2026-04-15T05:13:15Z</time></trkpt><trkpt lat="-27.496640129784414" lon="115.77613764262496"><ele>256.0</ele><time>2026-04-15T05:13:16Z</time></trkpt><trkpt lat="-27.496676385162772" lon="115.77645990466668"><ele>256.0</ele><time>2026-04-15T05:13:17Z</time></trkpt><trkpt lat="-27.496749088955003" lon="115.77711084560703"><ele>256.0</ele><time>2026-04-15T05:13:19Z</time></trkpt><trkpt lat="-27.496784759247912" lon="115.77743891943314"><ele>256.0</ele><time>2026-04-15T05:13:20Z</time></trkpt><trkpt lat="-27.496816992153583" lon="115.77776174445633"><ele>256.5</ele><time>2026-04-15T05:13:21Z</time></trkpt><trkpt lat="-27.4968510953748" lon="115.77808235975654"><ele>257.0</ele><time>2026-04-15T05:13:22Z</time></trkpt><trkpt lat="-27.496888304075064" lon="115.7784008879851"><ele>257.0</ele><time>2026-04-15T05:13:23Z</time></trkpt><trkpt lat="-27.4969252502438" lon="115.77872005843638"><ele>257.0</ele><time>2026-04-15T05:13:24Z</time></trkpt><trkpt lat="-27.496961323813878" lon="115.77904200481277"><ele>257.0</ele><time>2026-04-15T05:13:25Z</time></trkpt><trkpt lat="-27.49699614618253" lon="115.77937278945546"><ele>257.0</ele><time>2026-04-15T05:13:26Z</time></trkpt><trkpt lat="-27.4970295279795" lon="115.77971379456694"><ele>257.0</ele><time>2026-04-15T05:13:27Z</time></trkpt><trkpt lat="-27.49706455537758" lon="115.78005139221068"><ele>257.0</ele><time>2026-04-15T05:13:28Z</time></trkpt><trkpt lat="-27.497100580590516" lon="115.78038154573986"><ele>257.0</ele><time>2026-04-15T05:13:29Z</time></trkpt><trkpt lat="-27.49713707167718" lon="115.78070673428832"><ele>257.0</ele><time>2026-04-15T05:13:30Z</time></trkpt><trkpt lat="-27.497173001324544" lon="115.78102932522411"><ele>257.5</ele><time>2026-04-15T05:13:31Z</time></trkpt><trkpt lat="-27.497210206295385" lon="115.78134292995837"><ele>258.0</ele><time>2026-04-15T05:13:32Z</time></trkpt><trkpt lat="-27.49724574813783" lon="115.78165135150833"><ele>257.5</ele><time>2026-04-15T05:13:33Z</time></trkpt><trkpt lat="-27.497282269616285" lon="115.78195395183965"><ele>257.0</ele><time>2026-04-15T05:13:34Z</time></trkpt><trkpt lat="-27.497318001237332" lon="115.78225213354673"><ele>257.0</ele><time>2026-04-15T05:13:35Z</time></trkpt><trkpt lat="-27.497348879222766" lon="115.7825363802771"><ele>257.0</ele><time>2026-04-15T05:13:36Z</time></trkpt><trkpt lat="-27.4973805920844" lon="115.78280037384786"><ele>257.0</ele><time>2026-04-15T05:13:37Z</time></trkpt><trkpt lat="-27.497408236835422" lon="115.78306499067276"><ele>257.0</ele><time>2026-04-15T05:13:38Z</time></trkpt><trkpt lat="-27.49745938905675" lon="115.78364637924142"><ele>258.0</ele><time>2026-04-15T05:13:40Z</time></trkpt><trkpt lat="-27.497490624245845" lon="115.78394024274996"><ele>259.0</ele><time>2026-04-15T05:13:41Z</time></trkpt><trkpt lat="-27.497524885176805" lon="115.78423276500627"><ele>258.5</ele><time>2026-04-15T05:13:42Z</time></trkpt><trkpt lat="-27.497560987814605" lon="115.78452287379483"><ele>258.0</ele><time>2026-04-15T05:13:43Z</time></trkpt><trkpt lat="-27.497593640772816" lon="115.78480592926454"><ele>258.0</ele><time>2026-04-15T05:13:44Z</time></trkpt><trkpt lat="-27.497623382494275" lon="115.78507723319008"><ele>258.0</ele><time>2026-04-15T05:13:45Z</time></trkpt><trkpt lat="-27.49765050506584" lon="115.78533352162414"><ele>259.0</ele><time>2026-04-15T05:13:46Z</time></trkpt><trkpt lat="-27.497677793535555" lon="115.78558660898467"><ele>260.0</ele><time>2026-04-15T05:13:47Z</time></trkpt><trkpt lat="-27.497705307411636" lon="115.78583061793506"><ele>261.0</ele><time>2026-04-15T05:13:48Z</time></trkpt><trkpt lat="-27.497735408535064" lon="115.78606923805378"><ele>261.3333333333333</ele><time>2026-04-15T05:13:49Z</time></trkpt><trkpt lat="-27.4977639883638" lon="115.78629742099156"><ele>261.66666666666663</ele><time>2026-04-15T05:13:50Z</time></trkpt><trkpt lat="-27.497790491252918" lon="115.78652470444037"><ele>262.0</ele><time>2026-04-15T05:13:51Z</time></trkpt><trkpt lat="-27.49781471711014" lon="115.78673587525057"><ele>262.0</ele><time>2026-04-15T05:13:52Z</time></trkpt><trkpt lat="-27.497837957176035" lon="115.78693877271836"><ele>262.0</ele><time>2026-04-15T05:13:53Z</time></trkpt><trkpt lat="-27.497859721368876" lon="115.78712247068819"><ele>262.0</ele><time>2026-04-15T05:13:54Z</time></trkpt><trkpt lat="-27.497877063507577" lon="115.78728693185444"><ele>262.0</ele><time>2026-04-15T05:13:55Z</time></trkpt><trkpt lat="-27.49788979016702" lon="115.78742834378146"><ele>262.0</ele><time>2026-04-15T05:13:56Z</time></trkpt><trkpt lat="-27.497896629512653" lon="115.78755808261052"><ele>262.0</ele><time>2026-04-15T05:13:57Z</time></trkpt><trkpt lat="-27.497880458526186" lon="115.78767666441627"><ele>262.0</ele><time>2026-04-15T05:13:58Z</time></trkpt><trkpt lat="-27.497820222495754" lon="115.78777809080981"><ele>262.0</ele><time>2026-04-15T05:13:59Z</time></trkpt><trkpt lat="-27.497625273099736" lon="115.78795504080507"><ele>262.0</ele><time>2026-04-15T05:14:01Z</time></trkpt><trkpt lat="-27.497496569660253" lon="115.78805115744626"><ele>262.0</ele><time>2026-04-15T05:14:02Z</time></trkpt><trkpt lat="-27.49735584579416" lon="115.7881621937195"><ele>262.0</ele><time>2026-04-15T05:14:03Z</time></trkpt><trkpt lat="-27.49720164837186" lon="115.78828918044745"><ele>262.0</ele><time>2026-04-15T05:14:04Z</time></trkpt><trkpt lat="-27.497036599477596" lon="115.78842310170324"><ele>262.0</ele><time>2026-04-15T05:14:05Z</time></trkpt><trkpt lat="-27.4968687299487" lon="115.78856686487491"><ele>262.0</ele><time>2026-04-15T05:14:06Z</time></trkpt><trkpt lat="-27.496690154663742" lon="115.78872649223989"><ele>262.0</ele><time>2026-04-15T05:14:07Z</time></trkpt><trkpt lat="-27.496508298139396" lon="115.78889100127188"><ele>262.0</ele><time>2026-04-15T05:14:08Z</time></trkpt><trkpt lat="-27.496326242865543" lon="115.7890552804388"><ele>262.0</ele><time>2026-04-15T05:14:09Z</time></trkpt><trkpt lat="-27.49613804366814" lon="115.78922766912305"><ele>263.0</ele><time>2026-04-15T05:14:10Z</time></trkpt><trkpt lat="-27.495941154266358" lon="115.78941155055006"><ele>264.0</ele><time>2026-04-15T05:14:11Z</time></trkpt><trkpt lat="-27.495744747720938" lon="115.78958718769948"><ele>264.0</ele><time>2026-04-15T05:14:12Z</time></trkpt><trkpt lat="-27.495551852144878" lon="115.78976031713226"><ele>264.0</ele><time>2026-04-15T05:14:13Z</time></trkpt><trkpt lat="-27.495357684240318" lon="115.78993647302873"><ele>263.5</ele><time>2026-04-15T05:14:14Z</time></trkpt><trkpt lat="-27.495159259161195" lon="115.79011057012195"><ele>263.0</ele><time>2026-04-15T05:14:15Z</time></trkpt><trkpt lat="-27.494958753350744" lon="115.79028455915375"><ele>263.0</ele><time>2026-04-15T05:14:16Z</time></trkpt><trkpt lat="-27.494755264371513" lon="115.79046013523121"><ele>263.0</ele><time>2026-04-15T05:14:17Z</time></trkpt><trkpt lat="-27.494552719938742" lon="115.79063736757578"><ele>263.5</ele><time>2026-04-15T05:14:18Z</time></trkpt><trkpt lat="-27.494350895903512" lon="115.79081958135316"><ele>264.0</ele><time>2026-04-15T05:14:19Z</time></trkpt><trkpt lat="-27.49415132469431" lon="115.7910033958078"><ele>264.0</ele><time>2026-04-15T05:14:20Z</time></trkpt><trkpt lat="-27.493747840811757" lon="115.79137459151087"><ele>264.0</ele><time>2026-04-15T05:14:22Z</time></trkpt><trkpt lat="-27.493542457053543" lon="115.79156125468624"><ele>264.0</ele><time>2026-04-15T05:14:23Z</time></trkpt><trkpt lat="-27.493339856391305" lon="115.7917498214895"><ele>263.5</ele><time>2026-04-15T05:14:24Z</time></trkpt><trkpt lat="-27.493132235659548" lon="115.7919352147613"><ele>263.0</ele><time>2026-04-15T05:14:25Z</time></trkpt><trkpt lat="-27.492921029616717" lon="115.79211930362082"><ele>262.0</ele><time>2026-04-15T05:14:26Z</time></trkpt><trkpt lat="-27.492711430866343" lon="115.79230666046593"><ele>261.0</ele><time>2026-04-15T05:14:27Z</time></trkpt><trkpt lat="-27.492501510412758" lon="115.79249420629647"><ele>261.0</ele><time>2026-04-15T05:14:28Z</time></trkpt><trkpt lat="-27.49229365967712" lon="115.79268003493067"><ele>261.0</ele><time>2026-04-15T05:14:29Z</time></trkpt><trkpt lat="-27.49208247960787" lon="115.79286535457183"><ele>261.0</ele><time>2026-04-15T05:14:30Z</time></trkpt><trkpt lat="-27.491868599116" lon="115.79305105043325"><ele>261.0</ele><time>2026-04-15T05:14:31Z</time></trkpt><trkpt lat="-27.49164896761492" lon="115.79324534467273"><ele>261.0</ele><time>2026-04-15T05:14:32Z</time></trkpt><trkpt lat="-27.4914284216529" lon="115.7934451635699"><ele>261.0</ele><time>2026-04-15T05:14:33Z</time></trkpt><trkpt lat="-27.49120704306537" lon="115.7936486474306"><ele>260.0</ele><time>2026-04-15T05:14:34Z</time></trkpt><trkpt lat="-27.490985519024957" lon="115.79385178571819"><ele>259.0</ele><time>2026-04-15T05:14:35Z</time></trkpt><trkpt lat="-27.490765120444248" lon="115.79405195948328"><ele>259.0</ele><time>2026-04-15T05:14:36Z</time></trkpt><trkpt lat="-27.49054495122803" lon="115.79425014478072"><ele>259.0</ele><time>2026-04-15T05:14:37Z</time></trkpt><trkpt lat="-27.490324154881478" lon="115.7944479638318"><ele>258.5</ele><time>2026-04-15T05:14:38Z</time></trkpt><trkpt lat="-27.490100939772745" lon="115.79464607145427"><ele>258.0</ele><time>2026-04-15T05:14:39Z</time></trkpt><trkpt lat="-27.48987546220753" lon="115.794845721626"><ele>258.0</ele><time>2026-04-15T05:14:40Z</time></trkpt><trkpt lat="-27.489649700106856" lon="115.79504657427019"><ele>258.0</ele><time>2026-04-15T05:14:41Z</time></trkpt><trkpt lat="-27.48920050295011" lon="115.79545331336828"><ele>257.5</ele><time>2026-04-15T05:14:43Z</time></trkpt><trkpt lat="-27.48897623353963" lon="115.79566008034492"><ele>257.0</ele><time>2026-04-15T05:14:44Z</time></trkpt><trkpt lat="-27.48874921110945" lon="115.79586735332596"><ele>257.0</ele><time>2026-04-15T05:14:45Z</time></trkpt><trkpt lat="-27.488525551680667" lon="115.79607158217111"><ele>257.0</ele><time>2026-04-15T05:14:46Z</time></trkpt><trkpt lat="-27.488304845301325" lon="115.7962750423146"><ele>257.0</ele><time>2026-04-15T05:14:47Z</time></trkpt><trkpt lat="-27.48808525406728" lon="115.79647538897906"><ele>257.0</ele><time>2026-04-15T05:14:48Z</time></trkpt><trkpt lat="-27.487865017998157" lon="115.79667700375353"><ele>258.5</ele><time>2026-04-15T05:14:49Z</time></trkpt><trkpt lat="-27.487644196091882" lon="115.79687536901763"><ele>260.0</ele><time>2026-04-15T05:14:50Z</time></trkpt><trkpt lat="-27.487424421327198" lon="115.79707508483189"><ele>260.0</ele><time>2026-04-15T05:14:51Z</time></trkpt><trkpt lat="-27.487201606787323" lon="115.79727477058678"><ele>260.0</ele><time>2026-04-15T05:14:52Z</time></trkpt><trkpt lat="-27.48697702499091" lon="115.79747148478617"><ele>260.0</ele><time>2026-04-15T05:14:53Z</time></trkpt><trkpt lat="-27.486748352570846" lon="115.7976703968688"><ele>260.0</ele><time>2026-04-15T05:14:54Z</time></trkpt><trkpt lat="-27.486519131247398" lon="115.79787079081564"><ele>260.0</ele><time>2026-04-15T05:14:55Z</time></trkpt><trkpt lat="-27.486291719319546" lon="115.79807333245421"><ele>260.0</ele><time>2026-04-15T05:14:56Z</time></trkpt><trkpt lat="-27.486065968521213" lon="115.79827828245584"><ele>260.0</ele><time>2026-04-15T05:14:57Z</time></trkpt><trkpt lat="-27.485838746394613" lon="115.79848332576461"><ele>260.0</ele><time>2026-04-15T05:14:58Z</time></trkpt><trkpt lat="-27.485610409032184" lon="115.79868652833888"><ele>260.0</ele><time>2026-04-15T05:14:59Z</time></trkpt><trkpt lat="-27.485380127039583" lon="115.79888899964898"><ele>260.0</ele><time>2026-04-15T05:15:00Z</time></trkpt><trkpt lat="-27.485152723026776" lon="115.79909250490937"><ele>259.0</ele><time>2026-04-15T05:15:01Z</time></trkpt><trkpt lat="-27.484702405554224" lon="115.79949533355477"><ele>260.0</ele><time>2026-04-15T05:15:03Z</time></trkpt><trkpt lat="-27.48447572772224" lon="115.79970082234968"><ele>261.0</ele><time>2026-04-15T05:15:04Z</time></trkpt><trkpt lat="-27.484249883170293" lon="115.79990653316446"><ele>261.0</ele><time>2026-04-15T05:15:05Z</time></trkpt><trkpt lat="-27.48402228341901" lon="115.80011345087532"><ele>261.0</ele><time>2026-04-15T05:15:06Z</time></trkpt><trkpt lat="-27.48379585335646" lon="115.80031949231731"><ele>260.5</ele><time>2026-04-15T05:15:07Z</time></trkpt><trkpt lat="-27.483569494355653" lon="115.80052712151998"><ele>260.0</ele><time>2026-04-15T05:15:08Z</time></trkpt><trkpt lat="-27.483340134666054" lon="115.80073536247653"><ele>260.0</ele><time>2026-04-15T05:15:09Z</time></trkpt><trkpt lat="-27.483111613485633" lon="115.80094142882699"><ele>260.0</ele><time>2026-04-15T05:15:10Z</time></trkpt><trkpt lat="-27.4828842646057" lon="115.80114902661703"><ele>261.0</ele><time>2026-04-15T05:15:11Z</time></trkpt><trkpt lat="-27.48265774660588" lon="115.80136058828187"><ele>262.0</ele><time>2026-04-15T05:15:12Z</time></trkpt><trkpt lat="-27.482431143491965" lon="115.80156918404444"><ele>262.0</ele><time>2026-04-15T05:15:13Z</time></trkpt><trkpt lat="-27.4822017760744" lon="115.80177915099537"><ele>262.0</ele><time>2026-04-15T05:15:14Z</time></trkpt><trkpt lat="-27.481970166096517" lon="115.80198652243735"><ele>263.0</ele><time>2026-04-15T05:15:15Z</time></trkpt><trkpt lat="-27.481737186031303" lon="115.80219204032932"><ele>264.0</ele><time>2026-04-15T05:15:16Z</time></trkpt><trkpt lat="-27.48150613600778" lon="115.80239486251561"><ele>264.0</ele><time>2026-04-15T05:15:17Z</time></trkpt><trkpt lat="-27.48127737600357" lon="115.80260001168146"><ele>264.0</ele><time>2026-04-15T05:15:18Z</time></trkpt><trkpt lat="-27.481052470312306" lon="115.80280837304045"><ele>264.0</ele><time>2026-04-15T05:15:19Z</time></trkpt><trkpt lat="-27.48082881139605" lon="115.8030160691968"><ele>264.0</ele><time>2026-04-15T05:15:20Z</time></trkpt><trkpt lat="-27.480604590148097" lon="115.80322399574597"><ele>264.0</ele><time>2026-04-15T05:15:21Z</time></trkpt><trkpt lat="-27.480380026334988" lon="115.8034303402796"><ele>264.0</ele><time>2026-04-15T05:15:22Z</time></trkpt><trkpt lat="-27.479913550425206" lon="115.80383103499736"><ele>263.0</ele><time>2026-04-15T05:15:24Z</time></trkpt><trkpt lat="-27.4796715196262" lon="115.80402265401797"><ele>262.0</ele><time>2026-04-15T05:15:25Z</time></trkpt><trkpt lat="-27.47942592901979" lon="115.80420978846699"><ele>261.5</ele><time>2026-04-15T05:15:26Z</time></trkpt><trkpt lat="-27.479176491896396" lon="115.80438750288607"><ele>261.0</ele><time>2026-04-15T05:15:27Z</time></trkpt><trkpt lat="-27.478924590792715" lon="115.80455118418348"><ele>261.0</ele><time>2026-04-15T05:15:28Z</time></trkpt><trkpt lat="-27.478669901714703" lon="115.80469951678356"><ele>261.0</ele><time>2026-04-15T05:15:29Z</time></trkpt><trkpt lat="-27.478409990579962" lon="115.80483719479626"><ele>261.0</ele><time>2026-04-15T05:15:30Z</time></trkpt><trkpt lat="-27.47814977369657" lon="115.80496732373608"><ele>261.0</ele><time>2026-04-15T05:15:31Z</time></trkpt><trkpt lat="-27.477887784505103" lon="115.80509086192421"><ele>261.5</ele><time>2026-04-15T05:15:32Z</time></trkpt><trkpt lat="-27.47762671834367" lon="115.8052100201893"><ele>262.0</ele><time>2026-04-15T05:15:33Z</time></trkpt><trkpt lat="-27.477365191765344" lon="115.80532957394277"><ele>262.0</ele><time>2026-04-15T05:15:34Z</time></trkpt><trkpt lat="-27.47710238206617" lon="115.80544787859824"><ele>262.0</ele><time>2026-04-15T05:15:35Z</time></trkpt><trkpt lat="-27.476833863130327" lon="115.8055673574362"><ele>262.0</ele><time>2026-04-15T05:15:36Z</time></trkpt><trkpt lat="-27.47656580377089" lon="115.80568695764508"><ele>262.0</ele><time>2026-04-15T05:15:37Z</time></trkpt><trkpt lat="-27.47629613299934" lon="115.80580909963314"><ele>261.0</ele><time>2026-04-15T05:15:38Z</time></trkpt><trkpt lat="-27.476026932326565" lon="115.80593337411788"><ele>260.0</ele><time>2026-04-15T05:15:39Z</time></trkpt><trkpt lat="-27.475756853199044" lon="115.80605634534425"><ele>260.0</ele><time>2026-04-15T05:15:40Z</time></trkpt><trkpt lat="-27.475482817877303" lon="115.80618387583986"><ele>260.0</ele><time>2026-04-15T05:15:41Z</time></trkpt><trkpt lat="-27.475206716878215" lon="115.80631213793865"><ele>259.5</ele><time>2026-04-15T05:15:42Z</time></trkpt><trkpt lat="-27.474931256993628" lon="115.80643630147644"><ele>259.0</ele><time>2026-04-15T05:15:43Z</time></trkpt><trkpt lat="-27.474380464581998" lon="115.80667779246292"><ele>259.0</ele><time>2026-04-15T05:15:45Z</time></trkpt><trkpt lat="-27.474104235292344" lon="115.80679767833006"><ele>259.0</ele><time>2026-04-15T05:15:46Z</time></trkpt><trkpt lat="-27.47382721313263" lon="115.8069193752712"><ele>261.0</ele><time>2026-04-15T05:15:47Z</time></trkpt><trkpt lat="-27.473552039653313" lon="115.80704136592053"><ele>263.0</ele><time>2026-04-15T05:15:48Z</time></trkpt><trkpt lat="-27.473282196445563" lon="115.80716215597076"><ele>263.0</ele><time>2026-04-15T05:15:49Z</time></trkpt><trkpt lat="-27.473015853115626" lon="115.80728213471622"><ele>263.0</ele><time>2026-04-15T05:15:50Z</time></trkpt><trkpt lat="-27.472755039473817" lon="115.80740129820275"><ele>263.5</ele><time>2026-04-15T05:15:51Z</time></trkpt><trkpt lat="-27.472496060371594" lon="115.80751903622175"><ele>264.0</ele><time>2026-04-15T05:15:52Z</time></trkpt><trkpt lat="-27.47223949576152" lon="115.80763303124778"><ele>263.5</ele><time>2026-04-15T05:15:53Z</time></trkpt><trkpt lat="-27.47198408824487" lon="115.80774645181864"><ele>263.0</ele><time>2026-04-15T05:15:54Z</time></trkpt><trkpt lat="-27.4717273941271" lon="115.80785989350936"><ele>263.0</ele><time>2026-04-15T05:15:55Z</time></trkpt><trkpt lat="-27.471473371375517" lon="115.80797433108226"><ele>263.0</ele><time>2026-04-15T05:15:56Z</time></trkpt><trkpt lat="-27.471218991162942" lon="115.80809095372614"><ele>261.0</ele><time>2026-04-15T05:15:57Z</time></trkpt><trkpt lat="-27.470964675055193" lon="115.80820695035953"><ele>259.0</ele><time>2026-04-15T05:15:58Z</time></trkpt><trkpt lat="-27.47070520381393" lon="115.80832380834892"><ele>259.0</ele><time>2026-04-15T05:15:59Z</time></trkpt><trkpt lat="-27.470445118940034" lon="115.80843958217642"><ele>259.0</ele><time>2026-04-15T05:16:00Z</time></trkpt><trkpt lat="-27.47018367362806" lon="115.80855342435811"><ele>259.0</ele><time>2026-04-15T05:16:01Z</time></trkpt><trkpt lat="-27.46992430416924" lon="115.80866696400494"><ele>259.0</ele><time>2026-04-15T05:16:02Z</time></trkpt><trkpt lat="-27.469665986438024" lon="115.80878634319404"><ele>259.0</ele><time>2026-04-15T05:16:03Z</time></trkpt><trkpt lat="-27.46941062146495" lon="115.80890493231433"><ele>259.0</ele><time>2026-04-15T05:16:04Z</time></trkpt><trkpt lat="-27.468900503216815" lon="115.80913556507899"><ele>260.0</ele><time>2026-04-15T05:16:06Z</time></trkpt><trkpt lat="-27.468642182713378" lon="115.80924803786628"><ele>261.0</ele><time>2026-04-15T05:16:07Z</time></trkpt><trkpt lat="-27.468389158593045" lon="115.80936179831957"><ele>261.0</ele><time>2026-04-15T05:16:08Z</time></trkpt><trkpt lat="-27.468131315006776" lon="115.80947412591394"><ele>261.0</ele><time>2026-04-15T05:16:09Z</time></trkpt><trkpt lat="-27.46787671950691" lon="115.80958808267134"><ele>261.0</ele><time>2026-04-15T05:16:10Z</time></trkpt><trkpt lat="-27.46762369406423" lon="115.80970136075895"><ele>261.0</ele><time>2026-04-15T05:16:11Z</time></trkpt><trkpt lat="-27.46737037503118" lon="115.80981194810558"><ele>261.0</ele><time>2026-04-15T05:16:12Z</time></trkpt><trkpt lat="-27.467117627433094" lon="115.80992311864884"><ele>261.0</ele><time>2026-04-15T05:16:13Z</time></trkpt><trkpt lat="-27.466863400021058" lon="115.81003679523222"><ele>262.0</ele><time>2026-04-15T05:16:14Z</time></trkpt><trkpt lat="-27.46660899491374" lon="115.81015379916927"><ele>263.0</ele><time>2026-04-15T05:16:15Z</time></trkpt><trkpt lat="-27.466355502920905" lon="115.81027228241051"><ele>263.0</ele><time>2026-04-15T05:16:16Z</time></trkpt><trkpt lat="-27.466100759724156" lon="115.81038897039873"><ele>263.0</ele><time>2026-04-15T05:16:17Z</time></trkpt><trkpt lat="-27.465845926544734" lon="115.81050545777472"><ele>263.0</ele><time>2026-04-15T05:16:18Z</time></trkpt><trkpt lat="-27.46559164454408" lon="115.81061954673079"><ele>263.0</ele><time>2026-04-15T05:16:19Z</time></trkpt><trkpt lat="-27.46533630955014" lon="115.81073229094174"><ele>262.5</ele><time>2026-04-15T05:16:20Z</time></trkpt><trkpt lat="-27.465076210308823" lon="115.81084521665562"><ele>262.0</ele><time>2026-04-15T05:16:21Z</time></trkpt><trkpt lat="-27.46481518435021" lon="115.81096048952358"><ele>263.5</ele><time>2026-04-15T05:16:22Z</time></trkpt><trkpt lat="-27.464554899244373" lon="115.81107453420357"><ele>265.0</ele><time>2026-04-15T05:16:23Z</time></trkpt><trkpt lat="-27.464290718962452" lon="115.81119098183193"><ele>265.0</ele><time>2026-04-15T05:16:24Z</time></trkpt><trkpt lat="-27.46402841277816" lon="115.81130638643093"><ele>265.0</ele><time>2026-04-15T05:16:25Z</time></trkpt><trkpt lat="-27.46350874144873" lon="115.81153875054355"><ele>263.5</ele><time>2026-04-15T05:16:27Z</time></trkpt><trkpt lat="-27.463250952204312" lon="115.81165319766508"><ele>262.0</ele><time>2026-04-15T05:16:28Z</time></trkpt><trkpt lat="-27.46299434528954" lon="115.81176509519202"><ele>261.0</ele><time>2026-04-15T05:16:29Z</time></trkpt><trkpt lat="-27.462736153409686" lon="115.81187648243097"><ele>260.0</ele><time>2026-04-15T05:16:30Z</time></trkpt><trkpt lat="-27.462478942254222" lon="115.81198691047908"><ele>260.0</ele><time>2026-04-15T05:16:31Z</time></trkpt><trkpt lat="-27.462226304046364" lon="115.8120968468598"><ele>260.0</ele><time>2026-04-15T05:16:32Z</time></trkpt><trkpt lat="-27.46197317752328" lon="115.81220875502427"><ele>261.0</ele><time>2026-04-15T05:16:33Z</time></trkpt><trkpt lat="-27.46172386015638" lon="115.81231721935033"><ele>262.0</ele><time>2026-04-15T05:16:34Z</time></trkpt><trkpt lat="-27.46147499358968" lon="115.81242451779964"><ele>262.5</ele><time>2026-04-15T05:16:35Z</time></trkpt><trkpt lat="-27.46122700687789" lon="115.81253216849369"><ele>263.0</ele><time>2026-04-15T05:16:36Z</time></trkpt><trkpt lat="-27.460976760517994" lon="115.81264086176544"><ele>263.0</ele><time>2026-04-15T05:16:37Z</time></trkpt><trkpt lat="-27.46072663469668" lon="115.81274789685015"><ele>263.0</ele><time>2026-04-15T05:16:38Z</time></trkpt><trkpt lat="-27.460476791784508" lon="115.8128524120994"><ele>262.5</ele><time>2026-04-15T05:16:39Z</time></trkpt><trkpt lat="-27.46022642634502" lon="115.81295527818953"><ele>262.0</ele><time>2026-04-15T05:16:40Z</time></trkpt><trkpt lat="-27.459972184580433" lon="115.81306094008991"><ele>262.0</ele><time>2026-04-15T05:16:41Z</time></trkpt><trkpt lat="-27.45971498362642" lon="115.81317130797567"><ele>262.0</ele><time>2026-04-15T05:16:42Z</time></trkpt><trkpt lat="-27.45945755918872" lon="115.81328713867823"><ele>261.0</ele><time>2026-04-15T05:16:43Z</time></trkpt><trkpt lat="-27.45894394697317" lon="115.81351692362865"><ele>260.0</ele><time>2026-04-15T05:16:45Z</time></trkpt><trkpt lat="-27.45842428095379" lon="115.81375103788702"><ele>260.0</ele><time>2026-04-15T05:16:47Z</time></trkpt><trkpt lat="-27.458160819110336" lon="115.81386521188085"><ele>260.0</ele><time>2026-04-15T05:16:48Z</time></trkpt><trkpt lat="-27.45789420159845" lon="115.81397470898293"><ele>260.5</ele><time>2026-04-15T05:16:49Z</time></trkpt><trkpt lat="-27.457623960074432" lon="115.81408304309899"><ele>261.0</ele><time>2026-04-15T05:16:50Z</time></trkpt><trkpt lat="-27.45734939151106" lon="115.81419394909796"><ele>262.0</ele><time>2026-04-15T05:16:51Z</time></trkpt><trkpt lat="-27.4570740231985" lon="115.81430542737965"><ele>263.0</ele><time>2026-04-15T05:16:52Z</time></trkpt><trkpt lat="-27.45679624651508" lon="115.81441895711792"><ele>263.0</ele><time>2026-04-15T05:16:53Z</time></trkpt><trkpt lat="-27.45652193766267" lon="115.8145348478118"><ele>263.0</ele><time>2026-04-15T05:16:54Z</time></trkpt><trkpt lat="-27.456249801856927" lon="115.81465295071264"><ele>263.0</ele><time>2026-04-15T05:16:55Z</time></trkpt><trkpt lat="-27.455978554162456" lon="115.81477033025878"><ele>263.0</ele><time>2026-04-15T05:16:56Z</time></trkpt><trkpt lat="-27.455711195491848" lon="115.81488509557671"><ele>263.0</ele><time>2026-04-15T05:16:57Z</time></trkpt><trkpt lat="-27.455439741050995" lon="115.81499950778905"><ele>263.0</ele><time>2026-04-15T05:16:58Z</time></trkpt><trkpt lat="-27.4551716568071" lon="115.81511286218053"><ele>262.0</ele><time>2026-04-15T05:16:59Z</time></trkpt><trkpt lat="-27.454902086162562" lon="115.81522482357516"><ele>261.0</ele><time>2026-04-15T05:17:00Z</time></trkpt><trkpt lat="-27.454629386940066" lon="115.81533720224239"><ele>262.0</ele><time>2026-04-15T05:17:01Z</time></trkpt><trkpt lat="-27.45435917110345" lon="115.81544922311684"><ele>263.0</ele><time>2026-04-15T05:17:02Z</time></trkpt><trkpt lat="-27.454090661286838" lon="115.8155625654598"><ele>263.0</ele><time>2026-04-15T05:17:03Z</time></trkpt><trkpt lat="-27.45382451091815" lon="115.81567590973151"><ele>263.0</ele><time>2026-04-15T05:17:04Z</time></trkpt><trkpt lat="-27.45355864416526" lon="115.81578936857714"><ele>263.0</ele><time>2026-04-15T05:17:05Z</time></trkpt><trkpt lat="-27.45328860621281" lon="115.81590452395072"><ele>263.0</ele><time>2026-04-15T05:17:06Z</time></trkpt><trkpt lat="-27.452741882101108" lon="115.81613948099807"><ele>262.5</ele><time>2026-04-15T05:17:08Z</time></trkpt><trkpt lat="-27.452464990615166" lon="115.81625812723894"><ele>262.0</ele><time>2026-04-15T05:17:09Z</time></trkpt><trkpt lat="-27.45218865989121" lon="115.81637322647441"><ele>262.0</ele><time>2026-04-15T05:17:10Z</time></trkpt><trkpt lat="-27.451912467671374" lon="115.81648786847613"><ele>262.0</ele><time>2026-04-15T05:17:11Z</time></trkpt><trkpt lat="-27.45163803119319" lon="115.8166005824082"><ele>262.0</ele><time>2026-04-15T05:17:12Z</time></trkpt><trkpt lat="-27.451362946069242" lon="115.81671491482528"><ele>262.0</ele><time>2026-04-15T05:17:13Z</time></trkpt><trkpt lat="-27.451088777897876" lon="115.81683196524517"><ele>261.5</ele><time>2026-04-15T05:17:14Z</time></trkpt><trkpt lat="-27.45081311134034" lon="115.8169518600628"><ele>261.0</ele><time>2026-04-15T05:17:15Z</time></trkpt><trkpt lat="-27.45053660418158" lon="115.81707275291143"><ele>261.0</ele><time>2026-04-15T05:17:16Z</time></trkpt><trkpt lat="-27.450260129382375" lon="115.81719016884395"><ele>261.0</ele><time>2026-04-15T05:17:17Z</time></trkpt><trkpt lat="-27.449983048764146" lon="115.81730547993578"><ele>261.0</ele><time>2026-04-15T05:17:18Z</time></trkpt><trkpt lat="-27.449702920637844" lon="115.81741984616632"><ele>261.0</ele><time>2026-04-15T05:17:19Z</time></trkpt><trkpt lat="-27.449420086955314" lon="115.81753543127846"><ele>261.5</ele><time>2026-04-15T05:17:20Z</time></trkpt><trkpt lat="-27.44913900965742" lon="115.8176497012707"><ele>262.0</ele><time>2026-04-15T05:17:21Z</time></trkpt><trkpt lat="-27.448861526885477" lon="115.81776304475517"><ele>262.0</ele><time>2026-04-15T05:17:22Z</time></trkpt><trkpt lat="-27.448586490349406" lon="115.81787756862603"><ele>262.0</ele><time>2026-04-15T05:17:23Z</time></trkpt><trkpt lat="-27.44831178369965" lon="115.81799329997094"><ele>262.0</ele><time>2026-04-15T05:17:24Z</time></trkpt><trkpt lat="-27.448036414214435" lon="115.81810990319742"><ele>262.0</ele><time>2026-04-15T05:17:25Z</time></trkpt><trkpt lat="-27.44776621425802" lon="115.8182243945756"><ele>262.0</ele><time>2026-04-15T05:17:26Z</time></trkpt><trkpt lat="-27.44748981305787" lon="115.81834016031952"><ele>262.0</ele><time>2026-04-15T05:17:27Z</time></trkpt><trkpt lat="-27.446941676824103" lon="115.81856679018304"><ele>262.5</ele><time>2026-04-15T05:17:29Z</time></trkpt><trkpt lat="-27.44667051358082" lon="115.81867745346005"><ele>263.0</ele><time>2026-04-15T05:17:30Z</time></trkpt><trkpt lat="-27.44640460475801" lon="115.81878673259409"><ele>263.0</ele><time>2026-04-15T05:17:31Z</time></trkpt><trkpt lat="-27.446138057953473" lon="115.8188957573802"><ele>263.0</ele><time>2026-04-15T05:17:32Z</time></trkpt><trkpt lat="-27.44587740957093" lon="115.81900525819525"><ele>263.0</ele><time>2026-04-15T05:17:33Z</time></trkpt><trkpt lat="-27.445609314799814" lon="115.81911879669556"><ele>263.0</ele><time>2026-04-15T05:17:34Z</time></trkpt><trkpt lat="-27.445341850328028" lon="115.819234426765"><ele>261.5</ele><time>2026-04-15T05:17:35Z</time></trkpt><trkpt lat="-27.445074280556295" lon="115.81934855171163"><ele>260.0</ele><time>2026-04-15T05:17:36Z</time></trkpt><trkpt lat="-27.44480292523361" lon="115.81946244454619"><ele>259.5</ele><time>2026-04-15T05:17:37Z</time></trkpt><trkpt lat="-27.444531250820578" lon="115.81957519592308"><ele>259.0</ele><time>2026-04-15T05:17:38Z</time></trkpt><trkpt lat="-27.44425951838369" lon="115.81968953091395"><ele>259.0</ele><time>2026-04-15T05:17:39Z</time></trkpt><trkpt lat="-27.443988796444717" lon="115.81980137018515"><ele>259.0</ele><time>2026-04-15T05:17:40Z</time></trkpt><trkpt lat="-27.44371795561747" lon="115.81991322997641"><ele>259.0</ele><time>2026-04-15T05:17:41Z</time></trkpt><trkpt lat="-27.44344471419314" lon="115.82002602037463"><ele>259.0</ele><time>2026-04-15T05:17:42Z</time></trkpt><trkpt lat="-27.443170242680875" lon="115.82014109596275"><ele>260.0</ele><time>2026-04-15T05:17:43Z</time></trkpt><trkpt lat="-27.442893587415035" lon="115.82025573176178"><ele>261.0</ele><time>2026-04-15T05:17:44Z</time></trkpt><trkpt lat="-27.442620104683506" lon="115.82037028203824"><ele>261.0</ele><time>2026-04-15T05:17:45Z</time></trkpt><trkpt lat="-27.44234780043519" lon="115.82048668559457"><ele>261.0</ele><time>2026-04-15T05:17:46Z</time></trkpt><trkpt lat="-27.442075779383504" lon="115.82060082200759"><ele>261.5</ele><time>2026-04-15T05:17:47Z</time></trkpt><trkpt lat="-27.441803133200036" lon="115.82071647158413"><ele>262.0</ele><time>2026-04-15T05:17:48Z</time></trkpt><trkpt lat="-27.441264676285627" lon="115.82094481478981"><ele>261.5</ele><time>2026-04-15T05:17:50Z</time></trkpt><trkpt lat="-27.440995760751512" lon="115.82105618074557"><ele>261.0</ele><time>2026-04-15T05:17:51Z</time></trkpt><trkpt lat="-27.440722297914068" lon="115.8211665255058"><ele>261.0</ele><time>2026-04-15T05:17:52Z</time></trkpt><trkpt lat="-27.440447130579496" lon="115.82127895454678"><ele>261.0</ele><time>2026-04-15T05:17:53Z</time></trkpt><trkpt lat="-27.440176236061845" lon="115.82139223676353"><ele>261.0</ele><time>2026-04-15T05:17:54Z</time></trkpt><trkpt lat="-27.439902393142233" lon="115.82150795622348"><ele>261.0</ele><time>2026-04-15T05:17:55Z</time></trkpt><trkpt lat="-27.43962806919529" lon="115.82162307742013"><ele>262.0</ele><time>2026-04-15T05:17:56Z</time></trkpt><trkpt lat="-27.439354902347077" lon="115.82174037565063"><ele>263.0</ele><time>2026-04-15T05:17:57Z</time></trkpt><trkpt lat="-27.439080933321307" lon="115.82185601145748"><ele>263.0</ele><time>2026-04-15T05:17:58Z</time></trkpt><trkpt lat="-27.438805922875023" lon="115.8219717294081"><ele>263.0</ele><time>2026-04-15T05:17:59Z</time></trkpt><trkpt lat="-27.43853064441243" lon="115.82208647571244"><ele>263.0</ele><time>2026-04-15T05:18:00Z</time></trkpt><trkpt lat="-27.43825636404629" lon="115.82220138454626"><ele>263.0</ele><time>2026-04-15T05:18:01Z</time></trkpt><trkpt lat="-27.437983591849765" lon="115.82231476341995"><ele>263.0</ele><time>2026-04-15T05:18:02Z</time></trkpt><trkpt lat="-27.437708515618223" lon="115.82242840638565"><ele>263.0</ele><time>2026-04-15T05:18:03Z</time></trkpt><trkpt lat="-27.437434820849113" lon="115.82254046604302"><ele>262.5</ele><time>2026-04-15T05:18:04Z</time></trkpt><trkpt lat="-27.437160254341578" lon="115.82265254781296"><ele>262.0</ele><time>2026-04-15T05:18:05Z</time></trkpt><trkpt lat="-27.43688933115401" lon="115.82276714851862"><ele>260.5</ele><time>2026-04-15T05:18:06Z</time></trkpt><trkpt lat="-27.43661763619175" lon="115.82288344499835"><ele>259.0</ele><time>2026-04-15T05:18:07Z</time></trkpt><trkpt lat="-27.436349032938775" lon="115.8229983396377"><ele>260.0</ele><time>2026-04-15T05:18:08Z</time></trkpt><trkpt lat="-27.435809934554378" lon="115.82322380786745"><ele>260.0</ele><time>2026-04-15T05:18:10Z</time></trkpt><trkpt lat="-27.43553861744443" lon="115.82333849993721"><ele>260.0</ele><time>2026-04-15T05:18:11Z</time></trkpt><trkpt lat="-27.435265507641187" lon="115.82345426345006"><ele>260.0</ele><time>2026-04-15T05:18:12Z</time></trkpt><trkpt lat="-27.43499186450477" lon="115.82357095395406"><ele>260.0</ele><time>2026-04-15T05:18:13Z</time></trkpt><trkpt lat="-27.434714338762415" lon="115.82368755871964"><ele>259.5</ele><time>2026-04-15T05:18:14Z</time></trkpt><trkpt lat="-27.434436075128087" lon="115.82380138206831"><ele>259.0</ele><time>2026-04-15T05:18:15Z</time></trkpt><trkpt lat="-27.43415937319608" lon="115.82391446612894"><ele>259.0</ele><time>2026-04-15T05:18:16Z</time></trkpt><trkpt lat="-27.433883667266656" lon="115.82402506881238"><ele>259.0</ele><time>2026-04-15T05:18:17Z</time></trkpt><trkpt lat="-27.433609829361743" lon="115.82413624382505"><ele>260.0</ele><time>2026-04-15T05:18:18Z</time></trkpt><trkpt lat="-27.43333513213631" lon="115.82424981706546"><ele>261.0</ele><time>2026-04-15T05:18:19Z</time></trkpt><trkpt lat="-27.433060372704926" lon="115.82436356399191"><ele>262.5</ele><time>2026-04-15T05:18:20Z</time></trkpt><trkpt lat="-27.432782382968192" lon="115.82447874187177"><ele>264.0</ele><time>2026-04-15T05:18:21Z</time></trkpt><trkpt lat="-27.432502574430107" lon="115.82459334944221"><ele>264.0</ele><time>2026-04-15T05:18:22Z</time></trkpt><trkpt lat="-27.432223443937996" lon="115.82470850473514"><ele>264.0</ele><time>2026-04-15T05:18:23Z</time></trkpt><trkpt lat="-27.431944758220638" lon="115.82482438798603"><ele>263.5</ele><time>2026-04-15T05:18:24Z</time></trkpt><trkpt lat="-27.431663991123493" lon="115.82493985264688"><ele>263.0</ele><time>2026-04-15T05:18:25Z</time></trkpt><trkpt lat="-27.43138565276475" lon="115.82505633544667"><ele>261.0</ele><time>2026-04-15T05:18:26Z</time></trkpt><trkpt lat="-27.431106530545012" lon="115.82517174051385"><ele>259.0</ele><time>2026-04-15T05:18:27Z</time></trkpt><trkpt lat="-27.4308303845687" lon="115.82528486517795"><ele>259.0</ele><time>2026-04-15T05:18:28Z</time></trkpt><trkpt lat="-27.430553660782163" lon="115.82539780141754"><ele>259.0</ele><time>2026-04-15T05:18:29Z</time></trkpt><trkpt lat="-27.430006705861143" lon="115.82562127483958"><ele>260.0</ele><time>2026-04-15T05:18:31Z</time></trkpt><trkpt lat="-27.42973613326562" lon="115.825732503486"><ele>261.0</ele><time>2026-04-15T05:18:32Z</time></trkpt><trkpt lat="-27.42946763248457" lon="115.82584125212189"><ele>261.0</ele><time>2026-04-15T05:18:33Z</time></trkpt><trkpt lat="-27.429200156309303" lon="115.82595250963935"><ele>261.0</ele><time>2026-04-15T05:18:34Z</time></trkpt><trkpt lat="-27.428934807106668" lon="115.82606530384415"><ele>260.0</ele><time>2026-04-15T05:18:35Z</time></trkpt><trkpt lat="-27.428667659328863" lon="115.8261817824928"><ele>259.0</ele><time>2026-04-15T05:18:36Z</time></trkpt><trkpt lat="-27.428399495698727" lon="115.8263002779904"><ele>259.0</ele><time>2026-04-15T05:18:37Z</time></trkpt><trkpt lat="-27.42813255044256" lon="115.82642429639617"><ele>259.0</ele><time>2026-04-15T05:18:38Z</time></trkpt><trkpt lat="-27.42786966348243" lon="115.82655206280664"><ele>259.0</ele><time>2026-04-15T05:18:39Z</time></trkpt><trkpt lat="-27.42761086587584" lon="115.82668919637638"><ele>259.0</ele><time>2026-04-15T05:18:40Z</time></trkpt><trkpt lat="-27.427356355865204" lon="115.82683662677557"><ele>259.0</ele><time>2026-04-15T05:18:41Z</time></trkpt><trkpt lat="-27.427102487924458" lon="115.82698740394964"><ele>259.0</ele><time>2026-04-15T05:18:42Z</time></trkpt><trkpt lat="-27.426846858693217" lon="115.82713814702687"><ele>259.0</ele><time>2026-04-15T05:18:43Z</time></trkpt><trkpt lat="-27.42659059333085" lon="115.82728632177718"><ele>259.0</ele><time>2026-04-15T05:18:44Z</time></trkpt><trkpt lat="-27.426333050866198" lon="115.82743561691075"><ele>259.0</ele><time>2026-04-15T05:18:45Z</time></trkpt><trkpt lat="-27.426074251475406" lon="115.82758742565692"><ele>259.0</ele><time>2026-04-15T05:18:46Z</time></trkpt><trkpt lat="-27.42581309904854" lon="115.82773735028125"><ele>259.5</ele><time>2026-04-15T05:18:47Z</time></trkpt><trkpt lat="-27.425551076560083" lon="115.8278820755761"><ele>260.0</ele><time>2026-04-15T05:18:48Z</time></trkpt><trkpt lat="-27.425287902436626" lon="115.82802900233104"><ele>260.0</ele><time>2026-04-15T05:18:49Z</time></trkpt><trkpt lat="-27.425028041796896" lon="115.82817942089649"><ele>260.0</ele><time>2026-04-15T05:18:50Z</time></trkpt><trkpt lat="-27.424504857860043" lon="115.8284804158679"><ele>259.0</ele><time>2026-04-15T05:18:52Z</time></trkpt><trkpt lat="-27.424243050621186" lon="115.8286307719351"><ele>258.0</ele><time>2026-04-15T05:18:53Z</time></trkpt><trkpt lat="-27.42398246201607" lon="115.82878122596078"><ele>258.5</ele><time>2026-04-15T05:18:54Z</time></trkpt><trkpt lat="-27.423721533606425" lon="115.82893445105057"><ele>259.0</ele><time>2026-04-15T05:18:55Z</time></trkpt><trkpt lat="-27.423464606614967" lon="115.82908432142746"><ele>259.0</ele><time>2026-04-15T05:18:56Z</time></trkpt><trkpt lat="-27.423207430864746" lon="115.82923701199063"><ele>259.0</ele><time>2026-04-15T05:18:57Z</time></trkpt><trkpt lat="-27.422950117147256" lon="115.82938541704256"><ele>259.0</ele><time>2026-04-15T05:18:58Z</time></trkpt><trkpt lat="-27.422691051604218" lon="115.82953366977388"><ele>259.0</ele><time>2026-04-15T05:18:59Z</time></trkpt><trkpt lat="-27.422433809168105" lon="115.82968032907566"><ele>259.0</ele><time>2026-04-15T05:19:00Z</time></trkpt><trkpt lat="-27.42217337165076" lon="115.82982427578864"><ele>259.0</ele><time>2026-04-15T05:19:01Z</time></trkpt><trkpt lat="-27.42191278491232" lon="115.82996877461692"><ele>259.0</ele><time>2026-04-15T05:19:02Z</time></trkpt><trkpt lat="-27.421656734875366" lon="115.83011649928213"><ele>259.0</ele><time>2026-04-15T05:19:03Z</time></trkpt><trkpt lat="-27.421405107269308" lon="115.8302678439851"><ele>258.0</ele><time>2026-04-15T05:19:04Z</time></trkpt><trkpt lat="-27.42115192303997" lon="115.83041929039574"><ele>257.0</ele><time>2026-04-15T05:19:05Z</time></trkpt><trkpt lat="-27.42089684266629" lon="115.83056857167428"><ele>257.0</ele><time>2026-04-15T05:19:06Z</time></trkpt><trkpt lat="-27.42063847093531" lon="115.83071645545726"><ele>257.0</ele><time>2026-04-15T05:19:07Z</time></trkpt><trkpt lat="-27.420380962337887" lon="115.83086312705268"><ele>257.5</ele><time>2026-04-15T05:19:08Z</time></trkpt><trkpt lat="-27.420125354116276" lon="115.83100990189234"><ele>258.0</ele><time>2026-04-15T05:19:09Z</time></trkpt><trkpt lat="-27.41987190686445" lon="115.83115707004562"><ele>259.0</ele><time>2026-04-15T05:19:10Z</time></trkpt><trkpt lat="-27.419370902561635" lon="115.83144522880458"><ele>259.0</ele><time>2026-04-15T05:19:12Z</time></trkpt><trkpt lat="-27.41912069335481" lon="115.83158893892049"><ele>259.0</ele><time>2026-04-15T05:19:13Z</time></trkpt><trkpt lat="-27.418869504454342" lon="115.83173421091425"><ele>259.0</ele><time>2026-04-15T05:19:14Z</time></trkpt><trkpt lat="-27.41861663615313" lon="115.8318850627971"><ele>259.0</ele><time>2026-04-15T05:19:15Z</time></trkpt><trkpt lat="-27.418360829697868" lon="115.8320339718597"><ele>259.0</ele><time>2026-04-15T05:19:16Z</time></trkpt><trkpt lat="-27.41810393554055" lon="115.83217759797436"><ele>259.0</ele><time>2026-04-15T05:19:17Z</time></trkpt><trkpt lat="-27.417851287157692" lon="115.83232155158163"><ele>259.0</ele><time>2026-04-15T05:19:18Z</time></trkpt><trkpt lat="-27.41759484674473" lon="115.83246736990999"><ele>259.0</ele><time>2026-04-15T05:19:19Z</time></trkpt><trkpt lat="-27.4173409340845" lon="115.83261187426872"><ele>259.5</ele><time>2026-04-15T05:19:20Z</time></trkpt><trkpt lat="-27.417080678352278" lon="115.83276009301267"><ele>260.0</ele><time>2026-04-15T05:19:21Z</time></trkpt><trkpt lat="-27.41681482498024" lon="115.83291225155804"><ele>260.0</ele><time>2026-04-15T05:19:22Z</time></trkpt><trkpt lat="-27.41655439668814" lon="115.83306394098875"><ele>260.0</ele><time>2026-04-15T05:19:23Z</time></trkpt><trkpt lat="-27.416298449940655" lon="115.83321320672664"><ele>260.0</ele><time>2026-04-15T05:19:24Z</time></trkpt><trkpt lat="-27.416042302892425" lon="115.83336095021157"><ele>260.0</ele><time>2026-04-15T05:19:25Z</time></trkpt><trkpt lat="-27.41578527635602" lon="115.83350840175235"><ele>259.5</ele><time>2026-04-15T05:19:26Z</time></trkpt><trkpt lat="-27.415530431180642" lon="115.83365465304264"><ele>259.0</ele><time>2026-04-15T05:19:27Z</time></trkpt><trkpt lat="-27.41527690445724" lon="115.83380224839185"><ele>259.0</ele><time>2026-04-15T05:19:28Z</time></trkpt><trkpt lat="-27.415029330137052" lon="115.83394930217224"><ele>259.0</ele><time>2026-04-15T05:19:29Z</time></trkpt><trkpt lat="-27.414780042869477" lon="115.8340956791698"><ele>259.0</ele><time>2026-04-15T05:19:30Z</time></trkpt><trkpt lat="-27.414533510519366" lon="115.83423926518637"><ele>259.0</ele><time>2026-04-15T05:19:31Z</time></trkpt><trkpt lat="-27.41404955013273" lon="115.83451457150464"><ele>259.5</ele><time>2026-04-15T05:19:33Z</time></trkpt><trkpt lat="-27.413812692606985" lon="115.8346462625853"><ele>260.0</ele><time>2026-04-15T05:19:34Z</time></trkpt><trkpt lat="-27.413585867208084" lon="115.83477639726514"><ele>260.0</ele><time>2026-04-15T05:19:35Z</time></trkpt><trkpt lat="-27.41336373213789" lon="115.83491017128846"><ele>260.0</ele><time>2026-04-15T05:19:36Z</time></trkpt><trkpt lat="-27.413145803477118" lon="115.83503900532611"><ele>258.5</ele><time>2026-04-15T05:19:37Z</time></trkpt><trkpt lat="-27.412924524797308" lon="115.83516714788739"><ele>257.0</ele><time>2026-04-15T05:19:38Z</time></trkpt><trkpt lat="-27.41270363397709" lon="115.83529167190281"><ele>257.0</ele><time>2026-04-15T05:19:39Z</time></trkpt><trkpt lat="-27.412482982049085" lon="115.83541442756156"><ele>257.0</ele><time>2026-04-15T05:19:40Z</time></trkpt><trkpt lat="-27.412266387491613" lon="115.83553911875529"><ele>258.5</ele><time>2026-04-15T05:19:41Z</time></trkpt><trkpt lat="-27.412051903906306" lon="115.83566473639029"><ele>260.0</ele><time>2026-04-15T05:19:42Z</time></trkpt><trkpt lat="-27.411839408920823" lon="115.83579035707433"><ele>260.0</ele><time>2026-04-15T05:19:43Z</time></trkpt><trkpt lat="-27.411628928485854" lon="115.83591296684874"><ele>260.0</ele><time>2026-04-15T05:19:44Z</time></trkpt><trkpt lat="-27.41142365585297" lon="115.83603214061729"><ele>260.0</ele><time>2026-04-15T05:19:45Z</time></trkpt><trkpt lat="-27.411228421545378" lon="115.83614647791279"><ele>260.0</ele><time>2026-04-15T05:19:46Z</time></trkpt><trkpt lat="-27.41104139402394" lon="115.83625515617535"><ele>260.0</ele><time>2026-04-15T05:19:47Z</time></trkpt><trkpt lat="-27.41086376928428" lon="115.83635484646919"><ele>260.0</ele><time>2026-04-15T05:19:48Z</time></trkpt><trkpt lat="-27.410696938494542" lon="115.83645024431024"><ele>260.0</ele><time>2026-04-15T05:19:49Z</time></trkpt><trkpt lat="-27.410538476948812" lon="115.83654300051607"><ele>260.0</ele><time>2026-04-15T05:19:50Z</time></trkpt><trkpt lat="-27.41037750998272" lon="115.83664105552882"><ele>260.0</ele><time>2026-04-15T05:19:51Z</time></trkpt><trkpt lat="-27.41021073277046" lon="115.83673754722061"><ele>260.0</ele><time>2026-04-15T05:19:52Z</time></trkpt><trkpt lat="-27.409868852671377" lon="115.83692973700838"><ele>260.0</ele><time>2026-04-15T05:19:54Z</time></trkpt><trkpt lat="-27.409695354987743" lon="115.83702827662302"><ele>260.0</ele><time>2026-04-15T05:19:55Z</time></trkpt><trkpt lat="-27.409518359863483" lon="115.8371288097752"><ele>260.0</ele><time>2026-04-15T05:19:56Z</time></trkpt><trkpt lat="-27.409334494148016" lon="115.8372329119149"><ele>260.0</ele><time>2026-04-15T05:19:57Z</time></trkpt><trkpt lat="-27.409150505350127" lon="115.83733632218426"><ele>260.0</ele><time>2026-04-15T05:19:58Z</time></trkpt><trkpt lat="-27.408961554446304" lon="115.83744424835172"><ele>260.0</ele><time>2026-04-15T05:19:59Z</time></trkpt><trkpt lat="-27.40877318118584" lon="115.83755305562619"><ele>259.6666666666667</ele><time>2026-04-15T05:20:00Z</time></trkpt><trkpt lat="-27.408581586238853" lon="115.83766604582429"><ele>259.3333333333333</ele><time>2026-04-15T05:20:01Z</time></trkpt><trkpt lat="-27.408385326995482" lon="115.83777736997465"><ele>259.0</ele><time>2026-04-15T05:20:02Z</time></trkpt><trkpt lat="-27.408189211343444" lon="115.83788848475513"><ele>259.0</ele><time>2026-04-15T05:20:03Z</time></trkpt><trkpt lat="-27.40799672379182" lon="115.83800196737586"><ele>259.0</ele><time>2026-04-15T05:20:04Z</time></trkpt><trkpt lat="-27.407803992251665" lon="115.83811807221163"><ele>259.0</ele><time>2026-04-15T05:20:05Z</time></trkpt><trkpt lat="-27.407610473680815" lon="115.83823112217172"><ele>259.3333333333333</ele><time>2026-04-15T05:20:06Z</time></trkpt><trkpt lat="-27.40741372712994" lon="115.83834602627397"><ele>259.6666666666667</ele><time>2026-04-15T05:20:07Z</time></trkpt><trkpt lat="-27.40721978039555" lon="115.83845962467855"><ele>260.0</ele><time>2026-04-15T05:20:08Z</time></trkpt><trkpt lat="-27.407023667932748" lon="115.8385747270115"><ele>260.0</ele><time>2026-04-15T05:20:09Z</time></trkpt><trkpt lat="-27.40682791837717" lon="115.83868817679591"><ele>260.0</ele><time>2026-04-15T05:20:10Z</time></trkpt><trkpt lat="-27.406629672741737" lon="115.8388042226427"><ele>260.0</ele><time>2026-04-15T05:20:11Z</time></trkpt><trkpt lat="-27.406431241187" lon="115.83891903050741"><ele>258.5</ele><time>2026-04-15T05:20:12Z</time></trkpt><trkpt lat="-27.406232076071493" lon="115.83903431282984"><ele>257.0</ele><time>2026-04-15T05:20:13Z</time></trkpt><trkpt lat="-27.405834792480768" lon="115.83926589110304"><ele>258.0</ele><time>2026-04-15T05:20:15Z</time></trkpt><trkpt lat="-27.405633170507297" lon="115.83938602292932"><ele>259.0</ele><time>2026-04-15T05:20:16Z</time></trkpt><trkpt lat="-27.40543444669502" lon="115.83950193847882"><ele>259.0</ele><time>2026-04-15T05:20:17Z</time></trkpt><trkpt lat="-27.405231439883632" lon="115.83962189179738"><ele>259.0</ele><time>2026-04-15T05:20:18Z</time></trkpt><trkpt lat="-27.405029059202615" lon="115.8397463695726"><ele>259.0</ele><time>2026-04-15T05:20:19Z</time></trkpt><trkpt lat="-27.404827734852404" lon="115.83987526871131"><ele>259.0</ele><time>2026-04-15T05:20:20Z</time></trkpt><trkpt lat="-27.404627217002577" lon="115.84001091611199"><ele>260.0</ele><time>2026-04-15T05:20:21Z</time></trkpt><trkpt lat="-27.404424412142347" lon="115.84016080294684"><ele>261.0</ele><time>2026-04-15T05:20:22Z</time></trkpt><trkpt lat="-27.404223729325256" lon="115.84032023559708"><ele>261.0</ele><time>2026-04-15T05:20:23Z</time></trkpt><trkpt lat="-27.4040256342494" lon="115.84049306805223"><ele>261.0</ele><time>2026-04-15T05:20:24Z</time></trkpt><trkpt lat="-27.403833311543064" lon="115.84067287587983"><ele>261.0</ele><time>2026-04-15T05:20:25Z</time></trkpt><trkpt lat="-27.40364029966456" lon="115.8408608405954"><ele>261.0</ele><time>2026-04-15T05:20:26Z</time></trkpt><trkpt lat="-27.403447352704774" lon="115.84105652762562"><ele>261.0</ele><time>2026-04-15T05:20:27Z</time></trkpt><trkpt lat="-27.40325765840795" lon="115.84125953583462"><ele>261.0</ele><time>2026-04-15T05:20:28Z</time></trkpt><trkpt lat="-27.403070460526155" lon="115.84147301467122"><ele>259.5</ele><time>2026-04-15T05:20:29Z</time></trkpt><trkpt lat="-27.402888243057195" lon="115.84169334174548"><ele>258.0</ele><time>2026-04-15T05:20:30Z</time></trkpt><trkpt lat="-27.402705495160287" lon="115.8419222120015"><ele>258.0</ele><time>2026-04-15T05:20:31Z</time></trkpt><trkpt lat="-27.402526478641267" lon="115.8421561975098"><ele>258.0</ele><time>2026-04-15T05:20:32Z</time></trkpt><trkpt lat="-27.402349934930477" lon="115.84239152340308"><ele>258.0</ele><time>2026-04-15T05:20:33Z</time></trkpt><trkpt lat="-27.402179339333948" lon="115.84262521255977"><ele>258.0</ele><time>2026-04-15T05:20:34Z</time></trkpt><trkpt lat="-27.401833492750917" lon="115.84309294452818"><ele>258.0</ele><time>2026-04-15T05:20:36Z</time></trkpt><trkpt lat="-27.40166599342607" lon="115.84332474018908"><ele>258.0</ele><time>2026-04-15T05:20:37Z</time></trkpt><trkpt lat="-27.401498643725613" lon="115.84355835901034"><ele>258.0</ele><time>2026-04-15T05:20:38Z</time></trkpt><trkpt lat="-27.401329189408585" lon="115.84379110842855"><ele>258.0</ele><time>2026-04-15T05:20:39Z</time></trkpt><trkpt lat="-27.401159884364315" lon="115.8440197326143"><ele>258.0</ele><time>2026-04-15T05:20:40Z</time></trkpt><trkpt lat="-27.400987609899804" lon="115.8442493407467"><ele>258.0</ele><time>2026-04-15T05:20:41Z</time></trkpt><trkpt lat="-27.40081427266699" lon="115.84447954559991"><ele>258.5</ele><time>2026-04-15T05:20:42Z</time></trkpt><trkpt lat="-27.400641496458945" lon="115.8447082153716"><ele>259.0</ele><time>2026-04-15T05:20:43Z</time></trkpt><trkpt lat="-27.40046995292349" lon="115.84493766809912"><ele>258.0</ele><time>2026-04-15T05:20:44Z</time></trkpt><trkpt lat="-27.40029470152238" lon="115.84516603436602"><ele>257.0</ele><time>2026-04-15T05:20:45Z</time></trkpt><trkpt lat="-27.400123156662566" lon="115.84539373366536"><ele>257.0</ele><time>2026-04-15T05:20:46Z</time></trkpt><trkpt lat="-27.39994817076271" lon="115.84562379763031"><ele>257.0</ele><time>2026-04-15T05:20:47Z</time></trkpt><trkpt lat="-27.39976828626249" lon="115.84584384607098"><ele>256.5</ele><time>2026-04-15T05:20:48Z</time></trkpt><trkpt lat="-27.399582182581472" lon="115.8460624426802"><ele>256.0</ele><time>2026-04-15T05:20:49Z</time></trkpt><trkpt lat="-27.399395370020535" lon="115.84627915847436"><ele>256.0</ele><time>2026-04-15T05:20:50Z</time></trkpt><trkpt lat="-27.399207724481872" lon="115.84649504680436"><ele>256.0</ele><time>2026-04-15T05:20:51Z</time></trkpt><trkpt lat="-27.39902169589837" lon="115.84670701643441"><ele>257.0</ele><time>2026-04-15T05:20:52Z</time></trkpt><trkpt lat="-27.398836031236296" lon="115.84692028916459"><ele>258.0</ele><time>2026-04-15T05:20:53Z</time></trkpt><trkpt lat="-27.39865044628714" lon="115.84713795793549"><ele>258.5</ele><time>2026-04-15T05:20:54Z</time></trkpt><trkpt lat="-27.39846537016541" lon="115.84735721150419"><ele>259.0</ele><time>2026-04-15T05:20:55Z</time></trkpt><trkpt lat="-27.39809407903182" lon="115.84778806679728"><ele>259.5</ele><time>2026-04-15T05:20:57Z</time></trkpt><trkpt lat="-27.397903817920756" lon="115.8480035108475"><ele>260.0</ele><time>2026-04-15T05:20:58Z</time></trkpt><trkpt lat="-27.397712101020055" lon="115.84822122816091"><ele>260.0</ele><time>2026-04-15T05:20:59Z</time></trkpt><trkpt lat="-27.397517428471165" lon="115.84844366357825"><ele>260.0</ele><time>2026-04-15T05:21:00Z</time></trkpt><trkpt lat="-27.397323770535973" lon="115.8486685034745"><ele>260.0</ele><time>2026-04-15T05:21:01Z</time></trkpt><trkpt lat="-27.397131849692123" lon="115.84889344062967"><ele>260.0</ele><time>2026-04-15T05:21:02Z</time></trkpt><trkpt lat="-27.39694221581114" lon="115.84911662868765"><ele>260.0</ele><time>2026-04-15T05:21:03Z</time></trkpt><trkpt lat="-27.396750850435257" lon="115.8493389701475"><ele>260.0</ele><time>2026-04-15T05:21:04Z</time></trkpt><trkpt lat="-27.396558302082955" lon="115.84956245968172"><ele>260.0</ele><time>2026-04-15T05:21:05Z</time></trkpt><trkpt lat="-27.396364663927432" lon="115.84978600010172"><ele>260.0</ele><time>2026-04-15T05:21:06Z</time></trkpt><trkpt lat="-27.39617091746331" lon="115.85001045424876"><ele>259.0</ele><time>2026-04-15T05:21:07Z</time></trkpt><trkpt lat="-27.395978687446842" lon="115.85023741845458"><ele>258.0</ele><time>2026-04-15T05:21:08Z</time></trkpt><trkpt lat="-27.395788375744115" lon="115.85046231850325"><ele>258.0</ele><time>2026-04-15T05:21:09Z</time></trkpt><trkpt lat="-27.39559753361473" lon="115.8506866159144"><ele>258.0</ele><time>2026-04-15T05:21:10Z</time></trkpt><trkpt lat="-27.395405562973412" lon="115.85091150802981"><ele>260.0</ele><time>2026-04-15T05:21:11Z</time></trkpt><trkpt lat="-27.395212239625554" lon="115.85113462469155"><ele>262.0</ele><time>2026-04-15T05:21:12Z</time></trkpt><trkpt lat="-27.395019370000366" lon="115.85135458582879"><ele>262.0</ele><time>2026-04-15T05:21:13Z</time></trkpt><trkpt lat="-27.394828557975636" lon="115.85157212243698"><ele>262.0</ele><time>2026-04-15T05:21:14Z</time></trkpt><trkpt lat="-27.39463798384764" lon="115.85179224347999"><ele>261.0</ele><time>2026-04-15T05:21:15Z</time></trkpt><trkpt lat="-27.394451218520764" lon="115.85201396507613"><ele>260.0</ele><time>2026-04-15T05:21:16Z</time></trkpt><trkpt lat="-27.39407025930092" lon="115.85245923532588"><ele>260.0</ele><time>2026-04-15T05:21:18Z</time></trkpt><trkpt lat="-27.393878456208366" lon="115.85268075602356"><ele>260.0</ele><time>2026-04-15T05:21:19Z</time></trkpt><trkpt lat="-27.39368531452015" lon="115.85289938268063"><ele>260.0</ele><time>2026-04-15T05:21:20Z</time></trkpt><trkpt lat="-27.39349313348765" lon="115.85311839446182"><ele>260.0</ele><time>2026-04-15T05:21:21Z</time></trkpt><trkpt lat="-27.393303972027468" lon="115.85333497376011"><ele>260.0</ele><time>2026-04-15T05:21:22Z</time></trkpt><trkpt lat="-27.393115306002347" lon="115.8535503647843"><ele>260.0</ele><time>2026-04-15T05:21:23Z</time></trkpt><trkpt lat="-27.392927701484222" lon="115.85376905645938"><ele>260.0</ele><time>2026-04-15T05:21:24Z</time></trkpt><trkpt lat="-27.39274367752829" lon="115.85399005513692"><ele>260.0</ele><time>2026-04-15T05:21:25Z</time></trkpt><trkpt lat="-27.39255866759781" lon="115.85421010491831"><ele>260.5</ele><time>2026-04-15T05:21:26Z</time></trkpt><trkpt lat="-27.392372788816328" lon="115.85442684213136"><ele>261.0</ele><time>2026-04-15T05:21:27Z</time></trkpt><trkpt lat="-27.392187836106917" lon="115.85463791385075"><ele>260.5</ele><time>2026-04-15T05:21:28Z</time></trkpt><trkpt lat="-27.392000169431075" lon="115.85484981912825"><ele>260.0</ele><time>2026-04-15T05:21:29Z</time></trkpt><trkpt lat="-27.3918103916624" lon="115.85506438423738"><ele>260.5</ele><time>2026-04-15T05:21:30Z</time></trkpt><trkpt lat="-27.3916202507502" lon="115.85527998986406"><ele>261.0</ele><time>2026-04-15T05:21:31Z</time></trkpt><trkpt lat="-27.3914304828059" lon="115.85550199876889"><ele>259.5</ele><time>2026-04-15T05:21:32Z</time></trkpt><trkpt lat="-27.391238373828905" lon="115.85572424725625"><ele>258.0</ele><time>2026-04-15T05:21:33Z</time></trkpt><trkpt lat="-27.391041372001872" lon="115.85595181865408"><ele>258.5</ele><time>2026-04-15T05:21:34Z</time></trkpt><trkpt lat="-27.390845479850373" lon="115.85617744590617"><ele>259.0</ele><time>2026-04-15T05:21:35Z</time></trkpt><trkpt lat="-27.390661020820982" lon="115.85639083627089"><ele>259.0</ele><time>2026-04-15T05:21:36Z</time></trkpt><trkpt lat="-27.390489836992593" lon="115.85658958102141"><ele>259.0</ele><time>2026-04-15T05:21:37Z</time></trkpt><trkpt lat="-27.39013731625855" lon="115.85699734147934"><ele>259.0</ele><time>2026-04-15T05:21:39Z</time></trkpt><trkpt lat="-27.38996020251179" lon="115.85721124083199"><ele>259.0</ele><time>2026-04-15T05:21:40Z</time></trkpt><trkpt lat="-27.3897852402282" lon="115.8574333621276"><ele>259.0</ele><time>2026-04-15T05:21:41Z</time></trkpt><trkpt lat="-27.389614904765665" lon="115.85766116506564"><ele>259.0</ele><time>2026-04-15T05:21:42Z</time></trkpt><trkpt lat="-27.389450577069077" lon="115.85789979722759"><ele>259.0</ele><time>2026-04-15T05:21:43Z</time></trkpt><trkpt lat="-27.389296396471753" lon="115.85815310592686"><ele>259.0</ele><time>2026-04-15T05:21:44Z</time></trkpt><trkpt lat="-27.38915396625085" lon="115.85841682528569"><ele>258.0</ele><time>2026-04-15T05:21:45Z</time></trkpt><trkpt lat="-27.389012585400522" lon="115.85868515720473"><ele>257.0</ele><time>2026-04-15T05:21:46Z</time></trkpt><trkpt lat="-27.3888693637179" lon="115.85895110553805"><ele>258.5</ele><time>2026-04-15T05:21:47Z</time></trkpt><trkpt lat="-27.388727665717646" lon="115.85921646803416"><ele>260.0</ele><time>2026-04-15T05:21:48Z</time></trkpt><trkpt lat="-27.388586218767742" lon="115.85948690167969"><ele>260.0</ele><time>2026-04-15T05:21:49Z</time></trkpt><trkpt lat="-27.38844415860657" lon="115.85975381194463"><ele>260.0</ele><time>2026-04-15T05:21:50Z</time></trkpt><trkpt lat="-27.38830031370545" lon="115.86001943230686"><ele>259.5</ele><time>2026-04-15T05:21:51Z</time></trkpt><trkpt lat="-27.38815595590817" lon="115.86028377203822"><ele>259.0</ele><time>2026-04-15T05:21:52Z</time></trkpt><trkpt lat="-27.38801206862947" lon="115.86054576647022"><ele>259.0</ele><time>2026-04-15T05:21:53Z</time></trkpt><trkpt lat="-27.38786841705562" lon="115.86080805760733"><ele>259.0</ele><time>2026-04-15T05:21:54Z</time></trkpt><trkpt lat="-27.387724527405013" lon="115.86106880118754"><ele>259.0</ele><time>2026-04-15T05:21:55Z</time></trkpt><trkpt lat="-27.38758344729901" lon="115.86132768633286"><ele>259.0</ele><time>2026-04-15T05:21:56Z</time></trkpt><trkpt lat="-27.387441342329158" lon="115.86158846278657"><ele>259.0</ele><time>2026-04-15T05:21:57Z</time></trkpt><trkpt lat="-27.38730089302493" lon="115.86185101090908"><ele>259.0</ele><time>2026-04-15T05:21:58Z</time></trkpt><trkpt lat="-27.38701737649344" lon="115.86237818389321"><ele>259.5</ele><time>2026-04-15T05:22:00Z</time></trkpt><trkpt lat="-27.386873682808723" lon="115.86264256065533"><ele>260.0</ele><time>2026-04-15T05:22:01Z</time></trkpt><trkpt lat="-27.38672612469254" lon="115.86291131165666"><ele>260.0</ele><time>2026-04-15T05:22:02Z</time></trkpt><trkpt lat="-27.38657630821703" lon="115.86318534302717"><ele>260.0</ele><time>2026-04-15T05:22:03Z</time></trkpt><trkpt lat="-27.386427112372573" lon="115.86346182973715"><ele>259.5</ele><time>2026-04-15T05:22:04Z</time></trkpt><trkpt lat="-27.386276990452675" lon="115.86373912299224"><ele>259.0</ele><time>2026-04-15T05:22:05Z</time></trkpt><trkpt lat="-27.386127135538114" lon="115.86401772885148"><ele>260.0</ele><time>2026-04-15T05:22:06Z</time></trkpt><trkpt lat="-27.385975887343054" lon="115.8642970590964"><ele>261.0</ele><time>2026-04-15T05:22:07Z</time></trkpt><trkpt lat="-27.385823200921713" lon="115.86457652326155"><ele>261.0</ele><time>2026-04-15T05:22:08Z</time></trkpt><trkpt lat="-27.385671138876887" lon="115.86485373067809"><ele>261.0</ele><time>2026-04-15T05:22:09Z</time></trkpt><trkpt lat="-27.385520641939515" lon="115.8651306519434"><ele>260.0</ele><time>2026-04-15T05:22:10Z</time></trkpt><trkpt lat="-27.385371218546478" lon="115.86540943946343"><ele>259.0</ele><time>2026-04-15T05:22:11Z</time></trkpt><trkpt lat="-27.385220485365583" lon="115.86568948903644"><ele>259.5</ele><time>2026-04-15T05:22:12Z</time></trkpt><trkpt lat="-27.385070325141594" lon="115.86597532382976"><ele>260.0</ele><time>2026-04-15T05:22:13Z</time></trkpt><trkpt lat="-27.38492232808569" lon="115.86625632902741"><ele>260.0</ele><time>2026-04-15T05:22:14Z</time></trkpt><trkpt lat="-27.384771496772018" lon="115.86653680248845"><ele>260.0</ele><time>2026-04-15T05:22:15Z</time></trkpt><trkpt lat="-27.384619494285943" lon="115.8668166578225"><ele>259.0</ele><time>2026-04-15T05:22:16Z</time></trkpt><trkpt lat="-27.384466089090218" lon="115.8670950712079"><ele>258.0</ele><time>2026-04-15T05:22:17Z</time></trkpt><trkpt lat="-27.38431341435448" lon="115.86736959995712"><ele>259.0</ele><time>2026-04-15T05:22:18Z</time></trkpt><trkpt lat="-27.38401315137107" lon="115.86791515272016"><ele>259.0</ele><time>2026-04-15T05:22:20Z</time></trkpt><trkpt lat="-27.383865923725438" lon="115.86818642292303"><ele>259.0</ele><time>2026-04-15T05:22:21Z</time></trkpt><trkpt lat="-27.38371423434077" lon="115.8684554254475"><ele>259.0</ele><time>2026-04-15T05:22:22Z</time></trkpt><trkpt lat="-27.383557235095108" lon="115.8687190567266"><ele>259.0</ele><time>2026-04-15T05:22:23Z</time></trkpt><trkpt lat="-27.383395364800915" lon="115.86898108952661"><ele>259.0</ele><time>2026-04-15T05:22:24Z</time></trkpt><trkpt lat="-27.383228836920274" lon="115.8692393723855"><ele>259.0</ele><time>2026-04-15T05:22:25Z</time></trkpt><trkpt lat="-27.383058188597253" lon="115.86949510069518"><ele>259.0</ele><time>2026-04-15T05:22:26Z</time></trkpt><trkpt lat="-27.38287846417899" lon="115.86974183316137"><ele>259.0</ele><time>2026-04-15T05:22:27Z</time></trkpt><trkpt lat="-27.382685063933025" lon="115.86998115446315"><ele>259.0</ele><time>2026-04-15T05:22:28Z</time></trkpt><trkpt lat="-27.382482622675035" lon="115.8702082285956"><ele>259.0</ele><time>2026-04-15T05:22:29Z</time></trkpt><trkpt lat="-27.382271517341024" lon="115.87042899611225"><ele>259.5</ele><time>2026-04-15T05:22:30Z</time></trkpt><trkpt lat="-27.38205735771927" lon="115.87063910276044"><ele>260.0</ele><time>2026-04-15T05:22:31Z</time></trkpt><trkpt lat="-27.38183901332223" lon="115.87084541055607"><ele>259.5</ele><time>2026-04-15T05:22:32Z</time></trkpt><trkpt lat="-27.38162176491004" lon="115.87104828874143"><ele>259.0</ele><time>2026-04-15T05:22:33Z</time></trkpt><trkpt lat="-27.381404018425226" lon="115.87125216204551"><ele>260.0</ele><time>2026-04-15T05:22:34Z</time></trkpt><trkpt lat="-27.38118644506655" lon="115.87145711940838"><ele>261.0</ele><time>2026-04-15T05:22:35Z</time></trkpt><trkpt lat="-27.380966453843193" lon="115.87166429848025"><ele>261.0</ele><time>2026-04-15T05:22:36Z</time></trkpt><trkpt lat="-27.380743595645672" lon="115.87187579835418"><ele>261.0</ele><time>2026-04-15T05:22:37Z</time></trkpt><trkpt lat="-27.380524160295945" lon="115.87208530783921"><ele>261.0</ele><time>2026-04-15T05:22:38Z</time></trkpt><trkpt lat="-27.380301978359963" lon="115.87229828037793"><ele>261.0</ele><time>2026-04-15T05:22:39Z</time></trkpt><trkpt lat="-27.379863023613474" lon="115.87272114700241"><ele>260.0</ele><time>2026-04-15T05:22:41Z</time></trkpt><trkpt lat="-27.379642022627614" lon="115.87292975165987"><ele>259.0</ele><time>2026-04-15T05:22:42Z</time></trkpt><trkpt lat="-27.379419880594014" lon="115.87313986747678"><ele>259.0</ele><time>2026-04-15T05:22:43Z</time></trkpt><trkpt lat="-27.379196368824857" lon="115.87335132610315"><ele>259.0</ele><time>2026-04-15T05:22:44Z</time></trkpt><trkpt lat="-27.37897278062289" lon="115.87356344532711"><ele>258.5</ele><time>2026-04-15T05:22:45Z</time></trkpt><trkpt lat="-27.37874730789135" lon="115.87377665607204"><ele>258.0</ele><time>2026-04-15T05:22:46Z</time></trkpt><trkpt lat="-27.378523731055505" lon="115.873990500742"><ele>258.0</ele><time>2026-04-15T05:22:47Z</time></trkpt><trkpt lat="-27.3783022668404" lon="115.8742059568695"><ele>258.0</ele><time>2026-04-15T05:22:48Z</time></trkpt><trkpt lat="-27.37808156415604" lon="115.87442134665241"><ele>257.5</ele><time>2026-04-15T05:22:49Z</time></trkpt><trkpt lat="-27.377858055514626" lon="115.87463755419377"><ele>257.0</ele><time>2026-04-15T05:22:50Z</time></trkpt><trkpt lat="-27.377632424195326" lon="115.87485022718434"><ele>257.0</ele><time>2026-04-15T05:22:51Z</time></trkpt><trkpt lat="-27.377407104020392" lon="115.87506089014325"><ele>257.0</ele><time>2026-04-15T05:22:52Z</time></trkpt><trkpt lat="-27.377183678985794" lon="115.8752740265696"><ele>259.5</ele><time>2026-04-15T05:22:53Z</time></trkpt><trkpt lat="-27.376962208564695" lon="115.87548730538391"><ele>262.0</ele><time>2026-04-15T05:22:54Z</time></trkpt><trkpt lat="-27.376741235449728" lon="115.8757023092954"><ele>262.0</ele><time>2026-04-15T05:22:55Z</time></trkpt><trkpt lat="-27.376521546661273" lon="115.87591195546469"><ele>262.0</ele><time>2026-04-15T05:22:56Z</time></trkpt><trkpt lat="-27.376299672342885" lon="115.87612212096715"><ele>262.0</ele><time>2026-04-15T05:22:57Z</time></trkpt><trkpt lat="-27.376072602593407" lon="115.87632814557946"><ele>262.0</ele><time>2026-04-15T05:22:58Z</time></trkpt><trkpt lat="-27.37584706155164" lon="115.87653491140122"><ele>262.0</ele><time>2026-04-15T05:22:59Z</time></trkpt><trkpt lat="-27.37562193268355" lon="115.87674024753986"><ele>262.0</ele><time>2026-04-15T05:23:00Z</time></trkpt><trkpt lat="-27.375170869897204" lon="115.8771534033377"><ele>261.0</ele><time>2026-04-15T05:23:02Z</time></trkpt><trkpt lat="-27.374950805313755" lon="115.87735461287997"><ele>260.0</ele><time>2026-04-15T05:23:03Z</time></trkpt><trkpt lat="-27.374731129161354" lon="115.87755476843941"><ele>259.5</ele><time>2026-04-15T05:23:04Z</time></trkpt><trkpt lat="-27.374515255454973" lon="115.87775229874981"><ele>259.0</ele><time>2026-04-15T05:23:05Z</time></trkpt><trkpt lat="-27.374298862110333" lon="115.87794900989692"><ele>259.0</ele><time>2026-04-15T05:23:06Z</time></trkpt><trkpt lat="-27.37408591533978" lon="115.87814186054533"><ele>259.0</ele><time>2026-04-15T05:23:07Z</time></trkpt><trkpt lat="-27.373873024722663" lon="115.87833190099848"><ele>259.0</ele><time>2026-04-15T05:23:08Z</time></trkpt><trkpt lat="-27.373655286769804" lon="115.87852384739432"><ele>259.0</ele><time>2026-04-15T05:23:09Z</time></trkpt><trkpt lat="-27.37343905592982" lon="115.87870873332355"><ele>259.0</ele><time>2026-04-15T05:23:10Z</time></trkpt><trkpt lat="-27.373221477011683" lon="115.87889667362704"><ele>259.0</ele><time>2026-04-15T05:23:11Z</time></trkpt><trkpt lat="-27.373008263650114" lon="115.87909018845464"><ele>258.5</ele><time>2026-04-15T05:23:12Z</time></trkpt><trkpt lat="-27.372798041054335" lon="115.87928524844601"><ele>258.0</ele><time>2026-04-15T05:23:13Z</time></trkpt><trkpt lat="-27.372588809820993" lon="115.87947955746064"><ele>258.0</ele><time>2026-04-15T05:23:14Z</time></trkpt><trkpt lat="-27.372380178818144" lon="115.8796721727749"><ele>258.0</ele><time>2026-04-15T05:23:15Z</time></trkpt><trkpt lat="-27.372170926078386" lon="115.87986466106113"><ele>259.0</ele><time>2026-04-15T05:23:16Z</time></trkpt><trkpt lat="-27.371958297689574" lon="115.8800571827784"><ele>260.0</ele><time>2026-04-15T05:23:17Z</time></trkpt><trkpt lat="-27.37174371532077" lon="115.88024879881769"><ele>260.0</ele><time>2026-04-15T05:23:18Z</time></trkpt><trkpt lat="-27.371526129843723" lon="115.8804430932982"><ele>260.0</ele><time>2026-04-15T05:23:19Z</time></trkpt><trkpt lat="-27.37130806656873" lon="115.88063499727662"><ele>260.5</ele><time>2026-04-15T05:23:20Z</time></trkpt><trkpt lat="-27.37108839861286" lon="115.88083108289564"><ele>261.0</ele><time>2026-04-15T05:23:21Z</time></trkpt><trkpt lat="-27.370643296983562" lon="115.88123731845894"><ele>260.0</ele><time>2026-04-15T05:23:23Z</time></trkpt><trkpt lat="-27.37041804445361" lon="115.88144057096176"><ele>259.0</ele><time>2026-04-15T05:23:24Z</time></trkpt><trkpt lat="-27.37019260743075" lon="115.88164329777219"><ele>259.0</ele><time>2026-04-15T05:23:25Z</time></trkpt><trkpt lat="-27.369967883110483" lon="115.88184536657145"><ele>259.0</ele><time>2026-04-15T05:23:26Z</time></trkpt><trkpt lat="-27.36974266575021" lon="115.88204755322998"><ele>259.5</ele><time>2026-04-15T05:23:27Z</time></trkpt><trkpt lat="-27.36951529858714" lon="115.88225154938206"><ele>260.0</ele><time>2026-04-15T05:23:28Z</time></trkpt><trkpt lat="-27.369287430125304" lon="115.88245661367696"><ele>260.0</ele><time>2026-04-15T05:23:29Z</time></trkpt><trkpt lat="-27.369054295347755" lon="115.8826643470738"><ele>260.0</ele><time>2026-04-15T05:23:30Z</time></trkpt><trkpt lat="-27.368820401184568" lon="115.88287430991652"><ele>260.0</ele><time>2026-04-15T05:23:31Z</time></trkpt><trkpt lat="-27.368587879287805" lon="115.88308781631143"><ele>260.0</ele><time>2026-04-15T05:23:32Z</time></trkpt><trkpt lat="-27.368357868259352" lon="115.8832994387698"><ele>260.5</ele><time>2026-04-15T05:23:33Z</time></trkpt><trkpt lat="-27.368125907140872" lon="115.88351058799472"><ele>261.0</ele><time>2026-04-15T05:23:34Z</time></trkpt><trkpt lat="-27.367893503585247" lon="115.88372094443929"><ele>261.0</ele><time>2026-04-15T05:23:35Z</time></trkpt><trkpt lat="-27.367660019944143" lon="115.8839299096347"><ele>261.0</ele><time>2026-04-15T05:23:36Z</time></trkpt><trkpt lat="-27.367426047935282" lon="115.88413267050665"><ele>260.0</ele><time>2026-04-15T05:23:37Z</time></trkpt><trkpt lat="-27.367187970142943" lon="115.88432730070997"><ele>259.0</ele><time>2026-04-15T05:23:38Z</time></trkpt><trkpt lat="-27.366944542730668" lon="115.88451503715436"><ele>259.0</ele><time>2026-04-15T05:23:39Z</time></trkpt><trkpt lat="-27.366700681662355" lon="115.88469405500312"><ele>259.0</ele><time>2026-04-15T05:23:40Z</time></trkpt><trkpt lat="-27.366450687745754" lon="115.8848690581478"><ele>259.5</ele><time>2026-04-15T05:23:41Z</time></trkpt><trkpt lat="-27.366196603652387" lon="115.88503369142067"><ele>260.0</ele><time>2026-04-15T05:23:42Z</time></trkpt><trkpt lat="-27.365676599750255" lon="115.8853460133925"><ele>261.0</ele><time>2026-04-15T05:23:44Z</time></trkpt><trkpt lat="-27.365415959413156" lon="115.88549584140837"><ele>262.0</ele><time>2026-04-15T05:23:45Z</time></trkpt><trkpt lat="-27.36515585250341" lon="115.88564361384267"><ele>262.0</ele><time>2026-04-15T05:23:46Z</time></trkpt><trkpt lat="-27.364899263337417" lon="115.88578763815998"><ele>262.0</ele><time>2026-04-15T05:23:47Z</time></trkpt><trkpt lat="-27.36464092567458" lon="115.8859335771662"><ele>260.0</ele><time>2026-04-15T05:23:48Z</time></trkpt><trkpt lat="-27.36438507234486" lon="115.88608108830039"><ele>258.0</ele><time>2026-04-15T05:23:49Z</time></trkpt><trkpt lat="-27.364130368372347" lon="115.88623076108757"><ele>258.0</ele><time>2026-04-15T05:23:50Z</time></trkpt><trkpt lat="-27.363874693466357" lon="115.88637921125071"><ele>258.0</ele><time>2026-04-15T05:23:51Z</time></trkpt><trkpt lat="-27.363616761480834" lon="115.88652510952265"><ele>258.5</ele><time>2026-04-15T05:23:52Z</time></trkpt><trkpt lat="-27.363361709566338" lon="115.88667230917036"><ele>259.0</ele><time>2026-04-15T05:23:53Z</time></trkpt><trkpt lat="-27.363106378102948" lon="115.88682309570966"><ele>259.5</ele><time>2026-04-15T05:23:54Z</time></trkpt><trkpt lat="-27.36285388851504" lon="115.88697103279642"><ele>260.0</ele><time>2026-04-15T05:23:55Z</time></trkpt><trkpt lat="-27.36260279458702" lon="115.88711315296061"><ele>260.0</ele><time>2026-04-15T05:23:56Z</time></trkpt><trkpt lat="-27.36235338545164" lon="115.88725223889871"><ele>260.0</ele><time>2026-04-15T05:23:57Z</time></trkpt><trkpt lat="-27.362104343450575" lon="115.88739341344885"><ele>260.5</ele><time>2026-04-15T05:23:58Z</time></trkpt><trkpt lat="-27.361858202444584" lon="115.8875363804796"><ele>261.0</ele><time>2026-04-15T05:23:59Z</time></trkpt><trkpt lat="-27.361611335963914" lon="115.88767984578769"><ele>260.0</ele><time>2026-04-15T05:24:00Z</time></trkpt><trkpt lat="-27.36136534649631" lon="115.88782240273255"><ele>259.0</ele><time>2026-04-15T05:24:01Z</time></trkpt><trkpt lat="-27.36111709522516" lon="115.887962976063"><ele>259.0</ele><time>2026-04-15T05:24:02Z</time></trkpt><trkpt lat="-27.36087031723709" lon="115.88810369510486"><ele>259.0</ele><time>2026-04-15T05:24:03Z</time></trkpt><trkpt lat="-27.36038393050254" lon="115.88838758939386"><ele>258.0</ele><time>2026-04-15T05:24:05Z</time></trkpt><trkpt lat="-27.36014209834735" lon="115.88852620177964"><ele>257.0</ele><time>2026-04-15T05:24:06Z</time></trkpt><trkpt lat="-27.359897708482272" lon="115.88866136113381"><ele>259.0</ele><time>2026-04-15T05:24:07Z</time></trkpt><trkpt lat="-27.359651918064536" lon="115.88879130550357"><ele>261.0</ele><time>2026-04-15T05:24:08Z</time></trkpt><trkpt lat="-27.35940794668309" lon="115.88891757662641"><ele>261.0</ele><time>2026-04-15T05:24:09Z</time></trkpt><trkpt lat="-27.359164249240745" lon="115.8890429506941"><ele>261.0</ele><time>2026-04-15T05:24:10Z</time></trkpt><trkpt lat="-27.35891626347982" lon="115.88916414600418"><ele>260.0</ele><time>2026-04-15T05:24:11Z</time></trkpt><trkpt lat="-27.358663736490172" lon="115.8892781291004"><ele>259.0</ele><time>2026-04-15T05:24:12Z</time></trkpt><trkpt lat="-27.35840700685928" lon="115.88938855261725"><ele>259.0</ele><time>2026-04-15T05:24:13Z</time></trkpt><trkpt lat="-27.358147695187654" lon="115.8894960231382"><ele>259.0</ele><time>2026-04-15T05:24:14Z</time></trkpt><trkpt lat="-27.357887552497044" lon="115.88959266819806"><ele>260.0</ele><time>2026-04-15T05:24:15Z</time></trkpt><trkpt lat="-27.357627204341703" lon="115.88968069725209"><ele>261.0</ele><time>2026-04-15T05:24:16Z</time></trkpt><trkpt lat="-27.357365732344544" lon="115.88976419620124"><ele>260.5</ele><time>2026-04-15T05:24:17Z</time></trkpt><trkpt lat="-27.35709661258572" lon="115.88983995428941"><ele>260.0</ele><time>2026-04-15T05:24:18Z</time></trkpt><trkpt lat="-27.356822806323073" lon="115.88990496458776"><ele>260.0</ele><time>2026-04-15T05:24:19Z</time></trkpt><trkpt lat="-27.356543498254748" lon="115.88996459975486"><ele>260.0</ele><time>2026-04-15T05:24:20Z</time></trkpt><trkpt lat="-27.3562663413761" lon="115.89002333893482"><ele>260.5</ele><time>2026-04-15T05:24:21Z</time></trkpt><trkpt lat="-27.35599097832417" lon="115.89008153951843"><ele>261.0</ele><time>2026-04-15T05:24:22Z</time></trkpt><trkpt lat="-27.355715468562916" lon="115.89014074081962"><ele>261.0</ele><time>2026-04-15T05:24:23Z</time></trkpt><trkpt lat="-27.35544035166125" lon="115.890201595733"><ele>261.0</ele><time>2026-04-15T05:24:24Z</time></trkpt><trkpt lat="-27.354891303635668" lon="115.89032614006565"><ele>261.0</ele><time>2026-04-15T05:24:26Z</time></trkpt><trkpt lat="-27.354618275211735" lon="115.890384241854"><ele>261.0</ele><time>2026-04-15T05:24:27Z</time></trkpt><trkpt lat="-27.354347497139333" lon="115.89044495735295"><ele>261.0</ele><time>2026-04-15T05:24:28Z</time></trkpt><trkpt lat="-27.35407704085302" lon="115.89050580881035"><ele>261.0</ele><time>2026-04-15T05:24:29Z</time></trkpt><trkpt lat="-27.353807679916052" lon="115.89056493717057"><ele>261.5</ele><time>2026-04-15T05:24:30Z</time></trkpt><trkpt lat="-27.353537810648632" lon="115.8906220689371"><ele>262.0</ele><time>2026-04-15T05:24:31Z</time></trkpt><trkpt lat="-27.35327099794797" lon="115.89068136991611"><ele>261.0</ele><time>2026-04-15T05:24:32Z</time></trkpt><trkpt lat="-27.353004362427082" lon="115.8907426292644"><ele>260.0</ele><time>2026-04-15T05:24:33Z</time></trkpt><trkpt lat="-27.352735466338743" lon="115.89080512159255"><ele>260.0</ele><time>2026-04-15T05:24:34Z</time></trkpt><trkpt lat="-27.352470367600294" lon="115.89086694276504"><ele>260.0</ele><time>2026-04-15T05:24:35Z</time></trkpt><trkpt lat="-27.352206127300015" lon="115.89093140883938"><ele>260.0</ele><time>2026-04-15T05:24:36Z</time></trkpt><trkpt lat="-27.351940200947116" lon="115.89099452715502"><ele>260.0</ele><time>2026-04-15T05:24:37Z</time></trkpt><trkpt lat="-27.351676880784733" lon="115.89105406190308"><ele>260.0</ele><time>2026-04-15T05:24:38Z</time></trkpt><trkpt lat="-27.351413108454317" lon="115.89111180280997"><ele>260.0</ele><time>2026-04-15T05:24:39Z</time></trkpt><trkpt lat="-27.35115574304908" lon="115.89117210573613"><ele>260.0</ele><time>2026-04-15T05:24:40Z</time></trkpt><trkpt lat="-27.350899283970154" lon="115.89123489617381"><ele>260.0</ele><time>2026-04-15T05:24:41Z</time></trkpt><trkpt lat="-27.35064482141623" lon="115.89129737312795"><ele>259.5</ele><time>2026-04-15T05:24:42Z</time></trkpt><trkpt lat="-27.35039156306111" lon="115.89135381871088"><ele>259.0</ele><time>2026-04-15T05:24:43Z</time></trkpt><trkpt lat="-27.350135841055053" lon="115.89141005689775"><ele>259.0</ele><time>2026-04-15T05:24:44Z</time></trkpt><trkpt lat="-27.349881297409762" lon="115.89146635529468"><ele>259.0</ele><time>2026-04-15T05:24:45Z</time></trkpt><trkpt lat="-27.349362940934594" lon="115.8915709851451"><ele>259.5</ele><time>2026-04-15T05:24:47Z</time></trkpt><trkpt lat="-27.34910134219022" lon="115.8916185870318"><ele>260.0</ele><time>2026-04-15T05:24:48Z</time></trkpt><trkpt lat="-27.34884039681715" lon="115.89166834985546"><ele>260.0</ele><time>2026-04-15T05:24:49Z</time></trkpt><trkpt lat="-27.348578377782406" lon="115.8917243023871"><ele>260.0</ele><time>2026-04-15T05:24:50Z</time></trkpt><trkpt lat="-27.3483139791377" lon="115.8917834452401"><ele>261.0</ele><time>2026-04-15T05:24:51Z</time></trkpt><trkpt lat="-27.34805059955315" lon="115.89184318701656"><ele>262.0</ele><time>2026-04-15T05:24:52Z</time></trkpt><trkpt lat="-27.347783974395007" lon="115.89190569374314"><ele>262.5</ele><time>2026-04-15T05:24:53Z</time></trkpt><trkpt lat="-27.347515970539245" lon="115.89196729309708"><ele>263.0</ele><time>2026-04-15T05:24:54Z</time></trkpt><trkpt lat="-27.347243194211945" lon="115.89202753148355"><ele>263.5</ele><time>2026-04-15T05:24:55Z</time></trkpt><trkpt lat="-27.346966920005336" lon="115.89208839402991"><ele>264.0</ele><time>2026-04-15T05:24:56Z</time></trkpt><trkpt lat="-27.34668902076795" lon="115.89215204962704"><ele>264.0</ele><time>2026-04-15T05:24:57Z</time></trkpt><trkpt lat="-27.3464146321244" lon="115.89221493790534"><ele>264.0</ele><time>2026-04-15T05:24:58Z</time></trkpt><trkpt lat="-27.346145212107256" lon="115.89227615066523"><ele>263.5</ele><time>2026-04-15T05:24:59Z</time></trkpt><trkpt lat="-27.34587971594611" lon="115.89233645812737"><ele>263.0</ele><time>2026-04-15T05:25:00Z</time></trkpt><trkpt lat="-27.34561663349855" lon="115.8923980894579"><ele>262.5</ele><time>2026-04-15T05:25:01Z</time></trkpt><trkpt lat="-27.345355833882863" lon="115.89246049694958"><ele>262.0</ele><time>2026-04-15T05:25:02Z</time></trkpt><trkpt lat="-27.345096251324545" lon="115.89252130557432"><ele>262.0</ele><time>2026-04-15T05:25:03Z</time></trkpt><trkpt lat="-27.34483548678553" lon="115.89258002329906"><ele>262.0</ele><time>2026-04-15T05:25:04Z</time></trkpt><trkpt lat="-27.344578310806153" lon="115.89263701607804"><ele>262.0</ele><time>2026-04-15T05:25:05Z</time></trkpt><trkpt lat="-27.34431868242472" lon="115.89269089269752"><ele>262.0</ele><time>2026-04-15T05:25:06Z</time></trkpt><trkpt lat="-27.34380052607427" lon="115.89280107021298"><ele>262.0</ele><time>2026-04-15T05:25:08Z</time></trkpt><trkpt lat="-27.34354171307297" lon="115.89285877957853"><ele>262.0</ele><time>2026-04-15T05:25:09Z</time></trkpt><trkpt lat="-27.34328076815438" lon="115.8929175470179"><ele>263.0</ele><time>2026-04-15T05:25:10Z</time></trkpt><trkpt lat="-27.343017439148667" lon="115.89297815179425"><ele>264.0</ele><time>2026-04-15T05:25:11Z</time></trkpt><trkpt lat="-27.342752928272336" lon="115.89304015465592"><ele>264.0</ele><time>2026-04-15T05:25:12Z</time></trkpt><trkpt lat="-27.342488471191075" lon="115.89310055352138"><ele>264.0</ele><time>2026-04-15T05:25:13Z</time></trkpt><trkpt lat="-27.342222733865622" lon="115.8931593241894"><ele>262.5</ele><time>2026-04-15T05:25:14Z</time></trkpt><trkpt lat="-27.341956721270343" lon="115.89321743465385"><ele>261.0</ele><time>2026-04-15T05:25:15Z</time></trkpt><trkpt lat="-27.34168876460996" lon="115.89327603054014"><ele>261.0</ele><time>2026-04-15T05:25:16Z</time></trkpt><trkpt lat="-27.34141955845221" lon="115.8933366128638"><ele>261.0</ele><time>2026-04-15T05:25:17Z</time></trkpt><trkpt lat="-27.341148915256703" lon="115.89339878068797"><ele>261.5</ele><time>2026-04-15T05:25:18Z</time></trkpt><trkpt lat="-27.340878113479288" lon="115.89346229455658"><ele>262.0</ele><time>2026-04-15T05:25:19Z</time></trkpt><trkpt lat="-27.340608752075468" lon="115.89352553122659"><ele>262.5</ele><time>2026-04-15T05:25:20Z</time></trkpt><trkpt lat="-27.340338567627505" lon="115.8935889377202"><ele>263.0</ele><time>2026-04-15T05:25:21Z</time></trkpt><trkpt lat="-27.340069472569912" lon="115.89365153797961"><ele>263.0</ele><time>2026-04-15T05:25:22Z</time></trkpt><trkpt lat="-27.339801624808675" lon="115.89371233642059"><ele>263.0</ele><time>2026-04-15T05:25:23Z</time></trkpt><trkpt lat="-27.33953126809539" lon="115.89377015239168"><ele>262.0</ele><time>2026-04-15T05:25:24Z</time></trkpt><trkpt lat="-27.339254827268423" lon="115.89382805633623"><ele>261.0</ele><time>2026-04-15T05:25:25Z</time></trkpt><trkpt lat="-27.33897536572204" lon="115.89388481388303"><ele>260.5</ele><time>2026-04-15T05:25:26Z</time></trkpt><trkpt lat="-27.338697444330812" lon="115.89394189070546"><ele>260.0</ele><time>2026-04-15T05:25:27Z</time></trkpt><trkpt lat="-27.338148838535048" lon="115.89405954791945"><ele>261.5</ele><time>2026-04-15T05:25:29Z</time></trkpt><trkpt lat="-27.337878096414897" lon="115.89411735680318"><ele>263.0</ele><time>2026-04-15T05:25:30Z</time></trkpt><trkpt lat="-27.337608998700755" lon="115.89417515183821"><ele>263.0</ele><time>2026-04-15T05:25:31Z</time></trkpt><trkpt lat="-27.337344116029794" lon="115.8942345953551"><ele>263.0</ele><time>2026-04-15T05:25:32Z</time></trkpt><trkpt lat="-27.33707890380808" lon="115.89429818471712"><ele>261.5</ele><time>2026-04-15T05:25:33Z</time></trkpt><trkpt lat="-27.33681588594291" lon="115.89436329017096"><ele>260.0</ele><time>2026-04-15T05:25:34Z</time></trkpt><trkpt lat="-27.336553592697282" lon="115.89442573417844"><ele>260.5</ele><time>2026-04-15T05:25:35Z</time></trkpt><trkpt lat="-27.33628991343252" lon="115.89448626724348"><ele>261.0</ele><time>2026-04-15T05:25:36Z</time></trkpt><trkpt lat="-27.336031383579872" lon="115.89454559779584"><ele>261.0</ele><time>2026-04-15T05:25:37Z</time></trkpt><trkpt lat="-27.335772955987085" lon="115.8946038814488"><ele>261.0</ele><time>2026-04-15T05:25:38Z</time></trkpt><trkpt lat="-27.335508791473742" lon="115.8946630797952"><ele>262.5</ele><time>2026-04-15T05:25:39Z</time></trkpt><trkpt lat="-27.335242103526042" lon="115.89472222954593"><ele>264.0</ele><time>2026-04-15T05:25:40Z</time></trkpt><trkpt lat="-27.334975187025584" lon="115.89478333471261"><ele>264.0</ele><time>2026-04-15T05:25:41Z</time></trkpt><trkpt lat="-27.334710150512976" lon="115.89484118078731"><ele>264.0</ele><time>2026-04-15T05:25:42Z</time></trkpt><trkpt lat="-27.334442758132855" lon="115.89489715832083"><ele>264.0</ele><time>2026-04-15T05:25:43Z</time></trkpt><trkpt lat="-27.334179766046685" lon="115.89495090966551"><ele>264.0</ele><time>2026-04-15T05:25:44Z</time></trkpt><trkpt lat="-27.333913352792067" lon="115.89500822819062"><ele>264.0</ele><time>2026-04-15T05:25:45Z</time></trkpt><trkpt lat="-27.33365240221953" lon="115.89506788136387"><ele>264.0</ele><time>2026-04-15T05:25:46Z</time></trkpt><trkpt lat="-27.33339086734847" lon="115.89513030062557"><ele>263.5</ele><time>2026-04-15T05:25:47Z</time></trkpt><trkpt lat="-27.333131228417287" lon="115.8951916597676"><ele>263.0</ele><time>2026-04-15T05:25:48Z</time></trkpt><trkpt lat="-27.33260934788483" lon="115.89531212760293"><ele>263.0</ele><time>2026-04-15T05:25:50Z</time></trkpt><trkpt lat="-27.332351145298592" lon="115.89537159333564"><ele>263.0</ele><time>2026-04-15T05:25:51Z</time></trkpt><trkpt lat="-27.332092342395825" lon="115.89542915575792"><ele>263.0</ele><time>2026-04-15T05:25:52Z</time></trkpt><trkpt lat="-27.331834713291418" lon="115.8954869764855"><ele>263.0</ele><time>2026-04-15T05:25:53Z</time></trkpt><trkpt lat="-27.331577584758573" lon="115.89554339560652"><ele>262.5</ele><time>2026-04-15T05:25:54Z</time></trkpt><trkpt lat="-27.331322247052913" lon="115.8956004708341"><ele>262.0</ele><time>2026-04-15T05:25:55Z</time></trkpt><trkpt lat="-27.331066685007603" lon="115.89565899241443"><ele>262.0</ele><time>2026-04-15T05:25:56Z</time></trkpt><trkpt lat="-27.33080969285794" lon="115.89571684613935"><ele>262.0</ele><time>2026-04-15T05:25:57Z</time></trkpt><trkpt lat="-27.33055078530968" lon="115.89577422360362"><ele>261.0</ele><time>2026-04-15T05:25:58Z</time></trkpt><trkpt lat="-27.330293382312103" lon="115.89582918536274"><ele>260.0</ele><time>2026-04-15T05:25:59Z</time></trkpt><trkpt lat="-27.33003565792158" lon="115.89588436452587"><ele>261.0</ele><time>2026-04-15T05:26:00Z</time></trkpt><trkpt lat="-27.32978048417058" lon="115.89593911067709"><ele>262.0</ele><time>2026-04-15T05:26:01Z</time></trkpt><trkpt lat="-27.32952645469337" lon="115.89599412294972"><ele>262.5</ele><time>2026-04-15T05:26:02Z</time></trkpt><trkpt lat="-27.32926908311357" lon="115.89605199178644"><ele>263.0</ele><time>2026-04-15T05:26:03Z</time></trkpt><trkpt lat="-27.32901146586427" lon="115.89611345091086"><ele>262.5</ele><time>2026-04-15T05:26:04Z</time></trkpt><trkpt lat="-27.32875111573327" lon="115.89617213205749"><ele>262.0</ele><time>2026-04-15T05:26:05Z</time></trkpt><trkpt lat="-27.328484789313503" lon="115.89623131708395"><ele>262.0</ele><time>2026-04-15T05:26:06Z</time></trkpt><trkpt lat="-27.328218015340234" lon="115.89628914668019"><ele>262.0</ele><time>2026-04-15T05:26:07Z</time></trkpt><trkpt lat="-27.32794738131745" lon="115.89634723686659"><ele>262.0</ele><time>2026-04-15T05:26:08Z</time></trkpt><trkpt lat="-27.32767484664234" lon="115.89640570352269"><ele>262.0</ele><time>2026-04-15T05:26:09Z</time></trkpt><trkpt lat="-27.327119792605732" lon="115.8965263962655"><ele>263.0</ele><time>2026-04-15T05:26:11Z</time></trkpt><trkpt lat="-27.326835644212075" lon="115.89658778725808"><ele>264.0</ele><time>2026-04-15T05:26:12Z</time></trkpt><trkpt lat="-27.326546680895" lon="115.89665296872236"><ele>263.5</ele><time>2026-04-15T05:26:13Z</time></trkpt><trkpt lat="-27.326255781728033" lon="115.89671669593008"><ele>263.0</ele><time>2026-04-15T05:26:14Z</time></trkpt><trkpt lat="-27.325969803264456" lon="115.8967791205447"><ele>263.0</ele><time>2026-04-15T05:26:15Z</time></trkpt><trkpt lat="-27.325687528324792" lon="115.89684511462816"><ele>263.0</ele><time>2026-04-15T05:26:16Z</time></trkpt><trkpt lat="-27.325407071112604" lon="115.89691082060274"><ele>264.0</ele><time>2026-04-15T05:26:17Z</time></trkpt><trkpt lat="-27.325125420801402" lon="115.89697505430294"><ele>265.0</ele><time>2026-04-15T05:26:18Z</time></trkpt><trkpt lat="-27.324839331636586" lon="115.89703786572083"><ele>264.0</ele><time>2026-04-15T05:26:19Z</time></trkpt><trkpt lat="-27.32455624022488" lon="115.89710200025254"><ele>263.0</ele><time>2026-04-15T05:26:20Z</time></trkpt><trkpt lat="-27.32427420854754" lon="115.89716608528923"><ele>263.0</ele><time>2026-04-15T05:26:21Z</time></trkpt><trkpt lat="-27.323991920345794" lon="115.89722922966142"><ele>263.0</ele><time>2026-04-15T05:26:22Z</time></trkpt><trkpt lat="-27.323711398428998" lon="115.89729109677307"><ele>263.0</ele><time>2026-04-15T05:26:23Z</time></trkpt><trkpt lat="-27.323431342857642" lon="115.89735164486362"><ele>263.0</ele><time>2026-04-15T05:26:24Z</time></trkpt><trkpt lat="-27.32315229149528" lon="115.89741275093976"><ele>263.0</ele><time>2026-04-15T05:26:25Z</time></trkpt><trkpt lat="-27.32287487455835" lon="115.8974745456221"><ele>263.0</ele><time>2026-04-15T05:26:26Z</time></trkpt><trkpt lat="-27.322594890464426" lon="115.89753871023096"><ele>263.0</ele><time>2026-04-15T05:26:27Z</time></trkpt><trkpt lat="-27.322316130717216" lon="115.89760460998733"><ele>263.0</ele><time>2026-04-15T05:26:28Z</time></trkpt><trkpt lat="-27.322034522928263" lon="115.89766953814994"><ele>263.0</ele><time>2026-04-15T05:26:29Z</time></trkpt><trkpt lat="-27.32175203925531" lon="115.89773221049573"><ele>263.0</ele><time>2026-04-15T05:26:30Z</time></trkpt><trkpt lat="-27.321188269497533" lon="115.89784932106699"><ele>262.5</ele><time>2026-04-15T05:26:32Z</time></trkpt><trkpt lat="-27.320904699754415" lon="115.89791165201514"><ele>262.0</ele><time>2026-04-15T05:26:33Z</time></trkpt><trkpt lat="-27.320620199978528" lon="115.89797618957488"><ele>261.0</ele><time>2026-04-15T05:26:34Z</time></trkpt><trkpt lat="-27.320335360996626" lon="115.89804424814888"><ele>260.0</ele><time>2026-04-15T05:26:35Z</time></trkpt><trkpt lat="-27.32004815197823" lon="115.89811102530763"><ele>260.0</ele><time>2026-04-15T05:26:36Z</time></trkpt><trkpt lat="-27.319760122522087" lon="115.89817645059865"><ele>260.0</ele><time>2026-04-15T05:26:37Z</time></trkpt><trkpt lat="-27.3194732943341" lon="115.89824088780236"><ele>261.0</ele><time>2026-04-15T05:26:38Z</time></trkpt><trkpt lat="-27.31918723454909" lon="115.89830832100351"><ele>262.0</ele><time>2026-04-15T05:26:39Z</time></trkpt><trkpt lat="-27.318899319010892" lon="115.89837457379868"><ele>262.0</ele><time>2026-04-15T05:26:40Z</time></trkpt><trkpt lat="-27.31862639480387" lon="115.89843612016112"><ele>262.0</ele><time>2026-04-15T05:26:41Z</time></trkpt><trkpt lat="-27.318365441438203" lon="115.89849330377317"><ele>262.0</ele><time>2026-04-15T05:26:42Z</time></trkpt><trkpt lat="-27.318098233915922" lon="115.89855197244822"><ele>262.0</ele><time>2026-04-15T05:26:43Z</time></trkpt><trkpt lat="-27.317824988371623" lon="115.89861586678299"><ele>262.0</ele><time>2026-04-15T05:26:44Z</time></trkpt><trkpt lat="-27.31754843706318" lon="115.89868525922013"><ele>262.0</ele><time>2026-04-15T05:26:45Z</time></trkpt><trkpt lat="-27.317265287981265" lon="115.89875331857068"><ele>262.5</ele><time>2026-04-15T05:26:46Z</time></trkpt><trkpt lat="-27.31697736413031" lon="115.89881587019721"><ele>263.0</ele><time>2026-04-15T05:26:47Z</time></trkpt><trkpt lat="-27.31668579328183" lon="115.89887239068503"><ele>263.5</ele><time>2026-04-15T05:26:48Z</time></trkpt><trkpt lat="-27.316393692782597" lon="115.89892849259401"><ele>264.0</ele><time>2026-04-15T05:26:49Z</time></trkpt><trkpt lat="-27.316100903572703" lon="115.89898737566995"><ele>264.0</ele><time>2026-04-15T05:26:50Z</time></trkpt><trkpt lat="-27.31580753859004" lon="115.8990463878413"><ele>264.0</ele><time>2026-04-15T05:26:51Z</time></trkpt><trkpt lat="-27.315217159383195" lon="115.89917808416877"><ele>263.5</ele><time>2026-04-15T05:26:53Z</time></trkpt><trkpt lat="-27.314920962833508" lon="115.89924543739139"><ele>263.0</ele><time>2026-04-15T05:26:54Z</time></trkpt><trkpt lat="-27.314623309171953" lon="115.89930933121687"><ele>264.0</ele><time>2026-04-15T05:26:55Z</time></trkpt><trkpt lat="-27.314324685931602" lon="115.89937376394316"><ele>265.0</ele><time>2026-04-15T05:26:56Z</time></trkpt><trkpt lat="-27.314032973400646" lon="115.89943935983894"><ele>264.5</ele><time>2026-04-15T05:26:57Z</time></trkpt><trkpt lat="-27.313741513666063" lon="115.89950535057325"><ele>264.0</ele><time>2026-04-15T05:26:58Z</time></trkpt><trkpt lat="-27.313452679611625" lon="115.89957115264352"><ele>264.0</ele><time>2026-04-15T05:26:59Z</time></trkpt><trkpt lat="-27.313164311906167" lon="115.89963630880172"><ele>264.0</ele><time>2026-04-15T05:27:00Z</time></trkpt><trkpt lat="-27.312880058655146" lon="115.89970155626044"><ele>263.5</ele><time>2026-04-15T05:27:01Z</time></trkpt><trkpt lat="-27.31259962137275" lon="115.89976800572722"><ele>263.0</ele><time>2026-04-15T05:27:02Z</time></trkpt><trkpt lat="-27.312320337810355" lon="115.89983270482156"><ele>263.5</ele><time>2026-04-15T05:27:03Z</time></trkpt><trkpt lat="-27.312045096425905" lon="115.89989650676009"><ele>264.0</ele><time>2026-04-15T05:27:04Z</time></trkpt><trkpt lat="-27.31177169168898" lon="115.89995684247127"><ele>264.0</ele><time>2026-04-15T05:27:05Z</time></trkpt><trkpt lat="-27.311497753580934" lon="115.90001804743139"><ele>264.0</ele><time>2026-04-15T05:27:06Z</time></trkpt><trkpt lat="-27.311227090237793" lon="115.90007889852728"><ele>264.5</ele><time>2026-04-15T05:27:07Z</time></trkpt><trkpt lat="-27.31095210378023" lon="115.90014358582589"><ele>265.0</ele><time>2026-04-15T05:27:08Z</time></trkpt><trkpt lat="-27.310676200417355" lon="115.9002076039683"><ele>265.0</ele><time>2026-04-15T05:27:09Z</time></trkpt><trkpt lat="-27.31040015088274" lon="115.90027051735915"><ele>265.0</ele><time>2026-04-15T05:27:10Z</time></trkpt><trkpt lat="-27.31012688001614" lon="115.90033129282502"><ele>265.0</ele><time>2026-04-15T05:27:11Z</time></trkpt><trkpt lat="-27.30984981885156" lon="115.90039614668228"><ele>265.0</ele><time>2026-04-15T05:27:12Z</time></trkpt><trkpt lat="-27.309299102043074" lon="115.9005125677353"><ele>265.0</ele><time>2026-04-15T05:27:14Z</time></trkpt><trkpt lat="-27.30901777097025" lon="115.9005711323006"><ele>265.0</ele><time>2026-04-15T05:27:15Z</time></trkpt><trkpt lat="-27.308741928179327" lon="115.9006299926498"><ele>265.0</ele><time>2026-04-15T05:27:16Z</time></trkpt><trkpt lat="-27.308466014023942" lon="115.90069002746111"><ele>265.0</ele><time>2026-04-15T05:27:17Z</time></trkpt><trkpt lat="-27.308194022724823" lon="115.90074938398695"><ele>264.5</ele><time>2026-04-15T05:27:18Z</time></trkpt><trkpt lat="-27.30791957227393" lon="115.90080829687341"><ele>264.0</ele><time>2026-04-15T05:27:19Z</time></trkpt><trkpt lat="-27.307646967206487" lon="115.9008670808058"><ele>264.5</ele><time>2026-04-15T05:27:20Z</time></trkpt><trkpt lat="-27.307375067660434" lon="115.90092421781043"><ele>265.0</ele><time>2026-04-15T05:27:21Z</time></trkpt><trkpt lat="-27.3071023147425" lon="115.90097798331882"><ele>266.5</ele><time>2026-04-15T05:27:22Z</time></trkpt><trkpt lat="-27.306827964432998" lon="115.90102840274251"><ele>268.0</ele><time>2026-04-15T05:27:23Z</time></trkpt><trkpt lat="-27.306553054005654" lon="115.90107259044566"><ele>268.0</ele><time>2026-04-15T05:27:24Z</time></trkpt><trkpt lat="-27.306275255169425" lon="115.90111057316884"><ele>268.0</ele><time>2026-04-15T05:27:25Z</time></trkpt><trkpt lat="-27.30599286790901" lon="115.90113999280256"><ele>268.0</ele><time>2026-04-15T05:27:26Z</time></trkpt><trkpt lat="-27.305707660311715" lon="115.90116032621745"><ele>268.0</ele><time>2026-04-15T05:27:27Z</time></trkpt><trkpt lat="-27.305419410467504" lon="115.90117284201487"><ele>267.5</ele><time>2026-04-15T05:27:28Z</time></trkpt><trkpt lat="-27.30512442535563" lon="115.90117790023925"><ele>267.0</ele><time>2026-04-15T05:27:29Z</time></trkpt><trkpt lat="-27.30483406895608" lon="115.90117826448194"><ele>266.5</ele><time>2026-04-15T05:27:30Z</time></trkpt><trkpt lat="-27.304541893486196" lon="115.90117633050662"><ele>266.0</ele><time>2026-04-15T05:27:31Z</time></trkpt><trkpt lat="-27.30425292969371" lon="115.90117020106248"><ele>266.0</ele><time>2026-04-15T05:27:32Z</time></trkpt><trkpt lat="-27.303964990777946" lon="115.90115804918048"><ele>266.0</ele><time>2026-04-15T05:27:33Z</time></trkpt><trkpt lat="-27.303391058512158" lon="115.90113240719208"><ele>265.5</ele><time>2026-04-15T05:27:35Z</time></trkpt><trkpt lat="-27.303103355970304" lon="115.90112228244564"><ele>265.0</ele><time>2026-04-15T05:27:36Z</time></trkpt><trkpt lat="-27.302821676557517" lon="115.90111680596156"><ele>266.0</ele><time>2026-04-15T05:27:37Z</time></trkpt><trkpt lat="-27.302536500726813" lon="115.90111045224295"><ele>267.0</ele><time>2026-04-15T05:27:38Z</time></trkpt><trkpt lat="-27.302256684702304" lon="115.90110414594439"><ele>266.0</ele><time>2026-04-15T05:27:39Z</time></trkpt><trkpt lat="-27.301976484746458" lon="115.90109413270223"><ele>265.0</ele><time>2026-04-15T05:27:40Z</time></trkpt><trkpt lat="-27.301696029797917" lon="115.90108439823372"><ele>265.0</ele><time>2026-04-15T05:27:41Z</time></trkpt><trkpt lat="-27.301416537251423" lon="115.90107380166643"><ele>265.0</ele><time>2026-04-15T05:27:42Z</time></trkpt><trkpt lat="-27.301136468951587" lon="115.90106313824158"><ele>265.5</ele><time>2026-04-15T05:27:43Z</time></trkpt><trkpt lat="-27.300858301588843" lon="115.90105238459338"><ele>266.0</ele><time>2026-04-15T05:27:44Z</time></trkpt><trkpt lat="-27.300581074913048" lon="115.90104160588693"><ele>266.5</ele><time>2026-04-15T05:27:45Z</time></trkpt><trkpt lat="-27.300304875219418" lon="115.90102760429355"><ele>267.0</ele><time>2026-04-15T05:27:46Z</time></trkpt><trkpt lat="-27.30002706539574" lon="115.90101623472826"><ele>267.0</ele><time>2026-04-15T05:27:47Z</time></trkpt><trkpt lat="-27.299751774703847" lon="115.90100404455022"><ele>267.0</ele><time>2026-04-15T05:27:48Z</time></trkpt><trkpt lat="-27.299477263670582" lon="115.90099226603955"><ele>267.0</ele><time>2026-04-15T05:27:49Z</time></trkpt><trkpt lat="-27.299199750855244" lon="115.90098215307587"><ele>267.0</ele><time>2026-04-15T05:27:50Z</time></trkpt><trkpt lat="-27.29892294902215" lon="115.90097318640859"><ele>267.0</ele><time>2026-04-15T05:27:51Z</time></trkpt><trkpt lat="-27.29864529105475" lon="115.90096550627415"><ele>267.0</ele><time>2026-04-15T05:27:52Z</time></trkpt><trkpt lat="-27.2983673899386" lon="115.9009568140886"><ele>267.0</ele><time>2026-04-15T05:27:53Z</time></trkpt><trkpt lat="-27.298087426382043" lon="115.90094838403857"><ele>267.0</ele><time>2026-04-15T05:27:54Z</time></trkpt><trkpt lat="-27.297524851649214" lon="115.90093183364924"><ele>267.0</ele><time>2026-04-15T05:27:56Z</time></trkpt><trkpt lat="-27.29724313439391" lon="115.90092305995206"><ele>267.0</ele><time>2026-04-15T05:27:57Z</time></trkpt><trkpt lat="-27.29696135192613" lon="115.9009124893522"><ele>267.0</ele><time>2026-04-15T05:27:58Z</time></trkpt><trkpt lat="-27.296681792557692" lon="115.90090177726213"><ele>267.0</ele><time>2026-04-15T05:27:59Z</time></trkpt><trkpt lat="-27.296400256138845" lon="115.90089434008951"><ele>267.0</ele><time>2026-04-15T05:28:00Z</time></trkpt><trkpt lat="-27.29612060983004" lon="115.90088184115979"><ele>267.0</ele><time>2026-04-15T05:28:01Z</time></trkpt><trkpt lat="-27.29584291885852" lon="115.90087389284066"><ele>267.0</ele><time>2026-04-15T05:28:02Z</time></trkpt><trkpt lat="-27.295564536286427" lon="115.9008647716715"><ele>267.0</ele><time>2026-04-15T05:28:03Z</time></trkpt><trkpt lat="-27.295290562175975" lon="115.90085264393795"><ele>267.0</ele><time>2026-04-15T05:28:04Z</time></trkpt><trkpt lat="-27.295018021478654" lon="115.90084327343101"><ele>267.0</ele><time>2026-04-15T05:28:05Z</time></trkpt><trkpt lat="-27.294745391894867" lon="115.90083726069614"><ele>268.0</ele><time>2026-04-15T05:28:06Z</time></trkpt><trkpt lat="-27.294472174858765" lon="115.90083248998111"><ele>269.0</ele><time>2026-04-15T05:28:07Z</time></trkpt><trkpt lat="-27.29420190423427" lon="115.90082646154254"><ele>269.0</ele><time>2026-04-15T05:28:08Z</time></trkpt><trkpt lat="-27.293930474208235" lon="115.90081869672805"><ele>269.0</ele><time>2026-04-15T05:28:09Z</time></trkpt><trkpt lat="-27.293659029252236" lon="115.90080775286772"><ele>268.0</ele><time>2026-04-15T05:28:10Z</time></trkpt><trkpt lat="-27.293384621707684" lon="115.90079836790318"><ele>267.0</ele><time>2026-04-15T05:28:11Z</time></trkpt><trkpt lat="-27.293106938937814" lon="115.90078799298871"><ele>269.0</ele><time>2026-04-15T05:28:12Z</time></trkpt><trkpt lat="-27.29282859751051" lon="115.90078218408267"><ele>271.0</ele><time>2026-04-15T05:28:13Z</time></trkpt><trkpt lat="-27.292548519487397" lon="115.90077643071902"><ele>267.0</ele><time>2026-04-15T05:28:14Z</time></trkpt><trkpt lat="-27.291990069822322" lon="115.90076600517055"><ele>267.0</ele><time>2026-04-15T05:28:16Z</time></trkpt><trkpt lat="-27.29171328563854" lon="115.90075958106554"><ele>267.0</ele><time>2026-04-15T05:28:17Z</time></trkpt><trkpt lat="-27.29143540371608" lon="115.90075129808628"><ele>268.0</ele><time>2026-04-15T05:28:18Z</time></trkpt><trkpt lat="-27.291157867432485" lon="115.90074177075098"><ele>269.0</ele><time>2026-04-15T05:28:19Z</time></trkpt><trkpt lat="-27.29087994388737" lon="115.90073051928856"><ele>269.0</ele><time>2026-04-15T05:28:20Z</time></trkpt><trkpt lat="-27.29060479177105" lon="115.90071969470465"><ele>269.0</ele><time>2026-04-15T05:28:21Z</time></trkpt><trkpt lat="-27.290327120557752" lon="115.90071126286857"><ele>269.5</ele><time>2026-04-15T05:28:22Z</time></trkpt><trkpt lat="-27.290049054128232" lon="115.9007092007563"><ele>270.0</ele><time>2026-04-15T05:28:23Z</time></trkpt><trkpt lat="-27.28977015854103" lon="115.90071688017429"><ele>270.0</ele><time>2026-04-15T05:28:24Z</time></trkpt><trkpt lat="-27.289486536867056" lon="115.90073748492094"><ele>270.0</ele><time>2026-04-15T05:28:25Z</time></trkpt><trkpt lat="-27.289202949468653" lon="115.90076771913265"><ele>269.0</ele><time>2026-04-15T05:28:26Z</time></trkpt><trkpt lat="-27.28892080913518" lon="115.90080362439406"><ele>268.0</ele><time>2026-04-15T05:28:27Z</time></trkpt><trkpt lat="-27.288637318674656" lon="115.90084847405345"><ele>268.0</ele><time>2026-04-15T05:28:28Z</time></trkpt><trkpt lat="-27.288358257502267" lon="115.90090005225149"><ele>268.0</ele><time>2026-04-15T05:28:29Z</time></trkpt><trkpt lat="-27.288080447488912" lon="115.90095587811305"><ele>270.0</ele><time>2026-04-15T05:28:30Z</time></trkpt><trkpt lat="-27.28780673555146" lon="115.90101433945048"><ele>272.0</ele><time>2026-04-15T05:28:31Z</time></trkpt><trkpt lat="-27.28753834825239" lon="115.90107745432351"><ele>272.0</ele><time>2026-04-15T05:28:32Z</time></trkpt><trkpt lat="-27.287272641559813" lon="115.90114334315058"><ele>272.0</ele><time>2026-04-15T05:28:33Z</time></trkpt><trkpt lat="-27.287007098732822" lon="115.90121072288424"><ele>273.0</ele><time>2026-04-15T05:28:34Z</time></trkpt><trkpt lat="-27.286743471491913" lon="115.90127813498964"><ele>274.0</ele><time>2026-04-15T05:28:35Z</time></trkpt><trkpt lat="-27.286228865697783" lon="115.90141204102649"><ele>274.0</ele><time>2026-04-15T05:28:37Z</time></trkpt><trkpt lat="-27.285972096817463" lon="115.90148351792675"><ele>274.0</ele><time>2026-04-15T05:28:38Z</time></trkpt><trkpt lat="-27.285717624635836" lon="115.90155706098031"><ele>274.0</ele><time>2026-04-15T05:28:39Z</time></trkpt><trkpt lat="-27.285462221356344" lon="115.90163058866897"><ele>274.0</ele><time>2026-04-15T05:28:40Z</time></trkpt><trkpt lat="-27.285204422460136" lon="115.90170634129272"><ele>274.0</ele><time>2026-04-15T05:28:41Z</time></trkpt><trkpt lat="-27.284946881851738" lon="115.90177856107387"><ele>274.0</ele><time>2026-04-15T05:28:42Z</time></trkpt><trkpt lat="-27.284689506529375" lon="115.9018488564298"><ele>274.0</ele><time>2026-04-15T05:28:43Z</time></trkpt><trkpt lat="-27.28443201640393" lon="115.90192123515261"><ele>274.0</ele><time>2026-04-15T05:28:44Z</time></trkpt><trkpt lat="-27.284172441617283" lon="115.90199751943483"><ele>273.5</ele><time>2026-04-15T05:28:45Z</time></trkpt><trkpt lat="-27.283919285254946" lon="115.90207550059499"><ele>273.0</ele><time>2026-04-15T05:28:46Z</time></trkpt><trkpt lat="-27.283663621456284" lon="115.90215316738026"><ele>273.0</ele><time>2026-04-15T05:28:47Z</time></trkpt><trkpt lat="-27.28340140675295" lon="115.90222501884202"><ele>273.0</ele><time>2026-04-15T05:28:48Z</time></trkpt><trkpt lat="-27.283134032837363" lon="115.9022972229443"><ele>273.0</ele><time>2026-04-15T05:28:49Z</time></trkpt><trkpt lat="-27.282870233772808" lon="115.90236871077012"><ele>273.0</ele><time>2026-04-15T05:28:50Z</time></trkpt><trkpt lat="-27.282599397814764" lon="115.9024403609412"><ele>273.0</ele><time>2026-04-15T05:28:51Z</time></trkpt><trkpt lat="-27.282329877978462" lon="115.90251030843832"><ele>273.0</ele><time>2026-04-15T05:28:52Z</time></trkpt><trkpt lat="-27.282060608477156" lon="115.90258204967064"><ele>272.0</ele><time>2026-04-15T05:28:53Z</time></trkpt><trkpt lat="-27.281797278337827" lon="115.90265430010439"><ele>271.0</ele><time>2026-04-15T05:28:54Z</time></trkpt><trkpt lat="-27.28153220800702" lon="115.90272734279954"><ele>271.5</ele><time>2026-04-15T05:28:55Z</time></trkpt><trkpt lat="-27.281271483862795" lon="115.90280026428142"><ele>272.0</ele><time>2026-04-15T05:28:56Z</time></trkpt><trkpt lat="-27.280749464417855" lon="115.90294471650748"><ele>272.0</ele><time>2026-04-15T05:28:58Z</time></trkpt><trkpt lat="-27.280485085676933" lon="115.90301740886629"><ele>272.0</ele><time>2026-04-15T05:28:59Z</time></trkpt><trkpt lat="-27.280224796071863" lon="115.90309079786448"><ele>272.0</ele><time>2026-04-15T05:29:00Z</time></trkpt><trkpt lat="-27.27996483989441" lon="115.90316183261562"><ele>272.0</ele><time>2026-04-15T05:29:01Z</time></trkpt><trkpt lat="-27.279700347351795" lon="115.90323677644845"><ele>269.5</ele><time>2026-04-15T05:29:02Z</time></trkpt><trkpt lat="-27.27943984095453" lon="115.90331264403473"><ele>267.0</ele><time>2026-04-15T05:29:03Z</time></trkpt><trkpt lat="-27.279178976175643" lon="115.90338739121209"><ele>268.0</ele><time>2026-04-15T05:29:04Z</time></trkpt><trkpt lat="-27.27891844944064" lon="115.90345762208614"><ele>269.0</ele><time>2026-04-15T05:29:05Z</time></trkpt><trkpt lat="-27.278658260645326" lon="115.90352288121704"><ele>269.0</ele><time>2026-04-15T05:29:06Z</time></trkpt><trkpt lat="-27.278397045087445" lon="115.90358751642555"><ele>269.0</ele><time>2026-04-15T05:29:07Z</time></trkpt><trkpt lat="-27.278132327771775" lon="115.90365352219541"><ele>270.0</ele><time>2026-04-15T05:29:08Z</time></trkpt><trkpt lat="-27.277865957772043" lon="115.90371762764319"><ele>271.0</ele><time>2026-04-15T05:29:09Z</time></trkpt><trkpt lat="-27.277594430657835" lon="115.90377762372223"><ele>271.0</ele><time>2026-04-15T05:29:10Z</time></trkpt><trkpt lat="-27.277322690178558" lon="115.90383456510834"><ele>271.0</ele><time>2026-04-15T05:29:11Z</time></trkpt><trkpt lat="-27.277051992929348" lon="115.90388604690838"><ele>272.0</ele><time>2026-04-15T05:29:12Z</time></trkpt><trkpt lat="-27.27678290624953" lon="115.90393216506409"><ele>273.0</ele><time>2026-04-15T05:29:13Z</time></trkpt><trkpt lat="-27.276517234212584" lon="115.90397450648494"><ele>272.5</ele><time>2026-04-15T05:29:14Z</time></trkpt><trkpt lat="-27.27625093946451" lon="115.9040110692092"><ele>272.0</ele><time>2026-04-15T05:29:15Z</time></trkpt><trkpt lat="-27.27597968729333" lon="115.90404446179642"><ele>272.0</ele><time>2026-04-15T05:29:16Z</time></trkpt><trkpt lat="-27.275707802804142" lon="115.9040723958132"><ele>272.0</ele><time>2026-04-15T05:29:17Z</time></trkpt><trkpt lat="-27.27516596081847" lon="115.9041145936213"><ele>272.0</ele><time>2026-04-15T05:29:19Z</time></trkpt><trkpt lat="-27.274897164618245" lon="115.90412437362677"><ele>272.0</ele><time>2026-04-15T05:29:20Z</time></trkpt><trkpt lat="-27.274629710392933" lon="115.9041266202907"><ele>272.0</ele><time>2026-04-15T05:29:21Z</time></trkpt><trkpt lat="-27.27436479544183" lon="115.90412228791152"><ele>272.0</ele><time>2026-04-15T05:29:22Z</time></trkpt><trkpt lat="-27.274097593106834" lon="115.90411596795025"><ele>272.5</ele><time>2026-04-15T05:29:23Z</time></trkpt><trkpt lat="-27.273830341934232" lon="115.90411140296288"><ele>273.0</ele><time>2026-04-15T05:29:24Z</time></trkpt><trkpt lat="-27.273563302919385" lon="115.90411124191982"><ele>273.0</ele><time>2026-04-15T05:29:25Z</time></trkpt><trkpt lat="-27.27329104186507" lon="115.90411126234376"><ele>273.0</ele><time>2026-04-15T05:29:26Z</time></trkpt><trkpt lat="-27.27302496541738" lon="115.90411379480943"><ele>272.5</ele><time>2026-04-15T05:29:27Z</time></trkpt><trkpt lat="-27.272752849628183" lon="115.90411863870759"><ele>272.0</ele><time>2026-04-15T05:29:28Z</time></trkpt><trkpt lat="-27.272482782377004" lon="115.9041214618328"><ele>271.0</ele><time>2026-04-15T05:29:29Z</time></trkpt><trkpt lat="-27.272212159596112" lon="115.90412251944912"><ele>270.0</ele><time>2026-04-15T05:29:30Z</time></trkpt><trkpt lat="-27.271944680370908" lon="115.90412278039625"><ele>270.0</ele><time>2026-04-15T05:29:31Z</time></trkpt><trkpt lat="-27.27167752941656" lon="115.90412376802199"><ele>270.0</ele><time>2026-04-15T05:29:32Z</time></trkpt><trkpt lat="-27.27141081679749" lon="115.90412236790289"><ele>270.0</ele><time>2026-04-15T05:29:33Z</time></trkpt><trkpt lat="-27.271143166640982" lon="115.90411946846649"><ele>270.0</ele><time>2026-04-15T05:29:34Z</time></trkpt><trkpt lat="-27.270876274561484" lon="115.9041166875116"><ele>270.0</ele><time>2026-04-15T05:29:35Z</time></trkpt><trkpt lat="-27.270610175543606" lon="115.90411466859643"><ele>270.0</ele><time>2026-04-15T05:29:36Z</time></trkpt><trkpt lat="-27.270343913041113" lon="115.90411376781712"><ele>270.5</ele><time>2026-04-15T05:29:37Z</time></trkpt><trkpt lat="-27.270077943255288" lon="115.90411552620517"><ele>271.0</ele><time>2026-04-15T05:29:38Z</time></trkpt><trkpt lat="-27.26955386126597" lon="115.90411200405204"><ele>271.0</ele><time>2026-04-15T05:29:40Z</time></trkpt><trkpt lat="-27.269290740233483" lon="115.90410205557491"><ele>271.0</ele><time>2026-04-15T05:29:41Z</time></trkpt><trkpt lat="-27.269028714180354" lon="115.90409068023882"><ele>271.0</ele><time>2026-04-15T05:29:42Z</time></trkpt><trkpt lat="-27.26876789269852" lon="115.90408525218179"><ele>271.0</ele><time>2026-04-15T05:29:43Z</time></trkpt><trkpt lat="-27.268509172981346" lon="115.90408601869237"><ele>271.0</ele><time>2026-04-15T05:29:44Z</time></trkpt><trkpt lat="-27.268251661120463" lon="115.90409098795884"><ele>271.0</ele><time>2026-04-15T05:29:45Z</time></trkpt><trkpt lat="-27.267996778452375" lon="115.90409774192845"><ele>270.5</ele><time>2026-04-15T05:29:46Z</time></trkpt><trkpt lat="-27.267742069051007" lon="115.90410012125834"><ele>270.0</ele><time>2026-04-15T05:29:47Z</time></trkpt><trkpt lat="-27.267485655664416" lon="115.90409725084527"><ele>270.5</ele><time>2026-04-15T05:29:48Z</time></trkpt><trkpt lat="-27.26724162458867" lon="115.90409651269985"><ele>271.0</ele><time>2026-04-15T05:29:49Z</time></trkpt><trkpt lat="-27.267005123355702" lon="115.9040947767164"><ele>271.0</ele><time>2026-04-15T05:29:50Z</time></trkpt><trkpt lat="-27.266753063252708" lon="115.90409214848256"><ele>271.0</ele><time>2026-04-15T05:29:51Z</time></trkpt><trkpt lat="-27.266509100469943" lon="115.90408930082442"><ele>270.5</ele><time>2026-04-15T05:29:52Z</time></trkpt><trkpt lat="-27.266245420065637" lon="115.90408479212464"><ele>270.0</ele><time>2026-04-15T05:29:53Z</time></trkpt><trkpt lat="-27.26598608870445" lon="115.90408364614814"><ele>270.0</ele><time>2026-04-15T05:29:54Z</time></trkpt><trkpt lat="-27.26572132238463" lon="115.90408102077119"><ele>270.0</ele><time>2026-04-15T05:29:55Z</time></trkpt><trkpt lat="-27.26545763364092" lon="115.90407967873712"><ele>270.0</ele><time>2026-04-15T05:29:56Z</time></trkpt><trkpt lat="-27.265190792181873" lon="115.90407791336867"><ele>270.0</ele><time>2026-04-15T05:29:57Z</time></trkpt><trkpt lat="-27.264926462312122" lon="115.90407854198604"><ele>270.5</ele><time>2026-04-15T05:29:58Z</time></trkpt><trkpt lat="-27.264660305628286" lon="115.90408076840968"><ele>271.0</ele><time>2026-04-15T05:29:59Z</time></trkpt><trkpt lat="-27.264127026381896" lon="115.9040837133448"><ele>269.0</ele><time>2026-04-15T05:30:01Z</time></trkpt><trkpt lat="-27.263859729521148" lon="115.90408457045048"><ele>267.0</ele><time>2026-04-15T05:30:02Z</time></trkpt><trkpt lat="-27.26359174082316" lon="115.90408329309209"><ele>267.0</ele><time>2026-04-15T05:30:03Z</time></trkpt><trkpt lat="-27.26331764407296" lon="115.90408279710059"><ele>267.0</ele><time>2026-04-15T05:30:04Z</time></trkpt><trkpt lat="-27.26304065929665" lon="115.9040851394198"><ele>267.5</ele><time>2026-04-15T05:30:05Z</time></trkpt><trkpt lat="-27.262765604688564" lon="115.90408521453097"><ele>268.0</ele><time>2026-04-15T05:30:06Z</time></trkpt><trkpt lat="-27.26248937286527" lon="115.90408378727163"><ele>269.0</ele><time>2026-04-15T05:30:07Z</time></trkpt><trkpt lat="-27.262213395138208" lon="115.90407987703595"><ele>270.0</ele><time>2026-04-15T05:30:08Z</time></trkpt><trkpt lat="-27.26193648243063" lon="115.90407385417525"><ele>270.0</ele><time>2026-04-15T05:30:09Z</time></trkpt><trkpt lat="-27.2616627985879" lon="115.90407031951234"><ele>270.0</ele><time>2026-04-15T05:30:10Z</time></trkpt><trkpt lat="-27.261389347230907" lon="115.90406911148429"><ele>270.0</ele><time>2026-04-15T05:30:11Z</time></trkpt><trkpt lat="-27.26111742316504" lon="115.90406965199293"><ele>270.0</ele><time>2026-04-15T05:30:12Z</time></trkpt><trkpt lat="-27.26084678162665" lon="115.9040731986138"><ele>269.0</ele><time>2026-04-15T05:30:13Z</time></trkpt><trkpt lat="-27.26057781053469" lon="115.90407903064812"><ele>268.0</ele><time>2026-04-15T05:30:14Z</time></trkpt><trkpt lat="-27.260311822305958" lon="115.9040843265634"><ele>268.0</ele><time>2026-04-15T05:30:15Z</time></trkpt><trkpt lat="-27.26004343700713" lon="115.90408795280632"><ele>268.0</ele><time>2026-04-15T05:30:16Z</time></trkpt><trkpt lat="-27.259778907472516" lon="115.90409280145657"><ele>268.0</ele><time>2026-04-15T05:30:17Z</time></trkpt><trkpt lat="-27.259515651171036" lon="115.90409790971147"><ele>268.0</ele><time>2026-04-15T05:30:18Z</time></trkpt><trkpt lat="-27.25925183063646" lon="115.90409960780605"><ele>270.0</ele><time>2026-04-15T05:30:19Z</time></trkpt><trkpt lat="-27.258721008145294" lon="115.90409214308544"><ele>270.0</ele><time>2026-04-15T05:30:21Z</time></trkpt><trkpt lat="-27.258461489101762" lon="115.90408672915737"><ele>270.0</ele><time>2026-04-15T05:30:22Z</time></trkpt><trkpt lat="-27.25819807374691" lon="115.90407926948174"><ele>269.5</ele><time>2026-04-15T05:30:23Z</time></trkpt><trkpt lat="-27.257933787604564" lon="115.90407103178968"><ele>269.0</ele><time>2026-04-15T05:30:24Z</time></trkpt><trkpt lat="-27.257669853882376" lon="115.90406685657291"><ele>269.0</ele><time>2026-04-15T05:30:25Z</time></trkpt><trkpt lat="-27.25740928693284" lon="115.90406422879481"><ele>269.0</ele><time>2026-04-15T05:30:26Z</time></trkpt><trkpt lat="-27.257148903143637" lon="115.90406550265259"><ele>269.0</ele><time>2026-04-15T05:30:27Z</time></trkpt><trkpt lat="-27.256886609617418" lon="115.90406742247569"><ele>269.0</ele><time>2026-04-15T05:30:28Z</time></trkpt><trkpt lat="-27.256625402249483" lon="115.90407133333466"><ele>269.0</ele><time>2026-04-15T05:30:29Z</time></trkpt><trkpt lat="-27.256362716661574" lon="115.90407587375333"><ele>269.0</ele><time>2026-04-15T05:30:30Z</time></trkpt><trkpt lat="-27.256101330495145" lon="115.9040791171235"><ele>269.0</ele><time>2026-04-15T05:30:31Z</time></trkpt><trkpt lat="-27.255841633158603" lon="115.90408286512347"><ele>269.0</ele><time>2026-04-15T05:30:32Z</time></trkpt><trkpt lat="-27.255580340790484" lon="115.90408630978101"><ele>269.0</ele><time>2026-04-15T05:30:33Z</time></trkpt><trkpt lat="-27.255317665736687" lon="115.90408742886108"><ele>269.0</ele><time>2026-04-15T05:30:34Z</time></trkpt><trkpt lat="-27.255052466636194" lon="115.90408661442832"><ele>268.5</ele><time>2026-04-15T05:30:35Z</time></trkpt><trkpt lat="-27.254787227517816" lon="115.90408586697458"><ele>268.0</ele><time>2026-04-15T05:30:36Z</time></trkpt><trkpt lat="-27.254521639501284" lon="115.90408374823312"><ele>268.0</ele><time>2026-04-15T05:30:37Z</time></trkpt><trkpt lat="-27.254251170719733" lon="115.90407903325642"><ele>268.0</ele><time>2026-04-15T05:30:38Z</time></trkpt><trkpt lat="-27.253983507521998" lon="115.90407034964892"><ele>269.0</ele><time>2026-04-15T05:30:39Z</time></trkpt><trkpt lat="-27.253720160803045" lon="115.90406507854755"><ele>270.0</ele><time>2026-04-15T05:30:40Z</time></trkpt><trkpt lat="-27.25319767251772" lon="115.90406090864067"><ele>270.0</ele><time>2026-04-15T05:30:42Z</time></trkpt><trkpt lat="-27.252937915009245" lon="115.9040590290228"><ele>270.0</ele><time>2026-04-15T05:30:43Z</time></trkpt><trkpt lat="-27.25267580264518" lon="115.90405735438914"><ele>270.0</ele><time>2026-04-15T05:30:44Z</time></trkpt><trkpt lat="-27.252413040426365" lon="115.90405466289639"><ele>270.0</ele><time>2026-04-15T05:30:45Z</time></trkpt><trkpt lat="-27.252147629979614" lon="115.90405265756284"><ele>269.5</ele><time>2026-04-15T05:30:46Z</time></trkpt><trkpt lat="-27.25188568063727" lon="115.90405037870521"><ele>269.0</ele><time>2026-04-15T05:30:47Z</time></trkpt><trkpt lat="-27.251621396856944" lon="115.90404954763098"><ele>269.5</ele><time>2026-04-15T05:30:48Z</time></trkpt><trkpt lat="-27.251354982905816" lon="115.90405272824974"><ele>270.0</ele><time>2026-04-15T05:30:49Z</time></trkpt><trkpt lat="-27.2510881149781" lon="115.90405845560991"><ele>270.0</ele><time>2026-04-15T05:30:50Z</time></trkpt><trkpt lat="-27.2508315835827" lon="115.904061611849"><ele>270.0</ele><time>2026-04-15T05:30:51Z</time></trkpt><trkpt lat="-27.250574306278697" lon="115.90406387783943"><ele>269.0</ele><time>2026-04-15T05:30:52Z</time></trkpt><trkpt lat="-27.25030837300942" lon="115.90406348336948"><ele>268.0</ele><time>2026-04-15T05:30:53Z</time></trkpt><trkpt lat="-27.25003785324626" lon="115.90406677840457"><ele>269.0</ele><time>2026-04-15T05:30:54Z</time></trkpt><trkpt lat="-27.2497673852945" lon="115.90406768147159"><ele>270.0</ele><time>2026-04-15T05:30:55Z</time></trkpt><trkpt lat="-27.249495575495914" lon="115.90406444310692"><ele>270.0</ele><time>2026-04-15T05:30:56Z</time></trkpt><trkpt lat="-27.249225525675048" lon="115.90406260462005"><ele>270.0</ele><time>2026-04-15T05:30:57Z</time></trkpt><trkpt lat="-27.24895618467104" lon="115.90405965748751"><ele>269.0</ele><time>2026-04-15T05:30:58Z</time></trkpt><trkpt lat="-27.24868828425595" lon="115.90405864213365"><ele>268.0</ele><time>2026-04-15T05:30:59Z</time></trkpt><trkpt lat="-27.24841993422158" lon="115.90405792077458"><ele>268.0</ele><time>2026-04-15T05:31:00Z</time></trkpt><trkpt lat="-27.24815205877057" lon="115.90406080147066"><ele>268.0</ele><time>2026-04-15T05:31:01Z</time></trkpt><trkpt lat="-27.24762139159989" lon="115.90406374622975"><ele>268.0</ele><time>2026-04-15T05:31:03Z</time></trkpt><trkpt lat="-27.247356509864016" lon="115.90405869617264"><ele>268.0</ele><time>2026-04-15T05:31:04Z</time></trkpt><trkpt lat="-27.24709314151459" lon="115.90405137072928"><ele>268.5</ele><time>2026-04-15T05:31:05Z</time></trkpt><trkpt lat="-27.246830998156753" lon="115.90404652044876"><ele>269.0</ele><time>2026-04-15T05:31:06Z</time></trkpt><trkpt lat="-27.246571242927413" lon="115.90404571483818"><ele>268.5</ele><time>2026-04-15T05:31:07Z</time></trkpt><trkpt lat="-27.24631206849854" lon="115.90404774855669"><ele>268.0</ele><time>2026-04-15T05:31:08Z</time></trkpt><trkpt lat="-27.246053472116134" lon="115.90405128461599"><ele>268.0</ele><time>2026-04-15T05:31:09Z</time></trkpt><trkpt lat="-27.24579449867644" lon="115.90405489024845"><ele>268.0</ele><time>2026-04-15T05:31:10Z</time></trkpt><trkpt lat="-27.24553739664752" lon="115.90405767628867"><ele>267.5</ele><time>2026-04-15T05:31:11Z</time></trkpt><trkpt lat="-27.245280904504927" lon="115.90406109458542"><ele>267.0</ele><time>2026-04-15T05:31:12Z</time></trkpt><trkpt lat="-27.245022378650294" lon="115.9040642137334"><ele>267.5</ele><time>2026-04-15T05:31:13Z</time></trkpt><trkpt lat="-27.244762443525723" lon="115.90406370663521"><ele>268.0</ele><time>2026-04-15T05:31:14Z</time></trkpt><trkpt lat="-27.244504589666242" lon="115.90406058049432"><ele>268.0</ele><time>2026-04-15T05:31:15Z</time></trkpt><trkpt lat="-27.244245429801854" lon="115.9040540367618"><ele>268.0</ele><time>2026-04-15T05:31:16Z</time></trkpt><trkpt lat="-27.243989147288303" lon="115.90405164811447"><ele>268.0</ele><time>2026-04-15T05:31:17Z</time></trkpt><trkpt lat="-27.243730470342626" lon="115.9040500077701"><ele>268.0</ele><time>2026-04-15T05:31:18Z</time></trkpt><trkpt lat="-27.24347398280213" lon="115.90404802679991"><ele>268.0</ele><time>2026-04-15T05:31:19Z</time></trkpt><trkpt lat="-27.243219836174138" lon="115.90405170177266"><ele>268.0</ele><time>2026-04-15T05:31:20Z</time></trkpt><trkpt lat="-27.242963219161" lon="115.90405669478616"><ele>268.0</ele><time>2026-04-15T05:31:21Z</time></trkpt><trkpt lat="-27.242702279719797" lon="115.90406046175917"><ele>268.0</ele><time>2026-04-15T05:31:22Z</time></trkpt><trkpt lat="-27.242185710311333" lon="115.90406363397094"><ele>268.0</ele><time>2026-04-15T05:31:24Z</time></trkpt><trkpt lat="-27.241925131941564" lon="115.90406070527798"><ele>268.0</ele><time>2026-04-15T05:31:25Z</time></trkpt><trkpt lat="-27.2416593720633" lon="115.90405759439008"><ele>268.0</ele><time>2026-04-15T05:31:26Z</time></trkpt><trkpt lat="-27.241393927525944" lon="115.90405217676542"><ele>268.0</ele><time>2026-04-15T05:31:27Z</time></trkpt><trkpt lat="-27.241128180639166" lon="115.90404795317073"><ele>268.0</ele><time>2026-04-15T05:31:28Z</time></trkpt><trkpt lat="-27.240862626828125" lon="115.90404737747804"><ele>268.0</ele><time>2026-04-15T05:31:29Z</time></trkpt><trkpt lat="-27.240597702297382" lon="115.90404990482632"><ele>268.0</ele><time>2026-04-15T05:31:30Z</time></trkpt><trkpt lat="-27.240335581264926" lon="115.90404968619004"><ele>268.0</ele><time>2026-04-15T05:31:31Z</time></trkpt><trkpt lat="-27.240070343443044" lon="115.90404965834607"><ele>268.0</ele><time>2026-04-15T05:31:32Z</time></trkpt><trkpt lat="-27.239806658628385" lon="115.90404688127072"><ele>268.0</ele><time>2026-04-15T05:31:33Z</time></trkpt><trkpt lat="-27.23954589919532" lon="115.90404636595267"><ele>268.0</ele><time>2026-04-15T05:31:34Z</time></trkpt><trkpt lat="-27.239285466957416" lon="115.90404432413946"><ele>268.0</ele><time>2026-04-15T05:31:35Z</time></trkpt><trkpt lat="-27.239023027011907" lon="115.90404497310973"><ele>267.5</ele><time>2026-04-15T05:31:36Z</time></trkpt><trkpt lat="-27.23876005363626" lon="115.90404544889817"><ele>267.0</ele><time>2026-04-15T05:31:37Z</time></trkpt><trkpt lat="-27.238497836937547" lon="115.9040472457617"><ele>267.0</ele><time>2026-04-15T05:31:38Z</time></trkpt><trkpt lat="-27.238234286949883" lon="115.90404546967196"><ele>267.0</ele><time>2026-04-15T05:31:39Z</time></trkpt><trkpt lat="-27.23797060005349" lon="115.90404300714404"><ele>268.0</ele><time>2026-04-15T05:31:40Z</time></trkpt><trkpt lat="-27.237707501176903" lon="115.90404377142936"><ele>269.0</ele><time>2026-04-15T05:31:41Z</time></trkpt><trkpt lat="-27.23744195306555" lon="115.90404356614415"><ele>268.5</ele><time>2026-04-15T05:31:42Z</time></trkpt><trkpt lat="-27.23717923568401" lon="115.90404273725224"><ele>268.0</ele><time>2026-04-15T05:31:43Z</time></trkpt><trkpt lat="-27.236641750547395" lon="115.90403833325367"><ele>268.0</ele><time>2026-04-15T05:31:45Z</time></trkpt><trkpt lat="-27.236369688670255" lon="115.90403364641368"><ele>268.0</ele><time>2026-04-15T05:31:46Z</time></trkpt><trkpt lat="-27.23609568921935" lon="115.90403177107267"><ele>268.0</ele><time>2026-04-15T05:31:47Z</time></trkpt><trkpt lat="-27.235819688934097" lon="115.90403435692355"><ele>268.0</ele><time>2026-04-15T05:31:48Z</time></trkpt><trkpt lat="-27.235541999321104" lon="115.9040342865328"><ele>268.0</ele><time>2026-04-15T05:31:49Z</time></trkpt><trkpt lat="-27.23526741509078" lon="115.90403288844934"><ele>268.0</ele><time>2026-04-15T05:31:50Z</time></trkpt><trkpt lat="-27.234992940347155" lon="115.90403150571221"><ele>269.0</ele><time>2026-04-15T05:31:51Z</time></trkpt><trkpt lat="-27.23471951564443" lon="115.90403047526932"><ele>270.0</ele><time>2026-04-15T05:31:52Z</time></trkpt><trkpt lat="-27.234444676334082" lon="115.9040296072137"><ele>270.0</ele><time>2026-04-15T05:31:53Z</time></trkpt><trkpt lat="-27.23417273744657" lon="115.90403221063667"><ele>270.0</ele><time>2026-04-15T05:31:54Z</time></trkpt><trkpt lat="-27.2338963427553" lon="115.90403517937857"><ele>268.5</ele><time>2026-04-15T05:31:55Z</time></trkpt><trkpt lat="-27.23362119635363" lon="115.9040390928286"><ele>267.0</ele><time>2026-04-15T05:31:56Z</time></trkpt><trkpt lat="-27.23334686937454" lon="115.90404383628861"><ele>268.0</ele><time>2026-04-15T05:31:57Z</time></trkpt><trkpt lat="-27.233069347038178" lon="115.9040479102302"><ele>269.0</ele><time>2026-04-15T05:31:58Z</time></trkpt><trkpt lat="-27.232790219889264" lon="115.90404910621277"><ele>269.0</ele><time>2026-04-15T05:31:59Z</time></trkpt><trkpt lat="-27.232508864690285" lon="115.90404863726529"><ele>269.0</ele><time>2026-04-15T05:32:00Z</time></trkpt><trkpt lat="-27.23223139399626" lon="115.90404583313257"><ele>269.5</ele><time>2026-04-15T05:32:01Z</time></trkpt><trkpt lat="-27.2319544273469" lon="115.90403855566468"><ele>270.0</ele><time>2026-04-15T05:32:02Z</time></trkpt><trkpt lat="-27.23168179171842" lon="115.90402967683002"><ele>269.0</ele><time>2026-04-15T05:32:03Z</time></trkpt><trkpt lat="-27.231411588286" lon="115.90402476307534"><ele>268.0</ele><time>2026-04-15T05:32:04Z</time></trkpt><trkpt lat="-27.230877347925208" lon="115.90402287923392"><ele>268.5</ele><time>2026-04-15T05:32:06Z</time></trkpt><trkpt lat="-27.230610560026328" lon="115.90402503009929"><ele>269.0</ele><time>2026-04-15T05:32:07Z</time></trkpt><trkpt lat="-27.230339353948313" lon="115.9040245721867"><ele>269.0</ele><time>2026-04-15T05:32:08Z</time></trkpt><trkpt lat="-27.23006933163783" lon="115.90402479124114"><ele>269.0</ele><time>2026-04-15T05:32:09Z</time></trkpt><trkpt lat="-27.22979497527049" lon="115.90402342006743"><ele>270.0</ele><time>2026-04-15T05:32:10Z</time></trkpt><trkpt lat="-27.22952373320297" lon="115.90402170050906"><ele>271.0</ele><time>2026-04-15T05:32:11Z</time></trkpt><trkpt lat="-27.229248156051437" lon="115.90402014154736"><ele>271.0</ele><time>2026-04-15T05:32:12Z</time></trkpt><trkpt lat="-27.228974777996314" lon="115.90402052854454"><ele>271.0</ele><time>2026-04-15T05:32:13Z</time></trkpt><trkpt lat="-27.228700885202773" lon="115.9040226211794"><ele>271.0</ele><time>2026-04-15T05:32:14Z</time></trkpt><trkpt lat="-27.22842621743127" lon="115.90402325288517"><ele>271.0</ele><time>2026-04-15T05:32:15Z</time></trkpt><trkpt lat="-27.228154069638595" lon="115.90402368130007"><ele>270.5</ele><time>2026-04-15T05:32:16Z</time></trkpt><trkpt lat="-27.22787843945216" lon="115.90402363102613"><ele>270.0</ele><time>2026-04-15T05:32:17Z</time></trkpt><trkpt lat="-27.227604471268272" lon="115.90402133112906"><ele>270.0</ele><time>2026-04-15T05:32:18Z</time></trkpt><trkpt lat="-27.22733304239333" lon="115.9040194645179"><ele>270.0</ele><time>2026-04-15T05:32:19Z</time></trkpt><trkpt lat="-27.227062436886744" lon="115.90401721582366"><ele>270.0</ele><time>2026-04-15T05:32:20Z</time></trkpt><trkpt lat="-27.226793434158605" lon="115.90401514762664"><ele>270.0</ele><time>2026-04-15T05:32:21Z</time></trkpt><trkpt lat="-27.226524138161125" lon="115.90401475596278"><ele>270.5</ele><time>2026-04-15T05:32:22Z</time></trkpt><trkpt lat="-27.226256769113462" lon="115.90401625295594"><ele>271.0</ele><time>2026-04-15T05:32:23Z</time></trkpt><trkpt lat="-27.22598316000976" lon="115.90401822654349"><ele>271.0</ele><time>2026-04-15T05:32:24Z</time></trkpt><trkpt lat="-27.22571091514256" lon="115.90402348332492"><ele>271.0</ele><time>2026-04-15T05:32:25Z</time></trkpt><trkpt lat="-27.225157250180306" lon="115.90403095971192"><ele>270.0</ele><time>2026-04-15T05:32:27Z</time></trkpt><trkpt lat="-27.22488027515356" lon="115.90403518855338"><ele>269.0</ele><time>2026-04-15T05:32:28Z</time></trkpt><trkpt lat="-27.224611921359564" lon="115.90403578351975"><ele>269.0</ele><time>2026-04-15T05:32:29Z</time></trkpt><trkpt lat="-27.224350194391665" lon="115.90403235454707"><ele>269.0</ele><time>2026-04-15T05:32:30Z</time></trkpt><trkpt lat="-27.22408919586164" lon="115.90402910750224"><ele>269.5</ele><time>2026-04-15T05:32:31Z</time></trkpt><trkpt lat="-27.223819323201337" lon="115.90402825681663"><ele>270.0</ele><time>2026-04-15T05:32:32Z</time></trkpt><trkpt lat="-27.223546158925828" lon="115.9040278571185"><ele>270.0</ele><time>2026-04-15T05:32:33Z</time></trkpt><trkpt lat="-27.22327148591423" lon="115.90402838371429"><ele>270.0</ele><time>2026-04-15T05:32:34Z</time></trkpt><trkpt lat="-27.222995142363814" lon="115.90402664427289"><ele>270.5</ele><time>2026-04-15T05:32:35Z</time></trkpt><trkpt lat="-27.222719975540357" lon="115.90402784762158"><ele>271.0</ele><time>2026-04-15T05:32:36Z</time></trkpt><trkpt lat="-27.222441664754147" lon="115.9040304605769"><ele>271.0</ele><time>2026-04-15T05:32:37Z</time></trkpt><trkpt lat="-27.222163599754737" lon="115.90403104273094"><ele>271.0</ele><time>2026-04-15T05:32:38Z</time></trkpt><trkpt lat="-27.221883947546058" lon="115.90402752582492"><ele>271.0</ele><time>2026-04-15T05:32:39Z</time></trkpt><trkpt lat="-27.221602383277176" lon="115.90402187601923"><ele>271.0</ele><time>2026-04-15T05:32:40Z</time></trkpt><trkpt lat="-27.221323510154804" lon="115.90401695748713"><ele>270.0</ele><time>2026-04-15T05:32:41Z</time></trkpt><trkpt lat="-27.22104842596743" lon="115.90401448318023"><ele>269.0</ele><time>2026-04-15T05:32:42Z</time></trkpt><trkpt lat="-27.220777059574857" lon="115.904012226842"><ele>269.5</ele><time>2026-04-15T05:32:43Z</time></trkpt><trkpt lat="-27.220505291108054" lon="115.90401199241657"><ele>270.0</ele><time>2026-04-15T05:32:44Z</time></trkpt><trkpt lat="-27.220235132552865" lon="115.9040182941358"><ele>270.0</ele><time>2026-04-15T05:32:45Z</time></trkpt><trkpt lat="-27.21996319398429" lon="115.9040233348751"><ele>270.0</ele><time>2026-04-15T05:32:46Z</time></trkpt><trkpt lat="-27.219433785818854" lon="115.9040173765948"><ele>270.5</ele><time>2026-04-15T05:32:48Z</time></trkpt><trkpt lat="-27.219169861202396" lon="115.90401397277341"><ele>271.0</ele><time>2026-04-15T05:32:49Z</time></trkpt><trkpt lat="-27.218902830662223" lon="115.90401318135183"><ele>271.0</ele><time>2026-04-15T05:32:50Z</time></trkpt><trkpt lat="-27.218638650261923" lon="115.90401683217172"><ele>271.0</ele><time>2026-04-15T05:32:51Z</time></trkpt><trkpt lat="-27.2183742687965" lon="115.90402453900832"><ele>272.0</ele><time>2026-04-15T05:32:52Z</time></trkpt><trkpt lat="-27.21811066937982" lon="115.90403694214197"><ele>273.0</ele><time>2026-04-15T05:32:53Z</time></trkpt><trkpt lat="-27.217848175670277" lon="115.90405382910754"><ele>273.0</ele><time>2026-04-15T05:32:54Z</time></trkpt><trkpt lat="-27.21758668292125" lon="115.90407248450902"><ele>273.0</ele><time>2026-04-15T05:32:55Z</time></trkpt><trkpt lat="-27.217326181164356" lon="115.90409468418049"><ele>273.5</ele><time>2026-04-15T05:32:56Z</time></trkpt><trkpt lat="-27.217066118443086" lon="115.90412003573007"><ele>274.0</ele><time>2026-04-15T05:32:57Z</time></trkpt><trkpt lat="-27.21680588785718" lon="115.90414872184826"><ele>274.0</ele><time>2026-04-15T05:32:58Z</time></trkpt><trkpt lat="-27.216546168745687" lon="115.9041849409521"><ele>274.0</ele><time>2026-04-15T05:32:59Z</time></trkpt><trkpt lat="-27.216284935720907" lon="115.90422770689865"><ele>274.0</ele><time>2026-04-15T05:33:00Z</time></trkpt><trkpt lat="-27.216025665370637" lon="115.90427327517286"><ele>274.0</ele><time>2026-04-15T05:33:01Z</time></trkpt><trkpt lat="-27.21576669811678" lon="115.9043185056416"><ele>273.0</ele><time>2026-04-15T05:33:02Z</time></trkpt><trkpt lat="-27.215508345074973" lon="115.904368872231"><ele>272.0</ele><time>2026-04-15T05:33:03Z</time></trkpt><trkpt lat="-27.215251756329494" lon="115.90442778476577"><ele>272.0</ele><time>2026-04-15T05:33:04Z</time></trkpt><trkpt lat="-27.214999054336175" lon="115.9044931233587"><ele>272.0</ele><time>2026-04-15T05:33:05Z</time></trkpt><trkpt lat="-27.214752499053425" lon="115.90455932837624"><ele>273.0</ele><time>2026-04-15T05:33:06Z</time></trkpt><trkpt lat="-27.21450445539473" lon="115.90462653224694"><ele>274.0</ele><time>2026-04-15T05:33:07Z</time></trkpt><trkpt lat="-27.214001664345194" lon="115.90477842319308"><ele>273.5</ele><time>2026-04-15T05:33:09Z</time></trkpt><trkpt lat="-27.213745602307032" lon="115.90485927755638"><ele>273.0</ele><time>2026-04-15T05:33:10Z</time></trkpt><trkpt lat="-27.21348964402956" lon="115.90493998461062"><ele>273.0</ele><time>2026-04-15T05:33:11Z</time></trkpt><trkpt lat="-27.213236543487035" lon="115.90501831679249"><ele>273.0</ele><time>2026-04-15T05:33:12Z</time></trkpt><trkpt lat="-27.212983717463068" lon="115.90509571818662"><ele>273.0</ele><time>2026-04-15T05:33:13Z</time></trkpt><trkpt lat="-27.21273866865645" lon="115.90517097393162"><ele>273.0</ele><time>2026-04-15T05:33:14Z</time></trkpt><trkpt lat="-27.21248763844006" lon="115.90524605575253"><ele>273.0</ele><time>2026-04-15T05:33:15Z</time></trkpt><trkpt lat="-27.212234421246222" lon="115.90531877810787"><ele>273.0</ele><time>2026-04-15T05:33:16Z</time></trkpt><trkpt lat="-27.21198400428083" lon="115.90539012212943"><ele>273.0</ele><time>2026-04-15T05:33:17Z</time></trkpt><trkpt lat="-27.2117444625331" lon="115.90545887454282"><ele>273.0</ele><time>2026-04-15T05:33:18Z</time></trkpt><trkpt lat="-27.21149909020366" lon="115.90552483330563"><ele>272.0</ele><time>2026-04-15T05:33:19Z</time></trkpt><trkpt lat="-27.21125089042686" lon="115.90558572607334"><ele>271.0</ele><time>2026-04-15T05:33:20Z</time></trkpt><trkpt lat="-27.21100642400007" lon="115.90564281326022"><ele>271.0</ele><time>2026-04-15T05:33:21Z</time></trkpt><trkpt lat="-27.210772423730305" lon="115.90569130706177"><ele>271.0</ele><time>2026-04-15T05:33:22Z</time></trkpt><trkpt lat="-27.21054014746477" lon="115.90572674002718"><ele>271.0</ele><time>2026-04-15T05:33:23Z</time></trkpt><trkpt lat="-27.210306949540033" lon="115.90574683122864"><ele>271.0</ele><time>2026-04-15T05:33:24Z</time></trkpt><trkpt lat="-27.2100566673649" lon="115.90575207461717"><ele>272.0</ele><time>2026-04-15T05:33:25Z</time></trkpt><trkpt lat="-27.209802149244013" lon="115.90574196898582"><ele>273.0</ele><time>2026-04-15T05:33:26Z</time></trkpt><trkpt lat="-27.209546725513846" lon="115.90571548011671"><ele>273.0</ele><time>2026-04-15T05:33:27Z</time></trkpt><trkpt lat="-27.209036517872207" lon="115.90560578741022"><ele>273.5</ele><time>2026-04-15T05:33:29Z</time></trkpt><trkpt lat="-27.208775812561587" lon="115.90552269630797"><ele>274.0</ele><time>2026-04-15T05:33:30Z</time></trkpt><trkpt lat="-27.208522591014614" lon="115.90542233832953"><ele>274.0</ele><time>2026-04-15T05:33:31Z</time></trkpt><trkpt lat="-27.20828144986358" lon="115.90530653219817"><ele>274.0</ele><time>2026-04-15T05:33:32Z</time></trkpt><trkpt lat="-27.208046378828513" lon="115.90517306300049"><ele>273.5</ele><time>2026-04-15T05:33:33Z</time></trkpt><trkpt lat="-27.207825157645132" lon="115.90502558330715"><ele>273.0</ele><time>2026-04-15T05:33:34Z</time></trkpt><trkpt lat="-27.2076070183146" lon="115.90486537300417"><ele>273.0</ele><time>2026-04-15T05:33:35Z</time></trkpt><trkpt lat="-27.207389649031796" lon="115.9047013514914"><ele>273.0</ele><time>2026-04-15T05:33:36Z</time></trkpt><trkpt lat="-27.207170304730607" lon="115.90454011891575"><ele>273.5</ele><time>2026-04-15T05:33:37Z</time></trkpt><trkpt lat="-27.20694921644597" lon="115.90437723558729"><ele>274.0</ele><time>2026-04-15T05:33:38Z</time></trkpt><trkpt lat="-27.206727338293263" lon="115.90421689559206"><ele>273.0</ele><time>2026-04-15T05:33:39Z</time></trkpt><trkpt lat="-27.20650587585835" lon="115.90406115826978"><ele>272.0</ele><time>2026-04-15T05:33:40Z</time></trkpt><trkpt lat="-27.206284521208474" lon="115.90390431774938"><ele>271.5</ele><time>2026-04-15T05:33:41Z</time></trkpt><trkpt lat="-27.206064007583514" lon="115.90374701710533"><ele>271.0</ele><time>2026-04-15T05:33:42Z</time></trkpt><trkpt lat="-27.205839135873266" lon="115.90358917357665"><ele>272.0</ele><time>2026-04-15T05:33:43Z</time></trkpt><trkpt lat="-27.205616484232145" lon="115.90343815022263"><ele>273.0</ele><time>2026-04-15T05:33:44Z</time></trkpt><trkpt lat="-27.205389836632513" lon="115.9032885656382"><ele>273.0</ele><time>2026-04-15T05:33:45Z</time></trkpt><trkpt lat="-27.205168456182054" lon="115.9031486226264"><ele>273.0</ele><time>2026-04-15T05:33:46Z</time></trkpt><trkpt lat="-27.204939953868855" lon="115.90301881987948"><ele>275.0</ele><time>2026-04-15T05:33:47Z</time></trkpt><trkpt lat="-27.20470381834945" lon="115.90290100263567"><ele>277.0</ele><time>2026-04-15T05:33:48Z</time></trkpt><trkpt lat="-27.204211646664135" lon="115.9026995075435"><ele>277.0</ele><time>2026-04-15T05:33:50Z</time></trkpt><trkpt lat="-27.203955707364248" lon="115.90262296226153"><ele>277.0</ele><time>2026-04-15T05:33:51Z</time></trkpt><trkpt lat="-27.203691045827863" lon="115.90255841445595"><ele>276.5</ele><time>2026-04-15T05:33:52Z</time></trkpt><trkpt lat="-27.203423017794076" lon="115.90250397202503"><ele>276.0</ele><time>2026-04-15T05:33:53Z</time></trkpt><trkpt lat="-27.20315126037434" lon="115.90246037806818"><ele>276.0</ele><time>2026-04-15T05:33:54Z</time></trkpt><trkpt lat="-27.202878735207165" lon="115.90242611779189"><ele>276.0</ele><time>2026-04-15T05:33:55Z</time></trkpt><trkpt lat="-27.202607347859413" lon="115.90239900831966"><ele>276.0</ele><time>2026-04-15T05:33:56Z</time></trkpt><trkpt lat="-27.20233420639663" lon="115.90237389918826"><ele>276.0</ele><time>2026-04-15T05:33:57Z</time></trkpt><trkpt lat="-27.202062168579896" lon="115.90234754432387"><ele>276.0</ele><time>2026-04-15T05:33:58Z</time></trkpt><trkpt lat="-27.20179324950577" lon="115.90231846714941"><ele>276.0</ele><time>2026-04-15T05:33:59Z</time></trkpt><trkpt lat="-27.20152175590516" lon="115.9022892637272"><ele>275.5</ele><time>2026-04-15T05:34:00Z</time></trkpt><trkpt lat="-27.20124761971081" lon="115.90226215797793"><ele>275.0</ele><time>2026-04-15T05:34:01Z</time></trkpt><trkpt lat="-27.200971098005677" lon="115.90223437856238"><ele>275.0</ele><time>2026-04-15T05:34:02Z</time></trkpt><trkpt lat="-27.200699062267034" lon="115.90220564760868"><ele>275.0</ele><time>2026-04-15T05:34:03Z</time></trkpt><trkpt lat="-27.200427329428994" lon="115.90217447303725"><ele>275.0</ele><time>2026-04-15T05:34:04Z</time></trkpt><trkpt lat="-27.200153680856882" lon="115.9021438273513"><ele>275.0</ele><time>2026-04-15T05:34:05Z</time></trkpt><trkpt lat="-27.199884332344784" lon="115.90211353217613"><ele>275.5</ele><time>2026-04-15T05:34:06Z</time></trkpt><trkpt lat="-27.199616881679283" lon="115.90208343377365"><ele>276.0</ele><time>2026-04-15T05:34:07Z</time></trkpt><trkpt lat="-27.199345610559792" lon="115.90205685694943"><ele>276.0</ele><time>2026-04-15T05:34:08Z</time></trkpt><trkpt lat="-27.19907343870663" lon="115.90203230136864"><ele>276.0</ele><time>2026-04-15T05:34:09Z</time></trkpt><trkpt lat="-27.198526899733174" lon="115.90198896536064"><ele>276.5</ele><time>2026-04-15T05:34:11Z</time></trkpt><trkpt lat="-27.198261339570845" lon="115.90196655311027"><ele>277.0</ele><time>2026-04-15T05:34:12Z</time></trkpt><trkpt lat="-27.197995659007617" lon="115.90194009754227"><ele>277.0</ele><time>2026-04-15T05:34:13Z</time></trkpt><trkpt lat="-27.197731745431046" lon="115.9019102750125"><ele>277.0</ele><time>2026-04-15T05:34:14Z</time></trkpt><trkpt lat="-27.19746610715282" lon="115.90187852966045"><ele>276.5</ele><time>2026-04-15T05:34:15Z</time></trkpt><trkpt lat="-27.197202566496788" lon="115.90184636303114"><ele>276.0</ele><time>2026-04-15T05:34:16Z</time></trkpt><trkpt lat="-27.196942331920635" lon="115.90181577615915"><ele>276.0</ele><time>2026-04-15T05:34:17Z</time></trkpt><trkpt lat="-27.19667950901942" lon="115.90178909778689"><ele>276.0</ele><time>2026-04-15T05:34:18Z</time></trkpt><trkpt lat="-27.196416211561075" lon="115.90176427293996"><ele>276.5</ele><time>2026-04-15T05:34:19Z</time></trkpt><trkpt lat="-27.196152172995564" lon="115.90174240590616"><ele>277.0</ele><time>2026-04-15T05:34:20Z</time></trkpt><trkpt lat="-27.195887965940805" lon="115.90171972189428"><ele>278.0</ele><time>2026-04-15T05:34:21Z</time></trkpt><trkpt lat="-27.195622941139504" lon="115.9016974134831"><ele>279.0</ele><time>2026-04-15T05:34:22Z</time></trkpt><trkpt lat="-27.195353849497423" lon="115.90167289951901"><ele>279.0</ele><time>2026-04-15T05:34:23Z</time></trkpt><trkpt lat="-27.195084450167545" lon="115.90164383407459"><ele>279.0</ele><time>2026-04-15T05:34:24Z</time></trkpt><trkpt lat="-27.19481423265774" lon="115.90161052352566"><ele>278.5</ele><time>2026-04-15T05:34:25Z</time></trkpt><trkpt lat="-27.194544698877042" lon="115.90157773709304"><ele>278.0</ele><time>2026-04-15T05:34:26Z</time></trkpt><trkpt lat="-27.194274694669758" lon="115.90154890521768"><ele>278.0</ele><time>2026-04-15T05:34:27Z</time></trkpt><trkpt lat="-27.19400740419569" lon="115.90152215251454"><ele>278.0</ele><time>2026-04-15T05:34:28Z</time></trkpt><trkpt lat="-27.193740098643527" lon="115.90149549936693"><ele>278.0</ele><time>2026-04-15T05:34:29Z</time></trkpt><trkpt lat="-27.193473971725822" lon="115.90146827573014"><ele>278.0</ele><time>2026-04-15T05:34:30Z</time></trkpt><trkpt lat="-27.192943786949815" lon="115.90141798407252"><ele>278.0</ele><time>2026-04-15T05:34:32Z</time></trkpt><trkpt lat="-27.19267953964394" lon="115.90139026541506"><ele>278.0</ele><time>2026-04-15T05:34:33Z</time></trkpt><trkpt lat="-27.19241476838028" lon="115.90136277079927"><ele>277.5</ele><time>2026-04-15T05:34:34Z</time></trkpt><trkpt lat="-27.192152320921632" lon="115.90133771200273"><ele>277.0</ele><time>2026-04-15T05:34:35Z</time></trkpt><trkpt lat="-27.19189030376427" lon="115.90131258000069"><ele>277.0</ele><time>2026-04-15T05:34:36Z</time></trkpt><trkpt lat="-27.191628667500055" lon="115.90128971095479"><ele>277.0</ele><time>2026-04-15T05:34:37Z</time></trkpt><trkpt lat="-27.191364234453133" lon="115.90126467589943"><ele>276.5</ele><time>2026-04-15T05:34:38Z</time></trkpt><trkpt lat="-27.19110212999126" lon="115.90123893903576"><ele>276.0</ele><time>2026-04-15T05:34:39Z</time></trkpt><trkpt lat="-27.190840073646402" lon="115.90121101283414"><ele>276.0</ele><time>2026-04-15T05:34:40Z</time></trkpt><trkpt lat="-27.1905763034742" lon="115.90118058857786"><ele>276.0</ele><time>2026-04-15T05:34:41Z</time></trkpt><trkpt lat="-27.190311551292886" lon="115.90115077344186"><ele>276.0</ele><time>2026-04-15T05:34:42Z</time></trkpt><trkpt lat="-27.19004603491042" lon="115.90112278409966"><ele>276.0</ele><time>2026-04-15T05:34:43Z</time></trkpt><trkpt lat="-27.18977963787573" lon="115.90109695005178"><ele>277.5</ele><time>2026-04-15T05:34:44Z</time></trkpt><trkpt lat="-27.18951713536873" lon="115.90107280805371"><ele>279.0</ele><time>2026-04-15T05:34:45Z</time></trkpt><trkpt lat="-27.189251347973684" lon="115.90105008833665"><ele>278.5</ele><time>2026-04-15T05:34:46Z</time></trkpt><trkpt lat="-27.188986260171333" lon="115.90102556450766"><ele>278.0</ele><time>2026-04-15T05:34:47Z</time></trkpt><trkpt lat="-27.188719424031977" lon="115.90099639322315"><ele>278.0</ele><time>2026-04-15T05:34:48Z</time></trkpt><trkpt lat="-27.188456359503643" lon="115.90096981073034"><ele>278.0</ele><time>2026-04-15T05:34:49Z</time></trkpt><trkpt lat="-27.188195630224822" lon="115.90094259479699"><ele>277.5</ele><time>2026-04-15T05:34:50Z</time></trkpt><trkpt lat="-27.187933855308398" lon="115.90091665590671"><ele>277.0</ele><time>2026-04-15T05:34:51Z</time></trkpt><trkpt lat="-27.187416118297953" lon="115.90087174741417"><ele>277.5</ele><time>2026-04-15T05:34:53Z</time></trkpt><trkpt lat="-27.187162333439023" lon="115.90084826146389"><ele>278.0</ele><time>2026-04-15T05:34:54Z</time></trkpt><trkpt lat="-27.186904644115938" lon="115.90082237956301"><ele>278.0</ele><time>2026-04-15T05:34:55Z</time></trkpt><trkpt lat="-27.18664502927202" lon="115.90079623072096"><ele>278.0</ele><time>2026-04-15T05:34:56Z</time></trkpt><trkpt lat="-27.18637795607609" lon="115.90076445393234"><ele>278.5</ele><time>2026-04-15T05:34:57Z</time></trkpt><trkpt lat="-27.186103009451013" lon="115.90072632526794"><ele>279.0</ele><time>2026-04-15T05:34:58Z</time></trkpt><trkpt lat="-27.185828385399947" lon="115.90068878711038"><ele>277.5</ele><time>2026-04-15T05:34:59Z</time></trkpt><trkpt lat="-27.18555627798462" lon="115.90065505801111"><ele>276.0</ele><time>2026-04-15T05:35:00Z</time></trkpt><trkpt lat="-27.185286829376583" lon="115.90062438067595"><ele>276.0</ele><time>2026-04-15T05:35:01Z</time></trkpt><trkpt lat="-27.18501735752191" lon="115.90059729314723"><ele>276.0</ele><time>2026-04-15T05:35:02Z</time></trkpt><trkpt lat="-27.184746847293933" lon="115.90057181048107"><ele>276.5</ele><time>2026-04-15T05:35:03Z</time></trkpt><trkpt lat="-27.184474060449997" lon="115.90054379581254"><ele>277.0</ele><time>2026-04-15T05:35:04Z</time></trkpt><trkpt lat="-27.1842011150134" lon="115.90051502056757"><ele>277.0</ele><time>2026-04-15T05:35:05Z</time></trkpt><trkpt lat="-27.183927769079105" lon="115.90048334965832"><ele>277.0</ele><time>2026-04-15T05:35:06Z</time></trkpt><trkpt lat="-27.183653084982993" lon="115.9004535621703"><ele>277.0</ele><time>2026-04-15T05:35:07Z</time></trkpt><trkpt lat="-27.183381084800637" lon="115.9004247459513"><ele>277.0</ele><time>2026-04-15T05:35:08Z</time></trkpt><trkpt lat="-27.183114318318268" lon="115.90039511615521"><ele>277.0</ele><time>2026-04-15T05:35:09Z</time></trkpt><trkpt lat="-27.182848031206447" lon="115.90036365363564"><ele>277.0</ele><time>2026-04-15T05:35:10Z</time></trkpt><trkpt lat="-27.18257949456393" lon="115.90033386363511"><ele>277.0</ele><time>2026-04-15T05:35:11Z</time></trkpt><trkpt lat="-27.18231773361173" lon="115.9003078673864"><ele>277.0</ele><time>2026-04-15T05:35:12Z</time></trkpt><trkpt lat="-27.181800563039417" lon="115.90025921129755"><ele>277.0</ele><time>2026-04-15T05:35:14Z</time></trkpt><trkpt lat="-27.181548654626308" lon="115.90023448210191"><ele>277.0</ele><time>2026-04-15T05:35:15Z</time></trkpt><trkpt lat="-27.18130122184232" lon="115.9002114151572"><ele>276.0</ele><time>2026-04-15T05:35:16Z</time></trkpt><trkpt lat="-27.181054367010706" lon="115.90018859630874"><ele>275.0</ele><time>2026-04-15T05:35:17Z</time></trkpt><trkpt lat="-27.18080767612304" lon="115.900163901857"><ele>275.5</ele><time>2026-04-15T05:35:18Z</time></trkpt><trkpt lat="-27.18056215488759" lon="115.90013696227753"><ele>276.0</ele><time>2026-04-15T05:35:19Z</time></trkpt><trkpt lat="-27.180319079542517" lon="115.90010851271869"><ele>276.0</ele><time>2026-04-15T05:35:20Z</time></trkpt><trkpt lat="-27.18007753942457" lon="115.90008456864857"><ele>276.0</ele><time>2026-04-15T05:35:21Z</time></trkpt><trkpt lat="-27.17983641572993" lon="115.90006213899936"><ele>276.5</ele><time>2026-04-15T05:35:22Z</time></trkpt><trkpt lat="-27.179597186370888" lon="115.9000376107091"><ele>277.0</ele><time>2026-04-15T05:35:23Z</time></trkpt><trkpt lat="-27.17935253013759" lon="115.90001232100501"><ele>277.0</ele><time>2026-04-15T05:35:24Z</time></trkpt><trkpt lat="-27.179114565069696" lon="115.89998559770788"><ele>277.0</ele><time>2026-04-15T05:35:25Z</time></trkpt><trkpt lat="-27.178873225419913" lon="115.89996209366562"><ele>277.5</ele><time>2026-04-15T05:35:26Z</time></trkpt><trkpt lat="-27.178633484452092" lon="115.89994432429447"><ele>278.0</ele><time>2026-04-15T05:35:27Z</time></trkpt><trkpt lat="-27.178380223313777" lon="115.89993852089465"><ele>278.0</ele><time>2026-04-15T05:35:28Z</time></trkpt><trkpt lat="-27.178145143459425" lon="115.89990759462027"><ele>278.0</ele><time>2026-04-15T05:35:29Z</time></trkpt><trkpt lat="-27.177898032692024" lon="115.89988161628524"><ele>278.0</ele><time>2026-04-15T05:35:30Z</time></trkpt><trkpt lat="-27.177655066724885" lon="115.89985841673375"><ele>278.0</ele><time>2026-04-15T05:35:31Z</time></trkpt><trkpt lat="-27.177410315941593" lon="115.89983690025497"><ele>277.0</ele><time>2026-04-15T05:35:32Z</time></trkpt><trkpt lat="-27.177163951265612" lon="115.89981375008409"><ele>276.0</ele><time>2026-04-15T05:35:33Z</time></trkpt><trkpt lat="-27.176668872590966" lon="115.89975394493975"><ele>276.0</ele><time>2026-04-15T05:35:35Z</time></trkpt><trkpt lat="-27.176420839250426" lon="115.89972184342915"><ele>276.0</ele><time>2026-04-15T05:35:36Z</time></trkpt><trkpt lat="-27.17616814957671" lon="115.89968964213858"><ele>276.0</ele><time>2026-04-15T05:35:37Z</time></trkpt><trkpt lat="-27.175915954970208" lon="115.89965832728866"><ele>276.0</ele><time>2026-04-15T05:35:38Z</time></trkpt><trkpt lat="-27.175662884863584" lon="115.89962544266083"><ele>275.5</ele><time>2026-04-15T05:35:39Z</time></trkpt><trkpt lat="-27.17540842313274" lon="115.89959432031881"><ele>275.0</ele><time>2026-04-15T05:35:40Z</time></trkpt><trkpt lat="-27.175153942587343" lon="115.899566045378"><ele>275.0</ele><time>2026-04-15T05:35:41Z</time></trkpt><trkpt lat="-27.174899762369805" lon="115.89953869800863"><ele>275.0</ele><time>2026-04-15T05:35:42Z</time></trkpt><trkpt lat="-27.174645218024974" lon="115.89950906290886"><ele>276.0</ele><time>2026-04-15T05:35:43Z</time></trkpt><trkpt lat="-27.174394857243932" lon="115.89948316895746"><ele>277.0</ele><time>2026-04-15T05:35:43.999Z</time></trkpt><trkpt lat="-27.174148709111616" lon="115.89946337812918"><ele>277.0</ele><time>2026-04-15T05:35:44.999Z</time></trkpt><trkpt lat="-27.17390375995458" lon="115.89945572251966"><ele>277.0</ele><time>2026-04-15T05:35:45.999Z</time></trkpt><trkpt lat="-27.1736569135943" lon="115.89944662506605"><ele>277.0</ele><time>2026-04-15T05:35:46.999Z</time></trkpt><trkpt lat="-27.17341074598523" lon="115.89943807467358"><ele>277.0</ele><time>2026-04-15T05:35:47.999Z</time></trkpt><trkpt lat="-27.173164516691482" lon="115.89942513345244"><ele>277.0</ele><time>2026-04-15T05:35:48.999Z</time></trkpt><trkpt lat="-27.172918230826397" lon="115.89940744332567"><ele>277.0</ele><time>2026-04-15T05:35:49.999Z</time></trkpt><trkpt lat="-27.172687454781023" lon="115.89938667900614"><ele>277.0</ele><time>2026-04-15T05:35:50.999Z</time></trkpt><trkpt lat="-27.172466272674292" lon="115.89936479707382"><ele>277.0</ele><time>2026-04-15T05:35:51.999Z</time></trkpt><trkpt lat="-27.172235197902417" lon="115.89934127083984"><ele>277.0</ele><time>2026-04-15T05:35:52.999Z</time></trkpt><trkpt lat="-27.171997304351727" lon="115.89931446265099"><ele>277.0</ele><time>2026-04-15T05:35:53.999Z</time></trkpt><trkpt lat="-27.171520831941823" lon="115.89925975582916"><ele>278.0</ele><time>2026-04-15T05:35:55.999Z</time></trkpt><trkpt lat="-27.171281428532485" lon="115.89923286037883"><ele>279.0</ele><time>2026-04-15T05:35:56.999Z</time></trkpt><trkpt lat="-27.171044342821833" lon="115.89920843011795"><ele>279.0</ele><time>2026-04-15T05:35:57.999Z</time></trkpt><trkpt lat="-27.17080332226531" lon="115.89918282638723"><ele>279.0</ele><time>2026-04-15T05:35:58.999Z</time></trkpt><trkpt lat="-27.170562973718802" lon="115.89915822843481"><ele>278.5</ele><time>2026-04-15T05:35:59.999Z</time></trkpt><trkpt lat="-27.170320910538845" lon="115.89913343296914"><ele>278.0</ele><time>2026-04-15T05:36:00.999Z</time></trkpt><trkpt lat="-27.170082424306067" lon="115.89910577185802"><ele>277.0</ele><time>2026-04-15T05:36:01.999Z</time></trkpt><trkpt lat="-27.169842735131077" lon="115.8990793439796"><ele>276.0</ele><time>2026-04-15T05:36:02.999Z</time></trkpt><trkpt lat="-27.169604813479417" lon="115.89905781785417"><ele>276.0</ele><time>2026-04-15T05:36:03.999Z</time></trkpt><trkpt lat="-27.16935844812708" lon="115.89903574560529"><ele>276.0</ele><time>2026-04-15T05:36:04.999Z</time></trkpt><trkpt lat="-27.169115570406145" lon="115.89901098641015"><ele>276.5</ele><time>2026-04-15T05:36:05.999Z</time></trkpt><trkpt lat="-27.168873545078295" lon="115.89898549787965"><ele>277.0</ele><time>2026-04-15T05:36:06.999Z</time></trkpt><trkpt lat="-27.16863486553639" lon="115.89895958764536"><ele>277.0</ele><time>2026-04-15T05:36:07.999Z</time></trkpt><trkpt lat="-27.168390317868404" lon="115.89893482869464"><ele>277.0</ele><time>2026-04-15T05:36:08.999Z</time></trkpt><trkpt lat="-27.168148798432643" lon="115.89891400956196"><ele>277.0</ele><time>2026-04-15T05:36:09.999Z</time></trkpt><trkpt lat="-27.167908524554527" lon="115.89889346784"><ele>277.0</ele><time>2026-04-15T05:36:10.999Z</time></trkpt><trkpt lat="-27.167667657920425" lon="115.89886975073675"><ele>277.0</ele><time>2026-04-15T05:36:11.999Z</time></trkpt><trkpt lat="-27.16742317131566" lon="115.89884544974423"><ele>277.0</ele><time>2026-04-15T05:36:12.999Z</time></trkpt><trkpt lat="-27.167181744505" lon="115.8988148841718"><ele>277.5</ele><time>2026-04-15T05:36:13.999Z</time></trkpt><trkpt lat="-27.166939965815523" lon="115.89877323169519"><ele>278.0</ele><time>2026-04-15T05:36:14.999Z</time></trkpt><trkpt lat="-27.166469642521445" lon="115.89865761649239"><ele>278.0</ele><time>2026-04-15T05:36:16.999Z</time></trkpt><trkpt lat="-27.166236536974147" lon="115.89858864122527"><ele>278.0</ele><time>2026-04-15T05:36:17.999Z</time></trkpt><trkpt lat="-27.166003684229672" lon="115.89851780100945"><ele>278.0</ele><time>2026-04-15T05:36:18.999Z</time></trkpt><trkpt lat="-27.16577483743944" lon="115.89845125766185"><ele>278.0</ele><time>2026-04-15T05:36:19.999Z</time></trkpt><trkpt lat="-27.1655495806332" lon="115.89838013485574"><ele>276.5</ele><time>2026-04-15T05:36:20.999Z</time></trkpt><trkpt lat="-27.165319868145144" lon="115.8982902276365"><ele>275.0</ele><time>2026-04-15T05:36:21.999Z</time></trkpt><trkpt lat="-27.16509842822742" lon="115.8981860632815"><ele>275.0</ele><time>2026-04-15T05:36:22.999Z</time></trkpt><trkpt lat="-27.164863831158197" lon="115.89808348120461"><ele>275.0</ele><time>2026-04-15T05:36:23.999Z</time></trkpt><trkpt lat="-27.164636319529016" lon="115.89799256144407"><ele>276.0</ele><time>2026-04-15T05:36:24.999Z</time></trkpt><trkpt lat="-27.164399562279737" lon="115.89790860400142"><ele>277.0</ele><time>2026-04-15T05:36:25.999Z</time></trkpt><trkpt lat="-27.164157966688002" lon="115.89782716159024"><ele>277.0</ele><time>2026-04-15T05:36:26.999Z</time></trkpt><trkpt lat="-27.163914679619683" lon="115.89775202519425"><ele>277.0</ele><time>2026-04-15T05:36:27.999Z</time></trkpt><trkpt lat="-27.16366383141038" lon="115.89768387151867"><ele>277.0</ele><time>2026-04-15T05:36:28.999Z</time></trkpt><trkpt lat="-27.16341768652465" lon="115.89762560853666"><ele>277.0</ele><time>2026-04-15T05:36:29.999Z</time></trkpt><trkpt lat="-27.163165936282443" lon="115.89757533074675"><ele>277.0</ele><time>2026-04-15T05:36:30.999Z</time></trkpt><trkpt lat="-27.162913210519292" lon="115.89753499299947"><ele>277.0</ele><time>2026-04-15T05:36:31.999Z</time></trkpt><trkpt lat="-27.16265831458192" lon="115.89750931015"><ele>277.0</ele><time>2026-04-15T05:36:32.999Z</time></trkpt><trkpt lat="-27.162403156509242" lon="115.89749403247033"><ele>277.0</ele><time>2026-04-15T05:36:33.999Z</time></trkpt><trkpt lat="-27.1621464305469" lon="115.89748373767736"><ele>277.0</ele><time>2026-04-15T05:36:34.999Z</time></trkpt><trkpt lat="-27.16188606719847" lon="115.89747676937324"><ele>277.0</ele><time>2026-04-15T05:36:35.999Z</time></trkpt><trkpt lat="-27.161370697308747" lon="115.89745498896276"><ele>277.0</ele><time>2026-04-15T05:36:37.999Z</time></trkpt><trkpt lat="-27.161117743675508" lon="115.89744691096017"><ele>277.0</ele><time>2026-04-15T05:36:38.999Z</time></trkpt><trkpt lat="-27.160863296614618" lon="115.89744178917076"><ele>277.5</ele><time>2026-04-15T05:36:39.999Z</time></trkpt><trkpt lat="-27.16060525475558" lon="115.8974368986209"><ele>278.0</ele><time>2026-04-15T05:36:40.999Z</time></trkpt><trkpt lat="-27.160348653158362" lon="115.89743068194218"><ele>278.0</ele><time>2026-04-15T05:36:41.999Z</time></trkpt><trkpt lat="-27.160087805258346" lon="115.89742393191533"><ele>278.0</ele><time>2026-04-15T05:36:42.999Z</time></trkpt><trkpt lat="-27.159823722922223" lon="115.89741652783188"><ele>277.0</ele><time>2026-04-15T05:36:43.999Z</time></trkpt><trkpt lat="-27.159560192068206" lon="115.8974114949207"><ele>276.0</ele><time>2026-04-15T05:36:44.999Z</time></trkpt><trkpt lat="-27.159297510434232" lon="115.89740842203014"><ele>276.0</ele><time>2026-04-15T05:36:45.999Z</time></trkpt><trkpt lat="-27.159037400759882" lon="115.89740524188987"><ele>276.0</ele><time>2026-04-15T05:36:46.999Z</time></trkpt><trkpt lat="-27.15877431791627" lon="115.89740092034575"><ele>275.5</ele><time>2026-04-15T05:36:47.999Z</time></trkpt><trkpt lat="-27.15851356499173" lon="115.89739795015105"><ele>275.0</ele><time>2026-04-15T05:36:48.999Z</time></trkpt><trkpt lat="-27.158251759233927" lon="115.89739572567105"><ele>274.5</ele><time>2026-04-15T05:36:49.999Z</time></trkpt><trkpt lat="-27.157994181506325" lon="115.89739345467814"><ele>274.0</ele><time>2026-04-15T05:36:50.999Z</time></trkpt><trkpt lat="-27.157734139871156" lon="115.89739131651672"><ele>274.0</ele><time>2026-04-15T05:36:51.999Z</time></trkpt><trkpt lat="-27.157486266801605" lon="115.89739073922058"><ele>274.0</ele><time>2026-04-15T05:36:52.999Z</time></trkpt><trkpt lat="-27.15721970575938" lon="115.89738447921128"><ele>275.0</ele><time>2026-04-15T05:36:53.999Z</time></trkpt><trkpt lat="-27.156953909984097" lon="115.89737881052075"><ele>276.0</ele><time>2026-04-15T05:36:54.999Z</time></trkpt><trkpt lat="-27.156689463076404" lon="115.8973739227011"><ele>276.0</ele><time>2026-04-15T05:36:55.999Z</time></trkpt><trkpt lat="-27.156424473083995" lon="115.89737213648431"><ele>276.0</ele><time>2026-04-15T05:36:56.999Z</time></trkpt><trkpt lat="-27.155891137390828" lon="115.897367813303"><ele>276.0</ele><time>2026-04-15T05:36:58.999Z</time></trkpt><trkpt lat="-27.15562389953484" lon="115.89736244548212"><ele>276.0</ele><time>2026-04-15T05:36:59.999Z</time></trkpt><trkpt lat="-27.155352166994025" lon="115.89735661941864"><ele>276.0</ele><time>2026-04-15T05:37:00.999Z</time></trkpt><trkpt lat="-27.15508025052563" lon="115.89735208006073"><ele>276.0</ele><time>2026-04-15T05:37:01.999Z</time></trkpt><trkpt lat="-27.154811614898083" lon="115.89734474682854"><ele>275.0</ele><time>2026-04-15T05:37:03Z</time></trkpt><trkpt lat="-27.154541311048256" lon="115.89734002980397"><ele>274.0</ele><time>2026-04-15T05:37:03.999Z</time></trkpt><trkpt lat="-27.154273419704918" lon="115.89733405533835"><ele>274.5</ele><time>2026-04-15T05:37:04.999Z</time></trkpt><trkpt lat="-27.154002566259994" lon="115.89732821135632"><ele>275.0</ele><time>2026-04-15T05:37:05.999Z</time></trkpt><trkpt lat="-27.153736118345495" lon="115.89732269401573"><ele>275.0</ele><time>2026-04-15T05:37:06.999Z</time></trkpt><trkpt lat="-27.153470487239776" lon="115.89732107196113"><ele>275.0</ele><time>2026-04-15T05:37:07.999Z</time></trkpt><trkpt lat="-27.153204232176606" lon="115.89731623436677"><ele>276.0</ele><time>2026-04-15T05:37:08.999Z</time></trkpt><trkpt lat="-27.15293110779453" lon="115.89731125979813"><ele>277.0</ele><time>2026-04-15T05:37:09.999Z</time></trkpt><trkpt lat="-27.152654688330905" lon="115.89730742538622"><ele>277.0</ele><time>2026-04-15T05:37:10.999Z</time></trkpt><trkpt lat="-27.152377432616575" lon="115.89730314176886"><ele>277.0</ele><time>2026-04-15T05:37:11.999Z</time></trkpt><trkpt lat="-27.152100500095354" lon="115.89729875694435"><ele>276.0</ele><time>2026-04-15T05:37:12.999Z</time></trkpt><trkpt lat="-27.151823292325247" lon="115.89729422674971"><ele>275.0</ele><time>2026-04-15T05:37:13.999Z</time></trkpt><trkpt lat="-27.15154585422944" lon="115.89728688836078"><ele>275.0</ele><time>2026-04-15T05:37:14.999Z</time></trkpt><trkpt lat="-27.151272659794717" lon="115.89728297933895"><ele>275.0</ele><time>2026-04-15T05:37:15.999Z</time></trkpt><trkpt lat="-27.151004456858765" lon="115.89727811587596"><ele>275.0</ele><time>2026-04-15T05:37:16.999Z</time></trkpt><trkpt lat="-27.150739288900844" lon="115.89727005974383"><ele>275.0</ele><time>2026-04-15T05:37:17.999Z</time></trkpt><trkpt lat="-27.150214965095742" lon="115.89725447009774"><ele>275.0</ele><time>2026-04-15T05:37:19.999Z</time></trkpt><trkpt lat="-27.14995857217862" lon="115.89725486167752"><ele>275.0</ele><time>2026-04-15T05:37:20.999Z</time></trkpt><trkpt lat="-27.149700008381565" lon="115.89725439666545"><ele>275.0</ele><time>2026-04-15T05:37:21.999Z</time></trkpt><trkpt lat="-27.149444416439817" lon="115.89724995238667"><ele>275.0</ele><time>2026-04-15T05:37:22.999Z</time></trkpt><trkpt lat="-27.14918600159527" lon="115.89724121561095"><ele>275.5</ele><time>2026-04-15T05:37:23.999Z</time></trkpt><trkpt lat="-27.14892509021471" lon="115.89723178397061"><ele>276.0</ele><time>2026-04-15T05:37:24.999Z</time></trkpt><trkpt lat="-27.1486615001524" lon="115.89722102466098"><ele>276.0</ele><time>2026-04-15T05:37:25.999Z</time></trkpt><trkpt lat="-27.14839038299176" lon="115.89721661870509"><ele>276.0</ele><time>2026-04-15T05:37:26.999Z</time></trkpt><trkpt lat="-27.148113033266995" lon="115.89721378216421"><ele>275.0</ele><time>2026-04-15T05:37:27.999Z</time></trkpt><trkpt lat="-27.14783292865279" lon="115.8972102027031"><ele>274.0</ele><time>2026-04-15T05:37:28.999Z</time></trkpt><trkpt lat="-27.147550649872933" lon="115.89720627686629"><ele>275.5</ele><time>2026-04-15T05:37:29.999Z</time></trkpt><trkpt lat="-27.14727063355256" lon="115.89719952583152"><ele>277.0</ele><time>2026-04-15T05:37:30.999Z</time></trkpt><trkpt lat="-27.146990466212348" lon="115.89719265901883"><ele>277.0</ele><time>2026-04-15T05:37:31.999Z</time></trkpt><trkpt lat="-27.146711011704397" lon="115.89718904620707"><ele>277.0</ele><time>2026-04-15T05:37:32.999Z</time></trkpt><trkpt lat="-27.146430906760354" lon="115.89718436664604"><ele>277.0</ele><time>2026-04-15T05:37:33.999Z</time></trkpt><trkpt lat="-27.14614633274845" lon="115.89717850094085"><ele>277.0</ele><time>2026-04-15T05:37:34.999Z</time></trkpt><trkpt lat="-27.145859002943634" lon="115.8971677577337"><ele>277.5</ele><time>2026-04-15T05:37:35.999Z</time></trkpt><trkpt lat="-27.1455701764126" lon="115.89715826768813"><ele>278.0</ele><time>2026-04-15T05:37:36.999Z</time></trkpt><trkpt lat="-27.1452837757045" lon="115.89715336191512"><ele>278.0</ele><time>2026-04-15T05:37:37.999Z</time></trkpt><trkpt lat="-27.14500044968012" lon="115.89715081796307"><ele>278.0</ele><time>2026-04-15T05:37:38.999Z</time></trkpt><trkpt lat="-27.144431428857395" lon="115.89713970252951"><ele>277.5</ele><time>2026-04-15T05:37:40.999Z</time></trkpt><trkpt lat="-27.14414812347119" lon="115.89713286049871"><ele>277.0</ele><time>2026-04-15T05:37:41.999Z</time></trkpt><trkpt lat="-27.143862220884202" lon="115.89712681913021"><ele>278.0</ele><time>2026-04-15T05:37:42.999Z</time></trkpt><trkpt lat="-27.14357253129826" lon="115.89712332625638"><ele>279.0</ele><time>2026-04-15T05:37:43.999Z</time></trkpt><trkpt lat="-27.14328188632835" lon="115.89711988899447"><ele>278.0</ele><time>2026-04-15T05:37:44.999Z</time></trkpt><trkpt lat="-27.14299611098794" lon="115.89711678239614"><ele>277.0</ele><time>2026-04-15T05:37:45.999Z</time></trkpt><trkpt lat="-27.14271291761376" lon="115.89710911082118"><ele>277.0</ele><time>2026-04-15T05:37:46.999Z</time></trkpt><trkpt lat="-27.142433726067537" lon="115.89710255913384"><ele>277.0</ele><time>2026-04-15T05:37:47.999Z</time></trkpt><trkpt lat="-27.142154614630496" lon="115.89709671666706"><ele>276.5</ele><time>2026-04-15T05:37:48.999Z</time></trkpt><trkpt lat="-27.141874549721837" lon="115.89709185958975"><ele>276.0</ele><time>2026-04-15T05:37:49.999Z</time></trkpt><trkpt lat="-27.141588300961544" lon="115.89708541400242"><ele>276.5</ele><time>2026-04-15T05:37:50.999Z</time></trkpt><trkpt lat="-27.14130450001773" lon="115.89707818364529"><ele>277.0</ele><time>2026-04-15T05:37:51.999Z</time></trkpt><trkpt lat="-27.141022997738595" lon="115.89707184813072"><ele>277.0</ele><time>2026-04-15T05:37:52.999Z</time></trkpt><trkpt lat="-27.14074160317996" lon="115.89706194140673"><ele>277.0</ele><time>2026-04-15T05:37:53.999Z</time></trkpt><trkpt lat="-27.140458915680593" lon="115.89704435273045"><ele>277.5</ele><time>2026-04-15T05:37:54.999Z</time></trkpt><trkpt lat="-27.140177854716523" lon="115.89702411042892"><ele>278.0</ele><time>2026-04-15T05:37:55.999Z</time></trkpt><trkpt lat="-27.13989996050793" lon="115.89700570068727"><ele>277.5</ele><time>2026-04-15T05:37:56.999Z</time></trkpt><trkpt lat="-27.13962270195066" lon="115.89698784775084"><ele>277.0</ele><time>2026-04-15T05:37:57.999Z</time></trkpt><trkpt lat="-27.139346193051978" lon="115.89696994547778"><ele>278.0</ele><time>2026-04-15T05:37:58.999Z</time></trkpt><trkpt lat="-27.138789435872784" lon="115.8969341954583"><ele>278.0</ele><time>2026-04-15T05:38:00.999Z</time></trkpt><trkpt lat="-27.13850838205193" lon="115.89691510133042"><ele>278.0</ele><time>2026-04-15T05:38:01.999Z</time></trkpt><trkpt lat="-27.138225425871497" lon="115.89689602483001"><ele>277.5</ele><time>2026-04-15T05:38:02.999Z</time></trkpt><trkpt lat="-27.137944421616652" lon="115.89687613634572"><ele>277.0</ele><time>2026-04-15T05:38:03.999Z</time></trkpt><trkpt lat="-27.13766209841804" lon="115.89685512073663"><ele>277.0</ele><time>2026-04-15T05:38:04.999Z</time></trkpt><trkpt lat="-27.137380972308645" lon="115.89683586401806"><ele>277.0</ele><time>2026-04-15T05:38:05.999Z</time></trkpt><trkpt lat="-27.137098696470417" lon="115.89681925995514"><ele>277.0</ele><time>2026-04-15T05:38:06.999Z</time></trkpt><trkpt lat="-27.13681660929888" lon="115.89680383075408"><ele>277.0</ele><time>2026-04-15T05:38:07.999Z</time></trkpt><trkpt lat="-27.136534814986987" lon="115.89678474334234"><ele>277.5</ele><time>2026-04-15T05:38:08.999Z</time></trkpt><trkpt lat="-27.13625342633035" lon="115.89676545646061"><ele>278.0</ele><time>2026-04-15T05:38:09.999Z</time></trkpt><trkpt lat="-27.135975096967638" lon="115.89674781878487"><ele>278.0</ele><time>2026-04-15T05:38:10.999Z</time></trkpt><trkpt lat="-27.135700800702743" lon="115.89672980633807"><ele>278.0</ele><time>2026-04-15T05:38:11.999Z</time></trkpt><trkpt lat="-27.13542660540958" lon="115.89671516099342"><ele>278.0</ele><time>2026-04-15T05:38:12.999Z</time></trkpt><trkpt lat="-27.13515618523766" lon="115.89670071726138"><ele>278.0</ele><time>2026-04-15T05:38:13.999Z</time></trkpt><trkpt lat="-27.13488356556281" lon="115.89668374423049"><ele>277.0</ele><time>2026-04-15T05:38:14.999Z</time></trkpt><trkpt lat="-27.134614554686358" lon="115.89666579548495"><ele>276.0</ele><time>2026-04-15T05:38:15.999Z</time></trkpt><trkpt lat="-27.134345483070064" lon="115.89664720152088"><ele>276.0</ele><time>2026-04-15T05:38:16.999Z</time></trkpt><trkpt lat="-27.13407883033097" lon="115.89663025212"><ele>276.0</ele><time>2026-04-15T05:38:17.999Z</time></trkpt><trkpt lat="-27.133806126736626" lon="115.8966133831296"><ele>276.0</ele><time>2026-04-15T05:38:18.999Z</time></trkpt><trkpt lat="-27.133532001219326" lon="115.89659661452613"><ele>276.0</ele><time>2026-04-15T05:38:19.999Z</time></trkpt><trkpt lat="-27.132970580849772" lon="115.89656082675812"><ele>276.0</ele><time>2026-04-15T05:38:21.999Z</time></trkpt><trkpt lat="-27.132686193786732" lon="115.89654170657964"><ele>276.0</ele><time>2026-04-15T05:38:22.999Z</time></trkpt><trkpt lat="-27.132399462009204" lon="115.89652584750652"><ele>276.5</ele><time>2026-04-15T05:38:23.999Z</time></trkpt><trkpt lat="-27.132116657890194" lon="115.89650678660595"><ele>277.0</ele><time>2026-04-15T05:38:24.999Z</time></trkpt><trkpt lat="-27.131829708991578" lon="115.89648454572684"><ele>276.5</ele><time>2026-04-15T05:38:25.999Z</time></trkpt><trkpt lat="-27.13154236999584" lon="115.8964632296293"><ele>276.0</ele><time>2026-04-15T05:38:26.999Z</time></trkpt><trkpt lat="-27.131256236012426" lon="115.89644341196842"><ele>276.0</ele><time>2026-04-15T05:38:27.999Z</time></trkpt><trkpt lat="-27.13096946235986" lon="115.89642413718173"><ele>276.0</ele><time>2026-04-15T05:38:28.999Z</time></trkpt><trkpt lat="-27.130682696584127" lon="115.89640571022643"><ele>276.5</ele><time>2026-04-15T05:38:29.999Z</time></trkpt><trkpt lat="-27.13039704306603" lon="115.89638493077089"><ele>277.0</ele><time>2026-04-15T05:38:30.999Z</time></trkpt><trkpt lat="-27.13011222561114" lon="115.89636609399432"><ele>277.5</ele><time>2026-04-15T05:38:31.999Z</time></trkpt><trkpt lat="-27.129828733508266" lon="115.8963494395031"><ele>278.0</ele><time>2026-04-15T05:38:32.999Z</time></trkpt><trkpt lat="-27.129545922365597" lon="115.89633505627168"><ele>278.0</ele><time>2026-04-15T05:38:33.999Z</time></trkpt><trkpt lat="-27.1292631515442" lon="115.89631709717374"><ele>278.0</ele><time>2026-04-15T05:38:34.999Z</time></trkpt><trkpt lat="-27.12898150581215" lon="115.89629817827043"><ele>277.5</ele><time>2026-04-15T05:38:35.999Z</time></trkpt><trkpt lat="-27.128699581077232" lon="115.89628141632531"><ele>277.0</ele><time>2026-04-15T05:38:36.999Z</time></trkpt><trkpt lat="-27.128416734115614" lon="115.8962640590656"><ele>277.0</ele><time>2026-04-15T05:38:37.999Z</time></trkpt><trkpt lat="-27.1281332725641" lon="115.89624180366631"><ele>277.0</ele><time>2026-04-15T05:38:38.999Z</time></trkpt><trkpt lat="-27.127848233441252" lon="115.8962209028721"><ele>277.0</ele><time>2026-04-15T05:38:39.999Z</time></trkpt><trkpt lat="-27.12756550612454" lon="115.89620231566805"><ele>277.0</ele><time>2026-04-15T05:38:40.999Z</time></trkpt><trkpt lat="-27.127005118030322" lon="115.89616043894273"><ele>277.0</ele><time>2026-04-15T05:38:42.999Z</time></trkpt><trkpt lat="-27.126725271367064" lon="115.89614301923324"><ele>277.0</ele><time>2026-04-15T05:38:43.999Z</time></trkpt><trkpt lat="-27.126447395700147" lon="115.89612411548943"><ele>277.0</ele><time>2026-04-15T05:38:44.999Z</time></trkpt><trkpt lat="-27.12616864942969" lon="115.89610475092988"><ele>277.0</ele><time>2026-04-15T05:38:45.999Z</time></trkpt><trkpt lat="-27.125893959669344" lon="115.89608695290096"><ele>276.5</ele><time>2026-04-15T05:38:46.999Z</time></trkpt><trkpt lat="-27.125617661795808" lon="115.89607062447952"><ele>276.0</ele><time>2026-04-15T05:38:47.999Z</time></trkpt><trkpt lat="-27.12534526652806" lon="115.89605541415216"><ele>276.0</ele><time>2026-04-15T05:38:48.999Z</time></trkpt><trkpt lat="-27.125071688272964" lon="115.89603930036427"><ele>276.0</ele><time>2026-04-15T05:38:49.999Z</time></trkpt><trkpt lat="-27.124802685102647" lon="115.89602235228153"><ele>277.5</ele><time>2026-04-15T05:38:50.999Z</time></trkpt><trkpt lat="-27.124534308032207" lon="115.89600538225628"><ele>279.0</ele><time>2026-04-15T05:38:51.999Z</time></trkpt><trkpt lat="-27.124263098150397" lon="115.89598552082359"><ele>279.0</ele><time>2026-04-15T05:38:52.999Z</time></trkpt><trkpt lat="-27.123989133701162" lon="115.89596181429016"><ele>279.0</ele><time>2026-04-15T05:38:53.999Z</time></trkpt><trkpt lat="-27.123716469214695" lon="115.89593846146124"><ele>279.0</ele><time>2026-04-15T05:38:54.999Z</time></trkpt><trkpt lat="-27.12344319704095" lon="115.89592052729924"><ele>279.0</ele><time>2026-04-15T05:38:55.999Z</time></trkpt><trkpt lat="-27.12317214349575" lon="115.89590400926315"><ele>278.0</ele><time>2026-04-15T05:38:56.999Z</time></trkpt><trkpt lat="-27.12290407178286" lon="115.89588771874176"><ele>277.0</ele><time>2026-04-15T05:38:57.999Z</time></trkpt><trkpt lat="-27.122636066633888" lon="115.89587206319673"><ele>276.0</ele><time>2026-04-15T05:38:58.999Z</time></trkpt><trkpt lat="-27.12237123604054" lon="115.8958550224928"><ele>275.0</ele><time>2026-04-15T05:38:59.999Z</time></trkpt><trkpt lat="-27.12210370451453" lon="115.89583717164021"><ele>275.0</ele><time>2026-04-15T05:39:00.999Z</time></trkpt><trkpt lat="-27.121834562223775" lon="115.89581727327631"><ele>275.0</ele><time>2026-04-15T05:39:01.999Z</time></trkpt><trkpt lat="-27.12129470094034" lon="115.89577866002973"><ele>275.0</ele><time>2026-04-15T05:39:03.999Z</time></trkpt><trkpt lat="-27.12102379470449" lon="115.89575849175053"><ele>275.0</ele><time>2026-04-15T05:39:04.999Z</time></trkpt><trkpt lat="-27.12075024040703" lon="115.89573825811175"><ele>276.5</ele><time>2026-04-15T05:39:05.999Z</time></trkpt><trkpt lat="-27.120473140342746" lon="115.89571043102066"><ele>278.0</ele><time>2026-04-15T05:39:06.999Z</time></trkpt><trkpt lat="-27.120194449741373" lon="115.89567736405857"><ele>278.0</ele><time>2026-04-15T05:39:07.999Z</time></trkpt><trkpt lat="-27.119913684111253" lon="115.89564750452136"><ele>278.0</ele><time>2026-04-15T05:39:08.999Z</time></trkpt><trkpt lat="-27.119634511963522" lon="115.89561918033851"><ele>278.0</ele><time>2026-04-15T05:39:09.999Z</time></trkpt><trkpt lat="-27.119358439546165" lon="115.89559393330387"><ele>278.0</ele><time>2026-04-15T05:39:10.999Z</time></trkpt><trkpt lat="-27.119083443695263" lon="115.89556162893138"><ele>277.0</ele><time>2026-04-15T05:39:11.999Z</time></trkpt><trkpt lat="-27.11880881750441" lon="115.89552285459244"><ele>276.0</ele><time>2026-04-15T05:39:12.999Z</time></trkpt><trkpt lat="-27.11853533668608" lon="115.89548600653691"><ele>276.0</ele><time>2026-04-15T05:39:13.999Z</time></trkpt><trkpt lat="-27.118262056365946" lon="115.89544744831005"><ele>276.0</ele><time>2026-04-15T05:39:14.999Z</time></trkpt><trkpt lat="-27.117990154316093" lon="115.89540736635773"><ele>276.5</ele><time>2026-04-15T05:39:15.999Z</time></trkpt><trkpt lat="-27.11772009097736" lon="115.89536501187229"><ele>277.0</ele><time>2026-04-15T05:39:16.999Z</time></trkpt><trkpt lat="-27.117451928215484" lon="115.89531983555011"><ele>276.5</ele><time>2026-04-15T05:39:17.999Z</time></trkpt><trkpt lat="-27.117182646243005" lon="115.8952786269965"><ele>276.0</ele><time>2026-04-15T05:39:18.999Z</time></trkpt><trkpt lat="-27.116915290510324" lon="115.89524035275092"><ele>276.0</ele><time>2026-04-15T05:39:19.999Z</time></trkpt><trkpt lat="-27.11664952615" lon="115.89520103952336"><ele>276.0</ele><time>2026-04-15T05:39:20.999Z</time></trkpt><trkpt lat="-27.116384243962884" lon="115.8951610686331"><ele>275.5</ele><time>2026-04-15T05:39:21.999Z</time></trkpt><trkpt lat="-27.116119697328497" lon="115.89512088417452"><ele>275.0</ele><time>2026-04-15T05:39:22.999Z</time></trkpt><trkpt lat="-27.115630647082003" lon="115.89504666412867"><ele>274.5</ele><time>2026-04-15T05:39:24.999Z</time></trkpt><trkpt lat="-27.11538638885542" lon="115.89501238823068"><ele>274.0</ele><time>2026-04-15T05:39:25.999Z</time></trkpt><trkpt lat="-27.115138638830476" lon="115.89497829154499"><ele>274.5</ele><time>2026-04-15T05:39:26.999Z</time></trkpt><trkpt lat="-27.114892412557214" lon="115.8949450379272"><ele>275.0</ele><time>2026-04-15T05:39:27.999Z</time></trkpt><trkpt lat="-27.114646875026438" lon="115.89490556947091"><ele>275.0</ele><time>2026-04-15T05:39:28.999Z</time></trkpt><trkpt lat="-27.114408622306065" lon="115.89486585937398"><ele>275.0</ele><time>2026-04-15T05:39:29.999Z</time></trkpt><trkpt lat="-27.114162978021334" lon="115.89482571856115"><ele>275.0</ele><time>2026-04-15T05:39:30.999Z</time></trkpt><trkpt lat="-27.11392021963993" lon="115.89478567463921"><ele>275.0</ele><time>2026-04-15T05:39:31.999Z</time></trkpt><trkpt lat="-27.113679133171118" lon="115.89474653200884"><ele>275.0</ele><time>2026-04-15T05:39:32.999Z</time></trkpt><trkpt lat="-27.113445777614835" lon="115.89471066353283"><ele>275.0</ele><time>2026-04-15T05:39:33.999Z</time></trkpt><trkpt lat="-27.113214947352752" lon="115.89467458607659"><ele>275.5</ele><time>2026-04-15T05:39:34.999Z</time></trkpt><trkpt lat="-27.112983309000047" lon="115.89463945004782"><ele>276.0</ele><time>2026-04-15T05:39:35.999Z</time></trkpt><trkpt lat="-27.112750330871968" lon="115.89460933683476"><ele>276.0</ele><time>2026-04-15T05:39:36.999Z</time></trkpt><trkpt lat="-27.112511355115668" lon="115.89457913511106"><ele>276.0</ele><time>2026-04-15T05:39:37.999Z</time></trkpt><trkpt lat="-27.11227174291856" lon="115.89454313804634"><ele>275.0</ele><time>2026-04-15T05:39:38.999Z</time></trkpt><trkpt lat="-27.112025132162117" lon="115.89449846388801"><ele>274.0</ele><time>2026-04-15T05:39:39.999Z</time></trkpt><trkpt lat="-27.11177634130208" lon="115.89445426724971"><ele>275.0</ele><time>2026-04-15T05:39:40.999Z</time></trkpt><trkpt lat="-27.111520782751555" lon="115.89441256815287"><ele>276.0</ele><time>2026-04-15T05:39:41.999Z</time></trkpt><trkpt lat="-27.1112669076148" lon="115.89437571833699"><ele>276.0</ele><time>2026-04-15T05:39:42.999Z</time></trkpt><trkpt lat="-27.111006695869573" lon="115.8943394699237"><ele>276.0</ele><time>2026-04-15T05:39:43.999Z</time></trkpt><trkpt lat="-27.110476825814217" lon="115.894261789416"><ele>275.0</ele><time>2026-04-15T05:39:45.999Z</time></trkpt><trkpt lat="-27.11020204084524" lon="115.89421858261595"><ele>274.0</ele><time>2026-04-15T05:39:46.999Z</time></trkpt><trkpt lat="-27.109926061490572" lon="115.89417551630935"><ele>274.5</ele><time>2026-04-15T05:39:47.999Z</time></trkpt><trkpt lat="-27.10964468896625" lon="115.89413073202942"><ele>275.0</ele><time>2026-04-15T05:39:48.999Z</time></trkpt><trkpt lat="-27.10936071287752" lon="115.89408561415736"><ele>275.0</ele><time>2026-04-15T05:39:49.999Z</time></trkpt><trkpt lat="-27.109079599545908" lon="115.8940408987277"><ele>275.0</ele><time>2026-04-15T05:39:50.999Z</time></trkpt><trkpt lat="-27.10880099172335" lon="115.89399973489887"><ele>275.5</ele><time>2026-04-15T05:39:51.999Z</time></trkpt><trkpt lat="-27.10852315611521" lon="115.89395999159635"><ele>276.0</ele><time>2026-04-15T05:39:52.999Z</time></trkpt><trkpt lat="-27.10824372854376" lon="115.89392039632561"><ele>276.0</ele><time>2026-04-15T05:39:53.999Z</time></trkpt><trkpt lat="-27.107963277293564" lon="115.89388082292513"><ele>276.0</ele><time>2026-04-15T05:39:54.999Z</time></trkpt><trkpt lat="-27.107684101996043" lon="115.89384292212327"><ele>275.5</ele><time>2026-04-15T05:39:55.999Z</time></trkpt><trkpt lat="-27.107406355549138" lon="115.89380354139205"><ele>275.0</ele><time>2026-04-15T05:39:56.999Z</time></trkpt><trkpt lat="-27.107130841812758" lon="115.8937620666964"><ele>275.0</ele><time>2026-04-15T05:39:57.999Z</time></trkpt><trkpt lat="-27.106854947370483" lon="115.89371679211223"><ele>275.0</ele><time>2026-04-15T05:39:58.999Z</time></trkpt><trkpt lat="-27.106580019887147" lon="115.89366888038529"><ele>274.5</ele><time>2026-04-15T05:39:59.999Z</time></trkpt><trkpt lat="-27.10630007539685" lon="115.89362203788495"><ele>274.0</ele><time>2026-04-15T05:40:00.999Z</time></trkpt><trkpt lat="-27.10601826805618" lon="115.89357892238357"><ele>274.5</ele><time>2026-04-15T05:40:01.999Z</time></trkpt><trkpt lat="-27.10573099502102" lon="115.8935366529525"><ele>275.0</ele><time>2026-04-15T05:40:02.999Z</time></trkpt><trkpt lat="-27.105445335795665" lon="115.89349419962282"><ele>275.0</ele><time>2026-04-15T05:40:03.999Z</time></trkpt><trkpt lat="-27.10516015341718" lon="115.89345050578534"><ele>275.0</ele><time>2026-04-15T05:40:04.999Z</time></trkpt><trkpt lat="-27.10458762200338" lon="115.89337312859331"><ele>275.0</ele><time>2026-04-15T05:40:06.999Z</time></trkpt><trkpt lat="-27.1043012102387" lon="115.89333098056552"><ele>275.0</ele><time>2026-04-15T05:40:07.999Z</time></trkpt><trkpt lat="-27.104016213919024" lon="115.89328605554535"><ele>275.0</ele><time>2026-04-15T05:40:08.999Z</time></trkpt><trkpt lat="-27.1037276261598" lon="115.89324282480023"><ele>275.0</ele><time>2026-04-15T05:40:09.999Z</time></trkpt><trkpt lat="-27.10344122246056" lon="115.89320244890617"><ele>276.0</ele><time>2026-04-15T05:40:10.999Z</time></trkpt><trkpt lat="-27.10315629308086" lon="115.89315837447185"><ele>277.0</ele><time>2026-04-15T05:40:11.999Z</time></trkpt><trkpt lat="-27.102869528282056" lon="115.89311103462263"><ele>277.0</ele><time>2026-04-15T05:40:12.999Z</time></trkpt><trkpt lat="-27.102583840502934" lon="115.89306635745044"><ele>277.0</ele><time>2026-04-15T05:40:13.999Z</time></trkpt><trkpt lat="-27.102295642883195" lon="115.89301976322763"><ele>276.5</ele><time>2026-04-15T05:40:14.999Z</time></trkpt><trkpt lat="-27.102010951716363" lon="115.89297351611137"><ele>276.0</ele><time>2026-04-15T05:40:15.999Z</time></trkpt><trkpt lat="-27.10172498729077" lon="115.89292861797942"><ele>275.0</ele><time>2026-04-15T05:40:16.999Z</time></trkpt><trkpt lat="-27.1014395267809" lon="115.89288503566786"><ele>274.0</ele><time>2026-04-15T05:40:17.999Z</time></trkpt><trkpt lat="-27.10115139042432" lon="115.89284192952238"><ele>274.0</ele><time>2026-04-15T05:40:18.999Z</time></trkpt><trkpt lat="-27.100866090981725" lon="115.89280181265958"><ele>274.0</ele><time>2026-04-15T05:40:19.999Z</time></trkpt><trkpt lat="-27.100579653650982" lon="115.89276191745545"><ele>274.5</ele><time>2026-04-15T05:40:20.999Z</time></trkpt><trkpt lat="-27.10029659441915" lon="115.89271933388513"><ele>275.0</ele><time>2026-04-15T05:40:21.999Z</time></trkpt><trkpt lat="-27.100013854719485" lon="115.89267498838417"><ele>274.5</ele><time>2026-04-15T05:40:22.999Z</time></trkpt><trkpt lat="-27.099726141793425" lon="115.89262894845886"><ele>274.0</ele><time>2026-04-15T05:40:23.999Z</time></trkpt><trkpt lat="-27.099440974071417" lon="115.89258469036706"><ele>273.5</ele><time>2026-04-15T05:40:24.999Z</time></trkpt><trkpt lat="-27.09915307578717" lon="115.89253830848017"><ele>273.0</ele><time>2026-04-15T05:40:25.999Z</time></trkpt><trkpt lat="-27.098568998444524" lon="115.89245214781563"><ele>272.5</ele><time>2026-04-15T05:40:27.999Z</time></trkpt><trkpt lat="-27.098273893521334" lon="115.89240587452589"><ele>272.0</ele><time>2026-04-15T05:40:28.999Z</time></trkpt><trkpt lat="-27.097980990275424" lon="115.89236208179155"><ele>273.0</ele><time>2026-04-15T05:40:29.999Z</time></trkpt><trkpt lat="-27.09768895110378" lon="115.89232025871617"><ele>274.0</ele><time>2026-04-15T05:40:30.999Z</time></trkpt><trkpt lat="-27.097398257545606" lon="115.89227798089547"><ele>274.0</ele><time>2026-04-15T05:40:31.999Z</time></trkpt><trkpt lat="-27.097106424856264" lon="115.89223398328946"><ele>274.0</ele><time>2026-04-15T05:40:32.999Z</time></trkpt><trkpt lat="-27.096817772987166" lon="115.89218829405499"><ele>274.5</ele><time>2026-04-15T05:40:33.999Z</time></trkpt><trkpt lat="-27.09652973710722" lon="115.89214309966214"><ele>275.0</ele><time>2026-04-15T05:40:34.999Z</time></trkpt><trkpt lat="-27.09624262369783" lon="115.89209479301961"><ele>275.0</ele><time>2026-04-15T05:40:35.999Z</time></trkpt><trkpt lat="-27.095956776599305" lon="115.89204790883377"><ele>275.0</ele><time>2026-04-15T05:40:36.999Z</time></trkpt><trkpt lat="-27.095671745137373" lon="115.89200424559401"><ele>274.5</ele><time>2026-04-15T05:40:37.999Z</time></trkpt><trkpt lat="-27.095390276479836" lon="115.89196284701208"><ele>274.0</ele><time>2026-04-15T05:40:38.999Z</time></trkpt><trkpt lat="-27.095104445235044" lon="115.89191957370947"><ele>274.0</ele><time>2026-04-15T05:40:39.999Z</time></trkpt><trkpt lat="-27.094816277057213" lon="115.89187590987034"><ele>274.0</ele><time>2026-04-15T05:40:40.999Z</time></trkpt><trkpt lat="-27.094530905732263" lon="115.89183505683796"><ele>274.0</ele><time>2026-04-15T05:40:41.999Z</time></trkpt><trkpt lat="-27.094245303975818" lon="115.89179414476324"><ele>274.0</ele><time>2026-04-15T05:40:42.999Z</time></trkpt><trkpt lat="-27.093958581329268" lon="115.89174943765296"><ele>274.0</ele><time>2026-04-15T05:40:43.999Z</time></trkpt><trkpt lat="-27.0936720985461" lon="115.89170418365227"><ele>274.0</ele><time>2026-04-15T05:40:44.999Z</time></trkpt><trkpt lat="-27.093386521925364" lon="115.89166022955253"><ele>274.0</ele><time>2026-04-15T05:40:45.999Z</time></trkpt><trkpt lat="-27.09310269282174" lon="115.89161485950716"><ele>274.0</ele><time>2026-04-15T05:40:46.999Z</time></trkpt><trkpt lat="-27.09253456685612" lon="115.89152725246232"><ele>274.0</ele><time>2026-04-15T05:40:48.999Z</time></trkpt><trkpt lat="-27.09225170356322" lon="115.89148314866996"><ele>274.0</ele><time>2026-04-15T05:40:49.999Z</time></trkpt><trkpt lat="-27.091967776965518" lon="115.89143876301945"><ele>274.0</ele><time>2026-04-15T05:40:50.999Z</time></trkpt><trkpt lat="-27.091687990636807" lon="115.89139559099844"><ele>274.0</ele><time>2026-04-15T05:40:51.999Z</time></trkpt><trkpt lat="-27.09140745733569" lon="115.89135593384025"><ele>273.0</ele><time>2026-04-15T05:40:52.999Z</time></trkpt><trkpt lat="-27.091126718385645" lon="115.89131699844846"><ele>272.0</ele><time>2026-04-15T05:40:53.999Z</time></trkpt><trkpt lat="-27.090848039301928" lon="115.89127477319342"><ele>273.0</ele><time>2026-04-15T05:40:54.999Z</time></trkpt><trkpt lat="-27.090570296191864" lon="115.89123321652458"><ele>274.0</ele><time>2026-04-15T05:40:55.999Z</time></trkpt><trkpt lat="-27.090291852161428" lon="115.89118771404812"><ele>274.0</ele><time>2026-04-15T05:40:56.999Z</time></trkpt><trkpt lat="-27.090016979950686" lon="115.89114504051746"><ele>274.0</ele><time>2026-04-15T05:40:58Z</time></trkpt><trkpt lat="-27.08973849076974" lon="115.89110494357125"><ele>274.0</ele><time>2026-04-15T05:40:59Z</time></trkpt><trkpt lat="-27.089462301073343" lon="115.89106488640726"><ele>274.0</ele><time>2026-04-15T05:41:00Z</time></trkpt><trkpt lat="-27.08918385442098" lon="115.89102298298918"><ele>274.0</ele><time>2026-04-15T05:41:01Z</time></trkpt><trkpt lat="-27.088904595774846" lon="115.89097966574319"><ele>274.0</ele><time>2026-04-15T05:41:02Z</time></trkpt><trkpt lat="-27.08862742634558" lon="115.89093569702192"><ele>274.0</ele><time>2026-04-15T05:41:03Z</time></trkpt><trkpt lat="-27.088351679113753" lon="115.89088905090574"><ele>274.0</ele><time>2026-04-15T05:41:04Z</time></trkpt><trkpt lat="-27.08807628199503" lon="115.89084301693"><ele>274.5</ele><time>2026-04-15T05:41:05Z</time></trkpt><trkpt lat="-27.087802974687428" lon="115.8907996421365"><ele>275.0</ele><time>2026-04-15T05:41:06Z</time></trkpt><trkpt lat="-27.0875342547702" lon="115.89076194728442"><ele>275.0</ele><time>2026-04-15T05:41:07Z</time></trkpt><trkpt lat="-27.08726519785946" lon="115.89072743032614"><ele>275.0</ele><time>2026-04-15T05:41:08Z</time></trkpt><trkpt lat="-27.08673438764298" lon="115.89065077275768"><ele>273.5</ele><time>2026-04-15T05:41:10Z</time></trkpt><trkpt lat="-27.086468971019908" lon="115.8906075180701"><ele>272.0</ele><time>2026-04-15T05:41:11Z</time></trkpt><trkpt lat="-27.086203957163846" lon="115.89056682597425"><ele>272.0</ele><time>2026-04-15T05:41:12Z</time></trkpt><trkpt lat="-27.08593946539879" lon="115.89052636752578"><ele>272.0</ele><time>2026-04-15T05:41:13Z</time></trkpt><trkpt lat="-27.08567543827387" lon="115.89048673978303"><ele>272.0</ele><time>2026-04-15T05:41:14Z</time></trkpt><trkpt lat="-27.08541240085036" lon="115.89044599667568"><ele>272.0</ele><time>2026-04-15T05:41:15Z</time></trkpt><trkpt lat="-27.08514991140926" lon="115.89040491318003"><ele>272.0</ele><time>2026-04-15T05:41:16Z</time></trkpt><trkpt lat="-27.08488434165903" lon="115.89036207176743"><ele>272.0</ele><time>2026-04-15T05:41:17Z</time></trkpt><trkpt lat="-27.08461714209042" lon="115.89032277231559"><ele>272.0</ele><time>2026-04-15T05:41:18Z</time></trkpt><trkpt lat="-27.084349967729892" lon="115.89028468717285"><ele>272.0</ele><time>2026-04-15T05:41:19Z</time></trkpt><trkpt lat="-27.084079033912406" lon="115.89024343297264"><ele>270.5</ele><time>2026-04-15T05:41:20Z</time></trkpt><trkpt lat="-27.083808004978493" lon="115.89020491787468"><ele>269.0</ele><time>2026-04-15T05:41:21Z</time></trkpt><trkpt lat="-27.08353503616369" lon="115.89016382839486"><ele>269.0</ele><time>2026-04-15T05:41:22Z</time></trkpt><trkpt lat="-27.083264170555534" lon="115.89012260193505"><ele>269.0</ele><time>2026-04-15T05:41:23Z</time></trkpt><trkpt lat="-27.082993116117514" lon="115.89008177273124"><ele>271.5</ele><time>2026-04-15T05:41:24Z</time></trkpt><trkpt lat="-27.082722058770347" lon="115.89004048000959"><ele>274.0</ele><time>2026-04-15T05:41:25Z</time></trkpt><trkpt lat="-27.082451681879494" lon="115.8900001763015"><ele>274.0</ele><time>2026-04-15T05:41:26Z</time></trkpt><trkpt lat="-27.082180492475388" lon="115.88996155788803"><ele>274.0</ele><time>2026-04-15T05:41:27Z</time></trkpt><trkpt lat="-27.08191036872845" lon="115.88992064028352"><ele>274.0</ele><time>2026-04-15T05:41:28Z</time></trkpt><trkpt lat="-27.081637942017814" lon="115.88987807587431"><ele>274.0</ele><time>2026-04-15T05:41:29Z</time></trkpt><trkpt lat="-27.081097014643632" lon="115.88979478479845"><ele>273.5</ele><time>2026-04-15T05:41:31Z</time></trkpt><trkpt lat="-27.08082319583855" lon="115.88975489106551"><ele>273.0</ele><time>2026-04-15T05:41:32.001Z</time></trkpt><trkpt lat="-27.08054575685963" lon="115.88971012159448"><ele>272.5</ele><time>2026-04-15T05:41:33.001Z</time></trkpt><trkpt lat="-27.08026835167428" lon="115.88966386399265"><ele>272.0</ele><time>2026-04-15T05:41:34.001Z</time></trkpt><trkpt lat="-27.079988867001457" lon="115.88962112932342"><ele>272.5</ele><time>2026-04-15T05:41:35.001Z</time></trkpt><trkpt lat="-27.07970752747" lon="115.88957900797583"><ele>273.0</ele><time>2026-04-15T05:41:36.001Z</time></trkpt><trkpt lat="-27.07942345485007" lon="115.88953607714035"><ele>273.0</ele><time>2026-04-15T05:41:37.001Z</time></trkpt><trkpt lat="-27.079135164678373" lon="115.88949027101032"><ele>273.0</ele><time>2026-04-15T05:41:38Z</time></trkpt><trkpt lat="-27.078849704844934" lon="115.88944659429134"><ele>272.0</ele><time>2026-04-15T05:41:39Z</time></trkpt><trkpt lat="-27.078563217527954" lon="115.88940516093363"><ele>271.0</ele><time>2026-04-15T05:41:40Z</time></trkpt><trkpt lat="-27.078278032097003" lon="115.88936554607592"><ele>271.5</ele><time>2026-04-15T05:41:41Z</time></trkpt><trkpt lat="-27.077990091878743" lon="115.88932798912752"><ele>272.0</ele><time>2026-04-15T05:41:42Z</time></trkpt><trkpt lat="-27.077699041581138" lon="115.8892908229939"><ele>271.0</ele><time>2026-04-15T05:41:43Z</time></trkpt><trkpt lat="-27.077411136596428" lon="115.88925186997868"><ele>270.0</ele><time>2026-04-15T05:41:44Z</time></trkpt><trkpt lat="-27.077125597399966" lon="115.88920743581124"><ele>270.0</ele><time>2026-04-15T05:41:45Z</time></trkpt><trkpt lat="-27.076841723770187" lon="115.88915976553315"><ele>270.0</ele><time>2026-04-15T05:41:46Z</time></trkpt><trkpt lat="-27.076563044331618" lon="115.889114171849"><ele>271.0</ele><time>2026-04-15T05:41:47Z</time></trkpt><trkpt lat="-27.07628520695807" lon="115.88906882209494"><ele>272.0</ele><time>2026-04-15T05:41:48Z</time></trkpt><trkpt lat="-27.07600954925657" lon="115.8890259118547"><ele>273.0</ele><time>2026-04-15T05:41:49Z</time></trkpt><trkpt lat="-27.07573599483566" lon="115.88897891256696"><ele>274.0</ele><time>2026-04-15T05:41:50Z</time></trkpt><trkpt lat="-27.07517879167955" lon="115.88889223823824"><ele>272.5</ele><time>2026-04-15T05:41:52Z</time></trkpt><trkpt lat="-27.07490098726797" lon="115.88884967938698"><ele>271.0</ele><time>2026-04-15T05:41:53Z</time></trkpt><trkpt lat="-27.0746226693742" lon="115.88880953503507"><ele>271.0</ele><time>2026-04-15T05:41:54Z</time></trkpt><trkpt lat="-27.074346718928247" lon="115.88877073113478"><ele>271.0</ele><time>2026-04-15T05:41:55Z</time></trkpt><trkpt lat="-27.074072548081126" lon="115.88873041523908"><ele>271.0</ele><time>2026-04-15T05:41:56Z</time></trkpt><trkpt lat="-27.073796129257143" lon="115.88868716770375"><ele>271.0</ele><time>2026-04-15T05:41:57Z</time></trkpt><trkpt lat="-27.0735218215195" lon="115.88864244767764"><ele>271.5</ele><time>2026-04-15T05:41:58Z</time></trkpt><trkpt lat="-27.073249917467788" lon="115.88860089524518"><ele>272.0</ele><time>2026-04-15T05:41:59Z</time></trkpt><trkpt lat="-27.07298114242333" lon="115.88856405282885"><ele>272.0</ele><time>2026-04-15T05:42:00Z</time></trkpt><trkpt lat="-27.07271705098705" lon="115.88852671816932"><ele>272.0</ele><time>2026-04-15T05:42:01Z</time></trkpt><trkpt lat="-27.072454032472795" lon="115.88848522695928"><ele>272.0</ele><time>2026-04-15T05:42:02Z</time></trkpt><trkpt lat="-27.072193654870993" lon="115.8884470213791"><ele>272.0</ele><time>2026-04-15T05:42:03Z</time></trkpt><trkpt lat="-27.07193766163951" lon="115.88841081002272"><ele>272.0</ele><time>2026-04-15T05:42:04Z</time></trkpt><trkpt lat="-27.07168664212503" lon="115.88838110175813"><ele>272.0</ele><time>2026-04-15T05:42:05Z</time></trkpt><trkpt lat="-27.071437687938968" lon="115.88834714937894"><ele>270.5</ele><time>2026-04-15T05:42:06Z</time></trkpt><trkpt lat="-27.071186532330366" lon="115.88830741568259"><ele>269.0</ele><time>2026-04-15T05:42:07Z</time></trkpt><trkpt lat="-27.070936177136982" lon="115.88826598519584"><ele>269.5</ele><time>2026-04-15T05:42:08Z</time></trkpt><trkpt lat="-27.070687770293254" lon="115.88822603609657"><ele>270.0</ele><time>2026-04-15T05:42:09Z</time></trkpt><trkpt lat="-27.070444355845677" lon="115.88818499878484"><ele>270.0</ele><time>2026-04-15T05:42:10Z</time></trkpt><trkpt lat="-27.070204527888563" lon="115.88814447562336"><ele>270.0</ele><time>2026-04-15T05:42:11Z</time></trkpt><trkpt lat="-27.06972072195015" lon="115.88806564667877"><ele>271.0</ele><time>2026-04-15T05:42:13Z</time></trkpt><trkpt lat="-27.069476884752504" lon="115.8880267905518"><ele>272.0</ele><time>2026-04-15T05:42:14Z</time></trkpt><trkpt lat="-27.069236660939218" lon="115.88799037050394"><ele>272.0</ele><time>2026-04-15T05:42:15Z</time></trkpt><trkpt lat="-27.068998926963655" lon="115.88795435234582"><ele>272.0</ele><time>2026-04-15T05:42:16Z</time></trkpt><trkpt lat="-27.06876361657386" lon="115.88791996613739"><ele>272.0</ele><time>2026-04-15T05:42:17Z</time></trkpt><trkpt lat="-27.068528315316318" lon="115.88788793098882"><ele>272.0</ele><time>2026-04-15T05:42:18Z</time></trkpt><trkpt lat="-27.068292581846237" lon="115.88785379024795"><ele>272.0</ele><time>2026-04-15T05:42:19Z</time></trkpt><trkpt lat="-27.068056536798178" lon="115.88781997390429"><ele>272.0</ele><time>2026-04-15T05:42:20Z</time></trkpt><trkpt lat="-27.06782208978691" lon="115.88778264742956"><ele>272.0</ele><time>2026-04-15T05:42:21Z</time></trkpt><trkpt lat="-27.067584936183096" lon="115.88774320096971"><ele>272.0</ele><time>2026-04-15T05:42:22Z</time></trkpt><trkpt lat="-27.067344786326526" lon="115.88770250067947"><ele>272.5</ele><time>2026-04-15T05:42:23Z</time></trkpt><trkpt lat="-27.067102565019933" lon="115.88766372980332"><ele>273.0</ele><time>2026-04-15T05:42:24Z</time></trkpt><trkpt lat="-27.06685553194998" lon="115.88762489197467"><ele>272.0</ele><time>2026-04-15T05:42:25Z</time></trkpt><trkpt lat="-27.066604790742126" lon="115.88758783693382"><ele>271.0</ele><time>2026-04-15T05:42:26Z</time></trkpt><trkpt lat="-27.066350698780308" lon="115.88755110070275"><ele>271.0</ele><time>2026-04-15T05:42:27Z</time></trkpt><trkpt lat="-27.066094935754705" lon="115.88751561255302"><ele>271.0</ele><time>2026-04-15T05:42:28Z</time></trkpt><trkpt lat="-27.06583890468718" lon="115.88748016146278"><ele>271.5</ele><time>2026-04-15T05:42:29Z</time></trkpt><trkpt lat="-27.065582819931215" lon="115.88744294701128"><ele>272.0</ele><time>2026-04-15T05:42:30Z</time></trkpt><trkpt lat="-27.065327524219267" lon="115.88740715972867"><ele>272.0</ele><time>2026-04-15T05:42:31Z</time></trkpt><trkpt lat="-27.065072856924623" lon="115.88737109973805"><ele>272.0</ele><time>2026-04-15T05:42:32Z</time></trkpt><trkpt lat="-27.06455907012899" lon="115.88729120851943"><ele>272.0</ele><time>2026-04-15T05:42:34Z</time></trkpt><trkpt lat="-27.0643027141156" lon="115.88725007098465"><ele>272.0</ele><time>2026-04-15T05:42:35Z</time></trkpt><trkpt lat="-27.064042872244826" lon="115.88720923265353"><ele>271.0</ele><time>2026-04-15T05:42:36Z</time></trkpt><trkpt lat="-27.063781815748143" lon="115.88717026803059"><ele>270.0</ele><time>2026-04-15T05:42:37Z</time></trkpt><trkpt lat="-27.063516449100696" lon="115.88713241675312"><ele>269.5</ele><time>2026-04-15T05:42:38Z</time></trkpt><trkpt lat="-27.063247240557576" lon="115.88709114079623"><ele>269.0</ele><time>2026-04-15T05:42:39Z</time></trkpt><trkpt lat="-27.062978016517715" lon="115.88704884880543"><ele>269.0</ele><time>2026-04-15T05:42:40Z</time></trkpt><trkpt lat="-27.062710610967535" lon="115.88700673025508"><ele>269.0</ele><time>2026-04-15T05:42:41Z</time></trkpt><trkpt lat="-27.062446293942806" lon="115.8869673830822"><ele>270.0</ele><time>2026-04-15T05:42:42Z</time></trkpt><trkpt lat="-27.06218194395899" lon="115.88693061150349"><ele>271.0</ele><time>2026-04-15T05:42:43Z</time></trkpt><trkpt lat="-27.06191767357509" lon="115.88689590987917"><ele>271.0</ele><time>2026-04-15T05:42:44Z</time></trkpt><trkpt lat="-27.061653193973918" lon="115.88685834643323"><ele>271.0</ele><time>2026-04-15T05:42:45Z</time></trkpt><trkpt lat="-27.061388969742442" lon="115.88681726136073"><ele>271.0</ele><time>2026-04-15T05:42:46Z</time></trkpt><trkpt lat="-27.06112362545112" lon="115.88677130623317"><ele>271.0</ele><time>2026-04-15T05:42:47Z</time></trkpt><trkpt lat="-27.06085818292314" lon="115.8867274748375"><ele>271.5</ele><time>2026-04-15T05:42:48Z</time></trkpt><trkpt lat="-27.060594807771494" lon="115.88668818507742"><ele>272.0</ele><time>2026-04-15T05:42:49Z</time></trkpt><trkpt lat="-27.060329559177642" lon="115.88665331504258"><ele>272.0</ele><time>2026-04-15T05:42:50Z</time></trkpt><trkpt lat="-27.06005593466549" lon="115.8866163843998"><ele>272.0</ele><time>2026-04-15T05:42:51Z</time></trkpt><trkpt lat="-27.059781548952362" lon="115.88658577263661"><ele>272.5</ele><time>2026-04-15T05:42:52Z</time></trkpt><trkpt lat="-27.059510216241662" lon="115.8865642302516"><ele>273.0</ele><time>2026-04-15T05:42:53Z</time></trkpt><trkpt lat="-27.058971380860314" lon="115.88655053940008"><ele>273.0</ele><time>2026-04-15T05:42:55Z</time></trkpt><trkpt lat="-27.058705673575265" lon="115.88656916297553"><ele>273.0</ele><time>2026-04-15T05:42:56Z</time></trkpt><trkpt lat="-27.05844005728145" lon="115.88659922306282"><ele>272.5</ele><time>2026-04-15T05:42:57Z</time></trkpt><trkpt lat="-27.0581762274578" lon="115.88664212709621"><ele>272.0</ele><time>2026-04-15T05:42:58Z</time></trkpt><trkpt lat="-27.057908196391914" lon="115.88669311919627"><ele>272.0</ele><time>2026-04-15T05:42:59Z</time></trkpt><trkpt lat="-27.05763752048084" lon="115.88675322262675"><ele>272.0</ele><time>2026-04-15T05:43:00Z</time></trkpt><trkpt lat="-27.057369707700637" lon="115.88682140830349"><ele>273.0</ele><time>2026-04-15T05:43:01Z</time></trkpt><trkpt lat="-27.05710290727963" lon="115.88689769793022"><ele>274.0</ele><time>2026-04-15T05:43:02Z</time></trkpt><trkpt lat="-27.056840499068944" lon="115.88698113462638"><ele>273.5</ele><time>2026-04-15T05:43:03Z</time></trkpt><trkpt lat="-27.056584773679972" lon="115.8870702818332"><ele>273.0</ele><time>2026-04-15T05:43:04Z</time></trkpt><trkpt lat="-27.056333329141427" lon="115.88717192923292"><ele>273.0</ele><time>2026-04-15T05:43:05Z</time></trkpt><trkpt lat="-27.056089764948677" lon="115.88728185974236"><ele>273.0</ele><time>2026-04-15T05:43:06Z</time></trkpt><trkpt lat="-27.055849236086072" lon="115.887399974521"><ele>273.0</ele><time>2026-04-15T05:43:07Z</time></trkpt><trkpt lat="-27.05561399678506" lon="115.88752629084496"><ele>273.0</ele><time>2026-04-15T05:43:08Z</time></trkpt><trkpt lat="-27.05538151090485" lon="115.88765930983017"><ele>273.0</ele><time>2026-04-15T05:43:09Z</time></trkpt><trkpt lat="-27.055154243476192" lon="115.88779977861869"><ele>273.0</ele><time>2026-04-15T05:43:10Z</time></trkpt><trkpt lat="-27.054933376557567" lon="115.88794804306153"><ele>273.0</ele><time>2026-04-15T05:43:11Z</time></trkpt><trkpt lat="-27.05471834456511" lon="115.88810792007754"><ele>273.0</ele><time>2026-04-15T05:43:12Z</time></trkpt><trkpt lat="-27.054511538688626" lon="115.8882765490187"><ele>273.0</ele><time>2026-04-15T05:43:13Z</time></trkpt><trkpt lat="-27.054309024753568" lon="115.88845326810552"><ele>273.0</ele><time>2026-04-15T05:43:14Z</time></trkpt><trkpt lat="-27.053909662370597" lon="115.88882171333766"><ele>272.0</ele><time>2026-04-15T05:43:16Z</time></trkpt><trkpt lat="-27.05371751813578" lon="115.88901337512117"><ele>271.0</ele><time>2026-04-15T05:43:17Z</time></trkpt><trkpt lat="-27.053529260756147" lon="115.88921570926045"><ele>271.0</ele><time>2026-04-15T05:43:18Z</time></trkpt><trkpt lat="-27.053343085729868" lon="115.8894247489354"><ele>271.0</ele><time>2026-04-15T05:43:19Z</time></trkpt><trkpt lat="-27.053160052980495" lon="115.88963743324359"><ele>271.0</ele><time>2026-04-15T05:43:20Z</time></trkpt><trkpt lat="-27.052979804757495" lon="115.8898520353603"><ele>271.0</ele><time>2026-04-15T05:43:21Z</time></trkpt><trkpt lat="-27.052802953363784" lon="115.89006936821156"><ele>271.0</ele><time>2026-04-15T05:43:22Z</time></trkpt><trkpt lat="-27.052630121523855" lon="115.89028680399484"><ele>271.0</ele><time>2026-04-15T05:43:23Z</time></trkpt><trkpt lat="-27.05246130352772" lon="115.89050255674087"><ele>271.5</ele><time>2026-04-15T05:43:24Z</time></trkpt><trkpt lat="-27.05229277081708" lon="115.89071864461017"><ele>272.0</ele><time>2026-04-15T05:43:25Z</time></trkpt><trkpt lat="-27.052123627356625" lon="115.89093730897198"><ele>272.0</ele><time>2026-04-15T05:43:26Z</time></trkpt><trkpt lat="-27.051952728271324" lon="115.89115575445342"><ele>272.0</ele><time>2026-04-15T05:43:27Z</time></trkpt><trkpt lat="-27.051780542104694" lon="115.89137056319196"><ele>272.5</ele><time>2026-04-15T05:43:28Z</time></trkpt><trkpt lat="-27.051608731011285" lon="115.89158621960715"><ele>273.0</ele><time>2026-04-15T05:43:29Z</time></trkpt><trkpt lat="-27.051437024493296" lon="115.89180295814771"><ele>273.0</ele><time>2026-04-15T05:43:30Z</time></trkpt><trkpt lat="-27.051265758206334" lon="115.8920188254002"><ele>273.0</ele><time>2026-04-15T05:43:31Z</time></trkpt><trkpt lat="-27.05109311097707" lon="115.89223760806244"><ele>273.0</ele><time>2026-04-15T05:43:32Z</time></trkpt><trkpt lat="-27.050916255922786" lon="115.89245710448114"><ele>273.0</ele><time>2026-04-15T05:43:33Z</time></trkpt><trkpt lat="-27.050735340791295" lon="115.8926841586712"><ele>272.0</ele><time>2026-04-15T05:43:34Z</time></trkpt><trkpt lat="-27.050370586183917" lon="115.89313866684019"><ele>272.0</ele><time>2026-04-15T05:43:36Z</time></trkpt><trkpt lat="-27.05018585041797" lon="115.8933699379664"><ele>272.0</ele><time>2026-04-15T05:43:37Z</time></trkpt><trkpt lat="-27.05000105596883" lon="115.8936041970211"><ele>271.5</ele><time>2026-04-15T05:43:38Z</time></trkpt><trkpt lat="-27.04981784818361" lon="115.89383645448471"><ele>271.0</ele><time>2026-04-15T05:43:39Z</time></trkpt><trkpt lat="-27.049635510781048" lon="115.89406719092847"><ele>271.0</ele><time>2026-04-15T05:43:40Z</time></trkpt><trkpt lat="-27.0494561090859" lon="115.89429322334114"><ele>271.0</ele><time>2026-04-15T05:43:41Z</time></trkpt><trkpt lat="-27.0492787474385" lon="115.89451769154321"><ele>271.0</ele><time>2026-04-15T05:43:42Z</time></trkpt><trkpt lat="-27.049100395277602" lon="115.89473906588702"><ele>271.0</ele><time>2026-04-15T05:43:43Z</time></trkpt><trkpt lat="-27.04892315665394" lon="115.89495893707515"><ele>271.0</ele><time>2026-04-15T05:43:44Z</time></trkpt><trkpt lat="-27.048748829126744" lon="115.8951784463918"><ele>271.0</ele><time>2026-04-15T05:43:45Z</time></trkpt><trkpt lat="-27.048573931962377" lon="115.89539469758536"><ele>271.0</ele><time>2026-04-15T05:43:46Z</time></trkpt><trkpt lat="-27.04840077195498" lon="115.89560883766676"><ele>271.0</ele><time>2026-04-15T05:43:47Z</time></trkpt><trkpt lat="-27.04822741490215" lon="115.89582414663487"><ele>271.0</ele><time>2026-04-15T05:43:48Z</time></trkpt><trkpt lat="-27.04805261690668" lon="115.89604392244719"><ele>271.0</ele><time>2026-04-15T05:43:49Z</time></trkpt><trkpt lat="-27.04787596313067" lon="115.89626879208531"><ele>271.0</ele><time>2026-04-15T05:43:50Z</time></trkpt><trkpt lat="-27.047698348667947" lon="115.89649657365993"><ele>271.0</ele><time>2026-04-15T05:43:51Z</time></trkpt><trkpt lat="-27.047516677666554" lon="115.89672758078679"><ele>271.5</ele><time>2026-04-15T05:43:52Z</time></trkpt><trkpt lat="-27.047334023189865" lon="115.89695983529307"><ele>272.0</ele><time>2026-04-15T05:43:53Z</time></trkpt><trkpt lat="-27.047149028605855" lon="115.89719186028931"><ele>272.0</ele><time>2026-04-15T05:43:54Z</time></trkpt><trkpt lat="-27.04696161705318" lon="115.89742485594616"><ele>272.0</ele><time>2026-04-15T05:43:55Z</time></trkpt><trkpt lat="-27.046585578601455" lon="115.89789049059496"><ele>272.0</ele><time>2026-04-15T05:43:57Z</time></trkpt><trkpt lat="-27.046399666786687" lon="115.8981216292093"><ele>272.0</ele><time>2026-04-15T05:43:58Z</time></trkpt><trkpt lat="-27.046215944825143" lon="115.8983558609954"><ele>272.0</ele><time>2026-04-15T05:43:59Z</time></trkpt><trkpt lat="-27.046030236552816" lon="115.89859184220352"><ele>272.0</ele><time>2026-04-15T05:44:00Z</time></trkpt><trkpt lat="-27.045845609161464" lon="115.89882658086735"><ele>272.0</ele><time>2026-04-15T05:44:01Z</time></trkpt><trkpt lat="-27.04566109891845" lon="115.89906058589033"><ele>272.0</ele><time>2026-04-15T05:44:02Z</time></trkpt><trkpt lat="-27.045472275183602" lon="115.89929398853046"><ele>272.0</ele><time>2026-04-15T05:44:03Z</time></trkpt><trkpt lat="-27.045282981133205" lon="115.89952702708202"><ele>272.0</ele><time>2026-04-15T05:44:04Z</time></trkpt><trkpt lat="-27.045090397680806" lon="115.89976630371159"><ele>271.0</ele><time>2026-04-15T05:44:05Z</time></trkpt><trkpt lat="-27.044894624898337" lon="115.90001003411601"><ele>270.0</ele><time>2026-04-15T05:44:06Z</time></trkpt><trkpt lat="-27.044696555427834" lon="115.9002537285953"><ele>270.0</ele><time>2026-04-15T05:44:07Z</time></trkpt><trkpt lat="-27.04450048622378" lon="115.9004923818391"><ele>270.0</ele><time>2026-04-15T05:44:08Z</time></trkpt><trkpt lat="-27.044305263764514" lon="115.90073392056689"><ele>270.5</ele><time>2026-04-15T05:44:09Z</time></trkpt><trkpt lat="-27.044109207335627" lon="115.9009800993947"><ele>271.0</ele><time>2026-04-15T05:44:10Z</time></trkpt><trkpt lat="-27.043908414275354" lon="115.90123210573826"><ele>271.0</ele><time>2026-04-15T05:44:11Z</time></trkpt><trkpt lat="-27.043706738225335" lon="115.90148562160755"><ele>271.0</ele><time>2026-04-15T05:44:12Z</time></trkpt><trkpt lat="-27.04350192886558" lon="115.90174347176273"><ele>272.0</ele><time>2026-04-15T05:44:13Z</time></trkpt><trkpt lat="-27.043296598955273" lon="115.90199886930745"><ele>273.0</ele><time>2026-04-15T05:44:14Z</time></trkpt><trkpt lat="-27.043095508246903" lon="115.90224906264442"><ele>273.0</ele><time>2026-04-15T05:44:15Z</time></trkpt><trkpt lat="-27.042897713443637" lon="115.90249791646214"><ele>273.0</ele><time>2026-04-15T05:44:16Z</time></trkpt><trkpt lat="-27.04250888468645" lon="115.90299620313355"><ele>272.5</ele><time>2026-04-15T05:44:18Z</time></trkpt><trkpt lat="-27.04231358708226" lon="115.90324173338449"><ele>272.0</ele><time>2026-04-15T05:44:19Z</time></trkpt><trkpt lat="-27.042118574739284" lon="115.90348821641322"><ele>272.0</ele><time>2026-04-15T05:44:20Z</time></trkpt><trkpt lat="-27.041923968811748" lon="115.90373415638439"><ele>272.0</ele><time>2026-04-15T05:44:21Z</time></trkpt><trkpt lat="-27.04172674939017" lon="115.90398105374304"><ele>272.0</ele><time>2026-04-15T05:44:22Z</time></trkpt><trkpt lat="-27.041526977858492" lon="115.90422790373934"><ele>272.0</ele><time>2026-04-15T05:44:23Z</time></trkpt><trkpt lat="-27.0413268626724" lon="115.90447497515032"><ele>272.0</ele><time>2026-04-15T05:44:24Z</time></trkpt><trkpt lat="-27.041128467341565" lon="115.90472408295511"><ele>272.0</ele><time>2026-04-15T05:44:25Z</time></trkpt><trkpt lat="-27.04092985974334" lon="115.90497053197068"><ele>272.0</ele><time>2026-04-15T05:44:26Z</time></trkpt><trkpt lat="-27.040734567653956" lon="115.90521618533141"><ele>272.0</ele><time>2026-04-15T05:44:27Z</time></trkpt><trkpt lat="-27.04053859137311" lon="115.90546240962186"><ele>272.0</ele><time>2026-04-15T05:44:28Z</time></trkpt><trkpt lat="-27.040343701270462" lon="115.90570626493444"><ele>272.0</ele><time>2026-04-15T05:44:29Z</time></trkpt><trkpt lat="-27.040146694965355" lon="115.90595119906429"><ele>273.0</ele><time>2026-04-15T05:44:30Z</time></trkpt><trkpt lat="-27.039951930473553" lon="115.90619518949478"><ele>274.0</ele><time>2026-04-15T05:44:31Z</time></trkpt><trkpt lat="-27.039761781422992" lon="115.90643631290561"><ele>274.0</ele><time>2026-04-15T05:44:32Z</time></trkpt><trkpt lat="-27.039568636956947" lon="115.90667843377251"><ele>274.0</ele><time>2026-04-15T05:44:33Z</time></trkpt><trkpt lat="-27.03937626860035" lon="115.9069199957175"><ele>274.0</ele><time>2026-04-15T05:44:34Z</time></trkpt><trkpt lat="-27.03918666619729" lon="115.90716097681224"><ele>274.0</ele><time>2026-04-15T05:44:35Z</time></trkpt><trkpt lat="-27.038995195718687" lon="115.90740517336219"><ele>271.0</ele><time>2026-04-15T05:44:36Z</time></trkpt><trkpt lat="-27.038614119424846" lon="115.907881343642"><ele>271.0</ele><time>2026-04-15T05:44:38Z</time></trkpt><trkpt lat="-27.03842378224971" lon="115.908120561977"><ele>271.0</ele><time>2026-04-15T05:44:39Z</time></trkpt><trkpt lat="-27.03823534478321" lon="115.90836051570304"><ele>273.0</ele><time>2026-04-15T05:44:40Z</time></trkpt><trkpt lat="-27.03804507037873" lon="115.90860249718943"><ele>275.0</ele><time>2026-04-15T05:44:41Z</time></trkpt><trkpt lat="-27.03785326685537" lon="115.90884045791053"><ele>275.0</ele><time>2026-04-15T05:44:42Z</time></trkpt><trkpt lat="-27.03766190918512" lon="115.90907425196649"><ele>275.0</ele><time>2026-04-15T05:44:43Z</time></trkpt><trkpt lat="-27.03746854447254" lon="115.909309619597"><ele>273.0</ele><time>2026-04-15T05:44:44Z</time></trkpt><trkpt lat="-27.03727600087525" lon="115.90954436795849"><ele>271.0</ele><time>2026-04-15T05:44:45Z</time></trkpt><trkpt lat="-27.037082918405634" lon="115.90978428099626"><ele>271.0</ele><time>2026-04-15T05:44:46Z</time></trkpt><trkpt lat="-27.03688891620647" lon="115.91003133306864"><ele>271.0</ele><time>2026-04-15T05:44:47Z</time></trkpt><trkpt lat="-27.036696046935532" lon="115.91027600619901"><ele>272.0</ele><time>2026-04-15T05:44:48Z</time></trkpt><trkpt lat="-27.036506135221266" lon="115.91051627227566"><ele>273.0</ele><time>2026-04-15T05:44:49Z</time></trkpt><trkpt lat="-27.036317317995366" lon="115.91075771674709"><ele>273.0</ele><time>2026-04-15T05:44:50Z</time></trkpt><trkpt lat="-27.036128805580613" lon="115.91099619357004"><ele>273.0</ele><time>2026-04-15T05:44:51Z</time></trkpt><trkpt lat="-27.03593970867364" lon="115.91123476179524"><ele>274.0</ele><time>2026-04-15T05:44:52Z</time></trkpt><trkpt lat="-27.035750094535427" lon="115.91147490645928"><ele>275.0</ele><time>2026-04-15T05:44:53Z</time></trkpt><trkpt lat="-27.035559484063707" lon="115.91171582326653"><ele>276.0</ele><time>2026-04-15T05:44:54Z</time></trkpt><trkpt lat="-27.035367816126428" lon="115.91195489251056"><ele>277.0</ele><time>2026-04-15T05:44:55Z</time></trkpt><trkpt lat="-27.035179278716193" lon="115.9121909400972"><ele>277.0</ele><time>2026-04-15T05:44:56Z</time></trkpt><trkpt lat="-27.034989513705355" lon="115.91242651120139"><ele>277.0</ele><time>2026-04-15T05:44:57Z</time></trkpt><trkpt lat="-27.034613702738607" lon="115.91288673169325"><ele>276.0</ele><time>2026-04-15T05:44:59Z</time></trkpt><trkpt lat="-27.034428030228185" lon="115.91311698673485"><ele>275.0</ele><time>2026-04-15T05:45:00Z</time></trkpt><trkpt lat="-27.034239957896364" lon="115.9133475332564"><ele>274.0</ele><time>2026-04-15T05:45:01Z</time></trkpt><trkpt lat="-27.03405554534315" lon="115.9135764420448"><ele>273.0</ele><time>2026-04-15T05:45:02Z</time></trkpt><trkpt lat="-27.033871080248407" lon="115.91381138159824"><ele>273.0</ele><time>2026-04-15T05:45:03Z</time></trkpt><trkpt lat="-27.033687591253273" lon="115.91404459070193"><ele>273.0</ele><time>2026-04-15T05:45:04Z</time></trkpt><trkpt lat="-27.033502853679828" lon="115.91427558386593"><ele>274.0</ele><time>2026-04-15T05:45:05Z</time></trkpt><trkpt lat="-27.033317969874" lon="115.91450503468388"><ele>275.0</ele><time>2026-04-15T05:45:06Z</time></trkpt><trkpt lat="-27.0331330605646" lon="115.91473392851172"><ele>275.0</ele><time>2026-04-15T05:45:07Z</time></trkpt><trkpt lat="-27.032949903709167" lon="115.91496402260812"><ele>275.0</ele><time>2026-04-15T05:45:08Z</time></trkpt><trkpt lat="-27.03277273833991" lon="115.91518871649316"><ele>275.0</ele><time>2026-04-15T05:45:09Z</time></trkpt><trkpt lat="-27.032604755344313" lon="115.9154030302226"><ele>275.0</ele><time>2026-04-15T05:45:10Z</time></trkpt><trkpt lat="-27.032450306182323" lon="115.9155986299551"><ele>275.0</ele><time>2026-04-15T05:45:11Z</time></trkpt><trkpt lat="-27.032298851231463" lon="115.91579026825906"><ele>275.0</ele><time>2026-04-15T05:45:12Z</time></trkpt><trkpt lat="-27.032142413382715" lon="115.9159854784807"><ele>275.0</ele><time>2026-04-15T05:45:13Z</time></trkpt><trkpt lat="-27.031976404173516" lon="115.91619218742004"><ele>275.0</ele><time>2026-04-15T05:45:14Z</time></trkpt><trkpt lat="-27.03180775609339" lon="115.91640501531617"><ele>275.0</ele><time>2026-04-15T05:45:15Z</time></trkpt><trkpt lat="-27.03163304167642" lon="115.9166275904227"><ele>275.0</ele><time>2026-04-15T05:45:16Z</time></trkpt><trkpt lat="-27.031455149338445" lon="115.91685130061278"><ele>275.0</ele><time>2026-04-15T05:45:17Z</time></trkpt><trkpt lat="-27.03127487483525" lon="115.91707657584584"><ele>275.0</ele><time>2026-04-15T05:45:18Z</time></trkpt><trkpt lat="-27.030897700801333" lon="115.9175445866167"><ele>275.0</ele><time>2026-04-15T05:45:20Z</time></trkpt><trkpt lat="-27.03070646364967" lon="115.91778374869321"><ele>275.0</ele><time>2026-04-15T05:45:21Z</time></trkpt><trkpt lat="-27.03051381804722" lon="115.91802425553395"><ele>275.0</ele><time>2026-04-15T05:45:22Z</time></trkpt><trkpt lat="-27.03031953646993" lon="115.9182666782194"><ele>275.0</ele><time>2026-04-15T05:45:23Z</time></trkpt><trkpt lat="-27.030129748809795" lon="115.91850827262365"><ele>274.5</ele><time>2026-04-15T05:45:24Z</time></trkpt><trkpt lat="-27.02994173233205" lon="115.91874745141548"><ele>274.0</ele><time>2026-04-15T05:45:25Z</time></trkpt><trkpt lat="-27.0297546334598" lon="115.91898516440196"><ele>274.0</ele><time>2026-04-15T05:45:26Z</time></trkpt><trkpt lat="-27.029564727786017" lon="115.91922435521919"><ele>274.0</ele><time>2026-04-15T05:45:27Z</time></trkpt><trkpt lat="-27.029371832276688" lon="115.91946065198943"><ele>274.0</ele><time>2026-04-15T05:45:28Z</time></trkpt><trkpt lat="-27.029176373809893" lon="115.91969781310652"><ele>274.0</ele><time>2026-04-15T05:45:29Z</time></trkpt><trkpt lat="-27.02898389225848" lon="115.91993653930248"><ele>274.5</ele><time>2026-04-15T05:45:30Z</time></trkpt><trkpt lat="-27.02879322945145" lon="115.9201776847445"><ele>275.0</ele><time>2026-04-15T05:45:31Z</time></trkpt><trkpt lat="-27.028606945508113" lon="115.92041499831853"><ele>275.0</ele><time>2026-04-15T05:45:32Z</time></trkpt><trkpt lat="-27.028420186048393" lon="115.92065149223859"><ele>275.0</ele><time>2026-04-15T05:45:33Z</time></trkpt><trkpt lat="-27.02823351484855" lon="115.92088751400165"><ele>276.0</ele><time>2026-04-15T05:45:34Z</time></trkpt><trkpt lat="-27.028045135370228" lon="115.92112597029688"><ele>277.0</ele><time>2026-04-15T05:45:35Z</time></trkpt><trkpt lat="-27.027854708853642" lon="115.92136209340401"><ele>277.0</ele><time>2026-04-15T05:45:36Z</time></trkpt><trkpt lat="-27.02766057908237" lon="115.92159827445798"><ele>277.0</ele><time>2026-04-15T05:45:37Z</time></trkpt><trkpt lat="-27.027466497197498" lon="115.92183292817592"><ele>276.0</ele><time>2026-04-15T05:45:38Z</time></trkpt><trkpt lat="-27.027084246581783" lon="115.92230433663815"><ele>276.0</ele><time>2026-04-15T05:45:40Z</time></trkpt><trkpt lat="-27.02689524209716" lon="115.92254053700927"><ele>276.0</ele><time>2026-04-15T05:45:41Z</time></trkpt><trkpt lat="-27.02670401795126" lon="115.92277474170952"><ele>276.0</ele><time>2026-04-15T05:45:42Z</time></trkpt><trkpt lat="-27.026512795430346" lon="115.92300862442077"><ele>276.0</ele><time>2026-04-15T05:45:43Z</time></trkpt><trkpt lat="-27.02632369035296" lon="115.92324155790153"><ele>276.0</ele><time>2026-04-15T05:45:44Z</time></trkpt><trkpt lat="-27.026135943242483" lon="115.92347252595701"><ele>276.0</ele><time>2026-04-15T05:45:45Z</time></trkpt><trkpt lat="-27.025947683067745" lon="115.9237030118911"><ele>276.5</ele><time>2026-04-15T05:45:46Z</time></trkpt><trkpt lat="-27.025757564267277" lon="115.92393026907588"><ele>277.0</ele><time>2026-04-15T05:45:47Z</time></trkpt><trkpt lat="-27.02556437187113" lon="115.92415499718923"><ele>277.5</ele><time>2026-04-15T05:45:48Z</time></trkpt><trkpt lat="-27.025369530458633" lon="115.92438004006102"><ele>278.0</ele><time>2026-04-15T05:45:49Z</time></trkpt><trkpt lat="-27.025173064565035" lon="115.92460431869543"><ele>277.5</ele><time>2026-04-15T05:45:50Z</time></trkpt><trkpt lat="-27.024973441907814" lon="115.92482814090012"><ele>277.0</ele><time>2026-04-15T05:45:51Z</time></trkpt><trkpt lat="-27.02476765456107" lon="115.92504754942678"><ele>277.0</ele><time>2026-04-15T05:45:52Z</time></trkpt><trkpt lat="-27.024558493218958" lon="115.92525833043823"><ele>277.0</ele><time>2026-04-15T05:45:53Z</time></trkpt><trkpt lat="-27.024337158984643" lon="115.92546291167668"><ele>276.5</ele><time>2026-04-15T05:45:54Z</time></trkpt><trkpt lat="-27.024107942769476" lon="115.925661417587"><ele>276.0</ele><time>2026-04-15T05:45:55Z</time></trkpt><trkpt lat="-27.023878510973173" lon="115.925855212539"><ele>275.5</ele><time>2026-04-15T05:45:56Z</time></trkpt><trkpt lat="-27.02364738410471" lon="115.92603790078986"><ele>275.0</ele><time>2026-04-15T05:45:57Z</time></trkpt><trkpt lat="-27.02340941856118" lon="115.92620219883294"><ele>276.0</ele><time>2026-04-15T05:45:58Z</time></trkpt><trkpt lat="-27.02316312021884" lon="115.92635236802431"><ele>277.0</ele><time>2026-04-15T05:45:59Z</time></trkpt><trkpt lat="-27.022653158630497" lon="115.92663625098578"><ele>277.0</ele><time>2026-04-15T05:46:01Z</time></trkpt><trkpt lat="-27.02239492316107" lon="115.92678151653128"><ele>277.0</ele><time>2026-04-15T05:46:02Z</time></trkpt><trkpt lat="-27.022131290428522" lon="115.92692988067336"><ele>277.0</ele><time>2026-04-15T05:46:03Z</time></trkpt><trkpt lat="-27.02186915464488" lon="115.92707788540994"><ele>277.0</ele><time>2026-04-15T05:46:04Z</time></trkpt><trkpt lat="-27.02160735982029" lon="115.92722780288742"><ele>276.0</ele><time>2026-04-15T05:46:05Z</time></trkpt><trkpt lat="-27.021351517995363" lon="115.92737520194994"><ele>275.0</ele><time>2026-04-15T05:46:06Z</time></trkpt><trkpt lat="-27.02109696543573" lon="115.9275229769473"><ele>275.0</ele><time>2026-04-15T05:46:07Z</time></trkpt><trkpt lat="-27.02084308296062" lon="115.9276714499251"><ele>275.0</ele><time>2026-04-15T05:46:08Z</time></trkpt><trkpt lat="-27.020582382794153" lon="115.92781993424964"><ele>275.0</ele><time>2026-04-15T05:46:09Z</time></trkpt><trkpt lat="-27.020322044856147" lon="115.92796804060072"><ele>275.0</ele><time>2026-04-15T05:46:10Z</time></trkpt><trkpt lat="-27.020055987790453" lon="115.9281196419622"><ele>275.5</ele><time>2026-04-15T05:46:11Z</time></trkpt><trkpt lat="-27.01979229241549" lon="115.92827130660402"><ele>276.0</ele><time>2026-04-15T05:46:12Z</time></trkpt><trkpt lat="-27.01953013354157" lon="115.92842158460692"><ele>276.0</ele><time>2026-04-15T05:46:13Z</time></trkpt><trkpt lat="-27.019267596144932" lon="115.92857284485302"><ele>276.0</ele><time>2026-04-15T05:46:14Z</time></trkpt><trkpt lat="-27.019005661853335" lon="115.9287221115446"><ele>275.5</ele><time>2026-04-15T05:46:15Z</time></trkpt><trkpt lat="-27.018742432873836" lon="115.9288721903615"><ele>275.0</ele><time>2026-04-15T05:46:16Z</time></trkpt><trkpt lat="-27.018479672751358" lon="115.92902332055385"><ele>275.0</ele><time>2026-04-15T05:46:17Z</time></trkpt><trkpt lat="-27.01821671466634" lon="115.92917371553705"><ele>275.0</ele><time>2026-04-15T05:46:18Z</time></trkpt><trkpt lat="-27.017953948998546" lon="115.92932345705796"><ele>275.5</ele><time>2026-04-15T05:46:19Z</time></trkpt><trkpt lat="-27.017688408699442" lon="115.92947152012209"><ele>276.0</ele><time>2026-04-15T05:46:20Z</time></trkpt><trkpt lat="-27.017157872982114" lon="115.92976490853037"><ele>275.5</ele><time>2026-04-15T05:46:22Z</time></trkpt><trkpt lat="-27.016894674343213" lon="115.92991170750581"><ele>275.0</ele><time>2026-04-15T05:46:23Z</time></trkpt><trkpt lat="-27.016634197185038" lon="115.93006141507755"><ele>275.0</ele><time>2026-04-15T05:46:24Z</time></trkpt><trkpt lat="-27.01637352865012" lon="115.93021048094819"><ele>275.0</ele><time>2026-04-15T05:46:25Z</time></trkpt><trkpt lat="-27.016113401249342" lon="115.93035937568898"><ele>275.0</ele><time>2026-04-15T05:46:26Z</time></trkpt><trkpt lat="-27.015852300980754" lon="115.9305075552476"><ele>275.0</ele><time>2026-04-15T05:46:27Z</time></trkpt><trkpt lat="-27.01559376206882" lon="115.93065644219288"><ele>275.5</ele><time>2026-04-15T05:46:28Z</time></trkpt><trkpt lat="-27.015333677241088" lon="115.93080815161035"><ele>276.0</ele><time>2026-04-15T05:46:29Z</time></trkpt><trkpt lat="-27.015075294460978" lon="115.9309578960076"><ele>275.5</ele><time>2026-04-15T05:46:30Z</time></trkpt><trkpt lat="-27.014821010571172" lon="115.931105642791"><ele>275.0</ele><time>2026-04-15T05:46:31Z</time></trkpt><trkpt lat="-27.014564742202772" lon="115.93125144975788"><ele>275.0</ele><time>2026-04-15T05:46:32Z</time></trkpt><trkpt lat="-27.014311840131867" lon="115.93139603097225"><ele>275.0</ele><time>2026-04-15T05:46:33Z</time></trkpt><trkpt lat="-27.014059144831883" lon="115.93154144008837"><ele>275.5</ele><time>2026-04-15T05:46:34Z</time></trkpt><trkpt lat="-27.013805834805048" lon="115.93168653850762"><ele>276.0</ele><time>2026-04-15T05:46:35Z</time></trkpt><trkpt lat="-27.013555297680355" lon="115.93183100158114"><ele>276.0</ele><time>2026-04-15T05:46:36Z</time></trkpt><trkpt lat="-27.013305975129423" lon="115.93197389492504"><ele>276.0</ele><time>2026-04-15T05:46:37Z</time></trkpt><trkpt lat="-27.013057550882742" lon="115.93211430868973"><ele>276.0</ele><time>2026-04-15T05:46:38Z</time></trkpt><trkpt lat="-27.01281347180004" lon="115.93225389733917"><ele>276.0</ele><time>2026-04-15T05:46:39Z</time></trkpt><trkpt lat="-27.012566910766857" lon="115.9323952076538"><ele>276.0</ele><time>2026-04-15T05:46:40Z</time></trkpt><trkpt lat="-27.01232242261743" lon="115.93253322001223"><ele>276.0</ele><time>2026-04-15T05:46:41Z</time></trkpt><trkpt lat="-27.01182839294288" lon="115.9328120582733"><ele>275.0</ele><time>2026-04-15T05:46:43Z</time></trkpt><trkpt lat="-27.011582039211916" lon="115.93295124928733"><ele>274.0</ele><time>2026-04-15T05:46:44Z</time></trkpt><trkpt lat="-27.011335159644158" lon="115.9330932960171"><ele>274.0</ele><time>2026-04-15T05:46:45Z</time></trkpt><trkpt lat="-27.011086241522005" lon="115.93323659600578"><ele>274.0</ele><time>2026-04-15T05:46:46Z</time></trkpt><trkpt lat="-27.01083453062003" lon="115.93337958007339"><ele>275.0</ele><time>2026-04-15T05:46:47Z</time></trkpt><trkpt lat="-27.010576891926085" lon="115.93352407591415"><ele>276.0</ele><time>2026-04-15T05:46:48Z</time></trkpt><trkpt lat="-27.010317370375027" lon="115.93367191474903"><ele>276.0</ele><time>2026-04-15T05:46:49Z</time></trkpt><trkpt lat="-27.010055408430684" lon="115.93382096690178"><ele>276.0</ele><time>2026-04-15T05:46:50Z</time></trkpt><trkpt lat="-27.009791935806295" lon="115.93396966516907"><ele>276.0</ele><time>2026-04-15T05:46:51Z</time></trkpt><trkpt lat="-27.009530930707523" lon="115.93411749243143"><ele>276.0</ele><time>2026-04-15T05:46:52Z</time></trkpt><trkpt lat="-27.009281510265946" lon="115.93426071615826"><ele>276.0</ele><time>2026-04-15T05:46:53Z</time></trkpt><trkpt lat="-27.00904310754426" lon="115.93439675429866"><ele>276.0</ele><time>2026-04-15T05:46:54Z</time></trkpt><trkpt lat="-27.008813214248683" lon="115.93452953174301"><ele>276.0</ele><time>2026-04-15T05:46:55Z</time></trkpt><trkpt lat="-27.008592313434377" lon="115.93465824653099"><ele>276.0</ele><time>2026-04-15T05:46:56Z</time></trkpt><trkpt lat="-27.008376236216055" lon="115.93478445435045"><ele>277.0</ele><time>2026-04-15T05:46:57Z</time></trkpt><trkpt lat="-27.008158473731644" lon="115.93491003831855"><ele>278.0</ele><time>2026-04-15T05:46:58Z</time></trkpt><trkpt lat="-27.00794068151257" lon="115.93503347061497"><ele>278.0</ele><time>2026-04-15T05:46:59Z</time></trkpt><trkpt lat="-27.007719124737537" lon="115.9351601705371"><ele>278.0</ele><time>2026-04-15T05:47:00Z</time></trkpt><trkpt lat="-27.00749602786744" lon="115.93529290556774"><ele>277.0</ele><time>2026-04-15T05:47:01Z</time></trkpt><trkpt lat="-27.007269128199802" lon="115.93542904452828"><ele>276.0</ele><time>2026-04-15T05:47:02Z</time></trkpt><trkpt lat="-27.006792918455055" lon="115.93569242611893"><ele>276.0</ele><time>2026-04-15T05:47:04Z</time></trkpt><trkpt lat="-27.006552481906137" lon="115.93582056261475"><ele>276.0</ele><time>2026-04-15T05:47:05Z</time></trkpt><trkpt lat="-27.006314653962537" lon="115.93595311783362"><ele>276.0</ele><time>2026-04-15T05:47:06Z</time></trkpt><trkpt lat="-27.006081606853204" lon="115.93608329213687"><ele>276.0</ele><time>2026-04-15T05:47:07Z</time></trkpt><trkpt lat="-27.005847780464407" lon="115.93621427597871"><ele>276.0</ele><time>2026-04-15T05:47:08Z</time></trkpt><trkpt lat="-27.0056141565332" lon="115.93634747758784"><ele>276.0</ele><time>2026-04-15T05:47:09Z</time></trkpt><trkpt lat="-27.00537779252156" lon="115.93648081309355"><ele>276.0</ele><time>2026-04-15T05:47:10Z</time></trkpt><trkpt lat="-27.00514087725803" lon="115.93661165135781"><ele>276.0</ele><time>2026-04-15T05:47:11Z</time></trkpt><trkpt lat="-27.004902759302585" lon="115.93674391530897"><ele>276.0</ele><time>2026-04-15T05:47:12Z</time></trkpt><trkpt lat="-27.004664780484934" lon="115.9368786455104"><ele>276.0</ele><time>2026-04-15T05:47:13Z</time></trkpt><trkpt lat="-27.004425804603898" lon="115.93701482328146"><ele>276.0</ele><time>2026-04-15T05:47:14Z</time></trkpt><trkpt lat="-27.004185238715447" lon="115.93715045726066"><ele>276.0</ele><time>2026-04-15T05:47:15Z</time></trkpt><trkpt lat="-27.003942363069815" lon="115.93728905692377"><ele>276.0</ele><time>2026-04-15T05:47:16Z</time></trkpt><trkpt lat="-27.003698317958467" lon="115.93742993302155"><ele>276.0</ele><time>2026-04-15T05:47:17Z</time></trkpt><trkpt lat="-27.003457770358974" lon="115.93757376003559"><ele>275.0</ele><time>2026-04-15T05:47:18Z</time></trkpt><trkpt lat="-27.003222215448446" lon="115.93771671676801"><ele>274.0</ele><time>2026-04-15T05:47:19Z</time></trkpt><trkpt lat="-27.00298946995464" lon="115.93785160199594"><ele>274.0</ele><time>2026-04-15T05:47:20Z</time></trkpt><trkpt lat="-27.00275509217598" lon="115.93798151326078"><ele>274.0</ele><time>2026-04-15T05:47:21Z</time></trkpt><trkpt lat="-27.002516494070804" lon="115.9381109358419"><ele>275.0</ele><time>2026-04-15T05:47:22Z</time></trkpt><trkpt lat="-27.002276499565152" lon="115.93824337196523"><ele>276.0</ele><time>2026-04-15T05:47:23Z</time></trkpt><trkpt lat="-27.001794896798263" lon="115.93851969986193"><ele>275.5</ele><time>2026-04-15T05:47:25Z</time></trkpt><trkpt lat="-27.00155179366366" lon="115.93865934323107"><ele>275.0</ele><time>2026-04-15T05:47:26Z</time></trkpt><trkpt lat="-27.0013055369664" lon="115.93880244938771"><ele>275.0</ele><time>2026-04-15T05:47:27Z</time></trkpt><trkpt lat="-27.00105876831975" lon="115.93894583439571"><ele>275.0</ele><time>2026-04-15T05:47:28Z</time></trkpt><trkpt lat="-27.00080574977916" lon="115.93908798298082"><ele>275.5</ele><time>2026-04-15T05:47:29Z</time></trkpt><trkpt lat="-27.000550182512022" lon="115.93922870189134"><ele>276.0</ele><time>2026-04-15T05:47:30Z</time></trkpt><trkpt lat="-27.00029495668987" lon="115.93936974449998"><ele>276.0</ele><time>2026-04-15T05:47:31Z</time></trkpt><trkpt lat="-27.000043433398687" lon="115.93951502948487"><ele>276.0</ele><time>2026-04-15T05:47:32Z</time></trkpt><trkpt lat="-26.999793039104553" lon="115.93965994101721"><ele>276.0</ele><time>2026-04-15T05:47:33Z</time></trkpt><trkpt lat="-26.99954308909201" lon="115.93980499259145"><ele>276.0</ele><time>2026-04-15T05:47:34Z</time></trkpt><trkpt lat="-26.999292212352962" lon="115.93995062808031"><ele>275.5</ele><time>2026-04-15T05:47:35Z</time></trkpt><trkpt lat="-26.999039147313646" lon="115.9400965366033"><ele>275.0</ele><time>2026-04-15T05:47:36Z</time></trkpt><trkpt lat="-26.998785706810654" lon="115.94024189111333"><ele>275.0</ele><time>2026-04-15T05:47:37Z</time></trkpt><trkpt lat="-26.998530566245254" lon="115.94038783620519"><ele>275.0</ele><time>2026-04-15T05:47:38Z</time></trkpt><trkpt lat="-26.99827482014728" lon="115.94053482224325"><ele>275.0</ele><time>2026-04-15T05:47:39Z</time></trkpt><trkpt lat="-26.998019282581073" lon="115.94068333644194"><ele>275.0</ele><time>2026-04-15T05:47:40Z</time></trkpt><trkpt lat="-26.99776599436264" lon="115.94083028130684"><ele>276.0</ele><time>2026-04-15T05:47:41Z</time></trkpt><trkpt lat="-26.99750859401797" lon="115.94097774319081"><ele>277.0</ele><time>2026-04-15T05:47:42Z</time></trkpt><trkpt lat="-26.9972511019092" lon="115.94112456056033"><ele>277.5</ele><time>2026-04-15T05:47:43Z</time></trkpt><trkpt lat="-26.996993667323526" lon="115.94127442476805"><ele>278.0</ele><time>2026-04-15T05:47:44Z</time></trkpt><trkpt lat="-26.99646931486012" lon="115.94157736579713"><ele>278.0</ele><time>2026-04-15T05:47:46Z</time></trkpt><trkpt lat="-26.99620587459521" lon="115.94172813678298"><ele>278.0</ele><time>2026-04-15T05:47:47Z</time></trkpt><trkpt lat="-26.995948000318446" lon="115.94187449397283"><ele>278.0</ele><time>2026-04-15T05:47:48Z</time></trkpt><trkpt lat="-26.99569582343787" lon="115.9420147708156"><ele>278.0</ele><time>2026-04-15T05:47:49Z</time></trkpt><trkpt lat="-26.995445063495318" lon="115.94215652456836"><ele>278.0</ele><time>2026-04-15T05:47:50Z</time></trkpt><trkpt lat="-26.99519033907908" lon="115.94230097705278"><ele>278.0</ele><time>2026-04-15T05:47:51Z</time></trkpt><trkpt lat="-26.99493426550169" lon="115.94244567275238"><ele>278.0</ele><time>2026-04-15T05:47:52Z</time></trkpt><trkpt lat="-26.99468923217069" lon="115.94258683984103"><ele>278.0</ele><time>2026-04-15T05:47:53Z</time></trkpt><trkpt lat="-26.994446018993887" lon="115.94272617375844"><ele>278.0</ele><time>2026-04-15T05:47:54Z</time></trkpt><trkpt lat="-26.99419832306445" lon="115.94286569636661"><ele>278.0</ele><time>2026-04-15T05:47:55Z</time></trkpt><trkpt lat="-26.993952494137183" lon="115.94300683479047"><ele>279.0</ele><time>2026-04-15T05:47:56Z</time></trkpt><trkpt lat="-26.993702915339984" lon="115.94315321373894"><ele>280.0</ele><time>2026-04-15T05:47:57Z</time></trkpt><trkpt lat="-26.99345176247883" lon="115.94329972739529"><ele>279.5</ele><time>2026-04-15T05:47:58Z</time></trkpt><trkpt lat="-26.993197860121963" lon="115.9434446280156"><ele>279.0</ele><time>2026-04-15T05:47:59Z</time></trkpt><trkpt lat="-26.992948927090595" lon="115.943583930189"><ele>279.0</ele><time>2026-04-15T05:48:00Z</time></trkpt><trkpt lat="-26.992698508219625" lon="115.94372441671982"><ele>279.0</ele><time>2026-04-15T05:48:01Z</time></trkpt><trkpt lat="-26.992450866573833" lon="115.94386782422394"><ele>279.0</ele><time>2026-04-15T05:48:02Z</time></trkpt><trkpt lat="-26.99220173572999" lon="115.94401067286921"><ele>279.0</ele><time>2026-04-15T05:48:03Z</time></trkpt><trkpt lat="-26.991950875478476" lon="115.94415319011615"><ele>278.5</ele><time>2026-04-15T05:48:04Z</time></trkpt><trkpt lat="-26.99170083391725" lon="115.94429521456884"><ele>278.0</ele><time>2026-04-15T05:48:05Z</time></trkpt><trkpt lat="-26.99120032764073" lon="115.94458156238376"><ele>278.0</ele><time>2026-04-15T05:48:07Z</time></trkpt><trkpt lat="-26.990951832808904" lon="115.94472349028115"><ele>278.0</ele><time>2026-04-15T05:48:08Z</time></trkpt><trkpt lat="-26.990706075769594" lon="115.94486250118449"><ele>278.0</ele><time>2026-04-15T05:48:09Z</time></trkpt><trkpt lat="-26.990458165163602" lon="115.94500313857853"><ele>278.0</ele><time>2026-04-15T05:48:10Z</time></trkpt><trkpt lat="-26.99021015635242" lon="115.94514361528708"><ele>278.0</ele><time>2026-04-15T05:48:11Z</time></trkpt><trkpt lat="-26.989962891519962" lon="115.94528246071265"><ele>278.0</ele><time>2026-04-15T05:48:12Z</time></trkpt><trkpt lat="-26.989716484810472" lon="115.94542101641181"><ele>278.0</ele><time>2026-04-15T05:48:13Z</time></trkpt><trkpt lat="-26.98947121737392" lon="115.94556117278624"><ele>278.0</ele><time>2026-04-15T05:48:14Z</time></trkpt><trkpt lat="-26.9892274897625" lon="115.94570445461106"><ele>278.0</ele><time>2026-04-15T05:48:15Z</time></trkpt><trkpt lat="-26.988981988570163" lon="115.94584874705872"><ele>278.0</ele><time>2026-04-15T05:48:16Z</time></trkpt><trkpt lat="-26.988733283773467" lon="115.94599516199675"><ele>278.0</ele><time>2026-04-15T05:48:17Z</time></trkpt><trkpt lat="-26.988481242943205" lon="115.94613908666011"><ele>278.0</ele><time>2026-04-15T05:48:18Z</time></trkpt><trkpt lat="-26.988226832786502" lon="115.9462822195081"><ele>278.0</ele><time>2026-04-15T05:48:19Z</time></trkpt><trkpt lat="-26.98797305253269" lon="115.9464223625613"><ele>278.0</ele><time>2026-04-15T05:48:20Z</time></trkpt><trkpt lat="-26.98772352678866" lon="115.9465609802177"><ele>278.0</ele><time>2026-04-15T05:48:21Z</time></trkpt><trkpt lat="-26.987477343655893" lon="115.94670119942123"><ele>278.0</ele><time>2026-04-15T05:48:22Z</time></trkpt><trkpt lat="-26.98723274123421" lon="115.94684344469417"><ele>278.0</ele><time>2026-04-15T05:48:23Z</time></trkpt><trkpt lat="-26.986986740045104" lon="115.94698879741766"><ele>278.0</ele><time>2026-04-15T05:48:24Z</time></trkpt><trkpt lat="-26.986744534078724" lon="115.94713206645176"><ele>278.0</ele><time>2026-04-15T05:48:25Z</time></trkpt><trkpt lat="-26.986499534162448" lon="115.94727504443559"><ele>278.0</ele><time>2026-04-15T05:48:26Z</time></trkpt><trkpt lat="-26.986015119365256" lon="115.9475507673028"><ele>279.0</ele><time>2026-04-15T05:48:28Z</time></trkpt><trkpt lat="-26.98577430641384" lon="115.94768801253811"><ele>280.0</ele><time>2026-04-15T05:48:29Z</time></trkpt><trkpt lat="-26.985530452075555" lon="115.94782836696152"><ele>280.0</ele><time>2026-04-15T05:48:30Z</time></trkpt><trkpt lat="-26.98528908365072" lon="115.94797291069892"><ele>280.0</ele><time>2026-04-15T05:48:31Z</time></trkpt><trkpt lat="-26.98505071216804" lon="115.94812177477962"><ele>279.5</ele><time>2026-04-15T05:48:32Z</time></trkpt><trkpt lat="-26.984819868314524" lon="115.94827551130221"><ele>279.0</ele><time>2026-04-15T05:48:33Z</time></trkpt><trkpt lat="-26.984598121127636" lon="115.94844329662943"><ele>279.0</ele><time>2026-04-15T05:48:34Z</time></trkpt><trkpt lat="-26.984388104372776" lon="115.94862529775774"><ele>279.0</ele><time>2026-04-15T05:48:35Z</time></trkpt><trkpt lat="-26.984187473800738" lon="115.94881967225952"><ele>279.5</ele><time>2026-04-15T05:48:36Z</time></trkpt><trkpt lat="-26.98398941207426" lon="115.94903031152515"><ele>280.0</ele><time>2026-04-15T05:48:37Z</time></trkpt><trkpt lat="-26.983790836205863" lon="115.94924712751074"><ele>280.0</ele><time>2026-04-15T05:48:38Z</time></trkpt><trkpt lat="-26.983594955997503" lon="115.94945679446228"><ele>280.0</ele><time>2026-04-15T05:48:39Z</time></trkpt><trkpt lat="-26.98339833143265" lon="115.94966279382568"><ele>280.5</ele><time>2026-04-15T05:48:40Z</time></trkpt><trkpt lat="-26.983201860511645" lon="115.94986727975912"><ele>281.0</ele><time>2026-04-15T05:48:41Z</time></trkpt><trkpt lat="-26.983004435587567" lon="115.95007251105142"><ele>281.0</ele><time>2026-04-15T05:48:42Z</time></trkpt><trkpt lat="-26.982805628941094" lon="115.95027954405734"><ele>281.0</ele><time>2026-04-15T05:48:43Z</time></trkpt><trkpt lat="-26.98260784809097" lon="115.95048472207303"><ele>281.0</ele><time>2026-04-15T05:48:44Z</time></trkpt><trkpt lat="-26.98240825435934" lon="115.95069087063061"><ele>281.0</ele><time>2026-04-15T05:48:45Z</time></trkpt><trkpt lat="-26.982211199073934" lon="115.95089862385942"><ele>280.5</ele><time>2026-04-15T05:48:46Z</time></trkpt><trkpt lat="-26.98201608082441" lon="115.9511071334588"><ele>280.0</ele><time>2026-04-15T05:48:47Z</time></trkpt><trkpt lat="-26.981622528675114" lon="115.9515191122595"><ele>279.5</ele><time>2026-04-15T05:48:49Z</time></trkpt><trkpt lat="-26.981423883434704" lon="115.95172577086304"><ele>279.0</ele><time>2026-04-15T05:48:50Z</time></trkpt><trkpt lat="-26.981225699689535" lon="115.951933066789"><ele>279.0</ele><time>2026-04-15T05:48:51Z</time></trkpt><trkpt lat="-26.981026538712417" lon="115.95213943615836"><ele>279.0</ele><time>2026-04-15T05:48:52Z</time></trkpt><trkpt lat="-26.980826736331398" lon="115.95234731458444"><ele>279.0</ele><time>2026-04-15T05:48:53Z</time></trkpt><trkpt lat="-26.980624624770897" lon="115.9525560170695"><ele>279.0</ele><time>2026-04-15T05:48:54Z</time></trkpt><trkpt lat="-26.9804202861397" lon="115.95276362821323"><ele>279.0</ele><time>2026-04-15T05:48:55Z</time></trkpt><trkpt lat="-26.98021533393908" lon="115.95297193936007"><ele>279.0</ele><time>2026-04-15T05:48:56Z</time></trkpt><trkpt lat="-26.980010004621224" lon="115.95318298884612"><ele>280.0</ele><time>2026-04-15T05:48:57Z</time></trkpt><trkpt lat="-26.979807468498834" lon="115.95339379751032"><ele>281.0</ele><time>2026-04-15T05:48:58Z</time></trkpt><trkpt lat="-26.979606976984957" lon="115.95360279086897"><ele>281.0</ele><time>2026-04-15T05:48:59Z</time></trkpt><trkpt lat="-26.979402881764294" lon="115.9538097741857"><ele>281.0</ele><time>2026-04-15T05:49:00Z</time></trkpt><trkpt lat="-26.979200967704084" lon="115.95401602894678"><ele>280.5</ele><time>2026-04-15T05:49:01Z</time></trkpt><trkpt lat="-26.97900173039107" lon="115.95422506609597"><ele>280.0</ele><time>2026-04-15T05:49:02Z</time></trkpt><trkpt lat="-26.978804678385657" lon="115.95443195140956"><ele>280.0</ele><time>2026-04-15T05:49:03Z</time></trkpt><trkpt lat="-26.978610174163855" lon="115.95463863175246"><ele>280.0</ele><time>2026-04-15T05:49:04Z</time></trkpt><trkpt lat="-26.978412501929128" lon="115.95484505671052"><ele>279.5</ele><time>2026-04-15T05:49:05Z</time></trkpt><trkpt lat="-26.97821117710322" lon="115.95505198690562"><ele>279.0</ele><time>2026-04-15T05:49:06Z</time></trkpt><trkpt lat="-26.97801027091312" lon="115.95525887857758"><ele>279.0</ele><time>2026-04-15T05:49:07Z</time></trkpt><trkpt lat="-26.97780823628798" lon="115.95546959378211"><ele>279.0</ele><time>2026-04-15T05:49:08Z</time></trkpt><trkpt lat="-26.97739585251764" lon="115.9558935728105"><ele>279.0</ele><time>2026-04-15T05:49:10Z</time></trkpt><trkpt lat="-26.977189832241038" lon="115.95610926365804"><ele>279.0</ele><time>2026-04-15T05:49:11Z</time></trkpt><trkpt lat="-26.976984914281996" lon="115.95632371877102"><ele>279.0</ele><time>2026-04-15T05:49:12Z</time></trkpt><trkpt lat="-26.976778805716396" lon="115.95653895648377"><ele>279.0</ele><time>2026-04-15T05:49:13Z</time></trkpt><trkpt lat="-26.976575264377562" lon="115.95675048512844"><ele>279.0</ele><time>2026-04-15T05:49:14Z</time></trkpt><trkpt lat="-26.976373345858324" lon="115.95696101824596"><ele>279.0</ele><time>2026-04-15T05:49:15Z</time></trkpt><trkpt lat="-26.976171847457913" lon="115.95716660293603"><ele>279.0</ele><time>2026-04-15T05:49:16Z</time></trkpt><trkpt lat="-26.975970184111116" lon="115.95737256541624"><ele>279.0</ele><time>2026-04-15T05:49:17Z</time></trkpt><trkpt lat="-26.975770623711362" lon="115.95758293990284"><ele>280.0</ele><time>2026-04-15T05:49:18Z</time></trkpt><trkpt lat="-26.97557289456318" lon="115.95779288644157"><ele>281.0</ele><time>2026-04-15T05:49:19Z</time></trkpt><trkpt lat="-26.975371615700443" lon="115.95800177898829"><ele>281.0</ele><time>2026-04-15T05:49:20Z</time></trkpt><trkpt lat="-26.975172895162878" lon="115.95821209025897"><ele>281.0</ele><time>2026-04-15T05:49:21Z</time></trkpt><trkpt lat="-26.97497559753649" lon="115.95841892532144"><ele>279.5</ele><time>2026-04-15T05:49:22Z</time></trkpt><trkpt lat="-26.974778114565893" lon="115.95862531813121"><ele>278.0</ele><time>2026-04-15T05:49:23Z</time></trkpt><trkpt lat="-26.97438951178219" lon="115.9590285877115"><ele>278.0</ele><time>2026-04-15T05:49:25Z</time></trkpt><trkpt lat="-26.974197308368502" lon="115.95922463012192"><ele>278.0</ele><time>2026-04-15T05:49:26Z</time></trkpt><trkpt lat="-26.974004824104828" lon="115.95942024180198"><ele>278.0</ele><time>2026-04-15T05:49:27Z</time></trkpt><trkpt lat="-26.97381418203171" lon="115.9596181195563"><ele>278.0</ele><time>2026-04-15T05:49:28Z</time></trkpt><trkpt lat="-26.973437602618944" lon="115.96001100954692"><ele>278.0</ele><time>2026-04-15T05:49:30Z</time></trkpt><trkpt lat="-26.97324527854584" lon="115.96020765806423"><ele>278.0</ele><time>2026-04-15T05:49:31Z</time></trkpt><trkpt lat="-26.97305100205282" lon="115.96040873373643"><ele>278.0</ele><time>2026-04-15T05:49:32Z</time></trkpt><trkpt lat="-26.972852972160926" lon="115.96061485424319"><ele>278.0</ele><time>2026-04-15T05:49:33Z</time></trkpt><trkpt lat="-26.97265216571123" lon="115.96082286367978"><ele>279.5</ele><time>2026-04-15T05:49:34Z</time></trkpt><trkpt lat="-26.972447980707496" lon="115.96102783670547"><ele>281.0</ele><time>2026-04-15T05:49:35Z</time></trkpt><trkpt lat="-26.972244865356377" lon="115.9612322344746"><ele>281.0</ele><time>2026-04-15T05:49:36Z</time></trkpt><trkpt lat="-26.972045712541668" lon="115.96143902505749"><ele>281.0</ele><time>2026-04-15T05:49:37Z</time></trkpt><trkpt lat="-26.971846542645075" lon="115.96164583578889"><ele>279.5</ele><time>2026-04-15T05:49:38Z</time></trkpt><trkpt lat="-26.971649087090356" lon="115.96185343994784"><ele>278.0</ele><time>2026-04-15T05:49:39Z</time></trkpt><trkpt lat="-26.971451093377695" lon="115.96206065607883"><ele>278.0</ele><time>2026-04-15T05:49:40Z</time></trkpt><trkpt lat="-26.971252544187678" lon="115.96226715804417"><ele>278.0</ele><time>2026-04-15T05:49:41Z</time></trkpt><trkpt lat="-26.971056116294182" lon="115.96247300661993"><ele>278.0</ele><time>2026-04-15T05:49:42Z</time></trkpt><trkpt lat="-26.970860295090233" lon="115.96267595145171"><ele>278.0</ele><time>2026-04-15T05:49:43Z</time></trkpt><trkpt lat="-26.97066594126037" lon="115.9628770548384"><ele>277.5</ele><time>2026-04-15T05:49:44Z</time></trkpt><trkpt lat="-26.97047568680801" lon="115.96307722253842"><ele>277.0</ele><time>2026-04-15T05:49:45Z</time></trkpt><trkpt lat="-26.970287564652335" lon="115.96327743846267"><ele>277.5</ele><time>2026-04-15T05:49:46Z</time></trkpt><trkpt lat="-26.9700968293345" lon="115.96347361941723"><ele>278.0</ele><time>2026-04-15T05:49:47Z</time></trkpt><trkpt lat="-26.969906200094954" lon="115.96366769220867"><ele>277.5</ele><time>2026-04-15T05:49:48Z</time></trkpt><trkpt lat="-26.969714978549927" lon="115.9638638105495"><ele>277.0</ele><time>2026-04-15T05:49:49Z</time></trkpt><trkpt lat="-26.969338320304637" lon="115.96425316102625"><ele>277.0</ele><time>2026-04-15T05:49:51Z</time></trkpt><trkpt lat="-26.9691562177875" lon="115.9644428220917"><ele>277.0</ele><time>2026-04-15T05:49:52Z</time></trkpt><trkpt lat="-26.968976756476586" lon="115.96463439059823"><ele>277.0</ele><time>2026-04-15T05:49:53Z</time></trkpt><trkpt lat="-26.96880204890836" lon="115.96481818968539"><ele>277.0</ele><time>2026-04-15T05:49:54Z</time></trkpt><trkpt lat="-26.968634088373545" lon="115.9650016414929"><ele>277.0</ele><time>2026-04-15T05:49:55Z</time></trkpt><trkpt lat="-26.96846619330947" lon="115.96518199789179"><ele>277.0</ele><time>2026-04-15T05:49:56Z</time></trkpt><trkpt lat="-26.9683001657848" lon="115.96535664075266"><ele>276.0</ele><time>2026-04-15T05:49:57Z</time></trkpt><trkpt lat="-26.968131662227066" lon="115.96553132143097"><ele>275.0</ele><time>2026-04-15T05:49:58Z</time></trkpt><trkpt lat="-26.96796561146354" lon="115.9656994085342"><ele>275.33333333333337</ele><time>2026-04-15T05:49:59Z</time></trkpt><trkpt lat="-26.967803380056996" lon="115.96586297953569"><ele>275.6666666666667</ele><time>2026-04-15T05:50:00Z</time></trkpt><trkpt lat="-26.96763921057877" lon="115.96602306848206"><ele>276.0</ele><time>2026-04-15T05:50:01Z</time></trkpt><trkpt lat="-26.967468663963263" lon="115.96618736891332"><ele>276.5</ele><time>2026-04-15T05:50:02Z</time></trkpt><trkpt lat="-26.96729638983401" lon="115.96635250010033"><ele>277.0</ele><time>2026-04-15T05:50:03Z</time></trkpt><trkpt lat="-26.967123749731375" lon="115.96651998775359"><ele>277.0</ele><time>2026-04-15T05:50:04Z</time></trkpt><trkpt lat="-26.966946307231527" lon="115.96668162534532"><ele>277.0</ele><time>2026-04-15T05:50:05Z</time></trkpt><trkpt lat="-26.96676488050209" lon="115.96683799099824"><ele>276.5</ele><time>2026-04-15T05:50:06Z</time></trkpt><trkpt lat="-26.966573909160658" lon="115.96698456962088"><ele>276.0</ele><time>2026-04-15T05:50:07Z</time></trkpt><trkpt lat="-26.966368499454866" lon="115.96712390485791"><ele>276.0</ele><time>2026-04-15T05:50:08Z</time></trkpt><trkpt lat="-26.96615027095886" lon="115.96726019339995"><ele>276.0</ele><time>2026-04-15T05:50:09Z</time></trkpt><trkpt lat="-26.96592851338458" lon="115.96739122109044"><ele>276.0</ele><time>2026-04-15T05:50:10Z</time></trkpt><trkpt lat="-26.965460617950136" lon="115.96761752597884"><ele>276.0</ele><time>2026-04-15T05:50:12Z</time></trkpt><trkpt lat="-26.965215934113672" lon="115.96771164389916"><ele>276.0</ele><time>2026-04-15T05:50:13Z</time></trkpt><trkpt lat="-26.964963099386566" lon="115.96779870091306"><ele>277.0</ele><time>2026-04-15T05:50:14Z</time></trkpt><trkpt lat="-26.96470111934894" lon="115.96787748680958"><ele>278.0</ele><time>2026-04-15T05:50:15Z</time></trkpt><trkpt lat="-26.964440606081816" lon="115.96794810745577"><ele>277.5</ele><time>2026-04-15T05:50:16Z</time></trkpt><trkpt lat="-26.964179416507385" lon="115.9680027977138"><ele>277.0</ele><time>2026-04-15T05:50:17Z</time></trkpt><trkpt lat="-26.963915686727752" lon="115.96803602728123"><ele>277.0</ele><time>2026-04-15T05:50:18Z</time></trkpt><trkpt lat="-26.963650363300765" lon="115.968058551425"><ele>277.0</ele><time>2026-04-15T05:50:19Z</time></trkpt><trkpt lat="-26.96338098000995" lon="115.96806834339726"><ele>277.0</ele><time>2026-04-15T05:50:20Z</time></trkpt><trkpt lat="-26.963114497118784" lon="115.96807319230315"><ele>277.0</ele><time>2026-04-15T05:50:21Z</time></trkpt><trkpt lat="-26.962850995098833" lon="115.9680719717243"><ele>277.0</ele><time>2026-04-15T05:50:22Z</time></trkpt><trkpt lat="-26.962590692705746" lon="115.9680701986656"><ele>277.0</ele><time>2026-04-15T05:50:23Z</time></trkpt><trkpt lat="-26.962333177242943" lon="115.96806561145364"><ele>277.0</ele><time>2026-04-15T05:50:24Z</time></trkpt><trkpt lat="-26.962076181632582" lon="115.96805839840614"><ele>277.0</ele><time>2026-04-15T05:50:25Z</time></trkpt><trkpt lat="-26.961819056144705" lon="115.96805351497402"><ele>276.5</ele><time>2026-04-15T05:50:26Z</time></trkpt><trkpt lat="-26.961563628743335" lon="115.96804756767636"><ele>276.0</ele><time>2026-04-15T05:50:27Z</time></trkpt><trkpt lat="-26.96130797278965" lon="115.96804053052917"><ele>276.0</ele><time>2026-04-15T05:50:28Z</time></trkpt><trkpt lat="-26.96105285800001" lon="115.96802685564707"><ele>276.0</ele><time>2026-04-15T05:50:29Z</time></trkpt><trkpt lat="-26.960794571808012" lon="115.96800953118398"><ele>276.5</ele><time>2026-04-15T05:50:30Z</time></trkpt><trkpt lat="-26.96053069364626" lon="115.96798934048522"><ele>277.0</ele><time>2026-04-15T05:50:31Z</time></trkpt><trkpt lat="-26.959993380778783" lon="115.96794759010614"><ele>275.5</ele><time>2026-04-15T05:50:33Z</time></trkpt><trkpt lat="-26.959725705363738" lon="115.96792243723844"><ele>274.0</ele><time>2026-04-15T05:50:34Z</time></trkpt><trkpt lat="-26.959458481072026" lon="115.96789398109739"><ele>275.0</ele><time>2026-04-15T05:50:35Z</time></trkpt><trkpt lat="-26.959195599475283" lon="115.9678655687196"><ele>276.0</ele><time>2026-04-15T05:50:36Z</time></trkpt><trkpt lat="-26.95892890410394" lon="115.96783730930929"><ele>276.0</ele><time>2026-04-15T05:50:37Z</time></trkpt><trkpt lat="-26.95866532496442" lon="115.96780860924964"><ele>276.0</ele><time>2026-04-15T05:50:38Z</time></trkpt><trkpt lat="-26.95840079366803" lon="115.96777961238806"><ele>275.5</ele><time>2026-04-15T05:50:39Z</time></trkpt><trkpt lat="-26.958138077361326" lon="115.96774853641026"><ele>275.0</ele><time>2026-04-15T05:50:40Z</time></trkpt><trkpt lat="-26.957872906305205" lon="115.96771780407394"><ele>275.0</ele><time>2026-04-15T05:50:41Z</time></trkpt><trkpt lat="-26.957606572768622" lon="115.96769111847112"><ele>275.0</ele><time>2026-04-15T05:50:42Z</time></trkpt><trkpt lat="-26.957341232477916" lon="115.96766588149167"><ele>275.5</ele><time>2026-04-15T05:50:43Z</time></trkpt><trkpt lat="-26.957089469795804" lon="115.96763860277954"><ele>276.0</ele><time>2026-04-15T05:50:44Z</time></trkpt><trkpt lat="-26.95685546107639" lon="115.96761168499543"><ele>276.0</ele><time>2026-04-15T05:50:45Z</time></trkpt><trkpt lat="-26.95661035918552" lon="115.9675892256257"><ele>276.0</ele><time>2026-04-15T05:50:46Z</time></trkpt><trkpt lat="-26.95635894576883" lon="115.96756439043006"><ele>276.0</ele><time>2026-04-15T05:50:47Z</time></trkpt><trkpt lat="-26.95610113620591" lon="115.9675391235668"><ele>276.0</ele><time>2026-04-15T05:50:48Z</time></trkpt><trkpt lat="-26.95583970855754" lon="115.96751121516617"><ele>276.5</ele><time>2026-04-15T05:50:49Z</time></trkpt><trkpt lat="-26.95558368052306" lon="115.96748359197508"><ele>277.0</ele><time>2026-04-15T05:50:50Z</time></trkpt><trkpt lat="-26.955326683081527" lon="115.9674565180425"><ele>277.0</ele><time>2026-04-15T05:50:51Z</time></trkpt><trkpt lat="-26.955069826878642" lon="115.96742853339815"><ele>277.0</ele><time>2026-04-15T05:50:52Z</time></trkpt><trkpt lat="-26.95454708218685" lon="115.96737465180212"><ele>277.0</ele><time>2026-04-15T05:50:54Z</time></trkpt><trkpt lat="-26.95428228478342" lon="115.96734785366625"><ele>277.0</ele><time>2026-04-15T05:50:55Z</time></trkpt><trkpt lat="-26.95401700114307" lon="115.96731956546796"><ele>277.0</ele><time>2026-04-15T05:50:56Z</time></trkpt><trkpt lat="-26.95374925960082" lon="115.96729171568403"><ele>277.0</ele><time>2026-04-15T05:50:57Z</time></trkpt><trkpt lat="-26.95348278261049" lon="115.96726228467311"><ele>277.5</ele><time>2026-04-15T05:50:58Z</time></trkpt><trkpt lat="-26.953215784760665" lon="115.96723093811114"><ele>278.0</ele><time>2026-04-15T05:50:59Z</time></trkpt><trkpt lat="-26.95295321285379" lon="115.96720457799826"><ele>278.0</ele><time>2026-04-15T05:51:00Z</time></trkpt><trkpt lat="-26.952688231157907" lon="115.96717863752005"><ele>278.0</ele><time>2026-04-15T05:51:01Z</time></trkpt><trkpt lat="-26.952424875195458" lon="115.96715002050352"><ele>278.0</ele><time>2026-04-15T05:51:02Z</time></trkpt><trkpt lat="-26.952160445000192" lon="115.96712041147714"><ele>278.0</ele><time>2026-04-15T05:51:03Z</time></trkpt><trkpt lat="-26.951899294754597" lon="115.96709448142249"><ele>279.0</ele><time>2026-04-15T05:51:04Z</time></trkpt><trkpt lat="-26.951639486019335" lon="115.96707046254964"><ele>280.0</ele><time>2026-04-15T05:51:05Z</time></trkpt><trkpt lat="-26.95137894029606" lon="115.9670460802289"><ele>280.0</ele><time>2026-04-15T05:51:06Z</time></trkpt><trkpt lat="-26.951122864912907" lon="115.96702244271371"><ele>280.0</ele><time>2026-04-15T05:51:07Z</time></trkpt><trkpt lat="-26.950866351123533" lon="115.96699589218036"><ele>278.5</ele><time>2026-04-15T05:51:08Z</time></trkpt><trkpt lat="-26.950608186120135" lon="115.96696774060943"><ele>277.0</ele><time>2026-04-15T05:51:09Z</time></trkpt><trkpt lat="-26.950350178267605" lon="115.96693829016762"><ele>277.0</ele><time>2026-04-15T05:51:10Z</time></trkpt><trkpt lat="-26.950093189011877" lon="115.96690819127716"><ele>277.0</ele><time>2026-04-15T05:51:11Z</time></trkpt><trkpt lat="-26.94983472879566" lon="115.96687748508366"><ele>277.5</ele><time>2026-04-15T05:51:12Z</time></trkpt><trkpt lat="-26.949571255285285" lon="115.96684793609198"><ele>278.0</ele><time>2026-04-15T05:51:13Z</time></trkpt><trkpt lat="-26.949042804523195" lon="115.96678989436334"><ele>278.0</ele><time>2026-04-15T05:51:15Z</time></trkpt><trkpt lat="-26.948775956707628" lon="115.96676054022016"><ele>278.0</ele><time>2026-04-15T05:51:16Z</time></trkpt><trkpt lat="-26.948508382983356" lon="115.96673472478912"><ele>278.5</ele><time>2026-04-15T05:51:17Z</time></trkpt><trkpt lat="-26.948240145461988" lon="115.96670648291402"><ele>279.0</ele><time>2026-04-15T05:51:18Z</time></trkpt><trkpt lat="-26.947973135713013" lon="115.96667705586971"><ele>279.0</ele><time>2026-04-15T05:51:19Z</time></trkpt><trkpt lat="-26.94770814106616" lon="115.96665136738585"><ele>279.0</ele><time>2026-04-15T05:51:20Z</time></trkpt><trkpt lat="-26.947445560956726" lon="115.96662746636017"><ele>279.0</ele><time>2026-04-15T05:51:21Z</time></trkpt><trkpt lat="-26.947185898424816" lon="115.96660094368526"><ele>279.0</ele><time>2026-04-15T05:51:22Z</time></trkpt><trkpt lat="-26.946927987946253" lon="115.96657319514131"><ele>279.5</ele><time>2026-04-15T05:51:23Z</time></trkpt><trkpt lat="-26.946670580406526" lon="115.96654325228059"><ele>280.0</ele><time>2026-04-15T05:51:24Z</time></trkpt><trkpt lat="-26.94641329218608" lon="115.96651318671834"><ele>280.0</ele><time>2026-04-15T05:51:25Z</time></trkpt><trkpt lat="-26.946161011867996" lon="115.966485830458"><ele>280.0</ele><time>2026-04-15T05:51:26Z</time></trkpt><trkpt lat="-26.94590851917989" lon="115.96646075072391"><ele>279.5</ele><time>2026-04-15T05:51:27Z</time></trkpt><trkpt lat="-26.945655123830587" lon="115.96643410753902"><ele>279.0</ele><time>2026-04-15T05:51:28Z</time></trkpt><trkpt lat="-26.94539788894041" lon="115.96640808339137"><ele>279.0</ele><time>2026-04-15T05:51:29Z</time></trkpt><trkpt lat="-26.94514067600876" lon="115.96638136100512"><ele>279.0</ele><time>2026-04-15T05:51:30Z</time></trkpt><trkpt lat="-26.944884284316046" lon="115.96635507072696"><ele>278.5</ele><time>2026-04-15T05:51:31Z</time></trkpt><trkpt lat="-26.944628262547074" lon="115.9663288613613"><ele>278.0</ele><time>2026-04-15T05:51:32Z</time></trkpt><trkpt lat="-26.94437072234528" lon="115.96630294469203"><ele>279.0</ele><time>2026-04-15T05:51:33Z</time></trkpt><trkpt lat="-26.94411376059605" lon="115.96627947968722"><ele>280.0</ele><time>2026-04-15T05:51:34Z</time></trkpt><trkpt lat="-26.943600564564683" lon="115.96622525378001"><ele>279.5</ele><time>2026-04-15T05:51:36Z</time></trkpt><trkpt lat="-26.943336632806368" lon="115.96619422196129"><ele>279.0</ele><time>2026-04-15T05:51:37Z</time></trkpt><trkpt lat="-26.943071405972177" lon="115.96616732121493"><ele>279.0</ele><time>2026-04-15T05:51:38Z</time></trkpt><trkpt lat="-26.942809267717113" lon="115.96613390012948"><ele>279.0</ele><time>2026-04-15T05:51:39Z</time></trkpt><trkpt lat="-26.942555387810568" lon="115.96610318431182"><ele>279.5</ele><time>2026-04-15T05:51:40Z</time></trkpt><trkpt lat="-26.942302886092914" lon="115.96607857346658"><ele>280.0</ele><time>2026-04-15T05:51:41Z</time></trkpt><trkpt lat="-26.942051584763444" lon="115.96605437260705"><ele>280.0</ele><time>2026-04-15T05:51:42Z</time></trkpt><trkpt lat="-26.94180273793692" lon="115.96602979043237"><ele>280.0</ele><time>2026-04-15T05:51:43Z</time></trkpt><trkpt lat="-26.94155461200604" lon="115.96600304287946"><ele>280.5</ele><time>2026-04-15T05:51:44Z</time></trkpt><trkpt lat="-26.941302534296796" lon="115.96597517249332"><ele>281.0</ele><time>2026-04-15T05:51:45Z</time></trkpt><trkpt lat="-26.941045935936835" lon="115.96594642149073"><ele>280.5</ele><time>2026-04-15T05:51:46Z</time></trkpt><trkpt lat="-26.94078319068794" lon="115.96591925829377"><ele>280.0</ele><time>2026-04-15T05:51:47Z</time></trkpt><trkpt lat="-26.940521403239746" lon="115.9658899557828"><ele>280.0</ele><time>2026-04-15T05:51:48Z</time></trkpt><trkpt lat="-26.940257410568503" lon="115.9658614698099"><ele>280.0</ele><time>2026-04-15T05:51:49Z</time></trkpt><trkpt lat="-26.93999564599351" lon="115.96583369663551"><ele>280.0</ele><time>2026-04-15T05:51:50Z</time></trkpt><trkpt lat="-26.939731447146414" lon="115.9658067450994"><ele>280.0</ele><time>2026-04-15T05:51:51Z</time></trkpt><trkpt lat="-26.939465680674864" lon="115.9657809088101"><ele>280.0</ele><time>2026-04-15T05:51:52Z</time></trkpt><trkpt lat="-26.939200822186674" lon="115.96575327404912"><ele>280.0</ele><time>2026-04-15T05:51:53Z</time></trkpt><trkpt lat="-26.93893463489554" lon="115.9657236219612"><ele>280.0</ele><time>2026-04-15T05:51:54Z</time></trkpt><trkpt lat="-26.938668611086484" lon="115.96569335996539"><ele>280.0</ele><time>2026-04-15T05:51:55Z</time></trkpt><trkpt lat="-26.93814518906742" lon="115.96563732186952"><ele>280.0</ele><time>2026-04-15T05:51:57Z</time></trkpt><trkpt lat="-26.937885040319674" lon="115.9656102091283"><ele>280.0</ele><time>2026-04-15T05:51:58Z</time></trkpt><trkpt lat="-26.937626935277393" lon="115.96558263950179"><ele>279.5</ele><time>2026-04-15T05:51:59Z</time></trkpt><trkpt lat="-26.93736694381364" lon="115.96556118974988"><ele>279.0</ele><time>2026-04-15T05:52:00Z</time></trkpt><trkpt lat="-26.93710532816532" lon="115.96553742925767"><ele>279.0</ele><time>2026-04-15T05:52:01Z</time></trkpt><trkpt lat="-26.936844720649894" lon="115.96551268410289"><ele>279.0</ele><time>2026-04-15T05:52:02Z</time></trkpt><trkpt lat="-26.936579778752087" lon="115.9654854384026"><ele>280.0</ele><time>2026-04-15T05:52:03Z</time></trkpt><trkpt lat="-26.936316353108047" lon="115.96545849228892"><ele>281.0</ele><time>2026-04-15T05:52:04Z</time></trkpt><trkpt lat="-26.936052588840187" lon="115.96543148906886"><ele>280.5</ele><time>2026-04-15T05:52:05Z</time></trkpt><trkpt lat="-26.93578778726661" lon="115.96540401186192"><ele>280.0</ele><time>2026-04-15T05:52:06Z</time></trkpt><trkpt lat="-26.93552194363129" lon="115.96537555639496"><ele>280.0</ele><time>2026-04-15T05:52:07Z</time></trkpt><trkpt lat="-26.93525435657303" lon="115.96534643035412"><ele>280.0</ele><time>2026-04-15T05:52:08Z</time></trkpt><trkpt lat="-26.93498788319446" lon="115.96531499521933"><ele>280.5</ele><time>2026-04-15T05:52:09Z</time></trkpt><trkpt lat="-26.934721849915636" lon="115.96528581108979"><ele>281.0</ele><time>2026-04-15T05:52:10Z</time></trkpt><trkpt lat="-26.934455230746384" lon="115.96525537376162"><ele>282.0</ele><time>2026-04-15T05:52:11Z</time></trkpt><trkpt lat="-26.934194065858645" lon="115.96522419190819"><ele>283.0</ele><time>2026-04-15T05:52:12Z</time></trkpt><trkpt lat="-26.933937133064394" lon="115.96519227860124"><ele>283.0</ele><time>2026-04-15T05:52:13Z</time></trkpt><trkpt lat="-26.93367894666658" lon="115.96516426903803"><ele>283.0</ele><time>2026-04-15T05:52:14Z</time></trkpt><trkpt lat="-26.933421420690077" lon="115.96513871780422"><ele>283.0</ele><time>2026-04-15T05:52:15Z</time></trkpt><trkpt lat="-26.93291091406444" lon="115.96508637053756"><ele>283.0</ele><time>2026-04-15T05:52:17Z</time></trkpt><trkpt lat="-26.93265572398978" lon="115.96506133772415"><ele>283.0</ele><time>2026-04-15T05:52:18Z</time></trkpt><trkpt lat="-26.93240083557646" lon="115.96503671722618"><ele>282.0</ele><time>2026-04-15T05:52:19Z</time></trkpt><trkpt lat="-26.932143902006842" lon="115.9650106170327"><ele>281.0</ele><time>2026-04-15T05:52:20Z</time></trkpt><trkpt lat="-26.931887634760354" lon="115.96498590997909"><ele>281.0</ele><time>2026-04-15T05:52:21Z</time></trkpt><trkpt lat="-26.931628229200488" lon="115.9649616831284"><ele>281.0</ele><time>2026-04-15T05:52:22Z</time></trkpt><trkpt lat="-26.93136810687445" lon="115.96493820055713"><ele>281.0</ele><time>2026-04-15T05:52:23Z</time></trkpt><trkpt lat="-26.931104254735803" lon="115.96491026263709"><ele>281.0</ele><time>2026-04-15T05:52:24Z</time></trkpt><trkpt lat="-26.930841787589472" lon="115.96488071916356"><ele>281.0</ele><time>2026-04-15T05:52:25Z</time></trkpt><trkpt lat="-26.930582933572772" lon="115.96485094065915"><ele>281.0</ele><time>2026-04-15T05:52:26Z</time></trkpt><trkpt lat="-26.930322094215278" lon="115.9648224887482"><ele>281.0</ele><time>2026-04-15T05:52:27Z</time></trkpt><trkpt lat="-26.929795905485523" lon="115.96476717136929"><ele>281.0</ele><time>2026-04-15T05:52:29Z</time></trkpt><trkpt lat="-26.929534074324717" lon="115.96473642138466"><ele>281.0</ele><time>2026-04-15T05:52:30Z</time></trkpt><trkpt lat="-26.92927215053318" lon="115.96470481979678"><ele>281.0</ele><time>2026-04-15T05:52:31Z</time></trkpt><trkpt lat="-26.929013258488013" lon="115.96467869381843"><ele>281.0</ele><time>2026-04-15T05:52:32Z</time></trkpt><trkpt lat="-26.928754518680805" lon="115.96465364247675"><ele>281.0</ele><time>2026-04-15T05:52:33Z</time></trkpt><trkpt lat="-26.92849660558137" lon="115.96462464332357"><ele>281.0</ele><time>2026-04-15T05:52:34Z</time></trkpt><trkpt lat="-26.92824001929369" lon="115.96458930627499"><ele>282.0</ele><time>2026-04-15T05:52:35Z</time></trkpt><trkpt lat="-26.927985937643562" lon="115.96454882398692"><ele>283.0</ele><time>2026-04-15T05:52:36Z</time></trkpt><trkpt lat="-26.92748109681098" lon="115.96445215403338"><ele>283.5</ele><time>2026-04-15T05:52:38Z</time></trkpt><trkpt lat="-26.927230737056114" lon="115.96440632296027"><ele>284.0</ele><time>2026-04-15T05:52:39Z</time></trkpt><trkpt lat="-26.926976590985685" lon="115.96435976298848"><ele>284.0</ele><time>2026-04-15T05:52:40Z</time></trkpt><trkpt lat="-26.92671808784751" lon="115.96430832596268"><ele>284.0</ele><time>2026-04-15T05:52:41Z</time></trkpt><trkpt lat="-26.926455643555098" lon="115.96425410822854"><ele>284.0</ele><time>2026-04-15T05:52:42Z</time></trkpt><trkpt lat="-26.92618929712175" lon="115.96420041112081"><ele>284.0</ele><time>2026-04-15T05:52:43Z</time></trkpt><trkpt lat="-26.925920252357088" lon="115.96414582528922"><ele>284.5</ele><time>2026-04-15T05:52:44Z</time></trkpt><trkpt lat="-26.92565510955562" lon="115.96409022377851"><ele>285.0</ele><time>2026-04-15T05:52:45Z</time></trkpt><trkpt lat="-26.92539321806344" lon="115.96403693879081"><ele>285.0</ele><time>2026-04-15T05:52:46Z</time></trkpt><trkpt lat="-26.925133310676795" lon="115.96398546060011"><ele>285.0</ele><time>2026-04-15T05:52:47Z</time></trkpt><trkpt lat="-26.92487324396854" lon="115.96393594248079"><ele>284.5</ele><time>2026-04-15T05:52:48Z</time></trkpt><trkpt lat="-26.924614580559215" lon="115.9638867399615"><ele>284.0</ele><time>2026-04-15T05:52:49Z</time></trkpt><trkpt lat="-26.92435561021117" lon="115.96383944335545"><ele>284.5</ele><time>2026-04-15T05:52:50Z</time></trkpt><trkpt lat="-26.92409419457942" lon="115.9637907931883"><ele>285.0</ele><time>2026-04-15T05:52:51Z</time></trkpt><trkpt lat="-26.923837276073463" lon="115.96373997292525"><ele>285.0</ele><time>2026-04-15T05:52:52Z</time></trkpt><trkpt lat="-26.923585248744793" lon="115.96369155800784"><ele>285.0</ele><time>2026-04-15T05:52:53Z</time></trkpt><trkpt lat="-26.92333432042343" lon="115.96364859339971"><ele>283.5</ele><time>2026-04-15T05:52:54Z</time></trkpt><trkpt lat="-26.923084500381606" lon="115.96361165864613"><ele>282.0</ele><time>2026-04-15T05:52:55Z</time></trkpt><trkpt lat="-26.922831132965793" lon="115.96357926567192"><ele>282.0</ele><time>2026-04-15T05:52:56Z</time></trkpt><trkpt lat="-26.922576824201272" lon="115.96355231616778"><ele>282.0</ele><time>2026-04-15T05:52:57Z</time></trkpt><trkpt lat="-26.922060739978406" lon="115.96350777732337"><ele>283.0</ele><time>2026-04-15T05:52:59Z</time></trkpt><trkpt lat="-26.921805613512106" lon="115.96348812162628"><ele>284.0</ele><time>2026-04-15T05:53:00Z</time></trkpt><trkpt lat="-26.921547887729286" lon="115.96346771965976"><ele>284.0</ele><time>2026-04-15T05:53:01Z</time></trkpt><trkpt lat="-26.921287302152116" lon="115.96344762927282"><ele>284.0</ele><time>2026-04-15T05:53:02Z</time></trkpt><trkpt lat="-26.921028043403965" lon="115.96342330853244"><ele>284.0</ele><time>2026-04-15T05:53:03Z</time></trkpt><trkpt lat="-26.92076693215042" lon="115.96339864043571"><ele>284.0</ele><time>2026-04-15T05:53:04Z</time></trkpt><trkpt lat="-26.920506041550905" lon="115.96337801527156"><ele>283.5</ele><time>2026-04-15T05:53:05Z</time></trkpt><trkpt lat="-26.92024348495636" lon="115.96336048612413"><ele>283.0</ele><time>2026-04-15T05:53:06Z</time></trkpt><trkpt lat="-26.91997542231973" lon="115.96334380533987"><ele>283.0</ele><time>2026-04-15T05:53:07Z</time></trkpt><trkpt lat="-26.91970427248972" lon="115.96332654679334"><ele>283.0</ele><time>2026-04-15T05:53:08Z</time></trkpt><trkpt lat="-26.91943246428935" lon="115.9633093361169"><ele>284.5</ele><time>2026-04-15T05:53:09Z</time></trkpt><trkpt lat="-26.91915761153906" lon="115.96328874503133"><ele>286.0</ele><time>2026-04-15T05:53:10Z</time></trkpt><trkpt lat="-26.918880479732305" lon="115.9632674729938"><ele>286.0</ele><time>2026-04-15T05:53:11Z</time></trkpt><trkpt lat="-26.91861144292202" lon="115.96324619311153"><ele>286.0</ele><time>2026-04-15T05:53:12Z</time></trkpt><trkpt lat="-26.918337560624256" lon="115.9632218786759"><ele>286.5</ele><time>2026-04-15T05:53:13Z</time></trkpt><trkpt lat="-26.918065646928174" lon="115.9632000266219"><ele>287.0</ele><time>2026-04-15T05:53:14Z</time></trkpt><trkpt lat="-26.917796839998033" lon="115.96317644235874"><ele>286.0</ele><time>2026-04-15T05:53:15Z</time></trkpt><trkpt lat="-26.917529607177016" lon="115.96315007635911"><ele>285.0</ele><time>2026-04-15T05:53:16Z</time></trkpt><trkpt lat="-26.917267850131516" lon="115.96312327403714"><ele>285.0</ele><time>2026-04-15T05:53:17Z</time></trkpt><trkpt lat="-26.917010694909862" lon="115.96308810473394"><ele>285.0</ele><time>2026-04-15T05:53:18Z</time></trkpt><trkpt lat="-26.916503102337572" lon="115.96298315093348"><ele>285.0</ele><time>2026-04-15T05:53:20Z</time></trkpt><trkpt lat="-26.91625044174039" lon="115.9629194492593"><ele>285.0</ele><time>2026-04-15T05:53:21Z</time></trkpt><trkpt lat="-26.915996156764354" lon="115.96284790757343"><ele>285.5</ele><time>2026-04-15T05:53:22Z</time></trkpt><trkpt lat="-26.91574300660024" lon="115.9627685293752"><ele>286.0</ele><time>2026-04-15T05:53:23Z</time></trkpt><trkpt lat="-26.915493618873356" lon="115.96268980522613"><ele>286.0</ele><time>2026-04-15T05:53:24Z</time></trkpt><trkpt lat="-26.91524652177594" lon="115.96261074643495"><ele>286.0</ele><time>2026-04-15T05:53:25Z</time></trkpt><trkpt lat="-26.915002529982516" lon="115.96253222705599"><ele>287.0</ele><time>2026-04-15T05:53:26Z</time></trkpt><trkpt lat="-26.914759556796852" lon="115.96245836397146"><ele>288.0</ele><time>2026-04-15T05:53:27Z</time></trkpt><trkpt lat="-26.914518045870746" lon="115.96238505068851"><ele>288.0</ele><time>2026-04-15T05:53:28Z</time></trkpt><trkpt lat="-26.91427277789697" lon="115.96231247343177"><ele>288.0</ele><time>2026-04-15T05:53:29Z</time></trkpt><trkpt lat="-26.914027298676498" lon="115.96223635099162"><ele>287.5</ele><time>2026-04-15T05:53:30Z</time></trkpt><trkpt lat="-26.91378245761307" lon="115.96215701851843"><ele>287.0</ele><time>2026-04-15T05:53:31Z</time></trkpt><trkpt lat="-26.913535027496664" lon="115.96207584816352"><ele>286.5</ele><time>2026-04-15T05:53:32Z</time></trkpt><trkpt lat="-26.913287995101264" lon="115.96199686951013"><ele>286.0</ele><time>2026-04-15T05:53:33Z</time></trkpt><trkpt lat="-26.91304194825002" lon="115.96191894211408"><ele>286.0</ele><time>2026-04-15T05:53:34Z</time></trkpt><trkpt lat="-26.91279491314046" lon="115.96183932294953"><ele>286.0</ele><time>2026-04-15T05:53:35Z</time></trkpt><trkpt lat="-26.912548434557504" lon="115.9617579540057"><ele>286.5</ele><time>2026-04-15T05:53:36Z</time></trkpt><trkpt lat="-26.912304018709424" lon="115.96167852638611"><ele>287.0</ele><time>2026-04-15T05:53:37Z</time></trkpt><trkpt lat="-26.91206318669762" lon="115.96159987838394"><ele>287.0</ele><time>2026-04-15T05:53:38Z</time></trkpt><trkpt lat="-26.91182252717788" lon="115.96152314374953"><ele>287.0</ele><time>2026-04-15T05:53:39Z</time></trkpt><trkpt lat="-26.91135185501665" lon="115.9613758355487"><ele>287.0</ele><time>2026-04-15T05:53:41Z</time></trkpt><trkpt lat="-26.91113897045255" lon="115.96130805760544"><ele>287.0</ele><time>2026-04-15T05:53:42Z</time></trkpt><trkpt lat="-26.910930443163085" lon="115.96124094892434"><ele>287.0</ele><time>2026-04-15T05:53:43Z</time></trkpt><trkpt lat="-26.910721344359043" lon="115.96117457388165"><ele>287.0</ele><time>2026-04-15T05:53:44Z</time></trkpt><trkpt lat="-26.910504995760395" lon="115.96110368533297"><ele>287.0</ele><time>2026-04-15T05:53:45Z</time></trkpt><trkpt lat="-26.910285847153403" lon="115.96103384898734"><ele>287.0</ele><time>2026-04-15T05:53:46Z</time></trkpt><trkpt lat="-26.910067649270136" lon="115.96096429543896"><ele>287.0</ele><time>2026-04-15T05:53:47Z</time></trkpt><trkpt lat="-26.90984772873017" lon="115.96089776327898"><ele>286.5</ele><time>2026-04-15T05:53:48Z</time></trkpt><trkpt lat="-26.909628687510253" lon="115.9608309044189"><ele>286.0</ele><time>2026-04-15T05:53:49Z</time></trkpt><trkpt lat="-26.90940943336347" lon="115.96076311236091"><ele>285.5</ele><time>2026-04-15T05:53:50Z</time></trkpt><trkpt lat="-26.909190180958618" lon="115.96069459020846"><ele>285.0</ele><time>2026-04-15T05:53:51Z</time></trkpt><trkpt lat="-26.908973118982793" lon="115.96062553831683"><ele>285.0</ele><time>2026-04-15T05:53:52Z</time></trkpt><trkpt lat="-26.908757475835706" lon="115.96055703748134"><ele>285.0</ele><time>2026-04-15T05:53:53Z</time></trkpt><trkpt lat="-26.908541511571396" lon="115.96049119241012"><ele>285.0</ele><time>2026-04-15T05:53:54Z</time></trkpt><trkpt lat="-26.908326538692997" lon="115.96042012484226"><ele>286.0</ele><time>2026-04-15T05:53:55Z</time></trkpt><trkpt lat="-26.9081082190127" lon="115.96034614840197"><ele>287.0</ele><time>2026-04-15T05:53:56Z</time></trkpt><trkpt lat="-26.90789200108053" lon="115.96027551423153"><ele>287.0</ele><time>2026-04-15T05:53:57Z</time></trkpt><trkpt lat="-26.90766368228582" lon="115.96020424675844"><ele>287.0</ele><time>2026-04-15T05:53:58Z</time></trkpt><trkpt lat="-26.907426220835806" lon="115.96013058957493"><ele>287.0</ele><time>2026-04-15T05:53:59Z</time></trkpt><trkpt lat="-26.907190896069544" lon="115.96005757231583"><ele>287.0</ele><time>2026-04-15T05:54:00Z</time></trkpt><trkpt lat="-26.906714727216972" lon="115.95991303313977"><ele>287.0</ele><time>2026-04-15T05:54:02Z</time></trkpt><trkpt lat="-26.906473642810315" lon="115.95983937382337"><ele>287.0</ele><time>2026-04-15T05:54:03Z</time></trkpt><trkpt lat="-26.90623279805375" lon="115.95976342544121"><ele>287.0</ele><time>2026-04-15T05:54:04Z</time></trkpt><trkpt lat="-26.905993486484242" lon="115.95969055416872"><ele>287.0</ele><time>2026-04-15T05:54:05Z</time></trkpt><trkpt lat="-26.905748228393144" lon="115.95961470442165"><ele>288.0</ele><time>2026-04-15T05:54:06Z</time></trkpt><trkpt lat="-26.905512169030384" lon="115.95953963944935"><ele>289.0</ele><time>2026-04-15T05:54:07Z</time></trkpt><trkpt lat="-26.905274506667798" lon="115.95946321148139"><ele>290.0</ele><time>2026-04-15T05:54:08Z</time></trkpt><trkpt lat="-26.905037102532663" lon="115.95938680703641"><ele>291.0</ele><time>2026-04-15T05:54:09Z</time></trkpt><trkpt lat="-26.90479647083618" lon="115.95930926162579"><ele>291.0</ele><time>2026-04-15T05:54:10Z</time></trkpt><trkpt lat="-26.904553523706163" lon="115.95923398246643"><ele>291.0</ele><time>2026-04-15T05:54:11Z</time></trkpt><trkpt lat="-26.904310256714037" lon="115.95915701561935"><ele>290.5</ele><time>2026-04-15T05:54:12Z</time></trkpt><trkpt lat="-26.904065632330294" lon="115.95908232335519"><ele>290.0</ele><time>2026-04-15T05:54:13Z</time></trkpt><trkpt lat="-26.903823081992133" lon="115.959007662322"><ele>290.0</ele><time>2026-04-15T05:54:14Z</time></trkpt><trkpt lat="-26.903585025127278" lon="115.95893506000857"><ele>290.0</ele><time>2026-04-15T05:54:15Z</time></trkpt><trkpt lat="-26.903346729669046" lon="115.95886149951228"><ele>289.5</ele><time>2026-04-15T05:54:16Z</time></trkpt><trkpt lat="-26.903116758806284" lon="115.9587885394258"><ele>289.0</ele><time>2026-04-15T05:54:17Z</time></trkpt><trkpt lat="-26.90289328503161" lon="115.95871946983499"><ele>289.0</ele><time>2026-04-15T05:54:18Z</time></trkpt><trkpt lat="-26.90267931080116" lon="115.95865285695832"><ele>289.0</ele><time>2026-04-15T05:54:19Z</time></trkpt><trkpt lat="-26.902472824146948" lon="115.95858634263718"><ele>289.0</ele><time>2026-04-15T05:54:20Z</time></trkpt><trkpt lat="-26.902271589932823" lon="115.95852094151222"><ele>289.0</ele><time>2026-04-15T05:54:21Z</time></trkpt><trkpt lat="-26.90185628846549" lon="115.9583885143866"><ele>289.0</ele><time>2026-04-15T05:54:23Z</time></trkpt><trkpt lat="-26.90164400336776" lon="115.95832083257567"><ele>289.5</ele><time>2026-04-15T05:54:24Z</time></trkpt><trkpt lat="-26.901427923394834" lon="115.95825100239185"><ele>290.0</ele><time>2026-04-15T05:54:25Z</time></trkpt><trkpt lat="-26.901207956765475" lon="115.95817980933971"><ele>290.0</ele><time>2026-04-15T05:54:26Z</time></trkpt><trkpt lat="-26.900987085132584" lon="115.95810954868318"><ele>290.0</ele><time>2026-04-15T05:54:27Z</time></trkpt><trkpt lat="-26.900764304824644" lon="115.95803976500393"><ele>290.0</ele><time>2026-04-15T05:54:28Z</time></trkpt><trkpt lat="-26.900540238632072" lon="115.95796780401078"><ele>290.0</ele><time>2026-04-15T05:54:29Z</time></trkpt><trkpt lat="-26.900313246045197" lon="115.95789379634897"><ele>291.0</ele><time>2026-04-15T05:54:30Z</time></trkpt><trkpt lat="-26.90008199791369" lon="115.9578249189919"><ele>292.0</ele><time>2026-04-15T05:54:31Z</time></trkpt><trkpt lat="-26.899852620958082" lon="115.95775461151949"><ele>292.0</ele><time>2026-04-15T05:54:32Z</time></trkpt><trkpt lat="-26.899622891871534" lon="115.95767947481846"><ele>292.0</ele><time>2026-04-15T05:54:33Z</time></trkpt><trkpt lat="-26.899395205927185" lon="115.95760577292299"><ele>291.5</ele><time>2026-04-15T05:54:34Z</time></trkpt><trkpt lat="-26.899165755486415" lon="115.9575362849561"><ele>291.0</ele><time>2026-04-15T05:54:35Z</time></trkpt><trkpt lat="-26.89893707722029" lon="115.95746333784697"><ele>291.0</ele><time>2026-04-15T05:54:36Z</time></trkpt><trkpt lat="-26.898711157849714" lon="115.9573906942986"><ele>291.0</ele><time>2026-04-15T05:54:37Z</time></trkpt><trkpt lat="-26.898488043313588" lon="115.95731878531429"><ele>290.5</ele><time>2026-04-15T05:54:38Z</time></trkpt><trkpt lat="-26.898265735900715" lon="115.9572448049357"><ele>290.0</ele><time>2026-04-15T05:54:39Z</time></trkpt><trkpt lat="-26.898045820135515" lon="115.95717491090527"><ele>290.0</ele><time>2026-04-15T05:54:40Z</time></trkpt><trkpt lat="-26.89782413407889" lon="115.95710799590584"><ele>290.0</ele><time>2026-04-15T05:54:41Z</time></trkpt><trkpt lat="-26.89759840236245" lon="115.95703845082753"><ele>290.0</ele><time>2026-04-15T05:54:42Z</time></trkpt><trkpt lat="-26.897153192023772" lon="115.9569034786759"><ele>290.0</ele><time>2026-04-15T05:54:44Z</time></trkpt><trkpt lat="-26.89693893771046" lon="115.95683894574644"><ele>290.0</ele><time>2026-04-15T05:54:45Z</time></trkpt><trkpt lat="-26.89673314502376" lon="115.95677500547043"><ele>290.0</ele><time>2026-04-15T05:54:46Z</time></trkpt><trkpt lat="-26.89654085400125" lon="115.95671181787273"><ele>290.6666666666667</ele><time>2026-04-15T05:54:47Z</time></trkpt><trkpt lat="-26.896364778856277" lon="115.9566567692907"><ele>291.3333333333333</ele><time>2026-04-15T05:54:48Z</time></trkpt><trkpt lat="-26.896195234600658" lon="115.95660360614401"><ele>292.0</ele><time>2026-04-15T05:54:49Z</time></trkpt><trkpt lat="-26.89603720473864" lon="115.95655316002437"><ele>292.0</ele><time>2026-04-15T05:54:50Z</time></trkpt><trkpt lat="-26.895897186369716" lon="115.95650220481667"><ele>292.0</ele><time>2026-04-15T05:54:51Z</time></trkpt><trkpt lat="-26.895780616861135" lon="115.95646133642644"><ele>292.0</ele><time>2026-04-15T05:54:52Z</time></trkpt><trkpt lat="-26.895693760269726" lon="115.95642686513828"><ele>292.0</ele><time>2026-04-15T05:54:53Z</time></trkpt><trkpt lat="-26.895625818654764" lon="115.95640913641586"><ele>292.0</ele><time>2026-04-15T05:54:54Z</time></trkpt><trkpt lat="-26.895562660654164" lon="115.95643721298393"><ele>292.0</ele><time>2026-04-15T05:54:56Z</time></trkpt><trkpt lat="-26.895534241599087" lon="115.95650163318834"><ele>292.0</ele><time>2026-04-15T05:54:58Z</time></trkpt><trkpt lat="-26.895522756766237" lon="115.95658957445953"><ele>292.0</ele><time>2026-04-15T05:55:00Z</time></trkpt><trkpt lat="-26.895507216006532" lon="115.9566760876183"><ele>292.0</ele><time>2026-04-15T05:55:02Z</time></trkpt><trkpt lat="-26.895473051538303" lon="115.95674415109207"><ele>292.0</ele><time>2026-04-15T05:55:04Z</time></trkpt><trkpt lat="-26.89546283511972" lon="115.95688557621578"><ele>292.0</ele><time>2026-04-15T05:55:08Z</time></trkpt><trkpt lat="-26.895501910356494" lon="115.95694374729764"><ele>291.8333333333333</ele><time>2026-04-15T05:55:10Z</time></trkpt><trkpt lat="-26.895553111080215" lon="115.95702392391117"><ele>291.66666666666663</ele><time>2026-04-15T05:55:13Z</time></trkpt><trkpt lat="-26.89559180775718" lon="115.9570915185907"><ele>291.5</ele><time>2026-04-15T05:55:16Z</time></trkpt><trkpt lat="-26.895649485661956" lon="115.95713018160528"><ele>291.3333333333333</ele><time>2026-04-15T05:55:19Z</time></trkpt><trkpt lat="-26.895732692134082" lon="115.95715252028506"><ele>291.1666666666667</ele><time>2026-04-15T05:55:22Z</time></trkpt><trkpt lat="-26.895808979231017" lon="115.95716627563547"><ele>291.0</ele><time>2026-04-15T05:55:25Z</time></trkpt><trkpt lat="-26.89572550370375" lon="115.95707374752095"><ele>291.0</ele><time>2026-04-15T05:55:33Z</time></trkpt><trkpt lat="-26.895634033090612" lon="115.95705917530137"><ele>291.0</ele><time>2026-04-15T05:55:35Z</time></trkpt><trkpt lat="-26.895558016007804" lon="115.95704810361008"><ele>291.0</ele><time>2026-04-15T05:55:37Z</time></trkpt><trkpt lat="-26.895497124869138" lon="115.95707019857787"><ele>291.0</ele><time>2026-04-15T05:55:40Z</time></trkpt><trkpt lat="-26.895565628470482" lon="115.95705614784488"><ele>291.0</ele><time>2026-04-15T05:57:58Z</time></trkpt><trkpt lat="-26.89555863016991" lon="115.95697445153172"><ele>291.0</ele><time>2026-04-15T05:58:01Z</time></trkpt></trkseg><trkseg><trkpt lat="-26.8956510835132" lon="115.95722086566168"><ele>291.0</ele><time>2026-04-15T06:26:58.163Z</time></trkpt><trkpt lat="-26.895588797398837" lon="115.95719037813879"><ele>291.0</ele><time>2026-04-15T06:27:24.007Z</time></trkpt><trkpt lat="-26.895622408555635" lon="115.95711718859769"><ele>291.0</ele><time>2026-04-15T06:28:13.702Z</time></trkpt><trkpt lat="-26.895685671824637" lon="115.9570782602767"><ele>291.0</ele><time>2026-04-15T06:28:18.007Z</time></trkpt><trkpt lat="-26.895757760243615" lon="115.95707368663341"><ele>291.0</ele><time>2026-04-15T06:28:23.005Z</time></trkpt><trkpt lat="-26.89568729902848" lon="115.95707337624816"><ele>291.0</ele><time>2026-04-15T06:31:09.999Z</time></trkpt><trkpt lat="-26.89562402065101" lon="115.95708463191704"><ele>291.0</ele><time>2026-04-15T06:31:14.999Z</time></trkpt><trkpt lat="-26.895694104530065" lon="115.95708173459404"><ele>291.0</ele><time>2026-04-15T06:36:05.999Z</time></trkpt><trkpt lat="-26.895765942353687" lon="115.95705427692413"><ele>291.0</ele><time>2026-04-15T06:36:18.999Z</time></trkpt><trkpt lat="-26.895673073850325" lon="115.957019341169"><ele>291.0</ele><time>2026-04-15T06:37:57.999Z</time></trkpt><trkpt lat="-26.895562104449542" lon="115.95697362759189"><ele>291.0</ele><time>2026-04-15T06:37:59.999Z</time></trkpt><trkpt lat="-26.895469826787714" lon="115.95687480199436"><ele>291.0</ele><time>2026-04-15T06:38:01.999Z</time></trkpt><trkpt lat="-26.895406821876932" lon="115.95675285885667"><ele>291.0</ele><time>2026-04-15T06:38:03.999Z</time></trkpt><trkpt lat="-26.895357443037778" lon="115.9566916699365"><ele>291.0</ele><time>2026-04-15T06:38:04.999Z</time></trkpt><trkpt lat="-26.89528881360163" lon="115.95664268909405"><ele>291.0</ele><time>2026-04-15T06:38:05.999Z</time></trkpt><trkpt lat="-26.895187975104033" lon="115.95664520696644"><ele>291.0</ele><time>2026-04-15T06:38:06.999Z</time></trkpt><trkpt lat="-26.89508088655131" lon="115.95661249502852"><ele>291.0</ele><time>2026-04-15T06:38:07.999Z</time></trkpt><trkpt lat="-26.8949556617597" lon="115.95657424308283"><ele>291.0</ele><time>2026-04-15T06:38:08.999Z</time></trkpt><trkpt lat="-26.894808183951795" lon="115.9565281952919"><ele>291.0</ele><time>2026-04-15T06:38:09.999Z</time></trkpt><trkpt lat="-26.8946596207748" lon="115.95648162090023"><ele>291.0</ele><time>2026-04-15T06:38:10.999Z</time></trkpt><trkpt lat="-26.894505570462307" lon="115.95643307774749"><ele>291.0</ele><time>2026-04-15T06:38:11.999Z</time></trkpt><trkpt lat="-26.894346385758293" lon="115.95638377755971"><ele>291.0</ele><time>2026-04-15T06:38:12.999Z</time></trkpt><trkpt lat="-26.894181064357277" lon="115.95633284406377"><ele>291.0</ele><time>2026-04-15T06:38:13.999Z</time></trkpt><trkpt lat="-26.894019334058143" lon="115.95628405296021"><ele>291.75</ele><time>2026-04-15T06:38:14.999Z</time></trkpt><trkpt lat="-26.893872672152703" lon="115.9562220747989"><ele>292.5</ele><time>2026-04-15T06:38:15.999Z</time></trkpt><trkpt lat="-26.89373568263634" lon="115.95618277262447"><ele>293.25</ele><time>2026-04-15T06:38:16.999Z</time></trkpt><trkpt lat="-26.893609209628263" lon="115.95614758488045"><ele>294.0</ele><time>2026-04-15T06:38:17.999Z</time></trkpt><trkpt lat="-26.893495530083204" lon="115.95609898381635"><ele>294.1666666666667</ele><time>2026-04-15T06:38:18.999Z</time></trkpt><trkpt lat="-26.893408792964557" lon="115.95603575265757"><ele>294.3333333333333</ele><time>2026-04-15T06:38:19.999Z</time></trkpt><trkpt lat="-26.89333883636268" lon="115.95596734743262"><ele>294.5</ele><time>2026-04-15T06:38:21.999Z</time></trkpt><trkpt lat="-26.893351790687877" lon="115.95586015357134"><ele>294.66666666666663</ele><time>2026-04-15T06:38:23.999Z</time></trkpt><trkpt lat="-26.893356155747032" lon="115.95576900547121"><ele>294.8333333333333</ele><time>2026-04-15T06:38:25.999Z</time></trkpt><trkpt lat="-26.893359122165755" lon="115.95568860305325"><ele>295.0</ele><time>2026-04-15T06:38:27.999Z</time></trkpt><trkpt lat="-26.893228850506997" lon="115.95564974097404"><ele>295.0</ele><time>2026-04-15T06:38:28.999Z</time></trkpt><trkpt lat="-26.893149937268053" lon="115.95562487932135"><ele>295.0</ele><time>2026-04-15T06:38:29.999Z</time></trkpt><trkpt lat="-26.89306543094483" lon="115.955595092974"><ele>295.0</ele><time>2026-04-15T06:38:30.999Z</time></trkpt><trkpt lat="-26.89298187092957" lon="115.95556789375476"><ele>295.0</ele><time>2026-04-15T06:38:31.999Z</time></trkpt><trkpt lat="-26.89288740117679" lon="115.95553701670192"><ele>295.0</ele><time>2026-04-15T06:38:32.999Z</time></trkpt><trkpt lat="-26.892791168181738" lon="115.95550830598118"><ele>295.0</ele><time>2026-04-15T06:38:33.999Z</time></trkpt><trkpt lat="-26.892690723470032" lon="115.95548146803242"><ele>295.0</ele><time>2026-04-15T06:38:34.999Z</time></trkpt><trkpt lat="-26.8925899740877" lon="115.95545443319959"><ele>295.0</ele><time>2026-04-15T06:38:35.999Z</time></trkpt><trkpt lat="-26.89248591761875" lon="115.9554291129587"><ele>295.0</ele><time>2026-04-15T06:38:36.999Z</time></trkpt><trkpt lat="-26.892379791810566" lon="115.95540083146027"><ele>295.0</ele><time>2026-04-15T06:38:37.999Z</time></trkpt><trkpt lat="-26.892270322185663" lon="115.95536957247671"><ele>294.75</ele><time>2026-04-15T06:38:38.999Z</time></trkpt><trkpt lat="-26.892161770567117" lon="115.9553373556857"><ele>294.5</ele><time>2026-04-15T06:38:39.999Z</time></trkpt><trkpt lat="-26.892050571448678" lon="115.95530591871271"><ele>294.25</ele><time>2026-04-15T06:38:40.999Z</time></trkpt><trkpt lat="-26.891938853869306" lon="115.95527492931528"><ele>294.0</ele><time>2026-04-15T06:38:41.999Z</time></trkpt><trkpt lat="-26.89182664741773" lon="115.95524441876006"><ele>294.25</ele><time>2026-04-15T06:38:42.999Z</time></trkpt><trkpt lat="-26.8917142120562" lon="115.9552148928922"><ele>294.5</ele><time>2026-04-15T06:38:43.999Z</time></trkpt><trkpt lat="-26.891601903065517" lon="115.95518743598005"><ele>294.75</ele><time>2026-04-15T06:38:44.999Z</time></trkpt><trkpt lat="-26.89148954657233" lon="115.95516199153873"><ele>295.0</ele><time>2026-04-15T06:38:45.999Z</time></trkpt><trkpt lat="-26.89137670775473" lon="115.95512992044458"><ele>295.0</ele><time>2026-04-15T06:38:46.999Z</time></trkpt><trkpt lat="-26.89126541612222" lon="115.95509754436938"><ele>295.0</ele><time>2026-04-15T06:38:47.999Z</time></trkpt><trkpt lat="-26.891153076089815" lon="115.95506750519944"><ele>295.0</ele><time>2026-04-15T06:38:48.999Z</time></trkpt><trkpt lat="-26.891042411979544" lon="115.95503717011457"><ele>295.0</ele><time>2026-04-15T06:38:49.999Z</time></trkpt><trkpt lat="-26.890932239215676" lon="115.95499448070015"><ele>294.75</ele><time>2026-04-15T06:38:50.999Z</time></trkpt><trkpt lat="-26.89082109651426" lon="115.9549600454209"><ele>294.5</ele><time>2026-04-15T06:38:51.999Z</time></trkpt><trkpt lat="-26.89070927142538" lon="115.95492846704424"><ele>294.25</ele><time>2026-04-15T06:38:52.999Z</time></trkpt><trkpt lat="-26.890589105304993" lon="115.95490149620305"><ele>294.0</ele><time>2026-04-15T06:38:53.999Z</time></trkpt><trkpt lat="-26.890470702612514" lon="115.95487765553503"><ele>294.0</ele><time>2026-04-15T06:38:54.999Z</time></trkpt><trkpt lat="-26.89034968068692" lon="115.9548502918248"><ele>294.0</ele><time>2026-04-15T06:38:55.999Z</time></trkpt><trkpt lat="-26.89023002399172" lon="115.95481737753826"><ele>294.0</ele><time>2026-04-15T06:38:56.999Z</time></trkpt><trkpt lat="-26.890112275762284" lon="115.9547903307247"><ele>294.0</ele><time>2026-04-15T06:38:57.999Z</time></trkpt><trkpt lat="-26.88999602408144" lon="115.95474930731994"><ele>294.0</ele><time>2026-04-15T06:38:58.999Z</time></trkpt><trkpt lat="-26.889873241923745" lon="115.95472855070884"><ele>294.0</ele><time>2026-04-15T06:38:59.999Z</time></trkpt><trkpt lat="-26.889746227116206" lon="115.95472877552801"><ele>294.0</ele><time>2026-04-15T06:39:00.999Z</time></trkpt><trkpt lat="-26.88961766047981" lon="115.95470701746575"><ele>294.0</ele><time>2026-04-15T06:39:01.999Z</time></trkpt><trkpt lat="-26.889482424863996" lon="115.95469832903974"><ele>294.0</ele><time>2026-04-15T06:39:02.999Z</time></trkpt><trkpt lat="-26.889342487512845" lon="115.95467853203903"><ele>294.0</ele><time>2026-04-15T06:39:03.999Z</time></trkpt><trkpt lat="-26.889198707084628" lon="115.95466619710909"><ele>294.0</ele><time>2026-04-15T06:39:04.999Z</time></trkpt><trkpt lat="-26.88904548999302" lon="115.95464450582982"><ele>294.0</ele><time>2026-04-15T06:39:05.999Z</time></trkpt><trkpt lat="-26.888723979398137" lon="115.95460662808242"><ele>293.6666666666667</ele><time>2026-04-15T06:39:07.999Z</time></trkpt><trkpt lat="-26.888553526427472" lon="115.95459289398673"><ele>293.33333333333337</ele><time>2026-04-15T06:39:08.999Z</time></trkpt><trkpt lat="-26.88837995889636" lon="115.95457051897425"><ele>293.0</ele><time>2026-04-15T06:39:09.999Z</time></trkpt><trkpt lat="-26.888199593061966" lon="115.95453970712117"><ele>293.0</ele><time>2026-04-15T06:39:10.999Z</time></trkpt><trkpt lat="-26.888018498833713" lon="115.95451145577192"><ele>293.0</ele><time>2026-04-15T06:39:11.999Z</time></trkpt><trkpt lat="-26.887833037600807" lon="115.95448169948313"><ele>293.0</ele><time>2026-04-15T06:39:12.999Z</time></trkpt><trkpt lat="-26.887633967319648" lon="115.95444356878511"><ele>293.0</ele><time>2026-04-15T06:39:13.999Z</time></trkpt><trkpt lat="-26.887420754033464" lon="115.95439237323204"><ele>293.0</ele><time>2026-04-15T06:39:14.999Z</time></trkpt><trkpt lat="-26.887196522101032" lon="115.95432827177873"><ele>293.0</ele><time>2026-04-15T06:39:15.999Z</time></trkpt><trkpt lat="-26.886978564808402" lon="115.95426378820565"><ele>294.0</ele><time>2026-04-15T06:39:16.999Z</time></trkpt><trkpt lat="-26.886759256066807" lon="115.95419868286649"><ele>295.0</ele><time>2026-04-15T06:39:17.999Z</time></trkpt><trkpt lat="-26.88653414897852" lon="115.95413169650047"><ele>295.0</ele><time>2026-04-15T06:39:18.999Z</time></trkpt><trkpt lat="-26.88629595432659" lon="115.95405792575127"><ele>295.0</ele><time>2026-04-15T06:39:19.999Z</time></trkpt><trkpt lat="-26.88605508028915" lon="115.95398343725911"><ele>294.0</ele><time>2026-04-15T06:39:20.999Z</time></trkpt><trkpt lat="-26.885816464516395" lon="115.95391101933846"><ele>293.0</ele><time>2026-04-15T06:39:21.999Z</time></trkpt><trkpt lat="-26.88557227355167" lon="115.95383844272571"><ele>293.0</ele><time>2026-04-15T06:39:22.999Z</time></trkpt><trkpt lat="-26.885319114567437" lon="115.9537626790843"><ele>293.0</ele><time>2026-04-15T06:39:23.999Z</time></trkpt><trkpt lat="-26.885062263936458" lon="115.95368527427316"><ele>293.5</ele><time>2026-04-15T06:39:24.999Z</time></trkpt><trkpt lat="-26.8848035040769" lon="115.95360603379075"><ele>294.0</ele><time>2026-04-15T06:39:25.999Z</time></trkpt><trkpt lat="-26.884541154873954" lon="115.95352521239946"><ele>294.0</ele><time>2026-04-15T06:39:26.999Z</time></trkpt><trkpt lat="-26.884277460300442" lon="115.95344766214897"><ele>294.0</ele><time>2026-04-15T06:39:27.999Z</time></trkpt><trkpt lat="-26.884008862532763" lon="115.95336732434458"><ele>294.0</ele><time>2026-04-15T06:39:28.999Z</time></trkpt><trkpt lat="-26.883740155853218" lon="115.9532834669873"><ele>294.0</ele><time>2026-04-15T06:39:29.999Z</time></trkpt><trkpt lat="-26.883477533053707" lon="115.9532029815311"><ele>293.5</ele><time>2026-04-15T06:39:30.999Z</time></trkpt><trkpt lat="-26.883227527309277" lon="115.95312811618791"><ele>293.0</ele><time>2026-04-15T06:39:31.999Z</time></trkpt><trkpt lat="-26.88297776470679" lon="115.95305170423907"><ele>293.0</ele><time>2026-04-15T06:39:32.999Z</time></trkpt><trkpt lat="-26.882729429337427" lon="115.95297534365044"><ele>293.0</ele><time>2026-04-15T06:39:33.999Z</time></trkpt><trkpt lat="-26.88247872610968" lon="115.95289905007368"><ele>294.5</ele><time>2026-04-15T06:39:34.999Z</time></trkpt><trkpt lat="-26.88223031089129" lon="115.95282219524515"><ele>296.0</ele><time>2026-04-15T06:39:35.999Z</time></trkpt><trkpt lat="-26.881981093126818" lon="115.95274628541675"><ele>296.5</ele><time>2026-04-15T06:39:36.999Z</time></trkpt><trkpt lat="-26.881731403466002" lon="115.95267177767515"><ele>297.0</ele><time>2026-04-15T06:39:37.999Z</time></trkpt><trkpt lat="-26.88148135876245" lon="115.95259765876158"><ele>296.0</ele><time>2026-04-15T06:39:38.999Z</time></trkpt><trkpt lat="-26.881230922105406" lon="115.95252122970714"><ele>295.0</ele><time>2026-04-15T06:39:39.999Z</time></trkpt><trkpt lat="-26.880980058583926" lon="115.95244459777513"><ele>295.5</ele><time>2026-04-15T06:39:40.999Z</time></trkpt><trkpt lat="-26.880729066777608" lon="115.95236879702676"><ele>296.0</ele><time>2026-04-15T06:39:41.999Z</time></trkpt><trkpt lat="-26.880478055188856" lon="115.95229129614424"><ele>296.0</ele><time>2026-04-15T06:39:42.999Z</time></trkpt><trkpt lat="-26.88022670718896" lon="115.95221488139299"><ele>296.0</ele><time>2026-04-15T06:39:43.999Z</time></trkpt><trkpt lat="-26.879970168505363" lon="115.95213950782924"><ele>297.5</ele><time>2026-04-15T06:39:44.999Z</time></trkpt><trkpt lat="-26.879713165870548" lon="115.95206485703127"><ele>299.0</ele><time>2026-04-15T06:39:45.999Z</time></trkpt><trkpt lat="-26.879452984303946" lon="115.95198991594114"><ele>297.5</ele><time>2026-04-15T06:39:46.999Z</time></trkpt><trkpt lat="-26.87918881906604" lon="115.9519147288092"><ele>296.0</ele><time>2026-04-15T06:39:47.999Z</time></trkpt><trkpt lat="-26.87892190506555" lon="115.95184241159573"><ele>296.0</ele><time>2026-04-15T06:39:48.999Z</time></trkpt><trkpt lat="-26.878653592723897" lon="115.95177510434434"><ele>296.0</ele><time>2026-04-15T06:39:49.999Z</time></trkpt><trkpt lat="-26.878380720107817" lon="115.95171202639948"><ele>298.0</ele><time>2026-04-15T06:39:50.999Z</time></trkpt><trkpt lat="-26.87810422837135" lon="115.9516600468119"><ele>300.0</ele><time>2026-04-15T06:39:51.999Z</time></trkpt><trkpt lat="-26.877821772766776" lon="115.95162083478021"><ele>299.5</ele><time>2026-04-15T06:39:52.999Z</time></trkpt><trkpt lat="-26.87753378336775" lon="115.95159212271177"><ele>299.0</ele><time>2026-04-15T06:39:53.999Z</time></trkpt><trkpt lat="-26.877244716740144" lon="115.9515733373939"><ele>299.0</ele><time>2026-04-15T06:39:54.999Z</time></trkpt><trkpt lat="-26.87695421546714" lon="115.95156366125123"><ele>299.0</ele><time>2026-04-15T06:39:55.999Z</time></trkpt><trkpt lat="-26.876660304804638" lon="115.95155965557949"><ele>299.0</ele><time>2026-04-15T06:39:56.999Z</time></trkpt><trkpt lat="-26.87636436438415" lon="115.95155979166316"><ele>299.0</ele><time>2026-04-15T06:39:57.999Z</time></trkpt><trkpt lat="-26.876067697657543" lon="115.95156271794558"><ele>298.5</ele><time>2026-04-15T06:39:58.999Z</time></trkpt><trkpt lat="-26.87577611496937" lon="115.95156594704788"><ele>298.0</ele><time>2026-04-15T06:39:59.999Z</time></trkpt><trkpt lat="-26.87548745587512" lon="115.95156566292155"><ele>298.0</ele><time>2026-04-15T06:40:00.999Z</time></trkpt><trkpt lat="-26.875192138708325" lon="115.95155889673143"><ele>298.0</ele><time>2026-04-15T06:40:01.999Z</time></trkpt><trkpt lat="-26.874895230690807" lon="115.95154292555439"><ele>298.5</ele><time>2026-04-15T06:40:02.999Z</time></trkpt><trkpt lat="-26.87459487429123" lon="115.95151671337042"><ele>299.0</ele><time>2026-04-15T06:40:03.999Z</time></trkpt><trkpt lat="-26.87429600080498" lon="115.95147689268089"><ele>299.0</ele><time>2026-04-15T06:40:04.999Z</time></trkpt><trkpt lat="-26.873998472538897" lon="115.95142070457828"><ele>299.0</ele><time>2026-04-15T06:40:05.999Z</time></trkpt><trkpt lat="-26.87370343830125" lon="115.9513510561107"><ele>299.5</ele><time>2026-04-15T06:40:06.999Z</time></trkpt><trkpt lat="-26.873411220466647" lon="115.95126974368462"><ele>300.0</ele><time>2026-04-15T06:40:07.999Z</time></trkpt><trkpt lat="-26.87311912926925" lon="115.95117984647837"><ele>300.0</ele><time>2026-04-15T06:40:08.999Z</time></trkpt><trkpt lat="-26.872828913606256" lon="115.95107871000177"><ele>300.0</ele><time>2026-04-15T06:40:09.999Z</time></trkpt><trkpt lat="-26.87254433543995" lon="115.95096989019574"><ele>300.0</ele><time>2026-04-15T06:40:10.999Z</time></trkpt><trkpt lat="-26.87226408954187" lon="115.95085255552512"><ele>300.0</ele><time>2026-04-15T06:40:11.999Z</time></trkpt><trkpt lat="-26.871989986618534" lon="115.95072278654509"><ele>300.0</ele><time>2026-04-15T06:40:12.999Z</time></trkpt><trkpt lat="-26.871721785602777" lon="115.950577014676"><ele>300.0</ele><time>2026-04-15T06:40:13.999Z</time></trkpt><trkpt lat="-26.871458359060988" lon="115.95041869440256"><ele>300.0</ele><time>2026-04-15T06:40:14.999Z</time></trkpt><trkpt lat="-26.8712087553158" lon="115.95025849932495"><ele>300.0</ele><time>2026-04-15T06:40:15.999Z</time></trkpt><trkpt lat="-26.87098988318022" lon="115.95011400676772"><ele>300.6666666666667</ele><time>2026-04-15T06:40:16.999Z</time></trkpt><trkpt lat="-26.870803111734023" lon="115.94998566144795"><ele>301.33333333333337</ele><time>2026-04-15T06:40:17.999Z</time></trkpt><trkpt lat="-26.870627955301273" lon="115.94986643560016"><ele>302.0</ele><time>2026-04-15T06:40:19Z</time></trkpt><trkpt lat="-26.870455980677175" lon="115.94975462668259"><ele>302.0</ele><time>2026-04-15T06:40:20Z</time></trkpt><trkpt lat="-26.870274899896952" lon="115.94964009079045"><ele>302.0</ele><time>2026-04-15T06:40:21Z</time></trkpt><trkpt lat="-26.870096262242374" lon="115.94951895196499"><ele>302.0</ele><time>2026-04-15T06:40:22Z</time></trkpt><trkpt lat="-26.86990960074789" lon="115.94938644233692"><ele>302.0</ele><time>2026-04-15T06:40:23Z</time></trkpt><trkpt lat="-26.869716123581426" lon="115.94924808400208"><ele>302.0</ele><time>2026-04-15T06:40:24Z</time></trkpt><trkpt lat="-26.8695151643425" lon="115.94910644361968"><ele>302.5</ele><time>2026-04-15T06:40:25Z</time></trkpt><trkpt lat="-26.86930331344857" lon="115.94896376084922"><ele>303.0</ele><time>2026-04-15T06:40:26Z</time></trkpt><trkpt lat="-26.869080553114305" lon="115.94882157436862"><ele>303.0</ele><time>2026-04-15T06:40:27Z</time></trkpt><trkpt lat="-26.868847829613284" lon="115.94868056803733"><ele>303.0</ele><time>2026-04-15T06:40:28Z</time></trkpt><trkpt lat="-26.86860642066452" lon="115.9485466856425"><ele>303.0</ele><time>2026-04-15T06:40:29Z</time></trkpt><trkpt lat="-26.86835855184186" lon="115.94842133127828"><ele>303.0</ele><time>2026-04-15T06:40:30Z</time></trkpt><trkpt lat="-26.868099741300227" lon="115.94830026199143"><ele>302.5</ele><time>2026-04-15T06:40:31Z</time></trkpt><trkpt lat="-26.86783256468467" lon="115.94818771997765"><ele>302.0</ele><time>2026-04-15T06:40:32Z</time></trkpt><trkpt lat="-26.867556983344738" lon="115.94808130109816"><ele>302.0</ele><time>2026-04-15T06:40:33Z</time></trkpt><trkpt lat="-26.86727462549441" lon="115.94798569708765"><ele>302.0</ele><time>2026-04-15T06:40:34Z</time></trkpt><trkpt lat="-26.866988823218847" lon="115.9479021136833"><ele>303.0</ele><time>2026-04-15T06:40:35Z</time></trkpt><trkpt lat="-26.8667042229742" lon="115.94782495189659"><ele>304.0</ele><time>2026-04-15T06:40:36Z</time></trkpt><trkpt lat="-26.866421662271662" lon="115.94774909345855"><ele>304.0</ele><time>2026-04-15T06:40:37Z</time></trkpt><trkpt lat="-26.86614216481971" lon="115.9476676603589"><ele>304.0</ele><time>2026-04-15T06:40:38Z</time></trkpt><trkpt lat="-26.865864045554243" lon="115.94758176425164"><ele>304.0</ele><time>2026-04-15T06:40:39Z</time></trkpt><trkpt lat="-26.865586698310686" lon="115.94749563668863"><ele>304.0</ele><time>2026-04-15T06:40:40Z</time></trkpt><trkpt lat="-26.865308322359986" lon="115.94741194909322"><ele>303.5</ele><time>2026-04-15T06:40:41Z</time></trkpt><trkpt lat="-26.865029634369503" lon="115.9473293832355"><ele>303.0</ele><time>2026-04-15T06:40:42Z</time></trkpt><trkpt lat="-26.864746767270262" lon="115.94724612622903"><ele>303.0</ele><time>2026-04-15T06:40:43Z</time></trkpt><trkpt lat="-26.864466715839242" lon="115.94716043658205"><ele>303.0</ele><time>2026-04-15T06:40:44Z</time></trkpt><trkpt lat="-26.86418748666298" lon="115.94707625222463"><ele>303.5</ele><time>2026-04-15T06:40:45Z</time></trkpt><trkpt lat="-26.863910701956375" lon="115.94699391662729"><ele>304.0</ele><time>2026-04-15T06:40:46Z</time></trkpt><trkpt lat="-26.863633644438398" lon="115.94691053137461"><ele>305.0</ele><time>2026-04-15T06:40:47Z</time></trkpt><trkpt lat="-26.86335649283161" lon="115.94682660276293"><ele>306.0</ele><time>2026-04-15T06:40:48Z</time></trkpt><trkpt lat="-26.86307935580195" lon="115.94674153555526"><ele>305.0</ele><time>2026-04-15T06:40:49Z</time></trkpt><trkpt lat="-26.862801810678306" lon="115.9466582706333"><ele>304.0</ele><time>2026-04-15T06:40:50Z</time></trkpt><trkpt lat="-26.862523638724195" lon="115.9465745784636"><ele>304.0</ele><time>2026-04-15T06:40:50.999Z</time></trkpt><trkpt lat="-26.862245685022124" lon="115.94649074332524"><ele>304.0</ele><time>2026-04-15T06:40:51.999Z</time></trkpt><trkpt lat="-26.861969844502667" lon="115.94640870102607"><ele>305.0</ele><time>2026-04-15T06:40:52.999Z</time></trkpt><trkpt lat="-26.861699260713877" lon="115.94632903505658"><ele>306.0</ele><time>2026-04-15T06:40:53.999Z</time></trkpt><trkpt lat="-26.861434508818036" lon="115.94624963902058"><ele>306.0</ele><time>2026-04-15T06:40:54.999Z</time></trkpt><trkpt lat="-26.861171209790196" lon="115.94617205238355"><ele>306.0</ele><time>2026-04-15T06:40:55.999Z</time></trkpt><trkpt lat="-26.860926282939054" lon="115.94609869937736"><ele>304.5</ele><time>2026-04-15T06:40:56.999Z</time></trkpt><trkpt lat="-26.860691212961353" lon="115.9460269368872"><ele>303.0</ele><time>2026-04-15T06:40:57.999Z</time></trkpt><trkpt lat="-26.86044908802916" lon="115.94595568484874"><ele>303.0</ele><time>2026-04-15T06:40:58.999Z</time></trkpt><trkpt lat="-26.860197040332537" lon="115.94589353875828"><ele>303.0</ele><time>2026-04-15T06:40:59.999Z</time></trkpt><trkpt lat="-26.85993457261835" lon="115.94584545755293"><ele>305.0</ele><time>2026-04-15T06:41:00.999Z</time></trkpt><trkpt lat="-26.859662902623587" lon="115.94580396591807"><ele>307.0</ele><time>2026-04-15T06:41:01.999Z</time></trkpt><trkpt lat="-26.85938662192309" lon="115.94577179364735"><ele>307.5</ele><time>2026-04-15T06:41:02.999Z</time></trkpt><trkpt lat="-26.859106088374368" lon="115.94575448551994"><ele>308.0</ele><time>2026-04-15T06:41:03.999Z</time></trkpt><trkpt lat="-26.858826263803653" lon="115.9457510842815"><ele>308.0</ele><time>2026-04-15T06:41:04.999Z</time></trkpt><trkpt lat="-26.858544565297404" lon="115.94575454743564"><ele>308.0</ele><time>2026-04-15T06:41:05.999Z</time></trkpt><trkpt lat="-26.85826376508832" lon="115.94576499488805"><ele>309.0</ele><time>2026-04-15T06:41:06.999Z</time></trkpt><trkpt lat="-26.85798323058124" lon="115.9457819417116"><ele>310.0</ele><time>2026-04-15T06:41:07.999Z</time></trkpt><trkpt lat="-26.857699870503353" lon="115.94579672628616"><ele>310.0</ele><time>2026-04-15T06:41:08.999Z</time></trkpt><trkpt lat="-26.857415885096685" lon="115.94581225273167"><ele>310.0</ele><time>2026-04-15T06:41:09.999Z</time></trkpt><trkpt lat="-26.857131582706245" lon="115.94582854423754"><ele>310.0</ele><time>2026-04-15T06:41:10.999Z</time></trkpt><trkpt lat="-26.856846274391593" lon="115.94584483849837"><ele>310.0</ele><time>2026-04-15T06:41:11.999Z</time></trkpt><trkpt lat="-26.85655984075747" lon="115.94586316772796"><ele>309.5</ele><time>2026-04-15T06:41:12.999Z</time></trkpt><trkpt lat="-26.85627030246087" lon="115.94588305492604"><ele>309.0</ele><time>2026-04-15T06:41:13.999Z</time></trkpt><trkpt lat="-26.855982292074554" lon="115.94590265320726"><ele>309.5</ele><time>2026-04-15T06:41:14.999Z</time></trkpt><trkpt lat="-26.855691031156276" lon="115.94592601482967"><ele>310.0</ele><time>2026-04-15T06:41:15.999Z</time></trkpt><trkpt lat="-26.855400427769933" lon="115.94594882138091"><ele>310.5</ele><time>2026-04-15T06:41:16.999Z</time></trkpt><trkpt lat="-26.855109743758746" lon="115.94597198880558"><ele>311.0</ele><time>2026-04-15T06:41:17.999Z</time></trkpt><trkpt lat="-26.854818181562376" lon="115.94599511330188"><ele>311.0</ele><time>2026-04-15T06:41:18.999Z</time></trkpt><trkpt lat="-26.854526885866317" lon="115.94601377511728"><ele>311.0</ele><time>2026-04-15T06:41:19.999Z</time></trkpt><trkpt lat="-26.85423590095888" lon="115.946031236658"><ele>310.5</ele><time>2026-04-15T06:41:20.999Z</time></trkpt><trkpt lat="-26.853947027638" lon="115.9460473045186"><ele>310.0</ele><time>2026-04-15T06:41:21.999Z</time></trkpt><trkpt lat="-26.853651564450544" lon="115.94606261203747"><ele>310.5</ele><time>2026-04-15T06:41:22.999Z</time></trkpt><trkpt lat="-26.8533642395304" lon="115.94607611963687"><ele>311.0</ele><time>2026-04-15T06:41:23.999Z</time></trkpt><trkpt lat="-26.853082688628636" lon="115.94608320376902"><ele>311.0</ele><time>2026-04-15T06:41:24.999Z</time></trkpt><trkpt lat="-26.852804569841474" lon="115.94608182115319"><ele>311.0</ele><time>2026-04-15T06:41:25.999Z</time></trkpt><trkpt lat="-26.852518362224377" lon="115.94607032881525"><ele>311.5</ele><time>2026-04-15T06:41:26.999Z</time></trkpt><trkpt lat="-26.85223017352349" lon="115.94605144748851"><ele>312.0</ele><time>2026-04-15T06:41:27.999Z</time></trkpt><trkpt lat="-26.851945852800927" lon="115.94601872198594"><ele>313.5</ele><time>2026-04-15T06:41:28.999Z</time></trkpt><trkpt lat="-26.851659887599528" lon="115.94597078389745"><ele>315.0</ele><time>2026-04-15T06:41:29.999Z</time></trkpt><trkpt lat="-26.851374147524623" lon="115.94591381733447"><ele>316.0</ele><time>2026-04-15T06:41:30.999Z</time></trkpt><trkpt lat="-26.851085718445194" lon="115.94585043982383"><ele>317.0</ele><time>2026-04-15T06:41:31.999Z</time></trkpt><trkpt lat="-26.850796686878184" lon="115.94578452682727"><ele>317.0</ele><time>2026-04-15T06:41:32.999Z</time></trkpt><trkpt lat="-26.850505001977538" lon="115.94572256351952"><ele>317.0</ele><time>2026-04-15T06:41:33.999Z</time></trkpt><trkpt lat="-26.850214322513462" lon="115.94566072462122"><ele>317.0</ele><time>2026-04-15T06:41:34.999Z</time></trkpt><trkpt lat="-26.849925945319676" lon="115.94559632459185"><ele>317.0</ele><time>2026-04-15T06:41:35.999Z</time></trkpt><trkpt lat="-26.849641029607987" lon="115.94553115264375"><ele>317.0</ele><time>2026-04-15T06:41:36.999Z</time></trkpt><trkpt lat="-26.84935581908312" lon="115.94546498285278"><ele>317.0</ele><time>2026-04-15T06:41:37.999Z</time></trkpt><trkpt lat="-26.849070226315646" lon="115.9453999634516"><ele>317.0</ele><time>2026-04-15T06:41:38.999Z</time></trkpt><trkpt lat="-26.848781287963277" lon="115.94533495054428"><ele>317.0</ele><time>2026-04-15T06:41:40Z</time></trkpt><trkpt lat="-26.848492151351063" lon="115.94527368121257"><ele>318.0</ele><time>2026-04-15T06:41:41Z</time></trkpt><trkpt lat="-26.848202826062366" lon="115.94521192702038"><ele>319.0</ele><time>2026-04-15T06:41:42Z</time></trkpt><trkpt lat="-26.847913406500485" lon="115.94515201806779"><ele>319.0</ele><time>2026-04-15T06:41:43Z</time></trkpt><trkpt lat="-26.847621867405376" lon="115.94509131141467"><ele>319.0</ele><time>2026-04-15T06:41:44Z</time></trkpt><trkpt lat="-26.847329995890455" lon="115.94503089894738"><ele>320.0</ele><time>2026-04-15T06:41:45Z</time></trkpt><trkpt lat="-26.84703780717306" lon="115.94497067347395"><ele>321.0</ele><time>2026-04-15T06:41:46Z</time></trkpt><trkpt lat="-26.846743892728817" lon="115.94490883738305"><ele>321.0</ele><time>2026-04-15T06:41:47Z</time></trkpt><trkpt lat="-26.846448473359946" lon="115.94484530093196"><ele>321.0</ele><time>2026-04-15T06:41:48Z</time></trkpt><trkpt lat="-26.846152727273264" lon="115.9447814640059"><ele>321.5</ele><time>2026-04-15T06:41:49.001Z</time></trkpt><trkpt lat="-26.845861571497007" lon="115.94471575473719"><ele>322.0</ele><time>2026-04-15T06:41:50.001Z</time></trkpt><trkpt lat="-26.845570965439794" lon="115.94464859332014"><ele>322.0</ele><time>2026-04-15T06:41:51.001Z</time></trkpt><trkpt lat="-26.84527884566685" lon="115.94458580558349"><ele>322.0</ele><time>2026-04-15T06:41:52.001Z</time></trkpt><trkpt lat="-26.844984728385853" lon="115.94452529455324"><ele>322.0</ele><time>2026-04-15T06:41:53.001Z</time></trkpt><trkpt lat="-26.84468989515631" lon="115.94446606448686"><ele>322.0</ele><time>2026-04-15T06:41:54.001Z</time></trkpt><trkpt lat="-26.8443935320875" lon="115.94440727561151"><ele>322.5</ele><time>2026-04-15T06:41:55.001Z</time></trkpt><trkpt lat="-26.844098445813398" lon="115.94434790805263"><ele>323.0</ele><time>2026-04-15T06:41:56.001Z</time></trkpt><trkpt lat="-26.84380471278916" lon="115.94428256007794"><ele>323.5</ele><time>2026-04-15T06:41:57.001Z</time></trkpt><trkpt lat="-26.84351056152946" lon="115.94421281930465"><ele>324.0</ele><time>2026-04-15T06:41:58.001Z</time></trkpt><trkpt lat="-26.843217220926995" lon="115.94414285330102"><ele>323.0</ele><time>2026-04-15T06:41:59.001Z</time></trkpt><trkpt lat="-26.84292602176204" lon="115.9440733440982"><ele>322.0</ele><time>2026-04-15T06:42:00.001Z</time></trkpt><trkpt lat="-26.84264005627954" lon="115.94400285162047"><ele>321.5</ele><time>2026-04-15T06:42:01.001Z</time></trkpt><trkpt lat="-26.84237542364613" lon="115.94393653851255"><ele>321.0</ele><time>2026-04-15T06:42:02.001Z</time></trkpt><trkpt lat="-26.84212858366666" lon="115.94387620231045"><ele>321.0</ele><time>2026-04-15T06:42:03.001Z</time></trkpt><trkpt lat="-26.84188276751645" lon="115.94381396409328"><ele>321.0</ele><time>2026-04-15T06:42:04.001Z</time></trkpt><trkpt lat="-26.841631867818776" lon="115.94374400901037"><ele>321.5</ele><time>2026-04-15T06:42:05.001Z</time></trkpt><trkpt lat="-26.841381823194514" lon="115.94365918433533"><ele>322.0</ele><time>2026-04-15T06:42:06.001Z</time></trkpt><trkpt lat="-26.84112787860992" lon="115.94355452030265"><ele>323.5</ele><time>2026-04-15T06:42:07.001Z</time></trkpt><trkpt lat="-26.840872076106766" lon="115.94343268718261"><ele>325.0</ele><time>2026-04-15T06:42:08.001Z</time></trkpt><trkpt lat="-26.840620754331848" lon="115.94329268261149"><ele>325.0</ele><time>2026-04-15T06:42:09.001Z</time></trkpt><trkpt lat="-26.84037551501947" lon="115.9431363966231"><ele>325.0</ele><time>2026-04-15T06:42:10.001Z</time></trkpt><trkpt lat="-26.84013093442793" lon="115.94297037826745"><ele>326.0</ele><time>2026-04-15T06:42:11.001Z</time></trkpt><trkpt lat="-26.839885562049695" lon="115.94280909775583"><ele>327.0</ele><time>2026-04-15T06:42:12.001Z</time></trkpt><trkpt lat="-26.83963667864216" lon="115.94265075477665"><ele>327.0</ele><time>2026-04-15T06:42:13.001Z</time></trkpt><trkpt lat="-26.83939091329412" lon="115.94249500309756"><ele>327.0</ele><time>2026-04-15T06:42:14.001Z</time></trkpt><trkpt lat="-26.839145044155412" lon="115.9423406417449"><ele>327.5</ele><time>2026-04-15T06:42:15.001Z</time></trkpt><trkpt lat="-26.8388987727537" lon="115.94219022801587"><ele>328.0</ele><time>2026-04-15T06:42:16.001Z</time></trkpt><trkpt lat="-26.838651235061793" lon="115.94204085751743"><ele>328.5</ele><time>2026-04-15T06:42:17.001Z</time></trkpt><trkpt lat="-26.83840469455113" lon="115.9418939324586"><ele>329.0</ele><time>2026-04-15T06:42:18.001Z</time></trkpt><trkpt lat="-26.838160717668426" lon="115.94174720924688"><ele>327.0</ele><time>2026-04-15T06:42:19.001Z</time></trkpt><trkpt lat="-26.837923314596594" lon="115.94160321870936"><ele>325.0</ele><time>2026-04-15T06:42:20.001Z</time></trkpt><trkpt lat="-26.837696836318568" lon="115.94146494396395"><ele>325.5</ele><time>2026-04-15T06:42:21.001Z</time></trkpt><trkpt lat="-26.837465776895808" lon="115.94133152228171"><ele>326.0</ele><time>2026-04-15T06:42:22.001Z</time></trkpt><trkpt lat="-26.837227151851202" lon="115.94120780010759"><ele>326.0</ele><time>2026-04-15T06:42:23.001Z</time></trkpt><trkpt lat="-26.836976358541573" lon="115.94110216163565"><ele>326.0</ele><time>2026-04-15T06:42:24.001Z</time></trkpt><trkpt lat="-26.83671295029997" lon="115.94101645810996"><ele>326.0</ele><time>2026-04-15T06:42:25.001Z</time></trkpt><trkpt lat="-26.836440598134597" lon="115.94094831420465"><ele>326.0</ele><time>2026-04-15T06:42:26.001Z</time></trkpt><trkpt lat="-26.836163344783152" lon="115.94089503004615"><ele>325.5</ele><time>2026-04-15T06:42:27.001Z</time></trkpt><trkpt lat="-26.83588526990379" lon="115.94084119715102"><ele>325.0</ele><time>2026-04-15T06:42:28.001Z</time></trkpt><trkpt lat="-26.83560646897338" lon="115.94078092389334"><ele>325.0</ele><time>2026-04-15T06:42:29.001Z</time></trkpt><trkpt lat="-26.83532921022045" lon="115.94071860458422"><ele>325.0</ele><time>2026-04-15T06:42:30.001Z</time></trkpt><trkpt lat="-26.835054097041237" lon="115.94065719184573"><ele>326.0</ele><time>2026-04-15T06:42:31.001Z</time></trkpt><trkpt lat="-26.83477474933655" lon="115.94059592763399"><ele>327.0</ele><time>2026-04-15T06:42:32.001Z</time></trkpt><trkpt lat="-26.83449340202786" lon="115.94053365595107"><ele>328.0</ele><time>2026-04-15T06:42:33.001Z</time></trkpt><trkpt lat="-26.834213035699673" lon="115.94046893840178"><ele>329.0</ele><time>2026-04-15T06:42:34.001Z</time></trkpt><trkpt lat="-26.83393030849164" lon="115.9403987853704"><ele>329.0</ele><time>2026-04-15T06:42:35.001Z</time></trkpt><trkpt lat="-26.833647949020524" lon="115.94032533675352"><ele>329.0</ele><time>2026-04-15T06:42:36.001Z</time></trkpt><trkpt lat="-26.833364970957266" lon="115.94024763219836"><ele>329.0</ele><time>2026-04-15T06:42:37.001Z</time></trkpt><trkpt lat="-26.833080381906562" lon="115.94016515684768"><ele>329.0</ele><time>2026-04-15T06:42:38.001Z</time></trkpt><trkpt lat="-26.83279611103099" lon="115.94007358199963"><ele>328.5</ele><time>2026-04-15T06:42:39.001Z</time></trkpt><trkpt lat="-26.832515547325382" lon="115.93997541432927"><ele>328.0</ele><time>2026-04-15T06:42:40.001Z</time></trkpt><trkpt lat="-26.832238507596617" lon="115.93987002604112"><ele>328.0</ele><time>2026-04-15T06:42:41.001Z</time></trkpt><trkpt lat="-26.83196229297123" lon="115.93975918312204"><ele>328.0</ele><time>2026-04-15T06:42:42.001Z</time></trkpt><trkpt lat="-26.831686068454815" lon="115.93964434012247"><ele>328.5</ele><time>2026-04-15T06:42:43.001Z</time></trkpt><trkpt lat="-26.831407881623534" lon="115.93952594373818"><ele>329.0</ele><time>2026-04-15T06:42:44.001Z</time></trkpt><trkpt lat="-26.831128073677494" lon="115.9394113047653"><ele>329.0</ele><time>2026-04-15T06:42:45.001Z</time></trkpt><trkpt lat="-26.830849430111684" lon="115.939295141046"><ele>329.0</ele><time>2026-04-15T06:42:46.001Z</time></trkpt><trkpt lat="-26.830571979658572" lon="115.93917966161482"><ele>329.0</ele><time>2026-04-15T06:42:47.001Z</time></trkpt><trkpt lat="-26.830298930107315" lon="115.93906835837062"><ele>329.0</ele><time>2026-04-15T06:42:48.001Z</time></trkpt><trkpt lat="-26.830020388173548" lon="115.9389603853362"><ele>330.5</ele><time>2026-04-15T06:42:49.001Z</time></trkpt><trkpt lat="-26.829731586178845" lon="115.93884633793718"><ele>332.0</ele><time>2026-04-15T06:42:50.001Z</time></trkpt><trkpt lat="-26.829442566269435" lon="115.93872872768452"><ele>332.0</ele><time>2026-04-15T06:42:51.001Z</time></trkpt><trkpt lat="-26.82915714417224" lon="115.93861091759912"><ele>332.0</ele><time>2026-04-15T06:42:52.001Z</time></trkpt><trkpt lat="-26.828871976389816" lon="115.938494169375"><ele>331.5</ele><time>2026-04-15T06:42:53.001Z</time></trkpt><trkpt lat="-26.828592124179718" lon="115.93837065488701"><ele>331.0</ele><time>2026-04-15T06:42:54.001Z</time></trkpt><trkpt lat="-26.82831872123562" lon="115.93824060965656"><ele>332.0</ele><time>2026-04-15T06:42:55.001Z</time></trkpt><trkpt lat="-26.828046482804695" lon="115.93810430454434"><ele>333.0</ele><time>2026-04-15T06:42:56.001Z</time></trkpt><trkpt lat="-26.827782016203038" lon="115.9379681047582"><ele>332.5</ele><time>2026-04-15T06:42:57.001Z</time></trkpt><trkpt lat="-26.827546607285377" lon="115.93784371137602"><ele>332.0</ele><time>2026-04-15T06:42:58.001Z</time></trkpt><trkpt lat="-26.82733317909169" lon="115.9377285433908"><ele>332.0</ele><time>2026-04-15T06:42:59.001Z</time></trkpt><trkpt lat="-26.827143678568024" lon="115.93762209284881"><ele>332.0</ele><time>2026-04-15T06:43:00.001Z</time></trkpt><trkpt lat="-26.826976211107162" lon="115.93752487059862"><ele>332.0</ele><time>2026-04-15T06:43:01.001Z</time></trkpt><trkpt lat="-26.826829671994663" lon="115.93743419050048"><ele>332.25</ele><time>2026-04-15T06:43:02.001Z</time></trkpt><trkpt lat="-26.826700214619628" lon="115.93735361536355"><ele>332.5</ele><time>2026-04-15T06:43:03.001Z</time></trkpt><trkpt lat="-26.826586354109256" lon="115.93728419509608"><ele>332.75</ele><time>2026-04-15T06:43:04.001Z</time></trkpt><trkpt lat="-26.826475760629524" lon="115.93721550806274"><ele>333.0</ele><time>2026-04-15T06:43:05.001Z</time></trkpt><trkpt lat="-26.826371915875097" lon="115.93714946018261"><ele>333.0</ele><time>2026-04-15T06:43:06.001Z</time></trkpt><trkpt lat="-26.82627782689245" lon="115.93708654949423"><ele>333.0</ele><time>2026-04-15T06:43:07.001Z</time></trkpt><trkpt lat="-26.82618979622274" lon="115.93702996342846"><ele>333.0</ele><time>2026-04-15T06:43:08.001Z</time></trkpt><trkpt lat="-26.82611383924896" lon="115.93698060243406"><ele>333.0</ele><time>2026-04-15T06:43:09.001Z</time></trkpt><trkpt lat="-26.82605618738237" lon="115.9369436203052"><ele>333.0</ele><time>2026-04-15T06:43:10.001Z</time></trkpt><trkpt lat="-26.825990967934956" lon="115.93690111927752"><ele>333.0</ele><time>2026-04-15T06:43:12.001Z</time></trkpt><trkpt lat="-26.825909575245102" lon="115.93684824730079"><ele>333.0</ele><time>2026-04-15T06:43:38.001Z</time></trkpt><trkpt lat="-26.82585120399078" lon="115.93680263972963"><ele>333.0</ele><time>2026-04-15T06:43:39.001Z</time></trkpt><trkpt lat="-26.825775215465438" lon="115.93674566635505"><ele>333.0</ele><time>2026-04-15T06:43:40.001Z</time></trkpt><trkpt lat="-26.825683150466592" lon="115.93668903742847"><ele>333.0</ele><time>2026-04-15T06:43:41.001Z</time></trkpt><trkpt lat="-26.825580748392504" lon="115.93662508980852"><ele>333.0</ele><time>2026-04-15T06:43:42.001Z</time></trkpt><trkpt lat="-26.82546107981199" lon="115.93654901129527"><ele>333.0</ele><time>2026-04-15T06:43:43.001Z</time></trkpt><trkpt lat="-26.82532861665291" lon="115.93646843243508"><ele>333.0</ele><time>2026-04-15T06:43:44.001Z</time></trkpt><trkpt lat="-26.825178682767877" lon="115.93637547531971"><ele>333.0</ele><time>2026-04-15T06:43:45.001Z</time></trkpt><trkpt lat="-26.825013016416065" lon="115.93627045322772"><ele>332.3333333333333</ele><time>2026-04-15T06:43:46.001Z</time></trkpt><trkpt lat="-26.824840122138692" lon="115.93615924626647"><ele>331.66666666666663</ele><time>2026-04-15T06:43:47.001Z</time></trkpt><trkpt lat="-26.824662300634007" lon="115.93604230791124"><ele>331.0</ele><time>2026-04-15T06:43:48.001Z</time></trkpt><trkpt lat="-26.824469406227873" lon="115.93591538561579"><ele>332.5</ele><time>2026-04-15T06:43:49.001Z</time></trkpt><trkpt lat="-26.824260411330524" lon="115.93578089028738"><ele>334.0</ele><time>2026-04-15T06:43:50.001Z</time></trkpt><trkpt lat="-26.824047980650864" lon="115.93564706114665"><ele>334.0</ele><time>2026-04-15T06:43:51.001Z</time></trkpt><trkpt lat="-26.82382757133884" lon="115.93551429211966"><ele>334.0</ele><time>2026-04-15T06:43:52.001Z</time></trkpt><trkpt lat="-26.82361278845864" lon="115.93539089635321"><ele>333.0</ele><time>2026-04-15T06:43:53.001Z</time></trkpt><trkpt lat="-26.823390219215927" lon="115.93526381404652"><ele>332.0</ele><time>2026-04-15T06:43:54.001Z</time></trkpt><trkpt lat="-26.82315672756564" lon="115.93513615988833"><ele>331.5</ele><time>2026-04-15T06:43:55.001Z</time></trkpt><trkpt lat="-26.82292191922176" lon="115.93501748113333"><ele>331.0</ele><time>2026-04-15T06:43:56.001Z</time></trkpt><trkpt lat="-26.82267966779404" lon="115.93489821279253"><ele>331.0</ele><time>2026-04-15T06:43:57.001Z</time></trkpt><trkpt lat="-26.82243222646699" lon="115.93478163467802"><ele>331.0</ele><time>2026-04-15T06:43:58.001Z</time></trkpt><trkpt lat="-26.82218534666369" lon="115.9346714730792"><ele>331.0</ele><time>2026-04-15T06:43:59.001Z</time></trkpt><trkpt lat="-26.821945490629325" lon="115.9345690835496"><ele>331.0</ele><time>2026-04-15T06:44:00.001Z</time></trkpt><trkpt lat="-26.82170395972703" lon="115.93447638476913"><ele>330.0</ele><time>2026-04-15T06:44:01.001Z</time></trkpt><trkpt lat="-26.82146385020335" lon="115.93438472191423"><ele>329.0</ele><time>2026-04-15T06:44:02.001Z</time></trkpt><trkpt lat="-26.821221157010825" lon="115.93429379012659"><ele>330.0</ele><time>2026-04-15T06:44:03.001Z</time></trkpt><trkpt lat="-26.82097549952462" lon="115.93420400425863"><ele>331.0</ele><time>2026-04-15T06:44:04.001Z</time></trkpt><trkpt lat="-26.82072520185254" lon="115.93411819085601"><ele>331.0</ele><time>2026-04-15T06:44:05.001Z</time></trkpt><trkpt lat="-26.820470058454028" lon="115.93403040979052"><ele>331.0</ele><time>2026-04-15T06:44:06.001Z</time></trkpt><trkpt lat="-26.82021579243121" lon="115.93394106938757"><ele>331.0</ele><time>2026-04-15T06:44:07.001Z</time></trkpt><trkpt lat="-26.819961111890656" lon="115.93384685989973"><ele>331.0</ele><time>2026-04-15T06:44:08.001Z</time></trkpt><trkpt lat="-26.81970595807854" lon="115.93375081229902"><ele>331.0</ele><time>2026-04-15T06:44:09.001Z</time></trkpt><trkpt lat="-26.819448003343453" lon="115.9336558974114"><ele>331.0</ele><time>2026-04-15T06:44:10.001Z</time></trkpt><trkpt lat="-26.81918767643739" lon="115.9335599351593"><ele>331.0</ele><time>2026-04-15T06:44:11.001Z</time></trkpt><trkpt lat="-26.818921862540673" lon="115.93346404600082"><ele>331.0</ele><time>2026-04-15T06:44:12.001Z</time></trkpt><trkpt lat="-26.818655235820398" lon="115.933370269575"><ele>330.5</ele><time>2026-04-15T06:44:13.001Z</time></trkpt><trkpt lat="-26.818389239947685" lon="115.93327599329474"><ele>330.0</ele><time>2026-04-15T06:44:14.001Z</time></trkpt><trkpt lat="-26.8181250950325" lon="115.93317946591499"><ele>330.0</ele><time>2026-04-15T06:44:15.001Z</time></trkpt><trkpt lat="-26.817854166808893" lon="115.9330809071219"><ele>330.0</ele><time>2026-04-15T06:44:16.001Z</time></trkpt><trkpt lat="-26.81758761495364" lon="115.93298309540349"><ele>329.5</ele><time>2026-04-15T06:44:17.001Z</time></trkpt><trkpt lat="-26.817322659757405" lon="115.93288881591823"><ele>329.0</ele><time>2026-04-15T06:44:18.001Z</time></trkpt><trkpt lat="-26.817057549490045" lon="115.9327934285626"><ele>327.5</ele><time>2026-04-15T06:44:19.001Z</time></trkpt><trkpt lat="-26.816787128946157" lon="115.93269367933132"><ele>326.0</ele><time>2026-04-15T06:44:20.001Z</time></trkpt><trkpt lat="-26.816515256169243" lon="115.93259502565824"><ele>326.5</ele><time>2026-04-15T06:44:21.001Z</time></trkpt><trkpt lat="-26.816242079626438" lon="115.93249827365649"><ele>327.0</ele><time>2026-04-15T06:44:22.001Z</time></trkpt><trkpt lat="-26.815973122677384" lon="115.93240279637786"><ele>327.0</ele><time>2026-04-15T06:44:23.001Z</time></trkpt><trkpt lat="-26.815700869588092" lon="115.93230528650005"><ele>327.0</ele><time>2026-04-15T06:44:24.001Z</time></trkpt><trkpt lat="-26.815432784699777" lon="115.93220816147938"><ele>327.0</ele><time>2026-04-15T06:44:25.001Z</time></trkpt><trkpt lat="-26.815166089308317" lon="115.9321111821943"><ele>327.0</ele><time>2026-04-15T06:44:26.001Z</time></trkpt><trkpt lat="-26.81489926685264" lon="115.9320153072731"><ele>327.0</ele><time>2026-04-15T06:44:27.001Z</time></trkpt><trkpt lat="-26.81463105924804" lon="115.93191979393255"><ele>327.0</ele><time>2026-04-15T06:44:28.001Z</time></trkpt><trkpt lat="-26.814363238669923" lon="115.93182586229626"><ele>327.0</ele><time>2026-04-15T06:44:29.001Z</time></trkpt><trkpt lat="-26.81409278810788" lon="115.93173370674862"><ele>327.0</ele><time>2026-04-15T06:44:30.001Z</time></trkpt><trkpt lat="-26.813824442324567" lon="115.93164204220392"><ele>326.5</ele><time>2026-04-15T06:44:31.001Z</time></trkpt><trkpt lat="-26.81355439865812" lon="115.93154748561538"><ele>326.0</ele><time>2026-04-15T06:44:32.001Z</time></trkpt><trkpt lat="-26.813288485945094" lon="115.9314523662333"><ele>326.0</ele><time>2026-04-15T06:44:33.001Z</time></trkpt><trkpt lat="-26.813021747799983" lon="115.9313559166637"><ele>326.0</ele><time>2026-04-15T06:44:34.001Z</time></trkpt><trkpt lat="-26.812755681315053" lon="115.93126147787468"><ele>325.5</ele><time>2026-04-15T06:44:35.001Z</time></trkpt><trkpt lat="-26.812484448823565" lon="115.9311656322242"><ele>325.0</ele><time>2026-04-15T06:44:36.001Z</time></trkpt><trkpt lat="-26.812212905651258" lon="115.93107209228532"><ele>325.0</ele><time>2026-04-15T06:44:37.001Z</time></trkpt><trkpt lat="-26.811939494799553" lon="115.93097876074835"><ele>325.0</ele><time>2026-04-15T06:44:38.001Z</time></trkpt><trkpt lat="-26.811664848308325" lon="115.93088504895414"><ele>326.0</ele><time>2026-04-15T06:44:39.001Z</time></trkpt><trkpt lat="-26.81139123993586" lon="115.93078934595344"><ele>327.0</ele><time>2026-04-15T06:44:40.001Z</time></trkpt><trkpt lat="-26.811114135574726" lon="115.93068823097953"><ele>325.5</ele><time>2026-04-15T06:44:41.001Z</time></trkpt><trkpt lat="-26.810839671852065" lon="115.93058661463488"><ele>324.0</ele><time>2026-04-15T06:44:42.001Z</time></trkpt><trkpt lat="-26.810563980785222" lon="115.93048439952679"><ele>324.0</ele><time>2026-04-15T06:44:43.001Z</time></trkpt><trkpt lat="-26.810288546080535" lon="115.93038393723013"><ele>324.0</ele><time>2026-04-15T06:44:44.001Z</time></trkpt><trkpt lat="-26.810013316285083" lon="115.93028532585386"><ele>324.0</ele><time>2026-04-15T06:44:45.001Z</time></trkpt><trkpt lat="-26.80973917255835" lon="115.93018802935886"><ele>324.0</ele><time>2026-04-15T06:44:46.001Z</time></trkpt><trkpt lat="-26.80946468554813" lon="115.93009548597273"><ele>323.0</ele><time>2026-04-15T06:44:47.001Z</time></trkpt><trkpt lat="-26.80919006109969" lon="115.92999963554647"><ele>322.0</ele><time>2026-04-15T06:44:48.001Z</time></trkpt><trkpt lat="-26.808914625232255" lon="115.92990223597903"><ele>322.0</ele><time>2026-04-15T06:44:49.001Z</time></trkpt><trkpt lat="-26.808638715267918" lon="115.92980111777074"><ele>322.0</ele><time>2026-04-15T06:44:50.001Z</time></trkpt><trkpt lat="-26.808361752432106" lon="115.92969720080609"><ele>322.0</ele><time>2026-04-15T06:44:51.001Z</time></trkpt><trkpt lat="-26.80808374798285" lon="115.9295912225831"><ele>322.0</ele><time>2026-04-15T06:44:52.001Z</time></trkpt><trkpt lat="-26.80780837313489" lon="115.9294868058539"><ele>323.0</ele><time>2026-04-15T06:44:53.001Z</time></trkpt><trkpt lat="-26.807528691038495" lon="115.92938501984824"><ele>324.0</ele><time>2026-04-15T06:44:54.001Z</time></trkpt><trkpt lat="-26.80725499723981" lon="115.92928857926732"><ele>323.5</ele><time>2026-04-15T06:44:55.001Z</time></trkpt><trkpt lat="-26.806967770994735" lon="115.92918932066608"><ele>323.0</ele><time>2026-04-15T06:44:56.001Z</time></trkpt><trkpt lat="-26.806681221683885" lon="115.92909021681795"><ele>321.5</ele><time>2026-04-15T06:44:57.001Z</time></trkpt><trkpt lat="-26.80639361362508" lon="115.92898836030339"><ele>320.0</ele><time>2026-04-15T06:44:58.001Z</time></trkpt><trkpt lat="-26.80610770069179" lon="115.92888999815287"><ele>320.5</ele><time>2026-04-15T06:44:59.001Z</time></trkpt><trkpt lat="-26.805820420264233" lon="115.92879132002125"><ele>321.0</ele><time>2026-04-15T06:45:00.001Z</time></trkpt><trkpt lat="-26.805530968646256" lon="115.92869203702121"><ele>321.0</ele><time>2026-04-15T06:45:01.001Z</time></trkpt><trkpt lat="-26.80524025945481" lon="115.92859222600843"><ele>321.0</ele><time>2026-04-15T06:45:02.001Z</time></trkpt><trkpt lat="-26.80494720264322" lon="115.92849070376813"><ele>320.0</ele><time>2026-04-15T06:45:03.001Z</time></trkpt><trkpt lat="-26.804654716134678" lon="115.92838712446482"><ele>319.0</ele><time>2026-04-15T06:45:04.001Z</time></trkpt><trkpt lat="-26.80436303029437" lon="115.92828108367297"><ele>318.5</ele><time>2026-04-15T06:45:05.001Z</time></trkpt><trkpt lat="-26.804072068177852" lon="115.92817274656805"><ele>318.0</ele><time>2026-04-15T06:45:06.001Z</time></trkpt><trkpt lat="-26.80378327352719" lon="115.92806504034823"><ele>318.5</ele><time>2026-04-15T06:45:07.001Z</time></trkpt><trkpt lat="-26.803492796590803" lon="115.92795552569741"><ele>319.0</ele><time>2026-04-15T06:45:08.001Z</time></trkpt><trkpt lat="-26.80320931543117" lon="115.92785106334685"><ele>319.0</ele><time>2026-04-15T06:45:09.001Z</time></trkpt><trkpt lat="-26.802929157828753" lon="115.9277515853826"><ele>319.0</ele><time>2026-04-15T06:45:10.001Z</time></trkpt><trkpt lat="-26.802655336963646" lon="115.92765467742912"><ele>318.5</ele><time>2026-04-15T06:45:11.001Z</time></trkpt><trkpt lat="-26.802384595685126" lon="115.92755521829739"><ele>318.0</ele><time>2026-04-15T06:45:12.001Z</time></trkpt><trkpt lat="-26.80211796119276" lon="115.92745410320404"><ele>318.0</ele><time>2026-04-15T06:45:13.001Z</time></trkpt><trkpt lat="-26.801851929957568" lon="115.92735733027645"><ele>318.0</ele><time>2026-04-15T06:45:14.001Z</time></trkpt><trkpt lat="-26.801574908855937" lon="115.9272563169837"><ele>317.0</ele><time>2026-04-15T06:45:15.001Z</time></trkpt><trkpt lat="-26.801296945592572" lon="115.92715837920272"><ele>316.0</ele><time>2026-04-15T06:45:16.001Z</time></trkpt><trkpt lat="-26.801018345787952" lon="115.92705827806451"><ele>317.5</ele><time>2026-04-15T06:45:17.001Z</time></trkpt><trkpt lat="-26.80073693847874" lon="115.92695517671308"><ele>319.0</ele><time>2026-04-15T06:45:18.001Z</time></trkpt><trkpt lat="-26.80045382164324" lon="115.92685220880676"><ele>319.0</ele><time>2026-04-15T06:45:19.001Z</time></trkpt><trkpt lat="-26.800171895633003" lon="115.92675156661181"><ele>319.0</ele><time>2026-04-15T06:45:20.001Z</time></trkpt><trkpt lat="-26.799891071978436" lon="115.92664948511468"><ele>318.5</ele><time>2026-04-15T06:45:21.001Z</time></trkpt><trkpt lat="-26.7996104417796" lon="115.92654899324737"><ele>318.0</ele><time>2026-04-15T06:45:22.001Z</time></trkpt><trkpt lat="-26.799329637013095" lon="115.92644890096152"><ele>317.5</ele><time>2026-04-15T06:45:23.001Z</time></trkpt><trkpt lat="-26.799048846404332" lon="115.92635215245853"><ele>317.0</ele><time>2026-04-15T06:45:24.001Z</time></trkpt><trkpt lat="-26.798769040807116" lon="115.92625729915946"><ele>316.0</ele><time>2026-04-15T06:45:25.001Z</time></trkpt><trkpt lat="-26.79848854626788" lon="115.92616063370302"><ele>315.0</ele><time>2026-04-15T06:45:26.001Z</time></trkpt><trkpt lat="-26.798207768381367" lon="115.92605819458234"><ele>315.0</ele><time>2026-04-15T06:45:27.001Z</time></trkpt><trkpt lat="-26.797927114570154" lon="115.9259560233222"><ele>315.0</ele><time>2026-04-15T06:45:28.001Z</time></trkpt><trkpt lat="-26.797645533564776" lon="115.92585211107983"><ele>316.5</ele><time>2026-04-15T06:45:29.001Z</time></trkpt><trkpt lat="-26.797365162719444" lon="115.92575195258901"><ele>318.0</ele><time>2026-04-15T06:45:30.001Z</time></trkpt><trkpt lat="-26.797083670934374" lon="115.9256528597206"><ele>317.0</ele><time>2026-04-15T06:45:31.001Z</time></trkpt><trkpt lat="-26.796804310938946" lon="115.92555234383384"><ele>316.0</ele><time>2026-04-15T06:45:32.001Z</time></trkpt><trkpt lat="-26.796527497023064" lon="115.92545464262278"><ele>316.0</ele><time>2026-04-15T06:45:33.001Z</time></trkpt><trkpt lat="-26.796256057612986" lon="115.92535723805017"><ele>316.0</ele><time>2026-04-15T06:45:34.001Z</time></trkpt><trkpt lat="-26.79598999324518" lon="115.92525920849963"><ele>315.0</ele><time>2026-04-15T06:45:35.001Z</time></trkpt><trkpt lat="-26.795722040836107" lon="115.9251609596296"><ele>314.0</ele><time>2026-04-15T06:45:36.001Z</time></trkpt><trkpt lat="-26.795455155407534" lon="115.92505781972875"><ele>314.0</ele><time>2026-04-15T06:45:37.001Z</time></trkpt><trkpt lat="-26.79518550277477" lon="115.92495713044391"><ele>314.0</ele><time>2026-04-15T06:45:38.001Z</time></trkpt><trkpt lat="-26.794914446012125" lon="115.92485817893517"><ele>315.0</ele><time>2026-04-15T06:45:39.001Z</time></trkpt><trkpt lat="-26.79464911992276" lon="115.92476394713121"><ele>316.0</ele><time>2026-04-15T06:45:40.001Z</time></trkpt><trkpt lat="-26.794393247697556" lon="115.92467471715074"><ele>317.0</ele><time>2026-04-15T06:45:41.001Z</time></trkpt><trkpt lat="-26.79413783219191" lon="115.92458537407204"><ele>318.0</ele><time>2026-04-15T06:45:42.001Z</time></trkpt><trkpt lat="-26.79387979054098" lon="115.9244964744446"><ele>318.0</ele><time>2026-04-15T06:45:43.001Z</time></trkpt><trkpt lat="-26.79362550636708" lon="115.92441214551089"><ele>318.0</ele><time>2026-04-15T06:45:44.001Z</time></trkpt><trkpt lat="-26.79338107855083" lon="115.92433440387379"><ele>317.5</ele><time>2026-04-15T06:45:45.001Z</time></trkpt><trkpt lat="-26.7931458608166" lon="115.92425657613369"><ele>317.0</ele><time>2026-04-15T06:45:46.001Z</time></trkpt><trkpt lat="-26.79291474923425" lon="115.92418132189728"><ele>316.5</ele><time>2026-04-15T06:45:47.001Z</time></trkpt><trkpt lat="-26.792685711176695" lon="115.92410565333388"><ele>316.0</ele><time>2026-04-15T06:45:48.001Z</time></trkpt><trkpt lat="-26.792454741993694" lon="115.92402071396049"><ele>314.5</ele><time>2026-04-15T06:45:49.001Z</time></trkpt><trkpt lat="-26.792220419922458" lon="115.92393250643826"><ele>313.0</ele><time>2026-04-15T06:45:50.001Z</time></trkpt><trkpt lat="-26.79198220956557" lon="115.92384399455125"><ele>313.5</ele><time>2026-04-15T06:45:51.001Z</time></trkpt><trkpt lat="-26.79174061948292" lon="115.92375631563777"><ele>314.0</ele><time>2026-04-15T06:45:52.001Z</time></trkpt><trkpt lat="-26.791506998477523" lon="115.92367052061482"><ele>314.0</ele><time>2026-04-15T06:45:53.001Z</time></trkpt><trkpt lat="-26.791297945355346" lon="115.92359274783821"><ele>314.0</ele><time>2026-04-15T06:45:54.001Z</time></trkpt><trkpt lat="-26.791112447090892" lon="115.92352161114732"><ele>314.0</ele><time>2026-04-15T06:45:55.001Z</time></trkpt><trkpt lat="-26.790941090356064" lon="115.923457669149"><ele>314.33333333333337</ele><time>2026-04-15T06:45:56.001Z</time></trkpt><trkpt lat="-26.79077078720516" lon="115.92339438346627"><ele>314.6666666666667</ele><time>2026-04-15T06:45:57.001Z</time></trkpt><trkpt lat="-26.79058347213124" lon="115.92332560018534"><ele>315.0</ele><time>2026-04-15T06:45:58.001Z</time></trkpt><trkpt lat="-26.790386232488434" lon="115.92325172217134"><ele>315.0</ele><time>2026-04-15T06:45:59.001Z</time></trkpt><trkpt lat="-26.790181413355494" lon="115.9231808882767"><ele>315.0</ele><time>2026-04-15T06:46:00.001Z</time></trkpt><trkpt lat="-26.789970495816537" lon="115.92310728531587"><ele>315.0</ele><time>2026-04-15T06:46:01.001Z</time></trkpt><trkpt lat="-26.789758225730573" lon="115.92303170375179"><ele>314.6666666666667</ele><time>2026-04-15T06:46:02.001Z</time></trkpt><trkpt lat="-26.789549374701274" lon="115.92295476825672"><ele>314.33333333333337</ele><time>2026-04-15T06:46:03.001Z</time></trkpt><trkpt lat="-26.789355393157283" lon="115.92288439727288"><ele>314.0</ele><time>2026-04-15T06:46:04.001Z</time></trkpt><trkpt lat="-26.789170802929505" lon="115.92281647576957"><ele>313.6666666666667</ele><time>2026-04-15T06:46:05.001Z</time></trkpt><trkpt lat="-26.78898611455763" lon="115.92275214070388"><ele>313.3333333333333</ele><time>2026-04-15T06:46:06.001Z</time></trkpt><trkpt lat="-26.78879633561744" lon="115.92268456986193"><ele>313.0</ele><time>2026-04-15T06:46:07.001Z</time></trkpt><trkpt lat="-26.78860320140307" lon="115.92261677410508"><ele>313.0</ele><time>2026-04-15T06:46:08.001Z</time></trkpt><trkpt lat="-26.78841896815857" lon="115.92255271459346"><ele>313.0</ele><time>2026-04-15T06:46:09.001Z</time></trkpt><trkpt lat="-26.78824496497383" lon="115.92249016806447"><ele>313.0</ele><time>2026-04-15T06:46:10.001Z</time></trkpt><trkpt lat="-26.788081397133613" lon="115.92243209088709"><ele>313.0</ele><time>2026-04-15T06:46:11.001Z</time></trkpt><trkpt lat="-26.78792644416194" lon="115.92237885841632"><ele>313.0</ele><time>2026-04-15T06:46:12.001Z</time></trkpt><trkpt lat="-26.787782599391974" lon="115.92232876350974"><ele>313.0</ele><time>2026-04-15T06:46:13.001Z</time></trkpt><trkpt lat="-26.787644906536983" lon="115.9222808513682"><ele>313.75</ele><time>2026-04-15T06:46:14.001Z</time></trkpt><trkpt lat="-26.78751514893828" lon="115.92223633160107"><ele>314.5</ele><time>2026-04-15T06:46:15.001Z</time></trkpt><trkpt lat="-26.78739172259574" lon="115.92219858660975"><ele>315.25</ele><time>2026-04-15T06:46:16.001Z</time></trkpt><trkpt lat="-26.787282299904792" lon="115.92216051798165"><ele>316.0</ele><time>2026-04-15T06:46:17.001Z</time></trkpt><trkpt lat="-26.787190854056607" lon="115.92211734324458"><ele>316.0</ele><time>2026-04-15T06:46:18.001Z</time></trkpt><trkpt lat="-26.787111517217458" lon="115.92206431348484"><ele>316.0</ele><time>2026-04-15T06:46:19.001Z</time></trkpt><trkpt lat="-26.78703794542295" lon="115.92199097056768"><ele>316.0</ele><time>2026-04-15T06:46:20.001Z</time></trkpt><trkpt lat="-26.7869788820452" lon="115.9219031549467"><ele>316.0</ele><time>2026-04-15T06:46:21.001Z</time></trkpt><trkpt lat="-26.78694199277304" lon="115.92180601372273"><ele>316.0</ele><time>2026-04-15T06:46:22.001Z</time></trkpt><trkpt lat="-26.78692104092277" lon="115.92168569179783"><ele>315.75</ele><time>2026-04-15T06:46:23.001Z</time></trkpt><trkpt lat="-26.786911064291814" lon="115.92154076366229"><ele>315.5</ele><time>2026-04-15T06:46:24.001Z</time></trkpt><trkpt lat="-26.78691713108896" lon="115.92137649781196"><ele>315.25</ele><time>2026-04-15T06:46:25.001Z</time></trkpt><trkpt lat="-26.78693280133389" lon="115.92118978822434"><ele>315.0</ele><time>2026-04-15T06:46:26.001Z</time></trkpt><trkpt lat="-26.786949154490948" lon="115.92098075991075"><ele>314.3333333333333</ele><time>2026-04-15T06:46:27.001Z</time></trkpt><trkpt lat="-26.786958340623368" lon="115.92075270285865"><ele>313.66666666666663</ele><time>2026-04-15T06:46:28.001Z</time></trkpt><trkpt lat="-26.786966021728738" lon="115.92050511783177"><ele>313.0</ele><time>2026-04-15T06:46:29.001Z</time></trkpt><trkpt lat="-26.786970723226418" lon="115.92024041264882"><ele>313.0</ele><time>2026-04-15T06:46:30.001Z</time></trkpt><trkpt lat="-26.786970386646722" lon="115.91996782823561"><ele>313.0</ele><time>2026-04-15T06:46:31.001Z</time></trkpt><trkpt lat="-26.78696700526146" lon="115.91968909013322"><ele>313.0</ele><time>2026-04-15T06:46:32.001Z</time></trkpt><trkpt lat="-26.78696451159587" lon="115.91939477940682"><ele>313.0</ele><time>2026-04-15T06:46:33.001Z</time></trkpt><trkpt lat="-26.78696547051314" lon="115.91909806128609"><ele>312.0</ele><time>2026-04-15T06:46:34.001Z</time></trkpt><trkpt lat="-26.786967169249856" lon="115.91880522642847"><ele>311.0</ele><time>2026-04-15T06:46:35.001Z</time></trkpt><trkpt lat="-26.786967325542193" lon="115.91850900325905"><ele>311.5</ele><time>2026-04-15T06:46:36.001Z</time></trkpt><trkpt lat="-26.786968370735398" lon="115.91820552757768"><ele>312.0</ele><time>2026-04-15T06:46:37.001Z</time></trkpt><trkpt lat="-26.78697111580731" lon="115.91790223132847"><ele>312.0</ele><time>2026-04-15T06:46:38.001Z</time></trkpt><trkpt lat="-26.786977317045892" lon="115.91759610052482"><ele>312.0</ele><time>2026-04-15T06:46:39.001Z</time></trkpt><trkpt lat="-26.78698094022352" lon="115.91728375390566"><ele>311.5</ele><time>2026-04-15T06:46:40.001Z</time></trkpt><trkpt lat="-26.78698265652201" lon="115.91696369906695"><ele>311.0</ele><time>2026-04-15T06:46:41.001Z</time></trkpt><trkpt lat="-26.786983035242756" lon="115.91664847166012"><ele>311.0</ele><time>2026-04-15T06:46:42.001Z</time></trkpt><trkpt lat="-26.786984121696136" lon="115.9163383476295"><ele>311.0</ele><time>2026-04-15T06:46:43.001Z</time></trkpt><trkpt lat="-26.7869834654417" lon="115.91602960592148"><ele>310.5</ele><time>2026-04-15T06:46:44.001Z</time></trkpt><trkpt lat="-26.786984156357757" lon="115.91571494054395"><ele>310.0</ele><time>2026-04-15T06:46:45.001Z</time></trkpt><trkpt lat="-26.786982237306635" lon="115.91540239553419"><ele>310.0</ele><time>2026-04-15T06:46:46.001Z</time></trkpt><trkpt lat="-26.786982708946834" lon="115.91509314365864"><ele>310.0</ele><time>2026-04-15T06:46:47.001Z</time></trkpt><trkpt lat="-26.78698411552901" lon="115.9147817061013"><ele>309.5</ele><time>2026-04-15T06:46:48.001Z</time></trkpt><trkpt lat="-26.786988394514502" lon="115.91446967603613"><ele>309.0</ele><time>2026-04-15T06:46:49.001Z</time></trkpt><trkpt lat="-26.786992781465703" lon="115.91415769458382"><ele>309.0</ele><time>2026-04-15T06:46:50.001Z</time></trkpt><trkpt lat="-26.786996414090698" lon="115.91384625740868"><ele>309.0</ele><time>2026-04-15T06:46:51.001Z</time></trkpt><trkpt lat="-26.78700000350637" lon="115.91353579083528"><ele>309.0</ele><time>2026-04-15T06:46:52.001Z</time></trkpt><trkpt lat="-26.787002056983653" lon="115.9132259104759"><ele>309.0</ele><time>2026-04-15T06:46:53.001Z</time></trkpt><trkpt lat="-26.78700504211908" lon="115.9129149586212"><ele>309.0</ele><time>2026-04-15T06:46:54.001Z</time></trkpt><trkpt lat="-26.787006268273256" lon="115.91261251004704"><ele>309.0</ele><time>2026-04-15T06:46:55.001Z</time></trkpt><trkpt lat="-26.787006248983303" lon="115.9123079523667"><ele>309.5</ele><time>2026-04-15T06:46:56.001Z</time></trkpt><trkpt lat="-26.787006862252298" lon="115.91199644719674"><ele>310.0</ele><time>2026-04-15T06:46:57.001Z</time></trkpt><trkpt lat="-26.787006263660054" lon="115.91169783527532"><ele>310.0</ele><time>2026-04-15T06:46:58.001Z</time></trkpt><trkpt lat="-26.787006948165395" lon="115.91139360696538"><ele>310.0</ele><time>2026-04-15T06:46:59.001Z</time></trkpt><trkpt lat="-26.787011166238678" lon="115.91109005065972"><ele>310.5</ele><time>2026-04-15T06:47:00.001Z</time></trkpt><trkpt lat="-26.787016329490918" lon="115.91078547645591"><ele>311.0</ele><time>2026-04-15T06:47:01.001Z</time></trkpt><trkpt lat="-26.787018675321335" lon="115.91048504948857"><ele>311.0</ele><time>2026-04-15T06:47:02.001Z</time></trkpt><trkpt lat="-26.78702015673101" lon="115.91018647023037"><ele>311.0</ele><time>2026-04-15T06:47:03.001Z</time></trkpt><trkpt lat="-26.787021790936922" lon="115.90988421815638"><ele>310.5</ele><time>2026-04-15T06:47:04.001Z</time></trkpt><trkpt lat="-26.78702371864527" lon="115.90957985299762"><ele>310.0</ele><time>2026-04-15T06:47:05.001Z</time></trkpt><trkpt lat="-26.787026650776603" lon="115.90927501411309"><ele>310.0</ele><time>2026-04-15T06:47:06.001Z</time></trkpt><trkpt lat="-26.78702861192129" lon="115.90896559175042"><ele>310.0</ele><time>2026-04-15T06:47:07.001Z</time></trkpt><trkpt lat="-26.787031634109212" lon="115.90865927040127"><ele>310.0</ele><time>2026-04-15T06:47:08.001Z</time></trkpt><trkpt lat="-26.78703250080972" lon="115.90835000965177"><ele>310.0</ele><time>2026-04-15T06:47:09.001Z</time></trkpt><trkpt lat="-26.787032303026955" lon="115.90804201960617"><ele>310.0</ele><time>2026-04-15T06:47:10.001Z</time></trkpt><trkpt lat="-26.787032381625643" lon="115.90773259092353"><ele>310.0</ele><time>2026-04-15T06:47:11.001Z</time></trkpt><trkpt lat="-26.78703248419791" lon="115.90742029474168"><ele>310.5</ele><time>2026-04-15T06:47:12.001Z</time></trkpt><trkpt lat="-26.787031559720557" lon="115.90710582861925"><ele>311.0</ele><time>2026-04-15T06:47:13.001Z</time></trkpt><trkpt lat="-26.78702757780833" lon="115.90678719181855"><ele>311.0</ele><time>2026-04-15T06:47:14.001Z</time></trkpt><trkpt lat="-26.787019389954615" lon="115.90646730885368"><ele>311.0</ele><time>2026-04-15T06:47:15.001Z</time></trkpt><trkpt lat="-26.787006945531836" lon="115.90614531984255"><ele>310.0</ele><time>2026-04-15T06:47:16.001Z</time></trkpt><trkpt lat="-26.78698963583758" lon="115.90582626237311"><ele>309.0</ele><time>2026-04-15T06:47:17.001Z</time></trkpt><trkpt lat="-26.78696336687687" lon="115.90550545083994"><ele>309.0</ele><time>2026-04-15T06:47:18.001Z</time></trkpt><trkpt lat="-26.786926537130316" lon="115.90518650667741"><ele>309.0</ele><time>2026-04-15T06:47:19.001Z</time></trkpt><trkpt lat="-26.786883719581905" lon="115.90487171875833"><ele>310.0</ele><time>2026-04-15T06:47:20.001Z</time></trkpt><trkpt lat="-26.78683765334219" lon="115.904561000174"><ele>311.0</ele><time>2026-04-15T06:47:21.001Z</time></trkpt><trkpt lat="-26.78679433320987" lon="115.90425319349967"><ele>309.0</ele><time>2026-04-15T06:47:22.001Z</time></trkpt><trkpt lat="-26.786758636937382" lon="115.90394265138372"><ele>307.0</ele><time>2026-04-15T06:47:23.001Z</time></trkpt><trkpt lat="-26.786731818278863" lon="115.90363330630393"><ele>309.0</ele><time>2026-04-15T06:47:24.001Z</time></trkpt><trkpt lat="-26.78671179096355" lon="115.90332223062165"><ele>311.0</ele><time>2026-04-15T06:47:25.001Z</time></trkpt><trkpt lat="-26.78669412222938" lon="115.90301022084559"><ele>311.0</ele><time>2026-04-15T06:47:26.001Z</time></trkpt><trkpt lat="-26.786680649133736" lon="115.90269722832453"><ele>311.0</ele><time>2026-04-15T06:47:27.001Z</time></trkpt><trkpt lat="-26.786671547487256" lon="115.90238510972917"><ele>311.0</ele><time>2026-04-15T06:47:28.001Z</time></trkpt><trkpt lat="-26.78666802115599" lon="115.90207022630966"><ele>311.0</ele><time>2026-04-15T06:47:29.001Z</time></trkpt><trkpt lat="-26.786668400912284" lon="115.9017518958632"><ele>312.0</ele><time>2026-04-15T06:47:30.001Z</time></trkpt><trkpt lat="-26.78666969886405" lon="115.90143503700038"><ele>313.0</ele><time>2026-04-15T06:47:31.001Z</time></trkpt><trkpt lat="-26.786668640216302" lon="115.90111835916832"><ele>312.5</ele><time>2026-04-15T06:47:32.001Z</time></trkpt><trkpt lat="-26.786666727086967" lon="115.9008040408505"><ele>312.0</ele><time>2026-04-15T06:47:33.001Z</time></trkpt><trkpt lat="-26.786665871465193" lon="115.9004937407272"><ele>312.0</ele><time>2026-04-15T06:47:34.001Z</time></trkpt><trkpt lat="-26.786665745063342" lon="115.90018426208687"><ele>312.0</ele><time>2026-04-15T06:47:35.001Z</time></trkpt><trkpt lat="-26.78666739172831" lon="115.89987484910752"><ele>313.0</ele><time>2026-04-15T06:47:36.001Z</time></trkpt><trkpt lat="-26.78667024666597" lon="115.89956381101409"><ele>314.0</ele><time>2026-04-15T06:47:37.001Z</time></trkpt><trkpt lat="-26.786671985075248" lon="115.89925552098737"><ele>313.5</ele><time>2026-04-15T06:47:38.001Z</time></trkpt><trkpt lat="-26.786672360760928" lon="115.89894648316655"><ele>313.0</ele><time>2026-04-15T06:47:39.001Z</time></trkpt><trkpt lat="-26.786670770202253" lon="115.89863359843488"><ele>314.0</ele><time>2026-04-15T06:47:40.001Z</time></trkpt><trkpt lat="-26.786670315949877" lon="115.89831646089789"><ele>315.0</ele><time>2026-04-15T06:47:41.001Z</time></trkpt><trkpt lat="-26.786670538420633" lon="115.89799922912331"><ele>315.0</ele><time>2026-04-15T06:47:42.001Z</time></trkpt><trkpt lat="-26.786669197090628" lon="115.8976850131579"><ele>315.0</ele><time>2026-04-15T06:47:43.001Z</time></trkpt><trkpt lat="-26.786668716079696" lon="115.89737442586171"><ele>314.5</ele><time>2026-04-15T06:47:44.001Z</time></trkpt><trkpt lat="-26.786670808239982" lon="115.89706428680613"><ele>314.0</ele><time>2026-04-15T06:47:45.001Z</time></trkpt><trkpt lat="-26.786673684869136" lon="115.89675757982825"><ele>314.5</ele><time>2026-04-15T06:47:46.001Z</time></trkpt><trkpt lat="-26.78667635782728" lon="115.89644474809366"><ele>315.0</ele><time>2026-04-15T06:47:47.001Z</time></trkpt><trkpt lat="-26.786678616308624" lon="115.89612965675035"><ele>314.5</ele><time>2026-04-15T06:47:48.001Z</time></trkpt><trkpt lat="-26.786681637590796" lon="115.89581004136826"><ele>314.0</ele><time>2026-04-15T06:47:49.001Z</time></trkpt><trkpt lat="-26.786684553132268" lon="115.89549265102922"><ele>314.0</ele><time>2026-04-15T06:47:50.001Z</time></trkpt><trkpt lat="-26.786686163576785" lon="115.89517532119844"><ele>314.0</ele><time>2026-04-15T06:47:51.001Z</time></trkpt><trkpt lat="-26.786685138530128" lon="115.89485753061824"><ele>314.5</ele><time>2026-04-15T06:47:52.001Z</time></trkpt><trkpt lat="-26.786684092223506" lon="115.89453831679991"><ele>315.0</ele><time>2026-04-15T06:47:53.001Z</time></trkpt><trkpt lat="-26.786685804270142" lon="115.89422270578983"><ele>316.0</ele><time>2026-04-15T06:47:54.001Z</time></trkpt><trkpt lat="-26.786690742649157" lon="115.89389969857504"><ele>317.0</ele><time>2026-04-15T06:47:55.001Z</time></trkpt><trkpt lat="-26.78669275484272" lon="115.89357475206579"><ele>317.0</ele><time>2026-04-15T06:47:56.001Z</time></trkpt><trkpt lat="-26.786694570705453" lon="115.89325339635691"><ele>317.0</ele><time>2026-04-15T06:47:57.001Z</time></trkpt><trkpt lat="-26.786693919060376" lon="115.89293230566393"><ele>317.0</ele><time>2026-04-15T06:47:58.001Z</time></trkpt><trkpt lat="-26.78669099853487" lon="115.89261030469491"><ele>317.0</ele><time>2026-04-15T06:47:59.001Z</time></trkpt><trkpt lat="-26.786690093499928" lon="115.89229004884871"><ele>317.0</ele><time>2026-04-15T06:48:00.001Z</time></trkpt><trkpt lat="-26.786692926259796" lon="115.89196770799474"><ele>317.0</ele><time>2026-04-15T06:48:01.001Z</time></trkpt><trkpt lat="-26.786696328444346" lon="115.89164908865834"><ele>317.0</ele><time>2026-04-15T06:48:02.001Z</time></trkpt><trkpt lat="-26.786697112592748" lon="115.89132700352866"><ele>317.0</ele><time>2026-04-15T06:48:03.001Z</time></trkpt><trkpt lat="-26.786699351056416" lon="115.89100439628075"><ele>317.0</ele><time>2026-04-15T06:48:04.001Z</time></trkpt><trkpt lat="-26.786698711119204" lon="115.89067672297338"><ele>317.0</ele><time>2026-04-15T06:48:05.001Z</time></trkpt><trkpt lat="-26.78669923580085" lon="115.89034646676801"><ele>317.5</ele><time>2026-04-15T06:48:06.001Z</time></trkpt><trkpt lat="-26.78669889528822" lon="115.8900181032294"><ele>318.0</ele><time>2026-04-15T06:48:07.001Z</time></trkpt><trkpt lat="-26.78669975350156" lon="115.88969367447012"><ele>318.0</ele><time>2026-04-15T06:48:08.001Z</time></trkpt><trkpt lat="-26.786702972867314" lon="115.8893698809179"><ele>318.0</ele><time>2026-04-15T06:48:09.001Z</time></trkpt><trkpt lat="-26.786704776376343" lon="115.8890499051012"><ele>318.0</ele><time>2026-04-15T06:48:10.001Z</time></trkpt><trkpt lat="-26.78670376904497" lon="115.88872511815907"><ele>318.0</ele><time>2026-04-15T06:48:11.001Z</time></trkpt><trkpt lat="-26.786702100968196" lon="115.88840124772715"><ele>318.5</ele><time>2026-04-15T06:48:12.001Z</time></trkpt><trkpt lat="-26.786701745569836" lon="115.88808376143845"><ele>319.0</ele><time>2026-04-15T06:48:13.001Z</time></trkpt><trkpt lat="-26.786704006133895" lon="115.88778630435455"><ele>319.5</ele><time>2026-04-15T06:48:14.001Z</time></trkpt><trkpt lat="-26.78670435177154" lon="115.88749592552708"><ele>320.0</ele><time>2026-04-15T06:48:15.001Z</time></trkpt><trkpt lat="-26.786703918461782" lon="115.88722891607853"><ele>320.0</ele><time>2026-04-15T06:48:16.001Z</time></trkpt><trkpt lat="-26.786701641918594" lon="115.8869562759954"><ele>320.0</ele><time>2026-04-15T06:48:17.001Z</time></trkpt><trkpt lat="-26.786698619729407" lon="115.88666872643309"><ele>320.5</ele><time>2026-04-15T06:48:18.001Z</time></trkpt><trkpt lat="-26.78669770512827" lon="115.88637387937432"><ele>321.0</ele><time>2026-04-15T06:48:19.001Z</time></trkpt><trkpt lat="-26.78669826560943" lon="115.88608343048298"><ele>320.5</ele><time>2026-04-15T06:48:20.001Z</time></trkpt><trkpt lat="-26.786699807214806" lon="115.88580335139876"><ele>320.0</ele><time>2026-04-15T06:48:21.001Z</time></trkpt><trkpt lat="-26.786701505778773" lon="115.88551832086765"><ele>320.0</ele><time>2026-04-15T06:48:22.001Z</time></trkpt><trkpt lat="-26.78669910889889" lon="115.8852533780534"><ele>320.0</ele><time>2026-04-15T06:48:23.001Z</time></trkpt><trkpt lat="-26.786698041912544" lon="115.88500737325549"><ele>320.0</ele><time>2026-04-15T06:48:24.001Z</time></trkpt><trkpt lat="-26.786697566784028" lon="115.88477085576332"><ele>320.0</ele><time>2026-04-15T06:48:25.001Z</time></trkpt><trkpt lat="-26.786702504308966" lon="115.88454211123904"><ele>320.0</ele><time>2026-04-15T06:48:26.001Z</time></trkpt><trkpt lat="-26.786707385805567" lon="115.88432935181415"><ele>319.33333333333337</ele><time>2026-04-15T06:48:27.001Z</time></trkpt><trkpt lat="-26.78671203005426" lon="115.88413232935979"><ele>318.6666666666667</ele><time>2026-04-15T06:48:28.001Z</time></trkpt><trkpt lat="-26.786716536020776" lon="115.88394498187465"><ele>318.0</ele><time>2026-04-15T06:48:29.001Z</time></trkpt><trkpt lat="-26.786719181470257" lon="115.88378001035574"><ele>318.0</ele><time>2026-04-15T06:48:30.001Z</time></trkpt><trkpt lat="-26.786720049730707" lon="115.88363427084772"><ele>318.0</ele><time>2026-04-15T06:48:31.001Z</time></trkpt><trkpt lat="-26.7867216190589" lon="115.88351077767956"><ele>318.0</ele><time>2026-04-15T06:48:32.001Z</time></trkpt><trkpt lat="-26.78672637847436" lon="115.8834065168579"><ele>318.0</ele><time>2026-04-15T06:48:33.001Z</time></trkpt><trkpt lat="-26.786729238583508" lon="115.88332027454626"><ele>318.0</ele><time>2026-04-15T06:48:34.001Z</time></trkpt><trkpt lat="-26.78673119228727" lon="115.88321511620931"><ele>318.0</ele><time>2026-04-15T06:48:36.001Z</time></trkpt><trkpt lat="-26.78671838159769" lon="115.88307620251487"><ele>318.0</ele><time>2026-04-15T06:49:40.001Z</time></trkpt><trkpt lat="-26.78671451142801" lon="115.88298315462949"><ele>318.0</ele><time>2026-04-15T06:49:41.001Z</time></trkpt><trkpt lat="-26.78671307651706" lon="115.88285790772827"><ele>318.0</ele><time>2026-04-15T06:49:42.001Z</time></trkpt><trkpt lat="-26.786713970956193" lon="115.88271969554708"><ele>318.0</ele><time>2026-04-15T06:49:43.001Z</time></trkpt><trkpt lat="-26.786716689107994" lon="115.8825509833057"><ele>318.0</ele><time>2026-04-15T06:49:44.001Z</time></trkpt><trkpt lat="-26.78671735149044" lon="115.88237663359509"><ele>318.0</ele><time>2026-04-15T06:49:45.001Z</time></trkpt><trkpt lat="-26.786718434008396" lon="115.88218960965744"><ele>318.0</ele><time>2026-04-15T06:49:46.001Z</time></trkpt><trkpt lat="-26.786722305405355" lon="115.88198173262091"><ele>316.6666666666667</ele><time>2026-04-15T06:49:47.001Z</time></trkpt><trkpt lat="-26.786723127558734" lon="115.8817535773372"><ele>315.33333333333337</ele><time>2026-04-15T06:49:48.001Z</time></trkpt><trkpt lat="-26.786722199449258" lon="115.88151506719545"><ele>314.0</ele><time>2026-04-15T06:49:49.001Z</time></trkpt><trkpt lat="-26.786722805022823" lon="115.88127537991475"><ele>314.0</ele><time>2026-04-15T06:49:50.001Z</time></trkpt><trkpt lat="-26.786725937715744" lon="115.88101710435265"><ele>314.0</ele><time>2026-04-15T06:49:51.001Z</time></trkpt><trkpt lat="-26.78673011817904" lon="115.8807434626503"><ele>316.0</ele><time>2026-04-15T06:49:52.001Z</time></trkpt><trkpt lat="-26.786731234576195" lon="115.88045830601303"><ele>318.0</ele><time>2026-04-15T06:49:53.001Z</time></trkpt><trkpt lat="-26.786730094472606" lon="115.88017424711283"><ele>316.5</ele><time>2026-04-15T06:49:54.001Z</time></trkpt><trkpt lat="-26.786729025283684" lon="115.87989097800256"><ele>315.0</ele><time>2026-04-15T06:49:55.001Z</time></trkpt><trkpt lat="-26.786728921337414" lon="115.8795995346811"><ele>315.0</ele><time>2026-04-15T06:49:56.001Z</time></trkpt><trkpt lat="-26.786732161713193" lon="115.87931221733663"><ele>315.0</ele><time>2026-04-15T06:49:57.001Z</time></trkpt><trkpt lat="-26.786736509991" lon="115.87901432176213"><ele>315.5</ele><time>2026-04-15T06:49:58.001Z</time></trkpt><trkpt lat="-26.786737889022312" lon="115.87871461917229"><ele>316.0</ele><time>2026-04-15T06:49:59.001Z</time></trkpt><trkpt lat="-26.786737877067907" lon="115.87841597427361"><ele>316.5</ele><time>2026-04-15T06:50:00.001Z</time></trkpt><trkpt lat="-26.78674066316554" lon="115.87812093974878"><ele>317.0</ele><time>2026-04-15T06:50:01.001Z</time></trkpt><trkpt lat="-26.786743668940357" lon="115.87782328734932"><ele>318.0</ele><time>2026-04-15T06:50:02.001Z</time></trkpt><trkpt lat="-26.786745331098185" lon="115.8775313853974"><ele>319.0</ele><time>2026-04-15T06:50:03.001Z</time></trkpt><trkpt lat="-26.786745993976922" lon="115.877242748753"><ele>319.0</ele><time>2026-04-15T06:50:04.001Z</time></trkpt><trkpt lat="-26.786746085439532" lon="115.87695551741838"><ele>319.0</ele><time>2026-04-15T06:50:05.001Z</time></trkpt><trkpt lat="-26.78674771036559" lon="115.87667341620234"><ele>320.0</ele><time>2026-04-15T06:50:06.001Z</time></trkpt><trkpt lat="-26.786751446740706" lon="115.87638909311472"><ele>321.0</ele><time>2026-04-15T06:50:07.001Z</time></trkpt><trkpt lat="-26.78675280584606" lon="115.87610338041996"><ele>319.0</ele><time>2026-04-15T06:50:08.001Z</time></trkpt><trkpt lat="-26.786753292464894" lon="115.87581451997782"><ele>317.0</ele><time>2026-04-15T06:50:09.001Z</time></trkpt><trkpt lat="-26.786750823263443" lon="115.87551805913493"><ele>317.0</ele><time>2026-04-15T06:50:10.001Z</time></trkpt><trkpt lat="-26.78674946804247" lon="115.87522258210397"><ele>317.0</ele><time>2026-04-15T06:50:11.001Z</time></trkpt><trkpt lat="-26.786749970768632" lon="115.87492516245884"><ele>317.5</ele><time>2026-04-15T06:50:12.001Z</time></trkpt><trkpt lat="-26.786752181024465" lon="115.87462466730496"><ele>318.0</ele><time>2026-04-15T06:50:13.001Z</time></trkpt><trkpt lat="-26.78675326316031" lon="115.87431975016253"><ele>319.0</ele><time>2026-04-15T06:50:14.001Z</time></trkpt><trkpt lat="-26.786754478662345" lon="115.87401009784745"><ele>320.0</ele><time>2026-04-15T06:50:15.001Z</time></trkpt><trkpt lat="-26.78675689959307" lon="115.87369770497222"><ele>320.0</ele><time>2026-04-15T06:50:16.001Z</time></trkpt><trkpt lat="-26.78675999213832" lon="115.87338513143199"><ele>320.0</ele><time>2026-04-15T06:50:17.001Z</time></trkpt><trkpt lat="-26.78676364015969" lon="115.87306970664375"><ele>320.0</ele><time>2026-04-15T06:50:18.001Z</time></trkpt><trkpt lat="-26.786767844723652" lon="115.87275601925576"><ele>320.0</ele><time>2026-04-15T06:50:19.001Z</time></trkpt><trkpt lat="-26.786775247463304" lon="115.87244017308454"><ele>320.0</ele><time>2026-04-15T06:50:20.001Z</time></trkpt><trkpt lat="-26.78678113609559" lon="115.87212094460011"><ele>320.0</ele><time>2026-04-15T06:50:21.001Z</time></trkpt><trkpt lat="-26.786785449133315" lon="115.87180379015793"><ele>320.5</ele><time>2026-04-15T06:50:22.001Z</time></trkpt><trkpt lat="-26.786788747819706" lon="115.87148150523245"><ele>321.0</ele><time>2026-04-15T06:50:23.001Z</time></trkpt><trkpt lat="-26.78678791984852" lon="115.87116099818681"><ele>320.5</ele><time>2026-04-15T06:50:24.001Z</time></trkpt><trkpt lat="-26.786786286796847" lon="115.87083671262958"><ele>320.0</ele><time>2026-04-15T06:50:25.001Z</time></trkpt><trkpt lat="-26.78678672175225" lon="115.87051448022176"><ele>320.0</ele><time>2026-04-15T06:50:26.001Z</time></trkpt><trkpt lat="-26.786788597042356" lon="115.87019259713384"><ele>320.0</ele><time>2026-04-15T06:50:27.001Z</time></trkpt><trkpt lat="-26.7867928311283" lon="115.86987208624384"><ele>320.0</ele><time>2026-04-15T06:50:28.001Z</time></trkpt><trkpt lat="-26.786794643060475" lon="115.86955213729803"><ele>320.0</ele><time>2026-04-15T06:50:29.001Z</time></trkpt><trkpt lat="-26.786796110104383" lon="115.86923145218779"><ele>320.0</ele><time>2026-04-15T06:50:30.001Z</time></trkpt><trkpt lat="-26.786800217951892" lon="115.86890916332108"><ele>320.0</ele><time>2026-04-15T06:50:31.001Z</time></trkpt><trkpt lat="-26.786804574046176" lon="115.86858775133808"><ele>320.0</ele><time>2026-04-15T06:50:32.001Z</time></trkpt><trkpt lat="-26.786809252265076" lon="115.86826718516552"><ele>320.0</ele><time>2026-04-15T06:50:33.001Z</time></trkpt><trkpt lat="-26.78681009847076" lon="115.86794923298429"><ele>320.0</ele><time>2026-04-15T06:50:34.001Z</time></trkpt><trkpt lat="-26.786810638618284" lon="115.86763099053972"><ele>320.0</ele><time>2026-04-15T06:50:35.001Z</time></trkpt><trkpt lat="-26.786809827601573" lon="115.86731397582545"><ele>321.0</ele><time>2026-04-15T06:50:36.001Z</time></trkpt><trkpt lat="-26.78681052761341" lon="115.86700114090004"><ele>322.0</ele><time>2026-04-15T06:50:37.001Z</time></trkpt><trkpt lat="-26.78681236977449" lon="115.86668378728378"><ele>322.5</ele><time>2026-04-15T06:50:38.001Z</time></trkpt><trkpt lat="-26.786817121125793" lon="115.86636882392824"><ele>323.0</ele><time>2026-04-15T06:50:39.001Z</time></trkpt><trkpt lat="-26.786821701167057" lon="115.8660524078093"><ele>323.0</ele><time>2026-04-15T06:50:40.001Z</time></trkpt><trkpt lat="-26.786827978845718" lon="115.86572839888801"><ele>323.0</ele><time>2026-04-15T06:50:41.001Z</time></trkpt><trkpt lat="-26.786834672172937" lon="115.86540324791518"><ele>323.5</ele><time>2026-04-15T06:50:42.001Z</time></trkpt><trkpt lat="-26.786840150424176" lon="115.86507752590052"><ele>324.0</ele><time>2026-04-15T06:50:43.001Z</time></trkpt><trkpt lat="-26.786843796671377" lon="115.86474758900347"><ele>324.0</ele><time>2026-04-15T06:50:44.001Z</time></trkpt><trkpt lat="-26.786847163050055" lon="115.86442079177671"><ele>324.0</ele><time>2026-04-15T06:50:45.001Z</time></trkpt><trkpt lat="-26.78685214765705" lon="115.86409559760403"><ele>324.0</ele><time>2026-04-15T06:50:46.001Z</time></trkpt><trkpt lat="-26.78685748100958" lon="115.86377163264034"><ele>324.0</ele><time>2026-04-15T06:50:47.001Z</time></trkpt><trkpt lat="-26.786863182156463" lon="115.86344642316233"><ele>324.0</ele><time>2026-04-15T06:50:48.001Z</time></trkpt><trkpt lat="-26.78686831357464" lon="115.8631246960599"><ele>324.0</ele><time>2026-04-15T06:50:49.001Z</time></trkpt><trkpt lat="-26.786873457619645" lon="115.86280076725421"><ele>324.0</ele><time>2026-04-15T06:50:50.001Z</time></trkpt><trkpt lat="-26.78687666527525" lon="115.86247280121546"><ele>324.0</ele><time>2026-04-15T06:50:51.001Z</time></trkpt><trkpt lat="-26.786879308896488" lon="115.86214417835603"><ele>324.0</ele><time>2026-04-15T06:50:52.001Z</time></trkpt><trkpt lat="-26.78688389021208" lon="115.86181397055469"><ele>324.0</ele><time>2026-04-15T06:50:53.001Z</time></trkpt><trkpt lat="-26.786887001659196" lon="115.86148335190525"><ele>324.0</ele><time>2026-04-15T06:50:54.001Z</time></trkpt><trkpt lat="-26.78688842004376" lon="115.8611549397762"><ele>324.0</ele><time>2026-04-15T06:50:55.001Z</time></trkpt><trkpt lat="-26.786887093785637" lon="115.86082713976978"><ele>324.0</ele><time>2026-04-15T06:50:56.001Z</time></trkpt><trkpt lat="-26.786885359005936" lon="115.86050358426766"><ele>324.0</ele><time>2026-04-15T06:50:57.001Z</time></trkpt><trkpt lat="-26.78688699702052" lon="115.86017994112937"><ele>323.0</ele><time>2026-04-15T06:50:58.001Z</time></trkpt><trkpt lat="-26.78689198230872" lon="115.85985278424896"><ele>322.0</ele><time>2026-04-15T06:50:59.001Z</time></trkpt><trkpt lat="-26.786895965906986" lon="115.85952897297304"><ele>322.5</ele><time>2026-04-15T06:51:00.001Z</time></trkpt><trkpt lat="-26.78689973442463" lon="115.85920724681938"><ele>323.0</ele><time>2026-04-15T06:51:01.001Z</time></trkpt><trkpt lat="-26.786903521679967" lon="115.85888753810501"><ele>323.0</ele><time>2026-04-15T06:51:02.001Z</time></trkpt><trkpt lat="-26.786906318315033" lon="115.85856590640147"><ele>323.0</ele><time>2026-04-15T06:51:03.001Z</time></trkpt><trkpt lat="-26.786911438530627" lon="115.85824450883119"><ele>322.5</ele><time>2026-04-15T06:51:04.001Z</time></trkpt><trkpt lat="-26.786916343799977" lon="115.85792760232084"><ele>322.0</ele><time>2026-04-15T06:51:05.001Z</time></trkpt><trkpt lat="-26.786920938676882" lon="115.85761051888736"><ele>322.0</ele><time>2026-04-15T06:51:06.001Z</time></trkpt><trkpt lat="-26.78692394419159" lon="115.85729243632647"><ele>322.0</ele><time>2026-04-15T06:51:07.001Z</time></trkpt><trkpt lat="-26.786926952082535" lon="115.85697167239982"><ele>321.0</ele><time>2026-04-15T06:51:08.001Z</time></trkpt><trkpt lat="-26.786929706637366" lon="115.85664662400751"><ele>320.0</ele><time>2026-04-15T06:51:09.001Z</time></trkpt><trkpt lat="-26.78693279717453" lon="115.85632339631684"><ele>320.0</ele><time>2026-04-15T06:51:10.001Z</time></trkpt><trkpt lat="-26.78693675904339" lon="115.85600056498221"><ele>320.0</ele><time>2026-04-15T06:51:11.001Z</time></trkpt><trkpt lat="-26.786939023514904" lon="115.85567988315304"><ele>321.0</ele><time>2026-04-15T06:51:12.001Z</time></trkpt><trkpt lat="-26.7869401843479" lon="115.855355457159"><ele>322.0</ele><time>2026-04-15T06:51:13.001Z</time></trkpt><trkpt lat="-26.78694178826391" lon="115.85503065270726"><ele>322.0</ele><time>2026-04-15T06:51:14.001Z</time></trkpt><trkpt lat="-26.786944047485143" lon="115.85470785497947"><ele>322.0</ele><time>2026-04-15T06:51:15.001Z</time></trkpt><trkpt lat="-26.78694687035515" lon="115.85438340488662"><ele>323.0</ele><time>2026-04-15T06:51:16.001Z</time></trkpt><trkpt lat="-26.78694876606293" lon="115.85405905979383"><ele>324.0</ele><time>2026-04-15T06:51:17.001Z</time></trkpt><trkpt lat="-26.786949498672154" lon="115.85373476949218"><ele>324.0</ele><time>2026-04-15T06:51:18.001Z</time></trkpt><trkpt lat="-26.786950509525123" lon="115.85341501223724"><ele>324.0</ele><time>2026-04-15T06:51:19.001Z</time></trkpt><trkpt lat="-26.786953926527616" lon="115.85309048036503"><ele>324.0</ele><time>2026-04-15T06:51:20.001Z</time></trkpt><trkpt lat="-26.78695730527806" lon="115.85276952372124"><ele>324.0</ele><time>2026-04-15T06:51:21.001Z</time></trkpt><trkpt lat="-26.786959664404197" lon="115.85244607308395"><ele>324.0</ele><time>2026-04-15T06:51:22.001Z</time></trkpt><trkpt lat="-26.786962518399935" lon="115.85211286606977"><ele>324.0</ele><time>2026-04-15T06:51:23.001Z</time></trkpt><trkpt lat="-26.786962425218967" lon="115.85178791601238"><ele>323.5</ele><time>2026-04-15T06:51:24.001Z</time></trkpt><trkpt lat="-26.78696561728102" lon="115.85145851471057"><ele>323.0</ele><time>2026-04-15T06:51:25.001Z</time></trkpt><trkpt lat="-26.78696952167967" lon="115.85112862091985"><ele>322.5</ele><time>2026-04-15T06:51:26.001Z</time></trkpt><trkpt lat="-26.786969744433808" lon="115.85080169559653"><ele>322.0</ele><time>2026-04-15T06:51:27.001Z</time></trkpt><trkpt lat="-26.786970582549237" lon="115.8504676528057"><ele>322.0</ele><time>2026-04-15T06:51:28.001Z</time></trkpt><trkpt lat="-26.786968777233877" lon="115.85013457815303"><ele>322.0</ele><time>2026-04-15T06:51:29.001Z</time></trkpt><trkpt lat="-26.786967693786096" lon="115.84980133743069"><ele>322.0</ele><time>2026-04-15T06:51:30.001Z</time></trkpt><trkpt lat="-26.78696868147372" lon="115.84947057131569"><ele>322.0</ele><time>2026-04-15T06:51:31.001Z</time></trkpt><trkpt lat="-26.786970422974473" lon="115.84914077226675"><ele>321.5</ele><time>2026-04-15T06:51:32.001Z</time></trkpt><trkpt lat="-26.78697095983939" lon="115.84880993036896"><ele>321.0</ele><time>2026-04-15T06:51:33Z</time></trkpt><trkpt lat="-26.786973618328446" lon="115.84848233573906"><ele>320.5</ele><time>2026-04-15T06:51:34Z</time></trkpt><trkpt lat="-26.786975405276863" lon="115.84815534942726"><ele>320.0</ele><time>2026-04-15T06:51:35Z</time></trkpt><trkpt lat="-26.786979531132857" lon="115.847835269681"><ele>320.5</ele><time>2026-04-15T06:51:36Z</time></trkpt><trkpt lat="-26.786986755616745" lon="115.8475162161393"><ele>321.0</ele><time>2026-04-15T06:51:37Z</time></trkpt><trkpt lat="-26.786994029541937" lon="115.84720251763233"><ele>321.0</ele><time>2026-04-15T06:51:38Z</time></trkpt><trkpt lat="-26.78700182831806" lon="115.84689178306795"><ele>321.0</ele><time>2026-04-15T06:51:39Z</time></trkpt><trkpt lat="-26.78701251502441" lon="115.84657806915152"><ele>321.0</ele><time>2026-04-15T06:51:40Z</time></trkpt><trkpt lat="-26.787023569007694" lon="115.84626407591965"><ele>321.0</ele><time>2026-04-15T06:51:41Z</time></trkpt><trkpt lat="-26.787034158674494" lon="115.84595556115741"><ele>321.5</ele><time>2026-04-15T06:51:42Z</time></trkpt><trkpt lat="-26.787047092345578" lon="115.8456545039772"><ele>322.0</ele><time>2026-04-15T06:51:43Z</time></trkpt><trkpt lat="-26.78705932390191" lon="115.84535459425463"><ele>322.0</ele><time>2026-04-15T06:51:44Z</time></trkpt><trkpt lat="-26.78707121308404" lon="115.84505242429479"><ele>322.0</ele><time>2026-04-15T06:51:45Z</time></trkpt><trkpt lat="-26.787080309016464" lon="115.84476661982256"><ele>322.0</ele><time>2026-04-15T06:51:46Z</time></trkpt><trkpt lat="-26.787089108300417" lon="115.84449025308321"><ele>322.0</ele><time>2026-04-15T06:51:47Z</time></trkpt><trkpt lat="-26.787096560827816" lon="115.84420792473753"><ele>321.5</ele><time>2026-04-15T06:51:48Z</time></trkpt><trkpt lat="-26.787099233801403" lon="115.84392181529985"><ele>321.0</ele><time>2026-04-15T06:51:49Z</time></trkpt><trkpt lat="-26.787097739932456" lon="115.84362472716022"><ele>320.0</ele><time>2026-04-15T06:51:50Z</time></trkpt><trkpt lat="-26.78709683586138" lon="115.84332565198658"><ele>319.0</ele><time>2026-04-15T06:51:51Z</time></trkpt><trkpt lat="-26.787099347068995" lon="115.8430216257239"><ele>319.0</ele><time>2026-04-15T06:51:52Z</time></trkpt><trkpt lat="-26.78710248618974" lon="115.8427159570468"><ele>319.0</ele><time>2026-04-15T06:51:53Z</time></trkpt><trkpt lat="-26.7871030219643" lon="115.84241099717667"><ele>318.0</ele><time>2026-04-15T06:51:54Z</time></trkpt><trkpt lat="-26.787100887904614" lon="115.84210159849411"><ele>317.0</ele><time>2026-04-15T06:51:55Z</time></trkpt><trkpt lat="-26.78709556775007" lon="115.84179559325135"><ele>316.5</ele><time>2026-04-15T06:51:56.001Z</time></trkpt><trkpt lat="-26.787087385302648" lon="115.84148773011681"><ele>316.0</ele><time>2026-04-15T06:51:57.001Z</time></trkpt><trkpt lat="-26.787077286126458" lon="115.8411838656852"><ele>315.5</ele><time>2026-04-15T06:51:58.001Z</time></trkpt><trkpt lat="-26.787066756797138" lon="115.84087655448594"><ele>315.0</ele><time>2026-04-15T06:51:59.001Z</time></trkpt><trkpt lat="-26.78705694781614" lon="115.8405731099729"><ele>315.0</ele><time>2026-04-15T06:52:00.001Z</time></trkpt><trkpt lat="-26.78704543426288" lon="115.8402729356224"><ele>315.0</ele><time>2026-04-15T06:52:01.001Z</time></trkpt><trkpt lat="-26.787031262368416" lon="115.83997321858399"><ele>315.5</ele><time>2026-04-15T06:52:02.001Z</time></trkpt><trkpt lat="-26.787017691352666" lon="115.83967908337557"><ele>316.0</ele><time>2026-04-15T06:52:03.001Z</time></trkpt><trkpt lat="-26.787007397619494" lon="115.83938657172558"><ele>316.5</ele><time>2026-04-15T06:52:04.001Z</time></trkpt><trkpt lat="-26.787002542187924" lon="115.83909110364948"><ele>317.0</ele><time>2026-04-15T06:52:05.001Z</time></trkpt><trkpt lat="-26.787003320239286" lon="115.83878839777962"><ele>317.0</ele><time>2026-04-15T06:52:06.001Z</time></trkpt><trkpt lat="-26.78700768802969" lon="115.83848971863142"><ele>317.0</ele><time>2026-04-15T06:52:07.001Z</time></trkpt><trkpt lat="-26.78701238332015" lon="115.83819209142833"><ele>317.0</ele><time>2026-04-15T06:52:08.001Z</time></trkpt><trkpt lat="-26.78701637856542" lon="115.83789181759288"><ele>317.0</ele><time>2026-04-15T06:52:09.001Z</time></trkpt><trkpt lat="-26.787017396326846" lon="115.83759063723068"><ele>318.0</ele><time>2026-04-15T06:52:10.001Z</time></trkpt><trkpt lat="-26.787019223374347" lon="115.83728874398193"><ele>319.0</ele><time>2026-04-15T06:52:11.001Z</time></trkpt><trkpt lat="-26.787021413927768" lon="115.83698481267744"><ele>317.0</ele><time>2026-04-15T06:52:12.001Z</time></trkpt><trkpt lat="-26.787025490983734" lon="115.83668335317023"><ele>315.0</ele><time>2026-04-15T06:52:13.001Z</time></trkpt><trkpt lat="-26.787032830623787" lon="115.83637782266327"><ele>315.0</ele><time>2026-04-15T06:52:14.001Z</time></trkpt><trkpt lat="-26.787038571651184" lon="115.83606969305477"><ele>315.0</ele><time>2026-04-15T06:52:15.001Z</time></trkpt><trkpt lat="-26.787043898117147" lon="115.83575901361267"><ele>314.5</ele><time>2026-04-15T06:52:16.001Z</time></trkpt><trkpt lat="-26.787049279207988" lon="115.83544817628132"><ele>314.0</ele><time>2026-04-15T06:52:17.001Z</time></trkpt><trkpt lat="-26.78705380259123" lon="115.83513946730532"><ele>313.0</ele><time>2026-04-15T06:52:18.001Z</time></trkpt><trkpt lat="-26.787059508231266" lon="115.83482947963027"><ele>312.0</ele><time>2026-04-15T06:52:19.001Z</time></trkpt><trkpt lat="-26.787062705785303" lon="115.83451748390638"><ele>312.0</ele><time>2026-04-15T06:52:20.001Z</time></trkpt><trkpt lat="-26.78706616113896" lon="115.83420402136846"><ele>312.0</ele><time>2026-04-15T06:52:21.001Z</time></trkpt><trkpt lat="-26.787069314962835" lon="115.83388885369358"><ele>312.0</ele><time>2026-04-15T06:52:22.001Z</time></trkpt><trkpt lat="-26.787074181786036" lon="115.83357512452018"><ele>312.0</ele><time>2026-04-15T06:52:23.001Z</time></trkpt><trkpt lat="-26.787078908805654" lon="115.8332632525552"><ele>313.5</ele><time>2026-04-15T06:52:24.001Z</time></trkpt><trkpt lat="-26.78708466937726" lon="115.83295304841094"><ele>315.0</ele><time>2026-04-15T06:52:25.001Z</time></trkpt><trkpt lat="-26.787089109490136" lon="115.832646404533"><ele>314.5</ele><time>2026-04-15T06:52:26.001Z</time></trkpt><trkpt lat="-26.78709417734672" lon="115.83233895028616"><ele>314.0</ele><time>2026-04-15T06:52:27.001Z</time></trkpt><trkpt lat="-26.787098695214272" lon="115.83203171531231"><ele>313.0</ele><time>2026-04-15T06:52:28.001Z</time></trkpt><trkpt lat="-26.78710099935688" lon="115.83172263629494"><ele>312.0</ele><time>2026-04-15T06:52:29.001Z</time></trkpt><trkpt lat="-26.787103194638128" lon="115.83140555549448"><ele>312.0</ele><time>2026-04-15T06:52:30.001Z</time></trkpt><trkpt lat="-26.787109036114625" lon="115.83108885475005"><ele>312.0</ele><time>2026-04-15T06:52:31.001Z</time></trkpt><trkpt lat="-26.787116470685024" lon="115.83076854062155"><ele>312.0</ele><time>2026-04-15T06:52:32.001Z</time></trkpt><trkpt lat="-26.787121407042513" lon="115.83044746486705"><ele>312.0</ele><time>2026-04-15T06:52:33.001Z</time></trkpt><trkpt lat="-26.78712699682949" lon="115.83012848228017"><ele>312.5</ele><time>2026-04-15T06:52:34.001Z</time></trkpt><trkpt lat="-26.78713309846885" lon="115.82981566740322"><ele>313.0</ele><time>2026-04-15T06:52:35.001Z</time></trkpt><trkpt lat="-26.787139099624632" lon="115.82950542918964"><ele>312.0</ele><time>2026-04-15T06:52:36.001Z</time></trkpt><trkpt lat="-26.787143789510914" lon="115.8292002662181"><ele>311.0</ele><time>2026-04-15T06:52:37.001Z</time></trkpt><trkpt lat="-26.78714845023709" lon="115.82889769791556"><ele>311.0</ele><time>2026-04-15T06:52:38.001Z</time></trkpt><trkpt lat="-26.787151823765367" lon="115.82859365178265"><ele>311.0</ele><time>2026-04-15T06:52:39.001Z</time></trkpt><trkpt lat="-26.787154557106003" lon="115.82828714521824"><ele>311.5</ele><time>2026-04-15T06:52:40.001Z</time></trkpt><trkpt lat="-26.787155320067527" lon="115.82797799150478"><ele>312.0</ele><time>2026-04-15T06:52:41.001Z</time></trkpt><trkpt lat="-26.78715453735622" lon="115.8276680075804"><ele>311.5</ele><time>2026-04-15T06:52:42.001Z</time></trkpt><trkpt lat="-26.787151320348013" lon="115.82735744766414"><ele>311.0</ele><time>2026-04-15T06:52:43.001Z</time></trkpt><trkpt lat="-26.787148062971983" lon="115.82705094925691"><ele>311.0</ele><time>2026-04-15T06:52:44.001Z</time></trkpt><trkpt lat="-26.787145139370118" lon="115.82674509726755"><ele>311.0</ele><time>2026-04-15T06:52:45.001Z</time></trkpt><trkpt lat="-26.78713937459844" lon="115.826440513325"><ele>311.0</ele><time>2026-04-15T06:52:46.001Z</time></trkpt><trkpt lat="-26.787131439687972" lon="115.82613375342903"><ele>311.0</ele><time>2026-04-15T06:52:47.001Z</time></trkpt><trkpt lat="-26.787122898202664" lon="115.82582506113064"><ele>310.5</ele><time>2026-04-15T06:52:48.001Z</time></trkpt><trkpt lat="-26.78711747398834" lon="115.8255154805494"><ele>310.0</ele><time>2026-04-15T06:52:49.001Z</time></trkpt><trkpt lat="-26.78710787601718" lon="115.82521034765813"><ele>310.0</ele><time>2026-04-15T06:52:50.001Z</time></trkpt><trkpt lat="-26.787093646783806" lon="115.82490586388104"><ele>310.0</ele><time>2026-04-15T06:52:51.001Z</time></trkpt><trkpt lat="-26.787082103751697" lon="115.82460157360174"><ele>310.0</ele><time>2026-04-15T06:52:52.001Z</time></trkpt><trkpt lat="-26.78707410508289" lon="115.82429446714185"><ele>310.0</ele><time>2026-04-15T06:52:53.001Z</time></trkpt><trkpt lat="-26.787068145950208" lon="115.82398579368254"><ele>310.0</ele><time>2026-04-15T06:52:54.001Z</time></trkpt><trkpt lat="-26.787060279612103" lon="115.82368068530167"><ele>310.0</ele><time>2026-04-15T06:52:55.001Z</time></trkpt><trkpt lat="-26.787054788203818" lon="115.82339150491059"><ele>310.5</ele><time>2026-04-15T06:52:56.001Z</time></trkpt><trkpt lat="-26.787051860033454" lon="115.82311519010779"><ele>311.0</ele><time>2026-04-15T06:52:57.001Z</time></trkpt><trkpt lat="-26.787049655177672" lon="115.82285443879636"><ele>310.5</ele><time>2026-04-15T06:52:58.001Z</time></trkpt><trkpt lat="-26.787042063669595" lon="115.82258950686001"><ele>310.0</ele><time>2026-04-15T06:52:59.001Z</time></trkpt><trkpt lat="-26.78703730464569" lon="115.82232114886206"><ele>310.0</ele><time>2026-04-15T06:53:00.001Z</time></trkpt><trkpt lat="-26.78703209271157" lon="115.82204796237967"><ele>310.0</ele><time>2026-04-15T06:53:01.001Z</time></trkpt><trkpt lat="-26.787025115970053" lon="115.82178391335238"><ele>310.0</ele><time>2026-04-15T06:53:02.001Z</time></trkpt><trkpt lat="-26.787014446005085" lon="115.821528193732"><ele>310.0</ele><time>2026-04-15T06:53:03.001Z</time></trkpt><trkpt lat="-26.786995978688257" lon="115.82127811810966"><ele>310.0</ele><time>2026-04-15T06:53:04.001Z</time></trkpt><trkpt lat="-26.78696231743014" lon="115.8210264748697"><ele>310.0</ele><time>2026-04-15T06:53:05.001Z</time></trkpt><trkpt lat="-26.7869124667247" lon="115.82077087847145"><ele>309.5</ele><time>2026-04-15T06:53:06.001Z</time></trkpt><trkpt lat="-26.7868475955963" lon="115.82051562616584"><ele>309.0</ele><time>2026-04-15T06:53:07.001Z</time></trkpt><trkpt lat="-26.786764465201756" lon="115.82025630394807"><ele>308.5</ele><time>2026-04-15T06:53:08.001Z</time></trkpt><trkpt lat="-26.78667505166827" lon="115.82001199637172"><ele>308.0</ele><time>2026-04-15T06:53:09.001Z</time></trkpt><trkpt lat="-26.786579534238008" lon="115.81977976138523"><ele>308.0</ele><time>2026-04-15T06:53:10.001Z</time></trkpt><trkpt lat="-26.786480296224212" lon="115.8195356641435"><ele>308.0</ele><time>2026-04-15T06:53:11.001Z</time></trkpt><trkpt lat="-26.78637529434531" lon="115.8192788422357"><ele>307.5</ele><time>2026-04-15T06:53:12.001Z</time></trkpt><trkpt lat="-26.786271780388603" lon="115.81901920406908"><ele>307.0</ele><time>2026-04-15T06:53:13.001Z</time></trkpt><trkpt lat="-26.786171400090165" lon="115.8187606017084"><ele>307.0</ele><time>2026-04-15T06:53:14.001Z</time></trkpt><trkpt lat="-26.786072024163417" lon="115.81849748101399"><ele>307.0</ele><time>2026-04-15T06:53:15.001Z</time></trkpt><trkpt lat="-26.785971870935374" lon="115.81823139985588"><ele>306.5</ele><time>2026-04-15T06:53:16.001Z</time></trkpt><trkpt lat="-26.785872467407856" lon="115.81796165618148"><ele>306.0</ele><time>2026-04-15T06:53:17.001Z</time></trkpt><trkpt lat="-26.785772935838818" lon="115.8176867040222"><ele>307.0</ele><time>2026-04-15T06:53:18.001Z</time></trkpt><trkpt lat="-26.785675328888782" lon="115.81741289395188"><ele>308.0</ele><time>2026-04-15T06:53:19.001Z</time></trkpt><trkpt lat="-26.785576578620113" lon="115.81713847415521"><ele>308.0</ele><time>2026-04-15T06:53:20.001Z</time></trkpt><trkpt lat="-26.78547756179508" lon="115.8168591867505"><ele>308.0</ele><time>2026-04-15T06:53:21.001Z</time></trkpt><trkpt lat="-26.78537397455681" lon="115.81658252096808"><ele>306.5</ele><time>2026-04-15T06:53:22.001Z</time></trkpt><trkpt lat="-26.785269171333873" lon="115.81630512363772"><ele>305.0</ele><time>2026-04-15T06:53:23.001Z</time></trkpt><trkpt lat="-26.785164543664468" lon="115.81603079414633"><ele>305.0</ele><time>2026-04-15T06:53:24.001Z</time></trkpt><trkpt lat="-26.785061908999726" lon="115.81575843674058"><ele>305.0</ele><time>2026-04-15T06:53:25.001Z</time></trkpt><trkpt lat="-26.784959331919342" lon="115.81548180313521"><ele>305.0</ele><time>2026-04-15T06:53:26.001Z</time></trkpt><trkpt lat="-26.784855836146335" lon="115.81520362349903"><ele>305.0</ele><time>2026-04-15T06:53:27.001Z</time></trkpt><trkpt lat="-26.784752760759115" lon="115.81492844781621"><ele>305.0</ele><time>2026-04-15T06:53:28.001Z</time></trkpt><trkpt lat="-26.784650819139397" lon="115.81465263379208"><ele>305.0</ele><time>2026-04-15T06:53:29.001Z</time></trkpt><trkpt lat="-26.784551408506186" lon="115.81437870114155"><ele>306.0</ele><time>2026-04-15T06:53:30.001Z</time></trkpt><trkpt lat="-26.78445560780019" lon="115.81410323839343"><ele>307.0</ele><time>2026-04-15T06:53:31.001Z</time></trkpt><trkpt lat="-26.784358661629664" lon="115.81383153703216"><ele>306.5</ele><time>2026-04-15T06:53:32.001Z</time></trkpt><trkpt lat="-26.784257478894105" lon="115.81355747832559"><ele>306.0</ele><time>2026-04-15T06:53:33.001Z</time></trkpt><trkpt lat="-26.78415937919172" lon="115.81328592741566"><ele>306.0</ele><time>2026-04-15T06:53:34.001Z</time></trkpt><trkpt lat="-26.78406079279652" lon="115.81301456269959"><ele>306.0</ele><time>2026-04-15T06:53:35.001Z</time></trkpt><trkpt lat="-26.783962692678813" lon="115.81273814987009"><ele>304.5</ele><time>2026-04-15T06:53:36.001Z</time></trkpt><trkpt lat="-26.783864568116194" lon="115.81246317248676"><ele>303.0</ele><time>2026-04-15T06:53:37.001Z</time></trkpt><trkpt lat="-26.783762920616898" lon="115.81218723230694"><ele>303.0</ele><time>2026-04-15T06:53:38.001Z</time></trkpt><trkpt lat="-26.78365872187824" lon="115.81191428865975"><ele>303.0</ele><time>2026-04-15T06:53:39.001Z</time></trkpt><trkpt lat="-26.783554159628686" lon="115.81164141496119"><ele>304.0</ele><time>2026-04-15T06:53:40.001Z</time></trkpt><trkpt lat="-26.783453926701394" lon="115.81136151773757"><ele>305.0</ele><time>2026-04-15T06:53:41.001Z</time></trkpt><trkpt lat="-26.783355726878305" lon="115.81107941652179"><ele>305.0</ele><time>2026-04-15T06:53:42.001Z</time></trkpt><trkpt lat="-26.783262338838195" lon="115.81079635006896"><ele>305.0</ele><time>2026-04-15T06:53:43.001Z</time></trkpt><trkpt lat="-26.783167448502333" lon="115.81051976447206"><ele>305.0</ele><time>2026-04-15T06:53:44.001Z</time></trkpt><trkpt lat="-26.78307140682822" lon="115.81024889098882"><ele>305.0</ele><time>2026-04-15T06:53:45.001Z</time></trkpt><trkpt lat="-26.7829749218106" lon="115.8099831226727"><ele>306.0</ele><time>2026-04-15T06:53:46.001Z</time></trkpt><trkpt lat="-26.782877155327633" lon="115.80971875039587"><ele>307.0</ele><time>2026-04-15T06:53:47.001Z</time></trkpt><trkpt lat="-26.782778223548412" lon="115.80946087371385"><ele>307.5</ele><time>2026-04-15T06:53:48.001Z</time></trkpt><trkpt lat="-26.782682369589107" lon="115.80920080103157"><ele>308.0</ele><time>2026-04-15T06:53:49.001Z</time></trkpt><trkpt lat="-26.782589991367573" lon="115.8089450562061"><ele>308.0</ele><time>2026-04-15T06:53:50.001Z</time></trkpt><trkpt lat="-26.782515159369918" lon="115.80868849237854"><ele>308.0</ele><time>2026-04-15T06:53:51.001Z</time></trkpt><trkpt lat="-26.78245411911756" lon="115.80842177691207"><ele>307.0</ele><time>2026-04-15T06:53:52.001Z</time></trkpt><trkpt lat="-26.782405824937495" lon="115.808146826497"><ele>306.0</ele><time>2026-04-15T06:53:53.001Z</time></trkpt><trkpt lat="-26.782369974614745" lon="115.80787510675655"><ele>306.0</ele><time>2026-04-15T06:53:54.001Z</time></trkpt><trkpt lat="-26.78233592008274" lon="115.80759427910527"><ele>306.0</ele><time>2026-04-15T06:53:55.001Z</time></trkpt><trkpt lat="-26.782300047184076" lon="115.80732228961662"><ele>306.0</ele><time>2026-04-15T06:53:56.001Z</time></trkpt><trkpt lat="-26.782256187244457" lon="115.80705573865477"><ele>306.0</ele><time>2026-04-15T06:53:57.001Z</time></trkpt><trkpt lat="-26.782208776164495" lon="115.80678393729939"><ele>304.5</ele><time>2026-04-15T06:53:58.001Z</time></trkpt><trkpt lat="-26.782160885978588" lon="115.80650688536268"><ele>303.0</ele><time>2026-04-15T06:53:59.001Z</time></trkpt><trkpt lat="-26.78211512070091" lon="115.80623077983248"><ele>304.0</ele><time>2026-04-15T06:54:00.001Z</time></trkpt><trkpt lat="-26.78206839065287" lon="115.80595192118354"><ele>305.0</ele><time>2026-04-15T06:54:01.001Z</time></trkpt><trkpt lat="-26.78201937837288" lon="115.80567754441682"><ele>305.0</ele><time>2026-04-15T06:54:02.001Z</time></trkpt><trkpt lat="-26.781966863443557" lon="115.80540530764591"><ele>305.0</ele><time>2026-04-15T06:54:03.001Z</time></trkpt><trkpt lat="-26.7819060522168" lon="115.80513294127097"><ele>303.5</ele><time>2026-04-15T06:54:04.001Z</time></trkpt><trkpt lat="-26.781839328650292" lon="115.80485429905212"><ele>302.0</ele><time>2026-04-15T06:54:05.001Z</time></trkpt><trkpt lat="-26.781770303634012" lon="115.80457589394533"><ele>302.5</ele><time>2026-04-15T06:54:06.001Z</time></trkpt><trkpt lat="-26.78170533596342" lon="115.80429959271603"><ele>303.0</ele><time>2026-04-15T06:54:07.001Z</time></trkpt><trkpt lat="-26.781641800931634" lon="115.80402318218357"><ele>303.0</ele><time>2026-04-15T06:54:08.001Z</time></trkpt><trkpt lat="-26.78158310857715" lon="115.80374582832017"><ele>303.0</ele><time>2026-04-15T06:54:09.001Z</time></trkpt><trkpt lat="-26.781525786028826" lon="115.80346848275445"><ele>303.0</ele><time>2026-04-15T06:54:10.001Z</time></trkpt><trkpt lat="-26.781470061567692" lon="115.80319126998492"><ele>303.0</ele><time>2026-04-15T06:54:11.001Z</time></trkpt><trkpt lat="-26.781413047357198" lon="115.80291672732307"><ele>303.0</ele><time>2026-04-15T06:54:12.001Z</time></trkpt><trkpt lat="-26.781354233671472" lon="115.80264642988492"><ele>303.0</ele><time>2026-04-15T06:54:13.001Z</time></trkpt><trkpt lat="-26.78129103265228" lon="115.8023758624524"><ele>303.0</ele><time>2026-04-15T06:54:14.001Z</time></trkpt><trkpt lat="-26.781223881929183" lon="115.80210508905974"><ele>303.0</ele><time>2026-04-15T06:54:15.001Z</time></trkpt><trkpt lat="-26.781156035438098" lon="115.80183338919717"><ele>302.5</ele><time>2026-04-15T06:54:16.001Z</time></trkpt><trkpt lat="-26.781093049932913" lon="115.80156598236282"><ele>302.0</ele><time>2026-04-15T06:54:17.001Z</time></trkpt><trkpt lat="-26.781034733471245" lon="115.8012965475018"><ele>302.5</ele><time>2026-04-15T06:54:18.001Z</time></trkpt><trkpt lat="-26.780977263963564" lon="115.80102443039823"><ele>303.0</ele><time>2026-04-15T06:54:19.001Z</time></trkpt><trkpt lat="-26.78091720026588" lon="115.80074930557063"><ele>303.0</ele><time>2026-04-15T06:54:20.001Z</time></trkpt><trkpt lat="-26.78085469372218" lon="115.80047057951042"><ele>303.0</ele><time>2026-04-15T06:54:21.001Z</time></trkpt><trkpt lat="-26.780790703170148" lon="115.80018606548899"><ele>303.5</ele><time>2026-04-15T06:54:22.001Z</time></trkpt><trkpt lat="-26.780725436607526" lon="115.79989634939568"><ele>304.0</ele><time>2026-04-15T06:54:23.001Z</time></trkpt><trkpt lat="-26.780661350595636" lon="115.7996118824009"><ele>304.0</ele><time>2026-04-15T06:54:24.001Z</time></trkpt><trkpt lat="-26.780597416839147" lon="115.79933283748404"><ele>304.0</ele><time>2026-04-15T06:54:25.001Z</time></trkpt><trkpt lat="-26.780537124286628" lon="115.79906324242371"><ele>304.0</ele><time>2026-04-15T06:54:26.001Z</time></trkpt><trkpt lat="-26.78048063913745" lon="115.79880205518926"><ele>304.0</ele><time>2026-04-15T06:54:27.001Z</time></trkpt><trkpt lat="-26.780424515399282" lon="115.79854101114813"><ele>304.0</ele><time>2026-04-15T06:54:28.001Z</time></trkpt><trkpt lat="-26.78036186770183" lon="115.79826287539316"><ele>304.0</ele><time>2026-04-15T06:54:29.001Z</time></trkpt><trkpt lat="-26.780292456295673" lon="115.79798275319126"><ele>304.0</ele><time>2026-04-15T06:54:30.001Z</time></trkpt><trkpt lat="-26.780217981748056" lon="115.79770285490731"><ele>304.0</ele><time>2026-04-15T06:54:31.001Z</time></trkpt><trkpt lat="-26.78014003189679" lon="115.79742237063343"><ele>303.0</ele><time>2026-04-15T06:54:32.001Z</time></trkpt><trkpt lat="-26.780058498783216" lon="115.79714302673898"><ele>302.0</ele><time>2026-04-15T06:54:33.001Z</time></trkpt><trkpt lat="-26.779979294518345" lon="115.79685626668926"><ele>302.5</ele><time>2026-04-15T06:54:34.001Z</time></trkpt><trkpt lat="-26.779902935760614" lon="115.79656765306402"><ele>303.0</ele><time>2026-04-15T06:54:35.001Z</time></trkpt><trkpt lat="-26.779827396326358" lon="115.79627299912241"><ele>303.5</ele><time>2026-04-15T06:54:36.001Z</time></trkpt><trkpt lat="-26.779752409652335" lon="115.79597557666209"><ele>304.0</ele><time>2026-04-15T06:54:37.001Z</time></trkpt><trkpt lat="-26.779677640956265" lon="115.79567688379905"><ele>304.0</ele><time>2026-04-15T06:54:38.001Z</time></trkpt><trkpt lat="-26.77960177665178" lon="115.79537816788667"><ele>304.0</ele><time>2026-04-15T06:54:39.001Z</time></trkpt><trkpt lat="-26.779523500061345" lon="115.79507738642302"><ele>304.0</ele><time>2026-04-15T06:54:40.001Z</time></trkpt><trkpt lat="-26.779445026087735" lon="115.79477393323171"><ele>304.0</ele><time>2026-04-15T06:54:41.001Z</time></trkpt><trkpt lat="-26.77936219793847" lon="115.79447211685881"><ele>303.5</ele><time>2026-04-15T06:54:42.001Z</time></trkpt><trkpt lat="-26.77928064475973" lon="115.79417203247314"><ele>303.0</ele><time>2026-04-15T06:54:43.001Z</time></trkpt><trkpt lat="-26.779202337569117" lon="115.79387200864915"><ele>303.0</ele><time>2026-04-15T06:54:44.001Z</time></trkpt><trkpt lat="-26.779124339046906" lon="115.79356965991758"><ele>303.0</ele><time>2026-04-15T06:54:45.001Z</time></trkpt><trkpt lat="-26.779049193230342" lon="115.79327086109875"><ele>304.0</ele><time>2026-04-15T06:54:46.001Z</time></trkpt><trkpt lat="-26.77897589442052" lon="115.79297494145518"><ele>305.0</ele><time>2026-04-15T06:54:47.001Z</time></trkpt><trkpt lat="-26.77889927623292" lon="115.79268273405782"><ele>304.0</ele><time>2026-04-15T06:54:48.001Z</time></trkpt><trkpt lat="-26.77882302649581" lon="115.79238759143236"><ele>303.0</ele><time>2026-04-15T06:54:49.001Z</time></trkpt><trkpt lat="-26.778743396924085" lon="115.79208935402117"><ele>302.5</ele><time>2026-04-15T06:54:50.001Z</time></trkpt><trkpt lat="-26.77866227124705" lon="115.79179496697584"><ele>302.0</ele><time>2026-04-15T06:54:51.001Z</time></trkpt><trkpt lat="-26.778579140127647" lon="115.79150044562093"><ele>302.0</ele><time>2026-04-15T06:54:52.001Z</time></trkpt><trkpt lat="-26.77849813558735" lon="115.79120425475494"><ele>302.0</ele><time>2026-04-15T06:54:53.001Z</time></trkpt><trkpt lat="-26.77842038098066" lon="115.79090803245406"><ele>301.0</ele><time>2026-04-15T06:54:54.001Z</time></trkpt><trkpt lat="-26.778344700523444" lon="115.79061368495864"><ele>300.0</ele><time>2026-04-15T06:54:55.001Z</time></trkpt><trkpt lat="-26.77826804080581" lon="115.79031478237665"><ele>299.5</ele><time>2026-04-15T06:54:56.001Z</time></trkpt><trkpt lat="-26.77819209026544" lon="115.79001585535994"><ele>299.0</ele><time>2026-04-15T06:54:57.001Z</time></trkpt><trkpt lat="-26.778113882777504" lon="115.78971770503182"><ele>299.0</ele><time>2026-04-15T06:54:58.001Z</time></trkpt><trkpt lat="-26.778034133820448" lon="115.78941950669999"><ele>299.0</ele><time>2026-04-15T06:54:59.001Z</time></trkpt><trkpt lat="-26.777955070318185" lon="115.78911915221684"><ele>298.5</ele><time>2026-04-15T06:55:00.001Z</time></trkpt><trkpt lat="-26.777873525095984" lon="115.78881827240352"><ele>298.0</ele><time>2026-04-15T06:55:01.001Z</time></trkpt><trkpt lat="-26.77779282483793" lon="115.78851780992814"><ele>297.5</ele><time>2026-04-15T06:55:02.001Z</time></trkpt><trkpt lat="-26.777714958154764" lon="115.7882159478255"><ele>297.0</ele><time>2026-04-15T06:55:03.001Z</time></trkpt><trkpt lat="-26.777637096516596" lon="115.78791290966221"><ele>296.0</ele><time>2026-04-15T06:55:04.001Z</time></trkpt><trkpt lat="-26.77755874799137" lon="115.78761281021345"><ele>295.0</ele><time>2026-04-15T06:55:05.001Z</time></trkpt><trkpt lat="-26.777479098414055" lon="115.78731271731931"><ele>295.0</ele><time>2026-04-15T06:55:06.001Z</time></trkpt><trkpt lat="-26.777399795227883" lon="115.78701244847441"><ele>295.0</ele><time>2026-04-15T06:55:07.001Z</time></trkpt><trkpt lat="-26.777317577186338" lon="115.78671181158239"><ele>295.5</ele><time>2026-04-15T06:55:08.001Z</time></trkpt><trkpt lat="-26.777237785650538" lon="115.78641436534478"><ele>296.0</ele><time>2026-04-15T06:55:09.001Z</time></trkpt><trkpt lat="-26.777159690641533" lon="115.78611537996441"><ele>296.5</ele><time>2026-04-15T06:55:10.001Z</time></trkpt><trkpt lat="-26.777081823365272" lon="115.78581633269405"><ele>297.0</ele><time>2026-04-15T06:55:11.001Z</time></trkpt><trkpt lat="-26.77700562289795" lon="115.78551462206163"><ele>297.0</ele><time>2026-04-15T06:55:12.001Z</time></trkpt><trkpt lat="-26.776928742730927" lon="115.78521238595026"><ele>297.0</ele><time>2026-04-15T06:55:13.001Z</time></trkpt><trkpt lat="-26.77685323203888" lon="115.78491176688082"><ele>296.0</ele><time>2026-04-15T06:55:14.001Z</time></trkpt><trkpt lat="-26.776774728764845" lon="115.78461248433504"><ele>295.0</ele><time>2026-04-15T06:55:15.001Z</time></trkpt><trkpt lat="-26.776695994241347" lon="115.78431597529072"><ele>294.5</ele><time>2026-04-15T06:55:16.001Z</time></trkpt><trkpt lat="-26.776617429680243" lon="115.78401782292815"><ele>294.0</ele><time>2026-04-15T06:55:17.001Z</time></trkpt><trkpt lat="-26.776541222101965" lon="115.78371273192504"><ele>295.0</ele><time>2026-04-15T06:55:18.001Z</time></trkpt><trkpt lat="-26.776461906758875" lon="115.78340722627352"><ele>296.0</ele><time>2026-04-15T06:55:19.001Z</time></trkpt><trkpt lat="-26.776382832922344" lon="115.7830992461057"><ele>296.0</ele><time>2026-04-15T06:55:20.001Z</time></trkpt><trkpt lat="-26.77630180658779" lon="115.78278792320536"><ele>296.0</ele><time>2026-04-15T06:55:21.001Z</time></trkpt><trkpt lat="-26.776219221840844" lon="115.78247530644781"><ele>295.5</ele><time>2026-04-15T06:55:22.001Z</time></trkpt><trkpt lat="-26.776137005528664" lon="115.78216343465506"><ele>295.0</ele><time>2026-04-15T06:55:23.001Z</time></trkpt><trkpt lat="-26.77605504968964" lon="115.78185189586232"><ele>295.0</ele><time>2026-04-15T06:55:24.001Z</time></trkpt><trkpt lat="-26.775973789354406" lon="115.78153916868668"><ele>295.0</ele><time>2026-04-15T06:55:25.001Z</time></trkpt><trkpt lat="-26.77589515919812" lon="115.7812291835293"><ele>295.0</ele><time>2026-04-15T06:55:26.001Z</time></trkpt><trkpt lat="-26.775821003700894" lon="115.78091992705764"><ele>295.0</ele><time>2026-04-15T06:55:27.001Z</time></trkpt><trkpt lat="-26.775745238641978" lon="115.78060967043926"><ele>295.0</ele><time>2026-04-15T06:55:28.001Z</time></trkpt><trkpt lat="-26.775667290980874" lon="115.7802985891785"><ele>295.0</ele><time>2026-04-15T06:55:29.001Z</time></trkpt><trkpt lat="-26.775586681099334" lon="115.77998781469972"><ele>295.0</ele><time>2026-04-15T06:55:30.001Z</time></trkpt><trkpt lat="-26.77550527725788" lon="115.77968269607379"><ele>295.0</ele><time>2026-04-15T06:55:31.001Z</time></trkpt><trkpt lat="-26.77542309174749" lon="115.77937840474338"><ele>294.5</ele><time>2026-04-15T06:55:32.001Z</time></trkpt><trkpt lat="-26.775342927093494" lon="115.77907985667589"><ele>294.0</ele><time>2026-04-15T06:55:33.001Z</time></trkpt><trkpt lat="-26.775261669916112" lon="115.77877840678653"><ele>292.5</ele><time>2026-04-15T06:55:34.001Z</time></trkpt><trkpt lat="-26.775181370753593" lon="115.77847644601805"><ele>291.0</ele><time>2026-04-15T06:55:35.001Z</time></trkpt><trkpt lat="-26.77510252047569" lon="115.77817490105448"><ele>291.0</ele><time>2026-04-15T06:55:36.001Z</time></trkpt><trkpt lat="-26.77502387917183" lon="115.77787571987241"><ele>291.0</ele><time>2026-04-15T06:55:37.001Z</time></trkpt><trkpt lat="-26.774946631593824" lon="115.77757967295824"><ele>291.0</ele><time>2026-04-15T06:55:38.001Z</time></trkpt><trkpt lat="-26.774871049207373" lon="115.77728268256541"><ele>291.0</ele><time>2026-04-15T06:55:39.001Z</time></trkpt><trkpt lat="-26.77479668722114" lon="115.77698908737264"><ele>290.0</ele><time>2026-04-15T06:55:40.001Z</time></trkpt><trkpt lat="-26.774722788720272" lon="115.7766944031363"><ele>289.0</ele><time>2026-04-15T06:55:41.001Z</time></trkpt><trkpt lat="-26.774646745284773" lon="115.77639588511862"><ele>289.0</ele><time>2026-04-15T06:55:42.001Z</time></trkpt><trkpt lat="-26.77456762058046" lon="115.77610264949543"><ele>289.0</ele><time>2026-04-15T06:55:43.001Z</time></trkpt><trkpt lat="-26.774490299358348" lon="115.7758101408818"><ele>289.5</ele><time>2026-04-15T06:55:44.001Z</time></trkpt><trkpt lat="-26.774416357483812" lon="115.77552575499365"><ele>290.0</ele><time>2026-04-15T06:55:45.001Z</time></trkpt><trkpt lat="-26.774339806015682" lon="115.77523272054573"><ele>290.5</ele><time>2026-04-15T06:55:46.001Z</time></trkpt><trkpt lat="-26.7742704920493" lon="115.77495651114596"><ele>291.0</ele><time>2026-04-15T06:55:47.001Z</time></trkpt><trkpt lat="-26.774201346682037" lon="115.77468017933714"><ele>291.0</ele><time>2026-04-15T06:55:48.001Z</time></trkpt><trkpt lat="-26.774128857164683" lon="115.77439619010214"><ele>291.0</ele><time>2026-04-15T06:55:49.001Z</time></trkpt><trkpt lat="-26.77405728466524" lon="115.77411578429057"><ele>290.5</ele><time>2026-04-15T06:55:50.001Z</time></trkpt><trkpt lat="-26.773981509105433" lon="115.7738365648144"><ele>290.0</ele><time>2026-04-15T06:55:51.001Z</time></trkpt><trkpt lat="-26.773903581690472" lon="115.77355375328138"><ele>290.0</ele><time>2026-04-15T06:55:52.001Z</time></trkpt><trkpt lat="-26.773829815024737" lon="115.77327062662955"><ele>290.0</ele><time>2026-04-15T06:55:53.001Z</time></trkpt><trkpt lat="-26.773756149924164" lon="115.77298492674711"><ele>290.0</ele><time>2026-04-15T06:55:54.001Z</time></trkpt><trkpt lat="-26.77368061355669" lon="115.77269414041211"><ele>290.0</ele><time>2026-04-15T06:55:55Z</time></trkpt><trkpt lat="-26.773605334942065" lon="115.77240120905766"><ele>290.0</ele><time>2026-04-15T06:55:56Z</time></trkpt><trkpt lat="-26.773530109010636" lon="115.77210651926309"><ele>290.0</ele><time>2026-04-15T06:55:57Z</time></trkpt><trkpt lat="-26.77345352417879" lon="115.77180830344005"><ele>290.0</ele><time>2026-04-15T06:55:58Z</time></trkpt><trkpt lat="-26.7733755067666" lon="115.77150913935597"><ele>290.0</ele><time>2026-04-15T06:55:59Z</time></trkpt><trkpt lat="-26.77329492488565" lon="115.77120727097714"><ele>289.5</ele><time>2026-04-15T06:56:00Z</time></trkpt><trkpt lat="-26.77321427817896" lon="115.77090303656064"><ele>289.0</ele><time>2026-04-15T06:56:01Z</time></trkpt><trkpt lat="-26.77313472380815" lon="115.77060345029567"><ele>289.0</ele><time>2026-04-15T06:56:02Z</time></trkpt><trkpt lat="-26.773056923950712" lon="115.77030327750717"><ele>289.0</ele><time>2026-04-15T06:56:03Z</time></trkpt><trkpt lat="-26.772976049759357" lon="115.77000155401441"><ele>289.0</ele><time>2026-04-15T06:56:04Z</time></trkpt><trkpt lat="-26.772896445142866" lon="115.76970528580398"><ele>289.0</ele><time>2026-04-15T06:56:05Z</time></trkpt><trkpt lat="-26.7728164311001" lon="115.76940853564216"><ele>288.5</ele><time>2026-04-15T06:56:06Z</time></trkpt><trkpt lat="-26.772737266275016" lon="115.7691113927538"><ele>288.0</ele><time>2026-04-15T06:56:07Z</time></trkpt><trkpt lat="-26.772661094014744" lon="115.76881820232023"><ele>287.5</ele><time>2026-04-15T06:56:08Z</time></trkpt><trkpt lat="-26.77258516518306" lon="115.7685257083872"><ele>287.0</ele><time>2026-04-15T06:56:09Z</time></trkpt><trkpt lat="-26.772512159620167" lon="115.76823561576653"><ele>287.0</ele><time>2026-04-15T06:56:10Z</time></trkpt><trkpt lat="-26.77243899651294" lon="115.76794349736396"><ele>287.0</ele><time>2026-04-15T06:56:11Z</time></trkpt><trkpt lat="-26.772364104653" lon="115.76765234502092"><ele>287.0</ele><time>2026-04-15T06:56:12Z</time></trkpt><trkpt lat="-26.772287398871043" lon="115.76736054119188"><ele>287.0</ele><time>2026-04-15T06:56:13Z</time></trkpt><trkpt lat="-26.772212865096975" lon="115.7670634554914"><ele>286.5</ele><time>2026-04-15T06:56:14Z</time></trkpt><trkpt lat="-26.772136505616732" lon="115.76676549504907"><ele>286.0</ele><time>2026-04-15T06:56:15Z</time></trkpt><trkpt lat="-26.77206110815554" lon="115.76647250963393"><ele>286.0</ele><time>2026-04-15T06:56:16Z</time></trkpt><trkpt lat="-26.771985600898287" lon="115.76617647266576"><ele>286.0</ele><time>2026-04-15T06:56:17Z</time></trkpt><trkpt lat="-26.771906073482462" lon="115.76588056969356"><ele>286.5</ele><time>2026-04-15T06:56:18Z</time></trkpt><trkpt lat="-26.771824385317956" lon="115.76558972419343"><ele>287.0</ele><time>2026-04-15T06:56:19Z</time></trkpt><trkpt lat="-26.771743441115404" lon="115.76529874845212"><ele>287.0</ele><time>2026-04-15T06:56:20Z</time></trkpt><trkpt lat="-26.771667990806666" lon="115.76500886729244"><ele>287.0</ele><time>2026-04-15T06:56:21Z</time></trkpt><trkpt lat="-26.77159182586348" lon="115.76471768603251"><ele>287.0</ele><time>2026-04-15T06:56:22Z</time></trkpt><trkpt lat="-26.771514529395695" lon="115.76442770671642"><ele>287.0</ele><time>2026-04-15T06:56:23Z</time></trkpt><trkpt lat="-26.771437526221618" lon="115.7641356449377"><ele>286.0</ele><time>2026-04-15T06:56:24Z</time></trkpt><trkpt lat="-26.771359866153407" lon="115.76384341513807"><ele>285.0</ele><time>2026-04-15T06:56:25Z</time></trkpt><trkpt lat="-26.771281587046836" lon="115.76355211319726"><ele>286.0</ele><time>2026-04-15T06:56:26Z</time></trkpt><trkpt lat="-26.771206011429772" lon="115.7632566360041"><ele>287.0</ele><time>2026-04-15T06:56:27Z</time></trkpt><trkpt lat="-26.77113481117266" lon="115.76297047712563"><ele>287.0</ele><time>2026-04-15T06:56:28Z</time></trkpt><trkpt lat="-26.771061531606" lon="115.76267384067427"><ele>287.0</ele><time>2026-04-15T06:56:29Z</time></trkpt><trkpt lat="-26.770987374541864" lon="115.76237768569277"><ele>287.0</ele><time>2026-04-15T06:56:30Z</time></trkpt><trkpt lat="-26.770915996261454" lon="115.76207889756186"><ele>287.0</ele><time>2026-04-15T06:56:31Z</time></trkpt><trkpt lat="-26.77084761721215" lon="115.76178005791476"><ele>287.5</ele><time>2026-04-15T06:56:32Z</time></trkpt><trkpt lat="-26.77078422583515" lon="115.7614816942512"><ele>288.0</ele><time>2026-04-15T06:56:33Z</time></trkpt><trkpt lat="-26.77072618186486" lon="115.7611827385898"><ele>288.0</ele><time>2026-04-15T06:56:34Z</time></trkpt><trkpt lat="-26.77067736622902" lon="115.7608799349332"><ele>288.0</ele><time>2026-04-15T06:56:35Z</time></trkpt><trkpt lat="-26.770637609736223" lon="115.76057634139208"><ele>288.0</ele><time>2026-04-15T06:56:36Z</time></trkpt><trkpt lat="-26.77060795678553" lon="115.76027489246964"><ele>288.0</ele><time>2026-04-15T06:56:37Z</time></trkpt><trkpt lat="-26.77058841753285" lon="115.759969155944"><ele>287.0</ele><time>2026-04-15T06:56:38Z</time></trkpt><trkpt lat="-26.7705743029832" lon="115.75965730954168"><ele>286.0</ele><time>2026-04-15T06:56:39Z</time></trkpt><trkpt lat="-26.770557028842397" lon="115.75934972172922"><ele>286.0</ele><time>2026-04-15T06:56:40Z</time></trkpt><trkpt lat="-26.770542404582038" lon="115.75903826968177"><ele>286.0</ele><time>2026-04-15T06:56:41Z</time></trkpt><trkpt lat="-26.770529545796386" lon="115.75872219065974"><ele>286.0</ele><time>2026-04-15T06:56:42Z</time></trkpt><trkpt lat="-26.77051543162516" lon="115.75840819080734"><ele>286.0</ele><time>2026-04-15T06:56:43Z</time></trkpt><trkpt lat="-26.770503948854806" lon="115.75808556005327"><ele>286.0</ele><time>2026-04-15T06:56:44Z</time></trkpt><trkpt lat="-26.770491545468452" lon="115.75776526173216"><ele>286.0</ele><time>2026-04-15T06:56:45Z</time></trkpt><trkpt lat="-26.77047995499127" lon="115.75744067705709"><ele>285.5</ele><time>2026-04-15T06:56:46Z</time></trkpt><trkpt lat="-26.770466695456147" lon="115.75711562417038"><ele>285.0</ele><time>2026-04-15T06:56:47Z</time></trkpt><trkpt lat="-26.770454695009622" lon="115.75679088063771"><ele>285.0</ele><time>2026-04-15T06:56:48Z</time></trkpt><trkpt lat="-26.770440042864777" lon="115.75646830321581"><ele>285.0</ele><time>2026-04-15T06:56:49Z</time></trkpt><trkpt lat="-26.770425339025714" lon="115.7561479736329"><ele>285.5</ele><time>2026-04-15T06:56:50Z</time></trkpt><trkpt lat="-26.770413029094453" lon="115.75582996682185"><ele>286.0</ele><time>2026-04-15T06:56:51Z</time></trkpt><trkpt lat="-26.770399931030887" lon="115.75551030993063"><ele>286.0</ele><time>2026-04-15T06:56:52Z</time></trkpt><trkpt lat="-26.770388492608046" lon="115.75519375336239"><ele>286.0</ele><time>2026-04-15T06:56:53Z</time></trkpt><trkpt lat="-26.770377164288107" lon="115.75487984763913"><ele>286.0</ele><time>2026-04-15T06:56:54Z</time></trkpt><trkpt lat="-26.770363348777728" lon="115.75456832919932"><ele>286.0</ele><time>2026-04-15T06:56:55Z</time></trkpt><trkpt lat="-26.770344694892863" lon="115.75426457123346"><ele>286.5</ele><time>2026-04-15T06:56:56Z</time></trkpt><trkpt lat="-26.77032461427451" lon="115.75396274987536"><ele>287.0</ele><time>2026-04-15T06:56:57Z</time></trkpt><trkpt lat="-26.770298081471875" lon="115.75365900463106"><ele>287.5</ele><time>2026-04-15T06:56:58Z</time></trkpt><trkpt lat="-26.77026319395541" lon="115.75336280462783"><ele>288.0</ele><time>2026-04-15T06:56:59Z</time></trkpt><trkpt lat="-26.770220770073877" lon="115.75306020371293"><ele>288.0</ele><time>2026-04-15T06:57:00Z</time></trkpt><trkpt lat="-26.77017243325342" lon="115.7527561329277"><ele>288.0</ele><time>2026-04-15T06:57:01Z</time></trkpt><trkpt lat="-26.770117691108986" lon="115.75245180618023"><ele>287.5</ele><time>2026-04-15T06:57:02Z</time></trkpt><trkpt lat="-26.770059398118327" lon="115.75214404413735"><ele>287.0</ele><time>2026-04-15T06:57:03Z</time></trkpt><trkpt lat="-26.77000185312138" lon="115.75184359155871"><ele>287.0</ele><time>2026-04-15T06:57:04Z</time></trkpt><trkpt lat="-26.76994115196673" lon="115.75153808757925"><ele>287.0</ele><time>2026-04-15T06:57:05Z</time></trkpt><trkpt lat="-26.769885509418042" lon="115.75123968109834"><ele>287.5</ele><time>2026-04-15T06:57:06Z</time></trkpt><trkpt lat="-26.76982864661923" lon="115.75093959964201"><ele>288.0</ele><time>2026-04-15T06:57:07Z</time></trkpt><trkpt lat="-26.769770746534835" lon="115.75063819819148"><ele>288.0</ele><time>2026-04-15T06:57:08Z</time></trkpt><trkpt lat="-26.769714083917894" lon="115.7503350335586"><ele>288.0</ele><time>2026-04-15T06:57:09Z</time></trkpt><trkpt lat="-26.769662433702834" lon="115.75003526703767"><ele>287.0</ele><time>2026-04-15T06:57:10Z</time></trkpt><trkpt lat="-26.769617919058476" lon="115.74973494831258"><ele>286.0</ele><time>2026-04-15T06:57:11Z</time></trkpt><trkpt lat="-26.769582172526274" lon="115.74943788755277"><ele>286.5</ele><time>2026-04-15T06:57:12Z</time></trkpt><trkpt lat="-26.76955992182354" lon="115.7491333336395"><ele>287.0</ele><time>2026-04-15T06:57:13Z</time></trkpt><trkpt lat="-26.7695566657366" lon="115.74883739146743"><ele>287.5</ele><time>2026-04-15T06:57:14Z</time></trkpt><trkpt lat="-26.76956464737957" lon="115.74852944137615"><ele>288.0</ele><time>2026-04-15T06:57:15Z</time></trkpt><trkpt lat="-26.76958367222179" lon="115.74823042641786"><ele>288.0</ele><time>2026-04-15T06:57:16Z</time></trkpt><trkpt lat="-26.769611691044137" lon="115.74793161976773"><ele>288.0</ele><time>2026-04-15T06:57:17Z</time></trkpt><trkpt lat="-26.76964525342686" lon="115.7476309609338"><ele>288.0</ele><time>2026-04-15T06:57:18Z</time></trkpt><trkpt lat="-26.769682253178498" lon="115.74732570411813"><ele>288.0</ele><time>2026-04-15T06:57:19Z</time></trkpt><trkpt lat="-26.76971911370705" lon="115.7470186123964"><ele>287.5</ele><time>2026-04-15T06:57:20Z</time></trkpt><trkpt lat="-26.769758870847006" lon="115.746711640212"><ele>287.0</ele><time>2026-04-15T06:57:21Z</time></trkpt><trkpt lat="-26.76979713108298" lon="115.74640576714384"><ele>287.0</ele><time>2026-04-15T06:57:22Z</time></trkpt><trkpt lat="-26.76983670695169" lon="115.74609548309328"><ele>287.0</ele><time>2026-04-15T06:57:23Z</time></trkpt><trkpt lat="-26.769876156659688" lon="115.74579164931335"><ele>287.5</ele><time>2026-04-15T06:57:24Z</time></trkpt><trkpt lat="-26.769916577848793" lon="115.74548550014994"><ele>288.0</ele><time>2026-04-15T06:57:25Z</time></trkpt><trkpt lat="-26.769955612355904" lon="115.74517945482351"><ele>288.0</ele><time>2026-04-15T06:57:26Z</time></trkpt><trkpt lat="-26.76999297996692" lon="115.74487140874484"><ele>288.0</ele><time>2026-04-15T06:57:27Z</time></trkpt><trkpt lat="-26.770029988516324" lon="115.7445628212252"><ele>288.0</ele><time>2026-04-15T06:57:28Z</time></trkpt><trkpt lat="-26.770067974065523" lon="115.74425670035825"><ele>288.0</ele><time>2026-04-15T06:57:29Z</time></trkpt><trkpt lat="-26.770099315702446" lon="115.74394570237988"><ele>288.0</ele><time>2026-04-15T06:57:30Z</time></trkpt><trkpt lat="-26.770131546655907" lon="115.74364319791897"><ele>288.0</ele><time>2026-04-15T06:57:31Z</time></trkpt><trkpt lat="-26.77016418646223" lon="115.74334273654735"><ele>287.5</ele><time>2026-04-15T06:57:32Z</time></trkpt><trkpt lat="-26.77019999714917" lon="115.74304148762597"><ele>287.0</ele><time>2026-04-15T06:57:33Z</time></trkpt><trkpt lat="-26.770237283177057" lon="115.74274346738672"><ele>288.0</ele><time>2026-04-15T06:57:34Z</time></trkpt><trkpt lat="-26.77027824183065" lon="115.74244213574941"><ele>289.0</ele><time>2026-04-15T06:57:35Z</time></trkpt><trkpt lat="-26.77031942311221" lon="115.74214145957752"><ele>288.5</ele><time>2026-04-15T06:57:36Z</time></trkpt><trkpt lat="-26.770360913455576" lon="115.74184479463875"><ele>288.0</ele><time>2026-04-15T06:57:37Z</time></trkpt><trkpt lat="-26.770403158041354" lon="115.74155195594594"><ele>288.0</ele><time>2026-04-15T06:57:38Z</time></trkpt><trkpt lat="-26.770447572346875" lon="115.74126067560098"><ele>288.0</ele><time>2026-04-15T06:57:39Z</time></trkpt><trkpt lat="-26.770492420164896" lon="115.74096982589109"><ele>287.5</ele><time>2026-04-15T06:57:40Z</time></trkpt><trkpt lat="-26.770535400571465" lon="115.74068258916272"><ele>287.0</ele><time>2026-04-15T06:57:41Z</time></trkpt><trkpt lat="-26.7705758466459" lon="115.74038971477373"><ele>287.5</ele><time>2026-04-15T06:57:42Z</time></trkpt><trkpt lat="-26.770621081775744" lon="115.74008999330873"><ele>288.0</ele><time>2026-04-15T06:57:43Z</time></trkpt><trkpt lat="-26.770673214022285" lon="115.73980608205335"><ele>288.0</ele><time>2026-04-15T06:57:44Z</time></trkpt><trkpt lat="-26.770733014665584" lon="115.73952269574407"><ele>288.0</ele><time>2026-04-15T06:57:45Z</time></trkpt><trkpt lat="-26.77080788704765" lon="115.73923574069265"><ele>287.5</ele><time>2026-04-15T06:57:46Z</time></trkpt><trkpt lat="-26.770889534511976" lon="115.73894895792571"><ele>287.0</ele><time>2026-04-15T06:57:47Z</time></trkpt><trkpt lat="-26.770976979596302" lon="115.7386639123156"><ele>287.5</ele><time>2026-04-15T06:57:48Z</time></trkpt><trkpt lat="-26.771070227216057" lon="115.73838354211684"><ele>288.0</ele><time>2026-04-15T06:57:49Z</time></trkpt><trkpt lat="-26.771164802235276" lon="115.73810851945952"><ele>288.0</ele><time>2026-04-15T06:57:50Z</time></trkpt><trkpt lat="-26.771260437424036" lon="115.73783319693025"><ele>288.0</ele><time>2026-04-15T06:57:51Z</time></trkpt><trkpt lat="-26.77135343619482" lon="115.7375602305379"><ele>287.5</ele><time>2026-04-15T06:57:52Z</time></trkpt><trkpt lat="-26.77145041462051" lon="115.73728296966186"><ele>287.0</ele><time>2026-04-15T06:57:53Z</time></trkpt><trkpt lat="-26.77154748506657" lon="115.73700743991857"><ele>288.5</ele><time>2026-04-15T06:57:54Z</time></trkpt><trkpt lat="-26.771646559738503" lon="115.7367274277692"><ele>290.0</ele><time>2026-04-15T06:57:55Z</time></trkpt><trkpt lat="-26.771744917046142" lon="115.73644991094314"><ele>290.0</ele><time>2026-04-15T06:57:56Z</time></trkpt><trkpt lat="-26.77184308395938" lon="115.73617162889914"><ele>290.0</ele><time>2026-04-15T06:57:57Z</time></trkpt><trkpt lat="-26.77194477072742" lon="115.73589293012566"><ele>289.5</ele><time>2026-04-15T06:57:58Z</time></trkpt><trkpt lat="-26.772045755382717" lon="115.73561685882896"><ele>289.0</ele><time>2026-04-15T06:57:59Z</time></trkpt><trkpt lat="-26.77214568116806" lon="115.73534166669846"><ele>288.5</ele><time>2026-04-15T06:58:00Z</time></trkpt><trkpt lat="-26.77224709576464" lon="115.73505644670465"><ele>288.0</ele><time>2026-04-15T06:58:01Z</time></trkpt><trkpt lat="-26.772346089957786" lon="115.73477185665918"><ele>288.0</ele><time>2026-04-15T06:58:02Z</time></trkpt><trkpt lat="-26.77244835026045" lon="115.73448596739566"><ele>288.0</ele><time>2026-04-15T06:58:03Z</time></trkpt><trkpt lat="-26.772552373908706" lon="115.73420303282896"><ele>288.0</ele><time>2026-04-15T06:58:04Z</time></trkpt><trkpt lat="-26.772658102251448" lon="115.73391804636582"><ele>288.0</ele><time>2026-04-15T06:58:05Z</time></trkpt><trkpt lat="-26.77276429775335" lon="115.73363047732913"><ele>288.5</ele><time>2026-04-15T06:58:06Z</time></trkpt><trkpt lat="-26.77287023654607" lon="115.73334148307423"><ele>289.0</ele><time>2026-04-15T06:58:07Z</time></trkpt><trkpt lat="-26.77297506376399" lon="115.73304964504611"><ele>289.0</ele><time>2026-04-15T06:58:08Z</time></trkpt><trkpt lat="-26.77307873636935" lon="115.73275585242308"><ele>289.0</ele><time>2026-04-15T06:58:09Z</time></trkpt><trkpt lat="-26.773179213800947" lon="115.73246646708797"><ele>289.0</ele><time>2026-04-15T06:58:10Z</time></trkpt><trkpt lat="-26.7732820814951" lon="115.73217657995644"><ele>289.0</ele><time>2026-04-15T06:58:11Z</time></trkpt><trkpt lat="-26.77338684426779" lon="115.7318906043722"><ele>287.5</ele><time>2026-04-15T06:58:12Z</time></trkpt><trkpt lat="-26.77349375092016" lon="115.73160344821227"><ele>286.0</ele><time>2026-04-15T06:58:13Z</time></trkpt><trkpt lat="-26.773598866995325" lon="115.73131938972749"><ele>287.0</ele><time>2026-04-15T06:58:14Z</time></trkpt><trkpt lat="-26.773702555951317" lon="115.73103274014308"><ele>288.0</ele><time>2026-04-15T06:58:15Z</time></trkpt><trkpt lat="-26.773807224660384" lon="115.73074508639498"><ele>288.0</ele><time>2026-04-15T06:58:16Z</time></trkpt><trkpt lat="-26.773910576903525" lon="115.73046253277721"><ele>288.0</ele><time>2026-04-15T06:58:17Z</time></trkpt><trkpt lat="-26.77401461652655" lon="115.73017469573074"><ele>288.5</ele><time>2026-04-15T06:58:18Z</time></trkpt><trkpt lat="-26.77411725627581" lon="115.72988477049634"><ele>289.0</ele><time>2026-04-15T06:58:19Z</time></trkpt><trkpt lat="-26.774217931069167" lon="115.72959593587096"><ele>289.0</ele><time>2026-04-15T06:58:20Z</time></trkpt><trkpt lat="-26.774319039042112" lon="115.72930459129451"><ele>289.0</ele><time>2026-04-15T06:58:21Z</time></trkpt><trkpt lat="-26.77442257999121" lon="115.72901434227173"><ele>289.0</ele><time>2026-04-15T06:58:22Z</time></trkpt><trkpt lat="-26.7745263784288" lon="115.72872508926942"><ele>289.0</ele><time>2026-04-15T06:58:23Z</time></trkpt><trkpt lat="-26.774632367370337" lon="115.72843692118647"><ele>289.0</ele><time>2026-04-15T06:58:24Z</time></trkpt><trkpt lat="-26.774738800014582" lon="115.7281518376739"><ele>289.0</ele><time>2026-04-15T06:58:25Z</time></trkpt><trkpt lat="-26.774844517773115" lon="115.72786697067495"><ele>288.5</ele><time>2026-04-15T06:58:26Z</time></trkpt><trkpt lat="-26.774947298703683" lon="115.72757666537231"><ele>288.0</ele><time>2026-04-15T06:58:27Z</time></trkpt><trkpt lat="-26.775045210501712" lon="115.72728555734083"><ele>288.0</ele><time>2026-04-15T06:58:28Z</time></trkpt><trkpt lat="-26.775143335561854" lon="115.7269969460975"><ele>288.0</ele><time>2026-04-15T06:58:29Z</time></trkpt><trkpt lat="-26.775242447815497" lon="115.72670462925605"><ele>288.5</ele><time>2026-04-15T06:58:30Z</time></trkpt><trkpt lat="-26.775346075651196" lon="115.72641419027966"><ele>289.0</ele><time>2026-04-15T06:58:31Z</time></trkpt><trkpt lat="-26.775450112490795" lon="115.72612345696982"><ele>289.5</ele><time>2026-04-15T06:58:32Z</time></trkpt><trkpt lat="-26.775554485217082" lon="115.72583179865605"><ele>290.0</ele><time>2026-04-15T06:58:33Z</time></trkpt><trkpt lat="-26.775659798541433" lon="115.72554238226907"><ele>290.0</ele><time>2026-04-15T06:58:34Z</time></trkpt><trkpt lat="-26.77576440831391" lon="115.72525309562741"><ele>290.0</ele><time>2026-04-15T06:58:35Z</time></trkpt><trkpt lat="-26.77586855660057" lon="115.724965720679"><ele>289.5</ele><time>2026-04-15T06:58:36Z</time></trkpt><trkpt lat="-26.775972981366895" lon="115.72467363731376"><ele>289.0</ele><time>2026-04-15T06:58:37Z</time></trkpt><trkpt lat="-26.77607684535926" lon="115.72438262675679"><ele>287.5</ele><time>2026-04-15T06:58:38Z</time></trkpt><trkpt lat="-26.776181887011727" lon="115.72409155270778"><ele>286.0</ele><time>2026-04-15T06:58:39Z</time></trkpt><trkpt lat="-26.776288114060193" lon="115.72380108742298"><ele>287.0</ele><time>2026-04-15T06:58:40Z</time></trkpt><trkpt lat="-26.776392221268015" lon="115.72351054393418"><ele>288.0</ele><time>2026-04-15T06:58:41Z</time></trkpt><trkpt lat="-26.77649643112763" lon="115.72321630574334"><ele>288.0</ele><time>2026-04-15T06:58:42Z</time></trkpt><trkpt lat="-26.776600545879106" lon="115.72292508298374"><ele>288.0</ele><time>2026-04-15T06:58:43Z</time></trkpt><trkpt lat="-26.776704637786754" lon="115.72263615671773"><ele>288.5</ele><time>2026-04-15T06:58:44Z</time></trkpt><trkpt lat="-26.776809914555916" lon="115.72234663021864"><ele>289.0</ele><time>2026-04-15T06:58:45Z</time></trkpt><trkpt lat="-26.776915562276344" lon="115.72205907893435"><ele>289.5</ele><time>2026-04-15T06:58:46Z</time></trkpt><trkpt lat="-26.777021263445857" lon="115.72176470672976"><ele>290.0</ele><time>2026-04-15T06:58:47Z</time></trkpt><trkpt lat="-26.777127313384415" lon="115.72146941094285"><ele>290.0</ele><time>2026-04-15T06:58:48Z</time></trkpt><trkpt lat="-26.777233581237518" lon="115.72116854796903"><ele>290.0</ele><time>2026-04-15T06:58:49Z</time></trkpt><trkpt lat="-26.777340662084942" lon="115.72086616014667"><ele>290.0</ele><time>2026-04-15T06:58:50Z</time></trkpt><trkpt lat="-26.7774486734899" lon="115.72056165475757"><ele>290.0</ele><time>2026-04-15T06:58:51Z</time></trkpt><trkpt lat="-26.7775557335842" lon="115.72026066126553"><ele>290.5</ele><time>2026-04-15T06:58:52Z</time></trkpt><trkpt lat="-26.77766188682755" lon="115.71996404424746"><ele>291.0</ele><time>2026-04-15T06:58:53Z</time></trkpt><trkpt lat="-26.77776662343576" lon="115.71966635269987"><ele>291.5</ele><time>2026-04-15T06:58:54Z</time></trkpt><trkpt lat="-26.777874360307425" lon="115.71936941498547"><ele>292.0</ele><time>2026-04-15T06:58:55Z</time></trkpt><trkpt lat="-26.777984544667035" lon="115.71907027124227"><ele>292.0</ele><time>2026-04-15T06:58:56Z</time></trkpt><trkpt lat="-26.77809516505282" lon="115.71876779381326"><ele>292.0</ele><time>2026-04-15T06:58:57Z</time></trkpt><trkpt lat="-26.778203873658263" lon="115.71846749699365"><ele>292.0</ele><time>2026-04-15T06:58:58Z</time></trkpt><trkpt lat="-26.7783110072134" lon="115.71816992845658"><ele>292.0</ele><time>2026-04-15T06:58:59Z</time></trkpt><trkpt lat="-26.77841870539069" lon="115.71787324098085"><ele>292.0</ele><time>2026-04-15T06:59:00Z</time></trkpt><trkpt lat="-26.778525469095083" lon="115.71757855264653"><ele>292.0</ele><time>2026-04-15T06:59:01Z</time></trkpt><trkpt lat="-26.778628802753314" lon="115.71728415371733"><ele>292.0</ele><time>2026-04-15T06:59:02Z</time></trkpt><trkpt lat="-26.77872886206213" lon="115.7169939049579"><ele>292.0</ele><time>2026-04-15T06:59:03Z</time></trkpt><trkpt lat="-26.778831624840368" lon="115.71670917599403"><ele>292.5</ele><time>2026-04-15T06:59:04Z</time></trkpt><trkpt lat="-26.778935468545402" lon="115.71642259652576"><ele>293.0</ele><time>2026-04-15T06:59:05Z</time></trkpt><trkpt lat="-26.779040470632193" lon="115.71614013969763"><ele>294.5</ele><time>2026-04-15T06:59:06Z</time></trkpt><trkpt lat="-26.77914580758571" lon="115.71585466946775"><ele>296.0</ele><time>2026-04-15T06:59:07Z</time></trkpt><trkpt lat="-26.77925145918388" lon="115.71556752128782"><ele>295.5</ele><time>2026-04-15T06:59:08Z</time></trkpt><trkpt lat="-26.779351035995912" lon="115.71528584414652"><ele>295.0</ele><time>2026-04-15T06:59:09Z</time></trkpt><trkpt lat="-26.779450137294475" lon="115.71500453753875"><ele>295.0</ele><time>2026-04-15T06:59:10Z</time></trkpt><trkpt lat="-26.779552866684927" lon="115.71472709889485"><ele>295.0</ele><time>2026-04-15T06:59:11Z</time></trkpt><trkpt lat="-26.779660823282974" lon="115.71444640106797"><ele>296.0</ele><time>2026-04-15T06:59:12Z</time></trkpt><trkpt lat="-26.779766985144427" lon="115.71416491259153"><ele>297.0</ele><time>2026-04-15T06:59:13Z</time></trkpt><trkpt lat="-26.779869006701045" lon="115.71388086236885"><ele>297.0</ele><time>2026-04-15T06:59:14Z</time></trkpt><trkpt lat="-26.77997125732718" lon="115.71359904592045"><ele>297.0</ele><time>2026-04-15T06:59:15Z</time></trkpt><trkpt lat="-26.780073311414796" lon="115.71331534040498"><ele>297.5</ele><time>2026-04-15T06:59:16Z</time></trkpt><trkpt lat="-26.78017286845903" lon="115.7130331064333"><ele>298.0</ele><time>2026-04-15T06:59:17Z</time></trkpt><trkpt lat="-26.780265762470297" lon="115.7127540948001"><ele>298.5</ele><time>2026-04-15T06:59:18Z</time></trkpt><trkpt lat="-26.7803581047787" lon="115.71246921744432"><ele>299.0</ele><time>2026-04-15T06:59:19Z</time></trkpt><trkpt lat="-26.78044897873382" lon="115.71218156523474"><ele>299.5</ele><time>2026-04-15T06:59:20Z</time></trkpt><trkpt lat="-26.780537620653796" lon="115.7118918691986"><ele>300.0</ele><time>2026-04-15T06:59:21Z</time></trkpt><trkpt lat="-26.780629234038415" lon="115.71159652023502"><ele>300.0</ele><time>2026-04-15T06:59:22Z</time></trkpt><trkpt lat="-26.780718056575093" lon="115.71129814664619"><ele>300.0</ele><time>2026-04-15T06:59:23Z</time></trkpt><trkpt lat="-26.78080879695406" lon="115.71099905475496"><ele>300.0</ele><time>2026-04-15T06:59:24Z</time></trkpt><trkpt lat="-26.780895014699663" lon="115.71070270626545"><ele>300.0</ele><time>2026-04-15T06:59:25Z</time></trkpt><trkpt lat="-26.78098592544628" lon="115.71040430168642"><ele>300.5</ele><time>2026-04-15T06:59:26Z</time></trkpt><trkpt lat="-26.78107593482775" lon="115.71010854989802"><ele>301.0</ele><time>2026-04-15T06:59:27Z</time></trkpt><trkpt lat="-26.781162536389353" lon="115.70981355793084"><ele>301.0</ele><time>2026-04-15T06:59:28Z</time></trkpt><trkpt lat="-26.78124839838619" lon="115.70951905571015"><ele>301.0</ele><time>2026-04-15T06:59:29Z</time></trkpt><trkpt lat="-26.78133414937038" lon="115.7092259238591"><ele>300.5</ele><time>2026-04-15T06:59:30Z</time></trkpt><trkpt lat="-26.78141625709284" lon="115.70894137709014"><ele>300.0</ele><time>2026-04-15T06:59:31Z</time></trkpt><trkpt lat="-26.781507619195086" lon="115.7086483075403"><ele>300.5</ele><time>2026-04-15T06:59:32Z</time></trkpt><trkpt lat="-26.78159501984931" lon="115.70835824943971"><ele>301.0</ele><time>2026-04-15T06:59:33Z</time></trkpt><trkpt lat="-26.78168339388593" lon="115.70806696004126"><ele>301.0</ele><time>2026-04-15T06:59:34Z</time></trkpt><trkpt lat="-26.7817712200287" lon="115.70777447823953"><ele>301.0</ele><time>2026-04-15T06:59:35Z</time></trkpt><trkpt lat="-26.781857490967315" lon="115.707481353369"><ele>301.5</ele><time>2026-04-15T06:59:36Z</time></trkpt><trkpt lat="-26.781942809198302" lon="115.70718870922653"><ele>302.0</ele><time>2026-04-15T06:59:37Z</time></trkpt><trkpt lat="-26.782032215202392" lon="115.70689370888367"><ele>301.0</ele><time>2026-04-15T06:59:38Z</time></trkpt><trkpt lat="-26.7821225371799" lon="115.70659705732335"><ele>300.0</ele><time>2026-04-15T06:59:39Z</time></trkpt><trkpt lat="-26.78221193238564" lon="115.70630273926919"><ele>300.0</ele><time>2026-04-15T06:59:40Z</time></trkpt><trkpt lat="-26.782305298237716" lon="115.70600811989077"><ele>300.0</ele><time>2026-04-15T06:59:41Z</time></trkpt><trkpt lat="-26.78239431941085" lon="115.70571580697737"><ele>300.0</ele><time>2026-04-15T06:59:42Z</time></trkpt><trkpt lat="-26.78248584649953" lon="115.70542378140063"><ele>300.0</ele><time>2026-04-15T06:59:43Z</time></trkpt><trkpt lat="-26.782575027037502" lon="115.70513338218048"><ele>299.5</ele><time>2026-04-15T06:59:44Z</time></trkpt><trkpt lat="-26.782666722516527" lon="115.70483717988654"><ele>299.0</ele><time>2026-04-15T06:59:45Z</time></trkpt><trkpt lat="-26.782755661357353" lon="115.70454593167338"><ele>299.0</ele><time>2026-04-15T06:59:46Z</time></trkpt><trkpt lat="-26.782842003015254" lon="115.70425550003104"><ele>299.0</ele><time>2026-04-15T06:59:47Z</time></trkpt><trkpt lat="-26.78292249907004" lon="115.70397181103125"><ele>299.0</ele><time>2026-04-15T06:59:48Z</time></trkpt><trkpt lat="-26.783000820644574" lon="115.70369573883399"><ele>299.0</ele><time>2026-04-15T06:59:49Z</time></trkpt><trkpt lat="-26.78307493038621" lon="115.70343432670825"><ele>298.0</ele><time>2026-04-15T06:59:50Z</time></trkpt><trkpt lat="-26.78314184597097" lon="115.70319158185838"><ele>297.0</ele><time>2026-04-15T06:59:51Z</time></trkpt><trkpt lat="-26.78320321475391" lon="115.7029511113373"><ele>297.6666666666667</ele><time>2026-04-15T06:59:52Z</time></trkpt><trkpt lat="-26.783249611331094" lon="115.70272243981525"><ele>298.33333333333337</ele><time>2026-04-15T06:59:53Z</time></trkpt><trkpt lat="-26.78328214062606" lon="115.70248419351202"><ele>299.0</ele><time>2026-04-15T06:59:54Z</time></trkpt><trkpt lat="-26.78330203767646" lon="115.70223013042032"><ele>299.0</ele><time>2026-04-15T06:59:55Z</time></trkpt><trkpt lat="-26.783303809794113" lon="115.7019643927505"><ele>299.0</ele><time>2026-04-15T06:59:56Z</time></trkpt><trkpt lat="-26.783291415084634" lon="115.70169049471106"><ele>297.5</ele><time>2026-04-15T06:59:57Z</time></trkpt><trkpt lat="-26.78326847372024" lon="115.70140926209527"><ele>296.0</ele><time>2026-04-15T06:59:58Z</time></trkpt><trkpt lat="-26.783241718569812" lon="115.70112836839931"><ele>297.0</ele><time>2026-04-15T06:59:59Z</time></trkpt><trkpt lat="-26.783212011971045" lon="115.70084764045176"><ele>298.0</ele><time>2026-04-15T07:00:00Z</time></trkpt><trkpt lat="-26.783182643258815" lon="115.70056722162354"><ele>298.0</ele><time>2026-04-15T07:00:01Z</time></trkpt><trkpt lat="-26.783153474440123" lon="115.70028244962143"><ele>298.0</ele><time>2026-04-15T07:00:02Z</time></trkpt><trkpt lat="-26.78312655479547" lon="115.69999796136801"><ele>298.5</ele><time>2026-04-15T07:00:03Z</time></trkpt><trkpt lat="-26.78310117976181" lon="115.69971032117002"><ele>299.0</ele><time>2026-04-15T07:00:04Z</time></trkpt><trkpt lat="-26.783077033275628" lon="115.69942374327063"><ele>298.0</ele><time>2026-04-15T07:00:05Z</time></trkpt><trkpt lat="-26.783052008412756" lon="115.69912877729814"><ele>297.0</ele><time>2026-04-15T07:00:06Z</time></trkpt><trkpt lat="-26.783028922473875" lon="115.6988366962494"><ele>296.0</ele><time>2026-04-15T07:00:07Z</time></trkpt><trkpt lat="-26.783005418856245" lon="115.69854201562208"><ele>295.0</ele><time>2026-04-15T07:00:08Z</time></trkpt><trkpt lat="-26.782980910318802" lon="115.69824340621841"><ele>295.0</ele><time>2026-04-15T07:00:09Z</time></trkpt><trkpt lat="-26.78295396226091" lon="115.69794812434624"><ele>295.0</ele><time>2026-04-15T07:00:10Z</time></trkpt><trkpt lat="-26.782929949669942" lon="115.69764864942043"><ele>294.0</ele><time>2026-04-15T07:00:11Z</time></trkpt><trkpt lat="-26.78290447686714" lon="115.69735772112989"><ele>293.0</ele><time>2026-04-15T07:00:12Z</time></trkpt><trkpt lat="-26.78287914772071" lon="115.69707000405256"><ele>292.5</ele><time>2026-04-15T07:00:13Z</time></trkpt><trkpt lat="-26.782852004355515" lon="115.69677997863158"><ele>292.0</ele><time>2026-04-15T07:00:14Z</time></trkpt><trkpt lat="-26.782822430992557" lon="115.69648728284803"><ele>292.0</ele><time>2026-04-15T07:00:15Z</time></trkpt><trkpt lat="-26.782791447729753" lon="115.69619218571776"><ele>292.0</ele><time>2026-04-15T07:00:16Z</time></trkpt><trkpt lat="-26.78276203587847" lon="115.6958964259096"><ele>293.5</ele><time>2026-04-15T07:00:17Z</time></trkpt><trkpt lat="-26.782730525466256" lon="115.69560407069778"><ele>295.0</ele><time>2026-04-15T07:00:18Z</time></trkpt><trkpt lat="-26.782698996056382" lon="115.69531135139322"><ele>296.5</ele><time>2026-04-15T07:00:19Z</time></trkpt><trkpt lat="-26.78266122329023" lon="115.69502712937134"><ele>298.0</ele><time>2026-04-15T07:00:20Z</time></trkpt><trkpt lat="-26.782622045458695" lon="115.69473850977695"><ele>298.0</ele><time>2026-04-15T07:00:21Z</time></trkpt><trkpt lat="-26.782577164500665" lon="115.69444951200606"><ele>298.0</ele><time>2026-04-15T07:00:22Z</time></trkpt><trkpt lat="-26.78252839822398" lon="115.69416496809477"><ele>298.0</ele><time>2026-04-15T07:00:23Z</time></trkpt><trkpt lat="-26.782475604953824" lon="115.69388053422006"><ele>298.0</ele><time>2026-04-15T07:00:24Z</time></trkpt><trkpt lat="-26.78241631095891" lon="115.69359307301629"><ele>297.5</ele><time>2026-04-15T07:00:25Z</time></trkpt><trkpt lat="-26.78235227541442" lon="115.69330665518535"><ele>297.0</ele><time>2026-04-15T07:00:26Z</time></trkpt><trkpt lat="-26.782286346525517" lon="115.69301634033438"><ele>295.0</ele><time>2026-04-15T07:00:27Z</time></trkpt><trkpt lat="-26.78222052667457" lon="115.69272785778853"><ele>293.0</ele><time>2026-04-15T07:00:28Z</time></trkpt><trkpt lat="-26.78215418059379" lon="115.6924366319382"><ele>293.0</ele><time>2026-04-15T07:00:29Z</time></trkpt><trkpt lat="-26.78208958695656" lon="115.69214339191693"><ele>293.0</ele><time>2026-04-15T07:00:30Z</time></trkpt><trkpt lat="-26.782022605298312" lon="115.69185638661476"><ele>292.0</ele><time>2026-04-15T07:00:31Z</time></trkpt><trkpt lat="-26.781958295492224" lon="115.69157170852678"><ele>291.0</ele><time>2026-04-15T07:00:32Z</time></trkpt><trkpt lat="-26.781892644204433" lon="115.69129978042125"><ele>293.0</ele><time>2026-04-15T07:00:33Z</time></trkpt><trkpt lat="-26.78182512729395" lon="115.69103478752402"><ele>295.0</ele><time>2026-04-15T07:00:34Z</time></trkpt><trkpt lat="-26.781751472294495" lon="115.69077396157924"><ele>295.0</ele><time>2026-04-15T07:00:35Z</time></trkpt><trkpt lat="-26.781668144230668" lon="115.69050234988809"><ele>295.0</ele><time>2026-04-15T07:00:36Z</time></trkpt><trkpt lat="-26.78158007470865" lon="115.69023273927012"><ele>294.0</ele><time>2026-04-15T07:00:37Z</time></trkpt><trkpt lat="-26.781485119035924" lon="115.68996236417775"><ele>293.0</ele><time>2026-04-15T07:00:38Z</time></trkpt><trkpt lat="-26.781390968327887" lon="115.68969924079128"><ele>293.0</ele><time>2026-04-15T07:00:39Z</time></trkpt><trkpt lat="-26.781295367764336" lon="115.68943118310804"><ele>293.0</ele><time>2026-04-15T07:00:40Z</time></trkpt><trkpt lat="-26.781205589204788" lon="115.68915358928906"><ele>293.5</ele><time>2026-04-15T07:00:41Z</time></trkpt><trkpt lat="-26.781123302467403" lon="115.68887237851463"><ele>294.0</ele><time>2026-04-15T07:00:42Z</time></trkpt><trkpt lat="-26.781047778332283" lon="115.68858474547436"><ele>293.5</ele><time>2026-04-15T07:00:43Z</time></trkpt><trkpt lat="-26.780976279057885" lon="115.68829985632547"><ele>293.0</ele><time>2026-04-15T07:00:44Z</time></trkpt><trkpt lat="-26.780909916815858" lon="115.68800091726712"><ele>292.5</ele><time>2026-04-15T07:00:45Z</time></trkpt><trkpt lat="-26.78085628817466" lon="115.6877113068055"><ele>292.0</ele><time>2026-04-15T07:00:46Z</time></trkpt><trkpt lat="-26.78082036765029" lon="115.68741852415948"><ele>292.0</ele><time>2026-04-15T07:00:47Z</time></trkpt><trkpt lat="-26.780802892215736" lon="115.68712296386809"><ele>292.0</ele><time>2026-04-15T07:00:48Z</time></trkpt><trkpt lat="-26.780804394216588" lon="115.68681869837032"><ele>292.0</ele><time>2026-04-15T07:00:49Z</time></trkpt><trkpt lat="-26.780820002512577" lon="115.68651680397069"><ele>292.0</ele><time>2026-04-15T07:00:50Z</time></trkpt><trkpt lat="-26.78084392855851" lon="115.68621468653221"><ele>291.5</ele><time>2026-04-15T07:00:51Z</time></trkpt><trkpt lat="-26.780866739542418" lon="115.68591256463492"><ele>291.0</ele><time>2026-04-15T07:00:52Z</time></trkpt><trkpt lat="-26.780884113294203" lon="115.6856150367969"><ele>291.0</ele><time>2026-04-15T07:00:53Z</time></trkpt><trkpt lat="-26.780898057397316" lon="115.68531546812675"><ele>291.0</ele><time>2026-04-15T07:00:54Z</time></trkpt><trkpt lat="-26.780914311320075" lon="115.68501513053229"><ele>291.0</ele><time>2026-04-15T07:00:55Z</time></trkpt><trkpt lat="-26.78093236230179" lon="115.68471276425295"><ele>291.0</ele><time>2026-04-15T07:00:56Z</time></trkpt><trkpt lat="-26.78095222176392" lon="115.68440983476556"><ele>290.5</ele><time>2026-04-15T07:00:57Z</time></trkpt><trkpt lat="-26.780972711831392" lon="115.68410792609014"><ele>290.0</ele><time>2026-04-15T07:00:58Z</time></trkpt><trkpt lat="-26.78099180152876" lon="115.68380589428891"><ele>290.5</ele><time>2026-04-15T07:00:59Z</time></trkpt><trkpt lat="-26.7810089563447" lon="115.6835050159055"><ele>291.0</ele><time>2026-04-15T07:01:00Z</time></trkpt><trkpt lat="-26.781029053395955" lon="115.68320094016698"><ele>291.0</ele><time>2026-04-15T07:01:01Z</time></trkpt><trkpt lat="-26.781049441127003" lon="115.6828954101056"><ele>291.0</ele><time>2026-04-15T07:01:02Z</time></trkpt><trkpt lat="-26.781066363448346" lon="115.68259538226697"><ele>290.0</ele><time>2026-04-15T07:01:03Z</time></trkpt><trkpt lat="-26.78108175390962" lon="115.68229876785799"><ele>289.0</ele><time>2026-04-15T07:01:04Z</time></trkpt><trkpt lat="-26.781097777233708" lon="115.68200194833882"><ele>289.0</ele><time>2026-04-15T07:01:05Z</time></trkpt><trkpt lat="-26.78111337629855" lon="115.6816972189574"><ele>289.0</ele><time>2026-04-15T07:01:06Z</time></trkpt><trkpt lat="-26.781132102108128" lon="115.68139803841132"><ele>289.0</ele><time>2026-04-15T07:01:07Z</time></trkpt><trkpt lat="-26.781150198456263" lon="115.68110167788556"><ele>289.0</ele><time>2026-04-15T07:01:08Z</time></trkpt><trkpt lat="-26.7811672398702" lon="115.68080614513063"><ele>290.0</ele><time>2026-04-15T07:01:09Z</time></trkpt><trkpt lat="-26.78117966646313" lon="115.68051299965754"><ele>291.0</ele><time>2026-04-15T07:01:10Z</time></trkpt><trkpt lat="-26.78119258614815" lon="115.6802173348417"><ele>291.0</ele><time>2026-04-15T07:01:11Z</time></trkpt><trkpt lat="-26.78120418538854" lon="115.67991626290527"><ele>291.0</ele><time>2026-04-15T07:01:12Z</time></trkpt><trkpt lat="-26.78121569342987" lon="115.67961869932896"><ele>291.0</ele><time>2026-04-15T07:01:13Z</time></trkpt><trkpt lat="-26.781222815251915" lon="115.67931871983866"><ele>291.0</ele><time>2026-04-15T07:01:14Z</time></trkpt><trkpt lat="-26.781222392205542" lon="115.6790191430753"><ele>291.0</ele><time>2026-04-15T07:01:15Z</time></trkpt><trkpt lat="-26.781213066673626" lon="115.67871816627861"><ele>291.0</ele><time>2026-04-15T07:01:16Z</time></trkpt><trkpt lat="-26.781198172200224" lon="115.678417629459"><ele>291.5</ele><time>2026-04-15T07:01:17Z</time></trkpt><trkpt lat="-26.78117941220088" lon="115.67812282186"><ele>292.0</ele><time>2026-04-15T07:01:18Z</time></trkpt><trkpt lat="-26.78115298009272" lon="115.67782510041745"><ele>292.0</ele><time>2026-04-15T07:01:19Z</time></trkpt><trkpt lat="-26.781123642114032" lon="115.67752788304938"><ele>292.0</ele><time>2026-04-15T07:01:20Z</time></trkpt><trkpt lat="-26.781096780458316" lon="115.67723481034726"><ele>292.0</ele><time>2026-04-15T07:01:21Z</time></trkpt><trkpt lat="-26.781067989006125" lon="115.6769403072946"><ele>292.0</ele><time>2026-04-15T07:01:22Z</time></trkpt><trkpt lat="-26.781041126682755" lon="115.67664617639352"><ele>292.0</ele><time>2026-04-15T07:01:23Z</time></trkpt><trkpt lat="-26.781016388912462" lon="115.67635377473609"><ele>292.0</ele><time>2026-04-15T07:01:24Z</time></trkpt><trkpt lat="-26.780990326913674" lon="115.67606142787193"><ele>292.0</ele><time>2026-04-15T07:01:25Z</time></trkpt><trkpt lat="-26.780961390071926" lon="115.67576080628176"><ele>292.0</ele><time>2026-04-15T07:01:26Z</time></trkpt><trkpt lat="-26.780931082273174" lon="115.6754588186396"><ele>292.5</ele><time>2026-04-15T07:01:27Z</time></trkpt><trkpt lat="-26.780899949989355" lon="115.67515613497756"><ele>293.0</ele><time>2026-04-15T07:01:28Z</time></trkpt><trkpt lat="-26.780869737569063" lon="115.67485482082515"><ele>293.0</ele><time>2026-04-15T07:01:29Z</time></trkpt><trkpt lat="-26.780838339540143" lon="115.6745564750259"><ele>293.0</ele><time>2026-04-15T07:01:30Z</time></trkpt><trkpt lat="-26.780809253135548" lon="115.6742535794146"><ele>293.5</ele><time>2026-04-15T07:01:31Z</time></trkpt><trkpt lat="-26.78077937836394" lon="115.67394856931014"><ele>294.0</ele><time>2026-04-15T07:01:32Z</time></trkpt><trkpt lat="-26.780750568131605" lon="115.67364237122221"><ele>293.5</ele><time>2026-04-15T07:01:33Z</time></trkpt><trkpt lat="-26.780724631036108" lon="115.67333336300071"><ele>293.0</ele><time>2026-04-15T07:01:34Z</time></trkpt><trkpt lat="-26.78069659635788" lon="115.6730216312038"><ele>293.0</ele><time>2026-04-15T07:01:35Z</time></trkpt><trkpt lat="-26.780663801152855" lon="115.67271334023887"><ele>293.0</ele><time>2026-04-15T07:01:36Z</time></trkpt><trkpt lat="-26.78062794183294" lon="115.67240494349022"><ele>293.0</ele><time>2026-04-15T07:01:37Z</time></trkpt><trkpt lat="-26.78059297892862" lon="115.67209355479791"><ele>293.0</ele><time>2026-04-15T07:01:38Z</time></trkpt><trkpt lat="-26.78056146925434" lon="115.67178078764562"><ele>293.0</ele><time>2026-04-15T07:01:39Z</time></trkpt><trkpt lat="-26.780532212854702" lon="115.67146703113403"><ele>293.0</ele><time>2026-04-15T07:01:40Z</time></trkpt><trkpt lat="-26.780503039947735" lon="115.67114949126412"><ele>293.5</ele><time>2026-04-15T07:01:41Z</time></trkpt><trkpt lat="-26.780475008299128" lon="115.67083306772624"><ele>294.0</ele><time>2026-04-15T07:01:42Z</time></trkpt><trkpt lat="-26.780446087781748" lon="115.67052178885316"><ele>293.0</ele><time>2026-04-15T07:01:43Z</time></trkpt><trkpt lat="-26.780415579955125" lon="115.67020874699068"><ele>292.0</ele><time>2026-04-15T07:01:44Z</time></trkpt><trkpt lat="-26.780382904744215" lon="115.66989966052809"><ele>292.0</ele><time>2026-04-15T07:01:45Z</time></trkpt><trkpt lat="-26.780351708003536" lon="115.66958889852958"><ele>292.0</ele><time>2026-04-15T07:01:46Z</time></trkpt><trkpt lat="-26.78032267733125" lon="115.66928773802614"><ele>294.0</ele><time>2026-04-15T07:01:47Z</time></trkpt><trkpt lat="-26.78029153977805" lon="115.66898258971726"><ele>296.0</ele><time>2026-04-15T07:01:48Z</time></trkpt><trkpt lat="-26.780260972442882" lon="115.66868185362259"><ele>295.0</ele><time>2026-04-15T07:01:49Z</time></trkpt><trkpt lat="-26.780233531510973" lon="115.66837907473597"><ele>294.0</ele><time>2026-04-15T07:01:50Z</time></trkpt><trkpt lat="-26.78020509709006" lon="115.66808327676773"><ele>294.0</ele><time>2026-04-15T07:01:51Z</time></trkpt><trkpt lat="-26.780177114194462" lon="115.66778534350166"><ele>294.0</ele><time>2026-04-15T07:01:52Z</time></trkpt><trkpt lat="-26.78014997234575" lon="115.66748890020361"><ele>294.0</ele><time>2026-04-15T07:01:53Z</time></trkpt><trkpt lat="-26.780123887701546" lon="115.6671905325315"><ele>294.0</ele><time>2026-04-15T07:01:54Z</time></trkpt><trkpt lat="-26.7800995625586" lon="115.66689369675983"><ele>295.0</ele><time>2026-04-15T07:01:55Z</time></trkpt><trkpt lat="-26.780074281576518" lon="115.66659649910417"><ele>296.0</ele><time>2026-04-15T07:01:56Z</time></trkpt><trkpt lat="-26.780051353107666" lon="115.66630235253746"><ele>297.5</ele><time>2026-04-15T07:01:57Z</time></trkpt><trkpt lat="-26.780025580373295" lon="115.66600587071761"><ele>299.0</ele><time>2026-04-15T07:01:58Z</time></trkpt><trkpt lat="-26.78000131413746" lon="115.66570995633532"><ele>299.0</ele><time>2026-04-15T07:01:59Z</time></trkpt><trkpt lat="-26.77997764255231" lon="115.66541495074075"><ele>299.0</ele><time>2026-04-15T07:02:00Z</time></trkpt><trkpt lat="-26.779959906767832" lon="115.66511792549247"><ele>299.0</ele><time>2026-04-15T07:02:01Z</time></trkpt><trkpt lat="-26.779945213160776" lon="115.6648229470811"><ele>299.0</ele><time>2026-04-15T07:02:02Z</time></trkpt><trkpt lat="-26.77993056130205" lon="115.66452640588271"><ele>299.0</ele><time>2026-04-15T07:02:03Z</time></trkpt><trkpt lat="-26.77991463632111" lon="115.66422789949155"><ele>299.0</ele><time>2026-04-15T07:02:04Z</time></trkpt><trkpt lat="-26.779898903569684" lon="115.66393716721929"><ele>299.0</ele><time>2026-04-15T07:02:05Z</time></trkpt><trkpt lat="-26.779880490616478" lon="115.66363852713899"><ele>299.0</ele><time>2026-04-15T07:02:06Z</time></trkpt><trkpt lat="-26.779865712232944" lon="115.66334405223776"><ele>298.0</ele><time>2026-04-15T07:02:07Z</time></trkpt><trkpt lat="-26.779856177905877" lon="115.66303378143581"><ele>297.0</ele><time>2026-04-15T07:02:08Z</time></trkpt><trkpt lat="-26.77984364960956" lon="115.66272750984142"><ele>297.0</ele><time>2026-04-15T07:02:09Z</time></trkpt><trkpt lat="-26.779825023250304" lon="115.66242633206399"><ele>297.0</ele><time>2026-04-15T07:02:10Z</time></trkpt><trkpt lat="-26.77980175001306" lon="115.66213037453691"><ele>296.5</ele><time>2026-04-15T07:02:11Z</time></trkpt><trkpt lat="-26.779779667179778" lon="115.66183456702201"><ele>296.0</ele><time>2026-04-15T07:02:12Z</time></trkpt><trkpt lat="-26.779760749346362" lon="115.66154716508312"><ele>296.0</ele><time>2026-04-15T07:02:13Z</time></trkpt><trkpt lat="-26.779744558399116" lon="115.66125107758201"><ele>296.0</ele><time>2026-04-15T07:02:14Z</time></trkpt><trkpt lat="-26.779727125479575" lon="115.66095620604933"><ele>296.0</ele><time>2026-04-15T07:02:15Z</time></trkpt><trkpt lat="-26.779710495261916" lon="115.66066564095006"><ele>296.0</ele><time>2026-04-15T07:02:16Z</time></trkpt><trkpt lat="-26.779696096893794" lon="115.66037312826951"><ele>295.5</ele><time>2026-04-15T07:02:17Z</time></trkpt><trkpt lat="-26.779682133403952" lon="115.66008112253914"><ele>295.0</ele><time>2026-04-15T07:02:18Z</time></trkpt><trkpt lat="-26.77967069127714" lon="115.6597912802451"><ele>295.0</ele><time>2026-04-15T07:02:19Z</time></trkpt><trkpt lat="-26.779659710567383" lon="115.65949630375343"><ele>295.0</ele><time>2026-04-15T07:02:20Z</time></trkpt><trkpt lat="-26.779647273018764" lon="115.65919819333283"><ele>295.5</ele><time>2026-04-15T07:02:21Z</time></trkpt><trkpt lat="-26.779634822891563" lon="115.65890431027898"><ele>296.0</ele><time>2026-04-15T07:02:22Z</time></trkpt><trkpt lat="-26.77962158377496" lon="115.65861019462636"><ele>296.5</ele><time>2026-04-15T07:02:23Z</time></trkpt><trkpt lat="-26.779608444538734" lon="115.65831807671098"><ele>297.0</ele><time>2026-04-15T07:02:24Z</time></trkpt><trkpt lat="-26.77959624501338" lon="115.65802521614114"><ele>296.5</ele><time>2026-04-15T07:02:25Z</time></trkpt><trkpt lat="-26.77958751078788" lon="115.65772922529865"><ele>296.0</ele><time>2026-04-15T07:02:26Z</time></trkpt><trkpt lat="-26.779577780596544" lon="115.65743233995845"><ele>296.0</ele><time>2026-04-15T07:02:27Z</time></trkpt><trkpt lat="-26.77956597019979" lon="115.65713665351458"><ele>296.0</ele><time>2026-04-15T07:02:28Z</time></trkpt><trkpt lat="-26.77955192801979" lon="115.65683697830757"><ele>296.0</ele><time>2026-04-15T07:02:29Z</time></trkpt><trkpt lat="-26.7795379376713" lon="115.65653852787382"><ele>296.0</ele><time>2026-04-15T07:02:30Z</time></trkpt><trkpt lat="-26.77952386533513" lon="115.65624299889826"><ele>296.0</ele><time>2026-04-15T07:02:31Z</time></trkpt><trkpt lat="-26.779511060162058" lon="115.6559478553666"><ele>296.0</ele><time>2026-04-15T07:02:32Z</time></trkpt><trkpt lat="-26.77949775646403" lon="115.65565611319225"><ele>296.0</ele><time>2026-04-15T07:02:33Z</time></trkpt><trkpt lat="-26.77948208679439" lon="115.65536092244811"><ele>296.0</ele><time>2026-04-15T07:02:34Z</time></trkpt><trkpt lat="-26.779466523164377" lon="115.65506589173418"><ele>296.0</ele><time>2026-04-15T07:02:35Z</time></trkpt><trkpt lat="-26.779451319077058" lon="115.65477084318704"><ele>296.0</ele><time>2026-04-15T07:02:36Z</time></trkpt><trkpt lat="-26.779436974891865" lon="115.65447255067188"><ele>295.0</ele><time>2026-04-15T07:02:37Z</time></trkpt><trkpt lat="-26.779420240522274" lon="115.65416925988453"><ele>294.0</ele><time>2026-04-15T07:02:38Z</time></trkpt><trkpt lat="-26.779400552417986" lon="115.65386728470682"><ele>293.5</ele><time>2026-04-15T07:02:39Z</time></trkpt><trkpt lat="-26.779380938077857" lon="115.65356169128505"><ele>293.0</ele><time>2026-04-15T07:02:40Z</time></trkpt><trkpt lat="-26.77936552161959" lon="115.65325618362243"><ele>293.0</ele><time>2026-04-15T07:02:41Z</time></trkpt><trkpt lat="-26.77935339230875" lon="115.65295055705504"><ele>293.0</ele><time>2026-04-15T07:02:42Z</time></trkpt><trkpt lat="-26.779337350154954" lon="115.65263682834437"><ele>292.5</ele><time>2026-04-15T07:02:43Z</time></trkpt><trkpt lat="-26.779319752903756" lon="115.65232358382362"><ele>292.0</ele><time>2026-04-15T07:02:44Z</time></trkpt><trkpt lat="-26.779304594882337" lon="115.65201606048477"><ele>291.5</ele><time>2026-04-15T07:02:45Z</time></trkpt><trkpt lat="-26.77928850873125" lon="115.65170672454545"><ele>291.0</ele><time>2026-04-15T07:02:46Z</time></trkpt><trkpt lat="-26.779272422495136" lon="115.65139239022842"><ele>292.0</ele><time>2026-04-15T07:02:47Z</time></trkpt><trkpt lat="-26.77926139657756" lon="115.65107687139441"><ele>293.0</ele><time>2026-04-15T07:02:48Z</time></trkpt><trkpt lat="-26.77925518928187" lon="115.65076379748265"><ele>293.0</ele><time>2026-04-15T07:02:49Z</time></trkpt><trkpt lat="-26.779246973283392" lon="115.65045890625629"><ele>293.0</ele><time>2026-04-15T07:02:50Z</time></trkpt><trkpt lat="-26.779238473659667" lon="115.65015394977686"><ele>293.5</ele><time>2026-04-15T07:02:51Z</time></trkpt><trkpt lat="-26.77922840178341" lon="115.6498492332135"><ele>294.0</ele><time>2026-04-15T07:02:52Z</time></trkpt><trkpt lat="-26.779214458467287" lon="115.64954383897908"><ele>293.0</ele><time>2026-04-15T07:02:53Z</time></trkpt><trkpt lat="-26.779196502691725" lon="115.6492421724502"><ele>292.0</ele><time>2026-04-15T07:02:54Z</time></trkpt><trkpt lat="-26.779175661033328" lon="115.64893711013367"><ele>292.0</ele><time>2026-04-15T07:02:55Z</time></trkpt><trkpt lat="-26.77915663899637" lon="115.64863311153894"><ele>292.0</ele><time>2026-04-15T07:02:56Z</time></trkpt><trkpt lat="-26.779138502669856" lon="115.6483248021667"><ele>291.5</ele><time>2026-04-15T07:02:57Z</time></trkpt><trkpt lat="-26.779123907094796" lon="115.64802236234293"><ele>291.0</ele><time>2026-04-15T07:02:58Z</time></trkpt><trkpt lat="-26.77910874156925" lon="115.64772263286335"><ele>291.0</ele><time>2026-04-15T07:02:59Z</time></trkpt><trkpt lat="-26.779093622388594" lon="115.64742129319686"><ele>291.0</ele><time>2026-04-15T07:03:00Z</time></trkpt><trkpt lat="-26.779080695362545" lon="115.64712407125866"><ele>291.5</ele><time>2026-04-15T07:03:01Z</time></trkpt><trkpt lat="-26.779066244617937" lon="115.6468220526785"><ele>292.0</ele><time>2026-04-15T07:03:02Z</time></trkpt><trkpt lat="-26.779051306254903" lon="115.6465197933709"><ele>292.0</ele><time>2026-04-15T07:03:03Z</time></trkpt><trkpt lat="-26.779037657677048" lon="115.64621205764968"><ele>292.0</ele><time>2026-04-15T07:03:04Z</time></trkpt><trkpt lat="-26.77902612650872" lon="115.64590596305624"><ele>293.5</ele><time>2026-04-15T07:03:05Z</time></trkpt><trkpt lat="-26.779014587591398" lon="115.64560253322426"><ele>295.0</ele><time>2026-04-15T07:03:06Z</time></trkpt><trkpt lat="-26.779002323699036" lon="115.64529918262376"><ele>294.5</ele><time>2026-04-15T07:03:07Z</time></trkpt><trkpt lat="-26.778988024690463" lon="115.64499564400784"><ele>294.0</ele><time>2026-04-15T07:03:08Z</time></trkpt><trkpt lat="-26.77897388822231" lon="115.64468365137411"><ele>292.5</ele><time>2026-04-15T07:03:09Z</time></trkpt><trkpt lat="-26.778957069524118" lon="115.64436806012324"><ele>291.0</ele><time>2026-04-15T07:03:10Z</time></trkpt><trkpt lat="-26.77894206437912" lon="115.64405081765727"><ele>291.0</ele><time>2026-04-15T07:03:11Z</time></trkpt><trkpt lat="-26.778929713663487" lon="115.6437361398793"><ele>291.0</ele><time>2026-04-15T07:03:12Z</time></trkpt><trkpt lat="-26.778918526139712" lon="115.6434197954372"><ele>291.0</ele><time>2026-04-15T07:03:13Z</time></trkpt><trkpt lat="-26.778909279848023" lon="115.6431049681735"><ele>291.0</ele><time>2026-04-15T07:03:14Z</time></trkpt><trkpt lat="-26.77889898321015" lon="115.64279349961879"><ele>291.0</ele><time>2026-04-15T07:03:15Z</time></trkpt><trkpt lat="-26.77888744976686" lon="115.64248402841663"><ele>291.0</ele><time>2026-04-15T07:03:16Z</time></trkpt><trkpt lat="-26.77887810820458" lon="115.6421765124618"><ele>292.5</ele><time>2026-04-15T07:03:17Z</time></trkpt><trkpt lat="-26.77887136206759" lon="115.64187168312371"><ele>294.0</ele><time>2026-04-15T07:03:18Z</time></trkpt><trkpt lat="-26.778869304845063" lon="115.64156964378432"><ele>294.0</ele><time>2026-04-15T07:03:19Z</time></trkpt><trkpt lat="-26.778872365019236" lon="115.6412627351614"><ele>294.0</ele><time>2026-04-15T07:03:20Z</time></trkpt><trkpt lat="-26.77887946892429" lon="115.64094526723166"><ele>296.0</ele><time>2026-04-15T07:03:21Z</time></trkpt><trkpt lat="-26.77889431207176" lon="115.6406287083615"><ele>298.0</ele><time>2026-04-15T07:03:22Z</time></trkpt><trkpt lat="-26.77891200558027" lon="115.64031317642788"><ele>297.0</ele><time>2026-04-15T07:03:23Z</time></trkpt><trkpt lat="-26.778929508914956" lon="115.64000344856352"><ele>296.0</ele><time>2026-04-15T07:03:24Z</time></trkpt><trkpt lat="-26.77894884949913" lon="115.63969316085168"><ele>295.0</ele><time>2026-04-15T07:03:25Z</time></trkpt><trkpt lat="-26.778965691657397" lon="115.63938524853221"><ele>294.0</ele><time>2026-04-15T07:03:26Z</time></trkpt><trkpt lat="-26.778986414888735" lon="115.6390760306983"><ele>294.0</ele><time>2026-04-15T07:03:27Z</time></trkpt><trkpt lat="-26.779006590318932" lon="115.6387667126204"><ele>294.0</ele><time>2026-04-15T07:03:28Z</time></trkpt><trkpt lat="-26.779028320998655" lon="115.63845692657273"><ele>293.5</ele><time>2026-04-15T07:03:29Z</time></trkpt><trkpt lat="-26.779045786919568" lon="115.63815176064766"><ele>293.0</ele><time>2026-04-15T07:03:30Z</time></trkpt><trkpt lat="-26.779063548983196" lon="115.63784769234067"><ele>294.0</ele><time>2026-04-15T07:03:31Z</time></trkpt><trkpt lat="-26.7790786860113" lon="115.63754484821708"><ele>295.0</ele><time>2026-04-15T07:03:32Z</time></trkpt><trkpt lat="-26.779091390299957" lon="115.63724654801246"><ele>295.0</ele><time>2026-04-15T07:03:33Z</time></trkpt><trkpt lat="-26.779105685107258" lon="115.6369449477789"><ele>295.0</ele><time>2026-04-15T07:03:34Z</time></trkpt><trkpt lat="-26.779122174113994" lon="115.63664757550609"><ele>295.0</ele><time>2026-04-15T07:03:35Z</time></trkpt><trkpt lat="-26.779140845290524" lon="115.6363349043411"><ele>295.0</ele><time>2026-04-15T07:03:36Z</time></trkpt><trkpt lat="-26.7791625883989" lon="115.63602912996444"><ele>294.0</ele><time>2026-04-15T07:03:37Z</time></trkpt><trkpt lat="-26.779181882517925" lon="115.63572126745099"><ele>293.0</ele><time>2026-04-15T07:03:38Z</time></trkpt><trkpt lat="-26.779197159559295" lon="115.63541319486771"><ele>292.5</ele><time>2026-04-15T07:03:39Z</time></trkpt><trkpt lat="-26.779209668110685" lon="115.63510021207959"><ele>292.0</ele><time>2026-04-15T07:03:40Z</time></trkpt><trkpt lat="-26.779225209985167" lon="115.63477608915272"><ele>291.0</ele><time>2026-04-15T07:03:41Z</time></trkpt><trkpt lat="-26.77924135721414" lon="115.63446117803095"><ele>290.0</ele><time>2026-04-15T07:03:42Z</time></trkpt><trkpt lat="-26.779253710966046" lon="115.63414922321914"><ele>290.0</ele><time>2026-04-15T07:03:43Z</time></trkpt><trkpt lat="-26.77926649887322" lon="115.63383711764637"><ele>290.0</ele><time>2026-04-15T07:03:44Z</time></trkpt><trkpt lat="-26.77928025452779" lon="115.63352810500038"><ele>290.5</ele><time>2026-04-15T07:03:45Z</time></trkpt><trkpt lat="-26.779297466832006" lon="115.63321398672001"><ele>291.0</ele><time>2026-04-15T07:03:46Z</time></trkpt><trkpt lat="-26.779317046847044" lon="115.63289995408543"><ele>291.0</ele><time>2026-04-15T07:03:47Z</time></trkpt><trkpt lat="-26.779336124836306" lon="115.63259239744163"><ele>291.0</ele><time>2026-04-15T07:03:48Z</time></trkpt><trkpt lat="-26.779355543153198" lon="115.63228188368129"><ele>291.5</ele><time>2026-04-15T07:03:49Z</time></trkpt><trkpt lat="-26.77937574263184" lon="115.63197101141294"><ele>292.0</ele><time>2026-04-15T07:03:50Z</time></trkpt><trkpt lat="-26.77939283532921" lon="115.63165658947202"><ele>292.0</ele><time>2026-04-15T07:03:51Z</time></trkpt><trkpt lat="-26.779407171944978" lon="115.63135599168118"><ele>292.0</ele><time>2026-04-15T07:03:52Z</time></trkpt><trkpt lat="-26.779421477538538" lon="115.63105710478894"><ele>291.5</ele><time>2026-04-15T07:03:53Z</time></trkpt><trkpt lat="-26.779435720590943" lon="115.63076196218356"><ele>291.0</ele><time>2026-04-15T07:03:54Z</time></trkpt><trkpt lat="-26.77945471725682" lon="115.63045154931173"><ele>292.0</ele><time>2026-04-15T07:03:55Z</time></trkpt><trkpt lat="-26.779470886732376" lon="115.63014535337321"><ele>293.0</ele><time>2026-04-15T07:03:56Z</time></trkpt><trkpt lat="-26.77948278069799" lon="115.62983968108195"><ele>293.0</ele><time>2026-04-15T07:03:57Z</time></trkpt><trkpt lat="-26.779493743975365" lon="115.62954565014124"><ele>293.0</ele><time>2026-04-15T07:03:58Z</time></trkpt><trkpt lat="-26.77950802748489" lon="115.62925792302501"><ele>291.5</ele><time>2026-04-15T07:03:59Z</time></trkpt><trkpt lat="-26.77952609542051" lon="115.62897322267773"><ele>290.0</ele><time>2026-04-15T07:04:00Z</time></trkpt><trkpt lat="-26.779546762155388" lon="115.62868350393522"><ele>291.0</ele><time>2026-04-15T07:04:01Z</time></trkpt><trkpt lat="-26.779569290325938" lon="115.6283843470674"><ele>292.0</ele><time>2026-04-15T07:04:02Z</time></trkpt><trkpt lat="-26.779587877282005" lon="115.6280857200878"><ele>292.5</ele><time>2026-04-15T07:04:03Z</time></trkpt><trkpt lat="-26.779603081750004" lon="115.62778563484582"><ele>293.0</ele><time>2026-04-15T07:04:04Z</time></trkpt><trkpt lat="-26.779617416245767" lon="115.6274840616909"><ele>293.0</ele><time>2026-04-15T07:04:05Z</time></trkpt><trkpt lat="-26.77963520469411" lon="115.62718032684263"><ele>293.0</ele><time>2026-04-15T07:04:06Z</time></trkpt><trkpt lat="-26.779657167963876" lon="115.62686939873545"><ele>291.5</ele><time>2026-04-15T07:04:07Z</time></trkpt><trkpt lat="-26.779681902372957" lon="115.62655991445747"><ele>290.0</ele><time>2026-04-15T07:04:08Z</time></trkpt><trkpt lat="-26.77970855513435" lon="115.62624838904598"><ele>289.0</ele><time>2026-04-15T07:04:09Z</time></trkpt><trkpt lat="-26.779733252927706" lon="115.62593485051211"><ele>288.0</ele><time>2026-04-15T07:04:10Z</time></trkpt><trkpt lat="-26.77975533876294" lon="115.6256197618414"><ele>288.0</ele><time>2026-04-15T07:04:11Z</time></trkpt><trkpt lat="-26.77977729653896" lon="115.62530458588365"><ele>288.0</ele><time>2026-04-15T07:04:12Z</time></trkpt><trkpt lat="-26.779798854393583" lon="115.62498710014918"><ele>288.0</ele><time>2026-04-15T07:04:13Z</time></trkpt><trkpt lat="-26.77982080932594" lon="115.62466820730513"><ele>288.0</ele><time>2026-04-15T07:04:14Z</time></trkpt><trkpt lat="-26.779841882474418" lon="115.6243514138359"><ele>287.5</ele><time>2026-04-15T07:04:15Z</time></trkpt><trkpt lat="-26.77986306293432" lon="115.62403814468388"><ele>287.0</ele><time>2026-04-15T07:04:16Z</time></trkpt><trkpt lat="-26.779886036369525" lon="115.62372848785219"><ele>285.5</ele><time>2026-04-15T07:04:17Z</time></trkpt><trkpt lat="-26.779910703242468" lon="115.6234239351958"><ele>284.0</ele><time>2026-04-15T07:04:18Z</time></trkpt><trkpt lat="-26.77993602806928" lon="115.62312034379985"><ele>284.0</ele><time>2026-04-15T07:04:19Z</time></trkpt><trkpt lat="-26.779959920920636" lon="115.62281713467698"><ele>284.0</ele><time>2026-04-15T07:04:20Z</time></trkpt><trkpt lat="-26.77998327711492" lon="115.62251363409835"><ele>284.0</ele><time>2026-04-15T07:04:21Z</time></trkpt><trkpt lat="-26.78000795000608" lon="115.62220732216076"><ele>284.0</ele><time>2026-04-15T07:04:22Z</time></trkpt><trkpt lat="-26.780031891109648" lon="115.62190510738884"><ele>284.5</ele><time>2026-04-15T07:04:23Z</time></trkpt><trkpt lat="-26.780056652891496" lon="115.62159720035343"><ele>285.0</ele><time>2026-04-15T07:04:24Z</time></trkpt><trkpt lat="-26.78008003944823" lon="115.62128845753006"><ele>286.0</ele><time>2026-04-15T07:04:25Z</time></trkpt><trkpt lat="-26.780103857842402" lon="115.62098359937963"><ele>287.0</ele><time>2026-04-15T07:04:26Z</time></trkpt><trkpt lat="-26.780126680073472" lon="115.62067408313453"><ele>287.0</ele><time>2026-04-15T07:04:27Z</time></trkpt><trkpt lat="-26.780148319486866" lon="115.62037087355957"><ele>287.0</ele><time>2026-04-15T07:04:28Z</time></trkpt><trkpt lat="-26.780169064567424" lon="115.62006485666122"><ele>287.0</ele><time>2026-04-15T07:04:29Z</time></trkpt><trkpt lat="-26.780190166705413" lon="115.61975604948962"><ele>287.0</ele><time>2026-04-15T07:04:30Z</time></trkpt><trkpt lat="-26.78020881458491" lon="115.619449116327"><ele>287.0</ele><time>2026-04-15T07:04:31Z</time></trkpt><trkpt lat="-26.780227844537094" lon="115.61914942087932"><ele>287.0</ele><time>2026-04-15T07:04:32Z</time></trkpt><trkpt lat="-26.780249962366266" lon="115.61884790205646"><ele>287.0</ele><time>2026-04-15T07:04:33Z</time></trkpt><trkpt lat="-26.780275441063903" lon="115.61854700353514"><ele>287.0</ele><time>2026-04-15T07:04:34Z</time></trkpt><trkpt lat="-26.7803003974412" lon="115.61823868920762"><ele>287.0</ele><time>2026-04-15T07:04:35Z</time></trkpt><trkpt lat="-26.780322750835122" lon="115.61792728433689"><ele>287.0</ele><time>2026-04-15T07:04:36Z</time></trkpt><trkpt lat="-26.78034773440363" lon="115.61761763861452"><ele>288.0</ele><time>2026-04-15T07:04:37Z</time></trkpt><trkpt lat="-26.780369625114474" lon="115.61730826751548"><ele>289.0</ele><time>2026-04-15T07:04:38Z</time></trkpt><trkpt lat="-26.780390461834305" lon="115.61699518132643"><ele>290.0</ele><time>2026-04-15T07:04:39Z</time></trkpt><trkpt lat="-26.780407288986403" lon="115.61669000753204"><ele>291.0</ele><time>2026-04-15T07:04:40Z</time></trkpt><trkpt lat="-26.78042414199666" lon="115.61638046559322"><ele>291.5</ele><time>2026-04-15T07:04:41Z</time></trkpt><trkpt lat="-26.780439575240994" lon="115.61607281830933"><ele>292.0</ele><time>2026-04-15T07:04:42Z</time></trkpt><trkpt lat="-26.78045255990752" lon="115.61575972171407"><ele>292.0</ele><time>2026-04-15T07:04:43Z</time></trkpt><trkpt lat="-26.780459038786216" lon="115.61544551724808"><ele>292.0</ele><time>2026-04-15T07:04:44Z</time></trkpt><trkpt lat="-26.780460450249144" lon="115.6151251238023"><ele>291.5</ele><time>2026-04-15T07:04:45Z</time></trkpt><trkpt lat="-26.780457679386167" lon="115.6148105693275"><ele>291.0</ele><time>2026-04-15T07:04:46Z</time></trkpt><trkpt lat="-26.780447824130462" lon="115.6144975883775"><ele>291.0</ele><time>2026-04-15T07:04:47Z</time></trkpt><trkpt lat="-26.780433907861415" lon="115.61418386875692"><ele>291.0</ele><time>2026-04-15T07:04:48Z</time></trkpt><trkpt lat="-26.78041624204186" lon="115.61387210960983"><ele>290.0</ele><time>2026-04-15T07:04:49Z</time></trkpt><trkpt lat="-26.780401367586173" lon="115.61356268086259"><ele>289.0</ele><time>2026-04-15T07:04:50Z</time></trkpt><trkpt lat="-26.780393465581934" lon="115.61325218991244"><ele>289.0</ele><time>2026-04-15T07:04:51Z</time></trkpt><trkpt lat="-26.780383946222237" lon="115.61294124913006"><ele>289.0</ele><time>2026-04-15T07:04:52Z</time></trkpt><trkpt lat="-26.78037003309545" lon="115.61263417608464"><ele>289.0</ele><time>2026-04-15T07:04:53Z</time></trkpt><trkpt lat="-26.78035546565028" lon="115.61233476665225"><ele>289.0</ele><time>2026-04-15T07:04:54Z</time></trkpt><trkpt lat="-26.78034114172282" lon="115.61203043973458"><ele>290.5</ele><time>2026-04-15T07:04:55Z</time></trkpt><trkpt lat="-26.78032857231625" lon="115.61173549113187"><ele>292.0</ele><time>2026-04-15T07:04:56Z</time></trkpt><trkpt lat="-26.780320600612335" lon="115.6114402718901"><ele>291.5</ele><time>2026-04-15T07:04:57Z</time></trkpt><trkpt lat="-26.78031477335434" lon="115.61114278363748"><ele>291.0</ele><time>2026-04-15T07:04:58Z</time></trkpt><trkpt lat="-26.78030734643206" lon="115.61084545146248"><ele>291.0</ele><time>2026-04-15T07:04:59Z</time></trkpt><trkpt lat="-26.780300664976814" lon="115.61054143219418"><ele>291.0</ele><time>2026-04-15T07:05:00Z</time></trkpt><trkpt lat="-26.780295162729402" lon="115.61023695513515"><ele>290.0</ele><time>2026-04-15T07:05:01Z</time></trkpt><trkpt lat="-26.78028906228243" lon="115.60993678540478"><ele>289.0</ele><time>2026-04-15T07:05:02Z</time></trkpt><trkpt lat="-26.78028117345645" lon="115.6096342217701"><ele>290.0</ele><time>2026-04-15T07:05:03Z</time></trkpt><trkpt lat="-26.780271710803742" lon="115.60933420190858"><ele>291.0</ele><time>2026-04-15T07:05:04Z</time></trkpt><trkpt lat="-26.780261197416277" lon="115.60903812911441"><ele>291.0</ele><time>2026-04-15T07:05:05Z</time></trkpt><trkpt lat="-26.780250484399723" lon="115.60874551285865"><ele>291.0</ele><time>2026-04-15T07:05:06Z</time></trkpt><trkpt lat="-26.780242938844644" lon="115.60844819438591"><ele>290.5</ele><time>2026-04-15T07:05:07Z</time></trkpt><trkpt lat="-26.780236143617206" lon="115.60815375112497"><ele>290.0</ele><time>2026-04-15T07:05:08Z</time></trkpt><trkpt lat="-26.780232937244595" lon="115.60786947148128"><ele>289.5</ele><time>2026-04-15T07:05:09Z</time></trkpt><trkpt lat="-26.780227162195118" lon="115.60757702372774"><ele>289.0</ele><time>2026-04-15T07:05:10Z</time></trkpt><trkpt lat="-26.78022084992601" lon="115.60728186965858"><ele>289.0</ele><time>2026-04-15T07:05:11Z</time></trkpt><trkpt lat="-26.78021338531017" lon="115.60698211547201"><ele>289.0</ele><time>2026-04-15T07:05:12Z</time></trkpt><trkpt lat="-26.780202937398617" lon="115.60668276694516"><ele>289.0</ele><time>2026-04-15T07:05:13Z</time></trkpt><trkpt lat="-26.78018978223656" lon="115.60638566299836"><ele>289.0</ele><time>2026-04-15T07:05:14Z</time></trkpt><trkpt lat="-26.78017694474038" lon="115.60609162665962"><ele>291.0</ele><time>2026-04-15T07:05:15Z</time></trkpt><trkpt lat="-26.780162336627093" lon="115.60579993433464"><ele>293.0</ele><time>2026-04-15T07:05:16Z</time></trkpt><trkpt lat="-26.780148788874424" lon="115.60550737730676"><ele>292.5</ele><time>2026-04-15T07:05:17Z</time></trkpt><trkpt lat="-26.780135906279245" lon="115.60520697803831"><ele>292.0</ele><time>2026-04-15T07:05:18Z</time></trkpt><trkpt lat="-26.780123085927148" lon="115.60490032040711"><ele>292.0</ele><time>2026-04-15T07:05:19Z</time></trkpt><trkpt lat="-26.78010706954296" lon="115.60459402219811"><ele>292.0</ele><time>2026-04-15T07:05:20Z</time></trkpt><trkpt lat="-26.780087256356282" lon="115.60428455040025"><ele>292.5</ele><time>2026-04-15T07:05:21Z</time></trkpt><trkpt lat="-26.780062513477557" lon="115.60397541544116"><ele>293.0</ele><time>2026-04-15T07:05:22Z</time></trkpt><trkpt lat="-26.780030592296935" lon="115.60366774648064"><ele>292.0</ele><time>2026-04-15T07:05:23Z</time></trkpt><trkpt lat="-26.779992589592215" lon="115.6033571086749"><ele>291.0</ele><time>2026-04-15T07:05:24Z</time></trkpt><trkpt lat="-26.779950428917385" lon="115.60304387213527"><ele>291.0</ele><time>2026-04-15T07:05:25Z</time></trkpt><trkpt lat="-26.779910303554832" lon="115.60273521372949"><ele>291.0</ele><time>2026-04-15T07:05:26Z</time></trkpt><trkpt lat="-26.779872421334296" lon="115.60243191649018"><ele>291.0</ele><time>2026-04-15T07:05:27Z</time></trkpt><trkpt lat="-26.779836997969703" lon="115.60212755345812"><ele>291.0</ele><time>2026-04-15T07:05:28Z</time></trkpt><trkpt lat="-26.779803049039685" lon="115.6018242869927"><ele>291.0</ele><time>2026-04-15T07:05:29Z</time></trkpt><trkpt lat="-26.779767133049017" lon="115.60152179550575"><ele>291.0</ele><time>2026-04-15T07:05:30Z</time></trkpt><trkpt lat="-26.779727926661927" lon="115.6012207240133"><ele>290.0</ele><time>2026-04-15T07:05:31Z</time></trkpt><trkpt lat="-26.779687069039095" lon="115.60092045676127"><ele>289.0</ele><time>2026-04-15T07:05:32Z</time></trkpt><trkpt lat="-26.779645965788117" lon="115.60062057887076"><ele>289.5</ele><time>2026-04-15T07:05:33Z</time></trkpt><trkpt lat="-26.77960655737529" lon="115.60032356232773"><ele>290.0</ele><time>2026-04-15T07:05:34Z</time></trkpt><trkpt lat="-26.779566482084572" lon="115.60002844054767"><ele>290.0</ele><time>2026-04-15T07:05:35Z</time></trkpt><trkpt lat="-26.77952602134314" lon="115.59973616564062"><ele>290.0</ele><time>2026-04-15T07:05:36Z</time></trkpt><trkpt lat="-26.779485282393704" lon="115.5994406223742"><ele>290.5</ele><time>2026-04-15T07:05:37Z</time></trkpt><trkpt lat="-26.779447095450625" lon="115.59914229318618"><ele>291.0</ele><time>2026-04-15T07:05:38Z</time></trkpt><trkpt lat="-26.779413128676612" lon="115.59883714896222"><ele>291.5</ele><time>2026-04-15T07:05:39Z</time></trkpt><trkpt lat="-26.779382793694" lon="115.59853078342003"><ele>292.0</ele><time>2026-04-15T07:05:40Z</time></trkpt><trkpt lat="-26.779360378754358" lon="115.59822814897593"><ele>292.5</ele><time>2026-04-15T07:05:41Z</time></trkpt><trkpt lat="-26.779346166975234" lon="115.59792643686366"><ele>293.0</ele><time>2026-04-15T07:05:42Z</time></trkpt><trkpt lat="-26.77934231295297" lon="115.59762245591072"><ele>293.0</ele><time>2026-04-15T07:05:43Z</time></trkpt><trkpt lat="-26.779348355348038" lon="115.59731673318959"><ele>293.0</ele><time>2026-04-15T07:05:44Z</time></trkpt><trkpt lat="-26.77936213094132" lon="115.59700494786915"><ele>293.0</ele><time>2026-04-15T07:05:45Z</time></trkpt><trkpt lat="-26.779376683540146" lon="115.5966872950085"><ele>293.0</ele><time>2026-04-15T07:05:46Z</time></trkpt><trkpt lat="-26.779390232540333" lon="115.59636888008656"><ele>294.5</ele><time>2026-04-15T07:05:47Z</time></trkpt><trkpt lat="-26.779400911094108" lon="115.59604847387268"><ele>296.0</ele><time>2026-04-15T07:05:48Z</time></trkpt><trkpt lat="-26.77940752682293" lon="115.59573281416243"><ele>296.0</ele><time>2026-04-15T07:05:49Z</time></trkpt><trkpt lat="-26.7794107081913" lon="115.59541761254815"><ele>296.0</ele><time>2026-04-15T07:05:50Z</time></trkpt><trkpt lat="-26.779413076356185" lon="115.59510088262914"><ele>297.0</ele><time>2026-04-15T07:05:51Z</time></trkpt><trkpt lat="-26.77941681045987" lon="115.59478606831101"><ele>298.0</ele><time>2026-04-15T07:05:52Z</time></trkpt><trkpt lat="-26.779422857628322" lon="115.59447485762804"><ele>298.5</ele><time>2026-04-15T07:05:53Z</time></trkpt><trkpt lat="-26.779431906151977" lon="115.59416505495562"><ele>299.0</ele><time>2026-04-15T07:05:54Z</time></trkpt><trkpt lat="-26.779441087521892" lon="115.59385556485734"><ele>301.0</ele><time>2026-04-15T07:05:55Z</time></trkpt><trkpt lat="-26.779449351261423" lon="115.59354362292098"><ele>303.0</ele><time>2026-04-15T07:05:56Z</time></trkpt><trkpt lat="-26.77945929824004" lon="115.5932354677819"><ele>303.0</ele><time>2026-04-15T07:05:57Z</time></trkpt><trkpt lat="-26.77947051828581" lon="115.59292979780514"><ele>303.0</ele><time>2026-04-15T07:05:58Z</time></trkpt><trkpt lat="-26.779482731006073" lon="115.5926198361025"><ele>302.5</ele><time>2026-04-15T07:05:59Z</time></trkpt><trkpt lat="-26.7794984084593" lon="115.59230958675894"><ele>302.0</ele><time>2026-04-15T07:06:00Z</time></trkpt><trkpt lat="-26.77951893707804" lon="115.59199925282189"><ele>301.5</ele><time>2026-04-15T07:06:01Z</time></trkpt><trkpt lat="-26.77954147301347" lon="115.59168745737732"><ele>301.0</ele><time>2026-04-15T07:06:02Z</time></trkpt><trkpt lat="-26.77956557105246" lon="115.5913760490994"><ele>301.0</ele><time>2026-04-15T07:06:03Z</time></trkpt><trkpt lat="-26.779594548261606" lon="115.59105789034096"><ele>301.0</ele><time>2026-04-15T07:06:04Z</time></trkpt><trkpt lat="-26.779630061671124" lon="115.59073760017563"><ele>301.0</ele><time>2026-04-15T07:06:05Z</time></trkpt><trkpt lat="-26.779668740267283" lon="115.59041146313142"><ele>301.0</ele><time>2026-04-15T07:06:06Z</time></trkpt><trkpt lat="-26.779709041783406" lon="115.59007862819043"><ele>301.5</ele><time>2026-04-15T07:06:07Z</time></trkpt><trkpt lat="-26.77974637553538" lon="115.58975445927587"><ele>302.0</ele><time>2026-04-15T07:06:08Z</time></trkpt><trkpt lat="-26.779782536345238" lon="115.5894348557697"><ele>302.0</ele><time>2026-04-15T07:06:09Z</time></trkpt><trkpt lat="-26.779816875192672" lon="115.58912285119753"><ele>302.0</ele><time>2026-04-15T07:06:10Z</time></trkpt><trkpt lat="-26.77985633279843" lon="115.58881180034895"><ele>301.5</ele><time>2026-04-15T07:06:11Z</time></trkpt><trkpt lat="-26.779895925362382" lon="115.58849809990913"><ele>301.0</ele><time>2026-04-15T07:06:12Z</time></trkpt><trkpt lat="-26.779935000125747" lon="115.58818416937642"><ele>301.0</ele><time>2026-04-15T07:06:13Z</time></trkpt><trkpt lat="-26.77997200699264" lon="115.5878732066819"><ele>301.0</ele><time>2026-04-15T07:06:14Z</time></trkpt><trkpt lat="-26.780006639323812" lon="115.58757001682365"><ele>300.0</ele><time>2026-04-15T07:06:15Z</time></trkpt><trkpt lat="-26.780037975152705" lon="115.58727312158229"><ele>299.0</ele><time>2026-04-15T07:06:16Z</time></trkpt><trkpt lat="-26.780069272481445" lon="115.58698487219363"><ele>298.0</ele><time>2026-04-15T07:06:17Z</time></trkpt><trkpt lat="-26.78009944779528" lon="115.58669619927755"><ele>297.0</ele><time>2026-04-15T07:06:18Z</time></trkpt><trkpt lat="-26.780130025463123" lon="115.58640950004619"><ele>296.5</ele><time>2026-04-15T07:06:19Z</time></trkpt><trkpt lat="-26.780162935125116" lon="115.58612023542246"><ele>296.0</ele><time>2026-04-15T07:06:20Z</time></trkpt><trkpt lat="-26.78019586537363" lon="115.58583455069915"><ele>295.0</ele><time>2026-04-15T07:06:21Z</time></trkpt><trkpt lat="-26.780227155466505" lon="115.58554883888542"><ele>294.0</ele><time>2026-04-15T07:06:22Z</time></trkpt><trkpt lat="-26.780259349090556" lon="115.58526860566776"><ele>294.0</ele><time>2026-04-15T07:06:23Z</time></trkpt><trkpt lat="-26.78029000537812" lon="115.58499695226402"><ele>294.0</ele><time>2026-04-15T07:06:24Z</time></trkpt><trkpt lat="-26.780323029033234" lon="115.584722461347"><ele>292.5</ele><time>2026-04-15T07:06:25Z</time></trkpt><trkpt lat="-26.7803573164163" lon="115.58444416882885"><ele>291.0</ele><time>2026-04-15T07:06:26Z</time></trkpt><trkpt lat="-26.780389580179257" lon="115.58416232987564"><ele>291.0</ele><time>2026-04-15T07:06:27Z</time></trkpt><trkpt lat="-26.780418576026335" lon="115.58388014119656"><ele>291.0</ele><time>2026-04-15T07:06:28Z</time></trkpt><trkpt lat="-26.780448516856097" lon="115.5835923087426"><ele>291.0</ele><time>2026-04-15T07:06:29Z</time></trkpt><trkpt lat="-26.780478445830482" lon="115.58331318457797"><ele>291.0</ele><time>2026-04-15T07:06:30Z</time></trkpt><trkpt lat="-26.78051151318178" lon="115.58302954953784"><ele>291.0</ele><time>2026-04-15T07:06:31Z</time></trkpt><trkpt lat="-26.78054294140313" lon="115.58274778422512"><ele>291.0</ele><time>2026-04-15T07:06:32Z</time></trkpt><trkpt lat="-26.780571107558686" lon="115.58246968210479"><ele>291.0</ele><time>2026-04-15T07:06:33Z</time></trkpt><trkpt lat="-26.780598232764063" lon="115.58218801942506"><ele>291.0</ele><time>2026-04-15T07:06:34Z</time></trkpt><trkpt lat="-26.780624118774632" lon="115.581915666249"><ele>290.0</ele><time>2026-04-15T07:06:35Z</time></trkpt><trkpt lat="-26.780652739977718" lon="115.58162109439613"><ele>289.0</ele><time>2026-04-15T07:06:36Z</time></trkpt><trkpt lat="-26.780682924098972" lon="115.58133045774194"><ele>288.0</ele><time>2026-04-15T07:06:37Z</time></trkpt><trkpt lat="-26.78071393020565" lon="115.58103327562486"><ele>287.0</ele><time>2026-04-15T07:06:38Z</time></trkpt><trkpt lat="-26.780747381652066" lon="115.58072933759325"><ele>287.0</ele><time>2026-04-15T07:06:39Z</time></trkpt><trkpt lat="-26.780781459722178" lon="115.58042611138292"><ele>287.0</ele><time>2026-04-15T07:06:40Z</time></trkpt><trkpt lat="-26.78081423914087" lon="115.58012532854629"><ele>287.0</ele><time>2026-04-15T07:06:41Z</time></trkpt><trkpt lat="-26.78084524534117" lon="115.5798348680133"><ele>287.0</ele><time>2026-04-15T07:06:42Z</time></trkpt><trkpt lat="-26.78087418281536" lon="115.57956510519809"><ele>286.0</ele><time>2026-04-15T07:06:43Z</time></trkpt><trkpt lat="-26.780904897074805" lon="115.57928632942144"><ele>285.0</ele><time>2026-04-15T07:06:44Z</time></trkpt><trkpt lat="-26.780939989869108" lon="115.57899275294078"><ele>285.0</ele><time>2026-04-15T07:06:45Z</time></trkpt><trkpt lat="-26.780977042435303" lon="115.57868856892046"><ele>285.0</ele><time>2026-04-15T07:06:46Z</time></trkpt><trkpt lat="-26.781014875397574" lon="115.57838209812415"><ele>283.0</ele><time>2026-04-15T07:06:47Z</time></trkpt><trkpt lat="-26.781051327083222" lon="115.578078422047"><ele>281.0</ele><time>2026-04-15T07:06:48Z</time></trkpt><trkpt lat="-26.78108807645169" lon="115.5777752398886"><ele>281.0</ele><time>2026-04-15T07:06:49Z</time></trkpt><trkpt lat="-26.78112601077864" lon="115.57746757670773"><ele>281.0</ele><time>2026-04-15T07:06:50Z</time></trkpt><trkpt lat="-26.78116181145388" lon="115.57715459805247"><ele>280.0</ele><time>2026-04-15T07:06:51Z</time></trkpt><trkpt lat="-26.78119752884073" lon="115.57684194951948"><ele>279.0</ele><time>2026-04-15T07:06:52Z</time></trkpt><trkpt lat="-26.78123067621329" lon="115.5765265883013"><ele>279.0</ele><time>2026-04-15T07:06:53Z</time></trkpt><trkpt lat="-26.7812618885949" lon="115.57620834098661"><ele>279.0</ele><time>2026-04-15T07:06:54Z</time></trkpt><trkpt lat="-26.78129213286156" lon="115.57589543927848"><ele>278.0</ele><time>2026-04-15T07:06:55Z</time></trkpt><trkpt lat="-26.781321900666427" lon="115.57558894687499"><ele>277.0</ele><time>2026-04-15T07:06:56Z</time></trkpt><trkpt lat="-26.781353677639807" lon="115.57530769696595"><ele>277.0</ele><time>2026-04-15T07:06:57Z</time></trkpt><trkpt lat="-26.781386277769762" lon="115.57503301923283"><ele>277.0</ele><time>2026-04-15T07:06:58Z</time></trkpt><trkpt lat="-26.78141957051181" lon="115.5747579927541"><ele>276.5</ele><time>2026-04-15T07:06:59Z</time></trkpt><trkpt lat="-26.78145403480658" lon="115.57447070287424"><ele>276.0</ele><time>2026-04-15T07:07:00Z</time></trkpt><trkpt lat="-26.781487989025614" lon="115.5741767710476"><ele>276.0</ele><time>2026-04-15T07:07:01Z</time></trkpt><trkpt lat="-26.78152347134352" lon="115.57387578486343"><ele>276.0</ele><time>2026-04-15T07:07:02Z</time></trkpt><trkpt lat="-26.781560162176085" lon="115.57356798923476"><ele>275.0</ele><time>2026-04-15T07:07:03Z</time></trkpt><trkpt lat="-26.781595291033998" lon="115.57325704116904"><ele>274.0</ele><time>2026-04-15T07:07:04Z</time></trkpt><trkpt lat="-26.781629533904415" lon="115.57294723541948"><ele>274.0</ele><time>2026-04-15T07:07:05Z</time></trkpt><trkpt lat="-26.781663541963393" lon="115.57263692560223"><ele>274.0</ele><time>2026-04-15T07:07:06Z</time></trkpt><trkpt lat="-26.781697855772183" lon="115.57232485615533"><ele>273.0</ele><time>2026-04-15T07:07:07Z</time></trkpt><trkpt lat="-26.781731753145515" lon="115.57201319019535"><ele>272.0</ele><time>2026-04-15T07:07:08Z</time></trkpt><trkpt lat="-26.781765113845978" lon="115.57170457724712"><ele>272.0</ele><time>2026-04-15T07:07:09Z</time></trkpt><trkpt lat="-26.781798795943136" lon="115.5713949421416"><ele>272.0</ele><time>2026-04-15T07:07:10Z</time></trkpt><trkpt lat="-26.781832834852878" lon="115.57109404656707"><ele>271.5</ele><time>2026-04-15T07:07:11Z</time></trkpt><trkpt lat="-26.781864329440786" lon="115.5708123203005"><ele>271.0</ele><time>2026-04-15T07:07:12Z</time></trkpt><trkpt lat="-26.78189500138613" lon="115.57054283073535"><ele>271.0</ele><time>2026-04-15T07:07:13Z</time></trkpt><trkpt lat="-26.781923623053366" lon="115.57028109266368"><ele>271.0</ele><time>2026-04-15T07:07:14Z</time></trkpt><trkpt lat="-26.78194702004479" lon="115.57003368924609"><ele>271.0</ele><time>2026-04-15T07:07:15Z</time></trkpt><trkpt lat="-26.781965620467282" lon="115.56978176070872"><ele>271.0</ele><time>2026-04-15T07:07:16Z</time></trkpt><trkpt lat="-26.781989080088124" lon="115.5695191552375"><ele>268.0</ele><time>2026-04-15T07:07:17Z</time></trkpt><trkpt lat="-26.78201607348941" lon="115.56924832550615"><ele>265.0</ele><time>2026-04-15T07:07:18Z</time></trkpt><trkpt lat="-26.782047318498968" lon="115.56897022562242"><ele>266.0</ele><time>2026-04-15T07:07:19Z</time></trkpt><trkpt lat="-26.782077236334235" lon="115.56868658832494"><ele>267.0</ele><time>2026-04-15T07:07:20Z</time></trkpt><trkpt lat="-26.78210905739131" lon="115.56840017500971"><ele>267.0</ele><time>2026-04-15T07:07:21Z</time></trkpt><trkpt lat="-26.782143314833394" lon="115.56810514494586"><ele>267.0</ele><time>2026-04-15T07:07:22Z</time></trkpt><trkpt lat="-26.7821791193779" lon="115.56780368692763"><ele>267.5</ele><time>2026-04-15T07:07:23Z</time></trkpt><trkpt lat="-26.782214324675223" lon="115.5675052298235"><ele>268.0</ele><time>2026-04-15T07:07:24Z</time></trkpt><trkpt lat="-26.782249668742523" lon="115.56720218151649"><ele>267.5</ele><time>2026-04-15T07:07:25Z</time></trkpt><trkpt lat="-26.782284762289777" lon="115.5668926993715"><ele>267.0</ele><time>2026-04-15T07:07:26Z</time></trkpt><trkpt lat="-26.782318393248534" lon="115.56658375030497"><ele>267.0</ele><time>2026-04-15T07:07:27Z</time></trkpt><trkpt lat="-26.78235086795697" lon="115.56627773008121"><ele>267.0</ele><time>2026-04-15T07:07:28Z</time></trkpt><trkpt lat="-26.782384025749998" lon="115.56596858300837"><ele>267.5</ele><time>2026-04-15T07:07:29Z</time></trkpt><trkpt lat="-26.782418143508266" lon="115.56565458112111"><ele>268.0</ele><time>2026-04-15T07:07:30Z</time></trkpt><trkpt lat="-26.782451810504387" lon="115.56534692181286"><ele>268.5</ele><time>2026-04-15T07:07:31Z</time></trkpt><trkpt lat="-26.782485287844736" lon="115.56503667790538"><ele>269.0</ele><time>2026-04-15T07:07:32Z</time></trkpt><trkpt lat="-26.782516938547115" lon="115.56472960253419"><ele>267.5</ele><time>2026-04-15T07:07:33Z</time></trkpt><trkpt lat="-26.7825486638541" lon="115.56441751995575"><ele>266.0</ele><time>2026-04-15T07:07:34Z</time></trkpt><trkpt lat="-26.782581959592775" lon="115.56410338843627"><ele>266.0</ele><time>2026-04-15T07:07:35Z</time></trkpt><trkpt lat="-26.782617623531134" lon="115.56379002543002"><ele>266.0</ele><time>2026-04-15T07:07:36Z</time></trkpt><trkpt lat="-26.782654144353035" lon="115.56347245994861"><ele>266.0</ele><time>2026-04-15T07:07:37Z</time></trkpt><trkpt lat="-26.78269084850868" lon="115.56315748080917"><ele>266.0</ele><time>2026-04-15T07:07:38Z</time></trkpt><trkpt lat="-26.782730043083603" lon="115.56284271126384"><ele>266.0</ele><time>2026-04-15T07:07:39Z</time></trkpt><trkpt lat="-26.782766046434155" lon="115.5625275653912"><ele>266.0</ele><time>2026-04-15T07:07:40Z</time></trkpt><trkpt lat="-26.782800768450826" lon="115.56221246746063"><ele>265.5</ele><time>2026-04-15T07:07:41Z</time></trkpt><trkpt lat="-26.782834472721227" lon="115.56189969704046"><ele>265.0</ele><time>2026-04-15T07:07:42Z</time></trkpt><trkpt lat="-26.78286954357262" lon="115.56158815422383"><ele>265.0</ele><time>2026-04-15T07:07:43Z</time></trkpt><trkpt lat="-26.78290616356635" lon="115.56127472775431"><ele>265.0</ele><time>2026-04-15T07:07:44Z</time></trkpt><trkpt lat="-26.78294286019025" lon="115.56096530035038"><ele>265.0</ele><time>2026-04-15T07:07:45Z</time></trkpt><trkpt lat="-26.782981439609234" lon="115.56065477917183"><ele>265.0</ele><time>2026-04-15T07:07:46Z</time></trkpt><trkpt lat="-26.78302185816067" lon="115.56034488900063"><ele>264.0</ele><time>2026-04-15T07:07:47Z</time></trkpt><trkpt lat="-26.783058960107276" lon="115.56003369540308"><ele>263.0</ele><time>2026-04-15T07:07:48Z</time></trkpt><trkpt lat="-26.78309266172924" lon="115.5597245269509"><ele>264.0</ele><time>2026-04-15T07:07:49Z</time></trkpt><trkpt lat="-26.783121265030633" lon="115.55942821639572"><ele>265.0</ele><time>2026-04-15T07:07:50Z</time></trkpt><trkpt lat="-26.783133523963027" lon="115.55915229418089"><ele>265.0</ele><time>2026-04-15T07:07:51Z</time></trkpt><trkpt lat="-26.783132157119713" lon="115.55888409758577"><ele>265.0</ele><time>2026-04-15T07:07:52Z</time></trkpt><trkpt lat="-26.7831137709127" lon="115.55861103035862"><ele>265.0</ele><time>2026-04-15T07:07:53Z</time></trkpt><trkpt lat="-26.783082645266173" lon="115.55832579286124"><ele>265.0</ele><time>2026-04-15T07:07:54Z</time></trkpt><trkpt lat="-26.78303586930185" lon="115.55803381150373"><ele>264.5</ele><time>2026-04-15T07:07:55Z</time></trkpt><trkpt lat="-26.782978651647422" lon="115.55773677959132"><ele>264.0</ele><time>2026-04-15T07:07:56Z</time></trkpt><trkpt lat="-26.782914186051922" lon="115.55744386745634"><ele>264.0</ele><time>2026-04-15T07:07:57Z</time></trkpt><trkpt lat="-26.78284377677175" lon="115.55714964837736"><ele>264.0</ele><time>2026-04-15T07:07:58Z</time></trkpt><trkpt lat="-26.782773249017882" lon="115.5568530131409"><ele>264.0</ele><time>2026-04-15T07:07:59Z</time></trkpt><trkpt lat="-26.782701745300166" lon="115.55655495928346"><ele>264.0</ele><time>2026-04-15T07:08:00Z</time></trkpt><trkpt lat="-26.78263214372779" lon="115.55625946625076"><ele>263.0</ele><time>2026-04-15T07:08:01Z</time></trkpt><trkpt lat="-26.78256835823656" lon="115.55596062439626"><ele>262.0</ele><time>2026-04-15T07:08:02Z</time></trkpt><trkpt lat="-26.782505368145504" lon="115.55565968481116"><ele>261.0</ele><time>2026-04-15T07:08:03Z</time></trkpt><trkpt lat="-26.782442373671696" lon="115.55535741457741"><ele>260.0</ele><time>2026-04-15T07:08:04Z</time></trkpt><trkpt lat="-26.782377020150076" lon="115.55505712149736"><ele>260.0</ele><time>2026-04-15T07:08:05Z</time></trkpt><trkpt lat="-26.782310637416646" lon="115.55475745424758"><ele>260.0</ele><time>2026-04-15T07:08:06Z</time></trkpt><trkpt lat="-26.782243636196682" lon="115.55445560001495"><ele>261.0</ele><time>2026-04-15T07:08:07Z</time></trkpt><trkpt lat="-26.78217648922099" lon="115.5541568462108"><ele>262.0</ele><time>2026-04-15T07:08:08Z</time></trkpt><trkpt lat="-26.782108479196523" lon="115.55385487496228"><ele>263.0</ele><time>2026-04-15T07:08:09Z</time></trkpt><trkpt lat="-26.782043215476556" lon="115.5535543188863"><ele>264.0</ele><time>2026-04-15T07:08:10Z</time></trkpt><trkpt lat="-26.781981564758865" lon="115.55325416011065"><ele>264.0</ele><time>2026-04-15T07:08:11Z</time></trkpt><trkpt lat="-26.78191814673388" lon="115.55295359680005"><ele>264.0</ele><time>2026-04-15T07:08:12Z</time></trkpt><trkpt lat="-26.781853094898153" lon="115.5526560589835"><ele>262.5</ele><time>2026-04-15T07:08:13Z</time></trkpt><trkpt lat="-26.78178712972415" lon="115.55236101822902"><ele>261.0</ele><time>2026-04-15T07:08:14Z</time></trkpt><trkpt lat="-26.781721113879158" lon="115.55206519433094"><ele>259.5</ele><time>2026-04-15T07:08:15Z</time></trkpt><trkpt lat="-26.781653421924357" lon="115.55176128919939"><ele>258.0</ele><time>2026-04-15T07:08:16Z</time></trkpt><trkpt lat="-26.781586824963796" lon="115.55146191960206"><ele>260.0</ele><time>2026-04-15T07:08:17Z</time></trkpt><trkpt lat="-26.781523013606755" lon="115.55116669048365"><ele>262.0</ele><time>2026-04-15T07:08:18Z</time></trkpt><trkpt lat="-26.781459055583838" lon="115.55087588587124"><ele>262.0</ele><time>2026-04-15T07:08:19Z</time></trkpt><trkpt lat="-26.781397834872188" lon="115.55058503789354"><ele>262.0</ele><time>2026-04-15T07:08:20Z</time></trkpt><trkpt lat="-26.781338997546595" lon="115.55029036885749"><ele>261.5</ele><time>2026-04-15T07:08:21Z</time></trkpt><trkpt lat="-26.78127860214402" lon="115.5499982066066"><ele>261.0</ele><time>2026-04-15T07:08:22Z</time></trkpt><trkpt lat="-26.781216886772715" lon="115.54970715620757"><ele>259.5</ele><time>2026-04-15T07:08:23Z</time></trkpt><trkpt lat="-26.78115389600834" lon="115.54941844625083"><ele>258.0</ele><time>2026-04-15T07:08:24Z</time></trkpt><trkpt lat="-26.781093864770238" lon="115.5491350373866"><ele>258.0</ele><time>2026-04-15T07:08:25Z</time></trkpt><trkpt lat="-26.78103628807722" lon="115.54885093353205"><ele>258.0</ele><time>2026-04-15T07:08:26Z</time></trkpt><trkpt lat="-26.780975076950966" lon="115.54856518056951"><ele>259.5</ele><time>2026-04-15T07:08:27Z</time></trkpt><trkpt lat="-26.780911282013008" lon="115.54827819778444"><ele>261.0</ele><time>2026-04-15T07:08:28Z</time></trkpt><trkpt lat="-26.780847017277065" lon="115.54799216832158"><ele>261.0</ele><time>2026-04-15T07:08:29Z</time></trkpt><trkpt lat="-26.780786173250238" lon="115.54771242548844"><ele>261.0</ele><time>2026-04-15T07:08:30Z</time></trkpt><trkpt lat="-26.780725494152836" lon="115.5474365806788"><ele>261.0</ele><time>2026-04-15T07:08:31Z</time></trkpt><trkpt lat="-26.780661896973132" lon="115.54716004237265"><ele>261.0</ele><time>2026-04-15T07:08:32Z</time></trkpt><trkpt lat="-26.78060762052526" lon="115.54688948246353"><ele>261.5</ele><time>2026-04-15T07:08:33Z</time></trkpt><trkpt lat="-26.78056226990486" lon="115.54662154820105"><ele>262.0</ele><time>2026-04-15T07:08:34Z</time></trkpt><trkpt lat="-26.780527275948177" lon="115.54636692518766"><ele>262.5</ele><time>2026-04-15T07:08:35Z</time></trkpt><trkpt lat="-26.780509938876076" lon="115.54610597853073"><ele>263.0</ele><time>2026-04-15T07:08:36Z</time></trkpt><trkpt lat="-26.78050384274975" lon="115.54583037737436"><ele>263.0</ele><time>2026-04-15T07:08:37Z</time></trkpt><trkpt lat="-26.78050516587631" lon="115.54554158018573"><ele>263.0</ele><time>2026-04-15T07:08:38Z</time></trkpt><trkpt lat="-26.780508403944935" lon="115.54524721655469"><ele>262.5</ele><time>2026-04-15T07:08:39Z</time></trkpt><trkpt lat="-26.780503560433388" lon="115.54495101256502"><ele>262.0</ele><time>2026-04-15T07:08:40Z</time></trkpt><trkpt lat="-26.780492490217068" lon="115.54464557795507"><ele>262.5</ele><time>2026-04-15T07:08:41Z</time></trkpt><trkpt lat="-26.78048383742303" lon="115.54434573266082"><ele>263.0</ele><time>2026-04-15T07:08:42Z</time></trkpt><trkpt lat="-26.78047566032353" lon="115.54405284414688"><ele>263.0</ele><time>2026-04-15T07:08:43Z</time></trkpt><trkpt lat="-26.78046813115957" lon="115.54376176220055"><ele>263.0</ele><time>2026-04-15T07:08:44Z</time></trkpt><trkpt lat="-26.780462158981543" lon="115.54345893513872"><ele>263.0</ele><time>2026-04-15T07:08:45Z</time></trkpt><trkpt lat="-26.780457901450927" lon="115.54315908265542"><ele>263.0</ele><time>2026-04-15T07:08:46Z</time></trkpt><trkpt lat="-26.78045460801131" lon="115.54285360291658"><ele>263.0</ele><time>2026-04-15T07:08:47Z</time></trkpt><trkpt lat="-26.780450201576258" lon="115.54255360588346"><ele>263.0</ele><time>2026-04-15T07:08:48Z</time></trkpt><trkpt lat="-26.780443845557375" lon="115.54225759823562"><ele>262.5</ele><time>2026-04-15T07:08:49Z</time></trkpt><trkpt lat="-26.780438792824537" lon="115.54195962331625"><ele>262.0</ele><time>2026-04-15T07:08:50Z</time></trkpt><trkpt lat="-26.780434468384108" lon="115.5416574637862"><ele>262.0</ele><time>2026-04-15T07:08:51Z</time></trkpt><trkpt lat="-26.780429046121355" lon="115.54135655998968"><ele>262.0</ele><time>2026-04-15T07:08:52Z</time></trkpt><trkpt lat="-26.7804222259842" lon="115.54106599808435"><ele>261.5</ele><time>2026-04-15T07:08:53Z</time></trkpt><trkpt lat="-26.780415543484338" lon="115.54079157022204"><ele>261.0</ele><time>2026-04-15T07:08:54Z</time></trkpt><trkpt lat="-26.78041275978053" lon="115.54049104966825"><ele>260.0</ele><time>2026-04-15T07:08:55Z</time></trkpt><trkpt lat="-26.78041255845218" lon="115.54018477871217"><ele>259.0</ele><time>2026-04-15T07:08:56Z</time></trkpt><trkpt lat="-26.78041537297642" lon="115.53987632056035"><ele>259.0</ele><time>2026-04-15T07:08:57Z</time></trkpt><trkpt lat="-26.78041639178658" lon="115.53957301298904"><ele>259.0</ele><time>2026-04-15T07:08:58Z</time></trkpt><trkpt lat="-26.780416698988834" lon="115.53926494815771"><ele>258.0</ele><time>2026-04-15T07:08:59Z</time></trkpt><trkpt lat="-26.78041407833624" lon="115.53896801606994"><ele>257.0</ele><time>2026-04-15T07:09:00Z</time></trkpt><trkpt lat="-26.780413825348784" lon="115.53867816928366"><ele>256.5</ele><time>2026-04-15T07:09:01Z</time></trkpt><trkpt lat="-26.780413838275994" lon="115.53838307387203"><ele>256.0</ele><time>2026-04-15T07:09:02Z</time></trkpt><trkpt lat="-26.78041352848139" lon="115.53809201085224"><ele>256.0</ele><time>2026-04-15T07:09:03Z</time></trkpt><trkpt lat="-26.780413508377652" lon="115.53781918083062"><ele>256.0</ele><time>2026-04-15T07:09:04Z</time></trkpt><trkpt lat="-26.780414016713014" lon="115.53756256362436"><ele>256.0</ele><time>2026-04-15T07:09:05Z</time></trkpt><trkpt lat="-26.780428261826454" lon="115.5373101032512"><ele>256.0</ele><time>2026-04-15T07:09:06Z</time></trkpt><trkpt lat="-26.78046071836196" lon="115.5370596019622"><ele>254.5</ele><time>2026-04-15T07:09:07Z</time></trkpt><trkpt lat="-26.780509499968502" lon="115.53681077227017"><ele>253.0</ele><time>2026-04-15T07:09:08Z</time></trkpt><trkpt lat="-26.780574456682412" lon="115.53656177055431"><ele>253.0</ele><time>2026-04-15T07:09:09Z</time></trkpt><trkpt lat="-26.780660006330482" lon="115.53631743095806"><ele>253.0</ele><time>2026-04-15T07:09:10Z</time></trkpt><trkpt lat="-26.780772235917926" lon="115.53606919982906"><ele>253.0</ele><time>2026-04-15T07:09:11Z</time></trkpt><trkpt lat="-26.78090788682557" lon="115.53582113387196"><ele>253.0</ele><time>2026-04-15T07:09:12Z</time></trkpt><trkpt lat="-26.781065256291846" lon="115.5355776383165"><ele>252.0</ele><time>2026-04-15T07:09:13Z</time></trkpt><trkpt lat="-26.78123816857644" lon="115.53534398899605"><ele>251.0</ele><time>2026-04-15T07:09:14Z</time></trkpt><trkpt lat="-26.781425167493662" lon="115.53511381476791"><ele>251.0</ele><time>2026-04-15T07:09:15Z</time></trkpt><trkpt lat="-26.78161652177288" lon="115.5348781278526"><ele>251.0</ele><time>2026-04-15T07:09:16Z</time></trkpt><trkpt lat="-26.781802825183707" lon="115.53463976916856"><ele>252.0</ele><time>2026-04-15T07:09:17Z</time></trkpt><trkpt lat="-26.781985848972415" lon="115.53439879670758"><ele>253.0</ele><time>2026-04-15T07:09:18Z</time></trkpt><trkpt lat="-26.78216134202723" lon="115.53415938428446"><ele>253.0</ele><time>2026-04-15T07:09:19Z</time></trkpt><trkpt lat="-26.78233937924145" lon="115.53391710375936"><ele>253.0</ele><time>2026-04-15T07:09:20Z</time></trkpt><trkpt lat="-26.782516264051928" lon="115.53367603836398"><ele>253.5</ele><time>2026-04-15T07:09:21Z</time></trkpt><trkpt lat="-26.782693445772434" lon="115.53343437109326"><ele>254.0</ele><time>2026-04-15T07:09:22Z</time></trkpt><trkpt lat="-26.782872656799373" lon="115.5331909369976"><ele>254.0</ele><time>2026-04-15T07:09:23Z</time></trkpt><trkpt lat="-26.783054098060926" lon="115.53294099827897"><ele>254.0</ele><time>2026-04-15T07:09:24Z</time></trkpt><trkpt lat="-26.783236715208496" lon="115.53269057239986"><ele>254.5</ele><time>2026-04-15T07:09:25Z</time></trkpt><trkpt lat="-26.783416777278568" lon="115.53244038314388"><ele>255.0</ele><time>2026-04-15T07:09:26Z</time></trkpt><trkpt lat="-26.783595900689033" lon="115.53219237129923"><ele>255.5</ele><time>2026-04-15T07:09:27Z</time></trkpt><trkpt lat="-26.783773002079812" lon="115.53194521991871"><ele>256.0</ele><time>2026-04-15T07:09:28Z</time></trkpt><trkpt lat="-26.783948799407074" lon="115.53170059089484"><ele>256.0</ele><time>2026-04-15T07:09:29Z</time></trkpt><trkpt lat="-26.784125651371845" lon="115.53145936934426"><ele>256.0</ele><time>2026-04-15T07:09:30Z</time></trkpt><trkpt lat="-26.78430437816399" lon="115.53121997212911"><ele>255.5</ele><time>2026-04-15T07:09:31Z</time></trkpt><trkpt lat="-26.78448921213186" lon="115.53098221887487"><ele>255.0</ele><time>2026-04-15T07:09:32Z</time></trkpt><trkpt lat="-26.784681818648096" lon="115.53074767902193"><ele>255.0</ele><time>2026-04-15T07:09:33Z</time></trkpt><trkpt lat="-26.784883125127834" lon="115.53051421644548"><ele>255.0</ele><time>2026-04-15T07:09:34Z</time></trkpt><trkpt lat="-26.785088807118363" lon="115.53028268372044"><ele>255.5</ele><time>2026-04-15T07:09:35Z</time></trkpt><trkpt lat="-26.785298693795166" lon="115.53005375491622"><ele>256.0</ele><time>2026-04-15T07:09:36Z</time></trkpt><trkpt lat="-26.785511193989176" lon="115.52982431679705"><ele>256.0</ele><time>2026-04-15T07:09:37Z</time></trkpt><trkpt lat="-26.78572352508765" lon="115.5295957353103"><ele>256.0</ele><time>2026-04-15T07:09:38Z</time></trkpt><trkpt lat="-26.785933134161212" lon="115.52936911263737"><ele>256.5</ele><time>2026-04-15T07:09:39Z</time></trkpt><trkpt lat="-26.78614422553692" lon="115.52913961769369"><ele>257.0</ele><time>2026-04-15T07:09:40Z</time></trkpt><trkpt lat="-26.786353262411577" lon="115.52891311273785"><ele>256.0</ele><time>2026-04-15T07:09:41Z</time></trkpt><trkpt lat="-26.78656130514889" lon="115.52868507916007"><ele>255.0</ele><time>2026-04-15T07:09:42Z</time></trkpt><trkpt lat="-26.78676906111102" lon="115.52845316205955"><ele>255.0</ele><time>2026-04-15T07:09:43Z</time></trkpt><trkpt lat="-26.786974803393836" lon="115.52822331721485"><ele>255.0</ele><time>2026-04-15T07:09:44Z</time></trkpt><trkpt lat="-26.787178102563356" lon="115.52799612059104"><ele>255.0</ele><time>2026-04-15T07:09:45Z</time></trkpt><trkpt lat="-26.787383134777887" lon="115.52777090490727"><ele>255.0</ele><time>2026-04-15T07:09:46Z</time></trkpt><trkpt lat="-26.78759256470399" lon="115.5275414894566"><ele>256.0</ele><time>2026-04-15T07:09:47Z</time></trkpt><trkpt lat="-26.787798551399238" lon="115.52731191223091"><ele>257.0</ele><time>2026-04-15T07:09:48Z</time></trkpt><trkpt lat="-26.78800251712979" lon="115.52708212735318"><ele>256.5</ele><time>2026-04-15T07:09:49Z</time></trkpt><trkpt lat="-26.78820568523408" lon="115.52685298768819"><ele>256.0</ele><time>2026-04-15T07:09:50Z</time></trkpt><trkpt lat="-26.78841011004374" lon="115.52662638887251"><ele>255.5</ele><time>2026-04-15T07:09:51Z</time></trkpt><trkpt lat="-26.78861470238067" lon="115.52640057691787"><ele>255.0</ele><time>2026-04-15T07:09:52Z</time></trkpt><trkpt lat="-26.788818424250334" lon="115.52617542341022"><ele>253.5</ele><time>2026-04-15T07:09:53Z</time></trkpt><trkpt lat="-26.789017769162268" lon="115.52595416571451"><ele>252.0</ele><time>2026-04-15T07:09:54Z</time></trkpt><trkpt lat="-26.78921872987818" lon="115.5257323682861"><ele>251.0</ele><time>2026-04-15T07:09:55Z</time></trkpt><trkpt lat="-26.78941917720542" lon="115.52551048117255"><ele>250.0</ele><time>2026-04-15T07:09:56Z</time></trkpt><trkpt lat="-26.78961614526657" lon="115.52528980810749"><ele>252.0</ele><time>2026-04-15T07:09:57Z</time></trkpt><trkpt lat="-26.78981615608215" lon="115.52506710977265"><ele>254.0</ele><time>2026-04-15T07:09:58Z</time></trkpt><trkpt lat="-26.790015502703707" lon="115.52484583234387"><ele>254.5</ele><time>2026-04-15T07:09:59Z</time></trkpt><trkpt lat="-26.790215897688046" lon="115.52462245725546"><ele>255.0</ele><time>2026-04-15T07:10:00Z</time></trkpt><trkpt lat="-26.79041650429784" lon="115.52439722503703"><ele>254.0</ele><time>2026-04-15T07:10:01Z</time></trkpt><trkpt lat="-26.79061612291858" lon="115.52417283019744"><ele>253.0</ele><time>2026-04-15T07:10:02Z</time></trkpt><trkpt lat="-26.7908182799846" lon="115.52394723098722"><ele>253.5</ele><time>2026-04-15T07:10:03Z</time></trkpt><trkpt lat="-26.791023117688322" lon="115.52372056032678"><ele>254.0</ele><time>2026-04-15T07:10:04Z</time></trkpt><trkpt lat="-26.79122717732763" lon="115.52349568296714"><ele>254.0</ele><time>2026-04-15T07:10:05Z</time></trkpt><trkpt lat="-26.791434171607253" lon="115.52327141882571"><ele>254.0</ele><time>2026-04-15T07:10:06Z</time></trkpt><trkpt lat="-26.791643357186437" lon="115.52304294973175"><ele>254.5</ele><time>2026-04-15T07:10:07Z</time></trkpt><trkpt lat="-26.791850700429958" lon="115.5228140416863"><ele>255.0</ele><time>2026-04-15T07:10:08Z</time></trkpt><trkpt lat="-26.79205989977316" lon="115.5225824836032"><ele>255.0</ele><time>2026-04-15T07:10:09Z</time></trkpt><trkpt lat="-26.792267944993277" lon="115.52235226260078"><ele>255.0</ele><time>2026-04-15T07:10:10Z</time></trkpt><trkpt lat="-26.79247574966797" lon="115.5221237214049"><ele>254.5</ele><time>2026-04-15T07:10:11Z</time></trkpt><trkpt lat="-26.792683638991935" lon="115.52189558399617"><ele>254.0</ele><time>2026-04-15T07:10:12Z</time></trkpt><trkpt lat="-26.792896392296257" lon="115.5216646135262"><ele>254.0</ele><time>2026-04-15T07:10:13Z</time></trkpt><trkpt lat="-26.7931095921638" lon="115.52143312590985"><ele>254.0</ele><time>2026-04-15T07:10:14Z</time></trkpt><trkpt lat="-26.793323376474454" lon="115.5212009172315"><ele>255.0</ele><time>2026-04-15T07:10:15Z</time></trkpt><trkpt lat="-26.793536714802702" lon="115.52096917209091"><ele>256.0</ele><time>2026-04-15T07:10:16Z</time></trkpt><trkpt lat="-26.79374545222665" lon="115.52074184902347"><ele>256.0</ele><time>2026-04-15T07:10:17Z</time></trkpt><trkpt lat="-26.79395563235036" lon="115.52051686804934"><ele>256.0</ele><time>2026-04-15T07:10:18Z</time></trkpt><trkpt lat="-26.794165137880523" lon="115.52029148865904"><ele>254.5</ele><time>2026-04-15T07:10:19Z</time></trkpt><trkpt lat="-26.794374937397425" lon="115.52005945847338"><ele>253.0</ele><time>2026-04-15T07:10:20Z</time></trkpt><trkpt lat="-26.79458693346875" lon="115.51982922416356"><ele>253.0</ele><time>2026-04-15T07:10:21Z</time></trkpt><trkpt lat="-26.794798380453162" lon="115.5195972283859"><ele>253.0</ele><time>2026-04-15T07:10:22Z</time></trkpt><trkpt lat="-26.795009325821116" lon="115.51936440389005"><ele>253.0</ele><time>2026-04-15T07:10:23Z</time></trkpt><trkpt lat="-26.795218367356565" lon="115.51913334748458"><ele>253.0</ele><time>2026-04-15T07:10:24Z</time></trkpt><trkpt lat="-26.79542183124111" lon="115.51890094593413"><ele>252.5</ele><time>2026-04-15T07:10:25Z</time></trkpt><trkpt lat="-26.795623966766655" lon="115.51866742323372"><ele>252.0</ele><time>2026-04-15T07:10:26Z</time></trkpt><trkpt lat="-26.795827369391603" lon="115.51843298993207"><ele>251.0</ele><time>2026-04-15T07:10:27Z</time></trkpt><trkpt lat="-26.796029001951236" lon="115.51820235086562"><ele>250.0</ele><time>2026-04-15T07:10:28Z</time></trkpt><trkpt lat="-26.79623547858381" lon="115.5179746686833"><ele>251.0</ele><time>2026-04-15T07:10:29Z</time></trkpt><trkpt lat="-26.79643946259042" lon="115.51774763513627"><ele>252.0</ele><time>2026-04-15T07:10:30Z</time></trkpt><trkpt lat="-26.796643375681963" lon="115.51751718630376"><ele>252.0</ele><time>2026-04-15T07:10:31Z</time></trkpt><trkpt lat="-26.79684616031871" lon="115.51728211948449"><ele>252.0</ele><time>2026-04-15T07:10:32Z</time></trkpt><trkpt lat="-26.79705081080411" lon="115.51704695498219"><ele>252.0</ele><time>2026-04-15T07:10:33Z</time></trkpt><trkpt lat="-26.797256784260547" lon="115.51681236544367"><ele>252.0</ele><time>2026-04-15T07:10:34Z</time></trkpt><trkpt lat="-26.797459314615548" lon="115.51657971992917"><ele>252.0</ele><time>2026-04-15T07:10:35Z</time></trkpt><trkpt lat="-26.797665659534665" lon="115.51634584736433"><ele>252.0</ele><time>2026-04-15T07:10:36Z</time></trkpt><trkpt lat="-26.797868344616646" lon="115.51610994259435"><ele>253.5</ele><time>2026-04-15T07:10:37Z</time></trkpt><trkpt lat="-26.798070856577937" lon="115.51587347406142"><ele>255.0</ele><time>2026-04-15T07:10:38Z</time></trkpt><trkpt lat="-26.79827625844035" lon="115.51563747890367"><ele>254.0</ele><time>2026-04-15T07:10:39Z</time></trkpt><trkpt lat="-26.798476229042187" lon="115.51540381023379"><ele>253.0</ele><time>2026-04-15T07:10:40Z</time></trkpt><trkpt lat="-26.798679003281624" lon="115.51516771892089"><ele>253.0</ele><time>2026-04-15T07:10:41Z</time></trkpt><trkpt lat="-26.798879616155812" lon="115.5149313288263"><ele>253.0</ele><time>2026-04-15T07:10:42Z</time></trkpt><trkpt lat="-26.79907696059618" lon="115.51469694971799"><ele>253.0</ele><time>2026-04-15T07:10:43Z</time></trkpt><trkpt lat="-26.799275407554788" lon="115.51446453291614"><ele>253.0</ele><time>2026-04-15T07:10:44Z</time></trkpt><trkpt lat="-26.79947345784409" lon="115.51423451094043"><ele>252.0</ele><time>2026-04-15T07:10:45Z</time></trkpt><trkpt lat="-26.799674847016128" lon="115.51400189238679"><ele>251.0</ele><time>2026-04-15T07:10:46Z</time></trkpt><trkpt lat="-26.799878663006833" lon="115.51376668065063"><ele>251.0</ele><time>2026-04-15T07:10:47Z</time></trkpt><trkpt lat="-26.800083987506664" lon="115.51352820553863"><ele>251.0</ele><time>2026-04-15T07:10:48Z</time></trkpt><trkpt lat="-26.800291457153417" lon="115.51328613524488"><ele>251.5</ele><time>2026-04-15T07:10:49Z</time></trkpt><trkpt lat="-26.800498414242508" lon="115.51304514239821"><ele>252.0</ele><time>2026-04-15T07:10:50Z</time></trkpt><trkpt lat="-26.800707341717878" lon="115.51280337953733"><ele>252.5</ele><time>2026-04-15T07:10:51Z</time></trkpt><trkpt lat="-26.800913633759034" lon="115.51256157437173"><ele>253.0</ele><time>2026-04-15T07:10:52Z</time></trkpt><trkpt lat="-26.801118601690874" lon="115.51232302631232"><ele>252.0</ele><time>2026-04-15T07:10:53Z</time></trkpt><trkpt lat="-26.801324759255237" lon="115.51208525159637"><ele>251.0</ele><time>2026-04-15T07:10:54Z</time></trkpt><trkpt lat="-26.801529710734126" lon="115.51184799633798"><ele>250.0</ele><time>2026-04-15T07:10:55Z</time></trkpt><trkpt lat="-26.801734230038317" lon="115.51160976016108"><ele>249.0</ele><time>2026-04-15T07:10:56Z</time></trkpt><trkpt lat="-26.80194004331485" lon="115.51136973193526"><ele>250.0</ele><time>2026-04-15T07:10:57Z</time></trkpt><trkpt lat="-26.80214523952412" lon="115.51113286691464"><ele>251.0</ele><time>2026-04-15T07:10:58Z</time></trkpt><trkpt lat="-26.802349308683137" lon="115.51089705337758"><ele>251.0</ele><time>2026-04-15T07:10:59Z</time></trkpt><trkpt lat="-26.80254993476135" lon="115.51066214656547"><ele>251.0</ele><time>2026-04-15T07:11:00Z</time></trkpt><trkpt lat="-26.802750964385503" lon="115.51043119941026"><ele>250.5</ele><time>2026-04-15T07:11:01Z</time></trkpt><trkpt lat="-26.802953479183902" lon="115.51020232350236"><ele>250.0</ele><time>2026-04-15T07:11:02Z</time></trkpt><trkpt lat="-26.803155424753278" lon="115.50996909473007"><ele>250.0</ele><time>2026-04-15T07:11:03Z</time></trkpt><trkpt lat="-26.80335262192895" lon="115.50973689160867"><ele>250.0</ele><time>2026-04-15T07:11:04Z</time></trkpt><trkpt lat="-26.803551144531" lon="115.50950785666619"><ele>250.5</ele><time>2026-04-15T07:11:05Z</time></trkpt><trkpt lat="-26.803749345159" lon="115.50928400151017"><ele>251.0</ele><time>2026-04-15T07:11:06Z</time></trkpt><trkpt lat="-26.803954735154463" lon="115.50906255418964"><ele>251.0</ele><time>2026-04-15T07:11:07Z</time></trkpt><trkpt lat="-26.804166844446968" lon="115.50883857197923"><ele>251.0</ele><time>2026-04-15T07:11:08Z</time></trkpt><trkpt lat="-26.80438296480764" lon="115.50861211833671"><ele>251.0</ele><time>2026-04-15T07:11:09Z</time></trkpt><trkpt lat="-26.80460405347716" lon="115.50838085212041"><ele>251.0</ele><time>2026-04-15T07:11:10Z</time></trkpt><trkpt lat="-26.8048238674924" lon="115.50814793811861"><ele>251.0</ele><time>2026-04-15T07:11:11Z</time></trkpt><trkpt lat="-26.805040081641945" lon="115.50791753377914"><ele>251.0</ele><time>2026-04-15T07:11:12Z</time></trkpt><trkpt lat="-26.80525284511656" lon="115.50769021060698"><ele>250.5</ele><time>2026-04-15T07:11:13Z</time></trkpt><trkpt lat="-26.805463165955146" lon="115.5074715469253"><ele>250.0</ele><time>2026-04-15T07:11:14Z</time></trkpt><trkpt lat="-26.80567598078332" lon="115.50725281919935"><ele>250.0</ele><time>2026-04-15T07:11:15Z</time></trkpt><trkpt lat="-26.805886826378035" lon="115.50703467960568"><ele>250.0</ele><time>2026-04-15T07:11:16Z</time></trkpt><trkpt lat="-26.806096685464183" lon="115.50681578036946"><ele>252.0</ele><time>2026-04-15T07:11:17Z</time></trkpt><trkpt lat="-26.806302506488354" lon="115.50659532557968"><ele>254.0</ele><time>2026-04-15T07:11:18Z</time></trkpt><trkpt lat="-26.80650635417628" lon="115.50637547028819"><ele>253.0</ele><time>2026-04-15T07:11:19Z</time></trkpt><trkpt lat="-26.806714930295776" lon="115.50616201337131"><ele>252.0</ele><time>2026-04-15T07:11:20Z</time></trkpt><trkpt lat="-26.80692300533832" lon="115.50594948867638"><ele>251.5</ele><time>2026-04-15T07:11:21Z</time></trkpt><trkpt lat="-26.80713017421319" lon="115.50573129404216"><ele>251.0</ele><time>2026-04-15T07:11:22Z</time></trkpt><trkpt lat="-26.80733830642053" lon="115.50551257658353"><ele>251.5</ele><time>2026-04-15T07:11:23Z</time></trkpt><trkpt lat="-26.807547540072324" lon="115.5052959594943"><ele>252.0</ele><time>2026-04-15T07:11:24Z</time></trkpt><trkpt lat="-26.80775828636477" lon="115.5050798668768"><ele>252.0</ele><time>2026-04-15T07:11:25Z</time></trkpt><trkpt lat="-26.80797029873557" lon="115.50486297730329"><ele>252.0</ele><time>2026-04-15T07:11:26Z</time></trkpt><trkpt lat="-26.808186579579626" lon="115.5046430471319"><ele>251.5</ele><time>2026-04-15T07:11:27Z</time></trkpt><trkpt lat="-26.80840117150106" lon="115.50442537990742"><ele>251.0</ele><time>2026-04-15T07:11:28Z</time></trkpt><trkpt lat="-26.80861324157647" lon="115.50420563745621"><ele>252.5</ele><time>2026-04-15T07:11:29Z</time></trkpt><trkpt lat="-26.808822586953408" lon="115.5039844419561"><ele>254.0</ele><time>2026-04-15T07:11:30Z</time></trkpt><trkpt lat="-26.80903007959844" lon="115.50376480560213"><ele>254.0</ele><time>2026-04-15T07:11:31Z</time></trkpt><trkpt lat="-26.809240318438967" lon="115.5035466158169"><ele>254.0</ele><time>2026-04-15T07:11:32Z</time></trkpt><trkpt lat="-26.809450426680346" lon="115.50332753709446"><ele>254.0</ele><time>2026-04-15T07:11:33Z</time></trkpt><trkpt lat="-26.809663353234484" lon="115.5031074654737"><ele>254.0</ele><time>2026-04-15T07:11:34Z</time></trkpt><trkpt lat="-26.809872402323634" lon="115.50288737718722"><ele>254.5</ele><time>2026-04-15T07:11:35Z</time></trkpt><trkpt lat="-26.8100810711734" lon="115.50266973559432"><ele>255.0</ele><time>2026-04-15T07:11:36Z</time></trkpt><trkpt lat="-26.810287432643857" lon="115.50245190399389"><ele>255.0</ele><time>2026-04-15T07:11:37Z</time></trkpt><trkpt lat="-26.810494218291826" lon="115.50223508197996"><ele>255.0</ele><time>2026-04-15T07:11:38Z</time></trkpt><trkpt lat="-26.81069973939211" lon="115.50201722635819"><ele>253.5</ele><time>2026-04-15T07:11:39Z</time></trkpt><trkpt lat="-26.81090143367883" lon="115.50180696040368"><ele>252.0</ele><time>2026-04-15T07:11:40Z</time></trkpt><trkpt lat="-26.81110538778648" lon="115.50159662687905"><ele>252.0</ele><time>2026-04-15T07:11:41Z</time></trkpt><trkpt lat="-26.81130950881611" lon="115.50138672507886"><ele>252.0</ele><time>2026-04-15T07:11:42Z</time></trkpt><trkpt lat="-26.81151845982888" lon="115.50117557937315"><ele>251.5</ele><time>2026-04-15T07:11:43Z</time></trkpt><trkpt lat="-26.81172704478307" lon="115.50095992384584"><ele>251.0</ele><time>2026-04-15T07:11:44Z</time></trkpt><trkpt lat="-26.811933983178754" lon="115.50074462969144"><ele>251.0</ele><time>2026-04-15T07:11:45Z</time></trkpt><trkpt lat="-26.812141712201864" lon="115.50052920065664"><ele>251.0</ele><time>2026-04-15T07:11:46Z</time></trkpt><trkpt lat="-26.812347701334915" lon="115.50031305298283"><ele>251.0</ele><time>2026-04-15T07:11:47Z</time></trkpt><trkpt lat="-26.812549688338013" lon="115.5000988356428"><ele>251.0</ele><time>2026-04-15T07:11:48Z</time></trkpt><trkpt lat="-26.812752632993867" lon="115.49988570372871"><ele>251.0</ele><time>2026-04-15T07:11:49Z</time></trkpt><trkpt lat="-26.812957702086614" lon="115.49967042675459"><ele>251.0</ele><time>2026-04-15T07:11:50Z</time></trkpt><trkpt lat="-26.81316684139866" lon="115.49944938160489"><ele>251.0</ele><time>2026-04-15T07:11:51Z</time></trkpt><trkpt lat="-26.813380557141773" lon="115.49922259570758"><ele>251.0</ele><time>2026-04-15T07:11:52Z</time></trkpt><trkpt lat="-26.813597403949704" lon="115.49899815371137"><ele>251.0</ele><time>2026-04-15T07:11:53Z</time></trkpt><trkpt lat="-26.813814363592144" lon="115.49877436771152"><ele>251.0</ele><time>2026-04-15T07:11:54Z</time></trkpt><trkpt lat="-26.814029616423078" lon="115.49854869286878"><ele>251.0</ele><time>2026-04-15T07:11:55Z</time></trkpt><trkpt lat="-26.814243325461774" lon="115.49832139020693"><ele>251.0</ele><time>2026-04-15T07:11:56Z</time></trkpt><trkpt lat="-26.81445846396437" lon="115.49809393982069"><ele>251.0</ele><time>2026-04-15T07:11:57Z</time></trkpt><trkpt lat="-26.81467484731367" lon="115.49786607622215"><ele>251.0</ele><time>2026-04-15T07:11:58Z</time></trkpt><trkpt lat="-26.814889564836303" lon="115.49764009012193"><ele>251.0</ele><time>2026-04-15T07:11:59Z</time></trkpt><trkpt lat="-26.815104784282024" lon="115.49741534438776"><ele>251.0</ele><time>2026-04-15T07:12:00Z</time></trkpt><trkpt lat="-26.815321000339964" lon="115.49719211725042"><ele>251.5</ele><time>2026-04-15T07:12:01Z</time></trkpt><trkpt lat="-26.81553442432112" lon="115.49696972922564"><ele>252.0</ele><time>2026-04-15T07:12:02Z</time></trkpt><trkpt lat="-26.81574467255849" lon="115.49674923467431"><ele>252.0</ele><time>2026-04-15T07:12:03Z</time></trkpt><trkpt lat="-26.81595237827194" lon="115.4965283400646"><ele>252.0</ele><time>2026-04-15T07:12:04Z</time></trkpt><trkpt lat="-26.816158307548946" lon="115.4963102510809"><ele>251.0</ele><time>2026-04-15T07:12:05Z</time></trkpt><trkpt lat="-26.81635848362681" lon="115.49609572270856"><ele>250.0</ele><time>2026-04-15T07:12:06Z</time></trkpt><trkpt lat="-26.81655642891497" lon="115.49588042543662"><ele>250.0</ele><time>2026-04-15T07:12:07Z</time></trkpt><trkpt lat="-26.81675252552981" lon="115.49566879136634"><ele>250.0</ele><time>2026-04-15T07:12:08Z</time></trkpt><trkpt lat="-26.81695183330099" lon="115.49545486483495"><ele>251.5</ele><time>2026-04-15T07:12:09Z</time></trkpt><trkpt lat="-26.817153858247682" lon="115.49523841593457"><ele>253.0</ele><time>2026-04-15T07:12:10Z</time></trkpt><trkpt lat="-26.817359862500524" lon="115.49501599964356"><ele>253.0</ele><time>2026-04-15T07:12:11Z</time></trkpt><trkpt lat="-26.817564118267182" lon="115.49478991848974"><ele>253.0</ele><time>2026-04-15T07:12:12Z</time></trkpt><trkpt lat="-26.817766349377926" lon="115.49455615356247"><ele>252.5</ele><time>2026-04-15T07:12:13Z</time></trkpt><trkpt lat="-26.817966654180168" lon="115.49431994439774"><ele>252.0</ele><time>2026-04-15T07:12:14Z</time></trkpt><trkpt lat="-26.818167458979314" lon="115.4940835461357"><ele>252.0</ele><time>2026-04-15T07:12:15Z</time></trkpt><trkpt lat="-26.81837023938975" lon="115.49384496824788"><ele>252.0</ele><time>2026-04-15T07:12:16Z</time></trkpt><trkpt lat="-26.81857570866237" lon="115.493603900344"><ele>252.5</ele><time>2026-04-15T07:12:17Z</time></trkpt><trkpt lat="-26.818783570263516" lon="115.49336478491242"><ele>253.0</ele><time>2026-04-15T07:12:18Z</time></trkpt><trkpt lat="-26.818991686755616" lon="115.49312921177886"><ele>253.0</ele><time>2026-04-15T07:12:19Z</time></trkpt><trkpt lat="-26.81920040424974" lon="115.49289351262061"><ele>253.0</ele><time>2026-04-15T07:12:20Z</time></trkpt><trkpt lat="-26.81941021773067" lon="115.49265283813213"><ele>253.0</ele><time>2026-04-15T07:12:21Z</time></trkpt><trkpt lat="-26.819619426759097" lon="115.49241172774092"><ele>253.0</ele><time>2026-04-15T07:12:22Z</time></trkpt><trkpt lat="-26.819827555620225" lon="115.49216902924103"><ele>252.5</ele><time>2026-04-15T07:12:23Z</time></trkpt><trkpt lat="-26.8200364761816" lon="115.49192394986575"><ele>252.0</ele><time>2026-04-15T07:12:24Z</time></trkpt><trkpt lat="-26.820244375209874" lon="115.49167970224501"><ele>252.0</ele><time>2026-04-15T07:12:25Z</time></trkpt><trkpt lat="-26.820451256757654" lon="115.4914368121685"><ele>252.0</ele><time>2026-04-15T07:12:26Z</time></trkpt><trkpt lat="-26.82065995023338" lon="115.49119477884017"><ele>252.0</ele><time>2026-04-15T07:12:27Z</time></trkpt><trkpt lat="-26.820869090862402" lon="115.49094822673467"><ele>252.0</ele><time>2026-04-15T07:12:28Z</time></trkpt><trkpt lat="-26.82107672355577" lon="115.49070103746219"><ele>252.0</ele><time>2026-04-15T07:12:29Z</time></trkpt><trkpt lat="-26.821283776865936" lon="115.49045717362125"><ele>252.0</ele><time>2026-04-15T07:12:30Z</time></trkpt><trkpt lat="-26.82149117617758" lon="115.49021333770239"><ele>252.0</ele><time>2026-04-15T07:12:31Z</time></trkpt><trkpt lat="-26.82169871189402" lon="115.48996901586212"><ele>252.0</ele><time>2026-04-15T07:12:32Z</time></trkpt><trkpt lat="-26.821906819278833" lon="115.48972780966595"><ele>251.5</ele><time>2026-04-15T07:12:33Z</time></trkpt><trkpt lat="-26.822115803057212" lon="115.48948666972555"><ele>251.0</ele><time>2026-04-15T07:12:34Z</time></trkpt><trkpt lat="-26.822323009956058" lon="115.48924509596716"><ele>251.0</ele><time>2026-04-15T07:12:35Z</time></trkpt><trkpt lat="-26.822530033826848" lon="115.48899951573368"><ele>251.0</ele><time>2026-04-15T07:12:36Z</time></trkpt><trkpt lat="-26.822735653356077" lon="115.4887543738055"><ele>251.5</ele><time>2026-04-15T07:12:37Z</time></trkpt><trkpt lat="-26.8229397992178" lon="115.48851126085262"><ele>252.0</ele><time>2026-04-15T07:12:38Z</time></trkpt><trkpt lat="-26.82314573369988" lon="115.48827108442914"><ele>252.0</ele><time>2026-04-15T07:12:39Z</time></trkpt><trkpt lat="-26.82334993968016" lon="115.48803111034529"><ele>252.0</ele><time>2026-04-15T07:12:40Z</time></trkpt><trkpt lat="-26.82355388176454" lon="115.48779204464948"><ele>251.0</ele><time>2026-04-15T07:12:41Z</time></trkpt><trkpt lat="-26.823758243825317" lon="115.48755252494695"><ele>250.0</ele><time>2026-04-15T07:12:42Z</time></trkpt><trkpt lat="-26.82396351530088" lon="115.48731210111487"><ele>250.5</ele><time>2026-04-15T07:12:43Z</time></trkpt><trkpt lat="-26.824167347619717" lon="115.48707331495918"><ele>251.0</ele><time>2026-04-15T07:12:44Z</time></trkpt><trkpt lat="-26.8243680236629" lon="115.48683568615736"><ele>251.5</ele><time>2026-04-15T07:12:45Z</time></trkpt><trkpt lat="-26.824569260277414" lon="115.48659489353366"><ele>252.0</ele><time>2026-04-15T07:12:46Z</time></trkpt><trkpt lat="-26.824773195046728" lon="115.48635221379587"><ele>252.0</ele><time>2026-04-15T07:12:47Z</time></trkpt><trkpt lat="-26.824979671361607" lon="115.48611242960148"><ele>252.0</ele><time>2026-04-15T07:12:48Z</time></trkpt><trkpt lat="-26.82518550803072" lon="115.48587534170784"><ele>252.5</ele><time>2026-04-15T07:12:49Z</time></trkpt><trkpt lat="-26.825393692635036" lon="115.4856320698652"><ele>253.0</ele><time>2026-04-15T07:12:50Z</time></trkpt><trkpt lat="-26.825599255963983" lon="115.4853864358088"><ele>252.0</ele><time>2026-04-15T07:12:51Z</time></trkpt><trkpt lat="-26.825808428929403" lon="115.48513792208944"><ele>251.0</ele><time>2026-04-15T07:12:52Z</time></trkpt><trkpt lat="-26.826017314697978" lon="115.48489137983718"><ele>251.0</ele><time>2026-04-15T07:12:53Z</time></trkpt><trkpt lat="-26.82622228486434" lon="115.4846470795289"><ele>251.0</ele><time>2026-04-15T07:12:54Z</time></trkpt><trkpt lat="-26.82642676347555" lon="115.4844052020353"><ele>251.5</ele><time>2026-04-15T07:12:55Z</time></trkpt><trkpt lat="-26.826632199354155" lon="115.48415981851346"><ele>252.0</ele><time>2026-04-15T07:12:56Z</time></trkpt><trkpt lat="-26.82683610068501" lon="115.4839160109906"><ele>252.0</ele><time>2026-04-15T07:12:57Z</time></trkpt><trkpt lat="-26.82703906492402" lon="115.48367460900637"><ele>252.0</ele><time>2026-04-15T07:12:58Z</time></trkpt><trkpt lat="-26.827245214877145" lon="115.4834340839411"><ele>252.0</ele><time>2026-04-15T07:12:59Z</time></trkpt><trkpt lat="-26.827451315974816" lon="115.48319467479531"><ele>252.0</ele><time>2026-04-15T07:13:00Z</time></trkpt><trkpt lat="-26.8276591092951" lon="115.48295335445154"><ele>252.5</ele><time>2026-04-15T07:13:01Z</time></trkpt><trkpt lat="-26.827868180102218" lon="115.48271177702748"><ele>253.0</ele><time>2026-04-15T07:13:02Z</time></trkpt><trkpt lat="-26.82807382097998" lon="115.48247117960638"><ele>253.0</ele><time>2026-04-15T07:13:03Z</time></trkpt><trkpt lat="-26.828278218948768" lon="115.48223217587838"><ele>253.0</ele><time>2026-04-15T07:13:04Z</time></trkpt><trkpt lat="-26.828482150279005" lon="115.48199226357985"><ele>252.0</ele><time>2026-04-15T07:13:05Z</time></trkpt><trkpt lat="-26.82868670396997" lon="115.48175126620828"><ele>251.0</ele><time>2026-04-15T07:13:06Z</time></trkpt><trkpt lat="-26.828891675326386" lon="115.48150924172204"><ele>251.0</ele><time>2026-04-15T07:13:07Z</time></trkpt><trkpt lat="-26.829097619094206" lon="115.48126567867654"><ele>251.0</ele><time>2026-04-15T07:13:08Z</time></trkpt><trkpt lat="-26.829306137467842" lon="115.48102275086552"><ele>251.0</ele><time>2026-04-15T07:13:09Z</time></trkpt><trkpt lat="-26.829514633741084" lon="115.48078170214933"><ele>251.0</ele><time>2026-04-15T07:13:10Z</time></trkpt><trkpt lat="-26.829721574011696" lon="115.4805416727858"><ele>251.0</ele><time>2026-04-15T07:13:11Z</time></trkpt><trkpt lat="-26.82992450918172" lon="115.48030614967627"><ele>251.0</ele><time>2026-04-15T07:13:12Z</time></trkpt><trkpt lat="-26.830126053440218" lon="115.48007279061508"><ele>251.0</ele><time>2026-04-15T07:13:13Z</time></trkpt><trkpt lat="-26.830324791962944" lon="115.4798402853674"><ele>251.0</ele><time>2026-04-15T07:13:14Z</time></trkpt><trkpt lat="-26.830524825698483" lon="115.47960933380106"><ele>251.0</ele><time>2026-04-15T07:13:15Z</time></trkpt><trkpt lat="-26.830723264278152" lon="115.47937754174531"><ele>251.0</ele><time>2026-04-15T07:13:16Z</time></trkpt><trkpt lat="-26.8309226852566" lon="115.47914616842685"><ele>251.0</ele><time>2026-04-15T07:13:17Z</time></trkpt><trkpt lat="-26.831121160713426" lon="115.47891743978111"><ele>251.0</ele><time>2026-04-15T07:13:18Z</time></trkpt><trkpt lat="-26.83131673330619" lon="115.47869003969753"><ele>250.5</ele><time>2026-04-15T07:13:19Z</time></trkpt><trkpt lat="-26.831511104440313" lon="115.47846228344935"><ele>250.0</ele><time>2026-04-15T07:13:20Z</time></trkpt><trkpt lat="-26.831705015622408" lon="115.47823652701008"><ele>250.5</ele><time>2026-04-15T07:13:21Z</time></trkpt><trkpt lat="-26.831891999106965" lon="115.47801792176972"><ele>251.0</ele><time>2026-04-15T07:13:22Z</time></trkpt><trkpt lat="-26.832072929221166" lon="115.47780272310469"><ele>251.5</ele><time>2026-04-15T07:13:23Z</time></trkpt><trkpt lat="-26.83225288202476" lon="115.47758404827476"><ele>252.0</ele><time>2026-04-15T07:13:24Z</time></trkpt><trkpt lat="-26.832427217013038" lon="115.47735742848906"><ele>252.0</ele><time>2026-04-15T07:13:25Z</time></trkpt><trkpt lat="-26.832596528334847" lon="115.47712023349673"><ele>252.0</ele><time>2026-04-15T07:13:26Z</time></trkpt><trkpt lat="-26.83276041011652" lon="115.4768830688994"><ele>251.5</ele><time>2026-04-15T07:13:27Z</time></trkpt><trkpt lat="-26.832918222083777" lon="115.47664305190008"><ele>251.0</ele><time>2026-04-15T07:13:28Z</time></trkpt><trkpt lat="-26.83306568502326" lon="115.47640458825849"><ele>252.0</ele><time>2026-04-15T07:13:29Z</time></trkpt><trkpt lat="-26.83321164234555" lon="115.47616499203178"><ele>253.0</ele><time>2026-04-15T07:13:30Z</time></trkpt><trkpt lat="-26.833353221876166" lon="115.47592250586791"><ele>252.5</ele><time>2026-04-15T07:13:31Z</time></trkpt><trkpt lat="-26.833488555170806" lon="115.47567299116872"><ele>252.0</ele><time>2026-04-15T07:13:32Z</time></trkpt><trkpt lat="-26.833613708817754" lon="115.47540840286821"><ele>253.0</ele><time>2026-04-15T07:13:33Z</time></trkpt><trkpt lat="-26.83373450932331" lon="115.47512733508368"><ele>254.0</ele><time>2026-04-15T07:13:34Z</time></trkpt><trkpt lat="-26.833851314707676" lon="115.47483726509522"><ele>253.5</ele><time>2026-04-15T07:13:35Z</time></trkpt><trkpt lat="-26.83396173351716" lon="115.47454249209052"><ele>253.0</ele><time>2026-04-15T07:13:36Z</time></trkpt><trkpt lat="-26.83406851914747" lon="115.47423995154058"><ele>253.0</ele><time>2026-04-15T07:13:37Z</time></trkpt><trkpt lat="-26.834173502105205" lon="115.47393465846555"><ele>253.0</ele><time>2026-04-15T07:13:38Z</time></trkpt><trkpt lat="-26.834277141290666" lon="115.4736313713156"><ele>253.5</ele><time>2026-04-15T07:13:39Z</time></trkpt><trkpt lat="-26.83437757099782" lon="115.47333091096635"><ele>254.0</ele><time>2026-04-15T07:13:40Z</time></trkpt><trkpt lat="-26.834474715683232" lon="115.47303358765649"><ele>254.0</ele><time>2026-04-15T07:13:41Z</time></trkpt><trkpt lat="-26.834563243018444" lon="115.47273270028289"><ele>254.0</ele><time>2026-04-15T07:13:42Z</time></trkpt><trkpt lat="-26.834636637891034" lon="115.47243251637872"><ele>254.0</ele><time>2026-04-15T07:13:43Z</time></trkpt><trkpt lat="-26.834695440301953" lon="115.47212649447214"><ele>254.0</ele><time>2026-04-15T07:13:44Z</time></trkpt><trkpt lat="-26.83474149044873" lon="115.47181699527232"><ele>252.5</ele><time>2026-04-15T07:13:45Z</time></trkpt><trkpt lat="-26.834777758559245" lon="115.47150109043261"><ele>251.0</ele><time>2026-04-15T07:13:46Z</time></trkpt><trkpt lat="-26.83480537765767" lon="115.47118294056183"><ele>250.5</ele><time>2026-04-15T07:13:47Z</time></trkpt><trkpt lat="-26.83482648254707" lon="115.470861956096"><ele>250.0</ele><time>2026-04-15T07:13:48Z</time></trkpt><trkpt lat="-26.8348383357311" lon="115.47053931859185"><ele>251.5</ele><time>2026-04-15T07:13:49Z</time></trkpt><trkpt lat="-26.834839810791596" lon="115.47021954179334"><ele>253.0</ele><time>2026-04-15T07:13:50Z</time></trkpt><trkpt lat="-26.834833474931038" lon="115.46990185806247"><ele>253.0</ele><time>2026-04-15T07:13:51Z</time></trkpt><trkpt lat="-26.83481821730771" lon="115.46958387761337"><ele>253.0</ele><time>2026-04-15T07:13:52Z</time></trkpt><trkpt lat="-26.834792677188247" lon="115.4692666825114"><ele>253.0</ele><time>2026-04-15T07:13:53Z</time></trkpt><trkpt lat="-26.834758681720214" lon="115.4689525339991"><ele>253.0</ele><time>2026-04-15T07:13:54Z</time></trkpt><trkpt lat="-26.8347189101274" lon="115.46863887712419"><ele>253.5</ele><time>2026-04-15T07:13:55Z</time></trkpt><trkpt lat="-26.834672315079693" lon="115.4683249794704"><ele>254.0</ele><time>2026-04-15T07:13:56Z</time></trkpt><trkpt lat="-26.834623610088535" lon="115.46801163539968"><ele>253.5</ele><time>2026-04-15T07:13:57Z</time></trkpt><trkpt lat="-26.8345716758371" lon="115.4677040071491"><ele>253.0</ele><time>2026-04-15T07:13:58Z</time></trkpt><trkpt lat="-26.834520565235618" lon="115.46740306617224"><ele>253.5</ele><time>2026-04-15T07:13:59Z</time></trkpt><trkpt lat="-26.834469090265756" lon="115.46710243681181"><ele>254.0</ele><time>2026-04-15T07:14:00Z</time></trkpt><trkpt lat="-26.83441994581733" lon="115.46679708674925"><ele>254.0</ele><time>2026-04-15T07:14:01Z</time></trkpt><trkpt lat="-26.834370383043822" lon="115.46649179285782"><ele>254.0</ele><time>2026-04-15T07:14:02Z</time></trkpt><trkpt lat="-26.83432000995057" lon="115.46618404898727"><ele>253.0</ele><time>2026-04-15T07:14:03Z</time></trkpt><trkpt lat="-26.834272498546056" lon="115.46587877560877"><ele>252.0</ele><time>2026-04-15T07:14:04Z</time></trkpt><trkpt lat="-26.834220056709384" lon="115.46557265517225"><ele>251.5</ele><time>2026-04-15T07:14:05Z</time></trkpt><trkpt lat="-26.834163402356623" lon="115.46526458475331"><ele>251.0</ele><time>2026-04-15T07:14:06Z</time></trkpt><trkpt lat="-26.83410326630614" lon="115.46495472561423"><ele>251.0</ele><time>2026-04-15T07:14:07Z</time></trkpt><trkpt lat="-26.83403905198282" lon="115.46464923723643"><ele>251.0</ele><time>2026-04-15T07:14:08Z</time></trkpt><trkpt lat="-26.83397238712874" lon="115.46434916623649"><ele>251.0</ele><time>2026-04-15T07:14:09Z</time></trkpt><trkpt lat="-26.833899396153146" lon="115.46404034539634"><ele>251.0</ele><time>2026-04-15T07:14:10Z</time></trkpt><trkpt lat="-26.833827634396087" lon="115.46373807447858"><ele>251.5</ele><time>2026-04-15T07:14:11Z</time></trkpt><trkpt lat="-26.83375619884904" lon="115.46343751855765"><ele>252.0</ele><time>2026-04-15T07:14:12Z</time></trkpt><trkpt lat="-26.83368432417262" lon="115.4631385048145"><ele>252.0</ele><time>2026-04-15T07:14:13Z</time></trkpt><trkpt lat="-26.833613261845336" lon="115.46283834118013"><ele>252.0</ele><time>2026-04-15T07:14:14Z</time></trkpt><trkpt lat="-26.833543114355237" lon="115.46254032582566"><ele>252.0</ele><time>2026-04-15T07:14:15Z</time></trkpt><trkpt lat="-26.833473990622508" lon="115.46224211331858"><ele>252.0</ele><time>2026-04-15T07:14:16Z</time></trkpt><trkpt lat="-26.833406980239833" lon="115.46194934770914"><ele>251.5</ele><time>2026-04-15T07:14:17Z</time></trkpt><trkpt lat="-26.833337004183623" lon="115.46165084256685"><ele>251.0</ele><time>2026-04-15T07:14:18Z</time></trkpt><trkpt lat="-26.83326558936356" lon="115.461350242486"><ele>251.0</ele><time>2026-04-15T07:14:19Z</time></trkpt><trkpt lat="-26.83319387542962" lon="115.46105532219114"><ele>251.0</ele><time>2026-04-15T07:14:20Z</time></trkpt><trkpt lat="-26.83312320856901" lon="115.4607640497295"><ele>251.0</ele><time>2026-04-15T07:14:21Z</time></trkpt><trkpt lat="-26.83305577820549" lon="115.46047377795739"><ele>251.0</ele><time>2026-04-15T07:14:22Z</time></trkpt><trkpt lat="-26.832990765472257" lon="115.4601880135732"><ele>251.0</ele><time>2026-04-15T07:14:23Z</time></trkpt><trkpt lat="-26.832924960258946" lon="115.45990093018001"><ele>251.0</ele><time>2026-04-15T07:14:24Z</time></trkpt><trkpt lat="-26.8328563029958" lon="115.45961538849559"><ele>250.5</ele><time>2026-04-15T07:14:24.999Z</time></trkpt><trkpt lat="-26.832785506685827" lon="115.45932854963279"><ele>250.0</ele><time>2026-04-15T07:14:25.999Z</time></trkpt><trkpt lat="-26.832714449016606" lon="115.4590404438936"><ele>250.5</ele><time>2026-04-15T07:14:26.999Z</time></trkpt><trkpt lat="-26.832642975878517" lon="115.45875247518693"><ele>251.0</ele><time>2026-04-15T07:14:27.999Z</time></trkpt><trkpt lat="-26.8325739592087" lon="115.4584665874433"><ele>251.5</ele><time>2026-04-15T07:14:28.999Z</time></trkpt><trkpt lat="-26.83250519485362" lon="115.45817742249523"><ele>252.0</ele><time>2026-04-15T07:14:29.999Z</time></trkpt><trkpt lat="-26.83243755201797" lon="115.45788181939005"><ele>251.0</ele><time>2026-04-15T07:14:30.999Z</time></trkpt><trkpt lat="-26.83236874463366" lon="115.45758511177262"><ele>250.0</ele><time>2026-04-15T07:14:32Z</time></trkpt><trkpt lat="-26.832298359566227" lon="115.45728815188734"><ele>250.5</ele><time>2026-04-15T07:14:33Z</time></trkpt><trkpt lat="-26.8322273921441" lon="115.45699090734784"><ele>251.0</ele><time>2026-04-15T07:14:34Z</time></trkpt><trkpt lat="-26.832158424066602" lon="115.4566940879781"><ele>251.0</ele><time>2026-04-15T07:14:35Z</time></trkpt><trkpt lat="-26.832087089373434" lon="115.45639665657045"><ele>251.0</ele><time>2026-04-15T07:14:36Z</time></trkpt><trkpt lat="-26.832015695824197" lon="115.45610507993224"><ele>251.0</ele><time>2026-04-15T07:14:37Z</time></trkpt><trkpt lat="-26.831945098885342" lon="115.45581402096492"><ele>251.0</ele><time>2026-04-15T07:14:38Z</time></trkpt><trkpt lat="-26.83187454739908" lon="115.45552746217646"><ele>250.5</ele><time>2026-04-15T07:14:39Z</time></trkpt><trkpt lat="-26.831805517954315" lon="115.45524228194947"><ele>250.0</ele><time>2026-04-15T07:14:40Z</time></trkpt><trkpt lat="-26.831741172364023" lon="115.45496121878139"><ele>250.0</ele><time>2026-04-15T07:14:41Z</time></trkpt><trkpt lat="-26.831676740496004" lon="115.45467586061912"><ele>250.0</ele><time>2026-04-15T07:14:42Z</time></trkpt><trkpt lat="-26.831608932314822" lon="115.45439248266521"><ele>249.5</ele><time>2026-04-15T07:14:43Z</time></trkpt><trkpt lat="-26.83154188881071" lon="115.45411383324222"><ele>249.0</ele><time>2026-04-15T07:14:44Z</time></trkpt><trkpt lat="-26.831473761328745" lon="115.4538361753155"><ele>250.0</ele><time>2026-04-15T07:14:45Z</time></trkpt><trkpt lat="-26.831405970870705" lon="115.4535566632758"><ele>251.0</ele><time>2026-04-15T07:14:46Z</time></trkpt><trkpt lat="-26.83133679077053" lon="115.45328096469767"><ele>251.0</ele><time>2026-04-15T07:14:47Z</time></trkpt><trkpt lat="-26.83126914410582" lon="115.45300818371436"><ele>251.0</ele><time>2026-04-15T07:14:48Z</time></trkpt><trkpt lat="-26.8312010768348" lon="115.45273495411568"><ele>251.5</ele><time>2026-04-15T07:14:49Z</time></trkpt><trkpt lat="-26.831134412947485" lon="115.45246105202288"><ele>252.0</ele><time>2026-04-15T07:14:50Z</time></trkpt><trkpt lat="-26.831066376147067" lon="115.45218831419257"><ele>251.5</ele><time>2026-04-15T07:14:51Z</time></trkpt><trkpt lat="-26.831000064742216" lon="115.45191771466303"><ele>251.0</ele><time>2026-04-15T07:14:52Z</time></trkpt><trkpt lat="-26.83093499139411" lon="115.45164746912876"><ele>250.5</ele><time>2026-04-15T07:14:53Z</time></trkpt><trkpt lat="-26.830868653920614" lon="115.45138011030335"><ele>250.0</ele><time>2026-04-15T07:14:54Z</time></trkpt><trkpt lat="-26.830802891542504" lon="115.45110907595574"><ele>250.0</ele><time>2026-04-15T07:14:55Z</time></trkpt><trkpt lat="-26.83073554154314" lon="115.45083340713818"><ele>250.0</ele><time>2026-04-15T07:14:56Z</time></trkpt><trkpt lat="-26.830666659210795" lon="115.4505551860539"><ele>249.5</ele><time>2026-04-15T07:14:57Z</time></trkpt><trkpt lat="-26.830595435348776" lon="115.45027121027493"><ele>249.0</ele><time>2026-04-15T07:14:58Z</time></trkpt><trkpt lat="-26.830525339534574" lon="115.44998834001045"><ele>249.0</ele><time>2026-04-15T07:14:59Z</time></trkpt><trkpt lat="-26.830456537924874" lon="115.44970106814846"><ele>249.0</ele><time>2026-04-15T07:15:00Z</time></trkpt><trkpt lat="-26.830388446350895" lon="115.449411925621"><ele>248.5</ele><time>2026-04-15T07:15:01Z</time></trkpt><trkpt lat="-26.830317075036934" lon="115.44912073268415"><ele>248.0</ele><time>2026-04-15T07:15:02Z</time></trkpt><trkpt lat="-26.830246638886106" lon="115.44883007347659"><ele>248.5</ele><time>2026-04-15T07:15:03Z</time></trkpt><trkpt lat="-26.830173705107153" lon="115.44854085449336"><ele>249.0</ele><time>2026-04-15T07:15:04Z</time></trkpt><trkpt lat="-26.83010050411099" lon="115.4482479410724"><ele>249.0</ele><time>2026-04-15T07:15:05Z</time></trkpt><trkpt lat="-26.83002643442761" lon="115.44794953011086"><ele>249.0</ele><time>2026-04-15T07:15:06Z</time></trkpt><trkpt lat="-26.82995776956831" lon="115.44765757042055"><ele>249.0</ele><time>2026-04-15T07:15:07Z</time></trkpt><trkpt lat="-26.82989267862732" lon="115.4473653113731"><ele>249.0</ele><time>2026-04-15T07:15:08Z</time></trkpt><trkpt lat="-26.829825289130827" lon="115.44707512381574"><ele>249.5</ele><time>2026-04-15T07:15:09Z</time></trkpt><trkpt lat="-26.829759935214987" lon="115.44678570531136"><ele>250.0</ele><time>2026-04-15T07:15:10Z</time></trkpt><trkpt lat="-26.829695691526787" lon="115.44650018147495"><ele>249.5</ele><time>2026-04-15T07:15:11Z</time></trkpt><trkpt lat="-26.82963270829481" lon="115.4462128264408"><ele>249.0</ele><time>2026-04-15T07:15:12Z</time></trkpt><trkpt lat="-26.82957064273155" lon="115.44592448350836"><ele>249.0</ele><time>2026-04-15T07:15:13Z</time></trkpt><trkpt lat="-26.82950515456686" lon="115.44563688070777"><ele>249.0</ele><time>2026-04-15T07:15:14Z</time></trkpt><trkpt lat="-26.82943866647777" lon="115.44534891573423"><ele>249.5</ele><time>2026-04-15T07:15:15Z</time></trkpt><trkpt lat="-26.829372944277466" lon="115.44506620799896"><ele>250.0</ele><time>2026-04-15T07:15:16Z</time></trkpt><trkpt lat="-26.829303095625352" lon="115.44478263467212"><ele>250.5</ele><time>2026-04-15T07:15:17Z</time></trkpt><trkpt lat="-26.829234099373274" lon="115.44450112383765"><ele>251.0</ele><time>2026-04-15T07:15:18Z</time></trkpt><trkpt lat="-26.829164833786756" lon="115.44421877000346"><ele>251.0</ele><time>2026-04-15T07:15:19Z</time></trkpt><trkpt lat="-26.82909812062594" lon="115.44393811269529"><ele>251.0</ele><time>2026-04-15T07:15:20Z</time></trkpt><trkpt lat="-26.829033584182362" lon="115.44365949631545"><ele>252.0</ele><time>2026-04-15T07:15:21Z</time></trkpt><trkpt lat="-26.82896900911274" lon="115.44338320451665"><ele>253.0</ele><time>2026-04-15T07:15:22Z</time></trkpt><trkpt lat="-26.828904454255188" lon="115.44310977806396"><ele>253.0</ele><time>2026-04-15T07:15:23Z</time></trkpt><trkpt lat="-26.828836329668214" lon="115.44283212850299"><ele>253.0</ele><time>2026-04-15T07:15:24Z</time></trkpt><trkpt lat="-26.828767700152135" lon="115.44255203234391"><ele>253.0</ele><time>2026-04-15T07:15:25Z</time></trkpt><trkpt lat="-26.828699790597124" lon="115.4422716000896"><ele>253.0</ele><time>2026-04-15T07:15:26Z</time></trkpt><trkpt lat="-26.828632999797275" lon="115.44199072164272"><ele>252.0</ele><time>2026-04-15T07:15:27Z</time></trkpt><trkpt lat="-26.828564475107147" lon="115.44170826721255"><ele>251.0</ele><time>2026-04-15T07:15:28Z</time></trkpt><trkpt lat="-26.828496058146495" lon="115.44142052698079"><ele>252.0</ele><time>2026-04-15T07:15:29Z</time></trkpt><trkpt lat="-26.82842561988266" lon="115.44113221148018"><ele>253.0</ele><time>2026-04-15T07:15:30Z</time></trkpt><trkpt lat="-26.82835215121609" lon="115.44084459965534"><ele>253.0</ele><time>2026-04-15T07:15:31Z</time></trkpt><trkpt lat="-26.828278514658816" lon="115.44055632175758"><ele>253.0</ele><time>2026-04-15T07:15:32Z</time></trkpt><trkpt lat="-26.828208866912377" lon="115.4402683281619"><ele>252.5</ele><time>2026-04-15T07:15:33Z</time></trkpt><trkpt lat="-26.82813918331754" lon="115.43997582051199"><ele>252.0</ele><time>2026-04-15T07:15:34Z</time></trkpt><trkpt lat="-26.828071524890245" lon="115.43968095379051"><ele>252.0</ele><time>2026-04-15T07:15:35Z</time></trkpt><trkpt lat="-26.828004800244454" lon="115.43938843261301"><ele>252.0</ele><time>2026-04-15T07:15:36Z</time></trkpt><trkpt lat="-26.827938196410102" lon="115.43909502824697"><ele>252.0</ele><time>2026-04-15T07:15:37Z</time></trkpt><trkpt lat="-26.827864854197323" lon="115.43880759994984"><ele>252.0</ele><time>2026-04-15T07:15:38Z</time></trkpt><trkpt lat="-26.827793820418364" lon="115.43852083146254"><ele>251.5</ele><time>2026-04-15T07:15:39Z</time></trkpt><trkpt lat="-26.827724684980446" lon="115.43823581427277"><ele>251.0</ele><time>2026-04-15T07:15:40Z</time></trkpt><trkpt lat="-26.827655787290503" lon="115.43795232580842"><ele>251.0</ele><time>2026-04-15T07:15:41Z</time></trkpt><trkpt lat="-26.82758767704984" lon="115.43766832677588"><ele>251.0</ele><time>2026-04-15T07:15:42Z</time></trkpt><trkpt lat="-26.82752115266369" lon="115.43738512110764"><ele>251.5</ele><time>2026-04-15T07:15:43Z</time></trkpt><trkpt lat="-26.827453634471414" lon="115.43709908084558"><ele>252.0</ele><time>2026-04-15T07:15:44Z</time></trkpt><trkpt lat="-26.827383614353565" lon="115.43681410003988"><ele>252.0</ele><time>2026-04-15T07:15:45Z</time></trkpt><trkpt lat="-26.82731334368548" lon="115.43652921305463"><ele>252.0</ele><time>2026-04-15T07:15:46Z</time></trkpt><trkpt lat="-26.827243590968955" lon="115.43624049975404"><ele>251.0</ele><time>2026-04-15T07:15:47Z</time></trkpt><trkpt lat="-26.827177065227797" lon="115.43595490576487"><ele>250.0</ele><time>2026-04-15T07:15:48Z</time></trkpt><trkpt lat="-26.827110561566254" lon="115.43566905334421"><ele>251.0</ele><time>2026-04-15T07:15:49Z</time></trkpt><trkpt lat="-26.827042852510896" lon="115.43538654188427"><ele>252.0</ele><time>2026-04-15T07:15:50Z</time></trkpt><trkpt lat="-26.82697359664997" lon="115.43510334860245"><ele>252.0</ele><time>2026-04-15T07:15:51Z</time></trkpt><trkpt lat="-26.826903011531233" lon="115.43482076935172"><ele>252.0</ele><time>2026-04-15T07:15:52Z</time></trkpt><trkpt lat="-26.82683390097562" lon="115.43453905383552"><ele>252.5</ele><time>2026-04-15T07:15:53Z</time></trkpt><trkpt lat="-26.82676607885121" lon="115.43425641834882"><ele>253.0</ele><time>2026-04-15T07:15:54Z</time></trkpt><trkpt lat="-26.826698477163564" lon="115.43396867682988"><ele>253.5</ele><time>2026-04-15T07:15:55Z</time></trkpt><trkpt lat="-26.826630073796057" lon="115.43368056901414"><ele>254.0</ele><time>2026-04-15T07:15:56Z</time></trkpt><trkpt lat="-26.826561215857783" lon="115.43339086228782"><ele>254.0</ele><time>2026-04-15T07:15:57Z</time></trkpt><trkpt lat="-26.826489219358173" lon="115.4330985453686"><ele>254.0</ele><time>2026-04-15T07:15:58Z</time></trkpt><trkpt lat="-26.826417822310006" lon="115.43280612886241"><ele>253.5</ele><time>2026-04-15T07:15:59Z</time></trkpt><trkpt lat="-26.826346894424933" lon="115.43251508463061"><ele>253.0</ele><time>2026-04-15T07:16:00Z</time></trkpt><trkpt lat="-26.826277288656915" lon="115.43222271069965"><ele>254.0</ele><time>2026-04-15T07:16:01Z</time></trkpt><trkpt lat="-26.826207375660438" lon="115.43193002928568"><ele>255.0</ele><time>2026-04-15T07:16:02Z</time></trkpt><trkpt lat="-26.826139254634576" lon="115.43163719659482"><ele>255.0</ele><time>2026-04-15T07:16:03Z</time></trkpt><trkpt lat="-26.826069201232634" lon="115.43134666601568"><ele>255.0</ele><time>2026-04-15T07:16:04Z</time></trkpt><trkpt lat="-26.82599943216197" lon="115.43105755916889"><ele>255.0</ele><time>2026-04-15T07:16:05Z</time></trkpt><trkpt lat="-26.82592859909896" lon="115.43076981213747"><ele>255.0</ele><time>2026-04-15T07:16:06Z</time></trkpt><trkpt lat="-26.825859493276802" lon="115.43048486665054"><ele>254.5</ele><time>2026-04-15T07:16:07Z</time></trkpt><trkpt lat="-26.82579117753432" lon="115.4302016110994"><ele>254.0</ele><time>2026-04-15T07:16:08Z</time></trkpt><trkpt lat="-26.825725922960036" lon="115.42992061821398"><ele>254.5</ele><time>2026-04-15T07:16:09Z</time></trkpt><trkpt lat="-26.82566055773138" lon="115.42964183729974"><ele>255.0</ele><time>2026-04-15T07:16:10Z</time></trkpt><trkpt lat="-26.825595512298936" lon="115.42936459219209"><ele>255.0</ele><time>2026-04-15T07:16:11Z</time></trkpt><trkpt lat="-26.825528067326868" lon="115.42909258958028"><ele>255.0</ele><time>2026-04-15T07:16:12Z</time></trkpt><trkpt lat="-26.825462253919493" lon="115.42881987134052"><ele>255.0</ele><time>2026-04-15T07:16:13Z</time></trkpt><trkpt lat="-26.82539857132454" lon="115.42854699233466"><ele>255.0</ele><time>2026-04-15T07:16:14Z</time></trkpt><trkpt lat="-26.825336242408433" lon="115.42827745564148"><ele>255.0</ele><time>2026-04-15T07:16:15Z</time></trkpt><trkpt lat="-26.825273184853785" lon="115.42800857348325"><ele>255.0</ele><time>2026-04-15T07:16:16Z</time></trkpt><trkpt lat="-26.825208382654846" lon="115.42773465206741"><ele>255.0</ele><time>2026-04-15T07:16:17Z</time></trkpt><trkpt lat="-26.825142472177266" lon="115.42746370512734"><ele>255.0</ele><time>2026-04-15T07:16:18Z</time></trkpt><trkpt lat="-26.825078376068074" lon="115.42719357031683"><ele>255.5</ele><time>2026-04-15T07:16:19Z</time></trkpt><trkpt lat="-26.825009844316405" lon="115.4269173268284"><ele>256.0</ele><time>2026-04-15T07:16:20Z</time></trkpt><trkpt lat="-26.82493912146705" lon="115.42664251281587"><ele>256.0</ele><time>2026-04-15T07:16:21Z</time></trkpt><trkpt lat="-26.824869458485676" lon="115.42637281068365"><ele>256.0</ele><time>2026-04-15T07:16:22Z</time></trkpt><trkpt lat="-26.824796900860555" lon="115.42609623565201"><ele>256.0</ele><time>2026-04-15T07:16:23Z</time></trkpt><trkpt lat="-26.82472781047477" lon="115.42582032309241"><ele>256.0</ele><time>2026-04-15T07:16:24Z</time></trkpt><trkpt lat="-26.82466152144452" lon="115.42554502967606"><ele>258.0</ele><time>2026-04-15T07:16:25Z</time></trkpt><trkpt lat="-26.824597938858318" lon="115.42526750200565"><ele>260.0</ele><time>2026-04-15T07:16:26Z</time></trkpt><trkpt lat="-26.82453468303875" lon="115.424989994355"><ele>260.0</ele><time>2026-04-15T07:16:27Z</time></trkpt><trkpt lat="-26.82446878184895" lon="115.4247129123902"><ele>260.0</ele><time>2026-04-15T07:16:28Z</time></trkpt><trkpt lat="-26.824400518858173" lon="115.42443843457853"><ele>260.5</ele><time>2026-04-15T07:16:29Z</time></trkpt><trkpt lat="-26.82433329617027" lon="115.42416350966553"><ele>261.0</ele><time>2026-04-15T07:16:30Z</time></trkpt><trkpt lat="-26.824263875251514" lon="115.42388493294897"><ele>260.5</ele><time>2026-04-15T07:16:31Z</time></trkpt><trkpt lat="-26.82419676818882" lon="115.4236103819408"><ele>260.0</ele><time>2026-04-15T07:16:32Z</time></trkpt><trkpt lat="-26.824134726140052" lon="115.4233519624104"><ele>260.0</ele><time>2026-04-15T07:16:33Z</time></trkpt><trkpt lat="-26.824070708413903" lon="115.42308278299788"><ele>260.0</ele><time>2026-04-15T07:16:34Z</time></trkpt><trkpt lat="-26.8240063471018" lon="115.42281262920389"><ele>261.5</ele><time>2026-04-15T07:16:35Z</time></trkpt><trkpt lat="-26.823939158495122" lon="115.4225367830849"><ele>263.0</ele><time>2026-04-15T07:16:36Z</time></trkpt><trkpt lat="-26.82387047707955" lon="115.42225805479531"><ele>264.0</ele><time>2026-04-15T07:16:37Z</time></trkpt><trkpt lat="-26.82380112225599" lon="115.4219776755773"><ele>265.0</ele><time>2026-04-15T07:16:38Z</time></trkpt><trkpt lat="-26.823732938228424" lon="115.42169491989318"><ele>265.0</ele><time>2026-04-15T07:16:39Z</time></trkpt><trkpt lat="-26.823663709447835" lon="115.4214083407322"><ele>265.0</ele><time>2026-04-15T07:16:40Z</time></trkpt><trkpt lat="-26.823595108449005" lon="115.42112088852502"><ele>264.5</ele><time>2026-04-15T07:16:41Z</time></trkpt><trkpt lat="-26.82352523009173" lon="115.42083175820541"><ele>264.0</ele><time>2026-04-15T07:16:42Z</time></trkpt><trkpt lat="-26.823457062911437" lon="115.42054426141186"><ele>264.5</ele><time>2026-04-15T07:16:43Z</time></trkpt><trkpt lat="-26.823390694562804" lon="115.42025361009772"><ele>265.0</ele><time>2026-04-15T07:16:44Z</time></trkpt><trkpt lat="-26.823323728107255" lon="115.41996456289716"><ele>265.0</ele><time>2026-04-15T07:16:45Z</time></trkpt><trkpt lat="-26.823253542404263" lon="115.41966780589742"><ele>265.0</ele><time>2026-04-15T07:16:46Z</time></trkpt><trkpt lat="-26.823181945277323" lon="115.41936869644327"><ele>266.0</ele><time>2026-04-15T07:16:47Z</time></trkpt><trkpt lat="-26.823112312801328" lon="115.4190712006922"><ele>267.0</ele><time>2026-04-15T07:16:48Z</time></trkpt><trkpt lat="-26.823039540569717" lon="115.41877259769589"><ele>267.0</ele><time>2026-04-15T07:16:49Z</time></trkpt><trkpt lat="-26.822969232583457" lon="115.41847549561784"><ele>267.0</ele><time>2026-04-15T07:16:50Z</time></trkpt><trkpt lat="-26.82289754146287" lon="115.4181713755533"><ele>267.0</ele><time>2026-04-15T07:16:51Z</time></trkpt><trkpt lat="-26.82282734026959" lon="115.41787294523047"><ele>267.0</ele><time>2026-04-15T07:16:52Z</time></trkpt><trkpt lat="-26.822755718468233" lon="115.41756893540095"><ele>267.0</ele><time>2026-04-15T07:16:53Z</time></trkpt><trkpt lat="-26.8226826301165" lon="115.41726770825554"><ele>267.0</ele><time>2026-04-15T07:16:54Z</time></trkpt><trkpt lat="-26.82260834065477" lon="115.41696601755694"><ele>267.0</ele><time>2026-04-15T07:16:55Z</time></trkpt><trkpt lat="-26.82253511232463" lon="115.41666048792736"><ele>267.0</ele><time>2026-04-15T07:16:56Z</time></trkpt><trkpt lat="-26.82246247556401" lon="115.4163579002628"><ele>268.0</ele><time>2026-04-15T07:16:57Z</time></trkpt><trkpt lat="-26.822391365695182" lon="115.416055247006"><ele>269.0</ele><time>2026-04-15T07:16:58Z</time></trkpt><trkpt lat="-26.82231746469202" lon="115.41575395337559"><ele>269.5</ele><time>2026-04-15T07:16:59Z</time></trkpt><trkpt lat="-26.82224326750102" lon="115.41545379302613"><ele>270.0</ele><time>2026-04-15T07:17:00Z</time></trkpt><trkpt lat="-26.822169534684114" lon="115.4151536403776"><ele>270.0</ele><time>2026-04-15T07:17:01Z</time></trkpt><trkpt lat="-26.822099924409756" lon="115.414856227734"><ele>270.0</ele><time>2026-04-15T07:17:02Z</time></trkpt><trkpt lat="-26.822033536885883" lon="115.41455901511073"><ele>269.5</ele><time>2026-04-15T07:17:03Z</time></trkpt><trkpt lat="-26.82196488226729" lon="115.41425882922032"><ele>269.0</ele><time>2026-04-15T07:17:04Z</time></trkpt><trkpt lat="-26.821893646276454" lon="115.41395905780384"><ele>269.5</ele><time>2026-04-15T07:17:05Z</time></trkpt><trkpt lat="-26.821819784738878" lon="115.41365608579119"><ele>270.0</ele><time>2026-04-15T07:17:06Z</time></trkpt><trkpt lat="-26.821744429811904" lon="115.41335082355334"><ele>270.0</ele><time>2026-04-15T07:17:07Z</time></trkpt><trkpt lat="-26.82167096718022" lon="115.41304440950825"><ele>270.0</ele><time>2026-04-15T07:17:08Z</time></trkpt><trkpt lat="-26.8215954551866" lon="115.41273711430836"><ele>270.0</ele><time>2026-04-15T07:17:09Z</time></trkpt><trkpt lat="-26.821519033923718" lon="115.41243090771859"><ele>270.0</ele><time>2026-04-15T07:17:10Z</time></trkpt><trkpt lat="-26.821444529775068" lon="115.41212293892279"><ele>270.5</ele><time>2026-04-15T07:17:11Z</time></trkpt><trkpt lat="-26.821372479990735" lon="115.41181353861468"><ele>271.0</ele><time>2026-04-15T07:17:12Z</time></trkpt><trkpt lat="-26.82130253914902" lon="115.4115031356365"><ele>272.0</ele><time>2026-04-15T07:17:13Z</time></trkpt><trkpt lat="-26.821230909918047" lon="115.41119086398037"><ele>273.0</ele><time>2026-04-15T07:17:14Z</time></trkpt><trkpt lat="-26.82115829036983" lon="115.41088173939713"><ele>273.0</ele><time>2026-04-15T07:17:15Z</time></trkpt><trkpt lat="-26.821085986704773" lon="115.41057267137636"><ele>273.0</ele><time>2026-04-15T07:17:16Z</time></trkpt><trkpt lat="-26.82101101458229" lon="115.41026766870151"><ele>272.5</ele><time>2026-04-15T07:17:17Z</time></trkpt><trkpt lat="-26.820935981982014" lon="115.40996769130007"><ele>272.0</ele><time>2026-04-15T07:17:18Z</time></trkpt><trkpt lat="-26.82086746848433" lon="115.409671251243"><ele>273.0</ele><time>2026-04-15T07:17:19Z</time></trkpt><trkpt lat="-26.820799020323243" lon="115.4093675952254"><ele>274.0</ele><time>2026-04-15T07:17:20Z</time></trkpt><trkpt lat="-26.820732327979037" lon="115.40906312353985"><ele>275.0</ele><time>2026-04-15T07:17:21Z</time></trkpt><trkpt lat="-26.820659619611675" lon="115.40876370216141"><ele>276.0</ele><time>2026-04-15T07:17:22Z</time></trkpt><trkpt lat="-26.820587641456378" lon="115.40846133902366"><ele>276.0</ele><time>2026-04-15T07:17:23Z</time></trkpt><trkpt lat="-26.820515098165345" lon="115.4081654597653"><ele>276.0</ele><time>2026-04-15T07:17:24Z</time></trkpt><trkpt lat="-26.820441821315484" lon="115.40786826070527"><ele>277.0</ele><time>2026-04-15T07:17:25Z</time></trkpt><trkpt lat="-26.820367668897667" lon="115.4075730497187"><ele>278.0</ele><time>2026-04-15T07:17:26Z</time></trkpt><trkpt lat="-26.82029187263741" lon="115.40727458787366"><ele>278.0</ele><time>2026-04-15T07:17:27Z</time></trkpt><trkpt lat="-26.820216065643233" lon="115.40697759716113"><ele>278.0</ele><time>2026-04-15T07:17:28Z</time></trkpt><trkpt lat="-26.820143151553204" lon="115.40668083204575"><ele>278.0</ele><time>2026-04-15T07:17:29Z</time></trkpt><trkpt lat="-26.820068191167948" lon="115.40638015058535"><ele>278.0</ele><time>2026-04-15T07:17:30Z</time></trkpt><trkpt lat="-26.819993158080703" lon="115.40607557643459"><ele>278.0</ele><time>2026-04-15T07:17:31Z</time></trkpt><trkpt lat="-26.819920851530778" lon="115.40576753550567"><ele>278.0</ele><time>2026-04-15T07:17:32Z</time></trkpt><trkpt lat="-26.81984925437878" lon="115.40545683708413"><ele>279.5</ele><time>2026-04-15T07:17:33Z</time></trkpt><trkpt lat="-26.819779259391744" lon="115.40514671165096"><ele>281.0</ele><time>2026-04-15T07:17:34Z</time></trkpt><trkpt lat="-26.819706020966116" lon="115.40483978294603"><ele>281.0</ele><time>2026-04-15T07:17:35Z</time></trkpt><trkpt lat="-26.819632999545444" lon="115.40453691433501"><ele>281.0</ele><time>2026-04-15T07:17:36Z</time></trkpt><trkpt lat="-26.819559289703268" lon="115.40423266699118"><ele>281.0</ele><time>2026-04-15T07:17:37Z</time></trkpt><trkpt lat="-26.819484654395012" lon="115.40392928239902"><ele>281.0</ele><time>2026-04-15T07:17:38Z</time></trkpt><trkpt lat="-26.819410323150525" lon="115.40362141506876"><ele>281.0</ele><time>2026-04-15T07:17:39Z</time></trkpt><trkpt lat="-26.81933818098693" lon="115.4033154110762"><ele>281.0</ele><time>2026-04-15T07:17:40Z</time></trkpt><trkpt lat="-26.81926755233514" lon="115.40301072279689"><ele>280.5</ele><time>2026-04-15T07:17:41Z</time></trkpt><trkpt lat="-26.819192854275173" lon="115.40270907071968"><ele>280.0</ele><time>2026-04-15T07:17:42Z</time></trkpt><trkpt lat="-26.819115080552756" lon="115.40240528544876"><ele>281.0</ele><time>2026-04-15T07:17:43Z</time></trkpt><trkpt lat="-26.81903857334184" lon="115.40210189756091"><ele>282.0</ele><time>2026-04-15T07:17:44Z</time></trkpt><trkpt lat="-26.818965765496994" lon="115.4018021748116"><ele>282.0</ele><time>2026-04-15T07:17:45Z</time></trkpt><trkpt lat="-26.81888965066612" lon="115.40149479536119"><ele>282.0</ele><time>2026-04-15T07:17:46Z</time></trkpt><trkpt lat="-26.81881795354823" lon="115.40119009913452"><ele>281.5</ele><time>2026-04-15T07:17:47Z</time></trkpt><trkpt lat="-26.81874563366926" lon="115.40088661190518"><ele>281.0</ele><time>2026-04-15T07:17:48Z</time></trkpt><trkpt lat="-26.818674429566634" lon="115.4005767951498"><ele>282.0</ele><time>2026-04-15T07:17:49Z</time></trkpt><trkpt lat="-26.818604773921276" lon="115.4002663912438"><ele>283.0</ele><time>2026-04-15T07:17:50Z</time></trkpt><trkpt lat="-26.818536746535738" lon="115.39995481775053"><ele>283.0</ele><time>2026-04-15T07:17:51Z</time></trkpt><trkpt lat="-26.81847016587932" lon="115.39964324729239"><ele>283.0</ele><time>2026-04-15T07:17:52Z</time></trkpt><trkpt lat="-26.81840767995264" lon="115.39933392303229"><ele>283.0</ele><time>2026-04-15T07:17:53Z</time></trkpt><trkpt lat="-26.81834834961274" lon="115.39903184591454"><ele>283.0</ele><time>2026-04-15T07:17:54Z</time></trkpt><trkpt lat="-26.818282452547926" lon="115.39872784385284"><ele>284.0</ele><time>2026-04-15T07:17:55Z</time></trkpt><trkpt lat="-26.8182118820966" lon="115.39842734454152"><ele>285.0</ele><time>2026-04-15T07:17:56Z</time></trkpt><trkpt lat="-26.81813998581177" lon="115.39812861339631"><ele>286.5</ele><time>2026-04-15T07:17:57Z</time></trkpt><trkpt lat="-26.818063974971523" lon="115.39782173369545"><ele>288.0</ele><time>2026-04-15T07:17:58Z</time></trkpt><trkpt lat="-26.817985923882777" lon="115.39751186419592"><ele>288.0</ele><time>2026-04-15T07:17:59Z</time></trkpt><trkpt lat="-26.817912902468066" lon="115.39720434453224"><ele>288.0</ele><time>2026-04-15T07:18:00Z</time></trkpt><trkpt lat="-26.81784174308947" lon="115.39689137240549"><ele>288.5</ele><time>2026-04-15T07:18:01Z</time></trkpt><trkpt lat="-26.81777092872472" lon="115.39658670247904"><ele>289.0</ele><time>2026-04-15T07:18:02Z</time></trkpt><trkpt lat="-26.817693831592255" lon="115.39627675046262"><ele>288.5</ele><time>2026-04-15T07:18:03Z</time></trkpt><trkpt lat="-26.81762424406799" lon="115.39597925403484"><ele>288.0</ele><time>2026-04-15T07:18:04Z</time></trkpt><trkpt lat="-26.817550209956263" lon="115.39567203478482"><ele>289.0</ele><time>2026-04-15T07:18:05Z</time></trkpt><trkpt lat="-26.817477236063358" lon="115.39536699724314"><ele>290.0</ele><time>2026-04-15T07:18:06Z</time></trkpt><trkpt lat="-26.817405232220004" lon="115.39506825017939"><ele>290.0</ele><time>2026-04-15T07:18:07Z</time></trkpt><trkpt lat="-26.817333697911796" lon="115.3947716223511"><ele>290.0</ele><time>2026-04-15T07:18:08Z</time></trkpt><trkpt lat="-26.817263708666214" lon="115.39447576343328"><ele>290.5</ele><time>2026-04-15T07:18:09Z</time></trkpt><trkpt lat="-26.81719374800729" lon="115.39417932909016"><ele>291.0</ele><time>2026-04-15T07:18:10Z</time></trkpt><trkpt lat="-26.817118323702925" lon="115.3938766661322"><ele>292.0</ele><time>2026-04-15T07:18:11Z</time></trkpt><trkpt lat="-26.817042851226525" lon="115.39357683285282"><ele>293.0</ele><time>2026-04-15T07:18:12Z</time></trkpt><trkpt lat="-26.816967961416047" lon="115.39327652511008"><ele>293.5</ele><time>2026-04-15T07:18:13Z</time></trkpt><trkpt lat="-26.816895410743612" lon="115.39297391475007"><ele>294.0</ele><time>2026-04-15T07:18:14Z</time></trkpt><trkpt lat="-26.8168197463541" lon="115.3926707885496"><ele>293.5</ele><time>2026-04-15T07:18:15Z</time></trkpt><trkpt lat="-26.816742736871177" lon="115.392370154943"><ele>293.0</ele><time>2026-04-15T07:18:16Z</time></trkpt><trkpt lat="-26.816667667608986" lon="115.3920653108357"><ele>294.0</ele><time>2026-04-15T07:18:17Z</time></trkpt><trkpt lat="-26.816597952176593" lon="115.39176088292021"><ele>295.0</ele><time>2026-04-15T07:18:18Z</time></trkpt><trkpt lat="-26.816530958670675" lon="115.39145164162117"><ele>295.5</ele><time>2026-04-15T07:18:19Z</time></trkpt><trkpt lat="-26.816459589359443" lon="115.39114266485082"><ele>296.0</ele><time>2026-04-15T07:18:20Z</time></trkpt><trkpt lat="-26.8163856701385" lon="115.39083874071554"><ele>296.0</ele><time>2026-04-15T07:18:21Z</time></trkpt><trkpt lat="-26.816311956969216" lon="115.39054331601407"><ele>296.0</ele><time>2026-04-15T07:18:22Z</time></trkpt><trkpt lat="-26.81624129384112" lon="115.39024406910801"><ele>297.0</ele><time>2026-04-15T07:18:23Z</time></trkpt><trkpt lat="-26.816173298300146" lon="115.38994826956979"><ele>298.0</ele><time>2026-04-15T07:18:24Z</time></trkpt><trkpt lat="-26.816104236194125" lon="115.3896534121795"><ele>297.5</ele><time>2026-04-15T07:18:25Z</time></trkpt><trkpt lat="-26.81603114821809" lon="115.38935356466396"><ele>297.0</ele><time>2026-04-15T07:18:26Z</time></trkpt><trkpt lat="-26.815957134334223" lon="115.38904893327754"><ele>298.5</ele><time>2026-04-15T07:18:27Z</time></trkpt><trkpt lat="-26.815884095004947" lon="115.38874060230566"><ele>300.0</ele><time>2026-04-15T07:18:28Z</time></trkpt><trkpt lat="-26.815810676668537" lon="115.38843621321092"><ele>300.0</ele><time>2026-04-15T07:18:29Z</time></trkpt><trkpt lat="-26.81573705077298" lon="115.38813613848095"><ele>300.0</ele><time>2026-04-15T07:18:30Z</time></trkpt><trkpt lat="-26.815664386788782" lon="115.3878337680904"><ele>300.5</ele><time>2026-04-15T07:18:31Z</time></trkpt><trkpt lat="-26.81559042546416" lon="115.38752716511327"><ele>301.0</ele><time>2026-04-15T07:18:32Z</time></trkpt><trkpt lat="-26.815518289028304" lon="115.38721644317287"><ele>302.0</ele><time>2026-04-15T07:18:33Z</time></trkpt><trkpt lat="-26.815447023904742" lon="115.38689946366816"><ele>303.0</ele><time>2026-04-15T07:18:34Z</time></trkpt><trkpt lat="-26.815374021660997" lon="115.38657919054765"><ele>302.5</ele><time>2026-04-15T07:18:35Z</time></trkpt><trkpt lat="-26.81529779106093" lon="115.3862628898796"><ele>302.0</ele><time>2026-04-15T07:18:36Z</time></trkpt><trkpt lat="-26.815221324714248" lon="115.38595037215845"><ele>302.0</ele><time>2026-04-15T07:18:37Z</time></trkpt><trkpt lat="-26.815144686781625" lon="115.38563431897097"><ele>302.0</ele><time>2026-04-15T07:18:38Z</time></trkpt><trkpt lat="-26.815067146552515" lon="115.38531488927474"><ele>303.0</ele><time>2026-04-15T07:18:39Z</time></trkpt><trkpt lat="-26.814990171790914" lon="115.38499961992832"><ele>304.0</ele><time>2026-04-15T07:18:40Z</time></trkpt><trkpt lat="-26.8149148927655" lon="115.38468237012788"><ele>304.0</ele><time>2026-04-15T07:18:41Z</time></trkpt><trkpt lat="-26.814839201904565" lon="115.38436781630897"><ele>304.0</ele><time>2026-04-15T07:18:42Z</time></trkpt><trkpt lat="-26.814765712714262" lon="115.38405025780537"><ele>303.0</ele><time>2026-04-15T07:18:43Z</time></trkpt><trkpt lat="-26.814692993298433" lon="115.38373237823599"><ele>302.0</ele><time>2026-04-15T07:18:44Z</time></trkpt><trkpt lat="-26.814618749120953" lon="115.38341261914917"><ele>302.0</ele><time>2026-04-15T07:18:45Z</time></trkpt><trkpt lat="-26.81454680287478" lon="115.38309049177842"><ele>302.0</ele><time>2026-04-15T07:18:46Z</time></trkpt><trkpt lat="-26.81447767505874" lon="115.38277288894727"><ele>302.0</ele><time>2026-04-15T07:18:47Z</time></trkpt><trkpt lat="-26.814409919127417" lon="115.38245677602139"><ele>302.0</ele><time>2026-04-15T07:18:48Z</time></trkpt><trkpt lat="-26.814340352182917" lon="115.38214192260878"><ele>302.0</ele><time>2026-04-15T07:18:49Z</time></trkpt><trkpt lat="-26.81426737987501" lon="115.38183008079798"><ele>302.0</ele><time>2026-04-15T07:18:50Z</time></trkpt><trkpt lat="-26.814194553583672" lon="115.38152643005857"><ele>301.5</ele><time>2026-04-15T07:18:51Z</time></trkpt><trkpt lat="-26.81411768712121" lon="115.38121721418166"><ele>301.0</ele><time>2026-04-15T07:18:52Z</time></trkpt><trkpt lat="-26.814037743126782" lon="115.38089950961746"><ele>301.0</ele><time>2026-04-15T07:18:53Z</time></trkpt><trkpt lat="-26.81395761736288" lon="115.38058457970982"><ele>301.0</ele><time>2026-04-15T07:18:54Z</time></trkpt><trkpt lat="-26.813876840542573" lon="115.38027352988433"><ele>300.5</ele><time>2026-04-15T07:18:55Z</time></trkpt><trkpt lat="-26.813795525780233" lon="115.37996637701895"><ele>300.0</ele><time>2026-04-15T07:18:56Z</time></trkpt><trkpt lat="-26.813718350643285" lon="115.37965472274335"><ele>300.0</ele><time>2026-04-15T07:18:57Z</time></trkpt><trkpt lat="-26.813642742228243" lon="115.37934577571315"><ele>300.0</ele><time>2026-04-15T07:18:58Z</time></trkpt><trkpt lat="-26.81356877082513" lon="115.37903674381752"><ele>299.0</ele><time>2026-04-15T07:18:59Z</time></trkpt><trkpt lat="-26.81349223444334" lon="115.37872829789623"><ele>298.0</ele><time>2026-04-15T07:19:00Z</time></trkpt><trkpt lat="-26.81341491390823" lon="115.37841953857732"><ele>297.0</ele><time>2026-04-15T07:19:01Z</time></trkpt><trkpt lat="-26.813337843885982" lon="115.37811271756628"><ele>296.0</ele><time>2026-04-15T07:19:02Z</time></trkpt><trkpt lat="-26.81326281205978" lon="115.37780361176151"><ele>296.0</ele><time>2026-04-15T07:19:03Z</time></trkpt><trkpt lat="-26.813188984675573" lon="115.37749363369625"><ele>296.0</ele><time>2026-04-15T07:19:04Z</time></trkpt><trkpt lat="-26.81311537142143" lon="115.37718008302053"><ele>296.0</ele><time>2026-04-15T07:19:05Z</time></trkpt><trkpt lat="-26.813041002584363" lon="115.37686750947064"><ele>296.0</ele><time>2026-04-15T07:19:06Z</time></trkpt><trkpt lat="-26.812963151794467" lon="115.37655225411447"><ele>295.0</ele><time>2026-04-15T07:19:07Z</time></trkpt><trkpt lat="-26.81288411283223" lon="115.37623601467615"><ele>294.0</ele><time>2026-04-15T07:19:08Z</time></trkpt><trkpt lat="-26.812806480078677" lon="115.37591727586941"><ele>294.0</ele><time>2026-04-15T07:19:09Z</time></trkpt><trkpt lat="-26.812728005342827" lon="115.37559880997588"><ele>294.0</ele><time>2026-04-15T07:19:10Z</time></trkpt><trkpt lat="-26.812651739097532" lon="115.37527648395307"><ele>294.0</ele><time>2026-04-15T07:19:11Z</time></trkpt><trkpt lat="-26.812575914644516" lon="115.37495382536828"><ele>294.0</ele><time>2026-04-15T07:19:12Z</time></trkpt><trkpt lat="-26.812499414726098" lon="115.37463534001074"><ele>293.0</ele><time>2026-04-15T07:19:13Z</time></trkpt><trkpt lat="-26.812420963840452" lon="115.3743132507842"><ele>292.0</ele><time>2026-04-15T07:19:14Z</time></trkpt><trkpt lat="-26.812342990767092" lon="115.37399519493741"><ele>292.0</ele><time>2026-04-15T07:19:15Z</time></trkpt><trkpt lat="-26.81226704704135" lon="115.37367470240443"><ele>292.0</ele><time>2026-04-15T07:19:16Z</time></trkpt><trkpt lat="-26.812193349284478" lon="115.37335354606674"><ele>292.0</ele><time>2026-04-15T07:19:17Z</time></trkpt><trkpt lat="-26.81211828025209" lon="115.37303122601075"><ele>292.0</ele><time>2026-04-15T07:19:18Z</time></trkpt><trkpt lat="-26.812041455763058" lon="115.37270942195367"><ele>291.0</ele><time>2026-04-15T07:19:19Z</time></trkpt><trkpt lat="-26.811964149149443" lon="115.3723903871773"><ele>290.0</ele><time>2026-04-15T07:19:20Z</time></trkpt><trkpt lat="-26.811887188929617" lon="115.37207239209684"><ele>289.5</ele><time>2026-04-15T07:19:21Z</time></trkpt><trkpt lat="-26.811809579118954" lon="115.37175757661869"><ele>289.0</ele><time>2026-04-15T07:19:22Z</time></trkpt><trkpt lat="-26.81173294791928" lon="115.37144075209011"><ele>288.5</ele><time>2026-04-15T07:19:23Z</time></trkpt><trkpt lat="-26.81165490837655" lon="115.37112370368627"><ele>288.0</ele><time>2026-04-15T07:19:24Z</time></trkpt><trkpt lat="-26.811579248406876" lon="115.37080974279485"><ele>288.0</ele><time>2026-04-15T07:19:25Z</time></trkpt><trkpt lat="-26.8115028545343" lon="115.37049504584402"><ele>288.0</ele><time>2026-04-15T07:19:26Z</time></trkpt><trkpt lat="-26.81142785373912" lon="115.37018089406354"><ele>288.0</ele><time>2026-04-15T07:19:27Z</time></trkpt><trkpt lat="-26.811349477289106" lon="115.36986497322978"><ele>288.0</ele><time>2026-04-15T07:19:28Z</time></trkpt><trkpt lat="-26.811271455216165" lon="115.36954858985065"><ele>288.0</ele><time>2026-04-15T07:19:29Z</time></trkpt><trkpt lat="-26.81119620918414" lon="115.36922963410753"><ele>288.0</ele><time>2026-04-15T07:19:30Z</time></trkpt><trkpt lat="-26.811123716804754" lon="115.36891207885121"><ele>287.0</ele><time>2026-04-15T07:19:31Z</time></trkpt><trkpt lat="-26.811049769505118" lon="115.36859642564643"><ele>286.0</ele><time>2026-04-15T07:19:32Z</time></trkpt><trkpt lat="-26.81097605682687" lon="115.36827875422502"><ele>285.0</ele><time>2026-04-15T07:19:33Z</time></trkpt><trkpt lat="-26.810901404081825" lon="115.36796694007776"><ele>284.0</ele><time>2026-04-15T07:19:34Z</time></trkpt><trkpt lat="-26.810826902865454" lon="115.36764925524774"><ele>284.0</ele><time>2026-04-15T07:19:35Z</time></trkpt><trkpt lat="-26.810746306630403" lon="115.36733576227522"><ele>284.0</ele><time>2026-04-15T07:19:36Z</time></trkpt><trkpt lat="-26.81066867240228" lon="115.36702323737748"><ele>283.5</ele><time>2026-04-15T07:19:37Z</time></trkpt><trkpt lat="-26.810590325185483" lon="115.36671274470883"><ele>283.0</ele><time>2026-04-15T07:19:38Z</time></trkpt><trkpt lat="-26.81051553197609" lon="115.36640348824967"><ele>283.0</ele><time>2026-04-15T07:19:39Z</time></trkpt><trkpt lat="-26.810441605539154" lon="115.36609307839059"><ele>283.0</ele><time>2026-04-15T07:19:40Z</time></trkpt><trkpt lat="-26.810369813313223" lon="115.36578552484366"><ele>282.5</ele><time>2026-04-15T07:19:41Z</time></trkpt><trkpt lat="-26.81029799896059" lon="115.36547917718204"><ele>282.0</ele><time>2026-04-15T07:19:42Z</time></trkpt><trkpt lat="-26.8102245215" lon="115.3651745056378"><ele>282.5</ele><time>2026-04-15T07:19:43Z</time></trkpt><trkpt lat="-26.8101508082728" lon="115.36487266136068"><ele>283.0</ele><time>2026-04-15T07:19:44Z</time></trkpt><trkpt lat="-26.810078489549795" lon="115.36456758923956"><ele>282.0</ele><time>2026-04-15T07:19:45Z</time></trkpt><trkpt lat="-26.81000572915637" lon="115.36426092354606"><ele>281.0</ele><time>2026-04-15T07:19:46Z</time></trkpt><trkpt lat="-26.809932712403555" lon="115.36395472025512"><ele>280.5</ele><time>2026-04-15T07:19:47Z</time></trkpt><trkpt lat="-26.80985786700809" lon="115.36364585949104"><ele>280.0</ele><time>2026-04-15T07:19:48Z</time></trkpt><trkpt lat="-26.809782177099677" lon="115.36334081500668"><ele>280.5</ele><time>2026-04-15T07:19:49Z</time></trkpt><trkpt lat="-26.809707882020735" lon="115.36303005041074"><ele>281.0</ele><time>2026-04-15T07:19:50Z</time></trkpt><trkpt lat="-26.80963364991872" lon="115.36272005440742"><ele>281.0</ele><time>2026-04-15T07:19:51Z</time></trkpt><trkpt lat="-26.809558376466647" lon="115.36240895334326"><ele>281.0</ele><time>2026-04-15T07:19:52Z</time></trkpt><trkpt lat="-26.809485996790478" lon="115.3620964424956"><ele>280.5</ele><time>2026-04-15T07:19:53Z</time></trkpt><trkpt lat="-26.809413604319484" lon="115.36178665275385"><ele>280.0</ele><time>2026-04-15T07:19:54Z</time></trkpt><trkpt lat="-26.809336966010633" lon="115.36147270093132"><ele>280.0</ele><time>2026-04-15T07:19:55Z</time></trkpt><trkpt lat="-26.80925736729827" lon="115.36115882848976"><ele>280.0</ele><time>2026-04-15T07:19:56Z</time></trkpt><trkpt lat="-26.80918132515876" lon="115.36084580810056"><ele>279.5</ele><time>2026-04-15T07:19:57Z</time></trkpt><trkpt lat="-26.80910524509957" lon="115.3605304121502"><ele>279.0</ele><time>2026-04-15T07:19:58Z</time></trkpt><trkpt lat="-26.809030306117524" lon="115.36021446849459"><ele>279.0</ele><time>2026-04-15T07:19:59Z</time></trkpt><trkpt lat="-26.808952884930076" lon="115.35989659353733"><ele>279.0</ele><time>2026-04-15T07:20:00Z</time></trkpt><trkpt lat="-26.808876316940065" lon="115.35957717499561"><ele>280.0</ele><time>2026-04-15T07:20:01Z</time></trkpt><trkpt lat="-26.808803144669476" lon="115.35926567147744"><ele>281.0</ele><time>2026-04-15T07:20:02Z</time></trkpt><trkpt lat="-26.808726784714562" lon="115.35894854149538"><ele>281.5</ele><time>2026-04-15T07:20:03Z</time></trkpt><trkpt lat="-26.808648149807308" lon="115.35863253958226"><ele>282.0</ele><time>2026-04-15T07:20:04Z</time></trkpt><trkpt lat="-26.80857039454426" lon="115.35831599350196"><ele>282.0</ele><time>2026-04-15T07:20:05Z</time></trkpt><trkpt lat="-26.808491739197716" lon="115.35799256953592"><ele>282.0</ele><time>2026-04-15T07:20:06Z</time></trkpt><trkpt lat="-26.808409432482946" lon="115.35766710685421"><ele>282.0</ele><time>2026-04-15T07:20:07Z</time></trkpt><trkpt lat="-26.808327673618248" lon="115.35734827946803"><ele>282.0</ele><time>2026-04-15T07:20:08Z</time></trkpt><trkpt lat="-26.80824759362809" lon="115.35702815160748"><ele>282.5</ele><time>2026-04-15T07:20:09Z</time></trkpt><trkpt lat="-26.80817186310209" lon="115.35671060134752"><ele>283.0</ele><time>2026-04-15T07:20:10Z</time></trkpt><trkpt lat="-26.80809729227629" lon="115.3563959824297"><ele>284.0</ele><time>2026-04-15T07:20:11Z</time></trkpt><trkpt lat="-26.808023615395" lon="115.35607773241547"><ele>285.0</ele><time>2026-04-15T07:20:12Z</time></trkpt><trkpt lat="-26.807945542457478" lon="115.35575897788927"><ele>285.5</ele><time>2026-04-15T07:20:13Z</time></trkpt><trkpt lat="-26.80786814745629" lon="115.35544302946242"><ele>286.0</ele><time>2026-04-15T07:20:14Z</time></trkpt><trkpt lat="-26.80779369974826" lon="115.35512748089701"><ele>286.0</ele><time>2026-04-15T07:20:15Z</time></trkpt><trkpt lat="-26.80771832482413" lon="115.35481317444693"><ele>286.0</ele><time>2026-04-15T07:20:16Z</time></trkpt><trkpt lat="-26.80764341106723" lon="115.35450242049255"><ele>286.0</ele><time>2026-04-15T07:20:17Z</time></trkpt><trkpt lat="-26.80756688438168" lon="115.3541875243756"><ele>286.0</ele><time>2026-04-15T07:20:18Z</time></trkpt><trkpt lat="-26.80748870240495" lon="115.35387177447006"><ele>287.0</ele><time>2026-04-15T07:20:19Z</time></trkpt><trkpt lat="-26.80741037320624" lon="115.35355246586684"><ele>288.0</ele><time>2026-04-15T07:20:20Z</time></trkpt><trkpt lat="-26.80733433186104" lon="115.35323285516374"><ele>288.5</ele><time>2026-04-15T07:20:21Z</time></trkpt><trkpt lat="-26.80725984527952" lon="115.35291365694461"><ele>289.0</ele><time>2026-04-15T07:20:22Z</time></trkpt><trkpt lat="-26.807182869452088" lon="115.3525947068038"><ele>289.0</ele><time>2026-04-15T07:20:23Z</time></trkpt><trkpt lat="-26.807107858367104" lon="115.35227560349429"><ele>289.0</ele><time>2026-04-15T07:20:24Z</time></trkpt><trkpt lat="-26.807029894480838" lon="115.35196015852273"><ele>290.5</ele><time>2026-04-15T07:20:25Z</time></trkpt><trkpt lat="-26.806952060764782" lon="115.35164057616225"><ele>292.0</ele><time>2026-04-15T07:20:26Z</time></trkpt><trkpt lat="-26.806873895255613" lon="115.35132007196962"><ele>292.5</ele><time>2026-04-15T07:20:27Z</time></trkpt><trkpt lat="-26.806796609144406" lon="115.35100327987347"><ele>293.0</ele><time>2026-04-15T07:20:28Z</time></trkpt><trkpt lat="-26.80672088489365" lon="115.3506911258821"><ele>294.5</ele><time>2026-04-15T07:20:29Z</time></trkpt><trkpt lat="-26.806646655261932" lon="115.35037680297656"><ele>296.0</ele><time>2026-04-15T07:20:30Z</time></trkpt><trkpt lat="-26.806574588333078" lon="115.35006630902491"><ele>296.0</ele><time>2026-04-15T07:20:31Z</time></trkpt><trkpt lat="-26.80649922023728" lon="115.34975875072625"><ele>296.0</ele><time>2026-04-15T07:20:32Z</time></trkpt><trkpt lat="-26.8064210562232" lon="115.34945367145542"><ele>296.0</ele><time>2026-04-15T07:20:33Z</time></trkpt><trkpt lat="-26.80634477898067" lon="115.34914968208628"><ele>296.0</ele><time>2026-04-15T07:20:34Z</time></trkpt><trkpt lat="-26.8062698280293" lon="115.34884033913076"><ele>296.0</ele><time>2026-04-15T07:20:35Z</time></trkpt><trkpt lat="-26.806196945551516" lon="115.34852940350233"><ele>296.0</ele><time>2026-04-15T07:20:36Z</time></trkpt><trkpt lat="-26.80612615045503" lon="115.34821853381968"><ele>296.0</ele><time>2026-04-15T07:20:37Z</time></trkpt><trkpt lat="-26.80605470279549" lon="115.34790924501205"><ele>296.0</ele><time>2026-04-15T07:20:38Z</time></trkpt><trkpt lat="-26.80598130575463" lon="115.34760288008175"><ele>296.0</ele><time>2026-04-15T07:20:39Z</time></trkpt><trkpt lat="-26.80590841611965" lon="115.34730157359822"><ele>296.0</ele><time>2026-04-15T07:20:40Z</time></trkpt><trkpt lat="-26.805837221709844" lon="115.34700809541995"><ele>297.0</ele><time>2026-04-15T07:20:41Z</time></trkpt><trkpt lat="-26.80576619962567" lon="115.3467186349627"><ele>298.0</ele><time>2026-04-15T07:20:42Z</time></trkpt><trkpt lat="-26.80569467270977" lon="115.34643206343175"><ele>299.5</ele><time>2026-04-15T07:20:43Z</time></trkpt><trkpt lat="-26.80562302348175" lon="115.34614622687627"><ele>301.0</ele><time>2026-04-15T07:20:44Z</time></trkpt><trkpt lat="-26.805554160173376" lon="115.34585746564404"><ele>301.0</ele><time>2026-04-15T07:20:45Z</time></trkpt><trkpt lat="-26.80548629619718" lon="115.34556781274436"><ele>301.0</ele><time>2026-04-15T07:20:46Z</time></trkpt><trkpt lat="-26.8054161396635" lon="115.34527860534719"><ele>301.5</ele><time>2026-04-15T07:20:47Z</time></trkpt><trkpt lat="-26.805344134604518" lon="115.34498755892167"><ele>302.0</ele><time>2026-04-15T07:20:48Z</time></trkpt><trkpt lat="-26.805271250072654" lon="115.34469534220973"><ele>302.0</ele><time>2026-04-15T07:20:49Z</time></trkpt><trkpt lat="-26.805199199146912" lon="115.34440344582347"><ele>302.0</ele><time>2026-04-15T07:20:50Z</time></trkpt><trkpt lat="-26.80512647133469" lon="115.34410913464608"><ele>302.0</ele><time>2026-04-15T07:20:51Z</time></trkpt><trkpt lat="-26.80505500291417" lon="115.34381213885058"><ele>302.0</ele><time>2026-04-15T07:20:52Z</time></trkpt><trkpt lat="-26.80498664027413" lon="115.34351301408556"><ele>302.0</ele><time>2026-04-15T07:20:53Z</time></trkpt><trkpt lat="-26.804914451276886" lon="115.3432103181275"><ele>302.0</ele><time>2026-04-15T07:20:54Z</time></trkpt><trkpt lat="-26.80483845640195" lon="115.34290726360207"><ele>301.5</ele><time>2026-04-15T07:20:55Z</time></trkpt><trkpt lat="-26.80476293134415" lon="115.34260259529756"><ele>301.0</ele><time>2026-04-15T07:20:56Z</time></trkpt><trkpt lat="-26.804687207146905" lon="115.34229366377959"><ele>301.0</ele><time>2026-04-15T07:20:57Z</time></trkpt><trkpt lat="-26.804611903022618" lon="115.34197949123116"><ele>301.0</ele><time>2026-04-15T07:20:58Z</time></trkpt><trkpt lat="-26.804542699466307" lon="115.34166561858805"><ele>302.0</ele><time>2026-04-15T07:20:59Z</time></trkpt><trkpt lat="-26.804472545206792" lon="115.3413538676382"><ele>303.0</ele><time>2026-04-15T07:21:00Z</time></trkpt><trkpt lat="-26.80439986328623" lon="115.3410455967727"><ele>302.5</ele><time>2026-04-15T07:21:01Z</time></trkpt><trkpt lat="-26.804325924817526" lon="115.34073995789647"><ele>302.0</ele><time>2026-04-15T07:21:02Z</time></trkpt><trkpt lat="-26.804251682716156" lon="115.34043246558458"><ele>301.5</ele><time>2026-04-15T07:21:03Z</time></trkpt><trkpt lat="-26.804178957461538" lon="115.34012547023708"><ele>301.0</ele><time>2026-04-15T07:21:04Z</time></trkpt><trkpt lat="-26.804103335891202" lon="115.33981893686916"><ele>301.5</ele><time>2026-04-15T07:21:05Z</time></trkpt><trkpt lat="-26.80402871560466" lon="115.33951460648912"><ele>302.0</ele><time>2026-04-15T07:21:06Z</time></trkpt><trkpt lat="-26.803954394561245" lon="115.3392142346124"><ele>302.0</ele><time>2026-04-15T07:21:07Z</time></trkpt><trkpt lat="-26.80388275915347" lon="115.33891673171895"><ele>302.0</ele><time>2026-04-15T07:21:08Z</time></trkpt><trkpt lat="-26.80381204773887" lon="115.33862427581336"><ele>301.0</ele><time>2026-04-15T07:21:09Z</time></trkpt><trkpt lat="-26.803740629770985" lon="115.33832902548627"><ele>300.0</ele><time>2026-04-15T07:21:10Z</time></trkpt><trkpt lat="-26.803667720362647" lon="115.33803240033181"><ele>300.0</ele><time>2026-04-15T07:21:11Z</time></trkpt><trkpt lat="-26.8035952574331" lon="115.33773518744256"><ele>300.0</ele><time>2026-04-15T07:21:12Z</time></trkpt><trkpt lat="-26.803522045374798" lon="115.33743403440243"><ele>300.0</ele><time>2026-04-15T07:21:13Z</time></trkpt><trkpt lat="-26.803448577154853" lon="115.33712838317065"><ele>300.0</ele><time>2026-04-15T07:21:14Z</time></trkpt><trkpt lat="-26.803372719396965" lon="115.33681835679413"><ele>300.0</ele><time>2026-04-15T07:21:15Z</time></trkpt><trkpt lat="-26.80329839585374" lon="115.33651055709234"><ele>300.0</ele><time>2026-04-15T07:21:16Z</time></trkpt><trkpt lat="-26.803225975343466" lon="115.3362044193524"><ele>300.0</ele><time>2026-04-15T07:21:17Z</time></trkpt><trkpt lat="-26.80315230872216" lon="115.33589503661061"><ele>300.0</ele><time>2026-04-15T07:21:18Z</time></trkpt><trkpt lat="-26.803077791273452" lon="115.3355886549658"><ele>300.0</ele><time>2026-04-15T07:21:19Z</time></trkpt><trkpt lat="-26.803003100090823" lon="115.33527874523682"><ele>300.0</ele><time>2026-04-15T07:21:20Z</time></trkpt><trkpt lat="-26.80292656016547" lon="115.33497133665796"><ele>300.0</ele><time>2026-04-15T07:21:21Z</time></trkpt><trkpt lat="-26.802851423286334" lon="115.33466244945073"><ele>300.0</ele><time>2026-04-15T07:21:22Z</time></trkpt><trkpt lat="-26.802776099689826" lon="115.3343515890039"><ele>300.0</ele><time>2026-04-15T07:21:23Z</time></trkpt><trkpt lat="-26.802702385974083" lon="115.33404000479034"><ele>300.0</ele><time>2026-04-15T07:21:24Z</time></trkpt><trkpt lat="-26.802627096134252" lon="115.33372841819036"><ele>300.0</ele><time>2026-04-15T07:21:25Z</time></trkpt><trkpt lat="-26.802552780753093" lon="115.33341470731706"><ele>300.0</ele><time>2026-04-15T07:21:26Z</time></trkpt><trkpt lat="-26.802481236002425" lon="115.33310466431338"><ele>299.5</ele><time>2026-04-15T07:21:27Z</time></trkpt><trkpt lat="-26.802408714489086" lon="115.33279473714431"><ele>299.0</ele><time>2026-04-15T07:21:28Z</time></trkpt><trkpt lat="-26.802335403435762" lon="115.33248985921065"><ele>299.5</ele><time>2026-04-15T07:21:29Z</time></trkpt><trkpt lat="-26.80226152466182" lon="115.33218707564326"><ele>300.0</ele><time>2026-04-15T07:21:30Z</time></trkpt><trkpt lat="-26.80218793666246" lon="115.33188617789746"><ele>300.0</ele><time>2026-04-15T07:21:31Z</time></trkpt><trkpt lat="-26.80211598571804" lon="115.33158764744734"><ele>300.0</ele><time>2026-04-15T07:21:32Z</time></trkpt><trkpt lat="-26.80204504580494" lon="115.33129079376822"><ele>300.0</ele><time>2026-04-15T07:21:33Z</time></trkpt><trkpt lat="-26.801974313741773" lon="115.33099721253828"><ele>300.0</ele><time>2026-04-15T07:21:34Z</time></trkpt><trkpt lat="-26.80190317683694" lon="115.33070832490236"><ele>300.0</ele><time>2026-04-15T07:21:35Z</time></trkpt><trkpt lat="-26.801832124235528" lon="115.33041684685921"><ele>300.0</ele><time>2026-04-15T07:21:36Z</time></trkpt><trkpt lat="-26.80176009118356" lon="115.33012645444497"><ele>300.0</ele><time>2026-04-15T07:21:37Z</time></trkpt><trkpt lat="-26.80168752298706" lon="115.32983334929213"><ele>300.0</ele><time>2026-04-15T07:21:38Z</time></trkpt><trkpt lat="-26.801616506606933" lon="115.3295348412138"><ele>300.5</ele><time>2026-04-15T07:21:39Z</time></trkpt><trkpt lat="-26.801548798357462" lon="115.32923358443428"><ele>301.0</ele><time>2026-04-15T07:21:40Z</time></trkpt><trkpt lat="-26.801480605315252" lon="115.3289340185442"><ele>301.0</ele><time>2026-04-15T07:21:41Z</time></trkpt><trkpt lat="-26.801410748513135" lon="115.32863848788847"><ele>301.0</ele><time>2026-04-15T07:21:42Z</time></trkpt><trkpt lat="-26.80134058222755" lon="115.32834361305417"><ele>300.5</ele><time>2026-04-15T07:21:43Z</time></trkpt><trkpt lat="-26.80126861648376" lon="115.32804411607678"><ele>300.0</ele><time>2026-04-15T07:21:44Z</time></trkpt><trkpt lat="-26.801195515406803" lon="115.32774388881751"><ele>300.0</ele><time>2026-04-15T07:21:45Z</time></trkpt><trkpt lat="-26.80112385480364" lon="115.32744340890483"><ele>300.0</ele><time>2026-04-15T07:21:46Z</time></trkpt><trkpt lat="-26.80105500179387" lon="115.32714272974899"><ele>300.0</ele><time>2026-04-15T07:21:47Z</time></trkpt><trkpt lat="-26.800987815384286" lon="115.32684944718147"><ele>300.0</ele><time>2026-04-15T07:21:48Z</time></trkpt><trkpt lat="-26.800923485638126" lon="115.3265714300112"><ele>300.0</ele><time>2026-04-15T07:21:49Z</time></trkpt><trkpt lat="-26.80086029736517" lon="115.3262971998579"><ele>300.0</ele><time>2026-04-15T07:21:50Z</time></trkpt><trkpt lat="-26.800796063888438" lon="115.326024549754"><ele>300.0</ele><time>2026-04-15T07:21:51Z</time></trkpt><trkpt lat="-26.80072958554379" lon="115.32575257215062"><ele>300.0</ele><time>2026-04-15T07:21:52Z</time></trkpt><trkpt lat="-26.800662762259556" lon="115.32548179300349"><ele>299.5</ele><time>2026-04-15T07:21:53Z</time></trkpt><trkpt lat="-26.800593341343326" lon="115.32521249370137"><ele>299.0</ele><time>2026-04-15T07:21:54Z</time></trkpt><trkpt lat="-26.800526336340006" lon="115.32494234132858"><ele>300.0</ele><time>2026-04-15T07:21:55Z</time></trkpt><trkpt lat="-26.80046163600807" lon="115.3246732046489"><ele>301.0</ele><time>2026-04-15T07:21:56Z</time></trkpt><trkpt lat="-26.800397957790924" lon="115.32440223634813"><ele>301.0</ele><time>2026-04-15T07:21:57Z</time></trkpt><trkpt lat="-26.800330482752315" lon="115.32412610300977"><ele>301.0</ele><time>2026-04-15T07:21:58Z</time></trkpt><trkpt lat="-26.80026006183682" lon="115.32384112293211"><ele>301.0</ele><time>2026-04-15T07:21:59Z</time></trkpt><trkpt lat="-26.800186915989133" lon="115.32355129863075"><ele>301.0</ele><time>2026-04-15T07:22:00Z</time></trkpt><trkpt lat="-26.800113940341355" lon="115.32325950678927"><ele>300.5</ele><time>2026-04-15T07:22:01Z</time></trkpt><trkpt lat="-26.800041894865597" lon="115.32296816878116"><ele>300.0</ele><time>2026-04-15T07:22:02Z</time></trkpt><trkpt lat="-26.799968467767947" lon="115.32267454291006"><ele>300.0</ele><time>2026-04-15T07:22:03Z</time></trkpt><trkpt lat="-26.799892261096094" lon="115.32238381054155"><ele>300.0</ele><time>2026-04-15T07:22:04Z</time></trkpt><trkpt lat="-26.79981767785619" lon="115.3220940841364"><ele>299.5</ele><time>2026-04-15T07:22:05Z</time></trkpt><trkpt lat="-26.799749843743893" lon="115.32180529293473"><ele>299.0</ele><time>2026-04-15T07:22:06Z</time></trkpt><trkpt lat="-26.799685736426635" lon="115.32151651175465"><ele>299.0</ele><time>2026-04-15T07:22:07Z</time></trkpt><trkpt lat="-26.799618346455283" lon="115.32122429144022"><ele>299.0</ele><time>2026-04-15T07:22:08Z</time></trkpt><trkpt lat="-26.799548912234478" lon="115.3209345531587"><ele>299.0</ele><time>2026-04-15T07:22:09Z</time></trkpt><trkpt lat="-26.79947780366405" lon="115.32064521503034"><ele>299.0</ele><time>2026-04-15T07:22:10Z</time></trkpt><trkpt lat="-26.79940905910661" lon="115.32034891723431"><ele>298.5</ele><time>2026-04-15T07:22:11Z</time></trkpt><trkpt lat="-26.79934188423682" lon="115.32005143679018"><ele>298.0</ele><time>2026-04-15T07:22:12Z</time></trkpt><trkpt lat="-26.799272355297308" lon="115.3197549197377"><ele>298.5</ele><time>2026-04-15T07:22:13Z</time></trkpt><trkpt lat="-26.79920243264093" lon="115.31945971096928"><ele>299.0</ele><time>2026-04-15T07:22:14Z</time></trkpt><trkpt lat="-26.799133592015" lon="115.31916428624716"><ele>298.0</ele><time>2026-04-15T07:22:15Z</time></trkpt><trkpt lat="-26.799064998999604" lon="115.31886428005643"><ele>297.0</ele><time>2026-04-15T07:22:16Z</time></trkpt><trkpt lat="-26.798995092238286" lon="115.31856344569496"><ele>297.0</ele><time>2026-04-15T07:22:17Z</time></trkpt><trkpt lat="-26.79892584945955" lon="115.31826576991786"><ele>297.0</ele><time>2026-04-15T07:22:18Z</time></trkpt><trkpt lat="-26.79885674189032" lon="115.31796881659554"><ele>296.5</ele><time>2026-04-15T07:22:19Z</time></trkpt><trkpt lat="-26.798783418914184" lon="115.31767446980848"><ele>296.0</ele><time>2026-04-15T07:22:20Z</time></trkpt><trkpt lat="-26.798705046998112" lon="115.31738327342262"><ele>296.0</ele><time>2026-04-15T07:22:21Z</time></trkpt><trkpt lat="-26.798625398737947" lon="115.31708674248162"><ele>296.0</ele><time>2026-04-15T07:22:22Z</time></trkpt><trkpt lat="-26.79854713577284" lon="115.31678629773923"><ele>296.0</ele><time>2026-04-15T07:22:23Z</time></trkpt><trkpt lat="-26.79847291082853" lon="115.31648504238605"><ele>296.0</ele><time>2026-04-15T07:22:24Z</time></trkpt><trkpt lat="-26.798400283206277" lon="115.31618428590045"><ele>295.5</ele><time>2026-04-15T07:22:25Z</time></trkpt><trkpt lat="-26.79832823708641" lon="115.31588164172378"><ele>295.0</ele><time>2026-04-15T07:22:26Z</time></trkpt><trkpt lat="-26.798255698100192" lon="115.31557986473868"><ele>295.5</ele><time>2026-04-15T07:22:27Z</time></trkpt><trkpt lat="-26.798184516889247" lon="115.3152816906015"><ele>296.0</ele><time>2026-04-15T07:22:28Z</time></trkpt><trkpt lat="-26.7981122365093" lon="115.31498326783134"><ele>296.0</ele><time>2026-04-15T07:22:29Z</time></trkpt><trkpt lat="-26.798038634680697" lon="115.31468107222254"><ele>296.0</ele><time>2026-04-15T07:22:30Z</time></trkpt><trkpt lat="-26.797966641710556" lon="115.31437588931391"><ele>296.0</ele><time>2026-04-15T07:22:31Z</time></trkpt><trkpt lat="-26.797892933045407" lon="115.31407300166788"><ele>296.0</ele><time>2026-04-15T07:22:32Z</time></trkpt><trkpt lat="-26.79781960578384" lon="115.31376679544118"><ele>296.5</ele><time>2026-04-15T07:22:33Z</time></trkpt><trkpt lat="-26.797744321007727" lon="115.3134580722482"><ele>297.0</ele><time>2026-04-15T07:22:34Z</time></trkpt><trkpt lat="-26.79766975531142" lon="115.31315013479119"><ele>295.5</ele><time>2026-04-15T07:22:35Z</time></trkpt><trkpt lat="-26.79759650476819" lon="115.31284480799249"><ele>294.0</ele><time>2026-04-15T07:22:36Z</time></trkpt><trkpt lat="-26.797521624555632" lon="115.31253692329162"><ele>294.0</ele><time>2026-04-15T07:22:37Z</time></trkpt><trkpt lat="-26.797443388720637" lon="115.31222745049443"><ele>294.0</ele><time>2026-04-15T07:22:38Z</time></trkpt><trkpt lat="-26.797358865559172" lon="115.31191415857175"><ele>294.0</ele><time>2026-04-15T07:22:39Z</time></trkpt><trkpt lat="-26.79727493521626" lon="115.311600291559"><ele>294.0</ele><time>2026-04-15T07:22:40Z</time></trkpt><trkpt lat="-26.797195459543083" lon="115.31128304909396"><ele>293.5</ele><time>2026-04-15T07:22:41Z</time></trkpt><trkpt lat="-26.79712050807061" lon="115.31096513575969"><ele>293.0</ele><time>2026-04-15T07:22:42Z</time></trkpt><trkpt lat="-26.797047804197003" lon="115.31064817571037"><ele>293.5</ele><time>2026-04-15T07:22:43Z</time></trkpt><trkpt lat="-26.796974492214076" lon="115.31032945124757"><ele>294.0</ele><time>2026-04-15T07:22:44Z</time></trkpt><trkpt lat="-26.796898785018225" lon="115.31000821003984"><ele>293.0</ele><time>2026-04-15T07:22:45Z</time></trkpt><trkpt lat="-26.79682279076273" lon="115.30968832315511"><ele>292.0</ele><time>2026-04-15T07:22:46Z</time></trkpt><trkpt lat="-26.79674558655708" lon="115.30937058464234"><ele>292.0</ele><time>2026-04-15T07:22:47Z</time></trkpt><trkpt lat="-26.79666710486927" lon="115.30905325429694"><ele>292.0</ele><time>2026-04-15T07:22:48Z</time></trkpt><trkpt lat="-26.796591043957754" lon="115.308737709127"><ele>292.5</ele><time>2026-04-15T07:22:49Z</time></trkpt><trkpt lat="-26.79651574071665" lon="115.30841949215284"><ele>293.0</ele><time>2026-04-15T07:22:50Z</time></trkpt><trkpt lat="-26.796443381467665" lon="115.30810084697404"><ele>292.0</ele><time>2026-04-15T07:22:51Z</time></trkpt><trkpt lat="-26.79637153906733" lon="115.30778128277007"><ele>291.0</ele><time>2026-04-15T07:22:52Z</time></trkpt><trkpt lat="-26.79629913099999" lon="115.30746412776637"><ele>291.0</ele><time>2026-04-15T07:22:53Z</time></trkpt><trkpt lat="-26.796222513266414" lon="115.30714763925047"><ele>291.0</ele><time>2026-04-15T07:22:54Z</time></trkpt><trkpt lat="-26.796143385014723" lon="115.30683644153599"><ele>291.0</ele><time>2026-04-15T07:22:55Z</time></trkpt><trkpt lat="-26.79606411660607" lon="115.30652743169449"><ele>291.0</ele><time>2026-04-15T07:22:56Z</time></trkpt><trkpt lat="-26.795983561439837" lon="115.30621692203532"><ele>291.0</ele><time>2026-04-15T07:22:57Z</time></trkpt><trkpt lat="-26.795907451926606" lon="115.30591147552663"><ele>291.0</ele><time>2026-04-15T07:22:58Z</time></trkpt><trkpt lat="-26.795835145942668" lon="115.30560287003019"><ele>290.0</ele><time>2026-04-15T07:22:59Z</time></trkpt><trkpt lat="-26.795763205549722" lon="115.30529630746105"><ele>289.0</ele><time>2026-04-15T07:23:00Z</time></trkpt><trkpt lat="-26.795689598193174" lon="115.30498682786637"><ele>289.5</ele><time>2026-04-15T07:23:01Z</time></trkpt><trkpt lat="-26.795614592591942" lon="115.30467502750133"><ele>290.0</ele><time>2026-04-15T07:23:02Z</time></trkpt><trkpt lat="-26.795540242140724" lon="115.3043647627069"><ele>290.0</ele><time>2026-04-15T07:23:03Z</time></trkpt><trkpt lat="-26.79546750837381" lon="115.30405819694137"><ele>290.0</ele><time>2026-04-15T07:23:04Z</time></trkpt><trkpt lat="-26.795393073813116" lon="115.30374676898994"><ele>288.0</ele><time>2026-04-15T07:23:05Z</time></trkpt><trkpt lat="-26.795319158536614" lon="115.30343776108668"><ele>286.0</ele><time>2026-04-15T07:23:06Z</time></trkpt><trkpt lat="-26.79524439954024" lon="115.3031274142574"><ele>286.5</ele><time>2026-04-15T07:23:07Z</time></trkpt><trkpt lat="-26.79516724077287" lon="115.30281745453551"><ele>287.0</ele><time>2026-04-15T07:23:08Z</time></trkpt><trkpt lat="-26.79508995720601" lon="115.30250224937681"><ele>287.0</ele><time>2026-04-15T07:23:09Z</time></trkpt><trkpt lat="-26.79501586820222" lon="115.30218542914592"><ele>287.0</ele><time>2026-04-15T07:23:10Z</time></trkpt><trkpt lat="-26.794941130030512" lon="115.30186865453857"><ele>287.0</ele><time>2026-04-15T07:23:11Z</time></trkpt><trkpt lat="-26.79486501217741" lon="115.30155428961787"><ele>287.0</ele><time>2026-04-15T07:23:12Z</time></trkpt><trkpt lat="-26.794788502988965" lon="115.3012403857399"><ele>286.0</ele><time>2026-04-15T07:23:13Z</time></trkpt><trkpt lat="-26.79471254173368" lon="115.30093122992842"><ele>285.0</ele><time>2026-04-15T07:23:14Z</time></trkpt><trkpt lat="-26.794638984645562" lon="115.30062237154567"><ele>284.5</ele><time>2026-04-15T07:23:15Z</time></trkpt><trkpt lat="-26.7945693238693" lon="115.300314775114"><ele>284.0</ele><time>2026-04-15T07:23:16Z</time></trkpt><trkpt lat="-26.794498368180257" lon="115.3000099491452"><ele>283.0</ele><time>2026-04-15T07:23:17Z</time></trkpt><trkpt lat="-26.794425976192723" lon="115.29971030119113"><ele>282.0</ele><time>2026-04-15T07:23:18Z</time></trkpt><trkpt lat="-26.794354471549624" lon="115.29941552442152"><ele>282.0</ele><time>2026-04-15T07:23:19Z</time></trkpt><trkpt lat="-26.79428317267573" lon="115.2991234191501"><ele>282.0</ele><time>2026-04-15T07:23:20Z</time></trkpt><trkpt lat="-26.79421071221326" lon="115.29883122677361"><ele>281.0</ele><time>2026-04-15T07:23:21Z</time></trkpt><trkpt lat="-26.794140270457774" lon="115.2985483610732"><ele>280.0</ele><time>2026-04-15T07:23:22Z</time></trkpt><trkpt lat="-26.794072139009444" lon="115.29826186671987"><ele>280.0</ele><time>2026-04-15T07:23:23Z</time></trkpt><trkpt lat="-26.79400505752064" lon="115.29797397068165"><ele>280.0</ele><time>2026-04-15T07:23:24Z</time></trkpt><trkpt lat="-26.793936371367398" lon="115.29768755738118"><ele>280.0</ele><time>2026-04-15T07:23:25Z</time></trkpt><trkpt lat="-26.793867136846654" lon="115.29739896647389"><ele>280.0</ele><time>2026-04-15T07:23:26Z</time></trkpt><trkpt lat="-26.793797329870074" lon="115.29711195190643"><ele>279.5</ele><time>2026-04-15T07:23:27Z</time></trkpt><trkpt lat="-26.793726678306946" lon="115.29682479895247"><ele>279.0</ele><time>2026-04-15T07:23:28Z</time></trkpt><trkpt lat="-26.793656892755926" lon="115.29653417332905"><ele>278.5</ele><time>2026-04-15T07:23:29Z</time></trkpt><trkpt lat="-26.79358701125601" lon="115.29623819413034"><ele>278.0</ele><time>2026-04-15T07:23:30Z</time></trkpt><trkpt lat="-26.793515889523757" lon="115.29594221925156"><ele>278.0</ele><time>2026-04-15T07:23:31Z</time></trkpt><trkpt lat="-26.793445259943912" lon="115.2956467792537"><ele>278.0</ele><time>2026-04-15T07:23:32Z</time></trkpt><trkpt lat="-26.793374168798476" lon="115.29535476230095"><ele>277.5</ele><time>2026-04-15T07:23:33Z</time></trkpt><trkpt lat="-26.793300127524684" lon="115.29505947562545"><ele>277.0</ele><time>2026-04-15T07:23:34Z</time></trkpt><trkpt lat="-26.79322730831135" lon="115.29477224291277"><ele>276.5</ele><time>2026-04-15T07:23:35Z</time></trkpt><trkpt lat="-26.793156194847327" lon="115.29448258621935"><ele>276.0</ele><time>2026-04-15T07:23:36Z</time></trkpt><trkpt lat="-26.793086563457617" lon="115.29419030148142"><ele>275.5</ele><time>2026-04-15T07:23:37Z</time></trkpt><trkpt lat="-26.793018658483803" lon="115.29389707721862"><ele>275.0</ele><time>2026-04-15T07:23:38Z</time></trkpt><trkpt lat="-26.79294981259123" lon="115.29360402581469"><ele>275.0</ele><time>2026-04-15T07:23:39Z</time></trkpt><trkpt lat="-26.792880241530085" lon="115.29331204354929"><ele>275.0</ele><time>2026-04-15T07:23:40Z</time></trkpt><trkpt lat="-26.792808005639642" lon="115.29301914377497"><ele>274.0</ele><time>2026-04-15T07:23:41Z</time></trkpt><trkpt lat="-26.792732797778868" lon="115.29272243373191"><ele>273.0</ele><time>2026-04-15T07:23:42Z</time></trkpt><trkpt lat="-26.79265816276013" lon="115.29242740677873"><ele>273.0</ele><time>2026-04-15T07:23:43Z</time></trkpt><trkpt lat="-26.792585098112728" lon="115.29212999361128"><ele>273.0</ele><time>2026-04-15T07:23:44Z</time></trkpt><trkpt lat="-26.79251201566282" lon="115.29183529491023"><ele>273.0</ele><time>2026-04-15T07:23:45Z</time></trkpt><trkpt lat="-26.79243841620681" lon="115.29153548884746"><ele>273.0</ele><time>2026-04-15T07:23:46Z</time></trkpt><trkpt lat="-26.792367188107868" lon="115.2912342142759"><ele>272.0</ele><time>2026-04-15T07:23:47Z</time></trkpt><trkpt lat="-26.79229564886948" lon="115.29094292510719"><ele>271.0</ele><time>2026-04-15T07:23:48Z</time></trkpt><trkpt lat="-26.792222287130308" lon="115.29064455210873"><ele>270.5</ele><time>2026-04-15T07:23:49Z</time></trkpt><trkpt lat="-26.79214855923982" lon="115.29035027940643"><ele>270.0</ele><time>2026-04-15T07:23:50Z</time></trkpt><trkpt lat="-26.792074497044773" lon="115.2900499846213"><ele>270.5</ele><time>2026-04-15T07:23:51Z</time></trkpt><trkpt lat="-26.79200671103679" lon="115.28975821771905"><ele>271.0</ele><time>2026-04-15T07:23:52Z</time></trkpt><trkpt lat="-26.791938455541374" lon="115.28946549995345"><ele>271.0</ele><time>2026-04-15T07:23:53Z</time></trkpt><trkpt lat="-26.791867585764876" lon="115.28916876082037"><ele>271.0</ele><time>2026-04-15T07:23:54Z</time></trkpt><trkpt lat="-26.791796550103403" lon="115.2888718781187"><ele>270.0</ele><time>2026-04-15T07:23:55Z</time></trkpt><trkpt lat="-26.791725603095685" lon="115.28857365267018"><ele>269.0</ele><time>2026-04-15T07:23:56Z</time></trkpt><trkpt lat="-26.79165471321583" lon="115.2882726510199"><ele>268.5</ele><time>2026-04-15T07:23:57Z</time></trkpt><trkpt lat="-26.791583584568652" lon="115.28797823363999"><ele>268.0</ele><time>2026-04-15T07:23:58Z</time></trkpt><trkpt lat="-26.791509255264476" lon="115.2876833495361"><ele>268.0</ele><time>2026-04-15T07:23:59Z</time></trkpt><trkpt lat="-26.791434529174577" lon="115.28739001649811"><ele>268.0</ele><time>2026-04-15T07:24:00Z</time></trkpt><trkpt lat="-26.791361762437347" lon="115.28710007117755"><ele>267.5</ele><time>2026-04-15T07:24:01Z</time></trkpt><trkpt lat="-26.791291914695737" lon="115.28680588085253"><ele>267.0</ele><time>2026-04-15T07:24:02Z</time></trkpt><trkpt lat="-26.791222978965056" lon="115.28650655737758"><ele>267.0</ele><time>2026-04-15T07:24:03Z</time></trkpt><trkpt lat="-26.791156540550226" lon="115.28621615922819"><ele>267.0</ele><time>2026-04-15T07:24:04Z</time></trkpt><trkpt lat="-26.79108755263447" lon="115.28592834020802"><ele>267.0</ele><time>2026-04-15T07:24:05Z</time></trkpt><trkpt lat="-26.79101851172508" lon="115.28563843762738"><ele>267.0</ele><time>2026-04-15T07:24:06Z</time></trkpt><trkpt lat="-26.790948246407947" lon="115.28534226111044"><ele>267.0</ele><time>2026-04-15T07:24:07Z</time></trkpt><trkpt lat="-26.790876480590885" lon="115.28504686352923"><ele>267.0</ele><time>2026-04-15T07:24:08Z</time></trkpt><trkpt lat="-26.790804509373153" lon="115.28474921140987"><ele>267.0</ele><time>2026-04-15T07:24:09Z</time></trkpt><trkpt lat="-26.7907327715292" lon="115.28445190883306"><ele>267.0</ele><time>2026-04-15T07:24:10Z</time></trkpt><trkpt lat="-26.790658243610995" lon="115.28415320625267"><ele>266.5</ele><time>2026-04-15T07:24:11Z</time></trkpt><trkpt lat="-26.79058369500388" lon="115.28385413510681"><ele>266.0</ele><time>2026-04-15T07:24:12Z</time></trkpt><trkpt lat="-26.7905082250237" lon="115.28355364639266"><ele>266.0</ele><time>2026-04-15T07:24:13Z</time></trkpt><trkpt lat="-26.790435734025372" lon="115.28326459244448"><ele>266.0</ele><time>2026-04-15T07:24:14Z</time></trkpt><trkpt lat="-26.790362214759867" lon="115.28297169417814"><ele>265.5</ele><time>2026-04-15T07:24:15Z</time></trkpt><trkpt lat="-26.790292720799673" lon="115.28268247387514"><ele>265.0</ele><time>2026-04-15T07:24:16Z</time></trkpt><trkpt lat="-26.790221408757382" lon="115.28239536631246"><ele>265.0</ele><time>2026-04-15T07:24:17Z</time></trkpt><trkpt lat="-26.79015371609278" lon="115.28211225574854"><ele>265.0</ele><time>2026-04-15T07:24:18Z</time></trkpt><trkpt lat="-26.79009055709125" lon="115.2818308597464"><ele>265.0</ele><time>2026-04-15T07:24:19Z</time></trkpt><trkpt lat="-26.790026283817458" lon="115.28154949581476"><ele>265.0</ele><time>2026-04-15T07:24:20Z</time></trkpt><trkpt lat="-26.789957804908692" lon="115.2812609967852"><ele>265.0</ele><time>2026-04-15T07:24:21Z</time></trkpt><trkpt lat="-26.78988637079818" lon="115.28097153435283"><ele>265.0</ele><time>2026-04-15T07:24:22Z</time></trkpt><trkpt lat="-26.789815542029626" lon="115.2806784575497"><ele>264.5</ele><time>2026-04-15T07:24:23Z</time></trkpt><trkpt lat="-26.789745879342654" lon="115.28038455977268"><ele>264.0</ele><time>2026-04-15T07:24:24Z</time></trkpt><trkpt lat="-26.789675451607778" lon="115.28008904314807"><ele>264.0</ele><time>2026-04-15T07:24:25Z</time></trkpt><trkpt lat="-26.789603421303713" lon="115.27978926963154"><ele>264.0</ele><time>2026-04-15T07:24:26Z</time></trkpt><trkpt lat="-26.78953092801928" lon="115.2794923054958"><ele>264.0</ele><time>2026-04-15T07:24:27Z</time></trkpt><trkpt lat="-26.789457550668434" lon="115.2791937812818"><ele>264.0</ele><time>2026-04-15T07:24:28Z</time></trkpt><trkpt lat="-26.789381729678997" lon="115.2788921415883"><ele>264.0</ele><time>2026-04-15T07:24:29Z</time></trkpt><trkpt lat="-26.789305077541183" lon="115.27858533171515"><ele>264.0</ele><time>2026-04-15T07:24:30Z</time></trkpt><trkpt lat="-26.78923045645454" lon="115.27827750223118"><ele>263.5</ele><time>2026-04-15T07:24:31Z</time></trkpt><trkpt lat="-26.789158167692154" lon="115.27796177147013"><ele>263.0</ele><time>2026-04-15T07:24:32Z</time></trkpt><trkpt lat="-26.789087508149134" lon="115.27763946923287"><ele>263.0</ele><time>2026-04-15T07:24:33Z</time></trkpt><trkpt lat="-26.789015214987874" lon="115.2773224637997"><ele>263.0</ele><time>2026-04-15T07:24:34Z</time></trkpt><trkpt lat="-26.7889401306781" lon="115.27700968575404"><ele>263.0</ele><time>2026-04-15T07:24:35Z</time></trkpt><trkpt lat="-26.788864639036046" lon="115.2766971294247"><ele>263.0</ele><time>2026-04-15T07:24:36Z</time></trkpt><trkpt lat="-26.78878932980572" lon="115.27638486514378"><ele>263.0</ele><time>2026-04-15T07:24:37Z</time></trkpt><trkpt lat="-26.788711663331487" lon="115.27607494549494"><ele>263.0</ele><time>2026-04-15T07:24:38Z</time></trkpt><trkpt lat="-26.788635196399564" lon="115.27576009827716"><ele>263.0</ele><time>2026-04-15T07:24:39Z</time></trkpt><trkpt lat="-26.788560193399466" lon="115.27544885423293"><ele>263.0</ele><time>2026-04-15T07:24:40Z</time></trkpt><trkpt lat="-26.788489262472634" lon="115.27513898378217"><ele>263.0</ele><time>2026-04-15T07:24:41Z</time></trkpt><trkpt lat="-26.78841661595304" lon="115.2748303220407"><ele>263.0</ele><time>2026-04-15T07:24:42Z</time></trkpt><trkpt lat="-26.788340886673428" lon="115.27452419993853"><ele>263.0</ele><time>2026-04-15T07:24:43Z</time></trkpt><trkpt lat="-26.788264155606743" lon="115.27421527252922"><ele>263.0</ele><time>2026-04-15T07:24:44Z</time></trkpt><trkpt lat="-26.78818612616406" lon="115.27390633866648"><ele>262.0</ele><time>2026-04-15T07:24:45Z</time></trkpt><trkpt lat="-26.788108519572205" lon="115.27359661085406"><ele>261.0</ele><time>2026-04-15T07:24:46Z</time></trkpt><trkpt lat="-26.7880273263494" lon="115.2732847210171"><ele>260.5</ele><time>2026-04-15T07:24:47Z</time></trkpt><trkpt lat="-26.787947489180215" lon="115.27297127030091"><ele>260.0</ele><time>2026-04-15T07:24:48Z</time></trkpt><trkpt lat="-26.78787079143647" lon="115.2726573203505"><ele>260.0</ele><time>2026-04-15T07:24:49Z</time></trkpt><trkpt lat="-26.787797542421025" lon="115.27234109033068"><ele>260.0</ele><time>2026-04-15T07:24:50Z</time></trkpt><trkpt lat="-26.78772385871996" lon="115.27202233450235"><ele>260.0</ele><time>2026-04-15T07:24:51Z</time></trkpt><trkpt lat="-26.787651962725167" lon="115.27170242384089"><ele>260.0</ele><time>2026-04-15T07:24:52Z</time></trkpt><trkpt lat="-26.78757728973458" lon="115.27138558405387"><ele>259.5</ele><time>2026-04-15T07:24:53Z</time></trkpt><trkpt lat="-26.78750159732584" lon="115.27107111957982"><ele>259.0</ele><time>2026-04-15T07:24:54Z</time></trkpt><trkpt lat="-26.787425157497086" lon="115.27075405495498"><ele>259.0</ele><time>2026-04-15T07:24:55Z</time></trkpt><trkpt lat="-26.787349685908104" lon="115.2704391930297"><ele>259.0</ele><time>2026-04-15T07:24:56Z</time></trkpt><trkpt lat="-26.78727508057694" lon="115.27012725314964"><ele>259.0</ele><time>2026-04-15T07:24:57Z</time></trkpt><trkpt lat="-26.78719819514333" lon="115.26981335699483"><ele>259.0</ele><time>2026-04-15T07:24:58Z</time></trkpt><trkpt lat="-26.78712027966342" lon="115.26949758717693"><ele>259.0</ele><time>2026-04-15T07:24:59Z</time></trkpt><trkpt lat="-26.78704437263835" lon="115.26918222672946"><ele>259.0</ele><time>2026-04-15T07:25:00Z</time></trkpt><trkpt lat="-26.786968655106996" lon="115.26886689447267"><ele>259.5</ele><time>2026-04-15T07:25:01Z</time></trkpt><trkpt lat="-26.78689252764913" lon="115.26854993561695"><ele>260.0</ele><time>2026-04-15T07:25:02Z</time></trkpt><trkpt lat="-26.786815492520738" lon="115.26822945045707"><ele>260.0</ele><time>2026-04-15T07:25:03Z</time></trkpt><trkpt lat="-26.78673926527341" lon="115.26790908568297"><ele>260.0</ele><time>2026-04-15T07:25:04Z</time></trkpt><trkpt lat="-26.786662719149934" lon="115.26758638672639"><ele>259.0</ele><time>2026-04-15T07:25:05Z</time></trkpt><trkpt lat="-26.786586940965805" lon="115.26726766989592"><ele>258.0</ele><time>2026-04-15T07:25:06Z</time></trkpt><trkpt lat="-26.786507760092352" lon="115.26694712594573"><ele>258.0</ele><time>2026-04-15T07:25:07Z</time></trkpt><trkpt lat="-26.78642876492798" lon="115.26662826951451"><ele>258.0</ele><time>2026-04-15T07:25:08Z</time></trkpt><trkpt lat="-26.78635094053796" lon="115.26630026403834"><ele>258.5</ele><time>2026-04-15T07:25:09Z</time></trkpt><trkpt lat="-26.786274492588603" lon="115.26597852307302"><ele>259.0</ele><time>2026-04-15T07:25:10Z</time></trkpt><trkpt lat="-26.78619586507339" lon="115.26565749609595"><ele>259.0</ele><time>2026-04-15T07:25:11Z</time></trkpt><trkpt lat="-26.78611741982049" lon="115.26534476760463"><ele>259.0</ele><time>2026-04-15T07:25:12Z</time></trkpt><trkpt lat="-26.78603790367956" lon="115.26503236951812"><ele>258.5</ele><time>2026-04-15T07:25:13Z</time></trkpt><trkpt lat="-26.78596020148843" lon="115.26471862361586"><ele>258.0</ele><time>2026-04-15T07:25:14Z</time></trkpt><trkpt lat="-26.785884237036232" lon="115.26440356561667"><ele>258.0</ele><time>2026-04-15T07:25:15Z</time></trkpt><trkpt lat="-26.78581169836776" lon="115.2640857095092"><ele>258.0</ele><time>2026-04-15T07:25:16Z</time></trkpt><trkpt lat="-26.785740598767113" lon="115.26376567989752"><ele>258.5</ele><time>2026-04-15T07:25:17Z</time></trkpt><trkpt lat="-26.785666488496965" lon="115.26344742921162"><ele>259.0</ele><time>2026-04-15T07:25:18Z</time></trkpt><trkpt lat="-26.785591594975035" lon="115.26313353513609"><ele>258.5</ele><time>2026-04-15T07:25:19Z</time></trkpt><trkpt lat="-26.78551507200558" lon="115.26282128967476"><ele>258.0</ele><time>2026-04-15T07:25:20Z</time></trkpt><trkpt lat="-26.785438753683028" lon="115.26251179013774"><ele>257.0</ele><time>2026-04-15T07:25:21Z</time></trkpt><trkpt lat="-26.785364699082418" lon="115.26220480725952"><ele>256.0</ele><time>2026-04-15T07:25:22Z</time></trkpt><trkpt lat="-26.78529063813942" lon="115.26189837175295"><ele>256.0</ele><time>2026-04-15T07:25:23Z</time></trkpt><trkpt lat="-26.785218409835238" lon="115.2615890997736"><ele>256.0</ele><time>2026-04-15T07:25:24Z</time></trkpt><trkpt lat="-26.785144697539234" lon="115.26127897868085"><ele>255.5</ele><time>2026-04-15T07:25:25Z</time></trkpt><trkpt lat="-26.78506763568293" lon="115.26096986682855"><ele>255.0</ele><time>2026-04-15T07:25:26Z</time></trkpt><trkpt lat="-26.784988105913765" lon="115.26065593234128"><ele>255.0</ele><time>2026-04-15T07:25:27Z</time></trkpt><trkpt lat="-26.784910938464314" lon="115.26034190384291"><ele>255.0</ele><time>2026-04-15T07:25:28Z</time></trkpt><trkpt lat="-26.784833816739432" lon="115.26002852443432"><ele>255.0</ele><time>2026-04-15T07:25:29Z</time></trkpt><trkpt lat="-26.784758750586242" lon="115.25971443573792"><ele>255.0</ele><time>2026-04-15T07:25:30Z</time></trkpt><trkpt lat="-26.78468603932684" lon="115.2593994995057"><ele>255.0</ele><time>2026-04-15T07:25:31Z</time></trkpt><trkpt lat="-26.784611979474594" lon="115.25908898666034"><ele>255.0</ele><time>2026-04-15T07:25:32Z</time></trkpt><trkpt lat="-26.784538979453366" lon="115.25877641465524"><ele>254.5</ele><time>2026-04-15T07:25:33Z</time></trkpt><trkpt lat="-26.784467969718673" lon="115.25846422071446"><ele>254.0</ele><time>2026-04-15T07:25:34Z</time></trkpt><trkpt lat="-26.784396215397532" lon="115.2581625820456"><ele>254.5</ele><time>2026-04-15T07:25:35Z</time></trkpt><trkpt lat="-26.784322007898535" lon="115.25786155997532"><ele>255.0</ele><time>2026-04-15T07:25:36Z</time></trkpt><trkpt lat="-26.78424215710072" lon="115.25755813001804"><ele>254.5</ele><time>2026-04-15T07:25:37Z</time></trkpt><trkpt lat="-26.784159270589747" lon="115.25725002468911"><ele>254.0</ele><time>2026-04-15T07:25:38Z</time></trkpt><trkpt lat="-26.784080338798212" lon="115.25694524532523"><ele>254.0</ele><time>2026-04-15T07:25:39Z</time></trkpt><trkpt lat="-26.784009534580985" lon="115.25663821623387"><ele>254.0</ele><time>2026-04-15T07:25:40Z</time></trkpt><trkpt lat="-26.783939210783902" lon="115.25633072663486"><ele>253.0</ele><time>2026-04-15T07:25:41Z</time></trkpt><trkpt lat="-26.783867630810555" lon="115.25602119522743"><ele>252.0</ele><time>2026-04-15T07:25:42Z</time></trkpt><trkpt lat="-26.783793825040938" lon="115.25571054221327"><ele>251.5</ele><time>2026-04-15T07:25:43Z</time></trkpt><trkpt lat="-26.78371788728561" lon="115.25540003720567"><ele>251.0</ele><time>2026-04-15T07:25:44Z</time></trkpt><trkpt lat="-26.783639536778068" lon="115.25509027673355"><ele>250.5</ele><time>2026-04-15T07:25:45Z</time></trkpt><trkpt lat="-26.78356635626302" lon="115.2547836674753"><ele>250.0</ele><time>2026-04-15T07:25:46Z</time></trkpt><trkpt lat="-26.783496142368023" lon="115.25447090687618"><ele>250.5</ele><time>2026-04-15T07:25:47Z</time></trkpt><trkpt lat="-26.783426879087763" lon="115.25416144818122"><ele>251.0</ele><time>2026-04-15T07:25:48Z</time></trkpt><trkpt lat="-26.7833541928999" lon="115.2538489577123"><ele>251.0</ele><time>2026-04-15T07:25:49Z</time></trkpt><trkpt lat="-26.78327858269733" lon="115.25353356243808"><ele>251.0</ele><time>2026-04-15T07:25:50Z</time></trkpt><trkpt lat="-26.78320094732778" lon="115.25321417670517"><ele>251.5</ele><time>2026-04-15T07:25:51Z</time></trkpt><trkpt lat="-26.783122758497736" lon="115.252890294337"><ele>252.0</ele><time>2026-04-15T07:25:52Z</time></trkpt><trkpt lat="-26.783044397073255" lon="115.25256020164115"><ele>252.0</ele><time>2026-04-15T07:25:53Z</time></trkpt><trkpt lat="-26.78296639116952" lon="115.25223637738495"><ele>252.0</ele><time>2026-04-15T07:25:54Z</time></trkpt><trkpt lat="-26.782888482786877" lon="115.25191037717529"><ele>252.0</ele><time>2026-04-15T07:25:55Z</time></trkpt><trkpt lat="-26.782811130690583" lon="115.25158908222714"><ele>252.0</ele><time>2026-04-15T07:25:56Z</time></trkpt><trkpt lat="-26.782733075985252" lon="115.25126752804613"><ele>251.5</ele><time>2026-04-15T07:25:57Z</time></trkpt><trkpt lat="-26.782658445923985" lon="115.2509501392281"><ele>251.0</ele><time>2026-04-15T07:25:58Z</time></trkpt><trkpt lat="-26.78258486418243" lon="115.25063463797784"><ele>251.5</ele><time>2026-04-15T07:25:59Z</time></trkpt><trkpt lat="-26.7825106043897" lon="115.25032445668859"><ele>252.0</ele><time>2026-04-15T07:26:00Z</time></trkpt><trkpt lat="-26.78243408122894" lon="115.25001171464089"><ele>251.0</ele><time>2026-04-15T07:26:01Z</time></trkpt><trkpt lat="-26.782357437213417" lon="115.2497001500581"><ele>250.0</ele><time>2026-04-15T07:26:02Z</time></trkpt><trkpt lat="-26.782282576449216" lon="115.24938969810036"><ele>250.0</ele><time>2026-04-15T07:26:03Z</time></trkpt><trkpt lat="-26.782208043898486" lon="115.24908332809615"><ele>250.0</ele><time>2026-04-15T07:26:04Z</time></trkpt><trkpt lat="-26.782134712955457" lon="115.2487745618523"><ele>250.0</ele><time>2026-04-15T07:26:05Z</time></trkpt><trkpt lat="-26.782058912739576" lon="115.24846907377469"><ele>250.0</ele><time>2026-04-15T07:26:06Z</time></trkpt><trkpt lat="-26.781986120380257" lon="115.24817189363671"><ele>250.0</ele><time>2026-04-15T07:26:07Z</time></trkpt><trkpt lat="-26.781915282766647" lon="115.24787106821161"><ele>250.0</ele><time>2026-04-15T07:26:08Z</time></trkpt><trkpt lat="-26.781845410997626" lon="115.24756992527436"><ele>249.0</ele><time>2026-04-15T07:26:09Z</time></trkpt><trkpt lat="-26.78177306014921" lon="115.24726447552068"><ele>248.0</ele><time>2026-04-15T07:26:10Z</time></trkpt><trkpt lat="-26.781702068472917" lon="115.24696175169973"><ele>248.0</ele><time>2026-04-15T07:26:11Z</time></trkpt><trkpt lat="-26.78162950540733" lon="115.24666625453575"><ele>248.0</ele><time>2026-04-15T07:26:12Z</time></trkpt><trkpt lat="-26.781554802486056" lon="115.24637040806654"><ele>248.5</ele><time>2026-04-15T07:26:13Z</time></trkpt><trkpt lat="-26.781481120937404" lon="115.24607407994246"><ele>249.0</ele><time>2026-04-15T07:26:14Z</time></trkpt><trkpt lat="-26.78141192827695" lon="115.24577830264624"><ele>249.0</ele><time>2026-04-15T07:26:15Z</time></trkpt><trkpt lat="-26.781343303115303" lon="115.24548346573464"><ele>249.0</ele><time>2026-04-15T07:26:16Z</time></trkpt><trkpt lat="-26.78126970117384" lon="115.24518649715698"><ele>249.0</ele><time>2026-04-15T07:26:17Z</time></trkpt><trkpt lat="-26.781194052903402" lon="115.24488550784628"><ele>249.0</ele><time>2026-04-15T07:26:18Z</time></trkpt><trkpt lat="-26.781119264078583" lon="115.24457997791117"><ele>249.0</ele><time>2026-04-15T07:26:19Z</time></trkpt><trkpt lat="-26.781044969088825" lon="115.24427412929688"><ele>249.0</ele><time>2026-04-15T07:26:20Z</time></trkpt><trkpt lat="-26.780969312108915" lon="115.2439677031239"><ele>249.0</ele><time>2026-04-15T07:26:21Z</time></trkpt><trkpt lat="-26.780895346451814" lon="115.24366212716181"><ele>249.0</ele><time>2026-04-15T07:26:22Z</time></trkpt><trkpt lat="-26.78082440243726" lon="115.24335545162673"><ele>249.0</ele><time>2026-04-15T07:26:23Z</time></trkpt><trkpt lat="-26.78075008752824" lon="115.24304580758339"><ele>249.0</ele><time>2026-04-15T07:26:24Z</time></trkpt><trkpt lat="-26.78067592101279" lon="115.24274139200938"><ele>249.0</ele><time>2026-04-15T07:26:25Z</time></trkpt><trkpt lat="-26.78060007503257" lon="115.24243554730806"><ele>249.0</ele><time>2026-04-15T07:26:26Z</time></trkpt><trkpt lat="-26.780522258370393" lon="115.24212977849801"><ele>249.0</ele><time>2026-04-15T07:26:27Z</time></trkpt><trkpt lat="-26.78044619531315" lon="115.2418228631145"><ele>249.0</ele><time>2026-04-15T07:26:28Z</time></trkpt><trkpt lat="-26.78037146355142" lon="115.24151649050333"><ele>249.5</ele><time>2026-04-15T07:26:29Z</time></trkpt><trkpt lat="-26.78029626657887" lon="115.24120945322429"><ele>250.0</ele><time>2026-04-15T07:26:30Z</time></trkpt><trkpt lat="-26.780220718256448" lon="115.24089800137843"><ele>249.0</ele><time>2026-04-15T07:26:31Z</time></trkpt><trkpt lat="-26.780146086644212" lon="115.24058717969568"><ele>248.0</ele><time>2026-04-15T07:26:32Z</time></trkpt><trkpt lat="-26.78007256669957" lon="115.24027696520848"><ele>248.0</ele><time>2026-04-15T07:26:33Z</time></trkpt><trkpt lat="-26.77999991239817" lon="115.23997666669322"><ele>248.0</ele><time>2026-04-15T07:26:34Z</time></trkpt><trkpt lat="-26.779922316763976" lon="115.2396636953092"><ele>248.0</ele><time>2026-04-15T07:26:35Z</time></trkpt><trkpt lat="-26.779843930585447" lon="115.2393372853806"><ele>248.0</ele><time>2026-04-15T07:26:36Z</time></trkpt><trkpt lat="-26.779787529491166" lon="115.2390755332122"><ele>248.5</ele><time>2026-04-15T07:26:37Z</time></trkpt><trkpt lat="-26.779713554722765" lon="115.23877555675642"><ele>249.0</ele><time>2026-04-15T07:26:38Z</time></trkpt><trkpt lat="-26.779643412573947" lon="115.23847389280002"><ele>249.0</ele><time>2026-04-15T07:26:39Z</time></trkpt><trkpt lat="-26.779567610741527" lon="115.23817453219078"><ele>249.0</ele><time>2026-04-15T07:26:40Z</time></trkpt><trkpt lat="-26.779489001768514" lon="115.23787039791773"><ele>249.0</ele><time>2026-04-15T07:26:41Z</time></trkpt><trkpt lat="-26.779415325512712" lon="115.23756673288132"><ele>249.0</ele><time>2026-04-15T07:26:42Z</time></trkpt><trkpt lat="-26.779341334897527" lon="115.23726434155127"><ele>249.0</ele><time>2026-04-15T07:26:43Z</time></trkpt><trkpt lat="-26.779270323500384" lon="115.23696433080731"><ele>249.0</ele><time>2026-04-15T07:26:44Z</time></trkpt><trkpt lat="-26.779201226191407" lon="115.23665934641966"><ele>249.0</ele><time>2026-04-15T07:26:45Z</time></trkpt><trkpt lat="-26.779129332635716" lon="115.23636023148315"><ele>249.0</ele><time>2026-04-15T07:26:46Z</time></trkpt><trkpt lat="-26.77905914632227" lon="115.23605437972546"><ele>249.0</ele><time>2026-04-15T07:26:47Z</time></trkpt><trkpt lat="-26.778985276495366" lon="115.23574578195665"><ele>249.0</ele><time>2026-04-15T07:26:48Z</time></trkpt><trkpt lat="-26.77891276222553" lon="115.235445338617"><ele>249.0</ele><time>2026-04-15T07:26:49Z</time></trkpt><trkpt lat="-26.778837745658887" lon="115.23514330477583"><ele>249.0</ele><time>2026-04-15T07:26:50Z</time></trkpt><trkpt lat="-26.778759410854555" lon="115.23484347566287"><ele>249.0</ele><time>2026-04-15T07:26:51Z</time></trkpt><trkpt lat="-26.778689907246605" lon="115.23454157532471"><ele>249.0</ele><time>2026-04-15T07:26:52Z</time></trkpt><trkpt lat="-26.778621421957116" lon="115.2342392515199"><ele>248.0</ele><time>2026-04-15T07:26:53Z</time></trkpt><trkpt lat="-26.778548912951543" lon="115.23393912916687"><ele>247.0</ele><time>2026-04-15T07:26:54Z</time></trkpt><trkpt lat="-26.77847846024052" lon="115.23363570788214"><ele>247.0</ele><time>2026-04-15T07:26:55Z</time></trkpt><trkpt lat="-26.778404726030022" lon="115.2333291361701"><ele>247.0</ele><time>2026-04-15T07:26:56Z</time></trkpt><trkpt lat="-26.778330451751987" lon="115.2330164544556"><ele>246.5</ele><time>2026-04-15T07:26:57Z</time></trkpt><trkpt lat="-26.778251564334724" lon="115.23270648321538"><ele>246.0</ele><time>2026-04-15T07:26:58Z</time></trkpt><trkpt lat="-26.778176831847617" lon="115.23239527935627"><ele>246.5</ele><time>2026-04-15T07:26:59Z</time></trkpt><trkpt lat="-26.778101044117467" lon="115.23207761456858"><ele>247.0</ele><time>2026-04-15T07:27:00Z</time></trkpt><trkpt lat="-26.778024874674927" lon="115.23176346787658"><ele>246.0</ele><time>2026-04-15T07:27:01Z</time></trkpt><trkpt lat="-26.77794820950729" lon="115.23144662315816"><ele>245.0</ele><time>2026-04-15T07:27:02Z</time></trkpt><trkpt lat="-26.777867928528405" lon="115.23112925946491"><ele>245.0</ele><time>2026-04-15T07:27:03Z</time></trkpt><trkpt lat="-26.777784789458227" lon="115.23081185128073"><ele>245.0</ele><time>2026-04-15T07:27:04Z</time></trkpt><trkpt lat="-26.777707774758287" lon="115.23049109039023"><ele>245.5</ele><time>2026-04-15T07:27:05Z</time></trkpt><trkpt lat="-26.77763162051683" lon="115.23017105357789"><ele>246.0</ele><time>2026-04-15T07:27:06Z</time></trkpt><trkpt lat="-26.77755442903249" lon="115.22985579709132"><ele>245.5</ele><time>2026-04-15T07:27:07Z</time></trkpt><trkpt lat="-26.777477630459952" lon="115.22953589740814"><ele>245.0</ele><time>2026-04-15T07:27:08Z</time></trkpt><trkpt lat="-26.77740117394656" lon="115.22921261121726"><ele>244.5</ele><time>2026-04-15T07:27:09Z</time></trkpt><trkpt lat="-26.777323144133273" lon="115.22888768409261"><ele>244.0</ele><time>2026-04-15T07:27:10Z</time></trkpt><trkpt lat="-26.777244506678784" lon="115.22856600426448"><ele>244.0</ele><time>2026-04-15T07:27:11Z</time></trkpt><trkpt lat="-26.777169072404913" lon="115.22824906635485"><ele>244.0</ele><time>2026-04-15T07:27:12Z</time></trkpt><trkpt lat="-26.77709821509219" lon="115.22793538310914"><ele>243.5</ele><time>2026-04-15T07:27:13Z</time></trkpt><trkpt lat="-26.77702342445928" lon="115.2276265931675"><ele>243.0</ele><time>2026-04-15T07:27:14Z</time></trkpt><trkpt lat="-26.77694615173167" lon="115.22731270990964"><ele>243.0</ele><time>2026-04-15T07:27:15Z</time></trkpt><trkpt lat="-26.776868499888174" lon="115.22699383718373"><ele>243.0</ele><time>2026-04-15T07:27:16Z</time></trkpt><trkpt lat="-26.776793739442166" lon="115.22668120535606"><ele>243.5</ele><time>2026-04-15T07:27:17Z</time></trkpt><trkpt lat="-26.776715513376793" lon="115.22636320258736"><ele>244.0</ele><time>2026-04-15T07:27:18Z</time></trkpt><trkpt lat="-26.776638242585218" lon="115.22604819018896"><ele>244.0</ele><time>2026-04-15T07:27:19Z</time></trkpt><trkpt lat="-26.776561750093517" lon="115.22573292855381"><ele>244.0</ele><time>2026-04-15T07:27:20Z</time></trkpt><trkpt lat="-26.776488852367923" lon="115.22541125035885"><ele>242.5</ele><time>2026-04-15T07:27:21Z</time></trkpt><trkpt lat="-26.77640904821922" lon="115.22508907924508"><ele>241.0</ele><time>2026-04-15T07:27:22Z</time></trkpt><trkpt lat="-26.77633184866199" lon="115.22477403742897"><ele>240.5</ele><time>2026-04-15T07:27:23Z</time></trkpt><trkpt lat="-26.77625438692635" lon="115.22445965870595"><ele>240.0</ele><time>2026-04-15T07:27:24Z</time></trkpt><trkpt lat="-26.776178944982544" lon="115.22414638426955"><ele>240.5</ele><time>2026-04-15T07:27:25Z</time></trkpt><trkpt lat="-26.776105066651994" lon="115.22383611895296"><ele>241.0</ele><time>2026-04-15T07:27:26Z</time></trkpt><trkpt lat="-26.776032810256176" lon="115.22352602986524"><ele>240.5</ele><time>2026-04-15T07:27:27Z</time></trkpt><trkpt lat="-26.775960251755226" lon="115.22321227742053"><ele>240.0</ele><time>2026-04-15T07:27:28Z</time></trkpt><trkpt lat="-26.775884160757176" lon="115.22290226875579"><ele>239.5</ele><time>2026-04-15T07:27:29Z</time></trkpt><trkpt lat="-26.775811194503994" lon="115.22259256496817"><ele>239.0</ele><time>2026-04-15T07:27:30Z</time></trkpt><trkpt lat="-26.77573787575354" lon="115.22228337335885"><ele>238.5</ele><time>2026-04-15T07:27:31Z</time></trkpt><trkpt lat="-26.77566347292451" lon="115.221975076262"><ele>238.0</ele><time>2026-04-15T07:27:32Z</time></trkpt><trkpt lat="-26.775591953443517" lon="115.22167000910814"><ele>238.5</ele><time>2026-04-15T07:27:33Z</time></trkpt><trkpt lat="-26.775513504258218" lon="115.22136185487702"><ele>239.0</ele><time>2026-04-15T07:27:34Z</time></trkpt><trkpt lat="-26.775439752077407" lon="115.22105261708849"><ele>239.0</ele><time>2026-04-15T07:27:35Z</time></trkpt><trkpt lat="-26.77536744028945" lon="115.22074942285593"><ele>239.0</ele><time>2026-04-15T07:27:36Z</time></trkpt><trkpt lat="-26.775294010289894" lon="115.22044841298657"><ele>238.5</ele><time>2026-04-15T07:27:37Z</time></trkpt><trkpt lat="-26.775221744454203" lon="115.22014604134215"><ele>238.0</ele><time>2026-04-15T07:27:38Z</time></trkpt><trkpt lat="-26.775146586105496" lon="115.21984247744778"><ele>238.0</ele><time>2026-04-15T07:27:39Z</time></trkpt><trkpt lat="-26.77507035676611" lon="115.21953321474764"><ele>238.0</ele><time>2026-04-15T07:27:40Z</time></trkpt><trkpt lat="-26.77499692789194" lon="115.21923006054254"><ele>238.0</ele><time>2026-04-15T07:27:41Z</time></trkpt><trkpt lat="-26.77492390853051" lon="115.21892386782878"><ele>238.0</ele><time>2026-04-15T07:27:42Z</time></trkpt><trkpt lat="-26.774851824512126" lon="115.21861506897791"><ele>238.0</ele><time>2026-04-15T07:27:43Z</time></trkpt><trkpt lat="-26.77477935672297" lon="115.21830462712154"><ele>238.0</ele><time>2026-04-15T07:27:44Z</time></trkpt><trkpt lat="-26.7747047140921" lon="115.2180028236095"><ele>238.0</ele><time>2026-04-15T07:27:45Z</time></trkpt><trkpt lat="-26.774631262440973" lon="115.2176972888604"><ele>238.0</ele><time>2026-04-15T07:27:46Z</time></trkpt><trkpt lat="-26.774556980115477" lon="115.21739136928394"><ele>237.5</ele><time>2026-04-15T07:27:47Z</time></trkpt><trkpt lat="-26.774485709553677" lon="115.21708835704439"><ele>237.0</ele><time>2026-04-15T07:27:48Z</time></trkpt><trkpt lat="-26.774414395072245" lon="115.21678454093487"><ele>237.0</ele><time>2026-04-15T07:27:49Z</time></trkpt><trkpt lat="-26.774340148917812" lon="115.21647510655102"><ele>237.0</ele><time>2026-04-15T07:27:50Z</time></trkpt><trkpt lat="-26.774262873083444" lon="115.21617562963085"><ele>237.0</ele><time>2026-04-15T07:27:51Z</time></trkpt><trkpt lat="-26.77418891479627" lon="115.21587816941597"><ele>237.0</ele><time>2026-04-15T07:27:52Z</time></trkpt><trkpt lat="-26.77411556779005" lon="115.21558196255039"><ele>236.5</ele><time>2026-04-15T07:27:53Z</time></trkpt><trkpt lat="-26.774042774044847" lon="115.2152803413828"><ele>236.0</ele><time>2026-04-15T07:27:54Z</time></trkpt><trkpt lat="-26.773972320500885" lon="115.21497696771904"><ele>237.0</ele><time>2026-04-15T07:27:55Z</time></trkpt><trkpt lat="-26.773898571479997" lon="115.21467175925117"><ele>238.0</ele><time>2026-04-15T07:27:56Z</time></trkpt><trkpt lat="-26.773817881301895" lon="115.21435879846308"><ele>238.0</ele><time>2026-04-15T07:27:57Z</time></trkpt><trkpt lat="-26.77374200432651" lon="115.21405478265386"><ele>238.0</ele><time>2026-04-15T07:27:58Z</time></trkpt><trkpt lat="-26.773667489528133" lon="115.21375529337311"><ele>238.0</ele><time>2026-04-15T07:27:59Z</time></trkpt><trkpt lat="-26.773592640954156" lon="115.21345751129057"><ele>238.0</ele><time>2026-04-15T07:28:00Z</time></trkpt><trkpt lat="-26.77351368614914" lon="115.21316230186984"><ele>237.5</ele><time>2026-04-15T07:28:01Z</time></trkpt><trkpt lat="-26.773435516338548" lon="115.21286108808027"><ele>237.0</ele><time>2026-04-15T07:28:02Z</time></trkpt><trkpt lat="-26.773357610346583" lon="115.21256262545408"><ele>236.5</ele><time>2026-04-15T07:28:03Z</time></trkpt><trkpt lat="-26.773284856914437" lon="115.21226455884998"><ele>236.0</ele><time>2026-04-15T07:28:04Z</time></trkpt><trkpt lat="-26.77321979018929" lon="115.21196707991187"><ele>236.0</ele><time>2026-04-15T07:28:05Z</time></trkpt><trkpt lat="-26.773153617018433" lon="115.21166737605725"><ele>236.0</ele><time>2026-04-15T07:28:06Z</time></trkpt><trkpt lat="-26.77309091377736" lon="115.21136401670705"><ele>236.0</ele><time>2026-04-15T07:28:07Z</time></trkpt><trkpt lat="-26.77302489416775" lon="115.21106250490007"><ele>236.0</ele><time>2026-04-15T07:28:08Z</time></trkpt><trkpt lat="-26.772959443059875" lon="115.21076454746988"><ele>236.0</ele><time>2026-04-15T07:28:09Z</time></trkpt><trkpt lat="-26.772888843140638" lon="115.2104638328068"><ele>236.0</ele><time>2026-04-15T07:28:10Z</time></trkpt><trkpt lat="-26.77281824632323" lon="115.21016272244522"><ele>236.0</ele><time>2026-04-15T07:28:11Z</time></trkpt><trkpt lat="-26.77274624670156" lon="115.20986343204001"><ele>236.0</ele><time>2026-04-15T07:28:12Z</time></trkpt><trkpt lat="-26.77267247236491" lon="115.20956759990798"><ele>235.0</ele><time>2026-04-15T07:28:13Z</time></trkpt><trkpt lat="-26.77259481326721" lon="115.20927097127087"><ele>234.0</ele><time>2026-04-15T07:28:14Z</time></trkpt><trkpt lat="-26.77252277768365" lon="115.20897383260079"><ele>233.5</ele><time>2026-04-15T07:28:15Z</time></trkpt><trkpt lat="-26.772451152526394" lon="115.20867350349702"><ele>233.0</ele><time>2026-04-15T07:28:16Z</time></trkpt><trkpt lat="-26.77237912556256" lon="115.20837357678836"><ele>232.0</ele><time>2026-04-15T07:28:17Z</time></trkpt><trkpt lat="-26.77230738366752" lon="115.20806636987105"><ele>231.0</ele><time>2026-04-15T07:28:18Z</time></trkpt><trkpt lat="-26.772235740007858" lon="115.20775791690289"><ele>231.0</ele><time>2026-04-15T07:28:19Z</time></trkpt><trkpt lat="-26.77215902517673" lon="115.20745045721306"><ele>231.0</ele><time>2026-04-15T07:28:20Z</time></trkpt><trkpt lat="-26.772082850325493" lon="115.20713907037796"><ele>230.0</ele><time>2026-04-15T07:28:21Z</time></trkpt><trkpt lat="-26.772009750128714" lon="115.20682845077937"><ele>229.0</ele><time>2026-04-15T07:28:22Z</time></trkpt><trkpt lat="-26.771937258224796" lon="115.2065159435647"><ele>229.0</ele><time>2026-04-15T07:28:23Z</time></trkpt><trkpt lat="-26.771859950101316" lon="115.20620335876956"><ele>229.0</ele><time>2026-04-15T07:28:24Z</time></trkpt><trkpt lat="-26.77178672336607" lon="115.20589492238109"><ele>229.5</ele><time>2026-04-15T07:28:25Z</time></trkpt><trkpt lat="-26.771715688672746" lon="115.20558372644281"><ele>230.0</ele><time>2026-04-15T07:28:26Z</time></trkpt><trkpt lat="-26.771637475088102" lon="115.20527173147522"><ele>230.0</ele><time>2026-04-15T07:28:27Z</time></trkpt><trkpt lat="-26.771562413243657" lon="115.20495913178442"><ele>230.0</ele><time>2026-04-15T07:28:28Z</time></trkpt><trkpt lat="-26.77149314059791" lon="115.20464337994471"><ele>229.0</ele><time>2026-04-15T07:28:29Z</time></trkpt><trkpt lat="-26.771414167413223" lon="115.20433242759056"><ele>228.0</ele><time>2026-04-15T07:28:30Z</time></trkpt><trkpt lat="-26.771338029554013" lon="115.20402278295542"><ele>227.5</ele><time>2026-04-15T07:28:31Z</time></trkpt><trkpt lat="-26.77126463441846" lon="115.20371403053349"><ele>227.0</ele><time>2026-04-15T07:28:32Z</time></trkpt><trkpt lat="-26.771188199871172" lon="115.20340722786203"><ele>227.0</ele><time>2026-04-15T07:28:33Z</time></trkpt><trkpt lat="-26.771117889548734" lon="115.20310068413824"><ele>227.0</ele><time>2026-04-15T07:28:34Z</time></trkpt><trkpt lat="-26.771043360698847" lon="115.20279104905052"><ele>227.5</ele><time>2026-04-15T07:28:35Z</time></trkpt><trkpt lat="-26.770968070259105" lon="115.20248233530789"><ele>228.0</ele><time>2026-04-15T07:28:36Z</time></trkpt><trkpt lat="-26.770893142056345" lon="115.20217678671915"><ele>228.0</ele><time>2026-04-15T07:28:37Z</time></trkpt><trkpt lat="-26.770819575671545" lon="115.20187650617915"><ele>228.0</ele><time>2026-04-15T07:28:38Z</time></trkpt><trkpt lat="-26.770745271355192" lon="115.20157808472587"><ele>228.0</ele><time>2026-04-15T07:28:39Z</time></trkpt><trkpt lat="-26.77067734913126" lon="115.20128340103679"><ele>228.0</ele><time>2026-04-15T07:28:40Z</time></trkpt><trkpt lat="-26.77060379824829" lon="115.20098565712735"><ele>228.0</ele><time>2026-04-15T07:28:41Z</time></trkpt><trkpt lat="-26.770530947441888" lon="115.20068706992794"><ele>228.0</ele><time>2026-04-15T07:28:42Z</time></trkpt><trkpt lat="-26.770461324166536" lon="115.20038269776815"><ele>227.0</ele><time>2026-04-15T07:28:43Z</time></trkpt><trkpt lat="-26.77038187585259" lon="115.20008129207667"><ele>226.0</ele><time>2026-04-15T07:28:44Z</time></trkpt><trkpt lat="-26.770309515656482" lon="115.19977963564429"><ele>226.0</ele><time>2026-04-15T07:28:45Z</time></trkpt><trkpt lat="-26.770235630146352" lon="115.19947613059746"><ele>226.0</ele><time>2026-04-15T07:28:46Z</time></trkpt><trkpt lat="-26.770168751639055" lon="115.19916912241455"><ele>226.5</ele><time>2026-04-15T07:28:47Z</time></trkpt><trkpt lat="-26.77009512897411" lon="115.19886719799734"><ele>227.0</ele><time>2026-04-15T07:28:48Z</time></trkpt><trkpt lat="-26.770023245067325" lon="115.19856446562865"><ele>227.0</ele><time>2026-04-15T07:28:49Z</time></trkpt><trkpt lat="-26.76995016264756" lon="115.19826586608328"><ele>227.0</ele><time>2026-04-15T07:28:50Z</time></trkpt><trkpt lat="-26.769879688997978" lon="115.19796646873145"><ele>227.5</ele><time>2026-04-15T07:28:51Z</time></trkpt><trkpt lat="-26.769804588641534" lon="115.1976742864565"><ele>228.0</ele><time>2026-04-15T07:28:52Z</time></trkpt><trkpt lat="-26.769729136437263" lon="115.19738231276345"><ele>228.0</ele><time>2026-04-15T07:28:53Z</time></trkpt><trkpt lat="-26.769653889315727" lon="115.19708413659478"><ele>228.0</ele><time>2026-04-15T07:28:54Z</time></trkpt><trkpt lat="-26.769583597911378" lon="115.1967836060075"><ele>228.5</ele><time>2026-04-15T07:28:55Z</time></trkpt><trkpt lat="-26.769507781147233" lon="115.19647826551832"><ele>229.0</ele><time>2026-04-15T07:28:56Z</time></trkpt><trkpt lat="-26.769435528244937" lon="115.19617716251597"><ele>229.0</ele><time>2026-04-15T07:28:57Z</time></trkpt><trkpt lat="-26.76936366369792" lon="115.19587023749564"><ele>229.0</ele><time>2026-04-15T07:28:58Z</time></trkpt><trkpt lat="-26.769290637700774" lon="115.1955600481443"><ele>228.0</ele><time>2026-04-15T07:28:59Z</time></trkpt><trkpt lat="-26.769215992119808" lon="115.19524259466564"><ele>227.0</ele><time>2026-04-15T07:29:00Z</time></trkpt><trkpt lat="-26.76914083255884" lon="115.19492107651514"><ele>227.0</ele><time>2026-04-15T07:29:01Z</time></trkpt><trkpt lat="-26.769065650773353" lon="115.19460141907888"><ele>227.0</ele><time>2026-04-15T07:29:02Z</time></trkpt><trkpt lat="-26.768990916947775" lon="115.19428502904213"><ele>227.0</ele><time>2026-04-15T07:29:03Z</time></trkpt><trkpt lat="-26.7689189507398" lon="115.19397020072167"><ele>227.0</ele><time>2026-04-15T07:29:04Z</time></trkpt><trkpt lat="-26.768845791639762" lon="115.19365672177562"><ele>227.0</ele><time>2026-04-15T07:29:05Z</time></trkpt><trkpt lat="-26.76877398864812" lon="115.19334252971456"><ele>227.0</ele><time>2026-04-15T07:29:06Z</time></trkpt><trkpt lat="-26.76870347188111" lon="115.19302947583292"><ele>226.5</ele><time>2026-04-15T07:29:07Z</time></trkpt><trkpt lat="-26.768635453762858" lon="115.19271471702967"><ele>226.0</ele><time>2026-04-15T07:29:08Z</time></trkpt><trkpt lat="-26.768569119762674" lon="115.19239931714868"><ele>226.5</ele><time>2026-04-15T07:29:09Z</time></trkpt><trkpt lat="-26.76850739235656" lon="115.19208359671349"><ele>227.0</ele><time>2026-04-15T07:29:10Z</time></trkpt><trkpt lat="-26.768445405593784" lon="115.19177156864937"><ele>228.5</ele><time>2026-04-15T07:29:11Z</time></trkpt><trkpt lat="-26.768381688570578" lon="115.19146099999632"><ele>230.0</ele><time>2026-04-15T07:29:12Z</time></trkpt><trkpt lat="-26.76831261482394" lon="115.19114998591452"><ele>230.0</ele><time>2026-04-15T07:29:13Z</time></trkpt><trkpt lat="-26.768237539303005" lon="115.1908385693351"><ele>230.0</ele><time>2026-04-15T07:29:14Z</time></trkpt><trkpt lat="-26.76816278776941" lon="115.19052976993804"><ele>229.5</ele><time>2026-04-15T07:29:15Z</time></trkpt><trkpt lat="-26.76808759210258" lon="115.1902203932371"><ele>229.0</ele><time>2026-04-15T07:29:16Z</time></trkpt><trkpt lat="-26.768016637937226" lon="115.18991284121977"><ele>229.5</ele><time>2026-04-15T07:29:17Z</time></trkpt><trkpt lat="-26.767946685855012" lon="115.18960322538756"><ele>230.0</ele><time>2026-04-15T07:29:18Z</time></trkpt><trkpt lat="-26.767876226343418" lon="115.18929142794288"><ele>230.5</ele><time>2026-04-15T07:29:19Z</time></trkpt><trkpt lat="-26.767802401192174" lon="115.18898159302567"><ele>231.0</ele><time>2026-04-15T07:29:20Z</time></trkpt><trkpt lat="-26.76772819481943" lon="115.18867357410531"><ele>230.0</ele><time>2026-04-15T07:29:21Z</time></trkpt><trkpt lat="-26.767650608519546" lon="115.18836393181383"><ele>229.0</ele><time>2026-04-15T07:29:22Z</time></trkpt><trkpt lat="-26.767572209933302" lon="115.18805332496014"><ele>229.0</ele><time>2026-04-15T07:29:23Z</time></trkpt><trkpt lat="-26.7674907017935" lon="115.18774136097706"><ele>229.0</ele><time>2026-04-15T07:29:24Z</time></trkpt><trkpt lat="-26.767413391791322" lon="115.18743492518966"><ele>230.0</ele><time>2026-04-15T07:29:25Z</time></trkpt><trkpt lat="-26.76733868418727" lon="115.18712528076969"><ele>231.0</ele><time>2026-04-15T07:29:26Z</time></trkpt><trkpt lat="-26.76726507851147" lon="115.18681624676127"><ele>231.0</ele><time>2026-04-15T07:29:27Z</time></trkpt><trkpt lat="-26.767189917443744" lon="115.18650602019811"><ele>231.0</ele><time>2026-04-15T07:29:28Z</time></trkpt><trkpt lat="-26.767115842817958" lon="115.1861991604089"><ele>231.0</ele><time>2026-04-15T07:29:29Z</time></trkpt><trkpt lat="-26.767040974612986" lon="115.1858937636648"><ele>231.0</ele><time>2026-04-15T07:29:30Z</time></trkpt><trkpt lat="-26.766965886693704" lon="115.18558902219542"><ele>231.0</ele><time>2026-04-15T07:29:31Z</time></trkpt><trkpt lat="-26.766894196409098" lon="115.18528840370287"><ele>231.0</ele><time>2026-04-15T07:29:32Z</time></trkpt><trkpt lat="-26.76682689455598" lon="115.18499094360635"><ele>231.5</ele><time>2026-04-15T07:29:33Z</time></trkpt><trkpt lat="-26.76676065799459" lon="115.1846964248716"><ele>232.0</ele><time>2026-04-15T07:29:34Z</time></trkpt><trkpt lat="-26.766696577102415" lon="115.18440225693482"><ele>232.0</ele><time>2026-04-15T07:29:35Z</time></trkpt><trkpt lat="-26.766631402226608" lon="115.18411160394024"><ele>232.0</ele><time>2026-04-15T07:29:36Z</time></trkpt><trkpt lat="-26.76656297938973" lon="115.18381667940353"><ele>232.0</ele><time>2026-04-15T07:29:37Z</time></trkpt><trkpt lat="-26.766495415664036" lon="115.18351990176333"><ele>232.0</ele><time>2026-04-15T07:29:38Z</time></trkpt><trkpt lat="-26.76642658823831" lon="115.18321817179816"><ele>232.5</ele><time>2026-04-15T07:29:39Z</time></trkpt><trkpt lat="-26.76635748636638" lon="115.18291702827754"><ele>233.0</ele><time>2026-04-15T07:29:40Z</time></trkpt><trkpt lat="-26.766285858639463" lon="115.18261428308821"><ele>232.5</ele><time>2026-04-15T07:29:41Z</time></trkpt><trkpt lat="-26.766215855456696" lon="115.18231009586839"><ele>232.0</ele><time>2026-04-15T07:29:42Z</time></trkpt><trkpt lat="-26.766146571461924" lon="115.1820071798365"><ele>232.0</ele><time>2026-04-15T07:29:43Z</time></trkpt><trkpt lat="-26.766078299605482" lon="115.18170630978477"><ele>232.0</ele><time>2026-04-15T07:29:44Z</time></trkpt><trkpt lat="-26.766010089176852" lon="115.18140242893584"><ele>232.5</ele><time>2026-04-15T07:29:45Z</time></trkpt><trkpt lat="-26.765936880698284" lon="115.1811011113149"><ele>233.0</ele><time>2026-04-15T07:29:46Z</time></trkpt><trkpt lat="-26.765863811202053" lon="115.1808044535712"><ele>233.0</ele><time>2026-04-15T07:29:47Z</time></trkpt><trkpt lat="-26.765790947535763" lon="115.18050675770434"><ele>233.0</ele><time>2026-04-15T07:29:48Z</time></trkpt><trkpt lat="-26.76572260995651" lon="115.18021131377631"><ele>233.0</ele><time>2026-04-15T07:29:49Z</time></trkpt><trkpt lat="-26.76565487169314" lon="115.17991442135576"><ele>233.0</ele><time>2026-04-15T07:29:50Z</time></trkpt><trkpt lat="-26.765587291593587" lon="115.17962345631227"><ele>234.0</ele><time>2026-04-15T07:29:51Z</time></trkpt><trkpt lat="-26.76552033472901" lon="115.17933024824238"><ele>235.0</ele><time>2026-04-15T07:29:52Z</time></trkpt><trkpt lat="-26.765452681047506" lon="115.17903914410365"><ele>235.0</ele><time>2026-04-15T07:29:53Z</time></trkpt><trkpt lat="-26.76538265001155" lon="115.17874838486897"><ele>235.0</ele><time>2026-04-15T07:29:54Z</time></trkpt><trkpt lat="-26.765312381467606" lon="115.1784566109977"><ele>235.0</ele><time>2026-04-15T07:29:55Z</time></trkpt><trkpt lat="-26.76524562472919" lon="115.17816476771016"><ele>235.0</ele><time>2026-04-15T07:29:56Z</time></trkpt><trkpt lat="-26.765180017580697" lon="115.17786890812391"><ele>235.0</ele><time>2026-04-15T07:29:57Z</time></trkpt><trkpt lat="-26.765114942357542" lon="115.17757081409125"><ele>235.0</ele><time>2026-04-15T07:29:58Z</time></trkpt><trkpt lat="-26.765046733475764" lon="115.17727772994235"><ele>235.0</ele><time>2026-04-15T07:29:59Z</time></trkpt><trkpt lat="-26.764975310719187" lon="115.17698351952386"><ele>235.0</ele><time>2026-04-15T07:30:00Z</time></trkpt><trkpt lat="-26.76490128178183" lon="115.17668768552865"><ele>236.0</ele><time>2026-04-15T07:30:01Z</time></trkpt><trkpt lat="-26.764830098699832" lon="115.17638843232278"><ele>237.0</ele><time>2026-04-15T07:30:02Z</time></trkpt><trkpt lat="-26.76476323143426" lon="115.17608715160532"><ele>237.0</ele><time>2026-04-15T07:30:03Z</time></trkpt><trkpt lat="-26.76469696444905" lon="115.17578444582733"><ele>237.0</ele><time>2026-04-15T07:30:04Z</time></trkpt><trkpt lat="-26.76462987421603" lon="115.17547945058155"><ele>238.0</ele><time>2026-04-15T07:30:05Z</time></trkpt><trkpt lat="-26.764562226045292" lon="115.17517261202684"><ele>239.0</ele><time>2026-04-15T07:30:06Z</time></trkpt><trkpt lat="-26.76449353457701" lon="115.17486402775688"><ele>238.0</ele><time>2026-04-15T07:30:07Z</time></trkpt><trkpt lat="-26.764424292498422" lon="115.17455894439561"><ele>237.0</ele><time>2026-04-15T07:30:08Z</time></trkpt><trkpt lat="-26.764351019091542" lon="115.17424753133831"><ele>237.0</ele><time>2026-04-15T07:30:09Z</time></trkpt><trkpt lat="-26.76427643171998" lon="115.17394042122446"><ele>237.0</ele><time>2026-04-15T07:30:10Z</time></trkpt><trkpt lat="-26.764199999672535" lon="115.17362785067729"><ele>237.0</ele><time>2026-04-15T07:30:11Z</time></trkpt><trkpt lat="-26.764127209999284" lon="115.17332060259665"><ele>237.0</ele><time>2026-04-15T07:30:12Z</time></trkpt><trkpt lat="-26.76405681270694" lon="115.17301228692625"><ele>237.5</ele><time>2026-04-15T07:30:13Z</time></trkpt><trkpt lat="-26.76398956750308" lon="115.17270773510555"><ele>238.0</ele><time>2026-04-15T07:30:14Z</time></trkpt><trkpt lat="-26.763921088541352" lon="115.17240774796377"><ele>238.0</ele><time>2026-04-15T07:30:15Z</time></trkpt><trkpt lat="-26.76385316571285" lon="115.17210973047372"><ele>238.0</ele><time>2026-04-15T07:30:16Z</time></trkpt><trkpt lat="-26.76378424449955" lon="115.17181870250091"><ele>238.0</ele><time>2026-04-15T07:30:17Z</time></trkpt><trkpt lat="-26.763714912410677" lon="115.17153110099315"><ele>238.0</ele><time>2026-04-15T07:30:18Z</time></trkpt><trkpt lat="-26.763649937073733" lon="115.17124829600698"><ele>238.0</ele><time>2026-04-15T07:30:19Z</time></trkpt><trkpt lat="-26.763585302894867" lon="115.1709717291168"><ele>238.0</ele><time>2026-04-15T07:30:20Z</time></trkpt><trkpt lat="-26.76352514508021" lon="115.1706925575635"><ele>239.5</ele><time>2026-04-15T07:30:21Z</time></trkpt><trkpt lat="-26.763464676968624" lon="115.17042019588573"><ele>241.0</ele><time>2026-04-15T07:30:22Z</time></trkpt><trkpt lat="-26.76340468902342" lon="115.17014548998146"><ele>241.0</ele><time>2026-04-15T07:30:23Z</time></trkpt><trkpt lat="-26.763342569275085" lon="115.16987398663927"><ele>241.0</ele><time>2026-04-15T07:30:24Z</time></trkpt><trkpt lat="-26.763281852217215" lon="115.16959941068042"><ele>240.0</ele><time>2026-04-15T07:30:25Z</time></trkpt><trkpt lat="-26.76321743163605" lon="115.16932479123584"><ele>239.0</ele><time>2026-04-15T07:30:26Z</time></trkpt><trkpt lat="-26.763149809540025" lon="115.16904462859861"><ele>238.5</ele><time>2026-04-15T07:30:27Z</time></trkpt><trkpt lat="-26.763082836557697" lon="115.16875665360068"><ele>238.0</ele><time>2026-04-15T07:30:28Z</time></trkpt><trkpt lat="-26.763016346026003" lon="115.16846991388304"><ele>237.5</ele><time>2026-04-15T07:30:29Z</time></trkpt><trkpt lat="-26.762947409621862" lon="115.16817858792238"><ele>237.0</ele><time>2026-04-15T07:30:30Z</time></trkpt><trkpt lat="-26.762876959419064" lon="115.16788270067468"><ele>237.0</ele><time>2026-04-15T07:30:31Z</time></trkpt><trkpt lat="-26.762806952966447" lon="115.16758301069524"><ele>237.0</ele><time>2026-04-15T07:30:32Z</time></trkpt><trkpt lat="-26.762738574084903" lon="115.16728858592792"><ele>237.0</ele><time>2026-04-15T07:30:33Z</time></trkpt><trkpt lat="-26.762669678274506" lon="115.1669926360536"><ele>237.0</ele><time>2026-04-15T07:30:34Z</time></trkpt><trkpt lat="-26.762601302227047" lon="115.16669851532951"><ele>237.5</ele><time>2026-04-15T07:30:35Z</time></trkpt><trkpt lat="-26.762533618747874" lon="115.16640074860838"><ele>238.0</ele><time>2026-04-15T07:30:36Z</time></trkpt><trkpt lat="-26.762463680552756" lon="115.16610239359504"><ele>238.0</ele><time>2026-04-15T07:30:37Z</time></trkpt><trkpt lat="-26.762396362914544" lon="115.16580520288025"><ele>238.0</ele><time>2026-04-15T07:30:38Z</time></trkpt><trkpt lat="-26.762328802845104" lon="115.16551328237608"><ele>237.5</ele><time>2026-04-15T07:30:39Z</time></trkpt><trkpt lat="-26.762263762956522" lon="115.16523897257794"><ele>237.0</ele><time>2026-04-15T07:30:40Z</time></trkpt><trkpt lat="-26.762201635092655" lon="115.16498484278516"><ele>236.5</ele><time>2026-04-15T07:30:41Z</time></trkpt><trkpt lat="-26.762136714357272" lon="115.16472207231841"><ele>236.0</ele><time>2026-04-15T07:30:42Z</time></trkpt><trkpt lat="-26.762074057957438" lon="115.16445426479231"><ele>236.0</ele><time>2026-04-15T07:30:43Z</time></trkpt><trkpt lat="-26.762012313052324" lon="115.16418483308614"><ele>236.0</ele><time>2026-04-15T07:30:44Z</time></trkpt><trkpt lat="-26.761951236127636" lon="115.16391340033462"><ele>236.0</ele><time>2026-04-15T07:30:45Z</time></trkpt><trkpt lat="-26.761890815538003" lon="115.16364204692279"><ele>236.0</ele><time>2026-04-15T07:30:46Z</time></trkpt><trkpt lat="-26.761827168045283" lon="115.16336953540373"><ele>236.0</ele><time>2026-04-15T07:30:47Z</time></trkpt><trkpt lat="-26.76176377785481" lon="115.1630983036632"><ele>236.0</ele><time>2026-04-15T07:30:48Z</time></trkpt><trkpt lat="-26.761699710067116" lon="115.16283390439266"><ele>236.0</ele><time>2026-04-15T07:30:49Z</time></trkpt><trkpt lat="-26.761638334963823" lon="115.16256749788704"><ele>236.0</ele><time>2026-04-15T07:30:50Z</time></trkpt><trkpt lat="-26.761578089815515" lon="115.16230274296414"><ele>235.0</ele><time>2026-04-15T07:30:51Z</time></trkpt><trkpt lat="-26.76151655635672" lon="115.16203963032974"><ele>234.0</ele><time>2026-04-15T07:30:52Z</time></trkpt><trkpt lat="-26.76145516306867" lon="115.16176964268037"><ele>233.5</ele><time>2026-04-15T07:30:53Z</time></trkpt><trkpt lat="-26.761393689586978" lon="115.16149739166205"><ele>233.0</ele><time>2026-04-15T07:30:54Z</time></trkpt><trkpt lat="-26.761333383021984" lon="115.16122105669938"><ele>233.0</ele><time>2026-04-15T07:30:55Z</time></trkpt><trkpt lat="-26.761271542998752" lon="115.16094743313536"><ele>233.0</ele><time>2026-04-15T07:30:56Z</time></trkpt><trkpt lat="-26.761205700099822" lon="115.16066596075248"><ele>233.0</ele><time>2026-04-15T07:30:57Z</time></trkpt><trkpt lat="-26.761140960093794" lon="115.16038661595519"><ele>233.0</ele><time>2026-04-15T07:30:58Z</time></trkpt><trkpt lat="-26.761074243615496" lon="115.16009988640091"><ele>231.5</ele><time>2026-04-15T07:30:59Z</time></trkpt><trkpt lat="-26.761006706919133" lon="115.15981575633762"><ele>230.0</ele><time>2026-04-15T07:31:00Z</time></trkpt><trkpt lat="-26.760937496478846" lon="115.1595281240565"><ele>230.0</ele><time>2026-04-15T07:31:01Z</time></trkpt><trkpt lat="-26.760872092328174" lon="115.15924014870424"><ele>230.0</ele><time>2026-04-15T07:31:02Z</time></trkpt><trkpt lat="-26.760804789181876" lon="115.15894824099966"><ele>230.0</ele><time>2026-04-15T07:31:03Z</time></trkpt><trkpt lat="-26.760737078196335" lon="115.15865502453198"><ele>230.0</ele><time>2026-04-15T07:31:04Z</time></trkpt><trkpt lat="-26.760670950859286" lon="115.15836198034496"><ele>230.5</ele><time>2026-04-15T07:31:05Z</time></trkpt><trkpt lat="-26.76060461582143" lon="115.15806988949"><ele>231.0</ele><time>2026-04-15T07:31:06Z</time></trkpt><trkpt lat="-26.76053595221701" lon="115.15777944134115"><ele>231.0</ele><time>2026-04-15T07:31:07Z</time></trkpt><trkpt lat="-26.760470841477524" lon="115.15749310556917"><ele>231.0</ele><time>2026-04-15T07:31:08Z</time></trkpt><trkpt lat="-26.760404128623932" lon="115.15720624531944"><ele>229.5</ele><time>2026-04-15T07:31:09Z</time></trkpt><trkpt lat="-26.760339967553747" lon="115.15692362341125"><ele>228.0</ele><time>2026-04-15T07:31:10Z</time></trkpt><trkpt lat="-26.76027595755676" lon="115.15664431717362"><ele>228.5</ele><time>2026-04-15T07:31:11Z</time></trkpt><trkpt lat="-26.760211637211164" lon="115.15636258944164"><ele>229.0</ele><time>2026-04-15T07:31:12Z</time></trkpt><trkpt lat="-26.760147600313122" lon="115.15608189801948"><ele>229.5</ele><time>2026-04-15T07:31:12.999Z</time></trkpt><trkpt lat="-26.76008222267127" lon="115.15579871775344"><ele>230.0</ele><time>2026-04-15T07:31:13.999Z</time></trkpt><trkpt lat="-26.7600177486424" lon="115.15551031990482"><ele>228.5</ele><time>2026-04-15T07:31:14.999Z</time></trkpt><trkpt lat="-26.75995049054665" lon="115.15521921116553"><ele>227.0</ele><time>2026-04-15T07:31:15.999Z</time></trkpt><trkpt lat="-26.759882522108093" lon="115.15493105272242"><ele>227.0</ele><time>2026-04-15T07:31:16.999Z</time></trkpt><trkpt lat="-26.759811677261336" lon="115.15463535243165"><ele>227.0</ele><time>2026-04-15T07:31:17.999Z</time></trkpt><trkpt lat="-26.75973908073103" lon="115.15434543835119"><ele>227.0</ele><time>2026-04-15T07:31:18.999Z</time></trkpt><trkpt lat="-26.759668609731595" lon="115.15405639536455"><ele>227.0</ele><time>2026-04-15T07:31:20Z</time></trkpt><trkpt lat="-26.759598634807393" lon="115.15377185181133"><ele>226.5</ele><time>2026-04-15T07:31:21Z</time></trkpt><trkpt lat="-26.759530552498564" lon="115.15347992171564"><ele>226.0</ele><time>2026-04-15T07:31:22Z</time></trkpt><trkpt lat="-26.759462600903156" lon="115.15318564225011"><ele>225.5</ele><time>2026-04-15T07:31:23Z</time></trkpt><trkpt lat="-26.759393292569207" lon="115.15289060907575"><ele>225.0</ele><time>2026-04-15T07:31:24Z</time></trkpt><trkpt lat="-26.75932378592837" lon="115.1525973281334"><ele>224.5</ele><time>2026-04-15T07:31:25Z</time></trkpt><trkpt lat="-26.75925300963573" lon="115.15229942145194"><ele>224.0</ele><time>2026-04-15T07:31:26Z</time></trkpt><trkpt lat="-26.759183314399735" lon="115.15200229494278"><ele>224.0</ele><time>2026-04-15T07:31:27Z</time></trkpt><trkpt lat="-26.759113934714776" lon="115.15170502993236"><ele>224.0</ele><time>2026-04-15T07:31:28Z</time></trkpt><trkpt lat="-26.759045794094465" lon="115.15141648945834"><ele>223.0</ele><time>2026-04-15T07:31:29Z</time></trkpt><trkpt lat="-26.75897739046869" lon="115.15112268204771"><ele>222.0</ele><time>2026-04-15T07:31:30Z</time></trkpt><trkpt lat="-26.758913209175205" lon="115.15083903655255"><ele>222.5</ele><time>2026-04-15T07:31:31Z</time></trkpt><trkpt lat="-26.75884755609458" lon="115.15054937113503"><ele>223.0</ele><time>2026-04-15T07:31:32Z</time></trkpt><trkpt lat="-26.758783460207237" lon="115.15026091899153"><ele>223.0</ele><time>2026-04-15T07:31:33Z</time></trkpt><trkpt lat="-26.75871594467923" lon="115.149973310746"><ele>223.0</ele><time>2026-04-15T07:31:34Z</time></trkpt><trkpt lat="-26.758646391912077" lon="115.14968667827816"><ele>222.5</ele><time>2026-04-15T07:31:35Z</time></trkpt><trkpt lat="-26.75857667079169" lon="115.14939504623152"><ele>222.0</ele><time>2026-04-15T07:31:36Z</time></trkpt><trkpt lat="-26.758508230840523" lon="115.1491014738598"><ele>220.0</ele><time>2026-04-15T07:31:37Z</time></trkpt><trkpt lat="-26.75844039788134" lon="115.14880047333043"><ele>218.0</ele><time>2026-04-15T07:31:38Z</time></trkpt><trkpt lat="-26.75836933204205" lon="115.14849494811132"><ele>217.5</ele><time>2026-04-15T07:31:39Z</time></trkpt><trkpt lat="-26.75829697903554" lon="115.1481894539608"><ele>217.0</ele><time>2026-04-15T07:31:40Z</time></trkpt><trkpt lat="-26.75822490849574" lon="115.14788871244957"><ele>217.0</ele><time>2026-04-15T07:31:41Z</time></trkpt><trkpt lat="-26.75815363104816" lon="115.1475869315263"><ele>217.0</ele><time>2026-04-15T07:31:42Z</time></trkpt><trkpt lat="-26.758085638236796" lon="115.14728984032861"><ele>217.5</ele><time>2026-04-15T07:31:43Z</time></trkpt><trkpt lat="-26.75801966047767" lon="115.14699268186568"><ele>218.0</ele><time>2026-04-15T07:31:44Z</time></trkpt><trkpt lat="-26.75795479217757" lon="115.14669786660293"><ele>217.0</ele><time>2026-04-15T07:31:45Z</time></trkpt><trkpt lat="-26.7578896610672" lon="115.146403049835"><ele>216.0</ele><time>2026-04-15T07:31:46Z</time></trkpt><trkpt lat="-26.757824171873075" lon="115.14610696646454"><ele>216.0</ele><time>2026-04-15T07:31:47Z</time></trkpt><trkpt lat="-26.757758459158957" lon="115.14581534771425"><ele>216.0</ele><time>2026-04-15T07:31:48Z</time></trkpt><trkpt lat="-26.757689912504603" lon="115.14553659153256"><ele>217.0</ele><time>2026-04-15T07:31:49Z</time></trkpt><trkpt lat="-26.75762348770543" lon="115.14526466501084"><ele>218.0</ele><time>2026-04-15T07:31:50Z</time></trkpt><trkpt lat="-26.75756310546698" lon="115.14499664204635"><ele>216.5</ele><time>2026-04-15T07:31:51Z</time></trkpt><trkpt lat="-26.75750592383784" lon="115.1447122078361"><ele>215.0</ele><time>2026-04-15T07:31:52Z</time></trkpt><trkpt lat="-26.75744577041691" lon="115.14443883323187"><ele>215.0</ele><time>2026-04-15T07:31:53Z</time></trkpt><trkpt lat="-26.75738072048917" lon="115.14416372016542"><ele>215.0</ele><time>2026-04-15T07:31:54Z</time></trkpt><trkpt lat="-26.75731259488875" lon="115.14388446374109"><ele>214.0</ele><time>2026-04-15T07:31:55Z</time></trkpt><trkpt lat="-26.75723869064352" lon="115.14359998744668"><ele>213.0</ele><time>2026-04-15T07:31:56Z</time></trkpt><trkpt lat="-26.75716777961843" lon="115.14330147966328"><ele>213.5</ele><time>2026-04-15T07:31:57Z</time></trkpt><trkpt lat="-26.75709701569742" lon="115.1430065836412"><ele>214.0</ele><time>2026-04-15T07:31:58Z</time></trkpt><trkpt lat="-26.75702784337601" lon="115.14271258969919"><ele>214.0</ele><time>2026-04-15T07:31:59Z</time></trkpt><trkpt lat="-26.75696123234645" lon="115.14241588766322"><ele>214.0</ele><time>2026-04-15T07:32:00Z</time></trkpt><trkpt lat="-26.756896210599006" lon="115.14211664149478"><ele>214.0</ele><time>2026-04-15T07:32:01Z</time></trkpt><trkpt lat="-26.756831309672638" lon="115.14182425324553"><ele>214.0</ele><time>2026-04-15T07:32:02Z</time></trkpt><trkpt lat="-26.7567662884544" lon="115.14153176745933"><ele>214.0</ele><time>2026-04-15T07:32:03Z</time></trkpt><trkpt lat="-26.756700735803477" lon="115.14123740144159"><ele>214.0</ele><time>2026-04-15T07:32:04Z</time></trkpt><trkpt lat="-26.75663404467433" lon="115.14094864672501"><ele>214.0</ele><time>2026-04-15T07:32:05Z</time></trkpt><trkpt lat="-26.756565330226" lon="115.14065440423558"><ele>214.0</ele><time>2026-04-15T07:32:06Z</time></trkpt><trkpt lat="-26.756494740682296" lon="115.14036211102717"><ele>214.0</ele><time>2026-04-15T07:32:07Z</time></trkpt><trkpt lat="-26.75642346641857" lon="115.14007083993786"><ele>214.0</ele><time>2026-04-15T07:32:08Z</time></trkpt><trkpt lat="-26.756356122363375" lon="115.13978756922795"><ele>214.5</ele><time>2026-04-15T07:32:09Z</time></trkpt><trkpt lat="-26.75629239753232" lon="115.13950104984593"><ele>215.0</ele><time>2026-04-15T07:32:10Z</time></trkpt><trkpt lat="-26.75622930207356" lon="115.13920853796706"><ele>217.0</ele><time>2026-04-15T07:32:11Z</time></trkpt><trkpt lat="-26.756161504299715" lon="115.1389211438135"><ele>219.0</ele><time>2026-04-15T07:32:12Z</time></trkpt><trkpt lat="-26.7560941724802" lon="115.13863285613418"><ele>219.0</ele><time>2026-04-15T07:32:13Z</time></trkpt><trkpt lat="-26.756026467596552" lon="115.13834129235752"><ele>219.0</ele><time>2026-04-15T07:32:14Z</time></trkpt><trkpt lat="-26.755958476827136" lon="115.13804359048082"><ele>219.0</ele><time>2026-04-15T07:32:15Z</time></trkpt><trkpt lat="-26.75589000160034" lon="115.13774924472716"><ele>219.0</ele><time>2026-04-15T07:32:16Z</time></trkpt><trkpt lat="-26.75582142207179" lon="115.13745302390451"><ele>219.5</ele><time>2026-04-15T07:32:17Z</time></trkpt><trkpt lat="-26.755756400024897" lon="115.13716178441207"><ele>220.0</ele><time>2026-04-15T07:32:18Z</time></trkpt><trkpt lat="-26.755689274537843" lon="115.13686261846094"><ele>220.0</ele><time>2026-04-15T07:32:19Z</time></trkpt><trkpt lat="-26.755622226518977" lon="115.13656813362613"><ele>220.0</ele><time>2026-04-15T07:32:20Z</time></trkpt><trkpt lat="-26.755548769809998" lon="115.13627018171825"><ele>221.0</ele><time>2026-04-15T07:32:21Z</time></trkpt><trkpt lat="-26.755471270100056" lon="115.135965817124"><ele>222.0</ele><time>2026-04-15T07:32:22Z</time></trkpt><trkpt lat="-26.755397780759306" lon="115.1356678710805"><ele>222.0</ele><time>2026-04-15T07:32:23Z</time></trkpt><trkpt lat="-26.75532367282384" lon="115.1353603588465"><ele>222.0</ele><time>2026-04-15T07:32:24Z</time></trkpt><trkpt lat="-26.755254468508706" lon="115.13506354771481"><ele>223.5</ele><time>2026-04-15T07:32:25Z</time></trkpt><trkpt lat="-26.755186305533698" lon="115.13476251139474"><ele>225.0</ele><time>2026-04-15T07:32:26Z</time></trkpt><trkpt lat="-26.75511658981401" lon="115.1344640967884"><ele>225.0</ele><time>2026-04-15T07:32:27Z</time></trkpt><trkpt lat="-26.75504716114626" lon="115.13415580438765"><ele>225.0</ele><time>2026-04-15T07:32:28Z</time></trkpt><trkpt lat="-26.754979583776635" lon="115.13384923103322"><ele>224.5</ele><time>2026-04-15T07:32:29Z</time></trkpt><trkpt lat="-26.754909145572093" lon="115.13354865891591"><ele>224.0</ele><time>2026-04-15T07:32:30Z</time></trkpt><trkpt lat="-26.754840634172435" lon="115.13323772684826"><ele>224.5</ele><time>2026-04-15T07:32:31Z</time></trkpt><trkpt lat="-26.754768747209564" lon="115.13292808654869"><ele>225.0</ele><time>2026-04-15T07:32:32Z</time></trkpt><trkpt lat="-26.75469397346962" lon="115.13261414619573"><ele>226.0</ele><time>2026-04-15T07:32:33Z</time></trkpt><trkpt lat="-26.754619245119066" lon="115.13229356993082"><ele>227.0</ele><time>2026-04-15T07:32:34Z</time></trkpt><trkpt lat="-26.754543420952704" lon="115.13197527911493"><ele>227.0</ele><time>2026-04-15T07:32:35Z</time></trkpt><trkpt lat="-26.75446876891483" lon="115.13165671894603"><ele>227.0</ele><time>2026-04-15T07:32:36Z</time></trkpt><trkpt lat="-26.754395675506064" lon="115.1313347817965"><ele>228.5</ele><time>2026-04-15T07:32:37Z</time></trkpt><trkpt lat="-26.75432315985175" lon="115.13102156611691"><ele>230.0</ele><time>2026-04-15T07:32:38Z</time></trkpt><trkpt lat="-26.754251538767228" lon="115.13071026021143"><ele>230.5</ele><time>2026-04-15T07:32:39Z</time></trkpt><trkpt lat="-26.75418134641165" lon="115.13039831172269"><ele>231.0</ele><time>2026-04-15T07:32:40Z</time></trkpt><trkpt lat="-26.754113343139124" lon="115.13008183232613"><ele>231.5</ele><time>2026-04-15T07:32:41Z</time></trkpt><trkpt lat="-26.754043326548512" lon="115.12975661760122"><ele>232.0</ele><time>2026-04-15T07:32:42Z</time></trkpt><trkpt lat="-26.753969234945604" lon="115.12943076297331"><ele>232.0</ele><time>2026-04-15T07:32:43Z</time></trkpt><trkpt lat="-26.75389158742349" lon="115.12910622271474"><ele>232.0</ele><time>2026-04-15T07:32:44Z</time></trkpt><trkpt lat="-26.753814356698527" lon="115.12878016202669"><ele>232.0</ele><time>2026-04-15T07:32:45Z</time></trkpt><trkpt lat="-26.753736714682788" lon="115.128457615728"><ele>232.0</ele><time>2026-04-15T07:32:46Z</time></trkpt><trkpt lat="-26.753658372638714" lon="115.12813599914435"><ele>232.5</ele><time>2026-04-15T07:32:47Z</time></trkpt><trkpt lat="-26.753585052560677" lon="115.12781536273626"><ele>233.0</ele><time>2026-04-15T07:32:48Z</time></trkpt><trkpt lat="-26.753511875481017" lon="115.12749228926529"><ele>233.5</ele><time>2026-04-15T07:32:49Z</time></trkpt><trkpt lat="-26.753440132679597" lon="115.1271705567267"><ele>234.0</ele><time>2026-04-15T07:32:50Z</time></trkpt><trkpt lat="-26.753366772057134" lon="115.12685051237189"><ele>234.0</ele><time>2026-04-15T07:32:51Z</time></trkpt><trkpt lat="-26.753294036743846" lon="115.12653794590035"><ele>234.0</ele><time>2026-04-15T07:32:52Z</time></trkpt><trkpt lat="-26.75322079973782" lon="115.12621648561107"><ele>234.0</ele><time>2026-04-15T07:32:53Z</time></trkpt><trkpt lat="-26.7531463748975" lon="115.12590480356262"><ele>234.0</ele><time>2026-04-15T07:32:54Z</time></trkpt><trkpt lat="-26.75307199279652" lon="115.12559452437586"><ele>234.5</ele><time>2026-04-15T07:32:55Z</time></trkpt><trkpt lat="-26.75299767285446" lon="115.12528579785499"><ele>235.0</ele><time>2026-04-15T07:32:56Z</time></trkpt><trkpt lat="-26.752924454443075" lon="115.12497657429945"><ele>235.0</ele><time>2026-04-15T07:32:57Z</time></trkpt><trkpt lat="-26.752855914040257" lon="115.12466874292544"><ele>235.0</ele><time>2026-04-15T07:32:58Z</time></trkpt><trkpt lat="-26.7527882466494" lon="115.12435326531683"><ele>235.0</ele><time>2026-04-15T07:32:59Z</time></trkpt><trkpt lat="-26.75271829130292" lon="115.12404344751147"><ele>235.0</ele><time>2026-04-15T07:33:00Z</time></trkpt><trkpt lat="-26.752647074619627" lon="115.12373118036807"><ele>235.0</ele><time>2026-04-15T07:33:01Z</time></trkpt><trkpt lat="-26.752570738822133" lon="115.12341220345309"><ele>235.0</ele><time>2026-04-15T07:33:02Z</time></trkpt><trkpt lat="-26.752496783396936" lon="115.12309545650803"><ele>235.0</ele><time>2026-04-15T07:33:03Z</time></trkpt><trkpt lat="-26.75242123771045" lon="115.12277910017642"><ele>235.0</ele><time>2026-04-15T07:33:04Z</time></trkpt><trkpt lat="-26.752347931614334" lon="115.12246316599263"><ele>234.5</ele><time>2026-04-15T07:33:05Z</time></trkpt><trkpt lat="-26.752272938952242" lon="115.12214062901856"><ele>234.0</ele><time>2026-04-15T07:33:06Z</time></trkpt><trkpt lat="-26.752198653357425" lon="115.12182055749692"><ele>234.0</ele><time>2026-04-15T07:33:07Z</time></trkpt><trkpt lat="-26.752126933543764" lon="115.12150101493484"><ele>234.0</ele><time>2026-04-15T07:33:08Z</time></trkpt><trkpt lat="-26.75205307491929" lon="115.12117083481246"><ele>234.0</ele><time>2026-04-15T07:33:09Z</time></trkpt><trkpt lat="-26.751978392164418" lon="115.1208536246686"><ele>234.0</ele><time>2026-04-15T07:33:10Z</time></trkpt><trkpt lat="-26.751902527236158" lon="115.12052948364091"><ele>233.0</ele><time>2026-04-15T07:33:11Z</time></trkpt><trkpt lat="-26.751829421942702" lon="115.120215323999"><ele>232.0</ele><time>2026-04-15T07:33:12Z</time></trkpt><trkpt lat="-26.751756872616014" lon="115.11990752104053"><ele>232.5</ele><time>2026-04-15T07:33:13Z</time></trkpt><trkpt lat="-26.75168656071063" lon="115.11959863427624"><ele>233.0</ele><time>2026-04-15T07:33:14Z</time></trkpt><trkpt lat="-26.751616682802272" lon="115.11929374246003"><ele>233.0</ele><time>2026-04-15T07:33:15Z</time></trkpt><trkpt lat="-26.751544075567857" lon="115.11898311895662"><ele>233.0</ele><time>2026-04-15T07:33:16Z</time></trkpt><trkpt lat="-26.751470723081628" lon="115.11867234700489"><ele>233.0</ele><time>2026-04-15T07:33:17Z</time></trkpt><trkpt lat="-26.751393939009805" lon="115.11836051532278"><ele>233.0</ele><time>2026-04-15T07:33:18Z</time></trkpt><trkpt lat="-26.751320818451397" lon="115.11804856078841"><ele>233.0</ele><time>2026-04-15T07:33:19Z</time></trkpt><trkpt lat="-26.751252360894565" lon="115.11773993786151"><ele>233.0</ele><time>2026-04-15T07:33:20Z</time></trkpt><trkpt lat="-26.75117994141208" lon="115.11742775580805"><ele>233.0</ele><time>2026-04-15T07:33:21Z</time></trkpt><trkpt lat="-26.75110766161807" lon="115.11711327650534"><ele>233.0</ele><time>2026-04-15T07:33:22Z</time></trkpt><trkpt lat="-26.75103627560504" lon="115.11679828138128"><ele>232.5</ele><time>2026-04-15T07:33:23Z</time></trkpt><trkpt lat="-26.750966151013635" lon="115.1164824800209"><ele>232.0</ele><time>2026-04-15T07:33:24Z</time></trkpt><trkpt lat="-26.750894382977012" lon="115.11616990830554"><ele>232.0</ele><time>2026-04-15T07:33:25Z</time></trkpt><trkpt lat="-26.750821054441754" lon="115.11585470359206"><ele>232.0</ele><time>2026-04-15T07:33:26Z</time></trkpt><trkpt lat="-26.75074773765586" lon="115.1155374478649"><ele>231.5</ele><time>2026-04-15T07:33:27Z</time></trkpt><trkpt lat="-26.750675201827097" lon="115.11522261972851"><ele>231.0</ele><time>2026-04-15T07:33:28Z</time></trkpt><trkpt lat="-26.750603291656684" lon="115.11491387924238"><ele>231.0</ele><time>2026-04-15T07:33:29Z</time></trkpt><trkpt lat="-26.75052998735245" lon="115.11460651923365"><ele>231.0</ele><time>2026-04-15T07:33:30Z</time></trkpt><trkpt lat="-26.75045497003282" lon="115.11429600193297"><ele>230.5</ele><time>2026-04-15T07:33:31Z</time></trkpt><trkpt lat="-26.750381024289094" lon="115.11398309349008"><ele>230.0</ele><time>2026-04-15T07:33:32Z</time></trkpt><trkpt lat="-26.750313713670923" lon="115.11367909615223"><ele>230.0</ele><time>2026-04-15T07:33:33Z</time></trkpt><trkpt lat="-26.75023866442568" lon="115.11335854602832"><ele>230.0</ele><time>2026-04-15T07:33:34Z</time></trkpt><trkpt lat="-26.75016476268188" lon="115.11304628167652"><ele>229.5</ele><time>2026-04-15T07:33:35Z</time></trkpt><trkpt lat="-26.75009151944438" lon="115.11273133795582"><ele>229.0</ele><time>2026-04-15T07:33:36Z</time></trkpt><trkpt lat="-26.750022504521432" lon="115.11241492962004"><ele>228.5</ele><time>2026-04-15T07:33:37Z</time></trkpt><trkpt lat="-26.749947618771024" lon="115.11209087863635"><ele>228.0</ele><time>2026-04-15T07:33:38Z</time></trkpt><trkpt lat="-26.749873528288166" lon="115.11176363755266"><ele>228.5</ele><time>2026-04-15T07:33:39Z</time></trkpt><trkpt lat="-26.74979861593097" lon="115.11144206622056"><ele>229.0</ele><time>2026-04-15T07:33:40Z</time></trkpt><trkpt lat="-26.749723595917065" lon="115.1111161295696"><ele>229.0</ele><time>2026-04-15T07:33:41Z</time></trkpt><trkpt lat="-26.749650864820858" lon="115.11079214192853"><ele>229.0</ele><time>2026-04-15T07:33:42Z</time></trkpt><trkpt lat="-26.749578801094835" lon="115.11046767307293"><ele>229.0</ele><time>2026-04-15T07:33:43Z</time></trkpt><trkpt lat="-26.749506690636355" lon="115.11014560063182"><ele>229.0</ele><time>2026-04-15T07:33:44Z</time></trkpt><trkpt lat="-26.74943256620834" lon="115.10982100646359"><ele>228.5</ele><time>2026-04-15T07:33:45Z</time></trkpt><trkpt lat="-26.749356942877945" lon="115.10950425088986"><ele>228.0</ele><time>2026-04-15T07:33:46Z</time></trkpt><trkpt lat="-26.749282869673895" lon="115.10919252797696"><ele>227.0</ele><time>2026-04-15T07:33:47Z</time></trkpt><trkpt lat="-26.749209439427318" lon="115.10887750140687"><ele>226.0</ele><time>2026-04-15T07:33:48Z</time></trkpt><trkpt lat="-26.749138106692048" lon="115.10856395032239"><ele>226.0</ele><time>2026-04-15T07:33:49Z</time></trkpt><trkpt lat="-26.749068335501224" lon="115.10825143634968"><ele>226.0</ele><time>2026-04-15T07:33:50Z</time></trkpt><trkpt lat="-26.74899701505855" lon="115.1079402384633"><ele>226.0</ele><time>2026-04-15T07:33:51Z</time></trkpt><trkpt lat="-26.748923009240254" lon="115.10763098005471"><ele>226.0</ele><time>2026-04-15T07:33:52Z</time></trkpt><trkpt lat="-26.74884950116495" lon="115.10732222902384"><ele>226.0</ele><time>2026-04-15T07:33:53Z</time></trkpt><trkpt lat="-26.748778054449197" lon="115.10701697352374"><ele>226.0</ele><time>2026-04-15T07:33:54Z</time></trkpt><trkpt lat="-26.748708337738222" lon="115.10670621132108"><ele>225.0</ele><time>2026-04-15T07:33:55Z</time></trkpt><trkpt lat="-26.748638404585254" lon="115.10640245251113"><ele>224.0</ele><time>2026-04-15T07:33:56Z</time></trkpt><trkpt lat="-26.748566188409338" lon="115.10609158169287"><ele>223.5</ele><time>2026-04-15T07:33:57Z</time></trkpt><trkpt lat="-26.748493327054117" lon="115.10577833013383"><ele>223.0</ele><time>2026-04-15T07:33:58Z</time></trkpt><trkpt lat="-26.748422149529755" lon="115.10546593947926"><ele>223.0</ele><time>2026-04-15T07:33:59Z</time></trkpt><trkpt lat="-26.7483530479438" lon="115.10515443531278"><ele>223.0</ele><time>2026-04-15T07:34:00Z</time></trkpt><trkpt lat="-26.748284664237616" lon="115.10484189864233"><ele>223.0</ele><time>2026-04-15T07:34:01Z</time></trkpt><trkpt lat="-26.74821381248217" lon="115.10453219914868"><ele>223.0</ele><time>2026-04-15T07:34:02Z</time></trkpt><trkpt lat="-26.74814053109128" lon="115.104221672986"><ele>223.0</ele><time>2026-04-15T07:34:03Z</time></trkpt><trkpt lat="-26.748068472394223" lon="115.10390686931953"><ele>223.0</ele><time>2026-04-15T07:34:04Z</time></trkpt><trkpt lat="-26.747994053673988" lon="115.10359395768059"><ele>223.0</ele><time>2026-04-15T07:34:05Z</time></trkpt><trkpt lat="-26.747917607313138" lon="115.1032821141813"><ele>223.0</ele><time>2026-04-15T07:34:06Z</time></trkpt><trkpt lat="-26.74784605555415" lon="115.10297294620719"><ele>222.0</ele><time>2026-04-15T07:34:07Z</time></trkpt><trkpt lat="-26.747780524249443" lon="115.10265993215147"><ele>221.0</ele><time>2026-04-15T07:34:08Z</time></trkpt><trkpt lat="-26.74771734978308" lon="115.10234539175671"><ele>221.0</ele><time>2026-04-15T07:34:09Z</time></trkpt><trkpt lat="-26.747650676971404" lon="115.10203159325671"><ele>221.0</ele><time>2026-04-15T07:34:10Z</time></trkpt><trkpt lat="-26.747579313224055" lon="115.10171481360548"><ele>220.5</ele><time>2026-04-15T07:34:11Z</time></trkpt><trkpt lat="-26.747504468651417" lon="115.10140079758875"><ele>220.0</ele><time>2026-04-15T07:34:12Z</time></trkpt><trkpt lat="-26.74743049844908" lon="115.10108886657733"><ele>220.0</ele><time>2026-04-15T07:34:13Z</time></trkpt><trkpt lat="-26.747356002991715" lon="115.10077732833432"><ele>220.0</ele><time>2026-04-15T07:34:14Z</time></trkpt><trkpt lat="-26.747281216550505" lon="115.10046708434042"><ele>220.0</ele><time>2026-04-15T07:34:15Z</time></trkpt><trkpt lat="-26.747207050447606" lon="115.10015181645045"><ele>220.0</ele><time>2026-04-15T07:34:16Z</time></trkpt><trkpt lat="-26.74713306245461" lon="115.09983314192708"><ele>220.0</ele><time>2026-04-15T07:34:17Z</time></trkpt><trkpt lat="-26.74705901152925" lon="115.09950849228954"><ele>220.0</ele><time>2026-04-15T07:34:18Z</time></trkpt><trkpt lat="-26.746987206401403" lon="115.09919014158116"><ele>220.0</ele><time>2026-04-15T07:34:19Z</time></trkpt><trkpt lat="-26.74691296276262" lon="115.0988677159317"><ele>220.0</ele><time>2026-04-15T07:34:20Z</time></trkpt><trkpt lat="-26.746839454031228" lon="115.09854506549715"><ele>219.5</ele><time>2026-04-15T07:34:21Z</time></trkpt><trkpt lat="-26.746762565711762" lon="115.09822376735455"><ele>219.0</ele><time>2026-04-15T07:34:22Z</time></trkpt><trkpt lat="-26.746684405147537" lon="115.09790154289476"><ele>219.0</ele><time>2026-04-15T07:34:23Z</time></trkpt><trkpt lat="-26.746607387182923" lon="115.0975789101391"><ele>219.0</ele><time>2026-04-15T07:34:24Z</time></trkpt><trkpt lat="-26.746530330664253" lon="115.09725246507301"><ele>218.5</ele><time>2026-04-15T07:34:25Z</time></trkpt><trkpt lat="-26.746455315102434" lon="115.09692762375174"><ele>218.0</ele><time>2026-04-15T07:34:26Z</time></trkpt><trkpt lat="-26.74638122588658" lon="115.09659795451425"><ele>217.5</ele><time>2026-04-15T07:34:27Z</time></trkpt><trkpt lat="-26.746307604655748" lon="115.0962704847826"><ele>217.0</ele><time>2026-04-15T07:34:28Z</time></trkpt><trkpt lat="-26.746232799520065" lon="115.09594733047672"><ele>216.5</ele><time>2026-04-15T07:34:29Z</time></trkpt><trkpt lat="-26.7461561609053" lon="115.09561750245818"><ele>216.0</ele><time>2026-04-15T07:34:30Z</time></trkpt><trkpt lat="-26.74607872439751" lon="115.09529065699913"><ele>216.0</ele><time>2026-04-15T07:34:31Z</time></trkpt><trkpt lat="-26.746000558753547" lon="115.09495999657244"><ele>216.0</ele><time>2026-04-15T07:34:32Z</time></trkpt><trkpt lat="-26.745925990807663" lon="115.09463118673011"><ele>216.5</ele><time>2026-04-15T07:34:33Z</time></trkpt><trkpt lat="-26.74585137774636" lon="115.09429460575636"><ele>217.0</ele><time>2026-04-15T07:34:34Z</time></trkpt><trkpt lat="-26.74577211339843" lon="115.09396201328012"><ele>216.0</ele><time>2026-04-15T07:34:35Z</time></trkpt><trkpt lat="-26.745693666969473" lon="115.09363349246831"><ele>215.0</ele><time>2026-04-15T07:34:36Z</time></trkpt><trkpt lat="-26.74561800603331" lon="115.09330398007222"><ele>214.5</ele><time>2026-04-15T07:34:37Z</time></trkpt><trkpt lat="-26.745543151328665" lon="115.09297531808154"><ele>214.0</ele><time>2026-04-15T07:34:38Z</time></trkpt><trkpt lat="-26.745467757923464" lon="115.09264641464537"><ele>213.0</ele><time>2026-04-15T07:34:39Z</time></trkpt><trkpt lat="-26.745391285980844" lon="115.09231985637406"><ele>212.0</ele><time>2026-04-15T07:34:40Z</time></trkpt><trkpt lat="-26.74531389112402" lon="115.09199276609382"><ele>212.0</ele><time>2026-04-15T07:34:41Z</time></trkpt><trkpt lat="-26.745236591212844" lon="115.09166711204911"><ele>212.0</ele><time>2026-04-15T07:34:42Z</time></trkpt><trkpt lat="-26.745158133841386" lon="115.09133684881311"><ele>211.5</ele><time>2026-04-15T07:34:43Z</time></trkpt><trkpt lat="-26.7450795848639" lon="115.09100683156862"><ele>211.0</ele><time>2026-04-15T07:34:44Z</time></trkpt><trkpt lat="-26.745000358399196" lon="115.09067323358254"><ele>210.5</ele><time>2026-04-15T07:34:45Z</time></trkpt><trkpt lat="-26.744923033815848" lon="115.0903424913156"><ele>210.0</ele><time>2026-04-15T07:34:46Z</time></trkpt><trkpt lat="-26.744847180165394" lon="115.09001748766795"><ele>211.0</ele><time>2026-04-15T07:34:47Z</time></trkpt><trkpt lat="-26.744775344295796" lon="115.08968784470433"><ele>212.0</ele><time>2026-04-15T07:34:48Z</time></trkpt><trkpt lat="-26.74470186579056" lon="115.0893567605572"><ele>210.5</ele><time>2026-04-15T07:34:49Z</time></trkpt><trkpt lat="-26.744624670137142" lon="115.08902858569805"><ele>209.0</ele><time>2026-04-15T07:34:50Z</time></trkpt><trkpt lat="-26.744545775994315" lon="115.08869951758335"><ele>209.0</ele><time>2026-04-15T07:34:51Z</time></trkpt><trkpt lat="-26.744470500537048" lon="115.08837594493191"><ele>209.0</ele><time>2026-04-15T07:34:52Z</time></trkpt><trkpt lat="-26.744396571250718" lon="115.08804783076047"><ele>208.5</ele><time>2026-04-15T07:34:53Z</time></trkpt><trkpt lat="-26.74432124631219" lon="115.08771950482077"><ele>208.0</ele><time>2026-04-15T07:34:54Z</time></trkpt><trkpt lat="-26.744245055543953" lon="115.08739509238404"><ele>207.5</ele><time>2026-04-15T07:34:55Z</time></trkpt><trkpt lat="-26.744168433130998" lon="115.08707074835058"><ele>207.0</ele><time>2026-04-15T07:34:56Z</time></trkpt><trkpt lat="-26.74408979155892" lon="115.08674525219165"><ele>206.0</ele><time>2026-04-15T07:34:57Z</time></trkpt><trkpt lat="-26.744014493430594" lon="115.08642329234956"><ele>205.0</ele><time>2026-04-15T07:34:58Z</time></trkpt><trkpt lat="-26.743942279606994" lon="115.08610317581422"><ele>205.0</ele><time>2026-04-15T07:34:59Z</time></trkpt><trkpt lat="-26.743873669952578" lon="115.08578525356684"><ele>205.0</ele><time>2026-04-15T07:35:00Z</time></trkpt><trkpt lat="-26.743807086969408" lon="115.08547310687148"><ele>204.5</ele><time>2026-04-15T07:35:01Z</time></trkpt><trkpt lat="-26.743738291489464" lon="115.08515231893135"><ele>204.0</ele><time>2026-04-15T07:35:02Z</time></trkpt><trkpt lat="-26.743665449477216" lon="115.08483429269627"><ele>204.0</ele><time>2026-04-15T07:35:03Z</time></trkpt><trkpt lat="-26.743588494234974" lon="115.0845168929411"><ele>204.0</ele><time>2026-04-15T07:35:04Z</time></trkpt><trkpt lat="-26.743510667726888" lon="115.08419926452676"><ele>203.5</ele><time>2026-04-15T07:35:05Z</time></trkpt><trkpt lat="-26.743433897624975" lon="115.08388301786042"><ele>203.0</ele><time>2026-04-15T07:35:06Z</time></trkpt><trkpt lat="-26.74335818278004" lon="115.08356726589017"><ele>202.0</ele><time>2026-04-15T07:35:07Z</time></trkpt><trkpt lat="-26.743284425735755" lon="115.08325286038915"><ele>201.0</ele><time>2026-04-15T07:35:08Z</time></trkpt><trkpt lat="-26.743209913916825" lon="115.08293852906756"><ele>201.0</ele><time>2026-04-15T07:35:09Z</time></trkpt><trkpt lat="-26.74313610254441" lon="115.08262387207012"><ele>201.0</ele><time>2026-04-15T07:35:10Z</time></trkpt><trkpt lat="-26.743061055937613" lon="115.08231088814271"><ele>201.5</ele><time>2026-04-15T07:35:11Z</time></trkpt><trkpt lat="-26.742986520767456" lon="115.08199989562627"><ele>202.0</ele><time>2026-04-15T07:35:12Z</time></trkpt><trkpt lat="-26.742914663145157" lon="115.08168619034139"><ele>201.5</ele><time>2026-04-15T07:35:13Z</time></trkpt><trkpt lat="-26.742845998144922" lon="115.08137362410122"><ele>201.0</ele><time>2026-04-15T07:35:14Z</time></trkpt><trkpt lat="-26.74277627563967" lon="115.08105210646498"><ele>202.0</ele><time>2026-04-15T07:35:15Z</time></trkpt><trkpt lat="-26.742704506772" lon="115.0807450967827"><ele>203.0</ele><time>2026-04-15T07:35:16Z</time></trkpt><trkpt lat="-26.742632103181503" lon="115.08043415273393"><ele>203.0</ele><time>2026-04-15T07:35:17Z</time></trkpt><trkpt lat="-26.742558854160503" lon="115.08012569516173"><ele>203.0</ele><time>2026-04-15T07:35:18Z</time></trkpt><trkpt lat="-26.742487060335524" lon="115.07981194153508"><ele>202.5</ele><time>2026-04-15T07:35:19Z</time></trkpt><trkpt lat="-26.74241391877946" lon="115.07950317877746"><ele>202.0</ele><time>2026-04-15T07:35:20Z</time></trkpt><trkpt lat="-26.74234095710925" lon="115.07919167447253"><ele>202.0</ele><time>2026-04-15T07:35:21Z</time></trkpt><trkpt lat="-26.742270190659834" lon="115.07888097019296"><ele>202.0</ele><time>2026-04-15T07:35:22Z</time></trkpt><trkpt lat="-26.742200178180283" lon="115.07857286879731"><ele>202.0</ele><time>2026-04-15T07:35:23Z</time></trkpt><trkpt lat="-26.74213065089795" lon="115.07826388148324"><ele>202.0</ele><time>2026-04-15T07:35:24Z</time></trkpt><trkpt lat="-26.742057245111642" lon="115.0779520617702"><ele>202.0</ele><time>2026-04-15T07:35:25Z</time></trkpt><trkpt lat="-26.7419797123527" lon="115.0776434469511"><ele>202.0</ele><time>2026-04-15T07:35:26Z</time></trkpt><trkpt lat="-26.741903448408678" lon="115.07732942770247"><ele>202.0</ele><time>2026-04-15T07:35:27Z</time></trkpt><trkpt lat="-26.74182965045512" lon="115.07701307741509"><ele>202.0</ele><time>2026-04-15T07:35:28Z</time></trkpt><trkpt lat="-26.741757808380626" lon="115.07669748847624"><ele>202.5</ele><time>2026-04-15T07:35:29Z</time></trkpt><trkpt lat="-26.741686751600053" lon="115.07638409833979"><ele>203.0</ele><time>2026-04-15T07:35:30Z</time></trkpt><trkpt lat="-26.741615311812406" lon="115.07606734136307"><ele>204.0</ele><time>2026-04-15T07:35:31Z</time></trkpt><trkpt lat="-26.741543159703067" lon="115.07575427620931"><ele>205.0</ele><time>2026-04-15T07:35:32Z</time></trkpt><trkpt lat="-26.741471561251238" lon="115.07544128691525"><ele>205.0</ele><time>2026-04-15T07:35:33Z</time></trkpt><trkpt lat="-26.741399883013152" lon="115.07513158335797"><ele>205.0</ele><time>2026-04-15T07:35:34Z</time></trkpt><trkpt lat="-26.74125632910554" lon="115.07452070352929"><ele>205.0</ele><time>2026-04-15T07:35:36Z</time></trkpt><trkpt lat="-26.741181682370907" lon="115.07422285809709"><ele>205.0</ele><time>2026-04-15T07:35:37Z</time></trkpt><trkpt lat="-26.74110923940729" lon="115.07392778347678"><ele>207.5</ele><time>2026-04-15T07:35:38Z</time></trkpt><trkpt lat="-26.741035940251866" lon="115.07362906400603"><ele>210.0</ele><time>2026-04-15T07:35:39Z</time></trkpt><trkpt lat="-26.74096859600843" lon="115.07332796715797"><ele>211.0</ele><time>2026-04-15T07:35:40Z</time></trkpt><trkpt lat="-26.740901271390005" lon="115.07302822865189"><ele>212.0</ele><time>2026-04-15T07:35:41Z</time></trkpt><trkpt lat="-26.74083533346093" lon="115.07272917604179"><ele>211.5</ele><time>2026-04-15T07:35:42Z</time></trkpt><trkpt lat="-26.740770410143032" lon="115.07243719442383"><ele>211.0</ele><time>2026-04-15T07:35:43Z</time></trkpt><trkpt lat="-26.740700586035803" lon="115.07214717320187"><ele>211.0</ele><time>2026-04-15T07:35:44Z</time></trkpt><trkpt lat="-26.740633271771458" lon="115.07185832879652"><ele>211.0</ele><time>2026-04-15T07:35:45Z</time></trkpt><trkpt lat="-26.740563147524536" lon="115.071571624999"><ele>212.0</ele><time>2026-04-15T07:35:46Z</time></trkpt><trkpt lat="-26.74049627781343" lon="115.07128148079794"><ele>213.0</ele><time>2026-04-15T07:35:47Z</time></trkpt><trkpt lat="-26.740428460746568" lon="115.07099331907554"><ele>214.0</ele><time>2026-04-15T07:35:48Z</time></trkpt><trkpt lat="-26.74036239399132" lon="115.07070525126889"><ele>215.0</ele><time>2026-04-15T07:35:49Z</time></trkpt><trkpt lat="-26.740297018132946" lon="115.0704108877973"><ele>215.0</ele><time>2026-04-15T07:35:50Z</time></trkpt><trkpt lat="-26.740230122219508" lon="115.07011770784862"><ele>215.0</ele><time>2026-04-15T07:35:51Z</time></trkpt><trkpt lat="-26.740161439839323" lon="115.06981899749243"><ele>216.0</ele><time>2026-04-15T07:35:52Z</time></trkpt><trkpt lat="-26.74009406276958" lon="115.06951795336322"><ele>217.0</ele><time>2026-04-15T07:35:53Z</time></trkpt><trkpt lat="-26.74002821611584" lon="115.06922246270837"><ele>217.5</ele><time>2026-04-15T07:35:54Z</time></trkpt><trkpt lat="-26.73995846530679" lon="115.06893446706911"><ele>218.0</ele><time>2026-04-15T07:35:55Z</time></trkpt><trkpt lat="-26.73988610959628" lon="115.06864489447638"><ele>218.0</ele><time>2026-04-15T07:35:56Z</time></trkpt><trkpt lat="-26.73981575743559" lon="115.06835564327541"><ele>218.0</ele><time>2026-04-15T07:35:57Z</time></trkpt><trkpt lat="-26.739744436061645" lon="115.06806067763173"><ele>219.0</ele><time>2026-04-15T07:35:58Z</time></trkpt><trkpt lat="-26.73967468316326" lon="115.06776820916785"><ele>220.0</ele><time>2026-04-15T07:35:59Z</time></trkpt><trkpt lat="-26.73960211137367" lon="115.06746479039128"><ele>222.0</ele><time>2026-04-15T07:36:00Z</time></trkpt><trkpt lat="-26.73953224715764" lon="115.06716033720883"><ele>224.0</ele><time>2026-04-15T07:36:01Z</time></trkpt><trkpt lat="-26.73946102875608" lon="115.0668587199847"><ele>224.0</ele><time>2026-04-15T07:36:02Z</time></trkpt><trkpt lat="-26.73939128071025" lon="115.06656215168545"><ele>224.0</ele><time>2026-04-15T07:36:03Z</time></trkpt><trkpt lat="-26.739319237757005" lon="115.06626390882064"><ele>224.0</ele><time>2026-04-15T07:36:04Z</time></trkpt><trkpt lat="-26.739247540064003" lon="115.06596735421822"><ele>224.0</ele><time>2026-04-15T07:36:05Z</time></trkpt><trkpt lat="-26.739179254122483" lon="115.06567569709905"><ele>224.0</ele><time>2026-04-15T07:36:06Z</time></trkpt><trkpt lat="-26.739112884987446" lon="115.0653898077866"><ele>224.0</ele><time>2026-04-15T07:36:07Z</time></trkpt><trkpt lat="-26.73904581360289" lon="115.06510324438585"><ele>224.0</ele><time>2026-04-15T07:36:08Z</time></trkpt><trkpt lat="-26.738978134747416" lon="115.06482751044123"><ele>224.0</ele><time>2026-04-15T07:36:09Z</time></trkpt><trkpt lat="-26.738911325561535" lon="115.06454286002645"><ele>224.0</ele><time>2026-04-15T07:36:10Z</time></trkpt><trkpt lat="-26.738842965426397" lon="115.06425599847799"><ele>224.0</ele><time>2026-04-15T07:36:11Z</time></trkpt><trkpt lat="-26.738777034942697" lon="115.06396494188569"><ele>224.0</ele><time>2026-04-15T07:36:12Z</time></trkpt><trkpt lat="-26.73871379818383" lon="115.06367888880062"><ele>224.0</ele><time>2026-04-15T07:36:13Z</time></trkpt><trkpt lat="-26.738651107450238" lon="115.06339055600482"><ele>223.5</ele><time>2026-04-15T07:36:14Z</time></trkpt><trkpt lat="-26.738588298275094" lon="115.06311388832194"><ele>223.0</ele><time>2026-04-15T07:36:15Z</time></trkpt><trkpt lat="-26.73852332735306" lon="115.06283311611001"><ele>223.0</ele><time>2026-04-15T07:36:16Z</time></trkpt><trkpt lat="-26.73845734537048" lon="115.06254380538812"><ele>223.0</ele><time>2026-04-15T07:36:17Z</time></trkpt><trkpt lat="-26.73839184409389" lon="115.06225436913726"><ele>222.0</ele><time>2026-04-15T07:36:18Z</time></trkpt><trkpt lat="-26.73832715425031" lon="115.0619687205922"><ele>221.0</ele><time>2026-04-15T07:36:19Z</time></trkpt><trkpt lat="-26.73825971270275" lon="115.06168041914212"><ele>221.5</ele><time>2026-04-15T07:36:20Z</time></trkpt><trkpt lat="-26.73818810365589" lon="115.06139057557782"><ele>222.0</ele><time>2026-04-15T07:36:21Z</time></trkpt><trkpt lat="-26.738119648123266" lon="115.06110248165113"><ele>222.0</ele><time>2026-04-15T07:36:22Z</time></trkpt><trkpt lat="-26.738049257204967" lon="115.0608123677128"><ele>222.0</ele><time>2026-04-15T07:36:23Z</time></trkpt><trkpt lat="-26.73797769492179" lon="115.06051505261716"><ele>221.0</ele><time>2026-04-15T07:36:24Z</time></trkpt><trkpt lat="-26.737906120396133" lon="115.06022165285968"><ele>220.0</ele><time>2026-04-15T07:36:25Z</time></trkpt><trkpt lat="-26.73783762788406" lon="115.05992862772214"><ele>220.0</ele><time>2026-04-15T07:36:26Z</time></trkpt><trkpt lat="-26.73777038744482" lon="115.05963419521102"><ele>220.0</ele><time>2026-04-15T07:36:27Z</time></trkpt><trkpt lat="-26.737702783422492" lon="115.05933584750157"><ele>219.5</ele><time>2026-04-15T07:36:28Z</time></trkpt><trkpt lat="-26.73763601771527" lon="115.05903438333652"><ele>219.0</ele><time>2026-04-15T07:36:29Z</time></trkpt><trkpt lat="-26.737568343312947" lon="115.0587356588741"><ele>219.0</ele><time>2026-04-15T07:36:30Z</time></trkpt><trkpt lat="-26.737496090767312" lon="115.05843018777084"><ele>219.0</ele><time>2026-04-15T07:36:31Z</time></trkpt><trkpt lat="-26.737428545624557" lon="115.05812919482072"><ele>218.5</ele><time>2026-04-15T07:36:32Z</time></trkpt><trkpt lat="-26.737357843269514" lon="115.05782694153156"><ele>218.0</ele><time>2026-04-15T07:36:33Z</time></trkpt><trkpt lat="-26.73728700472493" lon="115.05752691790427"><ele>217.0</ele><time>2026-04-15T07:36:34Z</time></trkpt><trkpt lat="-26.737215447155148" lon="115.05723177764955"><ele>216.0</ele><time>2026-04-15T07:36:35Z</time></trkpt><trkpt lat="-26.73714677960824" lon="115.05693738554213"><ele>216.0</ele><time>2026-04-15T07:36:36Z</time></trkpt><trkpt lat="-26.737077938617524" lon="115.05664193003525"><ele>216.0</ele><time>2026-04-15T07:36:37Z</time></trkpt><trkpt lat="-26.73700846929403" lon="115.05634403854553"><ele>215.0</ele><time>2026-04-15T07:36:38Z</time></trkpt><trkpt lat="-26.736936801787692" lon="115.05604921896133"><ele>214.0</ele><time>2026-04-15T07:36:39Z</time></trkpt><trkpt lat="-26.736861102902267" lon="115.05575299145913"><ele>213.5</ele><time>2026-04-15T07:36:40Z</time></trkpt><trkpt lat="-26.736786375529075" lon="115.0554532598859"><ele>213.0</ele><time>2026-04-15T07:36:41Z</time></trkpt><trkpt lat="-26.736714139609308" lon="115.05515157708251"><ele>213.0</ele><time>2026-04-15T07:36:42Z</time></trkpt><trkpt lat="-26.736644327196267" lon="115.05484708304192"><ele>213.0</ele><time>2026-04-15T07:36:43Z</time></trkpt><trkpt lat="-26.73657368013621" lon="115.05453659607177"><ele>213.0</ele><time>2026-04-15T07:36:44Z</time></trkpt><trkpt lat="-26.736502972824212" lon="115.05423273672118"><ele>213.0</ele><time>2026-04-15T07:36:45Z</time></trkpt><trkpt lat="-26.736434328437355" lon="115.05392721135055"><ele>213.0</ele><time>2026-04-15T07:36:46Z</time></trkpt><trkpt lat="-26.73636609721876" lon="115.05362470769857"><ele>213.0</ele><time>2026-04-15T07:36:47Z</time></trkpt><trkpt lat="-26.73629241253956" lon="115.05332085649914"><ele>212.5</ele><time>2026-04-15T07:36:48Z</time></trkpt><trkpt lat="-26.73621669324921" lon="115.0530125610919"><ele>212.0</ele><time>2026-04-15T07:36:49Z</time></trkpt><trkpt lat="-26.73613788325611" lon="115.05270387770938"><ele>212.0</ele><time>2026-04-15T07:36:50Z</time></trkpt><trkpt lat="-26.736063378821378" lon="115.05239262813177"><ele>212.0</ele><time>2026-04-15T07:36:51Z</time></trkpt><trkpt lat="-26.735990808353275" lon="115.05207981173572"><ele>211.5</ele><time>2026-04-15T07:36:52Z</time></trkpt><trkpt lat="-26.7359156252166" lon="115.05177212574611"><ele>211.0</ele><time>2026-04-15T07:36:53Z</time></trkpt><trkpt lat="-26.73584156364325" lon="115.05146662176585"><ele>210.0</ele><time>2026-04-15T07:36:54Z</time></trkpt><trkpt lat="-26.735769469307005" lon="115.05116197412917"><ele>209.0</ele><time>2026-04-15T07:36:55Z</time></trkpt><trkpt lat="-26.735698324612226" lon="115.0508545521809"><ele>209.5</ele><time>2026-04-15T07:36:56Z</time></trkpt><trkpt lat="-26.735625629900706" lon="115.05054453615672"><ele>210.0</ele><time>2026-04-15T07:36:57Z</time></trkpt><trkpt lat="-26.7355524688164" lon="115.05023743515689"><ele>210.0</ele><time>2026-04-15T07:36:58Z</time></trkpt><trkpt lat="-26.735481934383913" lon="115.04993342051657"><ele>210.0</ele><time>2026-04-15T07:36:59Z</time></trkpt><trkpt lat="-26.735410997305433" lon="115.04962599108296"><ele>210.0</ele><time>2026-04-15T07:37:00Z</time></trkpt><trkpt lat="-26.73534024929187" lon="115.04931928994883"><ele>210.0</ele><time>2026-04-15T07:37:01Z</time></trkpt><trkpt lat="-26.73526782258309" lon="115.04901244388117"><ele>210.0</ele><time>2026-04-15T07:37:02Z</time></trkpt><trkpt lat="-26.735192736407456" lon="115.04870102244443"><ele>210.0</ele><time>2026-04-15T07:37:03Z</time></trkpt><trkpt lat="-26.735118820009674" lon="115.0483881217512"><ele>209.5</ele><time>2026-04-15T07:37:04Z</time></trkpt><trkpt lat="-26.735046313731427" lon="115.04807434504966"><ele>209.0</ele><time>2026-04-15T07:37:05Z</time></trkpt><trkpt lat="-26.73497810144773" lon="115.04776592452262"><ele>209.5</ele><time>2026-04-15T07:37:06Z</time></trkpt><trkpt lat="-26.734905724617665" lon="115.0474557570164"><ele>210.0</ele><time>2026-04-15T07:37:07Z</time></trkpt><trkpt lat="-26.734834544010667" lon="115.04714586621577"><ele>210.0</ele><time>2026-04-15T07:37:08Z</time></trkpt><trkpt lat="-26.734763809814044" lon="115.04683774743944"><ele>210.0</ele><time>2026-04-15T07:37:09Z</time></trkpt><trkpt lat="-26.7346935737659" lon="115.04653706797875"><ele>210.5</ele><time>2026-04-15T07:37:10Z</time></trkpt><trkpt lat="-26.734623447454112" lon="115.04623375142648"><ele>211.0</ele><time>2026-04-15T07:37:11Z</time></trkpt><trkpt lat="-26.734548009531302" lon="115.0459308249673"><ele>212.0</ele><time>2026-04-15T07:37:12Z</time></trkpt><trkpt lat="-26.73447408344951" lon="115.04562424611618"><ele>213.0</ele><time>2026-04-15T07:37:13Z</time></trkpt><trkpt lat="-26.73440140895447" lon="115.0453155254689"><ele>212.5</ele><time>2026-04-15T07:37:14Z</time></trkpt><trkpt lat="-26.73433370166052" lon="115.0450080118264"><ele>212.0</ele><time>2026-04-15T07:37:15Z</time></trkpt><trkpt lat="-26.73426771865512" lon="115.04470178387788"><ele>212.0</ele><time>2026-04-15T07:37:16Z</time></trkpt><trkpt lat="-26.734198052231406" lon="115.04439676774284"><ele>212.0</ele><time>2026-04-15T07:37:17Z</time></trkpt><trkpt lat="-26.734126379643016" lon="115.04409314657941"><ele>213.0</ele><time>2026-04-15T07:37:18Z</time></trkpt><trkpt lat="-26.734055810494375" lon="115.04378131313821"><ele>214.0</ele><time>2026-04-15T07:37:19Z</time></trkpt><trkpt lat="-26.733984911910987" lon="115.04347070755504"><ele>214.5</ele><time>2026-04-15T07:37:20Z</time></trkpt><trkpt lat="-26.73391291028287" lon="115.04315490743033"><ele>215.0</ele><time>2026-04-15T07:37:21Z</time></trkpt><trkpt lat="-26.733841049021645" lon="115.04283770698778"><ele>215.0</ele><time>2026-04-15T07:37:22Z</time></trkpt><trkpt lat="-26.733769773493336" lon="115.04252315172808"><ele>215.0</ele><time>2026-04-15T07:37:23Z</time></trkpt><trkpt lat="-26.733696790156895" lon="115.0422129991274"><ele>215.5</ele><time>2026-04-15T07:37:24Z</time></trkpt><trkpt lat="-26.733624070004524" lon="115.04190716204394"><ele>216.0</ele><time>2026-04-15T07:37:25Z</time></trkpt><trkpt lat="-26.73354960127164" lon="115.04160247749418"><ele>216.5</ele><time>2026-04-15T07:37:26Z</time></trkpt><trkpt lat="-26.733479396109615" lon="115.04130519988053"><ele>217.0</ele><time>2026-04-15T07:37:27Z</time></trkpt><trkpt lat="-26.73340817141639" lon="115.04100793845997"><ele>217.5</ele><time>2026-04-15T07:37:28Z</time></trkpt><trkpt lat="-26.733340198171614" lon="115.04071728375543"><ele>218.0</ele><time>2026-04-15T07:37:29Z</time></trkpt><trkpt lat="-26.733271013738605" lon="115.04042210954012"><ele>218.0</ele><time>2026-04-15T07:37:29.999Z</time></trkpt><trkpt lat="-26.733203625285846" lon="115.04013048278924"><ele>218.0</ele><time>2026-04-15T07:37:30.999Z</time></trkpt><trkpt lat="-26.733135342974272" lon="115.03983283625494"><ele>217.0</ele><time>2026-04-15T07:37:31.999Z</time></trkpt><trkpt lat="-26.733065825923525" lon="115.03953174264186"><ele>216.0</ele><time>2026-04-15T07:37:32.999Z</time></trkpt><trkpt lat="-26.732994673420148" lon="115.03923015775979"><ele>215.5</ele><time>2026-04-15T07:37:33.999Z</time></trkpt><trkpt lat="-26.732922722779108" lon="115.03891927513224"><ele>215.0</ele><time>2026-04-15T07:37:34.999Z</time></trkpt><trkpt lat="-26.732849099077008" lon="115.03860204446043"><ele>215.5</ele><time>2026-04-15T07:37:35.999Z</time></trkpt><trkpt lat="-26.732772525099527" lon="115.03827846193481"><ele>216.0</ele><time>2026-04-15T07:37:36.999Z</time></trkpt><trkpt lat="-26.73269675026239" lon="115.03795306095168"><ele>216.0</ele><time>2026-04-15T07:37:37.999Z</time></trkpt><trkpt lat="-26.732619959057512" lon="115.03762621112334"><ele>216.0</ele><time>2026-04-15T07:37:38.999Z</time></trkpt><trkpt lat="-26.732544967084664" lon="115.03730239750085"><ele>216.0</ele><time>2026-04-15T07:37:39.999Z</time></trkpt><trkpt lat="-26.73246992739229" lon="115.03697618649515"><ele>216.0</ele><time>2026-04-15T07:37:40.999Z</time></trkpt><trkpt lat="-26.732390208487164" lon="115.03665287456693"><ele>215.0</ele><time>2026-04-15T07:37:41.999Z</time></trkpt><trkpt lat="-26.73230989311692" lon="115.0363439891255"><ele>214.0</ele><time>2026-04-15T07:37:42.999Z</time></trkpt><trkpt lat="-26.732238602020953" lon="115.03603339249712"><ele>214.5</ele><time>2026-04-15T07:37:43.999Z</time></trkpt><trkpt lat="-26.732167337844054" lon="115.03571650290895"><ele>215.0</ele><time>2026-04-15T07:37:44.999Z</time></trkpt><trkpt lat="-26.732094889264985" lon="115.03539633965916"><ele>215.0</ele><time>2026-04-15T07:37:45.999Z</time></trkpt><trkpt lat="-26.732020411577206" lon="115.03507774410771"><ele>215.0</ele><time>2026-04-15T07:37:46.999Z</time></trkpt><trkpt lat="-26.7319482954928" lon="115.03476060008227"><ele>216.0</ele><time>2026-04-15T07:37:47.999Z</time></trkpt><trkpt lat="-26.731877104345074" lon="115.03443967013591"><ele>217.0</ele><time>2026-04-15T07:37:48.999Z</time></trkpt><trkpt lat="-26.731802685148676" lon="115.03412635201913"><ele>217.5</ele><time>2026-04-15T07:37:49.999Z</time></trkpt><trkpt lat="-26.73172991670235" lon="115.03381197708245"><ele>218.0</ele><time>2026-04-15T07:37:50.999Z</time></trkpt><trkpt lat="-26.73165640624472" lon="115.03350136506444"><ele>217.5</ele><time>2026-04-15T07:37:51.999Z</time></trkpt><trkpt lat="-26.731581309541514" lon="115.03318903274041"><ele>217.0</ele><time>2026-04-15T07:37:52.999Z</time></trkpt><trkpt lat="-26.73150816877608" lon="115.03287818569859"><ele>217.0</ele><time>2026-04-15T07:37:53.999Z</time></trkpt><trkpt lat="-26.731434343580677" lon="115.03256462342851"><ele>217.0</ele><time>2026-04-15T07:37:55Z</time></trkpt><trkpt lat="-26.73136020039415" lon="115.03225089010787"><ele>217.5</ele><time>2026-04-15T07:37:56Z</time></trkpt><trkpt lat="-26.731285927782885" lon="115.03193856016473"><ele>218.0</ele><time>2026-04-15T07:37:57Z</time></trkpt><trkpt lat="-26.731210481956797" lon="115.03162326760986"><ele>219.0</ele><time>2026-04-15T07:37:58Z</time></trkpt><trkpt lat="-26.731136855730004" lon="115.03131129978554"><ele>220.0</ele><time>2026-04-15T07:37:59Z</time></trkpt><trkpt lat="-26.73106291406726" lon="115.03099778514493"><ele>219.0</ele><time>2026-04-15T07:38:00Z</time></trkpt><trkpt lat="-26.73098916944322" lon="115.03068155767377"><ele>218.0</ele><time>2026-04-15T07:38:01Z</time></trkpt><trkpt lat="-26.730915530952505" lon="115.0303671816054"><ele>218.0</ele><time>2026-04-15T07:38:02Z</time></trkpt><trkpt lat="-26.730840997494518" lon="115.03005171110121"><ele>218.0</ele><time>2026-04-15T07:38:03Z</time></trkpt><trkpt lat="-26.73076865579875" lon="115.0297388682137"><ele>219.0</ele><time>2026-04-15T07:38:04Z</time></trkpt><trkpt lat="-26.730694681344286" lon="115.02942702400557"><ele>220.0</ele><time>2026-04-15T07:38:05Z</time></trkpt><trkpt lat="-26.730619265834893" lon="115.02911257522726"><ele>220.0</ele><time>2026-04-15T07:38:06Z</time></trkpt><trkpt lat="-26.730545035661784" lon="115.02879922359953"><ele>220.0</ele><time>2026-04-15T07:38:07Z</time></trkpt><trkpt lat="-26.730465824119545" lon="115.02848599569"><ele>220.0</ele><time>2026-04-15T07:38:08Z</time></trkpt><trkpt lat="-26.730388636673545" lon="115.02817967411544"><ele>220.0</ele><time>2026-04-15T07:38:09Z</time></trkpt><trkpt lat="-26.730316727911685" lon="115.02787014641133"><ele>220.0</ele><time>2026-04-15T07:38:10Z</time></trkpt><trkpt lat="-26.730243448595072" lon="115.02756190125017"><ele>220.0</ele><time>2026-04-15T07:38:11Z</time></trkpt><trkpt lat="-26.730169607767632" lon="115.0272534105349"><ele>219.5</ele><time>2026-04-15T07:38:12Z</time></trkpt><trkpt lat="-26.730100491245953" lon="115.02694433052146"><ele>219.0</ele><time>2026-04-15T07:38:13Z</time></trkpt><trkpt lat="-26.730032647939268" lon="115.02663697536256"><ele>218.5</ele><time>2026-04-15T07:38:14Z</time></trkpt><trkpt lat="-26.729966926207933" lon="115.02632929125994"><ele>218.0</ele><time>2026-04-15T07:38:15Z</time></trkpt><trkpt lat="-26.729901355692576" lon="115.02602385178727"><ele>218.5</ele><time>2026-04-15T07:38:16Z</time></trkpt><trkpt lat="-26.729832350916755" lon="115.02571919130735"><ele>219.0</ele><time>2026-04-15T07:38:17Z</time></trkpt><trkpt lat="-26.729764273745715" lon="115.02542711385534"><ele>219.0</ele><time>2026-04-15T07:38:18Z</time></trkpt><trkpt lat="-26.729698147014332" lon="115.02514624747073"><ele>219.0</ele><time>2026-04-15T07:38:19Z</time></trkpt><trkpt lat="-26.729633655000686" lon="115.02488338852483"><ele>218.5</ele><time>2026-04-15T07:38:20Z</time></trkpt><trkpt lat="-26.72957508975595" lon="115.02463253291717"><ele>218.0</ele><time>2026-04-15T07:38:21Z</time></trkpt><trkpt lat="-26.729511527124593" lon="115.02437107590542"><ele>218.5</ele><time>2026-04-15T07:38:22Z</time></trkpt><trkpt lat="-26.729446962195563" lon="115.02409181575132"><ele>219.0</ele><time>2026-04-15T07:38:23Z</time></trkpt><trkpt lat="-26.729383241475876" lon="115.02381294682675"><ele>218.5</ele><time>2026-04-15T07:38:24Z</time></trkpt><trkpt lat="-26.729315493873997" lon="115.02352237594408"><ele>218.0</ele><time>2026-04-15T07:38:25Z</time></trkpt><trkpt lat="-26.72924688563447" lon="115.02322730692858"><ele>218.0</ele><time>2026-04-15T07:38:26Z</time></trkpt><trkpt lat="-26.729175402699926" lon="115.02292927487045"><ele>218.0</ele><time>2026-04-15T07:38:27Z</time></trkpt><trkpt lat="-26.7291026180339" lon="115.0226232645199"><ele>218.0</ele><time>2026-04-15T07:38:28Z</time></trkpt><trkpt lat="-26.729029024594915" lon="115.02231429965344"><ele>218.0</ele><time>2026-04-15T07:38:29Z</time></trkpt><trkpt lat="-26.728953718820947" lon="115.0219950637839"><ele>218.0</ele><time>2026-04-15T07:38:30Z</time></trkpt><trkpt lat="-26.72888073294435" lon="115.02167676237"><ele>218.0</ele><time>2026-04-15T07:38:31Z</time></trkpt><trkpt lat="-26.728806012000756" lon="115.0213573350308"><ele>218.0</ele><time>2026-04-15T07:38:32Z</time></trkpt><trkpt lat="-26.728729969948635" lon="115.02103759328273"><ele>218.0</ele><time>2026-04-15T07:38:33Z</time></trkpt><trkpt lat="-26.728653571444305" lon="115.02072060604344"><ele>218.0</ele><time>2026-04-15T07:38:34Z</time></trkpt><trkpt lat="-26.728577402739305" lon="115.02039832956001"><ele>218.0</ele><time>2026-04-15T07:38:35Z</time></trkpt><trkpt lat="-26.7285018592909" lon="115.02007469732607"><ele>219.0</ele><time>2026-04-15T07:38:36Z</time></trkpt><trkpt lat="-26.728427004637954" lon="115.0197541072617"><ele>220.0</ele><time>2026-04-15T07:38:37Z</time></trkpt><trkpt lat="-26.728351313619548" lon="115.01943193173152"><ele>219.5</ele><time>2026-04-15T07:38:38Z</time></trkpt><trkpt lat="-26.72827719738941" lon="115.019116754417"><ele>219.0</ele><time>2026-04-15T07:38:39Z</time></trkpt><trkpt lat="-26.72820477570994" lon="115.01880002788862"><ele>219.0</ele><time>2026-04-15T07:38:40Z</time></trkpt><trkpt lat="-26.728132391425355" lon="115.01848715320163"><ele>219.0</ele><time>2026-04-15T07:38:41Z</time></trkpt><trkpt lat="-26.72805650597777" lon="115.01817086601841"><ele>219.0</ele><time>2026-04-15T07:38:42Z</time></trkpt><trkpt lat="-26.72797881147599" lon="115.01785848112424"><ele>219.0</ele><time>2026-04-15T07:38:43Z</time></trkpt><trkpt lat="-26.72790162805915" lon="115.01754672557341"><ele>218.5</ele><time>2026-04-15T07:38:44Z</time></trkpt><trkpt lat="-26.72782611720217" lon="115.01723425139285"><ele>218.0</ele><time>2026-04-15T07:38:45Z</time></trkpt><trkpt lat="-26.727751330141235" lon="115.01691906651243"><ele>217.5</ele><time>2026-04-15T07:38:46Z</time></trkpt><trkpt lat="-26.72767895431253" lon="115.01660438585444"><ele>217.0</ele><time>2026-04-15T07:38:47Z</time></trkpt><trkpt lat="-26.727605851749168" lon="115.01628453477494"><ele>217.0</ele><time>2026-04-15T07:38:48Z</time></trkpt><trkpt lat="-26.727532096271634" lon="115.01596771579946"><ele>217.0</ele><time>2026-04-15T07:38:49Z</time></trkpt><trkpt lat="-26.727458103573234" lon="115.01564632251214"><ele>217.5</ele><time>2026-04-15T07:38:50Z</time></trkpt><trkpt lat="-26.727385291367817" lon="115.01532712091534"><ele>218.0</ele><time>2026-04-15T07:38:51Z</time></trkpt><trkpt lat="-26.72731131348588" lon="115.01500914576926"><ele>218.0</ele><time>2026-04-15T07:38:52Z</time></trkpt><trkpt lat="-26.727236605737378" lon="115.01469114099389"><ele>218.0</ele><time>2026-04-15T07:38:53Z</time></trkpt><trkpt lat="-26.72716516836963" lon="115.01437512403626"><ele>218.0</ele><time>2026-04-15T07:38:54Z</time></trkpt><trkpt lat="-26.727093080912528" lon="115.01405781813989"><ele>218.0</ele><time>2026-04-15T07:38:55Z</time></trkpt><trkpt lat="-26.727017914198637" lon="115.01373752980966"><ele>218.0</ele><time>2026-04-15T07:38:56Z</time></trkpt><trkpt lat="-26.726941290082987" lon="115.01341825354316"><ele>218.0</ele><time>2026-04-15T07:38:57Z</time></trkpt><trkpt lat="-26.726866515926606" lon="115.01309689210399"><ele>218.0</ele><time>2026-04-15T07:38:58Z</time></trkpt><trkpt lat="-26.726791081195653" lon="115.01277752037497"><ele>218.0</ele><time>2026-04-15T07:38:59Z</time></trkpt><trkpt lat="-26.72671260963505" lon="115.01245691084006"><ele>218.0</ele><time>2026-04-15T07:39:00Z</time></trkpt><trkpt lat="-26.726635512820923" lon="115.01213333411339"><ele>218.0</ele><time>2026-04-15T07:39:01Z</time></trkpt><trkpt lat="-26.726561106431543" lon="115.01180943031875"><ele>218.0</ele><time>2026-04-15T07:39:02Z</time></trkpt><trkpt lat="-26.72648585124444" lon="115.01148660482691"><ele>218.0</ele><time>2026-04-15T07:39:03Z</time></trkpt><trkpt lat="-26.726409390728982" lon="115.01115722402872"><ele>218.0</ele><time>2026-04-15T07:39:04Z</time></trkpt><trkpt lat="-26.72633214419546" lon="115.01083205405551"><ele>218.0</ele><time>2026-04-15T07:39:05Z</time></trkpt><trkpt lat="-26.726256964221385" lon="115.01050440518402"><ele>217.0</ele><time>2026-04-15T07:39:06Z</time></trkpt><trkpt lat="-26.72618168009669" lon="115.01017518646552"><ele>216.0</ele><time>2026-04-15T07:39:07Z</time></trkpt><trkpt lat="-26.726107279599443" lon="115.0098510362555"><ele>216.5</ele><time>2026-04-15T07:39:08Z</time></trkpt><trkpt lat="-26.726031737818733" lon="115.0095273123737"><ele>217.0</ele><time>2026-04-15T07:39:09Z</time></trkpt><trkpt lat="-26.725955286104377" lon="115.00920276080022"><ele>215.5</ele><time>2026-04-15T07:39:10Z</time></trkpt><trkpt lat="-26.72587925228807" lon="115.00888334283144"><ele>214.0</ele><time>2026-04-15T07:39:11Z</time></trkpt><trkpt lat="-26.725804481178145" lon="115.00856430593913"><ele>213.5</ele><time>2026-04-15T07:39:12Z</time></trkpt><trkpt lat="-26.72573044708362" lon="115.00824236583732"><ele>213.0</ele><time>2026-04-15T07:39:13Z</time></trkpt><trkpt lat="-26.725657807397063" lon="115.00792559666586"><ele>213.0</ele><time>2026-04-15T07:39:14Z</time></trkpt><trkpt lat="-26.72558291657875" lon="115.00760601324336"><ele>213.0</ele><time>2026-04-15T07:39:15Z</time></trkpt><trkpt lat="-26.725506145195226" lon="115.0072870272178"><ele>213.0</ele><time>2026-04-15T07:39:16Z</time></trkpt><trkpt lat="-26.725427878972624" lon="115.00696963345774"><ele>213.0</ele><time>2026-04-15T07:39:17Z</time></trkpt><trkpt lat="-26.725353563320656" lon="115.00665154769598"><ele>213.0</ele><time>2026-04-15T07:39:18Z</time></trkpt><trkpt lat="-26.725280469690563" lon="115.00633220299412"><ele>213.0</ele><time>2026-04-15T07:39:19Z</time></trkpt><trkpt lat="-26.725206058329817" lon="115.00601086370547"><ele>213.5</ele><time>2026-04-15T07:39:20Z</time></trkpt><trkpt lat="-26.725129449631797" lon="115.00568877205468"><ele>214.0</ele><time>2026-04-15T07:39:21Z</time></trkpt><trkpt lat="-26.725052182542967" lon="115.00536436372249"><ele>214.0</ele><time>2026-04-15T07:39:22Z</time></trkpt><trkpt lat="-26.724976649291012" lon="115.00504128474978"><ele>214.0</ele><time>2026-04-15T07:39:23Z</time></trkpt><trkpt lat="-26.724901140406757" lon="115.00471669752042"><ele>214.0</ele><time>2026-04-15T07:39:24Z</time></trkpt><trkpt lat="-26.724824048829202" lon="115.00439516658595"><ele>214.0</ele><time>2026-04-15T07:39:25Z</time></trkpt><trkpt lat="-26.72474627536739" lon="115.00407482812975"><ele>214.0</ele><time>2026-04-15T07:39:26Z</time></trkpt><trkpt lat="-26.724671616041462" lon="115.00375424649516"><ele>214.0</ele><time>2026-04-15T07:39:27Z</time></trkpt><trkpt lat="-26.72459871443353" lon="115.00342973885593"><ele>214.0</ele><time>2026-04-15T07:39:28Z</time></trkpt><trkpt lat="-26.724524999357364" lon="115.00310384990243"><ele>214.0</ele><time>2026-04-15T07:39:29Z</time></trkpt><trkpt lat="-26.724450514359038" lon="115.0027795807451"><ele>214.0</ele><time>2026-04-15T07:39:30Z</time></trkpt><trkpt lat="-26.72437500916718" lon="115.00245992656015"><ele>214.0</ele><time>2026-04-15T07:39:31Z</time></trkpt><trkpt lat="-26.724297259737476" lon="115.00213776969568"><ele>214.0</ele><time>2026-04-15T07:39:32Z</time></trkpt><trkpt lat="-26.72421754001164" lon="115.00181083728006"><ele>214.0</ele><time>2026-04-15T07:39:33Z</time></trkpt><trkpt lat="-26.72414094417205" lon="115.00148652565026"><ele>213.5</ele><time>2026-04-15T07:39:34Z</time></trkpt><trkpt lat="-26.724062324124795" lon="115.00116137382093"><ele>213.0</ele><time>2026-04-15T07:39:35Z</time></trkpt><trkpt lat="-26.7239838320941" lon="115.0008347869344"><ele>213.5</ele><time>2026-04-15T07:39:36Z</time></trkpt><trkpt lat="-26.723906765435625" lon="115.00050964695265"><ele>214.0</ele><time>2026-04-15T07:39:37Z</time></trkpt><trkpt lat="-26.723828157038646" lon="115.00018297608763"><ele>214.0</ele><time>2026-04-15T07:39:38Z</time></trkpt><trkpt lat="-26.723750322299217" lon="114.99985728090711"><ele>214.0</ele><time>2026-04-15T07:39:39Z</time></trkpt><trkpt lat="-26.723671466596368" lon="114.99953106931848"><ele>214.0</ele><time>2026-04-15T07:39:40Z</time></trkpt><trkpt lat="-26.723596134799024" lon="114.9992009645158"><ele>214.0</ele><time>2026-04-15T07:39:41Z</time></trkpt><trkpt lat="-26.723520005726925" lon="114.99887582707856"><ele>214.0</ele><time>2026-04-15T07:39:42Z</time></trkpt><trkpt lat="-26.723442897528997" lon="114.99855163816724"><ele>214.0</ele><time>2026-04-15T07:39:43Z</time></trkpt><trkpt lat="-26.723368865123003" lon="114.9982269504878"><ele>214.0</ele><time>2026-04-15T07:39:44Z</time></trkpt><trkpt lat="-26.723295327251698" lon="114.99789979312999"><ele>214.0</ele><time>2026-04-15T07:39:45Z</time></trkpt><trkpt lat="-26.723220653621627" lon="114.99757398259786"><ele>214.5</ele><time>2026-04-15T07:39:46Z</time></trkpt><trkpt lat="-26.723144493960525" lon="114.99724811063568"><ele>215.0</ele><time>2026-04-15T07:39:47Z</time></trkpt><trkpt lat="-26.723067739387627" lon="114.99692171089505"><ele>215.5</ele><time>2026-04-15T07:39:48Z</time></trkpt><trkpt lat="-26.72298951316964" lon="114.99659399862298"><ele>216.0</ele><time>2026-04-15T07:39:49Z</time></trkpt><trkpt lat="-26.722911087929237" lon="114.99626395053534"><ele>216.0</ele><time>2026-04-15T07:39:50Z</time></trkpt><trkpt lat="-26.72283232620689" lon="114.99593302297963"><ele>216.0</ele><time>2026-04-15T07:39:51Z</time></trkpt><trkpt lat="-26.722756528362943" lon="114.9956041662756"><ele>216.5</ele><time>2026-04-15T07:39:52Z</time></trkpt><trkpt lat="-26.722677271579823" lon="114.99527340969573"><ele>217.0</ele><time>2026-04-15T07:39:53Z</time></trkpt><trkpt lat="-26.722597577579336" lon="114.9949445170197"><ele>217.0</ele><time>2026-04-15T07:39:54Z</time></trkpt><trkpt lat="-26.72251710287361" lon="114.99462400696781"><ele>217.0</ele><time>2026-04-15T07:39:55Z</time></trkpt><trkpt lat="-26.722443769340753" lon="114.99431011019206"><ele>217.0</ele><time>2026-04-15T07:39:56Z</time></trkpt><trkpt lat="-26.722374556502512" lon="114.99399590361585"><ele>217.0</ele><time>2026-04-15T07:39:57Z</time></trkpt><trkpt lat="-26.722300588871757" lon="114.99368568292579"><ele>217.0</ele><time>2026-04-15T07:39:58Z</time></trkpt><trkpt lat="-26.72222886706911" lon="114.99338370887756"><ele>217.0</ele><time>2026-04-15T07:39:59Z</time></trkpt><trkpt lat="-26.72215963840214" lon="114.99307634323793"><ele>218.5</ele><time>2026-04-15T07:40:00Z</time></trkpt><trkpt lat="-26.72208859392844" lon="114.9927715370556"><ele>220.0</ele><time>2026-04-15T07:40:01Z</time></trkpt><trkpt lat="-26.72201983510803" lon="114.99246449204648"><ele>220.5</ele><time>2026-04-15T07:40:02Z</time></trkpt><trkpt lat="-26.721949340928063" lon="114.99216138247587"><ele>221.0</ele><time>2026-04-15T07:40:03Z</time></trkpt><trkpt lat="-26.721881889009317" lon="114.99186079161461"><ele>221.0</ele><time>2026-04-15T07:40:04Z</time></trkpt><trkpt lat="-26.72181315123538" lon="114.99155294635682"><ele>221.0</ele><time>2026-04-15T07:40:05Z</time></trkpt><trkpt lat="-26.721744371763638" lon="114.99125452628368"><ele>221.0</ele><time>2026-04-15T07:40:06Z</time></trkpt><trkpt lat="-26.7216751946586" lon="114.99094943398718"><ele>221.0</ele><time>2026-04-15T07:40:07Z</time></trkpt><trkpt lat="-26.721605057384167" lon="114.9906459545398"><ele>222.0</ele><time>2026-04-15T07:40:08Z</time></trkpt><trkpt lat="-26.72153498560792" lon="114.9903465791276"><ele>223.0</ele><time>2026-04-15T07:40:09Z</time></trkpt><trkpt lat="-26.721462641318514" lon="114.99003817232212"><ele>224.0</ele><time>2026-04-15T07:40:10Z</time></trkpt><trkpt lat="-26.721388860428632" lon="114.98973244994777"><ele>225.0</ele><time>2026-04-15T07:40:11Z</time></trkpt><trkpt lat="-26.721316476488486" lon="114.98942212546734"><ele>225.0</ele><time>2026-04-15T07:40:12Z</time></trkpt><trkpt lat="-26.72124262741966" lon="114.98911675738657"><ele>225.0</ele><time>2026-04-15T07:40:13Z</time></trkpt><trkpt lat="-26.721172354834653" lon="114.98881012002691"><ele>225.0</ele><time>2026-04-15T07:40:14Z</time></trkpt><trkpt lat="-26.72110160821848" lon="114.98849855441398"><ele>225.0</ele><time>2026-04-15T07:40:15Z</time></trkpt><trkpt lat="-26.72102851893131" lon="114.98819276662306"><ele>226.0</ele><time>2026-04-15T07:40:16Z</time></trkpt><trkpt lat="-26.720955407142554" lon="114.98788234878242"><ele>227.0</ele><time>2026-04-15T07:40:17Z</time></trkpt><trkpt lat="-26.720884277506187" lon="114.98757141462949"><ele>227.5</ele><time>2026-04-15T07:40:18Z</time></trkpt><trkpt lat="-26.72081062213784" lon="114.98726392667149"><ele>228.0</ele><time>2026-04-15T07:40:19Z</time></trkpt><trkpt lat="-26.720736966810385" lon="114.9869526989397"><ele>228.5</ele><time>2026-04-15T07:40:20Z</time></trkpt><trkpt lat="-26.72066118888649" lon="114.9866416036533"><ele>229.0</ele><time>2026-04-15T07:40:21Z</time></trkpt><trkpt lat="-26.720586753079797" lon="114.98633189135838"><ele>229.0</ele><time>2026-04-15T07:40:22Z</time></trkpt><trkpt lat="-26.720516156406404" lon="114.98601788291388"><ele>229.0</ele><time>2026-04-15T07:40:23Z</time></trkpt><trkpt lat="-26.72044242477037" lon="114.98570894947215"><ele>229.5</ele><time>2026-04-15T07:40:24Z</time></trkpt><trkpt lat="-26.72036544711767" lon="114.98539674179882"><ele>230.0</ele><time>2026-04-15T07:40:25Z</time></trkpt><trkpt lat="-26.720290451910163" lon="114.98507948192096"><ele>230.0</ele><time>2026-04-15T07:40:26Z</time></trkpt><trkpt lat="-26.720216668872332" lon="114.98476318724495"><ele>230.0</ele><time>2026-04-15T07:40:27Z</time></trkpt><trkpt lat="-26.72014191396956" lon="114.98444775537682"><ele>230.0</ele><time>2026-04-15T07:40:28Z</time></trkpt><trkpt lat="-26.72006653066319" lon="114.98412853704684"><ele>230.0</ele><time>2026-04-15T07:40:29Z</time></trkpt><trkpt lat="-26.719990623831972" lon="114.9838099348298"><ele>230.0</ele><time>2026-04-15T07:40:30Z</time></trkpt><trkpt lat="-26.719912746703166" lon="114.98348929659586"><ele>230.0</ele><time>2026-04-15T07:40:31Z</time></trkpt><trkpt lat="-26.719836228415296" lon="114.98317220793925"><ele>230.5</ele><time>2026-04-15T07:40:32Z</time></trkpt><trkpt lat="-26.719762599557594" lon="114.9828593874041"><ele>231.0</ele><time>2026-04-15T07:40:33Z</time></trkpt><trkpt lat="-26.719692045150442" lon="114.98253863986629"><ele>231.0</ele><time>2026-04-15T07:40:34Z</time></trkpt><trkpt lat="-26.7196195916923" lon="114.98222481570687"><ele>231.0</ele><time>2026-04-15T07:40:35Z</time></trkpt><trkpt lat="-26.719545121256566" lon="114.98190902490508"><ele>231.0</ele><time>2026-04-15T07:40:36Z</time></trkpt><trkpt lat="-26.719470305730127" lon="114.98159296240784"><ele>231.0</ele><time>2026-04-15T07:40:37Z</time></trkpt><trkpt lat="-26.719396685501547" lon="114.98128137089834"><ele>231.0</ele><time>2026-04-15T07:40:38Z</time></trkpt><trkpt lat="-26.71932353919619" lon="114.98097116994022"><ele>231.0</ele><time>2026-04-15T07:40:39Z</time></trkpt><trkpt lat="-26.719249688125792" lon="114.98066264656214"><ele>231.0</ele><time>2026-04-15T07:40:40Z</time></trkpt><trkpt lat="-26.719176822249004" lon="114.98035380203191"><ele>231.0</ele><time>2026-04-15T07:40:41Z</time></trkpt><trkpt lat="-26.71910234992249" lon="114.98004772820296"><ele>229.5</ele><time>2026-04-15T07:40:42Z</time></trkpt><trkpt lat="-26.719029613189747" lon="114.97974288827304"><ele>228.0</ele><time>2026-04-15T07:40:43Z</time></trkpt><trkpt lat="-26.71895751472242" lon="114.97944217109827"><ele>227.5</ele><time>2026-04-15T07:40:44Z</time></trkpt><trkpt lat="-26.718884417056913" lon="114.97914825477568"><ele>227.0</ele><time>2026-04-15T07:40:45Z</time></trkpt><trkpt lat="-26.718813222625542" lon="114.97885716470284"><ele>227.0</ele><time>2026-04-15T07:40:46Z</time></trkpt><trkpt lat="-26.71874775632361" lon="114.97856174237778"><ele>227.0</ele><time>2026-04-15T07:40:47Z</time></trkpt><trkpt lat="-26.718680464603683" lon="114.97826417041206"><ele>227.0</ele><time>2026-04-15T07:40:48Z</time></trkpt><trkpt lat="-26.71861035196264" lon="114.97796564306421"><ele>227.0</ele><time>2026-04-15T07:40:49Z</time></trkpt><trkpt lat="-26.718537869048316" lon="114.97765365788695"><ele>225.0</ele><time>2026-04-15T07:40:50Z</time></trkpt><trkpt lat="-26.718466637823337" lon="114.97734824915091"><ele>223.0</ele><time>2026-04-15T07:40:51Z</time></trkpt><trkpt lat="-26.71839331430565" lon="114.97703309175928"><ele>223.0</ele><time>2026-04-15T07:40:52Z</time></trkpt><trkpt lat="-26.71832027764257" lon="114.97671877029131"><ele>223.0</ele><time>2026-04-15T07:40:53Z</time></trkpt><trkpt lat="-26.71824721063939" lon="114.97640122887321"><ele>223.5</ele><time>2026-04-15T07:40:54Z</time></trkpt><trkpt lat="-26.718169139128204" lon="114.97608593730739"><ele>224.0</ele><time>2026-04-15T07:40:55Z</time></trkpt><trkpt lat="-26.71809074803251" lon="114.97577347567463"><ele>223.0</ele><time>2026-04-15T07:40:56Z</time></trkpt><trkpt lat="-26.718018050522893" lon="114.97546652632731"><ele>222.0</ele><time>2026-04-15T07:40:57Z</time></trkpt><trkpt lat="-26.717948239001373" lon="114.97515338493841"><ele>221.5</ele><time>2026-04-15T07:40:58Z</time></trkpt><trkpt lat="-26.717879897958653" lon="114.97484276148406"><ele>221.0</ele><time>2026-04-15T07:40:59Z</time></trkpt><trkpt lat="-26.717809769243214" lon="114.97453147561839"><ele>221.0</ele><time>2026-04-15T07:41:00Z</time></trkpt><trkpt lat="-26.717739377690293" lon="114.97421898880354"><ele>221.0</ele><time>2026-04-15T07:41:01Z</time></trkpt><trkpt lat="-26.717665903251014" lon="114.9739043966204"><ele>221.0</ele><time>2026-04-15T07:41:02Z</time></trkpt><trkpt lat="-26.717591240450517" lon="114.97359083969575"><ele>221.0</ele><time>2026-04-15T07:41:03Z</time></trkpt><trkpt lat="-26.717519048166682" lon="114.97327944195148"><ele>220.0</ele><time>2026-04-15T07:41:04Z</time></trkpt><trkpt lat="-26.717441527858487" lon="114.97296835699093"><ele>219.0</ele><time>2026-04-15T07:41:05Z</time></trkpt><trkpt lat="-26.717366127323526" lon="114.97265595685936"><ele>219.0</ele><time>2026-04-15T07:41:06Z</time></trkpt><trkpt lat="-26.71729270662126" lon="114.97234396238827"><ele>219.0</ele><time>2026-04-15T07:41:07Z</time></trkpt><trkpt lat="-26.71722286328663" lon="114.97203239146185"><ele>219.0</ele><time>2026-04-15T07:41:08Z</time></trkpt><trkpt lat="-26.717153152377737" lon="114.9717193873694"><ele>219.0</ele><time>2026-04-15T07:41:09Z</time></trkpt><trkpt lat="-26.717080946745355" lon="114.97140314510301"><ele>219.0</ele><time>2026-04-15T07:41:10Z</time></trkpt><trkpt lat="-26.717007805867333" lon="114.97108989825554"><ele>219.0</ele><time>2026-04-15T07:41:11Z</time></trkpt><trkpt lat="-26.71693411888815" lon="114.97077474141966"><ele>219.0</ele><time>2026-04-15T07:41:12Z</time></trkpt><trkpt lat="-26.71686010816395" lon="114.97046122850477"><ele>219.0</ele><time>2026-04-15T07:41:13Z</time></trkpt><trkpt lat="-26.71678591851" lon="114.97014775252468"><ele>220.0</ele><time>2026-04-15T07:41:14Z</time></trkpt><trkpt lat="-26.716710992034784" lon="114.96983512203992"><ele>221.0</ele><time>2026-04-15T07:41:15Z</time></trkpt><trkpt lat="-26.716634283095114" lon="114.96952048012365"><ele>221.0</ele><time>2026-04-15T07:41:16Z</time></trkpt><trkpt lat="-26.71655856463389" lon="114.969206870726"><ele>221.0</ele><time>2026-04-15T07:41:17Z</time></trkpt><trkpt lat="-26.716482364640814" lon="114.96889233008292"><ele>220.0</ele><time>2026-04-15T07:41:18Z</time></trkpt><trkpt lat="-26.716408483264555" lon="114.9685799402346"><ele>219.0</ele><time>2026-04-15T07:41:19Z</time></trkpt><trkpt lat="-26.716334249662644" lon="114.96826434567151"><ele>219.0</ele><time>2026-04-15T07:41:20Z</time></trkpt><trkpt lat="-26.716264714184458" lon="114.9679566791193"><ele>219.0</ele><time>2026-04-15T07:41:21Z</time></trkpt><trkpt lat="-26.716192597869465" lon="114.96763975700814"><ele>219.5</ele><time>2026-04-15T07:41:22Z</time></trkpt><trkpt lat="-26.71612130863617" lon="114.96732143258657"><ele>220.0</ele><time>2026-04-15T07:41:23Z</time></trkpt><trkpt lat="-26.716047635686067" lon="114.96700377267719"><ele>220.5</ele><time>2026-04-15T07:41:24Z</time></trkpt><trkpt lat="-26.71596988210127" lon="114.96668912646223"><ele>221.0</ele><time>2026-04-15T07:41:25Z</time></trkpt><trkpt lat="-26.715888706651842" lon="114.96637034489176"><ele>221.0</ele><time>2026-04-15T07:41:26Z</time></trkpt><trkpt lat="-26.715807895880477" lon="114.96605342183021"><ele>221.0</ele><time>2026-04-15T07:41:27Z</time></trkpt><trkpt lat="-26.71572776610269" lon="114.96573470635413"><ele>221.0</ele><time>2026-04-15T07:41:28Z</time></trkpt><trkpt lat="-26.71565166847245" lon="114.96541325469722"><ele>221.0</ele><time>2026-04-15T07:41:29Z</time></trkpt><trkpt lat="-26.715577826033773" lon="114.96508686418485"><ele>221.0</ele><time>2026-04-15T07:41:30Z</time></trkpt><trkpt lat="-26.71550492191488" lon="114.96475752577572"><ele>221.0</ele><time>2026-04-15T07:41:31Z</time></trkpt><trkpt lat="-26.715432267382216" lon="114.9644326764627"><ele>222.0</ele><time>2026-04-15T07:41:32Z</time></trkpt><trkpt lat="-26.71535806596725" lon="114.96410752497424"><ele>223.0</ele><time>2026-04-15T07:41:33Z</time></trkpt><trkpt lat="-26.715282972347683" lon="114.96378277184277"><ele>222.5</ele><time>2026-04-15T07:41:34Z</time></trkpt><trkpt lat="-26.715207586629827" lon="114.96345218710876"><ele>222.0</ele><time>2026-04-15T07:41:35Z</time></trkpt><trkpt lat="-26.715133390472698" lon="114.96312473586062"><ele>222.0</ele><time>2026-04-15T07:41:36Z</time></trkpt><trkpt lat="-26.71505599353758" lon="114.96279764152794"><ele>222.0</ele><time>2026-04-15T07:41:37Z</time></trkpt><trkpt lat="-26.71497897533996" lon="114.96247173098169"><ele>222.5</ele><time>2026-04-15T07:41:38Z</time></trkpt><trkpt lat="-26.71490457346486" lon="114.96214933656073"><ele>223.0</ele><time>2026-04-15T07:41:39Z</time></trkpt><trkpt lat="-26.71482855138541" lon="114.96182760128842"><ele>223.0</ele><time>2026-04-15T07:41:40Z</time></trkpt><trkpt lat="-26.714752723771195" lon="114.96150774183263"><ele>223.0</ele><time>2026-04-15T07:41:41Z</time></trkpt><trkpt lat="-26.714674787363656" lon="114.96118932115745"><ele>223.0</ele><time>2026-04-15T07:41:42Z</time></trkpt><trkpt lat="-26.7145977309304" lon="114.96087063371402"><ele>223.0</ele><time>2026-04-15T07:41:43Z</time></trkpt><trkpt lat="-26.714518106386507" lon="114.96054830824214"><ele>223.0</ele><time>2026-04-15T07:41:44Z</time></trkpt><trkpt lat="-26.71444132059744" lon="114.96022414630256"><ele>223.0</ele><time>2026-04-15T07:41:45Z</time></trkpt><trkpt lat="-26.714365233919036" lon="114.95989814952385"><ele>222.0</ele><time>2026-04-15T07:41:46Z</time></trkpt><trkpt lat="-26.71429044106728" lon="114.95957473437163"><ele>221.0</ele><time>2026-04-15T07:41:47Z</time></trkpt><trkpt lat="-26.71421982413451" lon="114.9592523400692"><ele>222.0</ele><time>2026-04-15T07:41:48Z</time></trkpt><trkpt lat="-26.714146075215506" lon="114.95892972860591"><ele>223.0</ele><time>2026-04-15T07:41:49Z</time></trkpt><trkpt lat="-26.714070284111813" lon="114.95861243310715"><ele>222.0</ele><time>2026-04-15T07:41:50Z</time></trkpt><trkpt lat="-26.713995138066664" lon="114.9582959272727"><ele>221.0</ele><time>2026-04-15T07:41:51Z</time></trkpt><trkpt lat="-26.713921397110333" lon="114.95798327683536"><ele>221.0</ele><time>2026-04-15T07:41:52Z</time></trkpt><trkpt lat="-26.713848371405994" lon="114.95766781205491"><ele>221.0</ele><time>2026-04-15T07:41:53Z</time></trkpt><trkpt lat="-26.71377593722337" lon="114.9573587055818"><ele>220.5</ele><time>2026-04-15T07:41:54Z</time></trkpt><trkpt lat="-26.713702435909006" lon="114.95704817763065"><ele>220.0</ele><time>2026-04-15T07:41:55Z</time></trkpt><trkpt lat="-26.713627966470852" lon="114.95673112498064"><ele>221.0</ele><time>2026-04-15T07:41:56Z</time></trkpt><trkpt lat="-26.713555069480073" lon="114.95641520388264"><ele>222.0</ele><time>2026-04-15T07:41:57Z</time></trkpt><trkpt lat="-26.713484522014863" lon="114.95609717789775"><ele>221.0</ele><time>2026-04-15T07:41:58Z</time></trkpt><trkpt lat="-26.71341111157231" lon="114.9557800673321"><ele>220.0</ele><time>2026-04-15T07:41:59Z</time></trkpt><trkpt lat="-26.713336015058115" lon="114.95546033420952"><ele>220.0</ele><time>2026-04-15T07:42:00Z</time></trkpt><trkpt lat="-26.71326226101678" lon="114.95514563174069"><ele>220.0</ele><time>2026-04-15T07:42:01Z</time></trkpt><trkpt lat="-26.713185726200102" lon="114.95482874016145"><ele>220.0</ele><time>2026-04-15T07:42:02Z</time></trkpt><trkpt lat="-26.713109936229205" lon="114.95450944399978"><ele>220.0</ele><time>2026-04-15T07:42:03Z</time></trkpt><trkpt lat="-26.71303319288181" lon="114.95418451066905"><ele>219.5</ele><time>2026-04-15T07:42:04Z</time></trkpt><trkpt lat="-26.71295794787378" lon="114.95385480018942"><ele>219.0</ele><time>2026-04-15T07:42:05Z</time></trkpt><trkpt lat="-26.712884142882952" lon="114.95352673722408"><ele>219.0</ele><time>2026-04-15T07:42:06Z</time></trkpt><trkpt lat="-26.71280625794628" lon="114.95320003153961"><ele>219.0</ele><time>2026-04-15T07:42:07Z</time></trkpt><trkpt lat="-26.712727525718726" lon="114.95287204363753"><ele>218.5</ele><time>2026-04-15T07:42:08Z</time></trkpt><trkpt lat="-26.71265181498991" lon="114.95254780747729"><ele>218.0</ele><time>2026-04-15T07:42:09Z</time></trkpt><trkpt lat="-26.71257661670887" lon="114.95222102861916"><ele>217.0</ele><time>2026-04-15T07:42:10Z</time></trkpt><trkpt lat="-26.712501949173305" lon="114.95190158422434"><ele>216.0</ele><time>2026-04-15T07:42:11Z</time></trkpt><trkpt lat="-26.712427362100268" lon="114.95157372715323"><ele>216.0</ele><time>2026-04-15T07:42:12Z</time></trkpt><trkpt lat="-26.712355913378794" lon="114.95124936831925"><ele>216.0</ele><time>2026-04-15T07:42:13Z</time></trkpt><trkpt lat="-26.712281521649786" lon="114.95092516951615"><ele>216.0</ele><time>2026-04-15T07:42:14Z</time></trkpt><trkpt lat="-26.71220574760867" lon="114.95060077317446"><ele>216.0</ele><time>2026-04-15T07:42:15Z</time></trkpt><trkpt lat="-26.71213113720255" lon="114.9502791497045"><ele>215.0</ele><time>2026-04-15T07:42:16Z</time></trkpt><trkpt lat="-26.712057201689742" lon="114.94995518729893"><ele>214.0</ele><time>2026-04-15T07:42:17Z</time></trkpt><trkpt lat="-26.711980800653336" lon="114.94962914924227"><ele>213.5</ele><time>2026-04-15T07:42:18Z</time></trkpt><trkpt lat="-26.71190656540796" lon="114.94931018260574"><ele>213.0</ele><time>2026-04-15T07:42:19Z</time></trkpt><trkpt lat="-26.711830023868504" lon="114.94898384755713"><ele>213.0</ele><time>2026-04-15T07:42:20Z</time></trkpt><trkpt lat="-26.711753070289877" lon="114.94866573196663"><ele>213.0</ele><time>2026-04-15T07:42:21Z</time></trkpt><trkpt lat="-26.71167700067162" lon="114.94834664777828"><ele>213.0</ele><time>2026-04-15T07:42:22Z</time></trkpt><trkpt lat="-26.711603812782123" lon="114.94803073636952"><ele>213.0</ele><time>2026-04-15T07:42:23Z</time></trkpt><trkpt lat="-26.711529855376167" lon="114.94771364975027"><ele>213.0</ele><time>2026-04-15T07:42:24Z</time></trkpt><trkpt lat="-26.711457465287555" lon="114.94739399881142"><ele>213.0</ele><time>2026-04-15T07:42:25Z</time></trkpt><trkpt lat="-26.711383582142524" lon="114.94707291417232"><ele>213.0</ele><time>2026-04-15T07:42:26Z</time></trkpt><trkpt lat="-26.711305276704504" lon="114.94675239527446"><ele>213.0</ele><time>2026-04-15T07:42:27Z</time></trkpt><trkpt lat="-26.711229993153754" lon="114.94643506632426"><ele>212.5</ele><time>2026-04-15T07:42:28Z</time></trkpt><trkpt lat="-26.711156443353936" lon="114.94611863186628"><ele>212.0</ele><time>2026-04-15T07:42:29Z</time></trkpt><trkpt lat="-26.71108859688069" lon="114.94580395468732"><ele>211.0</ele><time>2026-04-15T07:42:30Z</time></trkpt><trkpt lat="-26.71102030558138" lon="114.94548729506181"><ele>210.0</ele><time>2026-04-15T07:42:31Z</time></trkpt><trkpt lat="-26.710952098507303" lon="114.94517877977984"><ele>209.5</ele><time>2026-04-15T07:42:32Z</time></trkpt><trkpt lat="-26.710879053085925" lon="114.9448658579873"><ele>209.0</ele><time>2026-04-15T07:42:33Z</time></trkpt><trkpt lat="-26.71080508560325" lon="114.94456018039938"><ele>209.0</ele><time>2026-04-15T07:42:34Z</time></trkpt><trkpt lat="-26.710732851505405" lon="114.94425826906327"><ele>209.0</ele><time>2026-04-15T07:42:35Z</time></trkpt><trkpt lat="-26.710662369431162" lon="114.94396196519104"><ele>209.0</ele><time>2026-04-15T07:42:36Z</time></trkpt><trkpt lat="-26.710591537534643" lon="114.94366049926299"><ele>209.0</ele><time>2026-04-15T07:42:37Z</time></trkpt><trkpt lat="-26.710520821835765" lon="114.94335610050419"><ele>208.0</ele><time>2026-04-15T07:42:38Z</time></trkpt><trkpt lat="-26.710449450916396" lon="114.94304901341606"><ele>207.0</ele><time>2026-04-15T07:42:39Z</time></trkpt><trkpt lat="-26.710377827780526" lon="114.9427391928406"><ele>207.5</ele><time>2026-04-15T07:42:40Z</time></trkpt><trkpt lat="-26.710304462613813" lon="114.94242279578972"><ele>208.0</ele><time>2026-04-15T07:42:41Z</time></trkpt><trkpt lat="-26.710228955421638" lon="114.94210704218574"><ele>208.0</ele><time>2026-04-15T07:42:42Z</time></trkpt><trkpt lat="-26.710153066719233" lon="114.94179136731688"><ele>208.0</ele><time>2026-04-15T07:42:43Z</time></trkpt><trkpt lat="-26.710074205766716" lon="114.94147000758808"><ele>207.0</ele><time>2026-04-15T07:42:44Z</time></trkpt><trkpt lat="-26.709996554899337" lon="114.94114601358967"><ele>206.0</ele><time>2026-04-15T07:42:45Z</time></trkpt><trkpt lat="-26.70992053058249" lon="114.94082441752472"><ele>206.0</ele><time>2026-04-15T07:42:46Z</time></trkpt><trkpt lat="-26.709846228949594" lon="114.9405006560996"><ele>206.0</ele><time>2026-04-15T07:42:47Z</time></trkpt><trkpt lat="-26.70976993254708" lon="114.94017498459027"><ele>205.5</ele><time>2026-04-15T07:42:48Z</time></trkpt><trkpt lat="-26.709693492287126" lon="114.93984728247293"><ele>205.0</ele><time>2026-04-15T07:42:49Z</time></trkpt><trkpt lat="-26.70961382543087" lon="114.93952718406912"><ele>205.0</ele><time>2026-04-15T07:42:50Z</time></trkpt><trkpt lat="-26.709535913995463" lon="114.93921041280524"><ele>205.0</ele><time>2026-04-15T07:42:51Z</time></trkpt><trkpt lat="-26.709461052145368" lon="114.93889228185613"><ele>205.0</ele><time>2026-04-15T07:42:52Z</time></trkpt><trkpt lat="-26.709386778298146" lon="114.93857074837948"><ele>205.0</ele><time>2026-04-15T07:42:53Z</time></trkpt><trkpt lat="-26.709310423440105" lon="114.93824684886431"><ele>205.0</ele><time>2026-04-15T07:42:54Z</time></trkpt><trkpt lat="-26.70923496298119" lon="114.93792413477601"><ele>205.0</ele><time>2026-04-15T07:42:55Z</time></trkpt><trkpt lat="-26.709162111017097" lon="114.9376042589591"><ele>205.5</ele><time>2026-04-15T07:42:56Z</time></trkpt><trkpt lat="-26.709091078251575" lon="114.93728035226158"><ele>206.0</ele><time>2026-04-15T07:42:57Z</time></trkpt><trkpt lat="-26.709021798467557" lon="114.93695737787361"><ele>206.5</ele><time>2026-04-15T07:42:58Z</time></trkpt><trkpt lat="-26.708949257887955" lon="114.9366358837147"><ele>207.0</ele><time>2026-04-15T07:42:59Z</time></trkpt><trkpt lat="-26.708874332123045" lon="114.93631605059463"><ele>207.0</ele><time>2026-04-15T07:43:00Z</time></trkpt><trkpt lat="-26.708798248681614" lon="114.93599626100107"><ele>207.0</ele><time>2026-04-15T07:43:01Z</time></trkpt><trkpt lat="-26.708721325522156" lon="114.93566792316648"><ele>208.5</ele><time>2026-04-15T07:43:02Z</time></trkpt><trkpt lat="-26.708644372326674" lon="114.93534012514867"><ele>210.0</ele><time>2026-04-15T07:43:03Z</time></trkpt><trkpt lat="-26.70856886554325" lon="114.93501461065642"><ele>210.0</ele><time>2026-04-15T07:43:04Z</time></trkpt><trkpt lat="-26.70849374575187" lon="114.934686717827"><ele>210.0</ele><time>2026-04-15T07:43:05Z</time></trkpt><trkpt lat="-26.70842004752351" lon="114.9343628951974"><ele>210.0</ele><time>2026-04-15T07:43:06Z</time></trkpt><trkpt lat="-26.708346836256496" lon="114.93403932780602"><ele>210.0</ele><time>2026-04-15T07:43:07Z</time></trkpt><trkpt lat="-26.708270053910052" lon="114.9337132218043"><ele>210.0</ele><time>2026-04-15T07:43:08Z</time></trkpt><trkpt lat="-26.708192845089417" lon="114.93338749469366"><ele>210.0</ele><time>2026-04-15T07:43:09Z</time></trkpt><trkpt lat="-26.708115834015892" lon="114.93306288955257"><ele>210.0</ele><time>2026-04-15T07:43:10Z</time></trkpt><trkpt lat="-26.708041155552138" lon="114.93273250422317"><ele>210.0</ele><time>2026-04-15T07:43:11Z</time></trkpt><trkpt lat="-26.70796522275037" lon="114.93240522867366"><ele>210.5</ele><time>2026-04-15T07:43:12Z</time></trkpt><trkpt lat="-26.70788771306577" lon="114.93207626662874"><ele>211.0</ele><time>2026-04-15T07:43:13Z</time></trkpt><trkpt lat="-26.707810733063155" lon="114.93174813044942"><ele>211.5</ele><time>2026-04-15T07:43:14Z</time></trkpt><trkpt lat="-26.70773126547258" lon="114.93142474389462"><ele>212.0</ele><time>2026-04-15T07:43:15Z</time></trkpt><trkpt lat="-26.707652732549548" lon="114.93110380330498"><ele>211.5</ele><time>2026-04-15T07:43:16Z</time></trkpt><trkpt lat="-26.707577970876024" lon="114.93079078658359"><ele>211.0</ele><time>2026-04-15T07:43:17Z</time></trkpt><trkpt lat="-26.707509906525484" lon="114.93049138655554"><ele>211.0</ele><time>2026-04-15T07:43:18Z</time></trkpt><trkpt lat="-26.707448316060454" lon="114.9302132829826"><ele>211.0</ele><time>2026-04-15T07:43:19Z</time></trkpt><trkpt lat="-26.707384374215785" lon="114.92993581461474"><ele>211.0</ele><time>2026-04-15T07:43:20Z</time></trkpt><trkpt lat="-26.70731861030531" lon="114.92964919303948"><ele>211.0</ele><time>2026-04-15T07:43:21Z</time></trkpt><trkpt lat="-26.707253235562625" lon="114.92935679056977"><ele>210.5</ele><time>2026-04-15T07:43:22Z</time></trkpt><trkpt lat="-26.70718853588521" lon="114.92906697693394"><ele>210.0</ele><time>2026-04-15T07:43:23Z</time></trkpt><trkpt lat="-26.707123874361443" lon="114.92877692936212"><ele>210.0</ele><time>2026-04-15T07:43:24Z</time></trkpt><trkpt lat="-26.707056013470087" lon="114.92848616619233"><ele>210.0</ele><time>2026-04-15T07:43:25Z</time></trkpt><trkpt lat="-26.706986986073353" lon="114.92818804601988"><ele>209.0</ele><time>2026-04-15T07:43:26Z</time></trkpt><trkpt lat="-26.706914900313663" lon="114.92788413043866"><ele>208.0</ele><time>2026-04-15T07:43:27Z</time></trkpt><trkpt lat="-26.706845004387212" lon="114.92758135504438"><ele>208.0</ele><time>2026-04-15T07:43:28Z</time></trkpt><trkpt lat="-26.706774692974076" lon="114.92727500050735"><ele>208.0</ele><time>2026-04-15T07:43:29Z</time></trkpt><trkpt lat="-26.706703095485445" lon="114.92697016034357"><ele>209.0</ele><time>2026-04-15T07:43:30Z</time></trkpt><trkpt lat="-26.706634091065233" lon="114.92666878133078"><ele>210.0</ele><time>2026-04-15T07:43:31Z</time></trkpt><trkpt lat="-26.70656599137779" lon="114.92636747530294"><ele>210.0</ele><time>2026-04-15T07:43:32Z</time></trkpt><trkpt lat="-26.70649948659634" lon="114.9260662294576"><ele>210.0</ele><time>2026-04-15T07:43:33Z</time></trkpt><trkpt lat="-26.70643081917374" lon="114.92576353148806"><ele>209.5</ele><time>2026-04-15T07:43:34Z</time></trkpt><trkpt lat="-26.706358707320042" lon="114.92545406135747"><ele>209.0</ele><time>2026-04-15T07:43:35Z</time></trkpt><trkpt lat="-26.706284830309333" lon="114.92515471696234"><ele>207.5</ele><time>2026-04-15T07:43:36Z</time></trkpt><trkpt lat="-26.706210920124278" lon="114.92484518514816"><ele>206.0</ele><time>2026-04-15T07:43:37Z</time></trkpt><trkpt lat="-26.706140169931146" lon="114.92453650901567"><ele>206.0</ele><time>2026-04-15T07:43:38Z</time></trkpt><trkpt lat="-26.70606933628104" lon="114.92422611639418"><ele>206.0</ele><time>2026-04-15T07:43:39Z</time></trkpt><trkpt lat="-26.70599836970794" lon="114.92392499372934"><ele>206.0</ele><time>2026-04-15T07:43:40Z</time></trkpt><trkpt lat="-26.70592881009251" lon="114.9236274941717"><ele>206.0</ele><time>2026-04-15T07:43:41Z</time></trkpt><trkpt lat="-26.705861069784174" lon="114.92333510838708"><ele>206.5</ele><time>2026-04-15T07:43:42Z</time></trkpt><trkpt lat="-26.70579548904048" lon="114.92304235814392"><ele>207.0</ele><time>2026-04-15T07:43:43Z</time></trkpt><trkpt lat="-26.705728762044988" lon="114.9227477845624"><ele>207.0</ele><time>2026-04-15T07:43:44Z</time></trkpt><trkpt lat="-26.70566098791796" lon="114.92245419016864"><ele>207.0</ele><time>2026-04-15T07:43:45Z</time></trkpt><trkpt lat="-26.705596692798107" lon="114.9221641248028"><ele>207.0</ele><time>2026-04-15T07:43:46Z</time></trkpt><trkpt lat="-26.705534057638133" lon="114.92187687217289"><ele>207.0</ele><time>2026-04-15T07:43:47Z</time></trkpt><trkpt lat="-26.70547037321739" lon="114.92159575636607"><ele>205.0</ele><time>2026-04-15T07:43:48Z</time></trkpt><trkpt lat="-26.705401113123322" lon="114.92133014836097"><ele>203.0</ele><time>2026-04-15T07:43:49Z</time></trkpt><trkpt lat="-26.705314954685896" lon="114.92106457861168"><ele>203.0</ele><time>2026-04-15T07:43:50Z</time></trkpt><trkpt lat="-26.705225592728215" lon="114.92083398274762"><ele>203.0</ele><time>2026-04-15T07:43:51Z</time></trkpt><trkpt lat="-26.705122733432685" lon="114.92062389603191"><ele>203.0</ele><time>2026-04-15T07:43:52Z</time></trkpt><trkpt lat="-26.705008683401154" lon="114.92042498171512"><ele>203.0</ele><time>2026-04-15T07:43:53Z</time></trkpt><trkpt lat="-26.704881842615393" lon="114.92022741125912"><ele>203.0</ele><time>2026-04-15T07:43:54Z</time></trkpt><trkpt lat="-26.70474825185766" lon="114.92004187030386"><ele>203.0</ele><time>2026-04-15T07:43:55Z</time></trkpt><trkpt lat="-26.704604865027456" lon="114.91983031789414"><ele>203.0</ele><time>2026-04-15T07:43:56Z</time></trkpt><trkpt lat="-26.70445940583316" lon="114.9196079831384"><ele>203.0</ele><time>2026-04-15T07:43:57Z</time></trkpt><trkpt lat="-26.704308107096853" lon="114.91937122673993"><ele>202.0</ele><time>2026-04-15T07:43:58Z</time></trkpt><trkpt lat="-26.704157722052305" lon="114.9191245579798"><ele>201.0</ele><time>2026-04-15T07:43:59Z</time></trkpt><trkpt lat="-26.704004880185572" lon="114.9188719380805"><ele>201.0</ele><time>2026-04-15T07:44:00Z</time></trkpt><trkpt lat="-26.70385048931744" lon="114.91861583349083"><ele>201.0</ele><time>2026-04-15T07:44:01Z</time></trkpt><trkpt lat="-26.703695121331876" lon="114.91836479285851"><ele>201.5</ele><time>2026-04-15T07:44:02Z</time></trkpt><trkpt lat="-26.703542022619878" lon="114.91811520904204"><ele>202.0</ele><time>2026-04-15T07:44:03Z</time></trkpt><trkpt lat="-26.70339275368864" lon="114.91786723827684"><ele>202.0</ele><time>2026-04-15T07:44:04Z</time></trkpt><trkpt lat="-26.703244349693602" lon="114.91762252617534"><ele>202.0</ele><time>2026-04-15T07:44:05Z</time></trkpt><trkpt lat="-26.703095682872075" lon="114.91737888600375"><ele>200.5</ele><time>2026-04-15T07:44:06Z</time></trkpt><trkpt lat="-26.702945472752372" lon="114.91713083394694"><ele>199.0</ele><time>2026-04-15T07:44:07Z</time></trkpt><trkpt lat="-26.70279395832319" lon="114.91687816787754"><ele>200.0</ele><time>2026-04-15T07:44:08Z</time></trkpt><trkpt lat="-26.70264515296478" lon="114.91663203977465"><ele>201.0</ele><time>2026-04-15T07:44:09Z</time></trkpt><trkpt lat="-26.702488620858066" lon="114.91638740287215"><ele>201.0</ele><time>2026-04-15T07:44:10Z</time></trkpt><trkpt lat="-26.70233456256021" lon="114.91614112280837"><ele>201.0</ele><time>2026-04-15T07:44:11Z</time></trkpt><trkpt lat="-26.702185310190753" lon="114.91589216219627"><ele>201.0</ele><time>2026-04-15T07:44:12Z</time></trkpt><trkpt lat="-26.70203850368946" lon="114.91564826310581"><ele>201.0</ele><time>2026-04-15T07:44:13Z</time></trkpt><trkpt lat="-26.70189078978661" lon="114.91539878474418"><ele>201.0</ele><time>2026-04-15T07:44:14Z</time></trkpt><trkpt lat="-26.70173914379605" lon="114.91514928568368"><ele>201.0</ele><time>2026-04-15T07:44:15Z</time></trkpt><trkpt lat="-26.701589371618518" lon="114.91490403038743"><ele>200.0</ele><time>2026-04-15T07:44:16Z</time></trkpt><trkpt lat="-26.70143656836585" lon="114.91465453829358"><ele>199.0</ele><time>2026-04-15T07:44:17Z</time></trkpt><trkpt lat="-26.701283777419736" lon="114.91440311970659"><ele>199.0</ele><time>2026-04-15T07:44:18Z</time></trkpt><trkpt lat="-26.701134229813785" lon="114.91415279321569"><ele>199.0</ele><time>2026-04-15T07:44:19Z</time></trkpt><trkpt lat="-26.700980466355066" lon="114.91389681148773"><ele>199.0</ele><time>2026-04-15T07:44:20Z</time></trkpt><trkpt lat="-26.700829556428438" lon="114.91364274963023"><ele>199.0</ele><time>2026-04-15T07:44:21Z</time></trkpt><trkpt lat="-26.70067614857617" lon="114.91338462171277"><ele>198.5</ele><time>2026-04-15T07:44:22Z</time></trkpt><trkpt lat="-26.70052393221063" lon="114.91313329213698"><ele>198.0</ele><time>2026-04-15T07:44:23Z</time></trkpt><trkpt lat="-26.700370611317098" lon="114.91287840642129"><ele>198.0</ele><time>2026-04-15T07:44:24Z</time></trkpt><trkpt lat="-26.7002184616883" lon="114.91262636354637"><ele>198.0</ele><time>2026-04-15T07:44:25Z</time></trkpt><trkpt lat="-26.700073963386604" lon="114.91237897740412"><ele>197.5</ele><time>2026-04-15T07:44:26Z</time></trkpt><trkpt lat="-26.699926212396466" lon="114.91213155355891"><ele>197.0</ele><time>2026-04-15T07:44:27Z</time></trkpt><trkpt lat="-26.699776347639727" lon="114.9118922957784"><ele>197.0</ele><time>2026-04-15T07:44:28Z</time></trkpt><trkpt lat="-26.699624476926054" lon="114.91165026986211"><ele>197.0</ele><time>2026-04-15T07:44:29Z</time></trkpt><trkpt lat="-26.699477521697677" lon="114.91140390529057"><ele>196.5</ele><time>2026-04-15T07:44:30Z</time></trkpt><trkpt lat="-26.699336314546372" lon="114.91115745847182"><ele>196.0</ele><time>2026-04-15T07:44:31Z</time></trkpt><trkpt lat="-26.699191655520504" lon="114.91091134137511"><ele>196.5</ele><time>2026-04-15T07:44:32Z</time></trkpt><trkpt lat="-26.699046759188477" lon="114.91066484372027"><ele>197.0</ele><time>2026-04-15T07:44:33Z</time></trkpt><trkpt lat="-26.69889854878553" lon="114.91041694497589"><ele>197.0</ele><time>2026-04-15T07:44:34Z</time></trkpt><trkpt lat="-26.698752551102135" lon="114.91017170326141"><ele>197.0</ele><time>2026-04-15T07:44:35Z</time></trkpt><trkpt lat="-26.69860901422488" lon="114.90993201679017"><ele>196.5</ele><time>2026-04-15T07:44:36Z</time></trkpt><trkpt lat="-26.698463428710287" lon="114.90969120115324"><ele>196.0</ele><time>2026-04-15T07:44:37Z</time></trkpt><trkpt lat="-26.69831852138688" lon="114.9094458472218"><ele>196.0</ele><time>2026-04-15T07:44:38Z</time></trkpt><trkpt lat="-26.698172064253168" lon="114.90919980119948"><ele>196.0</ele><time>2026-04-15T07:44:39Z</time></trkpt><trkpt lat="-26.69802240856924" lon="114.90895763653445"><ele>196.0</ele><time>2026-04-15T07:44:40Z</time></trkpt><trkpt lat="-26.697877362353058" lon="114.9087147211384"><ele>196.0</ele><time>2026-04-15T07:44:41Z</time></trkpt><trkpt lat="-26.697732430289793" lon="114.90847104109426"><ele>195.0</ele><time>2026-04-15T07:44:42Z</time></trkpt><trkpt lat="-26.697585899943366" lon="114.90822253092809"><ele>194.0</ele><time>2026-04-15T07:44:43Z</time></trkpt><trkpt lat="-26.697440239355753" lon="114.90797518499491"><ele>194.0</ele><time>2026-04-15T07:44:44Z</time></trkpt><trkpt lat="-26.697294709053043" lon="114.90772775833047"><ele>194.0</ele><time>2026-04-15T07:44:45Z</time></trkpt><trkpt lat="-26.697148284706362" lon="114.90748586339399"><ele>194.5</ele><time>2026-04-15T07:44:46Z</time></trkpt><trkpt lat="-26.696998785580437" lon="114.90724541184994"><ele>195.0</ele><time>2026-04-15T07:44:47Z</time></trkpt><trkpt lat="-26.696857119510984" lon="114.90700727810783"><ele>195.0</ele><time>2026-04-15T07:44:48Z</time></trkpt><trkpt lat="-26.69672086335572" lon="114.90676629933863"><ele>195.0</ele><time>2026-04-15T07:44:49Z</time></trkpt><trkpt lat="-26.69658014116642" lon="114.90652306777507"><ele>194.5</ele><time>2026-04-15T07:44:50Z</time></trkpt><trkpt lat="-26.69643326914972" lon="114.90627406636426"><ele>194.0</ele><time>2026-04-15T07:44:51Z</time></trkpt><trkpt lat="-26.696290565231585" lon="114.90603139161055"><ele>193.0</ele><time>2026-04-15T07:44:52Z</time></trkpt><trkpt lat="-26.69614604572277" lon="114.90578737826114"><ele>192.0</ele><time>2026-04-15T07:44:53Z</time></trkpt><trkpt lat="-26.696000626814556" lon="114.90555008768561"><ele>192.0</ele><time>2026-04-15T07:44:54Z</time></trkpt><trkpt lat="-26.695856742974918" lon="114.90530667511486"><ele>192.0</ele><time>2026-04-15T07:44:55Z</time></trkpt><trkpt lat="-26.695713799840725" lon="114.90506462806098"><ele>192.5</ele><time>2026-04-15T07:44:56Z</time></trkpt><trkpt lat="-26.695569725492128" lon="114.90481860385736"><ele>193.0</ele><time>2026-04-15T07:44:57Z</time></trkpt><trkpt lat="-26.695426690892873" lon="114.90457217252636"><ele>193.0</ele><time>2026-04-15T07:44:58Z</time></trkpt><trkpt lat="-26.69527982952864" lon="114.9043208616454"><ele>193.0</ele><time>2026-04-15T07:44:59Z</time></trkpt><trkpt lat="-26.695129729869926" lon="114.90406582896274"><ele>192.5</ele><time>2026-04-15T07:45:00Z</time></trkpt><trkpt lat="-26.694975841402677" lon="114.90380804837613"><ele>192.0</ele><time>2026-04-15T07:45:01Z</time></trkpt><trkpt lat="-26.69481739055386" lon="114.90354528923883"><ele>192.0</ele><time>2026-04-15T07:45:02Z</time></trkpt><trkpt lat="-26.694655464786432" lon="114.90328352715446"><ele>192.0</ele><time>2026-04-15T07:45:03Z</time></trkpt><trkpt lat="-26.69449433530506" lon="114.9030256517855"><ele>192.0</ele><time>2026-04-15T07:45:04Z</time></trkpt><trkpt lat="-26.694336548221546" lon="114.9027663109713"><ele>192.0</ele><time>2026-04-15T07:45:05Z</time></trkpt><trkpt lat="-26.694180597014665" lon="114.90250843179831"><ele>192.0</ele><time>2026-04-15T07:45:06Z</time></trkpt><trkpt lat="-26.69402538396472" lon="114.90225791535595"><ele>192.0</ele><time>2026-04-15T07:45:07Z</time></trkpt><trkpt lat="-26.69387229521645" lon="114.90200576575248"><ele>192.0</ele><time>2026-04-15T07:45:08Z</time></trkpt><trkpt lat="-26.693718158153462" lon="114.90175108826861"><ele>192.0</ele><time>2026-04-15T07:45:09Z</time></trkpt><trkpt lat="-26.693565340824385" lon="114.9015016743103"><ele>192.0</ele><time>2026-04-15T07:45:10Z</time></trkpt><trkpt lat="-26.69341340588" lon="114.90124361365464"><ele>192.0</ele><time>2026-04-15T07:45:11Z</time></trkpt><trkpt lat="-26.693260128342775" lon="114.9009889760057"><ele>192.5</ele><time>2026-04-15T07:45:12Z</time></trkpt><trkpt lat="-26.693107034411646" lon="114.90073157098179"><ele>193.0</ele><time>2026-04-15T07:45:13Z</time></trkpt><trkpt lat="-26.692951510922338" lon="114.9004747066329"><ele>193.0</ele><time>2026-04-15T07:45:14Z</time></trkpt><trkpt lat="-26.692796559700028" lon="114.90022189026385"><ele>193.0</ele><time>2026-04-15T07:45:15Z</time></trkpt><trkpt lat="-26.692645324620454" lon="114.89996583877983"><ele>191.5</ele><time>2026-04-15T07:45:16Z</time></trkpt><trkpt lat="-26.69249589411104" lon="114.8997137266891"><ele>190.0</ele><time>2026-04-15T07:45:17Z</time></trkpt><trkpt lat="-26.692348484007624" lon="114.89946643824861"><ele>190.0</ele><time>2026-04-15T07:45:18Z</time></trkpt><trkpt lat="-26.69219820102652" lon="114.89922212327289"><ele>190.0</ele><time>2026-04-15T07:45:19Z</time></trkpt><trkpt lat="-26.692049192010817" lon="114.89897129320366"><ele>189.5</ele><time>2026-04-15T07:45:20Z</time></trkpt><trkpt lat="-26.691900970802266" lon="114.89872070674821"><ele>189.0</ele><time>2026-04-15T07:45:21Z</time></trkpt><trkpt lat="-26.691753084245825" lon="114.89846814882424"><ele>190.0</ele><time>2026-04-15T07:45:22Z</time></trkpt><trkpt lat="-26.691603669843342" lon="114.89821173349985"><ele>191.0</ele><time>2026-04-15T07:45:23Z</time></trkpt><trkpt lat="-26.691448622647393" lon="114.89795499347888"><ele>191.0</ele><time>2026-04-15T07:45:24Z</time></trkpt><trkpt lat="-26.69129456127151" lon="114.89769799780797"><ele>191.0</ele><time>2026-04-15T07:45:25Z</time></trkpt><trkpt lat="-26.691142089182428" lon="114.89743766274721"><ele>191.0</ele><time>2026-04-15T07:45:26Z</time></trkpt><trkpt lat="-26.69098780508447" lon="114.89717559894807"><ele>191.0</ele><time>2026-04-15T07:45:27Z</time></trkpt><trkpt lat="-26.69083223809276" lon="114.89691613277874"><ele>190.0</ele><time>2026-04-15T07:45:28Z</time></trkpt><trkpt lat="-26.690675515244646" lon="114.89665265821164"><ele>189.0</ele><time>2026-04-15T07:45:29Z</time></trkpt><trkpt lat="-26.690515126356512" lon="114.89638589280327"><ele>189.0</ele><time>2026-04-15T07:45:30Z</time></trkpt><trkpt lat="-26.690354030275035" lon="114.89612210868229"><ele>189.0</ele><time>2026-04-15T07:45:31Z</time></trkpt><trkpt lat="-26.690193452922514" lon="114.89585629091616"><ele>188.5</ele><time>2026-04-15T07:45:32Z</time></trkpt><trkpt lat="-26.69003644405533" lon="114.89559748156387"><ele>188.0</ele><time>2026-04-15T07:45:33Z</time></trkpt><trkpt lat="-26.689878886161985" lon="114.89533418269862"><ele>188.0</ele><time>2026-04-15T07:45:34Z</time></trkpt><trkpt lat="-26.68972212958443" lon="114.8950717848421"><ele>188.0</ele><time>2026-04-15T07:45:35Z</time></trkpt><trkpt lat="-26.689564963309373" lon="114.89480676055777"><ele>188.0</ele><time>2026-04-15T07:45:36Z</time></trkpt><trkpt lat="-26.68940576665734" lon="114.89454434919492"><ele>188.0</ele><time>2026-04-15T07:45:37Z</time></trkpt><trkpt lat="-26.68924514650473" lon="114.89428208076981"><ele>188.0</ele><time>2026-04-15T07:45:38Z</time></trkpt><trkpt lat="-26.68908626362937" lon="114.89402257564966"><ele>188.0</ele><time>2026-04-15T07:45:39Z</time></trkpt><trkpt lat="-26.688929233927006" lon="114.8937604634955"><ele>188.0</ele><time>2026-04-15T07:45:40Z</time></trkpt><trkpt lat="-26.688772188441103" lon="114.89349571629415"><ele>188.0</ele><time>2026-04-15T07:45:41Z</time></trkpt><trkpt lat="-26.688613425633683" lon="114.89323134861145"><ele>187.5</ele><time>2026-04-15T07:45:42Z</time></trkpt><trkpt lat="-26.68845272170445" lon="114.89296288009298"><ele>187.0</ele><time>2026-04-15T07:45:43Z</time></trkpt><trkpt lat="-26.688291189516608" lon="114.89269068760903"><ele>187.5</ele><time>2026-04-15T07:45:44Z</time></trkpt><trkpt lat="-26.688129462082387" lon="114.89242316328506"><ele>188.0</ele><time>2026-04-15T07:45:45Z</time></trkpt><trkpt lat="-26.68796800316001" lon="114.89215548559231"><ele>188.0</ele><time>2026-04-15T07:45:46Z</time></trkpt><trkpt lat="-26.6878060270748" lon="114.89188884581154"><ele>188.0</ele><time>2026-04-15T07:45:47Z</time></trkpt><trkpt lat="-26.68764428897355" lon="114.89162246250008"><ele>187.0</ele><time>2026-04-15T07:45:48Z</time></trkpt><trkpt lat="-26.687481724901325" lon="114.89135482322362"><ele>186.0</ele><time>2026-04-15T07:45:49Z</time></trkpt><trkpt lat="-26.687321608700216" lon="114.89109045179613"><ele>187.0</ele><time>2026-04-15T07:45:50Z</time></trkpt><trkpt lat="-26.687162271012195" lon="114.89082323188028"><ele>188.0</ele><time>2026-04-15T07:45:51Z</time></trkpt><trkpt lat="-26.68700427515203" lon="114.89056108147773"><ele>187.5</ele><time>2026-04-15T07:45:52Z</time></trkpt><trkpt lat="-26.68684984561501" lon="114.89029927087005"><ele>187.0</ele><time>2026-04-15T07:45:53Z</time></trkpt><trkpt lat="-26.686696532386872" lon="114.89003698504052"><ele>187.0</ele><time>2026-04-15T07:45:54Z</time></trkpt><trkpt lat="-26.686543195683992" lon="114.88977875322873"><ele>187.0</ele><time>2026-04-15T07:45:55Z</time></trkpt><trkpt lat="-26.686386082730472" lon="114.88951607241628"><ele>187.0</ele><time>2026-04-15T07:45:56Z</time></trkpt><trkpt lat="-26.6862287029644" lon="114.88924997120274"><ele>187.0</ele><time>2026-04-15T07:45:57Z</time></trkpt><trkpt lat="-26.686074458025534" lon="114.88899134837517"><ele>187.0</ele><time>2026-04-15T07:45:58Z</time></trkpt><trkpt lat="-26.685917554270038" lon="114.88873170534484"><ele>187.0</ele><time>2026-04-15T07:45:59Z</time></trkpt><trkpt lat="-26.685764368094514" lon="114.88847108668094"><ele>186.5</ele><time>2026-04-15T07:46:00Z</time></trkpt><trkpt lat="-26.685612650353047" lon="114.88820864327758"><ele>186.0</ele><time>2026-04-15T07:46:01Z</time></trkpt><trkpt lat="-26.68546164772205" lon="114.887945958326"><ele>186.0</ele><time>2026-04-15T07:46:02Z</time></trkpt><trkpt lat="-26.68530844679514" lon="114.88768839589041"><ele>186.0</ele><time>2026-04-15T07:46:03Z</time></trkpt><trkpt lat="-26.68515290379984" lon="114.88743589077593"><ele>185.5</ele><time>2026-04-15T07:46:04Z</time></trkpt><trkpt lat="-26.684998768709864" lon="114.88718741436536"><ele>185.0</ele><time>2026-04-15T07:46:05Z</time></trkpt><trkpt lat="-26.68484107015387" lon="114.8869389683886"><ele>185.0</ele><time>2026-04-15T07:46:06Z</time></trkpt><trkpt lat="-26.68468612514467" lon="114.88669155375932"><ele>185.0</ele><time>2026-04-15T07:46:07Z</time></trkpt><trkpt lat="-26.684534559978136" lon="114.8864397395446"><ele>184.5</ele><time>2026-04-15T07:46:08Z</time></trkpt><trkpt lat="-26.684383134367877" lon="114.88618354220706"><ele>184.0</ele><time>2026-04-15T07:46:09Z</time></trkpt><trkpt lat="-26.68423311354709" lon="114.88592663246412"><ele>184.0</ele><time>2026-04-15T07:46:10Z</time></trkpt><trkpt lat="-26.6840832074798" lon="114.88566662028673"><ele>184.0</ele><time>2026-04-15T07:46:11Z</time></trkpt><trkpt lat="-26.6839291706039" lon="114.88540758062639"><ele>184.0</ele><time>2026-04-15T07:46:12Z</time></trkpt><trkpt lat="-26.683769767231276" lon="114.88515273337529"><ele>184.0</ele><time>2026-04-15T07:46:13Z</time></trkpt><trkpt lat="-26.68360848310072" lon="114.88489995589877"><ele>184.5</ele><time>2026-04-15T07:46:14Z</time></trkpt><trkpt lat="-26.68344973914743" lon="114.88464598825983"><ele>185.0</ele><time>2026-04-15T07:46:15Z</time></trkpt><trkpt lat="-26.68329561341807" lon="114.88439023490758"><ele>185.5</ele><time>2026-04-15T07:46:16Z</time></trkpt><trkpt lat="-26.683144754396388" lon="114.88413614008564"><ele>186.0</ele><time>2026-04-15T07:46:17Z</time></trkpt><trkpt lat="-26.68299520040148" lon="114.88387603875823"><ele>186.0</ele><time>2026-04-15T07:46:18Z</time></trkpt><trkpt lat="-26.682849834957384" lon="114.88361664451483"><ele>186.0</ele><time>2026-04-15T07:46:19Z</time></trkpt><trkpt lat="-26.682705213366585" lon="114.8833585383956"><ele>185.0</ele><time>2026-04-15T07:46:20Z</time></trkpt><trkpt lat="-26.682557591607097" lon="114.88310649202693"><ele>184.0</ele><time>2026-04-15T07:46:21Z</time></trkpt><trkpt lat="-26.682407120963926" lon="114.88286446880865"><ele>184.0</ele><time>2026-04-15T07:46:22Z</time></trkpt><trkpt lat="-26.682253487736183" lon="114.88263062741883"><ele>184.0</ele><time>2026-04-15T07:46:23Z</time></trkpt><trkpt lat="-26.68209392042079" lon="114.88239713179976"><ele>184.0</ele><time>2026-04-15T07:46:24Z</time></trkpt><trkpt lat="-26.6819337807289" lon="114.88215758945191"><ele>184.0</ele><time>2026-04-15T07:46:25Z</time></trkpt><trkpt lat="-26.681780573068483" lon="114.88191886331458"><ele>184.0</ele><time>2026-04-15T07:46:26Z</time></trkpt><trkpt lat="-26.681634746952493" lon="114.88166937609226"><ele>184.0</ele><time>2026-04-15T07:46:27Z</time></trkpt><trkpt lat="-26.681492052952635" lon="114.8814170756518"><ele>184.0</ele><time>2026-04-15T07:46:28Z</time></trkpt><trkpt lat="-26.68134660275065" lon="114.88116081751174"><ele>184.0</ele><time>2026-04-15T07:46:29Z</time></trkpt><trkpt lat="-26.681201003333822" lon="114.88090544380968"><ele>185.0</ele><time>2026-04-15T07:46:30Z</time></trkpt><trkpt lat="-26.681047643937493" lon="114.88064540883177"><ele>186.0</ele><time>2026-04-15T07:46:31Z</time></trkpt><trkpt lat="-26.680892345519595" lon="114.88038536087822"><ele>186.0</ele><time>2026-04-15T07:46:32Z</time></trkpt><trkpt lat="-26.680734320016004" lon="114.88012596241435"><ele>186.0</ele><time>2026-04-15T07:46:33Z</time></trkpt><trkpt lat="-26.68057433851505" lon="114.87985997632737"><ele>185.0</ele><time>2026-04-15T07:46:34Z</time></trkpt><trkpt lat="-26.68042152919529" lon="114.8796033745954"><ele>184.0</ele><time>2026-04-15T07:46:35Z</time></trkpt><trkpt lat="-26.68026937063125" lon="114.87934781346675"><ele>185.0</ele><time>2026-04-15T07:46:36Z</time></trkpt><trkpt lat="-26.680116811912423" lon="114.87909635763276"><ele>186.0</ele><time>2026-04-15T07:46:37Z</time></trkpt><trkpt lat="-26.67996288420438" lon="114.87884393033355"><ele>186.0</ele><time>2026-04-15T07:46:38Z</time></trkpt><trkpt lat="-26.679808201521837" lon="114.87859158187113"><ele>186.0</ele><time>2026-04-15T07:46:39Z</time></trkpt><trkpt lat="-26.679653219698455" lon="114.87833500867376"><ele>186.0</ele><time>2026-04-15T07:46:40Z</time></trkpt><trkpt lat="-26.679500704498057" lon="114.87808018956966"><ele>186.0</ele><time>2026-04-15T07:46:41Z</time></trkpt><trkpt lat="-26.679348348470864" lon="114.87782269655474"><ele>185.5</ele><time>2026-04-15T07:46:42Z</time></trkpt><trkpt lat="-26.679196014085313" lon="114.87756626197422"><ele>185.0</ele><time>2026-04-15T07:46:43Z</time></trkpt><trkpt lat="-26.679044002461627" lon="114.87731367107693"><ele>185.0</ele><time>2026-04-15T07:46:44Z</time></trkpt><trkpt lat="-26.67889246543048" lon="114.87706696750146"><ele>185.0</ele><time>2026-04-15T07:46:45Z</time></trkpt><trkpt lat="-26.67874171087852" lon="114.87682185610021"><ele>184.0</ele><time>2026-04-15T07:46:46Z</time></trkpt><trkpt lat="-26.678591059891758" lon="114.87657870224811"><ele>183.0</ele><time>2026-04-15T07:46:47Z</time></trkpt><trkpt lat="-26.678442156781074" lon="114.87633715326739"><ele>183.0</ele><time>2026-04-15T07:46:48Z</time></trkpt><trkpt lat="-26.678295102211997" lon="114.87609290344973"><ele>183.0</ele><time>2026-04-15T07:46:49Z</time></trkpt><trkpt lat="-26.678154424280173" lon="114.87585101642193"><ele>183.0</ele><time>2026-04-15T07:46:50Z</time></trkpt><trkpt lat="-26.678009060851696" lon="114.87560308081675"><ele>183.0</ele><time>2026-04-15T07:46:51Z</time></trkpt><trkpt lat="-26.67786447577914" lon="114.87535978525767"><ele>183.0</ele><time>2026-04-15T07:46:52Z</time></trkpt><trkpt lat="-26.67771306615805" lon="114.87511017536656"><ele>183.0</ele><time>2026-04-15T07:46:53Z</time></trkpt><trkpt lat="-26.677559540760978" lon="114.87486611129663"><ele>183.5</ele><time>2026-04-15T07:46:54Z</time></trkpt><trkpt lat="-26.67740457987142" lon="114.87461569214891"><ele>184.0</ele><time>2026-04-15T07:46:55Z</time></trkpt><trkpt lat="-26.6772520970798" lon="114.87436680520932"><ele>184.0</ele><time>2026-04-15T07:46:56Z</time></trkpt><trkpt lat="-26.677097011653952" lon="114.87411390661735"><ele>184.0</ele><time>2026-04-15T07:46:57Z</time></trkpt><trkpt lat="-26.67694521093109" lon="114.87385852238289"><ele>184.0</ele><time>2026-04-15T07:46:58Z</time></trkpt><trkpt lat="-26.676793651464173" lon="114.87360192443379"><ele>184.0</ele><time>2026-04-15T07:46:59Z</time></trkpt><trkpt lat="-26.676635970728118" lon="114.87333996505895"><ele>185.5</ele><time>2026-04-15T07:47:00Z</time></trkpt><trkpt lat="-26.67647880333276" lon="114.87307600337371"><ele>187.0</ele><time>2026-04-15T07:47:01Z</time></trkpt><trkpt lat="-26.676319332341773" lon="114.8728141564206"><ele>185.5</ele><time>2026-04-15T07:47:02Z</time></trkpt><trkpt lat="-26.676159847650087" lon="114.87255409448126"><ele>184.0</ele><time>2026-04-15T07:47:03Z</time></trkpt><trkpt lat="-26.675999031392365" lon="114.87229434113699"><ele>184.0</ele><time>2026-04-15T07:47:04Z</time></trkpt><trkpt lat="-26.675836463769" lon="114.87202973704494"><ele>184.0</ele><time>2026-04-15T07:47:05Z</time></trkpt><trkpt lat="-26.675675620944194" lon="114.87176402984575"><ele>183.5</ele><time>2026-04-15T07:47:06Z</time></trkpt><trkpt lat="-26.675514505435356" lon="114.87149448999499"><ele>183.0</ele><time>2026-04-15T07:47:07Z</time></trkpt><trkpt lat="-26.675355086569148" lon="114.87122754983254"><ele>183.5</ele><time>2026-04-15T07:47:08Z</time></trkpt><trkpt lat="-26.675195733236915" lon="114.87096275934661"><ele>184.0</ele><time>2026-04-15T07:47:09Z</time></trkpt><trkpt lat="-26.67503754511745" lon="114.87069947639594"><ele>184.0</ele><time>2026-04-15T07:47:10Z</time></trkpt><trkpt lat="-26.674878514750702" lon="114.87043501338516"><ele>184.0</ele><time>2026-04-15T07:47:11Z</time></trkpt><trkpt lat="-26.67472221362254" lon="114.87017353392517"><ele>184.0</ele><time>2026-04-15T07:47:12Z</time></trkpt><trkpt lat="-26.67456406329667" lon="114.86990817587065"><ele>184.0</ele><time>2026-04-15T07:47:13Z</time></trkpt><trkpt lat="-26.674406717065015" lon="114.86964271107881"><ele>184.0</ele><time>2026-04-15T07:47:14Z</time></trkpt><trkpt lat="-26.674247174751272" lon="114.86937725415818"><ele>184.0</ele><time>2026-04-15T07:47:15Z</time></trkpt><trkpt lat="-26.674083999614272" lon="114.86910992212506"><ele>184.0</ele><time>2026-04-15T07:47:16Z</time></trkpt><trkpt lat="-26.673920369465286" lon="114.86884170668078"><ele>184.0</ele><time>2026-04-15T07:47:17Z</time></trkpt><trkpt lat="-26.67375761499345" lon="114.86857559538433"><ele>183.0</ele><time>2026-04-15T07:47:18Z</time></trkpt><trkpt lat="-26.67359803069142" lon="114.86830950113217"><ele>182.0</ele><time>2026-04-15T07:47:19Z</time></trkpt><trkpt lat="-26.673439517087598" lon="114.86804734645843"><ele>182.0</ele><time>2026-04-15T07:47:20Z</time></trkpt><trkpt lat="-26.673290637356626" lon="114.86778714508834"><ele>182.0</ele><time>2026-04-15T07:47:21Z</time></trkpt><trkpt lat="-26.67314264120203" lon="114.86752951378111"><ele>181.5</ele><time>2026-04-15T07:47:22Z</time></trkpt><trkpt lat="-26.67299422883059" lon="114.86727607409468"><ele>181.0</ele><time>2026-04-15T07:47:23Z</time></trkpt><trkpt lat="-26.67284698163865" lon="114.8670290902731"><ele>180.0</ele><time>2026-04-15T07:47:24Z</time></trkpt><trkpt lat="-26.672697832715755" lon="114.8667800724542"><ele>179.0</ele><time>2026-04-15T07:47:25Z</time></trkpt><trkpt lat="-26.672549134554117" lon="114.86653138048182"><ele>179.0</ele><time>2026-04-15T07:47:26Z</time></trkpt><trkpt lat="-26.67240010635221" lon="114.86628238752166"><ele>179.0</ele><time>2026-04-15T07:47:27Z</time></trkpt><trkpt lat="-26.672250004985205" lon="114.8660350369567"><ele>179.0</ele><time>2026-04-15T07:47:28Z</time></trkpt><trkpt lat="-26.672099943969414" lon="114.8657816559141"><ele>179.0</ele><time>2026-04-15T07:47:29Z</time></trkpt><trkpt lat="-26.671952292028195" lon="114.86552465740135"><ele>178.5</ele><time>2026-04-15T07:47:30Z</time></trkpt><trkpt lat="-26.671803672906055" lon="114.86526779063665"><ele>178.0</ele><time>2026-04-15T07:47:31Z</time></trkpt><trkpt lat="-26.671649293125416" lon="114.8650054047642"><ele>177.0</ele><time>2026-04-15T07:47:32Z</time></trkpt><trkpt lat="-26.671492545872677" lon="114.86474388937418"><ele>176.0</ele><time>2026-04-15T07:47:33Z</time></trkpt><trkpt lat="-26.671333729736688" lon="114.86447880434379"><ele>175.5</ele><time>2026-04-15T07:47:34Z</time></trkpt><trkpt lat="-26.67117601552879" lon="114.8642174140825"><ele>175.0</ele><time>2026-04-15T07:47:35Z</time></trkpt><trkpt lat="-26.671016007348804" lon="114.86395226540832"><ele>175.0</ele><time>2026-04-15T07:47:36Z</time></trkpt><trkpt lat="-26.670859127923848" lon="114.86368625008956"><ele>175.0</ele><time>2026-04-15T07:47:37Z</time></trkpt><trkpt lat="-26.670703815368032" lon="114.8634231497836"><ele>175.0</ele><time>2026-04-15T07:47:38Z</time></trkpt><trkpt lat="-26.670545208721993" lon="114.86316090631479"><ele>175.0</ele><time>2026-04-15T07:47:39Z</time></trkpt><trkpt lat="-26.670384542059907" lon="114.86289566071171"><ele>175.0</ele><time>2026-04-15T07:47:40Z</time></trkpt><trkpt lat="-26.67022563077132" lon="114.86263193002317"><ele>175.0</ele><time>2026-04-15T07:47:41Z</time></trkpt><trkpt lat="-26.67006725218024" lon="114.86236711790846"><ele>174.5</ele><time>2026-04-15T07:47:42Z</time></trkpt><trkpt lat="-26.669910598418873" lon="114.86210231874142"><ele>174.0</ele><time>2026-04-15T07:47:43Z</time></trkpt><trkpt lat="-26.669753007171327" lon="114.86183861692672"><ele>173.0</ele><time>2026-04-15T07:47:44Z</time></trkpt><trkpt lat="-26.669597389221256" lon="114.86157939725051"><ele>172.0</ele><time>2026-04-15T07:47:45Z</time></trkpt><trkpt lat="-26.66944323351119" lon="114.86132051081067"><ele>173.0</ele><time>2026-04-15T07:47:46Z</time></trkpt><trkpt lat="-26.669290446515493" lon="114.86106192401574"><ele>174.0</ele><time>2026-04-15T07:47:47Z</time></trkpt><trkpt lat="-26.669135596085237" lon="114.86080170906502"><ele>174.0</ele><time>2026-04-15T07:47:48Z</time></trkpt><trkpt lat="-26.668979943624564" lon="114.86053803985311"><ele>174.0</ele><time>2026-04-15T07:47:49Z</time></trkpt><trkpt lat="-26.668821343738937" lon="114.86027213746188"><ele>174.0</ele><time>2026-04-15T07:47:50Z</time></trkpt><trkpt lat="-26.66866103591034" lon="114.86000717828094"><ele>174.0</ele><time>2026-04-15T07:47:51Z</time></trkpt><trkpt lat="-26.668499909845792" lon="114.8597441065631"><ele>174.0</ele><time>2026-04-15T07:47:52Z</time></trkpt><trkpt lat="-26.668338063293277" lon="114.85947560591721"><ele>174.0</ele><time>2026-04-15T07:47:53Z</time></trkpt><trkpt lat="-26.6681796342892" lon="114.85920761521001"><ele>173.5</ele><time>2026-04-15T07:47:54Z</time></trkpt><trkpt lat="-26.668025600445212" lon="114.85893966866946"><ele>173.0</ele><time>2026-04-15T07:47:55Z</time></trkpt><trkpt lat="-26.667872274653835" lon="114.85867361598261"><ele>172.0</ele><time>2026-04-15T07:47:56Z</time></trkpt><trkpt lat="-26.667716384842148" lon="114.85841189973686"><ele>171.0</ele><time>2026-04-15T07:47:57Z</time></trkpt><trkpt lat="-26.667558347487237" lon="114.85815266000019"><ele>171.0</ele><time>2026-04-15T07:47:58Z</time></trkpt><trkpt lat="-26.66740334793099" lon="114.85789396142896"><ele>171.0</ele><time>2026-04-15T07:47:59Z</time></trkpt><trkpt lat="-26.667248159021035" lon="114.85763710077575"><ele>171.5</ele><time>2026-04-15T07:47:59.999Z</time></trkpt><trkpt lat="-26.66708921207863" lon="114.85737528157462"><ele>172.0</ele><time>2026-04-15T07:48:00.999Z</time></trkpt><trkpt lat="-26.66693139257774" lon="114.8571167122498"><ele>172.0</ele><time>2026-04-15T07:48:01.999Z</time></trkpt><trkpt lat="-26.66677516585195" lon="114.856863260141"><ele>172.0</ele><time>2026-04-15T07:48:02.999Z</time></trkpt><trkpt lat="-26.66662471788322" lon="114.85660995395988"><ele>172.5</ele><time>2026-04-15T07:48:03.999Z</time></trkpt><trkpt lat="-26.666476478952557" lon="114.85635745323924"><ele>173.0</ele><time>2026-04-15T07:48:04.999Z</time></trkpt><trkpt lat="-26.666326051258665" lon="114.85610178716335"><ele>173.0</ele><time>2026-04-15T07:48:05.999Z</time></trkpt><trkpt lat="-26.666172031706658" lon="114.85584510481"><ele>173.0</ele><time>2026-04-15T07:48:06.999Z</time></trkpt><trkpt lat="-26.66601650310267" lon="114.85559144164851"><ele>173.0</ele><time>2026-04-15T07:48:07.999Z</time></trkpt><trkpt lat="-26.66586089053083" lon="114.85533616408674"><ele>173.0</ele><time>2026-04-15T07:48:08.999Z</time></trkpt><trkpt lat="-26.665703494346694" lon="114.85508233232842"><ele>173.0</ele><time>2026-04-15T07:48:09.999Z</time></trkpt><trkpt lat="-26.665548456266066" lon="114.85482641256962"><ele>173.0</ele><time>2026-04-15T07:48:10.999Z</time></trkpt><trkpt lat="-26.665395603769053" lon="114.85456437399974"><ele>172.5</ele><time>2026-04-15T07:48:11.999Z</time></trkpt><trkpt lat="-26.665239770122298" lon="114.85430391329493"><ele>172.0</ele><time>2026-04-15T07:48:12.999Z</time></trkpt><trkpt lat="-26.665084525880594" lon="114.85404379983315"><ele>172.0</ele><time>2026-04-15T07:48:13.999Z</time></trkpt><trkpt lat="-26.664930362293507" lon="114.85378171594479"><ele>172.0</ele><time>2026-04-15T07:48:14.999Z</time></trkpt><trkpt lat="-26.66477922874968" lon="114.85352103000012"><ele>170.5</ele><time>2026-04-15T07:48:15.999Z</time></trkpt><trkpt lat="-26.66462837008875" lon="114.85326265082938"><ele>169.0</ele><time>2026-04-15T07:48:16.999Z</time></trkpt><trkpt lat="-26.6644755571493" lon="114.85299891338694"><ele>168.5</ele><time>2026-04-15T07:48:17.999Z</time></trkpt><trkpt lat="-26.664320781420482" lon="114.85273549617315"><ele>168.0</ele><time>2026-04-15T07:48:18.999Z</time></trkpt><trkpt lat="-26.664165894001233" lon="114.85247290010133"><ele>168.0</ele><time>2026-04-15T07:48:19.999Z</time></trkpt><trkpt lat="-26.664012852401676" lon="114.85221156843316"><ele>168.0</ele><time>2026-04-15T07:48:20.999Z</time></trkpt><trkpt lat="-26.66385965295426" lon="114.85194970481575"><ele>167.5</ele><time>2026-04-15T07:48:21.999Z</time></trkpt><trkpt lat="-26.663707671313066" lon="114.8516898234429"><ele>167.0</ele><time>2026-04-15T07:48:22.999Z</time></trkpt><trkpt lat="-26.66355694852188" lon="114.85143369768998"><ele>166.5</ele><time>2026-04-15T07:48:23.999Z</time></trkpt><trkpt lat="-26.663404722613684" lon="114.85117858356485"><ele>166.0</ele><time>2026-04-15T07:48:24.999Z</time></trkpt><trkpt lat="-26.663251665615824" lon="114.85092284804884"><ele>165.5</ele><time>2026-04-15T07:48:25.999Z</time></trkpt><trkpt lat="-26.663099928987524" lon="114.85066679184634"><ele>165.0</ele><time>2026-04-15T07:48:26.999Z</time></trkpt><trkpt lat="-26.662947718784796" lon="114.85040841573793"><ele>165.0</ele><time>2026-04-15T07:48:27.999Z</time></trkpt><trkpt lat="-26.662797990047302" lon="114.85015620434145"><ele>165.0</ele><time>2026-04-15T07:48:28.999Z</time></trkpt><trkpt lat="-26.66265013583565" lon="114.84989905128043"><ele>164.0</ele><time>2026-04-15T07:48:29.999Z</time></trkpt><trkpt lat="-26.662506678808832" lon="114.84964153971048"><ele>163.0</ele><time>2026-04-15T07:48:30.999Z</time></trkpt><trkpt lat="-26.662366013646366" lon="114.84938886483243"><ele>163.5</ele><time>2026-04-15T07:48:31.999Z</time></trkpt><trkpt lat="-26.6622185285924" lon="114.84913610253432"><ele>164.0</ele><time>2026-04-15T07:48:32.999Z</time></trkpt><trkpt lat="-26.662070277071976" lon="114.84889003690277"><ele>164.5</ele><time>2026-04-15T07:48:33.999Z</time></trkpt><trkpt lat="-26.66191714296276" lon="114.84864910512678"><ele>165.0</ele><time>2026-04-15T07:48:34.999Z</time></trkpt><trkpt lat="-26.661754376621456" lon="114.84840934503283"><ele>165.5</ele><time>2026-04-15T07:48:35.999Z</time></trkpt><trkpt lat="-26.66159288256552" lon="114.84816806338425"><ele>166.0</ele><time>2026-04-15T07:48:36.999Z</time></trkpt><trkpt lat="-26.66144016449421" lon="114.8479252231717"><ele>166.0</ele><time>2026-04-15T07:48:37.999Z</time></trkpt><trkpt lat="-26.661287904898" lon="114.84768068199595"><ele>166.0</ele><time>2026-04-15T07:48:38.999Z</time></trkpt><trkpt lat="-26.661145142421233" lon="114.84744227452649"><ele>166.0</ele><time>2026-04-15T07:48:39.999Z</time></trkpt><trkpt lat="-26.66100156392106" lon="114.84719850416059"><ele>166.0</ele><time>2026-04-15T07:48:40.999Z</time></trkpt><trkpt lat="-26.660850638643932" lon="114.84694662636934"><ele>165.5</ele><time>2026-04-15T07:48:41.999Z</time></trkpt><trkpt lat="-26.660698019188775" lon="114.84669376437259"><ele>165.0</ele><time>2026-04-15T07:48:42.999Z</time></trkpt><trkpt lat="-26.660544042282375" lon="114.84644069977928"><ele>165.0</ele><time>2026-04-15T07:48:43.999Z</time></trkpt><trkpt lat="-26.660390785096183" lon="114.84619269144758"><ele>165.0</ele><time>2026-04-15T07:48:44.999Z</time></trkpt><trkpt lat="-26.660239689970435" lon="114.84594590365222"><ele>164.5</ele><time>2026-04-15T07:48:45.999Z</time></trkpt><trkpt lat="-26.66008767249594" lon="114.84570528105984"><ele>164.0</ele><time>2026-04-15T07:48:46.999Z</time></trkpt><trkpt lat="-26.659934829316352" lon="114.8454636699916"><ele>164.0</ele><time>2026-04-15T07:48:47.999Z</time></trkpt><trkpt lat="-26.65978924741381" lon="114.84522253954583"><ele>164.0</ele><time>2026-04-15T07:48:48.999Z</time></trkpt><trkpt lat="-26.65964389704988" lon="114.84497040564509"><ele>163.5</ele><time>2026-04-15T07:48:49.999Z</time></trkpt><trkpt lat="-26.65949809070723" lon="114.84471933130901"><ele>163.0</ele><time>2026-04-15T07:48:50.999Z</time></trkpt><trkpt lat="-26.659348926152216" lon="114.84446206372635"><ele>163.0</ele><time>2026-04-15T07:48:51.999Z</time></trkpt><trkpt lat="-26.659199674005844" lon="114.84421035223001"><ele>163.0</ele><time>2026-04-15T07:48:52.999Z</time></trkpt><trkpt lat="-26.659051478191486" lon="114.84396285193336"><ele>163.0</ele><time>2026-04-15T07:48:53.999Z</time></trkpt><trkpt lat="-26.658903428208927" lon="114.84371663607274"><ele>163.0</ele><time>2026-04-15T07:48:54.999Z</time></trkpt><trkpt lat="-26.658753911269" lon="114.84346735963713"><ele>162.5</ele><time>2026-04-15T07:48:55.999Z</time></trkpt><trkpt lat="-26.658603239327217" lon="114.84321715849849"><ele>162.0</ele><time>2026-04-15T07:48:56.999Z</time></trkpt><trkpt lat="-26.658453006818256" lon="114.84296639950536"><ele>162.0</ele><time>2026-04-15T07:48:57.999Z</time></trkpt><trkpt lat="-26.65830772348627" lon="114.84272009776785"><ele>162.0</ele><time>2026-04-15T07:48:58.999Z</time></trkpt><trkpt lat="-26.658164919483994" lon="114.84247889896692"><ele>162.0</ele><time>2026-04-15T07:48:59.999Z</time></trkpt><trkpt lat="-26.658023025110616" lon="114.8422430734862"><ele>162.0</ele><time>2026-04-15T07:49:00.999Z</time></trkpt><trkpt lat="-26.657883858448947" lon="114.8420138716788"><ele>163.0</ele><time>2026-04-15T07:49:01.999Z</time></trkpt><trkpt lat="-26.65774646430055" lon="114.84177689014156"><ele>164.0</ele><time>2026-04-15T07:49:02.999Z</time></trkpt><trkpt lat="-26.657614567901106" lon="114.84153351244134"><ele>164.0</ele><time>2026-04-15T07:49:03.999Z</time></trkpt><trkpt lat="-26.657488513168495" lon="114.84128958110018"><ele>164.0</ele><time>2026-04-15T07:49:04.999Z</time></trkpt><trkpt lat="-26.65736024809233" lon="114.84103399513889"><ele>163.5</ele><time>2026-04-15T07:49:05.999Z</time></trkpt><trkpt lat="-26.657230451033676" lon="114.8407972058581"><ele>163.0</ele><time>2026-04-15T07:49:06.999Z</time></trkpt><trkpt lat="-26.657100694604555" lon="114.84055519356814"><ele>163.0</ele><time>2026-04-15T07:49:07.999Z</time></trkpt><trkpt lat="-26.656963660838024" lon="114.84034033856074"><ele>163.0</ele><time>2026-04-15T07:49:08.999Z</time></trkpt><trkpt lat="-26.65682559873502" lon="114.84012392574894"><ele>163.0</ele><time>2026-04-15T07:49:09.999Z</time></trkpt><trkpt lat="-26.656690696192907" lon="114.83991705128386"><ele>163.0</ele><time>2026-04-15T07:49:10.999Z</time></trkpt><trkpt lat="-26.656553272777696" lon="114.83969063332037"><ele>163.0</ele><time>2026-04-15T07:49:11.999Z</time></trkpt><trkpt lat="-26.656420727198036" lon="114.8394764834025"><ele>163.0</ele><time>2026-04-15T07:49:12.999Z</time></trkpt><trkpt lat="-26.6562836552387" lon="114.83926048723055"><ele>163.0</ele><time>2026-04-15T07:49:13.999Z</time></trkpt><trkpt lat="-26.656156265292406" lon="114.83905330031156"><ele>163.0</ele><time>2026-04-15T07:49:14.999Z</time></trkpt><trkpt lat="-26.656037927562675" lon="114.83885279674625"><ele>163.0</ele><time>2026-04-15T07:49:16Z</time></trkpt><trkpt lat="-26.65590792678953" lon="114.83864278591845"><ele>162.5</ele><time>2026-04-15T07:49:17Z</time></trkpt><trkpt lat="-26.655764591824735" lon="114.83841048679008"><ele>162.0</ele><time>2026-04-15T07:49:18Z</time></trkpt><trkpt lat="-26.655624749607362" lon="114.8381845691857"><ele>162.0</ele><time>2026-04-15T07:49:19Z</time></trkpt><trkpt lat="-26.655487796806792" lon="114.83795177715092"><ele>162.0</ele><time>2026-04-15T07:49:20Z</time></trkpt><trkpt lat="-26.65534634542296" lon="114.83771349572656"><ele>160.5</ele><time>2026-04-15T07:49:21Z</time></trkpt><trkpt lat="-26.65519784896973" lon="114.8374701947861"><ele>159.0</ele><time>2026-04-15T07:49:22Z</time></trkpt><trkpt lat="-26.65504599693528" lon="114.8372292941681"><ele>159.0</ele><time>2026-04-15T07:49:23Z</time></trkpt><trkpt lat="-26.654895875016347" lon="114.83698681850953"><ele>159.0</ele><time>2026-04-15T07:49:24Z</time></trkpt><trkpt lat="-26.654749378842194" lon="114.83674465704561"><ele>158.5</ele><time>2026-04-15T07:49:25Z</time></trkpt><trkpt lat="-26.654607152359183" lon="114.83650395219789"><ele>158.0</ele><time>2026-04-15T07:49:26Z</time></trkpt><trkpt lat="-26.654464625926348" lon="114.8362634084956"><ele>157.5</ele><time>2026-04-15T07:49:27Z</time></trkpt><trkpt lat="-26.654319302189375" lon="114.83601637698087"><ele>157.0</ele><time>2026-04-15T07:49:28Z</time></trkpt><trkpt lat="-26.654168245989986" lon="114.83576260542782"><ele>156.5</ele><time>2026-04-15T07:49:29Z</time></trkpt><trkpt lat="-26.65401209591784" lon="114.8355086496515"><ele>156.0</ele><time>2026-04-15T07:49:30Z</time></trkpt><trkpt lat="-26.653857269912923" lon="114.83525404783254"><ele>156.0</ele><time>2026-04-15T07:49:31Z</time></trkpt><trkpt lat="-26.653701221849218" lon="114.83499707310759"><ele>156.0</ele><time>2026-04-15T07:49:32Z</time></trkpt><trkpt lat="-26.65354508641475" lon="114.83474281146206"><ele>156.0</ele><time>2026-04-15T07:49:33Z</time></trkpt><trkpt lat="-26.65338791799054" lon="114.83448677085504"><ele>156.0</ele><time>2026-04-15T07:49:34Z</time></trkpt><trkpt lat="-26.65323504740577" lon="114.83423165165013"><ele>157.5</ele><time>2026-04-15T07:49:35Z</time></trkpt><trkpt lat="-26.653084919961614" lon="114.83397879951688"><ele>159.0</ele><time>2026-04-15T07:49:36Z</time></trkpt><trkpt lat="-26.652933178977907" lon="114.83372648506587"><ele>160.0</ele><time>2026-04-15T07:49:37Z</time></trkpt><trkpt lat="-26.65277968386214" lon="114.83347122798182"><ele>161.0</ele><time>2026-04-15T07:49:38Z</time></trkpt><trkpt lat="-26.652627801797365" lon="114.83321766478076"><ele>161.0</ele><time>2026-04-15T07:49:39Z</time></trkpt><trkpt lat="-26.652476857596493" lon="114.83296330501756"><ele>161.0</ele><time>2026-04-15T07:49:40Z</time></trkpt><trkpt lat="-26.65232489191499" lon="114.83271041384893"><ele>161.0</ele><time>2026-04-15T07:49:41Z</time></trkpt><trkpt lat="-26.65217340149347" lon="114.832460918266"><ele>161.0</ele><time>2026-04-15T07:49:42Z</time></trkpt><trkpt lat="-26.6520260657756" lon="114.83221321109296"><ele>160.0</ele><time>2026-04-15T07:49:43Z</time></trkpt><trkpt lat="-26.65187703256125" lon="114.83196845911999"><ele>159.0</ele><time>2026-04-15T07:49:44Z</time></trkpt><trkpt lat="-26.65172412730022" lon="114.83171460398681"><ele>159.0</ele><time>2026-04-15T07:49:45Z</time></trkpt><trkpt lat="-26.651570094056712" lon="114.83145798769756"><ele>159.0</ele><time>2026-04-15T07:49:46Z</time></trkpt><trkpt lat="-26.651417933979626" lon="114.8312058384511"><ele>159.0</ele><time>2026-04-15T07:49:47Z</time></trkpt><trkpt lat="-26.65126637388623" lon="114.83095109995698"><ele>159.0</ele><time>2026-04-15T07:49:48Z</time></trkpt><trkpt lat="-26.65111578203639" lon="114.83069995484416"><ele>158.5</ele><time>2026-04-15T07:49:49Z</time></trkpt><trkpt lat="-26.650965873447298" lon="114.83044638742707"><ele>158.0</ele><time>2026-04-15T07:49:50Z</time></trkpt><trkpt lat="-26.65081713849052" lon="114.83019889033169"><ele>157.5</ele><time>2026-04-15T07:49:51Z</time></trkpt><trkpt lat="-26.650665871360108" lon="114.8299489489534"><ele>157.0</ele><time>2026-04-15T07:49:52Z</time></trkpt><trkpt lat="-26.650518387403906" lon="114.82970457051773"><ele>157.0</ele><time>2026-04-15T07:49:53Z</time></trkpt><trkpt lat="-26.650372931477918" lon="114.82946419644101"><ele>157.0</ele><time>2026-04-15T07:49:54Z</time></trkpt><trkpt lat="-26.65022495429172" lon="114.82922210323983"><ele>156.5</ele><time>2026-04-15T07:49:55Z</time></trkpt><trkpt lat="-26.650074673375578" lon="114.82897589428424"><ele>156.0</ele><time>2026-04-15T07:49:56Z</time></trkpt><trkpt lat="-26.64992442956028" lon="114.82872761693535"><ele>156.0</ele><time>2026-04-15T07:49:57Z</time></trkpt><trkpt lat="-26.64977523366625" lon="114.82848151066271"><ele>156.0</ele><time>2026-04-15T07:49:58Z</time></trkpt><trkpt lat="-26.649629312198773" lon="114.82823514604846"><ele>155.5</ele><time>2026-04-15T07:49:59Z</time></trkpt><trkpt lat="-26.64947713680424" lon="114.82798382399507"><ele>155.0</ele><time>2026-04-15T07:50:00Z</time></trkpt><trkpt lat="-26.649329445463284" lon="114.82773406340215"><ele>154.5</ele><time>2026-04-15T07:50:01Z</time></trkpt><trkpt lat="-26.649176258896826" lon="114.82747855502805"><ele>154.0</ele><time>2026-04-15T07:50:02Z</time></trkpt><trkpt lat="-26.649023375946488" lon="114.82722253772927"><ele>154.0</ele><time>2026-04-15T07:50:03Z</time></trkpt><trkpt lat="-26.64887200872847" lon="114.82696989662165"><ele>154.0</ele><time>2026-04-15T07:50:04Z</time></trkpt><trkpt lat="-26.64871660960243" lon="114.82671053688087"><ele>156.0</ele><time>2026-04-15T07:50:05Z</time></trkpt><trkpt lat="-26.648560138002516" lon="114.82645395414443"><ele>158.0</ele><time>2026-04-15T07:50:05.999Z</time></trkpt><trkpt lat="-26.648404026659744" lon="114.82620233706666"><ele>158.5</ele><time>2026-04-15T07:50:06.999Z</time></trkpt><trkpt lat="-26.648246472508763" lon="114.82594823465175"><ele>159.0</ele><time>2026-04-15T07:50:07.999Z</time></trkpt><trkpt lat="-26.648099023505303" lon="114.82569571843253"><ele>159.0</ele><time>2026-04-15T07:50:08.999Z</time></trkpt><trkpt lat="-26.647953766970577" lon="114.82544423127506"><ele>159.0</ele><time>2026-04-15T07:50:09.999Z</time></trkpt><trkpt lat="-26.64780424144778" lon="114.82519664476827"><ele>160.0</ele><time>2026-04-15T07:50:10.999Z</time></trkpt><trkpt lat="-26.647653811186405" lon="114.82495185033461"><ele>161.0</ele><time>2026-04-15T07:50:11.999Z</time></trkpt><trkpt lat="-26.647498327564666" lon="114.82470701544433"><ele>161.0</ele><time>2026-04-15T07:50:12.999Z</time></trkpt><trkpt lat="-26.647356149491536" lon="114.82446654631823"><ele>161.0</ele><time>2026-04-15T07:50:13.999Z</time></trkpt><trkpt lat="-26.647209152198617" lon="114.82422921096969"><ele>161.0</ele><time>2026-04-15T07:50:14.999Z</time></trkpt><trkpt lat="-26.64705725008972" lon="114.82397769051573"><ele>161.0</ele><time>2026-04-15T07:50:15.999Z</time></trkpt><trkpt lat="-26.646903659459973" lon="114.8237213056499"><ele>159.0</ele><time>2026-04-15T07:50:16.999Z</time></trkpt><trkpt lat="-26.646746845801527" lon="114.82345815078001"><ele>157.0</ele><time>2026-04-15T07:50:17.999Z</time></trkpt><trkpt lat="-26.646590706394132" lon="114.82319321341978"><ele>157.0</ele><time>2026-04-15T07:50:18.999Z</time></trkpt><trkpt lat="-26.646431970182622" lon="114.82292921028694"><ele>157.0</ele><time>2026-04-15T07:50:19.999Z</time></trkpt><trkpt lat="-26.64626926518826" lon="114.82266475225929"><ele>156.5</ele><time>2026-04-15T07:50:20.999Z</time></trkpt><trkpt lat="-26.646107301300706" lon="114.82240141167172"><ele>156.0</ele><time>2026-04-15T07:50:21.999Z</time></trkpt><trkpt lat="-26.645948618151547" lon="114.82213714232176"><ele>156.0</ele><time>2026-04-15T07:50:22.999Z</time></trkpt><trkpt lat="-26.645788721026953" lon="114.82186852179922"><ele>156.0</ele><time>2026-04-15T07:50:23.999Z</time></trkpt><trkpt lat="-26.645629254730178" lon="114.82159945390703"><ele>156.0</ele><time>2026-04-15T07:50:24.999Z</time></trkpt><trkpt lat="-26.645466381191515" lon="114.8213287822423"><ele>156.0</ele><time>2026-04-15T07:50:25.999Z</time></trkpt><trkpt lat="-26.645303178458096" lon="114.82105620473972"><ele>156.0</ele><time>2026-04-15T07:50:26.999Z</time></trkpt><trkpt lat="-26.6451373977646" lon="114.82078204087496"><ele>156.0</ele><time>2026-04-15T07:50:27.999Z</time></trkpt><trkpt lat="-26.644971955540377" lon="114.82050818776186"><ele>156.0</ele><time>2026-04-15T07:50:28.999Z</time></trkpt><trkpt lat="-26.644808643382753" lon="114.8202366089681"><ele>156.0</ele><time>2026-04-15T07:50:29.999Z</time></trkpt><trkpt lat="-26.644646806162818" lon="114.81996958239375"><ele>155.5</ele><time>2026-04-15T07:50:30.999Z</time></trkpt><trkpt lat="-26.644487271500342" lon="114.8197062328271"><ele>155.0</ele><time>2026-04-15T07:50:32Z</time></trkpt><trkpt lat="-26.6443319818551" lon="114.81944964397479"><ele>155.5</ele><time>2026-04-15T07:50:33Z</time></trkpt><trkpt lat="-26.644174225846626" lon="114.81919081026489"><ele>156.0</ele><time>2026-04-15T07:50:34Z</time></trkpt><trkpt lat="-26.644016676550685" lon="114.81892863398039"><ele>156.0</ele><time>2026-04-15T07:50:35Z</time></trkpt><trkpt lat="-26.643862107129838" lon="114.8186672709767"><ele>156.0</ele><time>2026-04-15T07:50:36Z</time></trkpt><trkpt lat="-26.64370484813713" lon="114.81840532364875"><ele>156.0</ele><time>2026-04-15T07:50:37Z</time></trkpt><trkpt lat="-26.643546035666493" lon="114.81814875687986"><ele>156.0</ele><time>2026-04-15T07:50:38Z</time></trkpt><trkpt lat="-26.643385089918027" lon="114.8178917765349"><ele>157.0</ele><time>2026-04-15T07:50:39Z</time></trkpt><trkpt lat="-26.643221401582874" lon="114.81763204664207"><ele>158.0</ele><time>2026-04-15T07:50:40Z</time></trkpt><trkpt lat="-26.643059984442903" lon="114.81737280224125"><ele>158.0</ele><time>2026-04-15T07:50:41Z</time></trkpt><trkpt lat="-26.642899125604675" lon="114.81710815485769"><ele>158.0</ele><time>2026-04-15T07:50:42Z</time></trkpt><trkpt lat="-26.642738720273815" lon="114.81684362081384"><ele>156.5</ele><time>2026-04-15T07:50:43Z</time></trkpt><trkpt lat="-26.64257710405863" lon="114.81657879017722"><ele>155.0</ele><time>2026-04-15T07:50:44Z</time></trkpt><trkpt lat="-26.642415301059174" lon="114.81631124040912"><ele>155.0</ele><time>2026-04-15T07:50:45Z</time></trkpt><trkpt lat="-26.64225463235197" lon="114.8160477910432"><ele>155.0</ele><time>2026-04-15T07:50:46Z</time></trkpt><trkpt lat="-26.64209400205157" lon="114.81578409034056"><ele>154.5</ele><time>2026-04-15T07:50:47Z</time></trkpt><trkpt lat="-26.641933268145866" lon="114.81552269368883"><ele>154.0</ele><time>2026-04-15T07:50:48Z</time></trkpt><trkpt lat="-26.64177142586105" lon="114.81525950738316"><ele>154.5</ele><time>2026-04-15T07:50:49Z</time></trkpt><trkpt lat="-26.641611349765466" lon="114.81499673618225"><ele>155.0</ele><time>2026-04-15T07:50:50Z</time></trkpt><trkpt lat="-26.641452478044464" lon="114.81473124977717"><ele>155.0</ele><time>2026-04-15T07:50:51Z</time></trkpt><trkpt lat="-26.641297270849442" lon="114.81446991320966"><ele>155.0</ele><time>2026-04-15T07:50:52Z</time></trkpt><trkpt lat="-26.641150322438165" lon="114.81421828455746"><ele>155.0</ele><time>2026-04-15T07:50:53Z</time></trkpt><trkpt lat="-26.641016717102005" lon="114.81397855316477"><ele>155.0</ele><time>2026-04-15T07:50:54Z</time></trkpt><trkpt lat="-26.64089850473957" lon="114.8137444177835"><ele>155.0</ele><time>2026-04-15T07:50:55Z</time></trkpt><trkpt lat="-26.640800417560957" lon="114.81350718059556"><ele>155.0</ele><time>2026-04-15T07:50:56Z</time></trkpt><trkpt lat="-26.640731274174808" lon="114.81326536548362"><ele>156.0</ele><time>2026-04-15T07:50:57Z</time></trkpt><trkpt lat="-26.640683342107845" lon="114.81300276475376"><ele>157.0</ele><time>2026-04-15T07:50:58Z</time></trkpt><trkpt lat="-26.640655327805874" lon="114.81273217438086"><ele>157.0</ele><time>2026-04-15T07:50:59Z</time></trkpt><trkpt lat="-26.640647694953365" lon="114.81246067829112"><ele>157.0</ele><time>2026-04-15T07:51:00Z</time></trkpt><trkpt lat="-26.640655099819185" lon="114.81218844567871"><ele>157.0</ele><time>2026-04-15T07:51:01Z</time></trkpt><trkpt lat="-26.64067125361423" lon="114.81191570613802"><ele>157.0</ele><time>2026-04-15T07:51:02Z</time></trkpt><trkpt lat="-26.640682998420505" lon="114.81163899282721"><ele>157.5</ele><time>2026-04-15T07:51:03Z</time></trkpt><trkpt lat="-26.6406844403713" lon="114.81135842538815"><ele>158.0</ele><time>2026-04-15T07:51:04Z</time></trkpt><trkpt lat="-26.64068756442215" lon="114.81107619280348"><ele>157.5</ele><time>2026-04-15T07:51:05Z</time></trkpt><trkpt lat="-26.640694035276674" lon="114.81080649565354"><ele>157.0</ele><time>2026-04-15T07:51:06Z</time></trkpt><trkpt lat="-26.640702920651414" lon="114.81051498584702"><ele>157.0</ele><time>2026-04-15T07:51:07Z</time></trkpt><trkpt lat="-26.640708126657174" lon="114.81022514737758"><ele>157.0</ele><time>2026-04-15T07:51:08Z</time></trkpt><trkpt lat="-26.640712082623516" lon="114.80994482600283"><ele>155.0</ele><time>2026-04-15T07:51:09Z</time></trkpt><trkpt lat="-26.64072238397705" lon="114.80966382164436"><ele>153.0</ele><time>2026-04-15T07:51:10Z</time></trkpt><trkpt lat="-26.640730785711018" lon="114.80936641716401"><ele>152.5</ele><time>2026-04-15T07:51:11Z</time></trkpt><trkpt lat="-26.640744703171034" lon="114.8090647354921"><ele>152.0</ele><time>2026-04-15T07:51:12Z</time></trkpt><trkpt lat="-26.64075576630294" lon="114.80876147500301"><ele>152.5</ele><time>2026-04-15T07:51:13.001Z</time></trkpt><trkpt lat="-26.64076142417158" lon="114.8084604492573"><ele>153.0</ele><time>2026-04-15T07:51:14.001Z</time></trkpt><trkpt lat="-26.640765432980434" lon="114.80815698491878"><ele>153.0</ele><time>2026-04-15T07:51:15.001Z</time></trkpt><trkpt lat="-26.64076986550398" lon="114.80786388512995"><ele>153.0</ele><time>2026-04-15T07:51:16.001Z</time></trkpt><trkpt lat="-26.6407739889973" lon="114.80756360627"><ele>152.5</ele><time>2026-04-15T07:51:17.001Z</time></trkpt><trkpt lat="-26.640780056569113" lon="114.80726570477086"><ele>152.0</ele><time>2026-04-15T07:51:18.001Z</time></trkpt><trkpt lat="-26.640782643385915" lon="114.80695432757955"><ele>152.0</ele><time>2026-04-15T07:51:19.001Z</time></trkpt><trkpt lat="-26.640785142613264" lon="114.80664531594714"><ele>152.0</ele><time>2026-04-15T07:51:20.001Z</time></trkpt><trkpt lat="-26.640788822429915" lon="114.80633514336932"><ele>152.0</ele><time>2026-04-15T07:51:21.001Z</time></trkpt><trkpt lat="-26.64079088813064" lon="114.80602916831216"><ele>152.0</ele><time>2026-04-15T07:51:22.001Z</time></trkpt><trkpt lat="-26.64079345486786" lon="114.80572124556572"><ele>151.0</ele><time>2026-04-15T07:51:23.001Z</time></trkpt><trkpt lat="-26.640793596648603" lon="114.80541516040027"><ele>150.0</ele><time>2026-04-15T07:51:24.001Z</time></trkpt><trkpt lat="-26.640789281466066" lon="114.80511312245899"><ele>150.0</ele><time>2026-04-15T07:51:25.001Z</time></trkpt><trkpt lat="-26.640784547563747" lon="114.80481293280606"><ele>150.0</ele><time>2026-04-15T07:51:26.001Z</time></trkpt><trkpt lat="-26.640783283343687" lon="114.8045171698603"><ele>150.0</ele><time>2026-04-15T07:51:27.001Z</time></trkpt><trkpt lat="-26.640783789276135" lon="114.8042231168795"><ele>150.0</ele><time>2026-04-15T07:51:28.001Z</time></trkpt><trkpt lat="-26.640788553663945" lon="114.80392289439091"><ele>150.0</ele><time>2026-04-15T07:51:29.001Z</time></trkpt><trkpt lat="-26.640793600672698" lon="114.80362030880632"><ele>150.0</ele><time>2026-04-15T07:51:30.001Z</time></trkpt><trkpt lat="-26.64079515585326" lon="114.80331349076786"><ele>150.5</ele><time>2026-04-15T07:51:31.001Z</time></trkpt><trkpt lat="-26.640796204256915" lon="114.80299793321808"><ele>151.0</ele><time>2026-04-15T07:51:32.001Z</time></trkpt><trkpt lat="-26.640798744209555" lon="114.80268934579159"><ele>151.0</ele><time>2026-04-15T07:51:33.001Z</time></trkpt><trkpt lat="-26.64080023246337" lon="114.80237606054706"><ele>151.0</ele><time>2026-04-15T07:51:34.001Z</time></trkpt><trkpt lat="-26.64079973268788" lon="114.8020621523045"><ele>152.0</ele><time>2026-04-15T07:51:35.001Z</time></trkpt><trkpt lat="-26.640801688847585" lon="114.801752912754"><ele>153.0</ele><time>2026-04-15T07:51:36.001Z</time></trkpt><trkpt lat="-26.640801369885935" lon="114.80144126634464"><ele>153.0</ele><time>2026-04-15T07:51:37.001Z</time></trkpt><trkpt lat="-26.640800884122392" lon="114.80112866848482"><ele>153.0</ele><time>2026-04-15T07:51:38.001Z</time></trkpt><trkpt lat="-26.64079964757605" lon="114.80082494564253"><ele>152.5</ele><time>2026-04-15T07:51:39.001Z</time></trkpt><trkpt lat="-26.640798756543997" lon="114.80052715185447"><ele>152.0</ele><time>2026-04-15T07:51:40.001Z</time></trkpt><trkpt lat="-26.640799781407956" lon="114.80023128297444"><ele>152.0</ele><time>2026-04-15T07:51:41.001Z</time></trkpt><trkpt lat="-26.64080054575218" lon="114.7999300861951"><ele>152.0</ele><time>2026-04-15T07:51:42.001Z</time></trkpt><trkpt lat="-26.640801285783414" lon="114.79962608924642"><ele>152.0</ele><time>2026-04-15T07:51:43.001Z</time></trkpt><trkpt lat="-26.640798695297693" lon="114.79932249924157"><ele>152.0</ele><time>2026-04-15T07:51:44.001Z</time></trkpt><trkpt lat="-26.640801165224122" lon="114.7990153148478"><ele>152.0</ele><time>2026-04-15T07:51:45.001Z</time></trkpt><trkpt lat="-26.640803271739248" lon="114.79871110858646"><ele>152.0</ele><time>2026-04-15T07:51:46.001Z</time></trkpt><trkpt lat="-26.640805992890265" lon="114.79840352248412"><ele>151.0</ele><time>2026-04-15T07:51:47.001Z</time></trkpt><trkpt lat="-26.64080878294412" lon="114.79809786136593"><ele>150.0</ele><time>2026-04-15T07:51:48.001Z</time></trkpt><trkpt lat="-26.640811576075116" lon="114.79779210124047"><ele>149.0</ele><time>2026-04-15T07:51:49.001Z</time></trkpt><trkpt lat="-26.640813921131734" lon="114.79748218702751"><ele>148.0</ele><time>2026-04-15T07:51:50.001Z</time></trkpt><trkpt lat="-26.640816625844188" lon="114.79717776821474"><ele>148.0</ele><time>2026-04-15T07:51:51.001Z</time></trkpt><trkpt lat="-26.64081621297728" lon="114.79687775630771"><ele>148.0</ele><time>2026-04-15T07:51:52.001Z</time></trkpt><trkpt lat="-26.640816449274006" lon="114.79657436263511"><ele>148.0</ele><time>2026-04-15T07:51:53.001Z</time></trkpt><trkpt lat="-26.640814168283942" lon="114.79626895532704"><ele>148.0</ele><time>2026-04-15T07:51:54.001Z</time></trkpt><trkpt lat="-26.64081331801472" lon="114.79596823885596"><ele>148.0</ele><time>2026-04-15T07:51:55.001Z</time></trkpt><trkpt lat="-26.640814843767437" lon="114.79566132993098"><ele>148.0</ele><time>2026-04-15T07:51:56.001Z</time></trkpt><trkpt lat="-26.640817996156876" lon="114.79535684664637"><ele>147.0</ele><time>2026-04-15T07:51:57.001Z</time></trkpt><trkpt lat="-26.640821319467616" lon="114.795041289978"><ele>146.0</ele><time>2026-04-15T07:51:58.001Z</time></trkpt><trkpt lat="-26.64082029659898" lon="114.79472201650482"><ele>146.0</ele><time>2026-04-15T07:51:59.001Z</time></trkpt><trkpt lat="-26.640818334850586" lon="114.79440121909842"><ele>146.0</ele><time>2026-04-15T07:52:00.001Z</time></trkpt><trkpt lat="-26.64081661954746" lon="114.79407999103383"><ele>146.0</ele><time>2026-04-15T07:52:01.001Z</time></trkpt><trkpt lat="-26.640819142814678" lon="114.79375997005538"><ele>146.0</ele><time>2026-04-15T07:52:02.001Z</time></trkpt><trkpt lat="-26.640818680603495" lon="114.7934416151505"><ele>146.0</ele><time>2026-04-15T07:52:03.001Z</time></trkpt><trkpt lat="-26.640819354829816" lon="114.79312351865927"><ele>146.0</ele><time>2026-04-15T07:52:04.001Z</time></trkpt><trkpt lat="-26.64082108147191" lon="114.79281243421858"><ele>145.0</ele><time>2026-04-15T07:52:05.001Z</time></trkpt><trkpt lat="-26.640822878639828" lon="114.7925047257502"><ele>144.0</ele><time>2026-04-15T07:52:06.001Z</time></trkpt><trkpt lat="-26.640825149888833" lon="114.79218881935483"><ele>144.0</ele><time>2026-04-15T07:52:07.001Z</time></trkpt><trkpt lat="-26.640827437473487" lon="114.79186406733099"><ele>144.0</ele><time>2026-04-15T07:52:08.001Z</time></trkpt><trkpt lat="-26.640829131749694" lon="114.79153566019588"><ele>143.5</ele><time>2026-04-15T07:52:09.001Z</time></trkpt><trkpt lat="-26.640830659350044" lon="114.79120661282367"><ele>143.0</ele><time>2026-04-15T07:52:10.001Z</time></trkpt><trkpt lat="-26.640831199883035" lon="114.79087962510367"><ele>144.0</ele><time>2026-04-15T07:52:11.001Z</time></trkpt><trkpt lat="-26.64083330481335" lon="114.7905530203206"><ele>145.0</ele><time>2026-04-15T07:52:12.001Z</time></trkpt><trkpt lat="-26.64083843702776" lon="114.79023113033904"><ele>144.0</ele><time>2026-04-15T07:52:13.001Z</time></trkpt><trkpt lat="-26.640845749187793" lon="114.7898983831106"><ele>143.0</ele><time>2026-04-15T07:52:14.001Z</time></trkpt><trkpt lat="-26.640850302562978" lon="114.78956831075148"><ele>144.0</ele><time>2026-04-15T07:52:15.001Z</time></trkpt><trkpt lat="-26.6408521410329" lon="114.78923000079908"><ele>145.0</ele><time>2026-04-15T07:52:16.001Z</time></trkpt><trkpt lat="-26.640850906725127" lon="114.78889508067383"><ele>145.0</ele><time>2026-04-15T07:52:17.001Z</time></trkpt><trkpt lat="-26.640850148453517" lon="114.78856454133431"><ele>145.0</ele><time>2026-04-15T07:52:18.001Z</time></trkpt><trkpt lat="-26.640850610227822" lon="114.78823512383116"><ele>145.5</ele><time>2026-04-15T07:52:19.001Z</time></trkpt><trkpt lat="-26.640849620518228" lon="114.7879055428415"><ele>146.0</ele><time>2026-04-15T07:52:20.001Z</time></trkpt><trkpt lat="-26.6408497857577" lon="114.78757564464081"><ele>146.0</ele><time>2026-04-15T07:52:21.001Z</time></trkpt><trkpt lat="-26.640849973822835" lon="114.78724289971021"><ele>146.0</ele><time>2026-04-15T07:52:22.001Z</time></trkpt><trkpt lat="-26.640850512172985" lon="114.78691106050343"><ele>146.5</ele><time>2026-04-15T07:52:23.001Z</time></trkpt><trkpt lat="-26.640849505222832" lon="114.78657899362395"><ele>147.0</ele><time>2026-04-15T07:52:24.001Z</time></trkpt><trkpt lat="-26.640850042929216" lon="114.78624360542673"><ele>146.5</ele><time>2026-04-15T07:52:25.001Z</time></trkpt><trkpt lat="-26.640852126734565" lon="114.78591433513664"><ele>146.0</ele><time>2026-04-15T07:52:26.001Z</time></trkpt><trkpt lat="-26.64085441449164" lon="114.78557608928529"><ele>146.0</ele><time>2026-04-15T07:52:27.001Z</time></trkpt><trkpt lat="-26.6408546013438" lon="114.78524130928609"><ele>146.0</ele><time>2026-04-15T07:52:28.001Z</time></trkpt><trkpt lat="-26.640853568661466" lon="114.78490728817631"><ele>147.0</ele><time>2026-04-15T07:52:29.001Z</time></trkpt><trkpt lat="-26.64085140906445" lon="114.78457136450503"><ele>148.0</ele><time>2026-04-15T07:52:30.001Z</time></trkpt><trkpt lat="-26.64085031774224" lon="114.78423866714265"><ele>148.0</ele><time>2026-04-15T07:52:31.001Z</time></trkpt><trkpt lat="-26.640850705602716" lon="114.78391048296112"><ele>148.0</ele><time>2026-04-15T07:52:32.001Z</time></trkpt><trkpt lat="-26.640854246858037" lon="114.78357701833687"><ele>148.5</ele><time>2026-04-15T07:52:33.001Z</time></trkpt><trkpt lat="-26.640857646274103" lon="114.78324607508287"><ele>149.0</ele><time>2026-04-15T07:52:34.001Z</time></trkpt><trkpt lat="-26.64085991115058" lon="114.78292045715723"><ele>149.5</ele><time>2026-04-15T07:52:35.001Z</time></trkpt><trkpt lat="-26.640861162828603" lon="114.78259013818749"><ele>150.0</ele><time>2026-04-15T07:52:36.001Z</time></trkpt><trkpt lat="-26.64086222224175" lon="114.78226216202778"><ele>150.0</ele><time>2026-04-15T07:52:37.001Z</time></trkpt><trkpt lat="-26.640860883431692" lon="114.78193259456083"><ele>150.0</ele><time>2026-04-15T07:52:38.001Z</time></trkpt><trkpt lat="-26.6408582426147" lon="114.78159987361667"><ele>150.0</ele><time>2026-04-15T07:52:39.001Z</time></trkpt><trkpt lat="-26.640857243567655" lon="114.78126889881649"><ele>150.0</ele><time>2026-04-15T07:52:40.001Z</time></trkpt><trkpt lat="-26.64085817850805" lon="114.7809379372269"><ele>150.0</ele><time>2026-04-15T07:52:41.001Z</time></trkpt><trkpt lat="-26.64085731251815" lon="114.78060351332967"><ele>150.0</ele><time>2026-04-15T07:52:42.001Z</time></trkpt><trkpt lat="-26.640854173136383" lon="114.780266415735"><ele>149.5</ele><time>2026-04-15T07:52:43.001Z</time></trkpt><trkpt lat="-26.64085166605587" lon="114.77992481087348"><ele>149.0</ele><time>2026-04-15T07:52:44.001Z</time></trkpt><trkpt lat="-26.64084790242837" lon="114.7795854303595"><ele>148.5</ele><time>2026-04-15T07:52:45.001Z</time></trkpt><trkpt lat="-26.640845432835363" lon="114.77924374658618"><ele>148.0</ele><time>2026-04-15T07:52:46.001Z</time></trkpt><trkpt lat="-26.640844875395448" lon="114.77890036355326"><ele>148.0</ele><time>2026-04-15T07:52:47.001Z</time></trkpt><trkpt lat="-26.640844238067725" lon="114.77855986494926"><ele>148.0</ele><time>2026-04-15T07:52:48.001Z</time></trkpt><trkpt lat="-26.640848878034948" lon="114.77821782477514"><ele>148.0</ele><time>2026-04-15T07:52:49.001Z</time></trkpt><trkpt lat="-26.640853996279947" lon="114.7778804448507"><ele>148.0</ele><time>2026-04-15T07:52:50.001Z</time></trkpt><trkpt lat="-26.64085618840504" lon="114.77754013765573"><ele>148.0</ele><time>2026-04-15T07:52:51.001Z</time></trkpt><trkpt lat="-26.640857731724747" lon="114.77719803906614"><ele>148.0</ele><time>2026-04-15T07:52:52.001Z</time></trkpt><trkpt lat="-26.640860273463566" lon="114.7768586624025"><ele>149.0</ele><time>2026-04-15T07:52:53.001Z</time></trkpt><trkpt lat="-26.64086077595725" lon="114.77651816943286"><ele>150.0</ele><time>2026-04-15T07:52:54.001Z</time></trkpt><trkpt lat="-26.640860384403265" lon="114.77618719566614"><ele>150.5</ele><time>2026-04-15T07:52:55.001Z</time></trkpt><trkpt lat="-26.640858671989236" lon="114.77585175027164"><ele>151.0</ele><time>2026-04-15T07:52:56.001Z</time></trkpt><trkpt lat="-26.640860256837822" lon="114.77551875657605"><ele>149.5</ele><time>2026-04-15T07:52:57.001Z</time></trkpt><trkpt lat="-26.640864625796958" lon="114.77518652470978"><ele>148.0</ele><time>2026-04-15T07:52:58.001Z</time></trkpt><trkpt lat="-26.640869067644314" lon="114.77484709001557"><ele>148.0</ele><time>2026-04-15T07:52:59.001Z</time></trkpt><trkpt lat="-26.64087187801363" lon="114.77450734551668"><ele>148.0</ele><time>2026-04-15T07:53:00.001Z</time></trkpt><trkpt lat="-26.640872668951356" lon="114.7741724602856"><ele>148.5</ele><time>2026-04-15T07:53:01.001Z</time></trkpt><trkpt lat="-26.640872618322486" lon="114.77383222401333"><ele>149.0</ele><time>2026-04-15T07:53:02.001Z</time></trkpt><trkpt lat="-26.640873993282113" lon="114.77349245618635"><ele>149.5</ele><time>2026-04-15T07:53:03.001Z</time></trkpt><trkpt lat="-26.640879929062002" lon="114.77315464245761"><ele>150.0</ele><time>2026-04-15T07:53:04.001Z</time></trkpt><trkpt lat="-26.640883893066587" lon="114.77281552194952"><ele>150.5</ele><time>2026-04-15T07:53:05.001Z</time></trkpt><trkpt lat="-26.640882806704838" lon="114.77247541028268"><ele>151.0</ele><time>2026-04-15T07:53:06.001Z</time></trkpt><trkpt lat="-26.640880060967287" lon="114.77213813990234"><ele>152.0</ele><time>2026-04-15T07:53:07.001Z</time></trkpt><trkpt lat="-26.64088092236319" lon="114.77180409469175"><ele>153.0</ele><time>2026-04-15T07:53:08.001Z</time></trkpt><trkpt lat="-26.64088016762732" lon="114.77147231178427"><ele>153.0</ele><time>2026-04-15T07:53:09.001Z</time></trkpt><trkpt lat="-26.64088039480463" lon="114.77114150264386"><ele>153.0</ele><time>2026-04-15T07:53:10.001Z</time></trkpt><trkpt lat="-26.640881093079685" lon="114.7708075079375"><ele>152.5</ele><time>2026-04-15T07:53:11.001Z</time></trkpt><trkpt lat="-26.640881240211698" lon="114.7704705416929"><ele>152.0</ele><time>2026-04-15T07:53:12.001Z</time></trkpt><trkpt lat="-26.6408830507968" lon="114.77013346667079"><ele>152.0</ele><time>2026-04-15T07:53:13.001Z</time></trkpt><trkpt lat="-26.64088316156909" lon="114.76980184204491"><ele>152.0</ele><time>2026-04-15T07:53:14.001Z</time></trkpt><trkpt lat="-26.640884944598067" lon="114.76947000063726"><ele>152.0</ele><time>2026-04-15T07:53:15.001Z</time></trkpt><trkpt lat="-26.64088806785116" lon="114.76914045400163"><ele>152.0</ele><time>2026-04-15T07:53:16.001Z</time></trkpt><trkpt lat="-26.640893636295303" lon="114.76880893206749"><ele>152.5</ele><time>2026-04-15T07:53:17.001Z</time></trkpt><trkpt lat="-26.640894771162923" lon="114.7684782864498"><ele>153.0</ele><time>2026-04-15T07:53:18.001Z</time></trkpt><trkpt lat="-26.640896232410654" lon="114.76814506899153"><ele>153.0</ele><time>2026-04-15T07:53:19.001Z</time></trkpt><trkpt lat="-26.64089526193133" lon="114.7678102726309"><ele>153.0</ele><time>2026-04-15T07:53:20.001Z</time></trkpt><trkpt lat="-26.64089275403639" lon="114.76748097293681"><ele>153.0</ele><time>2026-04-15T07:53:21.001Z</time></trkpt><trkpt lat="-26.64089214405607" lon="114.76714895275752"><ele>153.0</ele><time>2026-04-15T07:53:22.001Z</time></trkpt><trkpt lat="-26.640893663954127" lon="114.76681199532781"><ele>154.0</ele><time>2026-04-15T07:53:23.001Z</time></trkpt><trkpt lat="-26.640893763527618" lon="114.76647961361485"><ele>155.0</ele><time>2026-04-15T07:53:24.001Z</time></trkpt><trkpt lat="-26.640892664055322" lon="114.7661514110523"><ele>155.0</ele><time>2026-04-15T07:53:25.001Z</time></trkpt><trkpt lat="-26.64089109453106" lon="114.76582394985935"><ele>155.0</ele><time>2026-04-15T07:53:26.001Z</time></trkpt><trkpt lat="-26.640890449738446" lon="114.76549081567426"><ele>154.5</ele><time>2026-04-15T07:53:27.001Z</time></trkpt><trkpt lat="-26.640888247268382" lon="114.76516058328507"><ele>154.0</ele><time>2026-04-15T07:53:28.001Z</time></trkpt><trkpt lat="-26.640889460130623" lon="114.76482991079857"><ele>154.0</ele><time>2026-04-15T07:53:29.001Z</time></trkpt><trkpt lat="-26.64088961756689" lon="114.7645024101312"><ele>154.0</ele><time>2026-04-15T07:53:30.001Z</time></trkpt><trkpt lat="-26.640889292464628" lon="114.76417708907887"><ele>154.0</ele><time>2026-04-15T07:53:31.001Z</time></trkpt><trkpt lat="-26.64089096956891" lon="114.7638541989934"><ele>154.0</ele><time>2026-04-15T07:53:32.001Z</time></trkpt><trkpt lat="-26.640895488832975" lon="114.76353009606815"><ele>154.0</ele><time>2026-04-15T07:53:33.001Z</time></trkpt><trkpt lat="-26.640895268057935" lon="114.76320573971589"><ele>154.0</ele><time>2026-04-15T07:53:34.001Z</time></trkpt><trkpt lat="-26.64089484745986" lon="114.76287898734938"><ele>153.5</ele><time>2026-04-15T07:53:35.001Z</time></trkpt><trkpt lat="-26.640892628285712" lon="114.76255780438522"><ele>153.0</ele><time>2026-04-15T07:53:36.001Z</time></trkpt><trkpt lat="-26.64089157486546" lon="114.76224154966381"><ele>153.0</ele><time>2026-04-15T07:53:37.001Z</time></trkpt><trkpt lat="-26.640888056384494" lon="114.7619333508063"><ele>153.0</ele><time>2026-04-15T07:53:38.001Z</time></trkpt><trkpt lat="-26.6408856296182" lon="114.76165457319398"><ele>153.0</ele><time>2026-04-15T07:53:39.001Z</time></trkpt><trkpt lat="-26.640884473491536" lon="114.76139334681605"><ele>153.0</ele><time>2026-04-15T07:53:40.001Z</time></trkpt><trkpt lat="-26.640886970161233" lon="114.76113707064668"><ele>152.66666666666666</ele><time>2026-04-15T07:53:41.001Z</time></trkpt><trkpt lat="-26.640888427475698" lon="114.76089043140135"><ele>152.33333333333331</ele><time>2026-04-15T07:53:42.001Z</time></trkpt><trkpt lat="-26.640886008170686" lon="114.76064318418217"><ele>152.0</ele><time>2026-04-15T07:53:43.001Z</time></trkpt><trkpt lat="-26.640874490563423" lon="114.76039725977405"><ele>152.0</ele><time>2026-04-15T07:53:44.001Z</time></trkpt><trkpt lat="-26.64086096210487" lon="114.7601367758522"><ele>152.0</ele><time>2026-04-15T07:53:45.001Z</time></trkpt><trkpt lat="-26.640850813110134" lon="114.75986306468111"><ele>152.0</ele><time>2026-04-15T07:53:46.001Z</time></trkpt><trkpt lat="-26.64084622541754" lon="114.75959180361242"><ele>152.0</ele><time>2026-04-15T07:53:47.001Z</time></trkpt><trkpt lat="-26.640852660905633" lon="114.75930903905676"><ele>152.0</ele><time>2026-04-15T07:53:48.001Z</time></trkpt><trkpt lat="-26.64086574770513" lon="114.75902349363673"><ele>152.0</ele><time>2026-04-15T07:53:49.001Z</time></trkpt><trkpt lat="-26.640877023483036" lon="114.75873900027878"><ele>151.5</ele><time>2026-04-15T07:53:50.001Z</time></trkpt><trkpt lat="-26.640885700538455" lon="114.75845203289003"><ele>151.0</ele><time>2026-04-15T07:53:51.001Z</time></trkpt><trkpt lat="-26.640890686920738" lon="114.7581671679441"><ele>151.0</ele><time>2026-04-15T07:53:52.001Z</time></trkpt><trkpt lat="-26.64089355278899" lon="114.75787531152756"><ele>151.0</ele><time>2026-04-15T07:53:53.001Z</time></trkpt><trkpt lat="-26.640895842295574" lon="114.75757614309371"><ele>151.5</ele><time>2026-04-15T07:53:54.001Z</time></trkpt><trkpt lat="-26.640897609545423" lon="114.75727238055617"><ele>152.0</ele><time>2026-04-15T07:53:55.001Z</time></trkpt><trkpt lat="-26.64090119993404" lon="114.75695908549048"><ele>150.0</ele><time>2026-04-15T07:53:56.001Z</time></trkpt><trkpt lat="-26.640903417778024" lon="114.75664751041724"><ele>148.0</ele><time>2026-04-15T07:53:57.001Z</time></trkpt><trkpt lat="-26.640905293885044" lon="114.75633276535589"><ele>147.5</ele><time>2026-04-15T07:53:58.001Z</time></trkpt><trkpt lat="-26.640908139974115" lon="114.75602481416115"><ele>147.0</ele><time>2026-04-15T07:53:59.001Z</time></trkpt><trkpt lat="-26.6409119032384" lon="114.75571389098683"><ele>147.0</ele><time>2026-04-15T07:54:00.001Z</time></trkpt><trkpt lat="-26.64091629894783" lon="114.75540674305006"><ele>147.0</ele><time>2026-04-15T07:54:01.001Z</time></trkpt><trkpt lat="-26.640918673451143" lon="114.75508795700242"><ele>146.5</ele><time>2026-04-15T07:54:02.001Z</time></trkpt><trkpt lat="-26.640917831690373" lon="114.75476910572081"><ele>146.0</ele><time>2026-04-15T07:54:03.001Z</time></trkpt><trkpt lat="-26.64091668731865" lon="114.75444090577041"><ele>145.5</ele><time>2026-04-15T07:54:04.001Z</time></trkpt><trkpt lat="-26.640917247157944" lon="114.75411523522514"><ele>145.0</ele><time>2026-04-15T07:54:05.001Z</time></trkpt><trkpt lat="-26.640917832069288" lon="114.7537900932184"><ele>145.0</ele><time>2026-04-15T07:54:06.001Z</time></trkpt><trkpt lat="-26.640915143101918" lon="114.7534703802597"><ele>145.0</ele><time>2026-04-15T07:54:07.001Z</time></trkpt><trkpt lat="-26.64091532989682" lon="114.75315172538201"><ele>145.0</ele><time>2026-04-15T07:54:08.001Z</time></trkpt><trkpt lat="-26.640917519787134" lon="114.75283698260633"><ele>145.0</ele><time>2026-04-15T07:54:09.001Z</time></trkpt><trkpt lat="-26.640918079671586" lon="114.75252572127116"><ele>144.0</ele><time>2026-04-15T07:54:10.001Z</time></trkpt><trkpt lat="-26.64091859894677" lon="114.75221232328423"><ele>143.0</ele><time>2026-04-15T07:54:11.001Z</time></trkpt><trkpt lat="-26.64092108762498" lon="114.75189999537602"><ele>142.5</ele><time>2026-04-15T07:54:12.001Z</time></trkpt><trkpt lat="-26.640927748507032" lon="114.75158609385501"><ele>142.0</ele><time>2026-04-15T07:54:13.001Z</time></trkpt><trkpt lat="-26.640934783075824" lon="114.75127663121613"><ele>142.0</ele><time>2026-04-15T07:54:14.001Z</time></trkpt><trkpt lat="-26.640940634264627" lon="114.75096578190399"><ele>142.0</ele><time>2026-04-15T07:54:15.001Z</time></trkpt><trkpt lat="-26.640942325159543" lon="114.75065156346973"><ele>142.0</ele><time>2026-04-15T07:54:16.001Z</time></trkpt><trkpt lat="-26.64094073616862" lon="114.75034158449324"><ele>142.0</ele><time>2026-04-15T07:54:17.001Z</time></trkpt><trkpt lat="-26.640939244616167" lon="114.75002574864239"><ele>142.0</ele><time>2026-04-15T07:54:18.001Z</time></trkpt><trkpt lat="-26.640937399992524" lon="114.7497148375784"><ele>142.0</ele><time>2026-04-15T07:54:19.001Z</time></trkpt><trkpt lat="-26.640935357181306" lon="114.74940417510447"><ele>142.5</ele><time>2026-04-15T07:54:20.001Z</time></trkpt><trkpt lat="-26.64093433060399" lon="114.74909130779962"><ele>143.0</ele><time>2026-04-15T07:54:21.001Z</time></trkpt><trkpt lat="-26.640934258313752" lon="114.74878213318013"><ele>142.0</ele><time>2026-04-15T07:54:22.001Z</time></trkpt><trkpt lat="-26.64093347294547" lon="114.7484695006726"><ele>141.0</ele><time>2026-04-15T07:54:23.001Z</time></trkpt><trkpt lat="-26.64092968564183" lon="114.74815678755137"><ele>141.0</ele><time>2026-04-15T07:54:24.001Z</time></trkpt><trkpt lat="-26.64092614195388" lon="114.7478483546956"><ele>141.0</ele><time>2026-04-15T07:54:25.001Z</time></trkpt><trkpt lat="-26.64092624350824" lon="114.74753330838159"><ele>142.5</ele><time>2026-04-15T07:54:26.001Z</time></trkpt><trkpt lat="-26.640929038801378" lon="114.74722011511385"><ele>144.0</ele><time>2026-04-15T07:54:27.001Z</time></trkpt><trkpt lat="-26.640932589240574" lon="114.74690325938758"><ele>143.5</ele><time>2026-04-15T07:54:28.001Z</time></trkpt><trkpt lat="-26.6409359833093" lon="114.74659211147869"><ele>143.0</ele><time>2026-04-15T07:54:29.001Z</time></trkpt><trkpt lat="-26.640939286291868" lon="114.74627812702644"><ele>143.0</ele><time>2026-04-15T07:54:30.001Z</time></trkpt><trkpt lat="-26.640941431574422" lon="114.74596614093558"><ele>143.0</ele><time>2026-04-15T07:54:31.001Z</time></trkpt><trkpt lat="-26.640943333425113" lon="114.74565644592882"><ele>143.0</ele><time>2026-04-15T07:54:32.001Z</time></trkpt><trkpt lat="-26.640946390632894" lon="114.74534490567923"><ele>143.0</ele><time>2026-04-15T07:54:33.001Z</time></trkpt><trkpt lat="-26.640947135914832" lon="114.7450310587234"><ele>143.0</ele><time>2026-04-15T07:54:34.001Z</time></trkpt><trkpt lat="-26.640943572383716" lon="114.74471744321741"><ele>143.0</ele><time>2026-04-15T07:54:35.001Z</time></trkpt><trkpt lat="-26.640940289394297" lon="114.7444020971264"><ele>142.0</ele><time>2026-04-15T07:54:36.001Z</time></trkpt><trkpt lat="-26.64093640929771" lon="114.74408162524541"><ele>141.0</ele><time>2026-04-15T07:54:37.001Z</time></trkpt><trkpt lat="-26.640935434154674" lon="114.7437622110208"><ele>142.0</ele><time>2026-04-15T07:54:38.001Z</time></trkpt><trkpt lat="-26.64093503899059" lon="114.7434533019324"><ele>143.0</ele><time>2026-04-15T07:54:39.001Z</time></trkpt><trkpt lat="-26.640937601978752" lon="114.74317275319129"><ele>143.0</ele><time>2026-04-15T07:54:40.001Z</time></trkpt><trkpt lat="-26.640948170252607" lon="114.74289302605918"><ele>143.0</ele><time>2026-04-15T07:54:41.001Z</time></trkpt><trkpt lat="-26.640977490386664" lon="114.74261977827861"><ele>143.0</ele><time>2026-04-15T07:54:42.001Z</time></trkpt><trkpt lat="-26.641020390501787" lon="114.74233177019508"><ele>143.0</ele><time>2026-04-15T07:54:43.001Z</time></trkpt><trkpt lat="-26.64107993210242" lon="114.74205273102493"><ele>144.0</ele><time>2026-04-15T07:54:44.001Z</time></trkpt><trkpt lat="-26.641157620956083" lon="114.74176650579068"><ele>145.0</ele><time>2026-04-15T07:54:45.001Z</time></trkpt><trkpt lat="-26.641249629609717" lon="114.74147505957244"><ele>145.0</ele><time>2026-04-15T07:54:46.001Z</time></trkpt><trkpt lat="-26.641347989836433" lon="114.74118408929989"><ele>145.0</ele><time>2026-04-15T07:54:47.001Z</time></trkpt><trkpt lat="-26.64144994891534" lon="114.74089196980005"><ele>145.5</ele><time>2026-04-15T07:54:48.001Z</time></trkpt><trkpt lat="-26.641551040484252" lon="114.74060015672569"><ele>146.0</ele><time>2026-04-15T07:54:49.001Z</time></trkpt><trkpt lat="-26.64164524753143" lon="114.74032068899912"><ele>146.0</ele><time>2026-04-15T07:54:50.001Z</time></trkpt><trkpt lat="-26.641730472318432" lon="114.7400530032837"><ele>146.0</ele><time>2026-04-15T07:54:51.001Z</time></trkpt><trkpt lat="-26.641809944462135" lon="114.73978643591998"><ele>146.0</ele><time>2026-04-15T07:54:52.001Z</time></trkpt><trkpt lat="-26.641878979954186" lon="114.73951805627232"><ele>146.0</ele><time>2026-04-15T07:54:53.001Z</time></trkpt><trkpt lat="-26.64192113132929" lon="114.73927247504997"><ele>146.5</ele><time>2026-04-15T07:54:54.001Z</time></trkpt><trkpt lat="-26.64194288142725" lon="114.73901729127097"><ele>147.0</ele><time>2026-04-15T07:54:55.001Z</time></trkpt><trkpt lat="-26.641940646698067" lon="114.73875590880185"><ele>147.5</ele><time>2026-04-15T07:54:56.001Z</time></trkpt><trkpt lat="-26.64192110456814" lon="114.73851098397894"><ele>148.0</ele><time>2026-04-15T07:54:57.001Z</time></trkpt><trkpt lat="-26.641887667981816" lon="114.73825441660496"><ele>148.0</ele><time>2026-04-15T07:54:58.001Z</time></trkpt><trkpt lat="-26.64184280750521" lon="114.73799213466526"><ele>148.0</ele><time>2026-04-15T07:54:59.001Z</time></trkpt><trkpt lat="-26.641787072513317" lon="114.73772049402803"><ele>147.5</ele><time>2026-04-15T07:55:00.001Z</time></trkpt><trkpt lat="-26.641731198262534" lon="114.7374410742548"><ele>147.0</ele><time>2026-04-15T07:55:01.001Z</time></trkpt><trkpt lat="-26.641677876619553" lon="114.73716291208646"><ele>146.5</ele><time>2026-04-15T07:55:02.001Z</time></trkpt><trkpt lat="-26.64161733506605" lon="114.73688439643945"><ele>146.0</ele><time>2026-04-15T07:55:03.001Z</time></trkpt><trkpt lat="-26.641548269592068" lon="114.7366043495127"><ele>146.0</ele><time>2026-04-15T07:55:04.001Z</time></trkpt><trkpt lat="-26.641475565934755" lon="114.73631660258226"><ele>146.0</ele><time>2026-04-15T07:55:05.001Z</time></trkpt><trkpt lat="-26.641401227890295" lon="114.73602646129692"><ele>146.5</ele><time>2026-04-15T07:55:06.001Z</time></trkpt><trkpt lat="-26.64132597383488" lon="114.73573384653113"><ele>147.0</ele><time>2026-04-15T07:55:07.001Z</time></trkpt><trkpt lat="-26.6412531316143" lon="114.73544093236187"><ele>146.0</ele><time>2026-04-15T07:55:08.001Z</time></trkpt><trkpt lat="-26.641181985888213" lon="114.73514547632112"><ele>145.0</ele><time>2026-04-15T07:55:09.001Z</time></trkpt><trkpt lat="-26.64111234141845" lon="114.73485175884262"><ele>144.5</ele><time>2026-04-15T07:55:10.001Z</time></trkpt><trkpt lat="-26.641048482019254" lon="114.73455691636178"><ele>144.0</ele><time>2026-04-15T07:55:11.001Z</time></trkpt><trkpt lat="-26.640991226772655" lon="114.73426292846841"><ele>143.5</ele><time>2026-04-15T07:55:12.001Z</time></trkpt><trkpt lat="-26.64094786321072" lon="114.73396974480283"><ele>143.0</ele><time>2026-04-15T07:55:13.001Z</time></trkpt><trkpt lat="-26.640928122852998" lon="114.73367365626554"><ele>144.0</ele><time>2026-04-15T07:55:14.001Z</time></trkpt><trkpt lat="-26.640924927098116" lon="114.7333736068009"><ele>145.0</ele><time>2026-04-15T07:55:15.001Z</time></trkpt><trkpt lat="-26.64092958600241" lon="114.73306542564167"><ele>145.0</ele><time>2026-04-15T07:55:16.001Z</time></trkpt><trkpt lat="-26.640939321867233" lon="114.7327585534256"><ele>145.0</ele><time>2026-04-15T07:55:17.001Z</time></trkpt><trkpt lat="-26.640948210805895" lon="114.73245504608504"><ele>144.0</ele><time>2026-04-15T07:55:18.001Z</time></trkpt><trkpt lat="-26.640955872450217" lon="114.73214634400478"><ele>143.0</ele><time>2026-04-15T07:55:19.001Z</time></trkpt><trkpt lat="-26.640961093522506" lon="114.73183903248584"><ele>142.5</ele><time>2026-04-15T07:55:20.001Z</time></trkpt><trkpt lat="-26.640963135531226" lon="114.73153585365111"><ele>142.0</ele><time>2026-04-15T07:55:21.001Z</time></trkpt><trkpt lat="-26.640961964905912" lon="114.73123297788347"><ele>141.5</ele><time>2026-04-15T07:55:22.001Z</time></trkpt><trkpt lat="-26.640962589654443" lon="114.73093249766987"><ele>141.0</ele><time>2026-04-15T07:55:23.001Z</time></trkpt><trkpt lat="-26.6409649414879" lon="114.73063443450255"><ele>141.0</ele><time>2026-04-15T07:55:24.001Z</time></trkpt><trkpt lat="-26.64096683055099" lon="114.73033126995108"><ele>141.0</ele><time>2026-04-15T07:55:25.001Z</time></trkpt><trkpt lat="-26.640968567547326" lon="114.7300283964129"><ele>142.5</ele><time>2026-04-15T07:55:26.001Z</time></trkpt><trkpt lat="-26.64097024143199" lon="114.72972269708573"><ele>144.0</ele><time>2026-04-15T07:55:27.001Z</time></trkpt><trkpt lat="-26.640971675218985" lon="114.7294184434393"><ele>144.5</ele><time>2026-04-15T07:55:28.001Z</time></trkpt><trkpt lat="-26.640971756751092" lon="114.72912213561969"><ele>145.0</ele><time>2026-04-15T07:55:29.001Z</time></trkpt><trkpt lat="-26.640976339209182" lon="114.72882626778046"><ele>144.5</ele><time>2026-04-15T07:55:30.001Z</time></trkpt><trkpt lat="-26.64097504985978" lon="114.72852455239327"><ele>144.0</ele><time>2026-04-15T07:55:31.001Z</time></trkpt><trkpt lat="-26.640975484662945" lon="114.72823211952702"><ele>144.0</ele><time>2026-04-15T07:55:32.001Z</time></trkpt><trkpt lat="-26.640975576575972" lon="114.72794106960869"><ele>144.0</ele><time>2026-04-15T07:55:33.001Z</time></trkpt><trkpt lat="-26.640978398225496" lon="114.72764988446188"><ele>143.0</ele><time>2026-04-15T07:55:34.001Z</time></trkpt><trkpt lat="-26.640983780566973" lon="114.727351680954"><ele>142.0</ele><time>2026-04-15T07:55:35.001Z</time></trkpt><trkpt lat="-26.64098673831034" lon="114.72705231964899"><ele>142.0</ele><time>2026-04-15T07:55:36.001Z</time></trkpt><trkpt lat="-26.64098750582828" lon="114.72674926810932"><ele>142.0</ele><time>2026-04-15T07:55:37.001Z</time></trkpt><trkpt lat="-26.64098765868797" lon="114.72644251084755"><ele>142.0</ele><time>2026-04-15T07:55:38.001Z</time></trkpt><trkpt lat="-26.640989532197196" lon="114.72613961550917"><ele>142.0</ele><time>2026-04-15T07:55:39.001Z</time></trkpt><trkpt lat="-26.64099079678743" lon="114.72583452589292"><ele>141.5</ele><time>2026-04-15T07:55:40.001Z</time></trkpt><trkpt lat="-26.640990777945525" lon="114.72552597047392"><ele>141.0</ele><time>2026-04-15T07:55:41.001Z</time></trkpt><trkpt lat="-26.640990429943876" lon="114.72521996483724"><ele>141.0</ele><time>2026-04-15T07:55:42.001Z</time></trkpt><trkpt lat="-26.64099133828604" lon="114.72491357722177"><ele>141.0</ele><time>2026-04-15T07:55:43.001Z</time></trkpt><trkpt lat="-26.640993570870684" lon="114.72460335133934"><ele>140.5</ele><time>2026-04-15T07:55:44.001Z</time></trkpt><trkpt lat="-26.640997699719847" lon="114.72429380333188"><ele>140.0</ele><time>2026-04-15T07:55:45.001Z</time></trkpt><trkpt lat="-26.641003059923992" lon="114.72397603512796"><ele>140.0</ele><time>2026-04-15T07:55:46.001Z</time></trkpt><trkpt lat="-26.641005316654383" lon="114.72365877823522"><ele>140.0</ele><time>2026-04-15T07:55:47.001Z</time></trkpt><trkpt lat="-26.64100882521618" lon="114.7233411781779"><ele>140.0</ele><time>2026-04-15T07:55:48.001Z</time></trkpt><trkpt lat="-26.641012055883003" lon="114.72302597744833"><ele>140.0</ele><time>2026-04-15T07:55:49.001Z</time></trkpt><trkpt lat="-26.641015964762254" lon="114.72269538070708"><ele>140.0</ele><time>2026-04-15T07:55:50.001Z</time></trkpt><trkpt lat="-26.64101148790067" lon="114.72237258001721"><ele>140.0</ele><time>2026-04-15T07:55:51.001Z</time></trkpt><trkpt lat="-26.641008963168833" lon="114.72204910528228"><ele>140.0</ele><time>2026-04-15T07:55:52.001Z</time></trkpt><trkpt lat="-26.64100792703749" lon="114.72172955715752"><ele>140.0</ele><time>2026-04-15T07:55:53.001Z</time></trkpt><trkpt lat="-26.641007932916946" lon="114.72141314870795"><ele>140.0</ele><time>2026-04-15T07:55:54.001Z</time></trkpt><trkpt lat="-26.64100787583022" lon="114.72109908730722"><ele>140.0</ele><time>2026-04-15T07:55:55.001Z</time></trkpt><trkpt lat="-26.641006782809225" lon="114.72079071169662"><ele>141.0</ele><time>2026-04-15T07:55:56.001Z</time></trkpt><trkpt lat="-26.64100779582762" lon="114.72048502311907"><ele>142.0</ele><time>2026-04-15T07:55:57.001Z</time></trkpt><trkpt lat="-26.64101102958143" lon="114.7201815236058"><ele>142.0</ele><time>2026-04-15T07:55:58.001Z</time></trkpt><trkpt lat="-26.64101413226463" lon="114.71987827446357"><ele>142.0</ele><time>2026-04-15T07:55:59.001Z</time></trkpt><trkpt lat="-26.641010764530815" lon="114.71957737632967"><ele>142.0</ele><time>2026-04-15T07:56:00.001Z</time></trkpt><trkpt lat="-26.641010894939456" lon="114.7192724738117"><ele>142.0</ele><time>2026-04-15T07:56:01.001Z</time></trkpt><trkpt lat="-26.641013384537533" lon="114.71896499931574"><ele>142.0</ele><time>2026-04-15T07:56:02.001Z</time></trkpt><trkpt lat="-26.641014761575263" lon="114.71866191112369"><ele>142.0</ele><time>2026-04-15T07:56:03.001Z</time></trkpt><trkpt lat="-26.641016031666464" lon="114.71835749143824"><ele>143.5</ele><time>2026-04-15T07:56:04.001Z</time></trkpt><trkpt lat="-26.641014073684573" lon="114.71805381711134"><ele>145.0</ele><time>2026-04-15T07:56:05.001Z</time></trkpt><trkpt lat="-26.641010940722534" lon="114.71775971962275"><ele>146.5</ele><time>2026-04-15T07:56:06.001Z</time></trkpt><trkpt lat="-26.64101081363653" lon="114.71746405436213"><ele>148.0</ele><time>2026-04-15T07:56:07.001Z</time></trkpt><trkpt lat="-26.641008373756193" lon="114.71717110555001"><ele>146.5</ele><time>2026-04-15T07:56:08.001Z</time></trkpt><trkpt lat="-26.641002627999207" lon="114.71688797452549"><ele>145.0</ele><time>2026-04-15T07:56:09.001Z</time></trkpt><trkpt lat="-26.64100431864958" lon="114.71659724052087"><ele>145.0</ele><time>2026-04-15T07:56:10.001Z</time></trkpt><trkpt lat="-26.641001001010128" lon="114.71631948483115"><ele>145.0</ele><time>2026-04-15T07:56:11.001Z</time></trkpt><trkpt lat="-26.64099523654347" lon="114.7160325981842"><ele>144.5</ele><time>2026-04-15T07:56:12.001Z</time></trkpt><trkpt lat="-26.640990331247277" lon="114.71573465404012"><ele>144.0</ele><time>2026-04-15T07:56:13.001Z</time></trkpt><trkpt lat="-26.640987805195177" lon="114.71544422277749"><ele>142.5</ele><time>2026-04-15T07:56:14.001Z</time></trkpt><trkpt lat="-26.640989621478425" lon="114.71514885290428"><ele>141.0</ele><time>2026-04-15T07:56:15.001Z</time></trkpt><trkpt lat="-26.64099405969488" lon="114.7148586124746"><ele>141.0</ele><time>2026-04-15T07:56:16.001Z</time></trkpt><trkpt lat="-26.64099863303183" lon="114.7145665051147"><ele>141.0</ele><time>2026-04-15T07:56:17.001Z</time></trkpt><trkpt lat="-26.6410062353044" lon="114.71426552433947"><ele>140.5</ele><time>2026-04-15T07:56:18.001Z</time></trkpt><trkpt lat="-26.641005988097515" lon="114.7139676838933"><ele>140.0</ele><time>2026-04-15T07:56:19.001Z</time></trkpt><trkpt lat="-26.64100947666456" lon="114.71366331191544"><ele>140.5</ele><time>2026-04-15T07:56:20.001Z</time></trkpt><trkpt lat="-26.641009838274616" lon="114.71336393841328"><ele>141.0</ele><time>2026-04-15T07:56:21.001Z</time></trkpt><trkpt lat="-26.641010563015413" lon="114.71305551015723"><ele>141.0</ele><time>2026-04-15T07:56:22.001Z</time></trkpt><trkpt lat="-26.64101125046567" lon="114.71274787560354"><ele>141.0</ele><time>2026-04-15T07:56:23.001Z</time></trkpt><trkpt lat="-26.641013579036876" lon="114.71243200176026"><ele>140.0</ele><time>2026-04-15T07:56:24.001Z</time></trkpt><trkpt lat="-26.6410179546944" lon="114.71211210460338"><ele>139.0</ele><time>2026-04-15T07:56:25.001Z</time></trkpt><trkpt lat="-26.64101843565159" lon="114.71179189916532"><ele>138.5</ele><time>2026-04-15T07:56:26.001Z</time></trkpt><trkpt lat="-26.641017052676826" lon="114.7114719393994"><ele>138.0</ele><time>2026-04-15T07:56:27.001Z</time></trkpt><trkpt lat="-26.641012929309774" lon="114.71115357378633"><ele>138.0</ele><time>2026-04-15T07:56:28.001Z</time></trkpt><trkpt lat="-26.641009802892395" lon="114.71083217967363"><ele>138.0</ele><time>2026-04-15T07:56:29.001Z</time></trkpt><trkpt lat="-26.641008121820906" lon="114.7105097902371"><ele>137.5</ele><time>2026-04-15T07:56:30.001Z</time></trkpt><trkpt lat="-26.641006914119586" lon="114.71019321043502"><ele>137.0</ele><time>2026-04-15T07:56:31.001Z</time></trkpt><trkpt lat="-26.64101043001711" lon="114.70987129725452"><ele>137.0</ele><time>2026-04-15T07:56:32.001Z</time></trkpt><trkpt lat="-26.641011776251716" lon="114.709561835839"><ele>137.0</ele><time>2026-04-15T07:56:33.001Z</time></trkpt><trkpt lat="-26.641013167341754" lon="114.70924835969409"><ele>137.0</ele><time>2026-04-15T07:56:34.001Z</time></trkpt><trkpt lat="-26.64101624372302" lon="114.70893940265265"><ele>137.0</ele><time>2026-04-15T07:56:35.001Z</time></trkpt><trkpt lat="-26.641018417465737" lon="114.70863178942764"><ele>137.0</ele><time>2026-04-15T07:56:36.001Z</time></trkpt><trkpt lat="-26.641020430195983" lon="114.70832682745602"><ele>137.0</ele><time>2026-04-15T07:56:37.001Z</time></trkpt><trkpt lat="-26.641020967538942" lon="114.70802534129096"><ele>137.0</ele><time>2026-04-15T07:56:38.001Z</time></trkpt><trkpt lat="-26.64102005475121" lon="114.70772231364604"><ele>137.0</ele><time>2026-04-15T07:56:39.001Z</time></trkpt><trkpt lat="-26.641016626246913" lon="114.7074192985774"><ele>137.0</ele><time>2026-04-15T07:56:40.001Z</time></trkpt><trkpt lat="-26.641013573657116" lon="114.70711839867117"><ele>137.0</ele><time>2026-04-15T07:56:41.001Z</time></trkpt><trkpt lat="-26.641010914033664" lon="114.70681543047783"><ele>138.5</ele><time>2026-04-15T07:56:42.001Z</time></trkpt><trkpt lat="-26.64101190177687" lon="114.70651314378145"><ele>140.0</ele><time>2026-04-15T07:56:43.001Z</time></trkpt><trkpt lat="-26.641011787557673" lon="114.70620548761578"><ele>140.5</ele><time>2026-04-15T07:56:44.001Z</time></trkpt><trkpt lat="-26.641012004412612" lon="114.70590002718193"><ele>141.0</ele><time>2026-04-15T07:56:45.001Z</time></trkpt><trkpt lat="-26.64101445830256" lon="114.70559010176567"><ele>141.0</ele><time>2026-04-15T07:56:46.001Z</time></trkpt><trkpt lat="-26.641018368769505" lon="114.70527553984805"><ele>141.0</ele><time>2026-04-15T07:56:47.001Z</time></trkpt><trkpt lat="-26.641019309897395" lon="114.70496429749632"><ele>142.5</ele><time>2026-04-15T07:56:48.001Z</time></trkpt><trkpt lat="-26.64102191540984" lon="114.70465497803292"><ele>144.0</ele><time>2026-04-15T07:56:49.001Z</time></trkpt><trkpt lat="-26.64102496153434" lon="114.7043461284318"><ele>144.5</ele><time>2026-04-15T07:56:50.001Z</time></trkpt><trkpt lat="-26.641026821574926" lon="114.70403315726732"><ele>145.0</ele><time>2026-04-15T07:56:51.001Z</time></trkpt><trkpt lat="-26.64102856829132" lon="114.70371311071149"><ele>146.0</ele><time>2026-04-15T07:56:52.001Z</time></trkpt><trkpt lat="-26.641029848456242" lon="114.70339687713007"><ele>147.0</ele><time>2026-04-15T07:56:53.001Z</time></trkpt><trkpt lat="-26.641030607962374" lon="114.70308383737411"><ele>147.0</ele><time>2026-04-15T07:56:54.001Z</time></trkpt><trkpt lat="-26.64103605948391" lon="114.70276794080743"><ele>147.0</ele><time>2026-04-15T07:56:55.001Z</time></trkpt><trkpt lat="-26.641035225154713" lon="114.70245234368193"><ele>147.5</ele><time>2026-04-15T07:56:56.001Z</time></trkpt><trkpt lat="-26.64103515912618" lon="114.70213773726219"><ele>148.0</ele><time>2026-04-15T07:56:57.001Z</time></trkpt><trkpt lat="-26.64103461872202" lon="114.70182549589354"><ele>148.0</ele><time>2026-04-15T07:56:58.001Z</time></trkpt><trkpt lat="-26.641037586583245" lon="114.70150934720559"><ele>148.0</ele><time>2026-04-15T07:56:59.001Z</time></trkpt><trkpt lat="-26.641037517238708" lon="114.70119915276436"><ele>148.5</ele><time>2026-04-15T07:57:00.001Z</time></trkpt><trkpt lat="-26.64103532267527" lon="114.70088677980814"><ele>149.0</ele><time>2026-04-15T07:57:01.001Z</time></trkpt><trkpt lat="-26.6410339627374" lon="114.70057674286414"><ele>149.0</ele><time>2026-04-15T07:57:02.001Z</time></trkpt><trkpt lat="-26.6410357224065" lon="114.70028674658059"><ele>149.0</ele><time>2026-04-15T07:57:03.001Z</time></trkpt><trkpt lat="-26.641037553462166" lon="114.69999802991643"><ele>150.0</ele><time>2026-04-15T07:57:04.001Z</time></trkpt><trkpt lat="-26.641038058744105" lon="114.69969458151893"><ele>151.0</ele><time>2026-04-15T07:57:05.001Z</time></trkpt><trkpt lat="-26.641040716939774" lon="114.69938398669605"><ele>151.5</ele><time>2026-04-15T07:57:06.001Z</time></trkpt><trkpt lat="-26.64104418225404" lon="114.69907843282179"><ele>152.0</ele><time>2026-04-15T07:57:07.001Z</time></trkpt><trkpt lat="-26.64104860798644" lon="114.69877763806038"><ele>153.0</ele><time>2026-04-15T07:57:08.001Z</time></trkpt><trkpt lat="-26.64104950093879" lon="114.698470444375"><ele>154.0</ele><time>2026-04-15T07:57:09.001Z</time></trkpt><trkpt lat="-26.641049377580536" lon="114.69816802521814"><ele>154.0</ele><time>2026-04-15T07:57:10.001Z</time></trkpt><trkpt lat="-26.64104885215791" lon="114.69786263160628"><ele>154.0</ele><time>2026-04-15T07:57:11.001Z</time></trkpt><trkpt lat="-26.641043081031032" lon="114.69756833481247"><ele>154.5</ele><time>2026-04-15T07:57:12.001Z</time></trkpt><trkpt lat="-26.641031283222077" lon="114.69727370580146"><ele>155.0</ele><time>2026-04-15T07:57:13.001Z</time></trkpt><trkpt lat="-26.641026478263647" lon="114.69697427013638"><ele>155.0</ele><time>2026-04-15T07:57:14.001Z</time></trkpt><trkpt lat="-26.64102961048756" lon="114.69667238436053"><ele>155.0</ele><time>2026-04-15T07:57:15.001Z</time></trkpt><trkpt lat="-26.64104017640395" lon="114.69636400730049"><ele>155.5</ele><time>2026-04-15T07:57:16.001Z</time></trkpt><trkpt lat="-26.641047577232484" lon="114.69605011806512"><ele>156.0</ele><time>2026-04-15T07:57:17.001Z</time></trkpt><trkpt lat="-26.641050973545518" lon="114.6957373068608"><ele>156.0</ele><time>2026-04-15T07:57:18.001Z</time></trkpt><trkpt lat="-26.641053360668693" lon="114.69542766555554"><ele>156.0</ele><time>2026-04-15T07:57:19.001Z</time></trkpt><trkpt lat="-26.641053378016885" lon="114.69512100663032"><ele>157.0</ele><time>2026-04-15T07:57:20.001Z</time></trkpt><trkpt lat="-26.641054904411003" lon="114.69481135172212"><ele>158.0</ele><time>2026-04-15T07:57:21.001Z</time></trkpt><trkpt lat="-26.641057516459004" lon="114.69449812441702"><ele>157.0</ele><time>2026-04-15T07:57:22.001Z</time></trkpt><trkpt lat="-26.64105683663668" lon="114.69418711278774"><ele>156.0</ele><time>2026-04-15T07:57:23.001Z</time></trkpt><trkpt lat="-26.641054122243467" lon="114.69387331478116"><ele>156.5</ele><time>2026-04-15T07:57:24.001Z</time></trkpt><trkpt lat="-26.64105173477196" lon="114.6935572432541"><ele>157.0</ele><time>2026-04-15T07:57:25.001Z</time></trkpt><trkpt lat="-26.6410498115768" lon="114.69323909106869"><ele>157.0</ele><time>2026-04-15T07:57:26.001Z</time></trkpt><trkpt lat="-26.641049868400895" lon="114.69291349269011"><ele>157.0</ele><time>2026-04-15T07:57:27.001Z</time></trkpt><trkpt lat="-26.641049096402558" lon="114.69259146150046"><ele>156.0</ele><time>2026-04-15T07:57:28.001Z</time></trkpt><trkpt lat="-26.641049984402287" lon="114.69226675779997"><ele>155.0</ele><time>2026-04-15T07:57:29.001Z</time></trkpt><trkpt lat="-26.64104910121416" lon="114.69194395721047"><ele>155.5</ele><time>2026-04-15T07:57:30.001Z</time></trkpt><trkpt lat="-26.64105098368051" lon="114.69162039187852"><ele>156.0</ele><time>2026-04-15T07:57:31.001Z</time></trkpt><trkpt lat="-26.64105428093802" lon="114.69129451017369"><ele>155.5</ele><time>2026-04-15T07:57:32.001Z</time></trkpt><trkpt lat="-26.641054047277844" lon="114.69097134380115"><ele>155.0</ele><time>2026-04-15T07:57:33.001Z</time></trkpt><trkpt lat="-26.641052579062883" lon="114.69064646312593"><ele>155.0</ele><time>2026-04-15T07:57:34.001Z</time></trkpt><trkpt lat="-26.641051520378852" lon="114.69031486866858"><ele>155.0</ele><time>2026-04-15T07:57:35.001Z</time></trkpt><trkpt lat="-26.64105051717914" lon="114.6899865759035"><ele>155.0</ele><time>2026-04-15T07:57:36.001Z</time></trkpt><trkpt lat="-26.641050647326786" lon="114.68964922359737"><ele>155.0</ele><time>2026-04-15T07:57:37.001Z</time></trkpt><trkpt lat="-26.641048630510635" lon="114.68931820937543"><ele>154.5</ele><time>2026-04-15T07:57:38.001Z</time></trkpt><trkpt lat="-26.641044941956018" lon="114.68898466597797"><ele>154.0</ele><time>2026-04-15T07:57:39.001Z</time></trkpt><trkpt lat="-26.64104101155046" lon="114.6886501905999"><ele>153.5</ele><time>2026-04-15T07:57:40.001Z</time></trkpt><trkpt lat="-26.641038444819333" lon="114.68832199742255"><ele>153.0</ele><time>2026-04-15T07:57:41.001Z</time></trkpt><trkpt lat="-26.64103922514813" lon="114.68798899407862"><ele>152.0</ele><time>2026-04-15T07:57:42.001Z</time></trkpt><trkpt lat="-26.641043820964924" lon="114.68765627392119"><ele>151.0</ele><time>2026-04-15T07:57:43.001Z</time></trkpt><trkpt lat="-26.64105005604311" lon="114.68732067204299"><ele>151.0</ele><time>2026-04-15T07:57:44.001Z</time></trkpt><trkpt lat="-26.641054137705595" lon="114.68698670595279"><ele>151.0</ele><time>2026-04-15T07:57:45.001Z</time></trkpt><trkpt lat="-26.64105518890465" lon="114.68665347235958"><ele>151.5</ele><time>2026-04-15T07:57:46.001Z</time></trkpt><trkpt lat="-26.641056285317177" lon="114.68632230860675"><ele>152.0</ele><time>2026-04-15T07:57:47.001Z</time></trkpt><trkpt lat="-26.641057705393507" lon="114.68598743674517"><ele>153.0</ele><time>2026-04-15T07:57:48.001Z</time></trkpt><trkpt lat="-26.641055494310958" lon="114.68565801543355"><ele>154.0</ele><time>2026-04-15T07:57:49.001Z</time></trkpt><trkpt lat="-26.641054131739907" lon="114.68532585569498"><ele>154.0</ele><time>2026-04-15T07:57:50.001Z</time></trkpt><trkpt lat="-26.64105604846318" lon="114.68499126200433"><ele>154.0</ele><time>2026-04-15T07:57:51.001Z</time></trkpt><trkpt lat="-26.64105812893751" lon="114.68466231786232"><ele>154.5</ele><time>2026-04-15T07:57:52.001Z</time></trkpt><trkpt lat="-26.641058960496768" lon="114.68433914752573"><ele>155.0</ele><time>2026-04-15T07:57:53.001Z</time></trkpt><trkpt lat="-26.641061228364762" lon="114.6840106966505"><ele>155.0</ele><time>2026-04-15T07:57:54.001Z</time></trkpt><trkpt lat="-26.641060781457128" lon="114.6836881695117"><ele>155.0</ele><time>2026-04-15T07:57:55.001Z</time></trkpt><trkpt lat="-26.641057243443623" lon="114.68336646706103"><ele>154.5</ele><time>2026-04-15T07:57:56.001Z</time></trkpt><trkpt lat="-26.6410571394502" lon="114.68304460550941"><ele>154.0</ele><time>2026-04-15T07:57:57.001Z</time></trkpt><trkpt lat="-26.64105441825939" lon="114.68272522344886"><ele>154.0</ele><time>2026-04-15T07:57:58.001Z</time></trkpt><trkpt lat="-26.641053092439844" lon="114.6824096885193"><ele>154.0</ele><time>2026-04-15T07:57:59.001Z</time></trkpt><trkpt lat="-26.64105124242123" lon="114.68209853194712"><ele>154.0</ele><time>2026-04-15T07:58:00.001Z</time></trkpt><trkpt lat="-26.641051366148176" lon="114.68179386631519"><ele>154.0</ele><time>2026-04-15T07:58:01.001Z</time></trkpt><trkpt lat="-26.641053902236276" lon="114.68149599783105"><ele>154.0</ele><time>2026-04-15T07:58:02.001Z</time></trkpt><trkpt lat="-26.641062396517952" lon="114.68119693663401"><ele>154.0</ele><time>2026-04-15T07:58:03.001Z</time></trkpt><trkpt lat="-26.64108176733789" lon="114.68088758827459"><ele>154.5</ele><time>2026-04-15T07:58:04.001Z</time></trkpt><trkpt lat="-26.641110933061498" lon="114.68057449207188"><ele>155.0</ele><time>2026-04-15T07:58:05.001Z</time></trkpt><trkpt lat="-26.64114723344151" lon="114.68026452806781"><ele>154.0</ele><time>2026-04-15T07:58:06.001Z</time></trkpt><trkpt lat="-26.641191019725387" lon="114.67995101179187"><ele>153.0</ele><time>2026-04-15T07:58:07.001Z</time></trkpt><trkpt lat="-26.641235170686294" lon="114.67964149628784"><ele>153.0</ele><time>2026-04-15T07:58:08.001Z</time></trkpt><trkpt lat="-26.641278560423732" lon="114.67933302534401"><ele>153.0</ele><time>2026-04-15T07:58:09.001Z</time></trkpt><trkpt lat="-26.641324427071176" lon="114.67902297270768"><ele>153.0</ele><time>2026-04-15T07:58:10.001Z</time></trkpt><trkpt lat="-26.641368081374015" lon="114.67871223116502"><ele>153.0</ele><time>2026-04-15T07:58:11.001Z</time></trkpt><trkpt lat="-26.641410896449806" lon="114.6784072178428"><ele>153.5</ele><time>2026-04-15T07:58:12.001Z</time></trkpt><trkpt lat="-26.641452379592" lon="114.6781018664501"><ele>154.0</ele><time>2026-04-15T07:58:13.001Z</time></trkpt><trkpt lat="-26.641492718270612" lon="114.67779660892703"><ele>154.0</ele><time>2026-04-15T07:58:14.001Z</time></trkpt><trkpt lat="-26.641532872447453" lon="114.6774922474155"><ele>154.0</ele><time>2026-04-15T07:58:15.001Z</time></trkpt><trkpt lat="-26.641572679660747" lon="114.67718545553245"><ele>153.5</ele><time>2026-04-15T07:58:16.001Z</time></trkpt><trkpt lat="-26.641613563664322" lon="114.67688113020947"><ele>153.0</ele><time>2026-04-15T07:58:17.001Z</time></trkpt><trkpt lat="-26.641660128004013" lon="114.67657228375285"><ele>153.0</ele><time>2026-04-15T07:58:18.001Z</time></trkpt><trkpt lat="-26.641707304849156" lon="114.67626489548273"><ele>153.0</ele><time>2026-04-15T07:58:19.001Z</time></trkpt><trkpt lat="-26.641751022730638" lon="114.67595984171913"><ele>153.0</ele><time>2026-04-15T07:58:20.001Z</time></trkpt><trkpt lat="-26.641794043125405" lon="114.67565725295778"><ele>153.0</ele><time>2026-04-15T07:58:21.001Z</time></trkpt><trkpt lat="-26.641832668124078" lon="114.67535971499827"><ele>153.0</ele><time>2026-04-15T07:58:22.001Z</time></trkpt><trkpt lat="-26.641867378739445" lon="114.67506421884437"><ele>153.0</ele><time>2026-04-15T07:58:23.001Z</time></trkpt><trkpt lat="-26.641898038056162" lon="114.67477031561481"><ele>153.0</ele><time>2026-04-15T07:58:24.001Z</time></trkpt><trkpt lat="-26.641921392714142" lon="114.67447907314532"><ele>153.0</ele><time>2026-04-15T07:58:25.001Z</time></trkpt><trkpt lat="-26.64192732053086" lon="114.67418443922243"><ele>152.5</ele><time>2026-04-15T07:58:26.001Z</time></trkpt><trkpt lat="-26.64191739776873" lon="114.67389461238028"><ele>152.0</ele><time>2026-04-15T07:58:27.001Z</time></trkpt><trkpt lat="-26.64189090897173" lon="114.67360390879283"><ele>151.5</ele><time>2026-04-15T07:58:28.001Z</time></trkpt><trkpt lat="-26.641849031191004" lon="114.67331332026889"><ele>151.0</ele><time>2026-04-15T07:58:29.001Z</time></trkpt><trkpt lat="-26.641801302522953" lon="114.67302131992898"><ele>151.5</ele><time>2026-04-15T07:58:30.001Z</time></trkpt><trkpt lat="-26.641751680296224" lon="114.67272942363209"><ele>152.0</ele><time>2026-04-15T07:58:31.001Z</time></trkpt><trkpt lat="-26.64170219686023" lon="114.6724356717113"><ele>152.0</ele><time>2026-04-15T07:58:32.001Z</time></trkpt><trkpt lat="-26.641652560812574" lon="114.67214067364681"><ele>152.0</ele><time>2026-04-15T07:58:33.001Z</time></trkpt><trkpt lat="-26.641604175140305" lon="114.67184347070017"><ele>152.5</ele><time>2026-04-15T07:58:34.001Z</time></trkpt><trkpt lat="-26.64155613280105" lon="114.67154321566981"><ele>153.0</ele><time>2026-04-15T07:58:35.001Z</time></trkpt><trkpt lat="-26.641506525651" lon="114.67124108765958"><ele>154.0</ele><time>2026-04-15T07:58:36.001Z</time></trkpt><trkpt lat="-26.641457329051548" lon="114.67093435750434"><ele>155.0</ele><time>2026-04-15T07:58:37.001Z</time></trkpt><trkpt lat="-26.641408395629185" lon="114.67062855501695"><ele>155.0</ele><time>2026-04-15T07:58:38.001Z</time></trkpt><trkpt lat="-26.641359592900898" lon="114.67031885660063"><ele>155.0</ele><time>2026-04-15T07:58:39.001Z</time></trkpt><trkpt lat="-26.641309831609135" lon="114.67000817105794"><ele>155.0</ele><time>2026-04-15T07:58:40.001Z</time></trkpt><trkpt lat="-26.641262362778715" lon="114.6696989625854"><ele>155.0</ele><time>2026-04-15T07:58:41.001Z</time></trkpt><trkpt lat="-26.64121288118167" lon="114.66939157760575"><ele>155.0</ele><time>2026-04-15T07:58:42.001Z</time></trkpt><trkpt lat="-26.641165675922412" lon="114.6690872831178"><ele>155.0</ele><time>2026-04-15T07:58:43.001Z</time></trkpt><trkpt lat="-26.641126189409867" lon="114.66878519898155"><ele>154.0</ele><time>2026-04-15T07:58:44.001Z</time></trkpt><trkpt lat="-26.6410969690903" lon="114.668486359147"><ele>153.0</ele><time>2026-04-15T07:58:45.001Z</time></trkpt><trkpt lat="-26.641080008389526" lon="114.6681847101378"><ele>153.0</ele><time>2026-04-15T07:58:46.001Z</time></trkpt><trkpt lat="-26.641076591765138" lon="114.66787383646917"><ele>153.0</ele><time>2026-04-15T07:58:47.001Z</time></trkpt><trkpt lat="-26.641081622734628" lon="114.66755076031396"><ele>153.5</ele><time>2026-04-15T07:58:48.001Z</time></trkpt><trkpt lat="-26.641086725315567" lon="114.66722599997337"><ele>154.0</ele><time>2026-04-15T07:58:49.001Z</time></trkpt><trkpt lat="-26.641089765953858" lon="114.66690368912236"><ele>155.5</ele><time>2026-04-15T07:58:50.001Z</time></trkpt><trkpt lat="-26.64109239825213" lon="114.6665949549237"><ele>157.0</ele><time>2026-04-15T07:58:51.001Z</time></trkpt><trkpt lat="-26.64109459091842" lon="114.66629102027922"><ele>156.5</ele><time>2026-04-15T07:58:52.001Z</time></trkpt><trkpt lat="-26.641098039063372" lon="114.66598878806032"><ele>156.0</ele><time>2026-04-15T07:58:53.001Z</time></trkpt><trkpt lat="-26.64110078808411" lon="114.66568265391727"><ele>156.0</ele><time>2026-04-15T07:58:54.001Z</time></trkpt><trkpt lat="-26.641099231313206" lon="114.66536804611886"><ele>156.0</ele><time>2026-04-15T07:58:55.001Z</time></trkpt><trkpt lat="-26.6410975743206" lon="114.6650475298295"><ele>156.0</ele><time>2026-04-15T07:58:56.001Z</time></trkpt><trkpt lat="-26.641099963938178" lon="114.66473540017293"><ele>156.0</ele><time>2026-04-15T07:58:57.001Z</time></trkpt><trkpt lat="-26.641102703429592" lon="114.66441901413008"><ele>156.0</ele><time>2026-04-15T07:58:58.001Z</time></trkpt><trkpt lat="-26.641105961768215" lon="114.6641033530261"><ele>156.0</ele><time>2026-04-15T07:58:59.001Z</time></trkpt><trkpt lat="-26.6411039836003" lon="114.6637885201035"><ele>156.0</ele><time>2026-04-15T07:59:00.001Z</time></trkpt><trkpt lat="-26.641103873851776" lon="114.66347551147695"><ele>156.0</ele><time>2026-04-15T07:59:01.001Z</time></trkpt><trkpt lat="-26.641103040290552" lon="114.6631561672495"><ele>156.0</ele><time>2026-04-15T07:59:02.001Z</time></trkpt><trkpt lat="-26.641102062589695" lon="114.66284602175462"><ele>156.0</ele><time>2026-04-15T07:59:03.001Z</time></trkpt><trkpt lat="-26.641103534777248" lon="114.66253485196883"><ele>155.5</ele><time>2026-04-15T07:59:04.001Z</time></trkpt><trkpt lat="-26.641100660423923" lon="114.66222388971568"><ele>155.0</ele><time>2026-04-15T07:59:05.001Z</time></trkpt><trkpt lat="-26.641100346193447" lon="114.661905935716"><ele>155.0</ele><time>2026-04-15T07:59:06.001Z</time></trkpt><trkpt lat="-26.64110214322212" lon="114.66159118673323"><ele>155.0</ele><time>2026-04-15T07:59:07.001Z</time></trkpt><trkpt lat="-26.64110215857932" lon="114.66127403664552"><ele>154.0</ele><time>2026-04-15T07:59:08.001Z</time></trkpt><trkpt lat="-26.641101692316653" lon="114.66095571528783"><ele>153.0</ele><time>2026-04-15T07:59:09.001Z</time></trkpt><trkpt lat="-26.641103800252722" lon="114.66063429356296"><ele>153.0</ele><time>2026-04-15T07:59:10.001Z</time></trkpt><trkpt lat="-26.64110770607196" lon="114.66031085584785"><ele>153.0</ele><time>2026-04-15T07:59:11.001Z</time></trkpt><trkpt lat="-26.641108797342344" lon="114.65998650288186"><ele>153.0</ele><time>2026-04-15T07:59:12.001Z</time></trkpt><trkpt lat="-26.641109141135587" lon="114.6596583388601"><ele>153.0</ele><time>2026-04-15T07:59:13.001Z</time></trkpt><trkpt lat="-26.641108410225602" lon="114.65933221648628"><ele>152.5</ele><time>2026-04-15T07:59:14.001Z</time></trkpt><trkpt lat="-26.641107051039707" lon="114.65900749186132"><ele>152.0</ele><time>2026-04-15T07:59:15.001Z</time></trkpt><trkpt lat="-26.64110405537924" lon="114.6586845276438"><ele>153.0</ele><time>2026-04-15T07:59:16.001Z</time></trkpt><trkpt lat="-26.641100960588137" lon="114.65835332344238"><ele>154.0</ele><time>2026-04-15T07:59:17.001Z</time></trkpt><trkpt lat="-26.64109841329684" lon="114.65802565150668"><ele>153.0</ele><time>2026-04-15T07:59:18.001Z</time></trkpt><trkpt lat="-26.641099550721957" lon="114.65769962310326"><ele>152.0</ele><time>2026-04-15T07:59:19.001Z</time></trkpt><trkpt lat="-26.641102725765126" lon="114.65737422981235"><ele>152.0</ele><time>2026-04-15T07:59:20.001Z</time></trkpt><trkpt lat="-26.641104559658025" lon="114.65704570013808"><ele>152.0</ele><time>2026-04-15T07:59:21.001Z</time></trkpt><trkpt lat="-26.641104460401365" lon="114.65671939585573"><ele>152.5</ele><time>2026-04-15T07:59:22.001Z</time></trkpt><trkpt lat="-26.641102685016065" lon="114.6563919698122"><ele>153.0</ele><time>2026-04-15T07:59:23.001Z</time></trkpt><trkpt lat="-26.641101444889994" lon="114.65606951432895"><ele>153.0</ele><time>2026-04-15T07:59:24.001Z</time></trkpt><trkpt lat="-26.641100433570994" lon="114.65574373786427"><ele>153.0</ele><time>2026-04-15T07:59:25.001Z</time></trkpt><trkpt lat="-26.641104060355563" lon="114.65541843268707"><ele>151.5</ele><time>2026-04-15T07:59:26.001Z</time></trkpt><trkpt lat="-26.641108698630983" lon="114.65509566092265"><ele>150.0</ele><time>2026-04-15T07:59:27.001Z</time></trkpt><trkpt lat="-26.64111054284694" lon="114.65478077723954"><ele>150.0</ele><time>2026-04-15T07:59:28.001Z</time></trkpt><trkpt lat="-26.641108778306894" lon="114.65446628874223"><ele>150.0</ele><time>2026-04-15T07:59:29.001Z</time></trkpt><trkpt lat="-26.641107855192526" lon="114.65415350727405"><ele>149.0</ele><time>2026-04-15T07:59:30.001Z</time></trkpt><trkpt lat="-26.64110635394044" lon="114.65383982823022"><ele>148.0</ele><time>2026-04-15T07:59:31.001Z</time></trkpt><trkpt lat="-26.641104802363365" lon="114.65352873743132"><ele>147.5</ele><time>2026-04-15T07:59:32.001Z</time></trkpt><trkpt lat="-26.641105350963333" lon="114.65322104433695"><ele>147.0</ele><time>2026-04-15T07:59:33.001Z</time></trkpt><trkpt lat="-26.64110442751186" lon="114.65291578520862"><ele>145.0</ele><time>2026-04-15T07:59:34.001Z</time></trkpt><trkpt lat="-26.641103277377802" lon="114.6526012909851"><ele>143.0</ele><time>2026-04-15T07:59:35.001Z</time></trkpt><trkpt lat="-26.64110605936423" lon="114.65228561217367"><ele>143.0</ele><time>2026-04-15T07:59:36.001Z</time></trkpt><trkpt lat="-26.641108257836336" lon="114.65195934806897"><ele>143.0</ele><time>2026-04-15T07:59:37.001Z</time></trkpt><trkpt lat="-26.64110932674396" lon="114.65163311837762"><ele>143.5</ele><time>2026-04-15T07:59:38.001Z</time></trkpt><trkpt lat="-26.64110948170793" lon="114.651296720685"><ele>144.0</ele><time>2026-04-15T07:59:39.001Z</time></trkpt><trkpt lat="-26.641108934721338" lon="114.65095904815387"><ele>144.0</ele><time>2026-04-15T07:59:40.001Z</time></trkpt><trkpt lat="-26.641108264188265" lon="114.65062462302478"><ele>144.0</ele><time>2026-04-15T07:59:41.001Z</time></trkpt><trkpt lat="-26.641110691034836" lon="114.65029436839849"><ele>143.0</ele><time>2026-04-15T07:59:42.001Z</time></trkpt><trkpt lat="-26.641111723408137" lon="114.64996433833224"><ele>142.0</ele><time>2026-04-15T07:59:43.001Z</time></trkpt><trkpt lat="-26.641111747436135" lon="114.64963856195372"><ele>142.5</ele><time>2026-04-15T07:59:44.001Z</time></trkpt><trkpt lat="-26.64111387215889" lon="114.64931460928469"><ele>143.0</ele><time>2026-04-15T07:59:45.001Z</time></trkpt><trkpt lat="-26.641116257011824" lon="114.64898514257254"><ele>143.0</ele><time>2026-04-15T07:59:46.001Z</time></trkpt><trkpt lat="-26.641120501455568" lon="114.64866227383179"><ele>143.0</ele><time>2026-04-15T07:59:47.001Z</time></trkpt><trkpt lat="-26.64112277639337" lon="114.64833981496736"><ele>143.5</ele><time>2026-04-15T07:59:48.001Z</time></trkpt><trkpt lat="-26.641121556852234" lon="114.64802209943613"><ele>144.0</ele><time>2026-04-15T07:59:49.001Z</time></trkpt><trkpt lat="-26.641119847959388" lon="114.64770524803444"><ele>144.5</ele><time>2026-04-15T07:59:50.001Z</time></trkpt><trkpt lat="-26.641117758209322" lon="114.64738763208844"><ele>145.0</ele><time>2026-04-15T07:59:51.001Z</time></trkpt><trkpt lat="-26.641117258165558" lon="114.64707147190944"><ele>144.0</ele><time>2026-04-15T07:59:52.001Z</time></trkpt><trkpt lat="-26.641118063225417" lon="114.6467576671889"><ele>143.0</ele><time>2026-04-15T07:59:53.001Z</time></trkpt><trkpt lat="-26.641118337700693" lon="114.64644490851563"><ele>143.0</ele><time>2026-04-15T07:59:54.001Z</time></trkpt><trkpt lat="-26.641115387638372" lon="114.64612954667662"><ele>143.0</ele><time>2026-04-15T07:59:55.001Z</time></trkpt><trkpt lat="-26.641114272265636" lon="114.64581301711269"><ele>143.5</ele><time>2026-04-15T07:59:56.001Z</time></trkpt><trkpt lat="-26.64111383684081" lon="114.64549901645427"><ele>144.0</ele><time>2026-04-15T07:59:57.001Z</time></trkpt><trkpt lat="-26.641113643306166" lon="114.64518153858673"><ele>143.0</ele><time>2026-04-15T07:59:58.001Z</time></trkpt><trkpt lat="-26.641113138523675" lon="114.64486846386389"><ele>142.0</ele><time>2026-04-15T07:59:59.001Z</time></trkpt><trkpt lat="-26.6411125880577" lon="114.6445542867362"><ele>142.0</ele><time>2026-04-15T08:00:00.001Z</time></trkpt><trkpt lat="-26.64111494956269" lon="114.64425294865892"><ele>142.0</ele><time>2026-04-15T08:00:01.001Z</time></trkpt><trkpt lat="-26.641118129464108" lon="114.64394610927681"><ele>142.0</ele><time>2026-04-15T08:00:02.001Z</time></trkpt><trkpt lat="-26.641120172622895" lon="114.64363972266412"><ele>142.0</ele><time>2026-04-15T08:00:03.001Z</time></trkpt><trkpt lat="-26.641124067159094" lon="114.643326213732"><ele>142.0</ele><time>2026-04-15T08:00:04.001Z</time></trkpt><trkpt lat="-26.64112441539107" lon="114.64301445668012"><ele>142.0</ele><time>2026-04-15T08:00:05.001Z</time></trkpt><trkpt lat="-26.641124458509644" lon="114.64270129051745"><ele>141.0</ele><time>2026-04-15T08:00:06.001Z</time></trkpt><trkpt lat="-26.64111987625694" lon="114.6423942448735"><ele>140.0</ele><time>2026-04-15T08:00:07.001Z</time></trkpt><trkpt lat="-26.641120830596364" lon="114.6420840706505"><ele>139.5</ele><time>2026-04-15T08:00:08.001Z</time></trkpt><trkpt lat="-26.641125470416885" lon="114.64178063825115"><ele>139.0</ele><time>2026-04-15T08:00:09.001Z</time></trkpt><trkpt lat="-26.641131280624048" lon="114.64147382115844"><ele>139.0</ele><time>2026-04-15T08:00:10Z</time></trkpt><trkpt lat="-26.641127907171583" lon="114.64118144361937"><ele>139.0</ele><time>2026-04-15T08:00:11Z</time></trkpt><trkpt lat="-26.64112482342208" lon="114.64087947341321"><ele>139.5</ele><time>2026-04-15T08:00:12Z</time></trkpt><trkpt lat="-26.641119020300554" lon="114.64057760596441"><ele>140.0</ele><time>2026-04-15T08:00:13Z</time></trkpt><trkpt lat="-26.64111577603544" lon="114.64027615583669"><ele>140.0</ele><time>2026-04-15T08:00:14Z</time></trkpt><trkpt lat="-26.64111751467281" lon="114.63998308600253"><ele>140.0</ele><time>2026-04-15T08:00:15Z</time></trkpt><trkpt lat="-26.641120560571633" lon="114.63970273287843"><ele>139.0</ele><time>2026-04-15T08:00:16Z</time></trkpt><trkpt lat="-26.641127570550733" lon="114.63944831995367"><ele>138.0</ele><time>2026-04-15T08:00:17Z</time></trkpt><trkpt lat="-26.641143383593946" lon="114.6391756023055"><ele>138.0</ele><time>2026-04-15T08:00:18Z</time></trkpt><trkpt lat="-26.641169711577497" lon="114.63891408732833"><ele>138.0</ele><time>2026-04-15T08:00:19Z</time></trkpt><trkpt lat="-26.641212771731418" lon="114.63865627536929"><ele>136.5</ele><time>2026-04-15T08:00:20Z</time></trkpt><trkpt lat="-26.641270197887376" lon="114.638409423311"><ele>135.0</ele><time>2026-04-15T08:00:21Z</time></trkpt><trkpt lat="-26.641343358600768" lon="114.63815567678199"><ele>135.0</ele><time>2026-04-15T08:00:22Z</time></trkpt><trkpt lat="-26.64142684757592" lon="114.63789602457001"><ele>135.0</ele><time>2026-04-15T08:00:23Z</time></trkpt><trkpt lat="-26.641509833135085" lon="114.63763898723249"><ele>136.0</ele><time>2026-04-15T08:00:24Z</time></trkpt><trkpt lat="-26.64159645992708" lon="114.63737027270193"><ele>137.0</ele><time>2026-04-15T08:00:25Z</time></trkpt><trkpt lat="-26.64167949075477" lon="114.63710142695163"><ele>137.0</ele><time>2026-04-15T08:00:26Z</time></trkpt><trkpt lat="-26.6417630392267" lon="114.63682025834696"><ele>137.0</ele><time>2026-04-15T08:00:27Z</time></trkpt><trkpt lat="-26.641841362949073" lon="114.63654917568678"><ele>137.0</ele><time>2026-04-15T08:00:28Z</time></trkpt><trkpt lat="-26.641920077041604" lon="114.6362667296076"><ele>137.0</ele><time>2026-04-15T08:00:29Z</time></trkpt><trkpt lat="-26.6419926705309" lon="114.63599547261056"><ele>136.5</ele><time>2026-04-15T08:00:30Z</time></trkpt><trkpt lat="-26.6420641332401" lon="114.63571902344134"><ele>136.0</ele><time>2026-04-15T08:00:31Z</time></trkpt><trkpt lat="-26.642136890965272" lon="114.63544037165225"><ele>136.0</ele><time>2026-04-15T08:00:32Z</time></trkpt><trkpt lat="-26.64221303023489" lon="114.6351582273297"><ele>136.0</ele><time>2026-04-15T08:00:33Z</time></trkpt><trkpt lat="-26.642286502609664" lon="114.63487571333825"><ele>136.0</ele><time>2026-04-15T08:00:34Z</time></trkpt><trkpt lat="-26.642352093277154" lon="114.63459148061108"><ele>136.0</ele><time>2026-04-15T08:00:35Z</time></trkpt><trkpt lat="-26.642406939980482" lon="114.63429806988268"><ele>136.0</ele><time>2026-04-15T08:00:36.001Z</time></trkpt><trkpt lat="-26.642445229029676" lon="114.6340034619974"><ele>136.0</ele><time>2026-04-15T08:00:37.001Z</time></trkpt><trkpt lat="-26.642461964975794" lon="114.63371157547202"><ele>137.5</ele><time>2026-04-15T08:00:38.001Z</time></trkpt><trkpt lat="-26.642455318340733" lon="114.63343542137427"><ele>139.0</ele><time>2026-04-15T08:00:39.001Z</time></trkpt><trkpt lat="-26.64243624256443" lon="114.63316062542638"><ele>139.0</ele><time>2026-04-15T08:00:40.001Z</time></trkpt><trkpt lat="-26.642416970198262" lon="114.63290086100314"><ele>139.0</ele><time>2026-04-15T08:00:41.001Z</time></trkpt><trkpt lat="-26.642408700667797" lon="114.63264228352969"><ele>137.5</ele><time>2026-04-15T08:00:42.001Z</time></trkpt><trkpt lat="-26.642402146593493" lon="114.63239102311687"><ele>136.0</ele><time>2026-04-15T08:00:43.001Z</time></trkpt><trkpt lat="-26.642399735421154" lon="114.63213783092402"><ele>138.0</ele><time>2026-04-15T08:00:44.001Z</time></trkpt><trkpt lat="-26.642404007169876" lon="114.63188338297027"><ele>140.0</ele><time>2026-04-15T08:00:45.001Z</time></trkpt><trkpt lat="-26.642406371168192" lon="114.63161466226526"><ele>140.0</ele><time>2026-04-15T08:00:46.001Z</time></trkpt><trkpt lat="-26.6424049973565" lon="114.63134858727632"><ele>140.0</ele><time>2026-04-15T08:00:47.001Z</time></trkpt><trkpt lat="-26.642400593308377" lon="114.63107731503517"><ele>140.0</ele><time>2026-04-15T08:00:48.001Z</time></trkpt><trkpt lat="-26.64240491922072" lon="114.63080126225778"><ele>140.0</ele><time>2026-04-15T08:00:49.001Z</time></trkpt><trkpt lat="-26.64239568074037" lon="114.63051521411883"><ele>139.5</ele><time>2026-04-15T08:00:50.001Z</time></trkpt><trkpt lat="-26.642385313108043" lon="114.63021257294486"><ele>139.0</ele><time>2026-04-15T08:00:51.001Z</time></trkpt><trkpt lat="-26.642376303123015" lon="114.62990280831687"><ele>139.0</ele><time>2026-04-15T08:00:52.001Z</time></trkpt><trkpt lat="-26.64236190494668" lon="114.62959026748389"><ele>139.0</ele><time>2026-04-15T08:00:53.001Z</time></trkpt><trkpt lat="-26.64235044498091" lon="114.62927372205321"><ele>139.0</ele><time>2026-04-15T08:00:54.001Z</time></trkpt><trkpt lat="-26.642344918651204" lon="114.62896124600704"><ele>139.0</ele><time>2026-04-15T08:00:55.001Z</time></trkpt><trkpt lat="-26.642343959011388" lon="114.62865539444667"><ele>139.0</ele><time>2026-04-15T08:00:56.001Z</time></trkpt><trkpt lat="-26.64233912735143" lon="114.6283459567049"><ele>139.0</ele><time>2026-04-15T08:00:57.001Z</time></trkpt><trkpt lat="-26.642336460857248" lon="114.62803884198317"><ele>139.0</ele><time>2026-04-15T08:00:58.001Z</time></trkpt><trkpt lat="-26.642334464418905" lon="114.62772981881346"><ele>139.0</ele><time>2026-04-15T08:00:59.001Z</time></trkpt><trkpt lat="-26.642327865389113" lon="114.62741827357395"><ele>139.0</ele><time>2026-04-15T08:01:00.001Z</time></trkpt><trkpt lat="-26.64232488730669" lon="114.62710356322266"><ele>139.0</ele><time>2026-04-15T08:01:01.001Z</time></trkpt><trkpt lat="-26.642325187971984" lon="114.6267882728523"><ele>139.5</ele><time>2026-04-15T08:01:02.001Z</time></trkpt><trkpt lat="-26.64232178894455" lon="114.62647199612552"><ele>140.0</ele><time>2026-04-15T08:01:03Z</time></trkpt><trkpt lat="-26.64231955551296" lon="114.62615161198859"><ele>139.5</ele><time>2026-04-15T08:01:04Z</time></trkpt><trkpt lat="-26.642318009433982" lon="114.62583378225443"><ele>139.0</ele><time>2026-04-15T08:01:05Z</time></trkpt><trkpt lat="-26.642308568391172" lon="114.62552084311443"><ele>139.0</ele><time>2026-04-15T08:01:06Z</time></trkpt><trkpt lat="-26.64230926595394" lon="114.62521437099619"><ele>139.0</ele><time>2026-04-15T08:01:07Z</time></trkpt><trkpt lat="-26.64230732052285" lon="114.6249126166436"><ele>139.0</ele><time>2026-04-15T08:01:08Z</time></trkpt><trkpt lat="-26.642302714341113" lon="114.62460877376547"><ele>139.0</ele><time>2026-04-15T08:01:09Z</time></trkpt><trkpt lat="-26.642296790830745" lon="114.62429871597743"><ele>139.0</ele><time>2026-04-15T08:01:10Z</time></trkpt><trkpt lat="-26.64229673073053" lon="114.62398660778902"><ele>139.0</ele><time>2026-04-15T08:01:11Z</time></trkpt><trkpt lat="-26.642291964054465" lon="114.62367767528077"><ele>138.0</ele><time>2026-04-15T08:01:12Z</time></trkpt><trkpt lat="-26.642291643456957" lon="114.62336543511802"><ele>137.0</ele><time>2026-04-15T08:01:13Z</time></trkpt><trkpt lat="-26.642293246091505" lon="114.62305643320457"><ele>137.5</ele><time>2026-04-15T08:01:14Z</time></trkpt><trkpt lat="-26.642290722801018" lon="114.62274315366285"><ele>138.0</ele><time>2026-04-15T08:01:15Z</time></trkpt><trkpt lat="-26.642286330139427" lon="114.62242592608553"><ele>138.0</ele><time>2026-04-15T08:01:16Z</time></trkpt><trkpt lat="-26.64228151060735" lon="114.62210730095495"><ele>138.0</ele><time>2026-04-15T08:01:17Z</time></trkpt><trkpt lat="-26.642270785264405" lon="114.62178948300101"><ele>139.0</ele><time>2026-04-15T08:01:18Z</time></trkpt><trkpt lat="-26.642263145020262" lon="114.62146315816804"><ele>140.0</ele><time>2026-04-15T08:01:19Z</time></trkpt><trkpt lat="-26.642258704997754" lon="114.62114219218037"><ele>141.0</ele><time>2026-04-15T08:01:20Z</time></trkpt><trkpt lat="-26.642255664012406" lon="114.62081727937719"><ele>142.0</ele><time>2026-04-15T08:01:21Z</time></trkpt><trkpt lat="-26.642257590716927" lon="114.62049465161074"><ele>141.5</ele><time>2026-04-15T08:01:22Z</time></trkpt><trkpt lat="-26.642261257963405" lon="114.62017053740462"><ele>141.0</ele><time>2026-04-15T08:01:23Z</time></trkpt><trkpt lat="-26.64225926454826" lon="114.61984695543829"><ele>141.0</ele><time>2026-04-15T08:01:24Z</time></trkpt><trkpt lat="-26.642252179891965" lon="114.61952773093452"><ele>141.0</ele><time>2026-04-15T08:01:25Z</time></trkpt><trkpt lat="-26.642252199056745" lon="114.61921067967126"><ele>141.5</ele><time>2026-04-15T08:01:26Z</time></trkpt><trkpt lat="-26.642248293367626" lon="114.61888512100153"><ele>142.0</ele><time>2026-04-15T08:01:27Z</time></trkpt><trkpt lat="-26.64224336452648" lon="114.61855948340454"><ele>143.0</ele><time>2026-04-15T08:01:28Z</time></trkpt><trkpt lat="-26.642231560939287" lon="114.61823814579093"><ele>144.0</ele><time>2026-04-15T08:01:29Z</time></trkpt><trkpt lat="-26.642250171151176" lon="114.61792926479932"><ele>144.5</ele><time>2026-04-15T08:01:30Z</time></trkpt><trkpt lat="-26.642246815368143" lon="114.61761651113201"><ele>145.0</ele><time>2026-04-15T08:01:31Z</time></trkpt><trkpt lat="-26.642227816062206" lon="114.61730179563668"><ele>145.0</ele><time>2026-04-15T08:01:32Z</time></trkpt><trkpt lat="-26.642227888319972" lon="114.61699368566521"><ele>145.0</ele><time>2026-04-15T08:01:33Z</time></trkpt><trkpt lat="-26.64222287927481" lon="114.61668723816886"><ele>145.5</ele><time>2026-04-15T08:01:34Z</time></trkpt><trkpt lat="-26.64221978240221" lon="114.61638685793669"><ele>146.0</ele><time>2026-04-15T08:01:35Z</time></trkpt><trkpt lat="-26.64222654265612" lon="114.61607095667974"><ele>146.0</ele><time>2026-04-15T08:01:36Z</time></trkpt><trkpt lat="-26.642221921306334" lon="114.61575968178933"><ele>146.0</ele><time>2026-04-15T08:01:37Z</time></trkpt><trkpt lat="-26.64221821719864" lon="114.61544889267704"><ele>146.5</ele><time>2026-04-15T08:01:38Z</time></trkpt><trkpt lat="-26.642213713421654" lon="114.61513272759589"><ele>147.0</ele><time>2026-04-15T08:01:39Z</time></trkpt><trkpt lat="-26.642208913221456" lon="114.6148186686557"><ele>147.0</ele><time>2026-04-15T08:01:40Z</time></trkpt><trkpt lat="-26.642204496970404" lon="114.61450911046916"><ele>147.0</ele><time>2026-04-15T08:01:41Z</time></trkpt><trkpt lat="-26.64220082606097" lon="114.6142077808913"><ele>147.5</ele><time>2026-04-15T08:01:42Z</time></trkpt><trkpt lat="-26.642197225544436" lon="114.61392468031983"><ele>148.0</ele><time>2026-04-15T08:01:43Z</time></trkpt><trkpt lat="-26.64219405145791" lon="114.61364405957458"><ele>147.0</ele><time>2026-04-15T08:01:44Z</time></trkpt><trkpt lat="-26.64217505841981" lon="114.61335053607633"><ele>146.0</ele><time>2026-04-15T08:01:45Z</time></trkpt><trkpt lat="-26.642175828894693" lon="114.61306385698752"><ele>145.5</ele><time>2026-04-15T08:01:46Z</time></trkpt><trkpt lat="-26.642175154363574" lon="114.61276490250972"><ele>145.0</ele><time>2026-04-15T08:01:47Z</time></trkpt><trkpt lat="-26.642172800067176" lon="114.61246537888569"><ele>145.0</ele><time>2026-04-15T08:01:48Z</time></trkpt><trkpt lat="-26.64216764412428" lon="114.6121545868653"><ele>145.0</ele><time>2026-04-15T08:01:49Z</time></trkpt><trkpt lat="-26.642160345368776" lon="114.61184395070833"><ele>145.5</ele><time>2026-04-15T08:01:50Z</time></trkpt><trkpt lat="-26.64215389164242" lon="114.61153524212398"><ele>146.0</ele><time>2026-04-15T08:01:51Z</time></trkpt><trkpt lat="-26.642167202651017" lon="114.61122436583825"><ele>146.5</ele><time>2026-04-15T08:01:52Z</time></trkpt><trkpt lat="-26.642164820446602" lon="114.61091107684769"><ele>147.0</ele><time>2026-04-15T08:01:53Z</time></trkpt><trkpt lat="-26.642162517899457" lon="114.6105948795942"><ele>147.0</ele><time>2026-04-15T08:01:54Z</time></trkpt><trkpt lat="-26.642156214181473" lon="114.61028398391322"><ele>147.0</ele><time>2026-04-15T08:01:55Z</time></trkpt><trkpt lat="-26.64212923582195" lon="114.60996946275645"><ele>147.0</ele><time>2026-04-15T08:01:56Z</time></trkpt><trkpt lat="-26.642115666297297" lon="114.6096543609133"><ele>147.0</ele><time>2026-04-15T08:01:57Z</time></trkpt><trkpt lat="-26.642092603067557" lon="114.6093421516812"><ele>148.0</ele><time>2026-04-15T08:01:58Z</time></trkpt><trkpt lat="-26.642060257297373" lon="114.6090312797617"><ele>149.0</ele><time>2026-04-15T08:01:59Z</time></trkpt><trkpt lat="-26.642014104303414" lon="114.60873143304221"><ele>149.0</ele><time>2026-04-15T08:02:00Z</time></trkpt><trkpt lat="-26.64195330006282" lon="114.60843461164225"><ele>149.0</ele><time>2026-04-15T08:02:01Z</time></trkpt><trkpt lat="-26.64188343971449" lon="114.60813708963542"><ele>149.0</ele><time>2026-04-15T08:02:02Z</time></trkpt><trkpt lat="-26.641844239796175" lon="114.60783165821424"><ele>149.0</ele><time>2026-04-15T08:02:03Z</time></trkpt><trkpt lat="-26.641790831236936" lon="114.6075257823891"><ele>148.0</ele><time>2026-04-15T08:02:04Z</time></trkpt><trkpt lat="-26.64173326481729" lon="114.6072239756483"><ele>147.0</ele><time>2026-04-15T08:02:05Z</time></trkpt><trkpt lat="-26.641675636360002" lon="114.60692171081253"><ele>147.0</ele><time>2026-04-15T08:02:06Z</time></trkpt><trkpt lat="-26.641618962529716" lon="114.6066206233998"><ele>147.0</ele><time>2026-04-15T08:02:07Z</time></trkpt><trkpt lat="-26.641561427943415" lon="114.6063196370318"><ele>146.5</ele><time>2026-04-15T08:02:08Z</time></trkpt><trkpt lat="-26.64148964779185" lon="114.60601487583956"><ele>146.0</ele><time>2026-04-15T08:02:09Z</time></trkpt><trkpt lat="-26.641436474238983" lon="114.60571516371748"><ele>146.0</ele><time>2026-04-15T08:02:10Z</time></trkpt><trkpt lat="-26.64138744187969" lon="114.60541813510693"><ele>146.0</ele><time>2026-04-15T08:02:11Z</time></trkpt><trkpt lat="-26.64133867857548" lon="114.60512555835155"><ele>146.0</ele><time>2026-04-15T08:02:12Z</time></trkpt><trkpt lat="-26.641286310087565" lon="114.60483264681474"><ele>146.0</ele><time>2026-04-15T08:02:13Z</time></trkpt><trkpt lat="-26.641234261823435" lon="114.6045391817104"><ele>146.5</ele><time>2026-04-15T08:02:14Z</time></trkpt><trkpt lat="-26.64118379605213" lon="114.60424804233224"><ele>147.0</ele><time>2026-04-15T08:02:15Z</time></trkpt><trkpt lat="-26.64113727330307" lon="114.60396008765869"><ele>147.0</ele><time>2026-04-15T08:02:16Z</time></trkpt><trkpt lat="-26.64113372448866" lon="114.60367409434122"><ele>147.0</ele><time>2026-04-15T08:02:17Z</time></trkpt><trkpt lat="-26.641131399040436" lon="114.60338113562183"><ele>145.0</ele><time>2026-04-15T08:02:18Z</time></trkpt><trkpt lat="-26.64113043726967" lon="114.60307647443052"><ele>143.0</ele><time>2026-04-15T08:02:19Z</time></trkpt><trkpt lat="-26.641129996695003" lon="114.6027724335951"><ele>142.5</ele><time>2026-04-15T08:02:20Z</time></trkpt><trkpt lat="-26.641129996695042" lon="114.60246243505243"><ele>142.0</ele><time>2026-04-15T08:02:21Z</time></trkpt><trkpt lat="-26.641131641092365" lon="114.60215132065044"><ele>143.0</ele><time>2026-04-15T08:02:22Z</time></trkpt><trkpt lat="-26.64113337286609" lon="114.60183608890729"><ele>144.0</ele><time>2026-04-15T08:02:23Z</time></trkpt><trkpt lat="-26.64113542147138" lon="114.60151913755716"><ele>144.0</ele><time>2026-04-15T08:02:24Z</time></trkpt><trkpt lat="-26.641137654146053" lon="114.60120721426875"><ele>144.0</ele><time>2026-04-15T08:02:25Z</time></trkpt><trkpt lat="-26.641139982967882" lon="114.60088536258709"><ele>143.5</ele><time>2026-04-15T08:02:26Z</time></trkpt><trkpt lat="-26.641141942701548" lon="114.60055962970361"><ele>143.0</ele><time>2026-04-15T08:02:27Z</time></trkpt><trkpt lat="-26.641143196693847" lon="114.60023784957924"><ele>143.0</ele><time>2026-04-15T08:02:28Z</time></trkpt><trkpt lat="-26.641144869072708" lon="114.59991636098218"><ele>143.0</ele><time>2026-04-15T08:02:29Z</time></trkpt><trkpt lat="-26.641130982397755" lon="114.5995977054793"><ele>143.0</ele><time>2026-04-15T08:02:30Z</time></trkpt><trkpt lat="-26.64113632210855" lon="114.59928306132136"><ele>143.0</ele><time>2026-04-15T08:02:31Z</time></trkpt><trkpt lat="-26.64114042032231" lon="114.59896330412867"><ele>144.5</ele><time>2026-04-15T08:02:32Z</time></trkpt><trkpt lat="-26.64114149451608" lon="114.59864837114675"><ele>146.0</ele><time>2026-04-15T08:02:33Z</time></trkpt><trkpt lat="-26.641144512513456" lon="114.59832843441922"><ele>146.0</ele><time>2026-04-15T08:02:34Z</time></trkpt><trkpt lat="-26.641146434343835" lon="114.59800306862738"><ele>146.0</ele><time>2026-04-15T08:02:35Z</time></trkpt><trkpt lat="-26.641147608397326" lon="114.59767928608902"><ele>146.0</ele><time>2026-04-15T08:02:36Z</time></trkpt><trkpt lat="-26.641147792884727" lon="114.59735996350788"><ele>146.0</ele><time>2026-04-15T08:02:37Z</time></trkpt><trkpt lat="-26.641150841949074" lon="114.59703912385935"><ele>146.5</ele><time>2026-04-15T08:02:38Z</time></trkpt><trkpt lat="-26.641152414299896" lon="114.59672621616521"><ele>147.0</ele><time>2026-04-15T08:02:39Z</time></trkpt><trkpt lat="-26.641156619779945" lon="114.59640896882502"><ele>147.0</ele><time>2026-04-15T08:02:40Z</time></trkpt><trkpt lat="-26.641158626516116" lon="114.59608909814189"><ele>147.0</ele><time>2026-04-15T08:02:41Z</time></trkpt><trkpt lat="-26.64115818465487" lon="114.59577313347262"><ele>147.0</ele><time>2026-04-15T08:02:42Z</time></trkpt><trkpt lat="-26.641151945352295" lon="114.5954585573156"><ele>147.0</ele><time>2026-04-15T08:02:43Z</time></trkpt><trkpt lat="-26.641142910248014" lon="114.59513904684891"><ele>147.0</ele><time>2026-04-15T08:02:44Z</time></trkpt><trkpt lat="-26.641138625872287" lon="114.59482093836756"><ele>147.0</ele><time>2026-04-15T08:02:45Z</time></trkpt><trkpt lat="-26.641137226220003" lon="114.5945042559847"><ele>147.5</ele><time>2026-04-15T08:02:46Z</time></trkpt><trkpt lat="-26.641138743225167" lon="114.59418728642214"><ele>148.0</ele><time>2026-04-15T08:02:47Z</time></trkpt><trkpt lat="-26.641137577350907" lon="114.59387118638247"><ele>148.5</ele><time>2026-04-15T08:02:48Z</time></trkpt><trkpt lat="-26.641138011307277" lon="114.59355280674374"><ele>149.0</ele><time>2026-04-15T08:02:49Z</time></trkpt><trkpt lat="-26.641137855974026" lon="114.59323264323251"><ele>149.0</ele><time>2026-04-15T08:02:50Z</time></trkpt><trkpt lat="-26.641135379051832" lon="114.59291377528741"><ele>149.0</ele><time>2026-04-15T08:02:51Z</time></trkpt><trkpt lat="-26.641133506187057" lon="114.59259925114235"><ele>148.0</ele><time>2026-04-15T08:02:52Z</time></trkpt><trkpt lat="-26.641129527999826" lon="114.59228842238235"><ele>147.0</ele><time>2026-04-15T08:02:53Z</time></trkpt><trkpt lat="-26.64113012842333" lon="114.59197897011478"><ele>146.5</ele><time>2026-04-15T08:02:54Z</time></trkpt><trkpt lat="-26.641131037158463" lon="114.59168120863724"><ele>146.0</ele><time>2026-04-15T08:02:55Z</time></trkpt><trkpt lat="-26.641135048313867" lon="114.59139267514041"><ele>147.0</ele><time>2026-04-15T08:02:56Z</time></trkpt><trkpt lat="-26.641139909968018" lon="114.59108792772815"><ele>148.0</ele><time>2026-04-15T08:02:57Z</time></trkpt><trkpt lat="-26.641143024240243" lon="114.59077324348678"><ele>148.0</ele><time>2026-04-15T08:02:58Z</time></trkpt><trkpt lat="-26.641147201975663" lon="114.59046560055614"><ele>148.0</ele><time>2026-04-15T08:02:59Z</time></trkpt><trkpt lat="-26.641145138639963" lon="114.59015457392401"><ele>148.0</ele><time>2026-04-15T08:03:00Z</time></trkpt><trkpt lat="-26.64114626527369" lon="114.58984326628165"><ele>148.0</ele><time>2026-04-15T08:03:01Z</time></trkpt><trkpt lat="-26.641143326463332" lon="114.58952880712994"><ele>147.5</ele><time>2026-04-15T08:03:02Z</time></trkpt><trkpt lat="-26.641140244757167" lon="114.58921430755778"><ele>147.0</ele><time>2026-04-15T08:03:03Z</time></trkpt><trkpt lat="-26.64113849272156" lon="114.58889844338552"><ele>147.5</ele><time>2026-04-15T08:03:04Z</time></trkpt><trkpt lat="-26.641140344708962" lon="114.58858096770835"><ele>148.0</ele><time>2026-04-15T08:03:05Z</time></trkpt><trkpt lat="-26.64114063420117" lon="114.58826484363577"><ele>148.0</ele><time>2026-04-15T08:03:06Z</time></trkpt><trkpt lat="-26.64114326050424" lon="114.58794663148029"><ele>148.0</ele><time>2026-04-15T08:03:07Z</time></trkpt><trkpt lat="-26.641144848330054" lon="114.58763248331383"><ele>147.5</ele><time>2026-04-15T08:03:08Z</time></trkpt><trkpt lat="-26.64114656788312" lon="114.58731522336609"><ele>147.0</ele><time>2026-04-15T08:03:09Z</time></trkpt><trkpt lat="-26.64114569009577" lon="114.58699590564281"><ele>147.0</ele><time>2026-04-15T08:03:10Z</time></trkpt><trkpt lat="-26.641144562375356" lon="114.58667847040809"><ele>147.0</ele><time>2026-04-15T08:03:11Z</time></trkpt><trkpt lat="-26.641145980381843" lon="114.58635658448073"><ele>146.5</ele><time>2026-04-15T08:03:12Z</time></trkpt><trkpt lat="-26.641147396317994" lon="114.58603132711706"><ele>146.0</ele><time>2026-04-15T08:03:13Z</time></trkpt><trkpt lat="-26.64114627341412" lon="114.58570776071355"><ele>146.0</ele><time>2026-04-15T08:03:14Z</time></trkpt><trkpt lat="-26.641147760727115" lon="114.58538160185724"><ele>146.0</ele><time>2026-04-15T08:03:15Z</time></trkpt><trkpt lat="-26.641147105512697" lon="114.58505688935702"><ele>146.5</ele><time>2026-04-15T08:03:16Z</time></trkpt><trkpt lat="-26.641146018916206" lon="114.5847310581776"><ele>147.0</ele><time>2026-04-15T08:03:17Z</time></trkpt><trkpt lat="-26.641146366282324" lon="114.58440268730757"><ele>147.0</ele><time>2026-04-15T08:03:18Z</time></trkpt><trkpt lat="-26.641146370909517" lon="114.58407403320167"><ele>147.0</ele><time>2026-04-15T08:03:19Z</time></trkpt><trkpt lat="-26.641147485662117" lon="114.58374530661173"><ele>146.0</ele><time>2026-04-15T08:03:20Z</time></trkpt><trkpt lat="-26.641146409892936" lon="114.583417465337"><ele>145.0</ele><time>2026-04-15T08:03:21Z</time></trkpt><trkpt lat="-26.641145227910354" lon="114.5830876367358"><ele>144.0</ele><time>2026-04-15T08:03:22Z</time></trkpt><trkpt lat="-26.6411451735555" lon="114.58275770208829"><ele>143.0</ele><time>2026-04-15T08:03:23Z</time></trkpt><trkpt lat="-26.64114430094408" lon="114.58242895591977"><ele>143.0</ele><time>2026-04-15T08:03:24Z</time></trkpt><trkpt lat="-26.641143656180244" lon="114.58210464167081"><ele>143.0</ele><time>2026-04-15T08:03:25Z</time></trkpt><trkpt lat="-26.641144424993165" lon="114.58178466489542"><ele>143.0</ele><time>2026-04-15T08:03:26Z</time></trkpt><trkpt lat="-26.64114901409838" lon="114.58146354178781"><ele>143.0</ele><time>2026-04-15T08:03:27Z</time></trkpt><trkpt lat="-26.641150104871674" lon="114.58114796673885"><ele>143.0</ele><time>2026-04-15T08:03:28Z</time></trkpt><trkpt lat="-26.6411467633998" lon="114.58083812404595"><ele>143.0</ele><time>2026-04-15T08:03:29Z</time></trkpt><trkpt lat="-26.64114296878414" lon="114.58052917792476"><ele>142.5</ele><time>2026-04-15T08:03:30Z</time></trkpt><trkpt lat="-26.641142542463495" lon="114.58022053358667"><ele>142.0</ele><time>2026-04-15T08:03:31Z</time></trkpt><trkpt lat="-26.64114568237611" lon="114.57991169840707"><ele>142.0</ele><time>2026-04-15T08:03:32Z</time></trkpt><trkpt lat="-26.64114711777561" lon="114.57959719447393"><ele>142.0</ele><time>2026-04-15T08:03:33Z</time></trkpt><trkpt lat="-26.641148985383538" lon="114.5792820558866"><ele>141.0</ele><time>2026-04-15T08:03:34Z</time></trkpt><trkpt lat="-26.641149075918644" lon="114.57897376458878"><ele>140.0</ele><time>2026-04-15T08:03:35Z</time></trkpt><trkpt lat="-26.641147420078443" lon="114.5786674063937"><ele>139.5</ele><time>2026-04-15T08:03:36Z</time></trkpt><trkpt lat="-26.64114750623911" lon="114.5783592553988"><ele>139.0</ele><time>2026-04-15T08:03:37Z</time></trkpt><trkpt lat="-26.64114611829607" lon="114.57806111983615"><ele>139.0</ele><time>2026-04-15T08:03:38Z</time></trkpt><trkpt lat="-26.641143280867116" lon="114.57777041893094"><ele>139.0</ele><time>2026-04-15T08:03:39Z</time></trkpt><trkpt lat="-26.6411457776647" lon="114.577472419844"><ele>139.0</ele><time>2026-04-15T08:03:40Z</time></trkpt><trkpt lat="-26.641149128186324" lon="114.5771780116759"><ele>139.0</ele><time>2026-04-15T08:03:41Z</time></trkpt><trkpt lat="-26.641153892296447" lon="114.57689086650318"><ele>137.5</ele><time>2026-04-15T08:03:42Z</time></trkpt><trkpt lat="-26.641155175617282" lon="114.57659980984472"><ele>136.0</ele><time>2026-04-15T08:03:43Z</time></trkpt><trkpt lat="-26.641157218004604" lon="114.57629559081877"><ele>134.5</ele><time>2026-04-15T08:03:44Z</time></trkpt><trkpt lat="-26.641157038612583" lon="114.57599391706191"><ele>133.0</ele><time>2026-04-15T08:03:45Z</time></trkpt><trkpt lat="-26.64115621262083" lon="114.57568445019524"><ele>133.0</ele><time>2026-04-15T08:03:46Z</time></trkpt><trkpt lat="-26.641155079195986" lon="114.57537299012424"><ele>133.0</ele><time>2026-04-15T08:03:47Z</time></trkpt><trkpt lat="-26.641150287387116" lon="114.57506169671811"><ele>132.5</ele><time>2026-04-15T08:03:48Z</time></trkpt><trkpt lat="-26.64114003282427" lon="114.57475190196442"><ele>132.0</ele><time>2026-04-15T08:03:49Z</time></trkpt><trkpt lat="-26.641135508988526" lon="114.57443557504097"><ele>131.5</ele><time>2026-04-15T08:03:50Z</time></trkpt><trkpt lat="-26.64113317351364" lon="114.57412069555735"><ele>131.0</ele><time>2026-04-15T08:03:51Z</time></trkpt><trkpt lat="-26.64113051650196" lon="114.57380526272246"><ele>130.0</ele><time>2026-04-15T08:03:52Z</time></trkpt><trkpt lat="-26.641128940770876" lon="114.57348935506471"><ele>129.0</ele><time>2026-04-15T08:03:53Z</time></trkpt><trkpt lat="-26.641133216566523" lon="114.57317137681858"><ele>128.0</ele><time>2026-04-15T08:03:54Z</time></trkpt><trkpt lat="-26.641137893424826" lon="114.57284888020376"><ele>127.0</ele><time>2026-04-15T08:03:55Z</time></trkpt><trkpt lat="-26.641141840923925" lon="114.5725255741612"><ele>127.0</ele><time>2026-04-15T08:03:56Z</time></trkpt><trkpt lat="-26.641146401167255" lon="114.57219957759001"><ele>127.0</ele><time>2026-04-15T08:03:57Z</time></trkpt><trkpt lat="-26.641151054826555" lon="114.57187045176421"><ele>127.5</ele><time>2026-04-15T08:03:58Z</time></trkpt><trkpt lat="-26.641156536159635" lon="114.57154684679436"><ele>128.0</ele><time>2026-04-15T08:03:59Z</time></trkpt><trkpt lat="-26.64115726036458" lon="114.57122097867367"><ele>129.0</ele><time>2026-04-15T08:04:00Z</time></trkpt><trkpt lat="-26.64115524134387" lon="114.57089789220545"><ele>130.0</ele><time>2026-04-15T08:04:01Z</time></trkpt><trkpt lat="-26.641154746226942" lon="114.57057436691433"><ele>129.0</ele><time>2026-04-15T08:04:02Z</time></trkpt><trkpt lat="-26.64115659803889" lon="114.5702532610008"><ele>128.0</ele><time>2026-04-15T08:04:03Z</time></trkpt><trkpt lat="-26.6411596303621" lon="114.56992999184895"><ele>128.0</ele><time>2026-04-15T08:04:04Z</time></trkpt><trkpt lat="-26.641161760332928" lon="114.56960894702394"><ele>128.0</ele><time>2026-04-15T08:04:05Z</time></trkpt><trkpt lat="-26.64116094414303" lon="114.56929597461186"><ele>128.0</ele><time>2026-04-15T08:04:06Z</time></trkpt><trkpt lat="-26.64115994135377" lon="114.56897834419061"><ele>128.0</ele><time>2026-04-15T08:04:07Z</time></trkpt><trkpt lat="-26.64116203533688" lon="114.56866194457395"><ele>129.5</ele><time>2026-04-15T08:04:08Z</time></trkpt><trkpt lat="-26.64116445959008" lon="114.56834333659253"><ele>131.0</ele><time>2026-04-15T08:04:09Z</time></trkpt><trkpt lat="-26.641165623929922" lon="114.56802550670734"><ele>131.0</ele><time>2026-04-15T08:04:10Z</time></trkpt><trkpt lat="-26.641163631396513" lon="114.56771259160796"><ele>131.0</ele><time>2026-04-15T08:04:11Z</time></trkpt><trkpt lat="-26.64116024980205" lon="114.56740245904358"><ele>131.0</ele><time>2026-04-15T08:04:12Z</time></trkpt><trkpt lat="-26.641155680410066" lon="114.5670891515695"><ele>131.0</ele><time>2026-04-15T08:04:13Z</time></trkpt><trkpt lat="-26.64115252923531" lon="114.56678090880254"><ele>131.0</ele><time>2026-04-15T08:04:14Z</time></trkpt><trkpt lat="-26.641150279869546" lon="114.56646896907175"><ele>131.0</ele><time>2026-04-15T08:04:15Z</time></trkpt><trkpt lat="-26.64115211723446" lon="114.56615300123202"><ele>131.0</ele><time>2026-04-15T08:04:16Z</time></trkpt><trkpt lat="-26.641153832881017" lon="114.56583504863062"><ele>131.0</ele><time>2026-04-15T08:04:17Z</time></trkpt><trkpt lat="-26.641154688111705" lon="114.56551827255532"><ele>131.5</ele><time>2026-04-15T08:04:18Z</time></trkpt><trkpt lat="-26.641157059075308" lon="114.56519188401461"><ele>132.0</ele><time>2026-04-15T08:04:19Z</time></trkpt><trkpt lat="-26.641160710741328" lon="114.56486557550649"><ele>132.0</ele><time>2026-04-15T08:04:20Z</time></trkpt><trkpt lat="-26.641165247461124" lon="114.56453950621565"><ele>132.0</ele><time>2026-04-15T08:04:21Z</time></trkpt><trkpt lat="-26.64116563863737" lon="114.56420945542506"><ele>132.0</ele><time>2026-04-15T08:04:22Z</time></trkpt><trkpt lat="-26.64116365122118" lon="114.56388001368065"><ele>132.0</ele><time>2026-04-15T08:04:23Z</time></trkpt><trkpt lat="-26.64115989359458" lon="114.56355683098826"><ele>133.0</ele><time>2026-04-15T08:04:24Z</time></trkpt><trkpt lat="-26.641158190599803" lon="114.56323351978598"><ele>134.0</ele><time>2026-04-15T08:04:25Z</time></trkpt><trkpt lat="-26.641160346596227" lon="114.56290736995605"><ele>134.0</ele><time>2026-04-15T08:04:26Z</time></trkpt><trkpt lat="-26.641160940696896" lon="114.5625839567101"><ele>134.0</ele><time>2026-04-15T08:04:27Z</time></trkpt><trkpt lat="-26.64116036757302" lon="114.56225624574944"><ele>134.0</ele><time>2026-04-15T08:04:28Z</time></trkpt><trkpt lat="-26.6411629240399" lon="114.56192987777024"><ele>134.0</ele><time>2026-04-15T08:04:29Z</time></trkpt><trkpt lat="-26.641166209853175" lon="114.56160149321755"><ele>134.0</ele><time>2026-04-15T08:04:30Z</time></trkpt><trkpt lat="-26.641168010928745" lon="114.56127631806672"><ele>134.0</ele><time>2026-04-15T08:04:31Z</time></trkpt><trkpt lat="-26.641169800202164" lon="114.56095321939648"><ele>133.5</ele><time>2026-04-15T08:04:32Z</time></trkpt><trkpt lat="-26.641170452945364" lon="114.56062950501955"><ele>133.0</ele><time>2026-04-15T08:04:33Z</time></trkpt><trkpt lat="-26.64117442200058" lon="114.56030141387639"><ele>133.0</ele><time>2026-04-15T08:04:34Z</time></trkpt><trkpt lat="-26.64117332264681" lon="114.55997251013528"><ele>133.0</ele><time>2026-04-15T08:04:35Z</time></trkpt><trkpt lat="-26.64116992138202" lon="114.55964274717076"><ele>133.0</ele><time>2026-04-15T08:04:36Z</time></trkpt><trkpt lat="-26.641165163875357" lon="114.55931760884185"><ele>133.0</ele><time>2026-04-15T08:04:37Z</time></trkpt><trkpt lat="-26.641162075351183" lon="114.55899560075223"><ele>132.5</ele><time>2026-04-15T08:04:38Z</time></trkpt><trkpt lat="-26.641163017504255" lon="114.55868181329241"><ele>132.0</ele><time>2026-04-15T08:04:39Z</time></trkpt><trkpt lat="-26.64116325486866" lon="114.55838998228123"><ele>132.0</ele><time>2026-04-15T08:04:40Z</time></trkpt><trkpt lat="-26.641166562431227" lon="114.55810164764371"><ele>132.0</ele><time>2026-04-15T08:04:41Z</time></trkpt><trkpt lat="-26.641162319602234" lon="114.5578061032849"><ele>131.0</ele><time>2026-04-15T08:04:42Z</time></trkpt><trkpt lat="-26.64115925514556" lon="114.5575101913791"><ele>130.0</ele><time>2026-04-15T08:04:43Z</time></trkpt><trkpt lat="-26.64115906794786" lon="114.55721197154968"><ele>130.5</ele><time>2026-04-15T08:04:44Z</time></trkpt><trkpt lat="-26.641160769090668" lon="114.55691022244162"><ele>131.0</ele><time>2026-04-15T08:04:45Z</time></trkpt><trkpt lat="-26.641160810200567" lon="114.55661062085385"><ele>131.0</ele><time>2026-04-15T08:04:46Z</time></trkpt><trkpt lat="-26.64116240580691" lon="114.5563080988503"><ele>131.0</ele><time>2026-04-15T08:04:47Z</time></trkpt><trkpt lat="-26.641162094307038" lon="114.55600253717793"><ele>130.5</ele><time>2026-04-15T08:04:48Z</time></trkpt><trkpt lat="-26.641161454113504" lon="114.55569680924603"><ele>130.0</ele><time>2026-04-15T08:04:49Z</time></trkpt><trkpt lat="-26.641177173207947" lon="114.55538785753085"><ele>130.0</ele><time>2026-04-15T08:04:50Z</time></trkpt><trkpt lat="-26.641160766621855" lon="114.55508209825298"><ele>130.0</ele><time>2026-04-15T08:04:51Z</time></trkpt><trkpt lat="-26.641162664116955" lon="114.55477088136116"><ele>131.0</ele><time>2026-04-15T08:04:52Z</time></trkpt><trkpt lat="-26.641164957951126" lon="114.55447313694019"><ele>132.0</ele><time>2026-04-15T08:04:53Z</time></trkpt><trkpt lat="-26.641168009246808" lon="114.55415547991258"><ele>132.0</ele><time>2026-04-15T08:04:54Z</time></trkpt><trkpt lat="-26.64117007085831" lon="114.55383976343509"><ele>132.0</ele><time>2026-04-15T08:04:55Z</time></trkpt><trkpt lat="-26.641171031255308" lon="114.55353024358452"><ele>131.5</ele><time>2026-04-15T08:04:56Z</time></trkpt><trkpt lat="-26.641170564981408" lon="114.55322402636453"><ele>131.0</ele><time>2026-04-15T08:04:57Z</time></trkpt><trkpt lat="-26.64117345750393" lon="114.55292320903926"><ele>130.5</ele><time>2026-04-15T08:04:58Z</time></trkpt><trkpt lat="-26.641174144517546" lon="114.5526171988394"><ele>130.0</ele><time>2026-04-15T08:04:59Z</time></trkpt><trkpt lat="-26.641172298644957" lon="114.55230725975203"><ele>129.5</ele><time>2026-04-15T08:05:00Z</time></trkpt><trkpt lat="-26.641170651580445" lon="114.55199819951112"><ele>129.0</ele><time>2026-04-15T08:05:01Z</time></trkpt><trkpt lat="-26.641187884944653" lon="114.55170993219066"><ele>129.0</ele><time>2026-04-15T08:05:02Z</time></trkpt><trkpt lat="-26.6411885949708" lon="114.55143038442898"><ele>129.0</ele><time>2026-04-15T08:05:03Z</time></trkpt><trkpt lat="-26.6411883020516" lon="114.55115862819821"><ele>129.5</ele><time>2026-04-15T08:05:04Z</time></trkpt><trkpt lat="-26.641188022153464" lon="114.55089895259673"><ele>130.0</ele><time>2026-04-15T08:05:05Z</time></trkpt><trkpt lat="-26.641187755230114" lon="114.55065131424558"><ele>130.0</ele><time>2026-04-15T08:05:06Z</time></trkpt><trkpt lat="-26.64118751541043" lon="114.55042882154858"><ele>130.0</ele><time>2026-04-15T08:05:07Z</time></trkpt><trkpt lat="-26.64118749672763" lon="114.55022599031496"><ele>130.0</ele><time>2026-04-15T08:05:08Z</time></trkpt><trkpt lat="-26.641188454161444" lon="114.55004203457726"><ele>130.0</ele><time>2026-04-15T08:05:09Z</time></trkpt><trkpt lat="-26.641189473094613" lon="114.54987853223106"><ele>130.0</ele><time>2026-04-15T08:05:10Z</time></trkpt><trkpt lat="-26.641190280152866" lon="114.54972958625207"><ele>130.0</ele><time>2026-04-15T08:05:11Z</time></trkpt><trkpt lat="-26.641191243152292" lon="114.54960327271618"><ele>130.0</ele><time>2026-04-15T08:05:12Z</time></trkpt><trkpt lat="-26.641192099545655" lon="114.54949094246649"><ele>130.0</ele><time>2026-04-15T08:05:13Z</time></trkpt><trkpt lat="-26.6411928100605" lon="114.54939774659174"><ele>130.0</ele><time>2026-04-15T08:05:14Z</time></trkpt><trkpt lat="-26.64119374659766" lon="114.54928286265444"><ele>130.0</ele><time>2026-04-15T08:05:16Z</time></trkpt><trkpt lat="-26.641194605188506" lon="114.54919750433491"><ele>130.0</ele><time>2026-04-15T08:06:08Z</time></trkpt><trkpt lat="-26.64106306596692" lon="114.54912466044847"><ele>130.0</ele><time>2026-04-15T08:06:09Z</time></trkpt><trkpt lat="-26.640994490503093" lon="114.54909957349516"><ele>130.0</ele><time>2026-04-15T08:06:10Z</time></trkpt><trkpt lat="-26.640901579159824" lon="114.54905819165872"><ele>130.0</ele><time>2026-04-15T08:06:11Z</time></trkpt><trkpt lat="-26.64078665641824" lon="114.54901715333537"><ele>130.0</ele><time>2026-04-15T08:06:12Z</time></trkpt><trkpt lat="-26.640666190936116" lon="114.54897741686942"><ele>130.0</ele><time>2026-04-15T08:06:13Z</time></trkpt><trkpt lat="-26.64051925647909" lon="114.54892544386047"><ele>130.0</ele><time>2026-04-15T08:06:14Z</time></trkpt><trkpt lat="-26.640353491805875" lon="114.548862241868"><ele>130.0</ele><time>2026-04-15T08:06:15Z</time></trkpt><trkpt lat="-26.640178456496972" lon="114.54879135360504"><ele>130.0</ele><time>2026-04-15T08:06:16Z</time></trkpt><trkpt lat="-26.639979842728376" lon="114.54871151782594"><ele>130.0</ele><time>2026-04-15T08:06:17Z</time></trkpt><trkpt lat="-26.63978102206149" lon="114.54863682614872"><ele>130.0</ele><time>2026-04-15T08:06:18Z</time></trkpt><trkpt lat="-26.639571201149035" lon="114.54856157529264"><ele>130.0</ele><time>2026-04-15T08:06:19Z</time></trkpt><trkpt lat="-26.63934519081278" lon="114.5484822507232"><ele>130.0</ele><time>2026-04-15T08:06:20Z</time></trkpt><trkpt lat="-26.63910633386192" lon="114.54839917297915"><ele>130.0</ele><time>2026-04-15T08:06:21Z</time></trkpt><trkpt lat="-26.638872069824703" lon="114.54831340696585"><ele>130.0</ele><time>2026-04-15T08:06:22Z</time></trkpt><trkpt lat="-26.638631895476063" lon="114.54822113949683"><ele>130.0</ele><time>2026-04-15T08:06:23Z</time></trkpt><trkpt lat="-26.63837744113604" lon="114.54812328098677"><ele>130.0</ele><time>2026-04-15T08:06:24Z</time></trkpt><trkpt lat="-26.63811432180497" lon="114.54802437490292"><ele>130.0</ele><time>2026-04-15T08:06:25Z</time></trkpt><trkpt lat="-26.637842430079402" lon="114.54792139801853"><ele>130.0</ele><time>2026-04-15T08:06:26Z</time></trkpt><trkpt lat="-26.637588596685504" lon="114.54782616159923"><ele>130.0</ele><time>2026-04-15T08:06:27Z</time></trkpt><trkpt lat="-26.637337119405295" lon="114.54773188753067"><ele>130.0</ele><time>2026-04-15T08:06:28Z</time></trkpt><trkpt lat="-26.637084727961938" lon="114.5476375193755"><ele>130.0</ele><time>2026-04-15T08:06:29Z</time></trkpt><trkpt lat="-26.636828964554176" lon="114.54754061197234"><ele>129.0</ele><time>2026-04-15T08:06:30Z</time></trkpt><trkpt lat="-26.63657178610838" lon="114.54744250542107"><ele>128.0</ele><time>2026-04-15T08:06:31Z</time></trkpt><trkpt lat="-26.636310645096458" lon="114.54734253720284"><ele>127.0</ele><time>2026-04-15T08:06:32Z</time></trkpt><trkpt lat="-26.636048247524926" lon="114.54724360801048"><ele>126.0</ele><time>2026-04-15T08:06:33Z</time></trkpt><trkpt lat="-26.635785639105794" lon="114.54714712204706"><ele>126.0</ele><time>2026-04-15T08:06:34Z</time></trkpt><trkpt lat="-26.635522329416254" lon="114.54705014798753"><ele>126.0</ele><time>2026-04-15T08:06:35Z</time></trkpt><trkpt lat="-26.635257778169187" lon="114.54695400213882"><ele>126.5</ele><time>2026-04-15T08:06:36Z</time></trkpt><trkpt lat="-26.634990445679335" lon="114.54685498010097"><ele>127.0</ele><time>2026-04-15T08:06:37Z</time></trkpt><trkpt lat="-26.634715785613807" lon="114.54675218554593"><ele>126.0</ele><time>2026-04-15T08:06:38Z</time></trkpt><trkpt lat="-26.63444307802164" lon="114.54665109834124"><ele>125.0</ele><time>2026-04-15T08:06:39Z</time></trkpt><trkpt lat="-26.6341716475366" lon="114.5465530743436"><ele>125.0</ele><time>2026-04-15T08:06:40Z</time></trkpt><trkpt lat="-26.633897508208175" lon="114.54645398711622"><ele>125.0</ele><time>2026-04-15T08:06:41Z</time></trkpt><trkpt lat="-26.633625105215746" lon="114.54634908978456"><ele>125.5</ele><time>2026-04-15T08:06:42Z</time></trkpt><trkpt lat="-26.633353474751345" lon="114.54624353080824"><ele>126.0</ele><time>2026-04-15T08:06:43Z</time></trkpt><trkpt lat="-26.63308227259078" lon="114.54613877039365"><ele>126.0</ele><time>2026-04-15T08:06:44Z</time></trkpt><trkpt lat="-26.632809898417822" lon="114.54603320405162"><ele>126.0</ele><time>2026-04-15T08:06:45Z</time></trkpt><trkpt lat="-26.632538567575324" lon="114.5459297977806"><ele>126.0</ele><time>2026-04-15T08:06:46Z</time></trkpt><trkpt lat="-26.632269854729078" lon="114.54582540736654"><ele>126.0</ele><time>2026-04-15T08:06:47Z</time></trkpt><trkpt lat="-26.632000786483825" lon="114.54572220290613"><ele>125.5</ele><time>2026-04-15T08:06:48Z</time></trkpt><trkpt lat="-26.63173231411405" lon="114.54562370838856"><ele>125.0</ele><time>2026-04-15T08:06:49Z</time></trkpt><trkpt lat="-26.631466506741987" lon="114.54552753901612"><ele>125.0</ele><time>2026-04-15T08:06:50Z</time></trkpt><trkpt lat="-26.631198783525477" lon="114.54543118583729"><ele>125.0</ele><time>2026-04-15T08:06:51Z</time></trkpt><trkpt lat="-26.630934361463037" lon="114.54533414040253"><ele>125.0</ele><time>2026-04-15T08:06:52Z</time></trkpt><trkpt lat="-26.630669623211777" lon="114.54523348752774"><ele>125.0</ele><time>2026-04-15T08:06:53Z</time></trkpt><trkpt lat="-26.630405723665476" lon="114.54513501686459"><ele>124.0</ele><time>2026-04-15T08:06:54Z</time></trkpt><trkpt lat="-26.63013649573871" lon="114.5450364197608"><ele>123.0</ele><time>2026-04-15T08:06:55Z</time></trkpt><trkpt lat="-26.62986552109596" lon="114.54493452977317"><ele>123.0</ele><time>2026-04-15T08:06:56Z</time></trkpt><trkpt lat="-26.62959169213573" lon="114.54483107178724"><ele>123.0</ele><time>2026-04-15T08:06:57Z</time></trkpt><trkpt lat="-26.62931325722165" lon="114.54472693652522"><ele>122.0</ele><time>2026-04-15T08:06:58Z</time></trkpt><trkpt lat="-26.629034546369024" lon="114.54462205303147"><ele>121.0</ele><time>2026-04-15T08:06:59Z</time></trkpt><trkpt lat="-26.62875633530706" lon="114.54451849857381"><ele>121.0</ele><time>2026-04-15T08:07:00Z</time></trkpt><trkpt lat="-26.628476183813593" lon="114.54441194979995"><ele>121.0</ele><time>2026-04-15T08:07:01Z</time></trkpt><trkpt lat="-26.628197666547504" lon="114.54431026230434"><ele>121.0</ele><time>2026-04-15T08:07:02Z</time></trkpt><trkpt lat="-26.627916510544846" lon="114.54420977307282"><ele>121.0</ele><time>2026-04-15T08:07:03Z</time></trkpt><trkpt lat="-26.62763735798284" lon="114.54410842487728"><ele>121.0</ele><time>2026-04-15T08:07:04Z</time></trkpt><trkpt lat="-26.62735696891413" lon="114.54400482100093"><ele>121.0</ele><time>2026-04-15T08:07:05Z</time></trkpt><trkpt lat="-26.627076547052948" lon="114.54389795394066"><ele>121.0</ele><time>2026-04-15T08:07:06Z</time></trkpt><trkpt lat="-26.626794430389747" lon="114.543789279516"><ele>121.0</ele><time>2026-04-15T08:07:07Z</time></trkpt><trkpt lat="-26.62651233518889" lon="114.54368176413529"><ele>121.0</ele><time>2026-04-15T08:07:08Z</time></trkpt><trkpt lat="-26.626226615058602" lon="114.54357160537288"><ele>121.0</ele><time>2026-04-15T08:07:09Z</time></trkpt><trkpt lat="-26.62594103350183" lon="114.54346690649272"><ele>121.0</ele><time>2026-04-15T08:07:10Z</time></trkpt><trkpt lat="-26.62565547096438" lon="114.54336147991853"><ele>121.0</ele><time>2026-04-15T08:07:11Z</time></trkpt><trkpt lat="-26.62536905247737" lon="114.54325611121598"><ele>120.0</ele><time>2026-04-15T08:07:12Z</time></trkpt><trkpt lat="-26.62508569180047" lon="114.5431521575287"><ele>119.0</ele><time>2026-04-15T08:07:13Z</time></trkpt><trkpt lat="-26.624799662599127" lon="114.54304479536667"><ele>119.0</ele><time>2026-04-15T08:07:14Z</time></trkpt><trkpt lat="-26.624514202332875" lon="114.54293643277647"><ele>119.0</ele><time>2026-04-15T08:07:15Z</time></trkpt><trkpt lat="-26.624229546462022" lon="114.54282671576003"><ele>118.5</ele><time>2026-04-15T08:07:16Z</time></trkpt><trkpt lat="-26.6239460698274" lon="114.54271766210827"><ele>118.0</ele><time>2026-04-15T08:07:17Z</time></trkpt><trkpt lat="-26.62366312906293" lon="114.54261309521696"><ele>117.5</ele><time>2026-04-15T08:07:18Z</time></trkpt><trkpt lat="-26.623376062571094" lon="114.54250699581407"><ele>117.0</ele><time>2026-04-15T08:07:19Z</time></trkpt><trkpt lat="-26.62309134067495" lon="114.54240082239833"><ele>118.0</ele><time>2026-04-15T08:07:20Z</time></trkpt><trkpt lat="-26.62280345101312" lon="114.54229297662394"><ele>119.0</ele><time>2026-04-15T08:07:21Z</time></trkpt><trkpt lat="-26.622514621164868" lon="114.54218982645176"><ele>119.0</ele><time>2026-04-15T08:07:22Z</time></trkpt><trkpt lat="-26.62222989977346" lon="114.54208629959311"><ele>119.0</ele><time>2026-04-15T08:07:23Z</time></trkpt><trkpt lat="-26.621949232912282" lon="114.54197930551469"><ele>117.5</ele><time>2026-04-15T08:07:24Z</time></trkpt><trkpt lat="-26.621668158416416" lon="114.54187267360611"><ele>116.0</ele><time>2026-04-15T08:07:25Z</time></trkpt><trkpt lat="-26.621388610909737" lon="114.54176563299139"><ele>116.0</ele><time>2026-04-15T08:07:26Z</time></trkpt><trkpt lat="-26.62110880786662" lon="114.54165998286516"><ele>116.0</ele><time>2026-04-15T08:07:27Z</time></trkpt><trkpt lat="-26.62082783395345" lon="114.54155269090396"><ele>116.0</ele><time>2026-04-15T08:07:28Z</time></trkpt><trkpt lat="-26.620545304837027" lon="114.54144750936564"><ele>116.0</ele><time>2026-04-15T08:07:29Z</time></trkpt><trkpt lat="-26.620260459508927" lon="114.5413401944482"><ele>116.0</ele><time>2026-04-15T08:07:30Z</time></trkpt><trkpt lat="-26.619974383182477" lon="114.5412324562077"><ele>116.0</ele><time>2026-04-15T08:07:31Z</time></trkpt><trkpt lat="-26.619691431839104" lon="114.54112837413362"><ele>115.0</ele><time>2026-04-15T08:07:32Z</time></trkpt><trkpt lat="-26.619411069709383" lon="114.54102146113983"><ele>114.0</ele><time>2026-04-15T08:07:33Z</time></trkpt><trkpt lat="-26.61913297159413" lon="114.5409169373422"><ele>114.0</ele><time>2026-04-15T08:07:34Z</time></trkpt><trkpt lat="-26.618858237209057" lon="114.54081607097218"><ele>114.0</ele><time>2026-04-15T08:07:35Z</time></trkpt><trkpt lat="-26.61858415595058" lon="114.54071635620609"><ele>114.0</ele><time>2026-04-15T08:07:36Z</time></trkpt><trkpt lat="-26.618313268821954" lon="114.54061717961392"><ele>114.0</ele><time>2026-04-15T08:07:37Z</time></trkpt><trkpt lat="-26.618040911942067" lon="114.54051691461338"><ele>113.5</ele><time>2026-04-15T08:07:38Z</time></trkpt><trkpt lat="-26.617768631392646" lon="114.54041984386801"><ele>113.0</ele><time>2026-04-15T08:07:39Z</time></trkpt><trkpt lat="-26.61749974317675" lon="114.54032210663763"><ele>113.0</ele><time>2026-04-15T08:07:40Z</time></trkpt><trkpt lat="-26.617230637337205" lon="114.54021950115647"><ele>113.0</ele><time>2026-04-15T08:07:41Z</time></trkpt><trkpt lat="-26.616965652685526" lon="114.5401162278573"><ele>114.0</ele><time>2026-04-15T08:07:42Z</time></trkpt><trkpt lat="-26.61669647974746" lon="114.54001276416476"><ele>115.0</ele><time>2026-04-15T08:07:43Z</time></trkpt><trkpt lat="-26.616427941331764" lon="114.53991127457273"><ele>115.0</ele><time>2026-04-15T08:07:44Z</time></trkpt><trkpt lat="-26.61616463019219" lon="114.5398102877104"><ele>115.0</ele><time>2026-04-15T08:07:45Z</time></trkpt><trkpt lat="-26.61563452280332" lon="114.53960664187788"><ele>114.0</ele><time>2026-04-15T08:07:47Z</time></trkpt><trkpt lat="-26.615366295435347" lon="114.5395046376574"><ele>113.0</ele><time>2026-04-15T08:07:48Z</time></trkpt><trkpt lat="-26.61510395947335" lon="114.53940587309259"><ele>112.5</ele><time>2026-04-15T08:07:49Z</time></trkpt><trkpt lat="-26.61483650299549" lon="114.539304105294"><ele>112.0</ele><time>2026-04-15T08:07:50Z</time></trkpt><trkpt lat="-26.614572437667846" lon="114.53920508452525"><ele>112.0</ele><time>2026-04-15T08:07:51Z</time></trkpt><trkpt lat="-26.614305838959922" lon="114.53910745224961"><ele>112.0</ele><time>2026-04-15T08:07:52Z</time></trkpt><trkpt lat="-26.614034434083607" lon="114.53900944430401"><ele>112.0</ele><time>2026-04-15T08:07:53Z</time></trkpt><trkpt lat="-26.613761073342808" lon="114.53890952302005"><ele>112.0</ele><time>2026-04-15T08:07:54Z</time></trkpt><trkpt lat="-26.613487567879748" lon="114.5388096604363"><ele>111.0</ele><time>2026-04-15T08:07:55Z</time></trkpt><trkpt lat="-26.61321237639346" lon="114.53870874681783"><ele>110.0</ele><time>2026-04-15T08:07:56Z</time></trkpt><trkpt lat="-26.61294072261888" lon="114.53860736604281"><ele>111.5</ele><time>2026-04-15T08:07:57Z</time></trkpt><trkpt lat="-26.612667348222953" lon="114.53850208831071"><ele>113.0</ele><time>2026-04-15T08:07:58Z</time></trkpt><trkpt lat="-26.61239156036644" lon="114.53839611255236"><ele>113.0</ele><time>2026-04-15T08:07:59Z</time></trkpt><trkpt lat="-26.612113959229024" lon="114.53829144088175"><ele>113.0</ele><time>2026-04-15T08:08:00Z</time></trkpt><trkpt lat="-26.611834130607303" lon="114.53818935263823"><ele>112.0</ele><time>2026-04-15T08:08:01Z</time></trkpt><trkpt lat="-26.611556332320585" lon="114.5380888503642"><ele>111.0</ele><time>2026-04-15T08:08:02Z</time></trkpt><trkpt lat="-26.611275107309396" lon="114.53798353492635"><ele>111.0</ele><time>2026-04-15T08:08:03Z</time></trkpt><trkpt lat="-26.610996374558653" lon="114.53787637139762"><ele>111.0</ele><time>2026-04-15T08:08:04Z</time></trkpt><trkpt lat="-26.610718183063664" lon="114.53776772226811"><ele>111.0</ele><time>2026-04-15T08:08:05Z</time></trkpt><trkpt lat="-26.61044268386714" lon="114.53765936077866"><ele>111.0</ele><time>2026-04-15T08:08:06Z</time></trkpt><trkpt lat="-26.610161990974408" lon="114.53755256607961"><ele>111.0</ele><time>2026-04-15T08:08:07Z</time></trkpt><trkpt lat="-26.609877715599275" lon="114.53744891949796"><ele>111.0</ele><time>2026-04-15T08:08:08Z</time></trkpt><trkpt lat="-26.609588304192446" lon="114.53734420453596"><ele>111.5</ele><time>2026-04-15T08:08:09Z</time></trkpt><trkpt lat="-26.609298595634048" lon="114.53723934434973"><ele>112.0</ele><time>2026-04-15T08:08:10Z</time></trkpt><trkpt lat="-26.609013564140607" lon="114.53713638580835"><ele>112.0</ele><time>2026-04-15T08:08:11Z</time></trkpt><trkpt lat="-26.60872648268227" lon="114.53703197936731"><ele>112.0</ele><time>2026-04-15T08:08:12Z</time></trkpt><trkpt lat="-26.608441246126485" lon="114.53692668581203"><ele>112.0</ele><time>2026-04-15T08:08:13Z</time></trkpt><trkpt lat="-26.60815484279287" lon="114.53681524631304"><ele>112.0</ele><time>2026-04-15T08:08:14Z</time></trkpt><trkpt lat="-26.60787273109298" lon="114.53670515018058"><ele>111.5</ele><time>2026-04-15T08:08:15Z</time></trkpt><trkpt lat="-26.607591384239523" lon="114.53659755260443"><ele>111.0</ele><time>2026-04-15T08:08:16Z</time></trkpt><trkpt lat="-26.607308871842914" lon="114.53649035703542"><ele>111.0</ele><time>2026-04-15T08:08:17Z</time></trkpt><trkpt lat="-26.607024593646038" lon="114.53638296203879"><ele>111.0</ele><time>2026-04-15T08:08:18Z</time></trkpt><trkpt lat="-26.606741122909757" lon="114.53628063912193"><ele>111.0</ele><time>2026-04-15T08:08:19Z</time></trkpt><trkpt lat="-26.606459679674323" lon="114.53618012563102"><ele>111.0</ele><time>2026-04-15T08:08:20Z</time></trkpt><trkpt lat="-26.60617776885221" lon="114.53607733622411"><ele>111.5</ele><time>2026-04-15T08:08:21Z</time></trkpt><trkpt lat="-26.605900786790173" lon="114.53597303653682"><ele>112.0</ele><time>2026-04-15T08:08:22Z</time></trkpt><trkpt lat="-26.60562390580486" lon="114.53587023233744"><ele>112.0</ele><time>2026-04-15T08:08:23Z</time></trkpt><trkpt lat="-26.60534163048205" lon="114.53576754208169"><ele>112.0</ele><time>2026-04-15T08:08:24Z</time></trkpt><trkpt lat="-26.605060255247796" lon="114.53566225079092"><ele>111.5</ele><time>2026-04-15T08:08:25Z</time></trkpt><trkpt lat="-26.60477979959312" lon="114.53555431536773"><ele>111.0</ele><time>2026-04-15T08:08:26Z</time></trkpt><trkpt lat="-26.60449526228065" lon="114.53544472588474"><ele>110.5</ele><time>2026-04-15T08:08:27Z</time></trkpt><trkpt lat="-26.604211968458834" lon="114.53533591145455"><ele>110.0</ele><time>2026-04-15T08:08:28Z</time></trkpt><trkpt lat="-26.60392932857367" lon="114.53522821158995"><ele>109.5</ele><time>2026-04-15T08:08:29Z</time></trkpt><trkpt lat="-26.60364573895692" lon="114.53512125247316"><ele>109.0</ele><time>2026-04-15T08:08:30Z</time></trkpt><trkpt lat="-26.603362139289494" lon="114.53501285141965"><ele>109.0</ele><time>2026-04-15T08:08:31Z</time></trkpt><trkpt lat="-26.6030771541964" lon="114.53490576639805"><ele>109.0</ele><time>2026-04-15T08:08:32Z</time></trkpt><trkpt lat="-26.602787089058776" lon="114.53479890007436"><ele>108.5</ele><time>2026-04-15T08:08:33Z</time></trkpt><trkpt lat="-26.60249799619323" lon="114.53469261620288"><ele>108.0</ele><time>2026-04-15T08:08:34Z</time></trkpt><trkpt lat="-26.6022071139205" lon="114.5345880694117"><ele>109.0</ele><time>2026-04-15T08:08:35Z</time></trkpt><trkpt lat="-26.601918296183644" lon="114.53448198060578"><ele>110.0</ele><time>2026-04-15T08:08:36Z</time></trkpt><trkpt lat="-26.601630489253235" lon="114.53437599004485"><ele>110.0</ele><time>2026-04-15T08:08:37Z</time></trkpt><trkpt lat="-26.60134384084695" lon="114.53426973922969"><ele>110.0</ele><time>2026-04-15T08:08:38Z</time></trkpt><trkpt lat="-26.601054277593544" lon="114.53416145484941"><ele>109.5</ele><time>2026-04-15T08:08:39Z</time></trkpt><trkpt lat="-26.600769475080515" lon="114.53405334163261"><ele>109.0</ele><time>2026-04-15T08:08:40Z</time></trkpt><trkpt lat="-26.6004847369118" lon="114.53394409578816"><ele>109.0</ele><time>2026-04-15T08:08:41Z</time></trkpt><trkpt lat="-26.600197107698648" lon="114.53383416216053"><ele>109.0</ele><time>2026-04-15T08:08:42Z</time></trkpt><trkpt lat="-26.5999105959858" lon="114.53372593335538"><ele>108.5</ele><time>2026-04-15T08:08:43Z</time></trkpt><trkpt lat="-26.59962914741641" lon="114.53361983931795"><ele>108.0</ele><time>2026-04-15T08:08:44Z</time></trkpt><trkpt lat="-26.599349465392844" lon="114.53351573687905"><ele>107.5</ele><time>2026-04-15T08:08:45Z</time></trkpt><trkpt lat="-26.599087689938454" lon="114.53341619470777"><ele>107.0</ele><time>2026-04-15T08:08:46Z</time></trkpt><trkpt lat="-26.598842337241273" lon="114.53332222033816"><ele>107.0</ele><time>2026-04-15T08:08:47Z</time></trkpt><trkpt lat="-26.598589835175382" lon="114.53322996406949"><ele>107.0</ele><time>2026-04-15T08:08:48Z</time></trkpt><trkpt lat="-26.59832777432004" lon="114.53313294544499"><ele>107.0</ele><time>2026-04-15T08:08:49Z</time></trkpt><trkpt lat="-26.598059716191877" lon="114.53303405223882"><ele>107.0</ele><time>2026-04-15T08:08:50Z</time></trkpt><trkpt lat="-26.597786241108032" lon="114.53293246706934"><ele>106.5</ele><time>2026-04-15T08:08:51Z</time></trkpt><trkpt lat="-26.597513014010165" lon="114.53282884324005"><ele>106.0</ele><time>2026-04-15T08:08:52Z</time></trkpt><trkpt lat="-26.597236763936994" lon="114.53272680761752"><ele>107.0</ele><time>2026-04-15T08:08:53Z</time></trkpt><trkpt lat="-26.59695746197548" lon="114.53262302792547"><ele>108.0</ele><time>2026-04-15T08:08:54Z</time></trkpt><trkpt lat="-26.596675751517942" lon="114.53251657544527"><ele>108.0</ele><time>2026-04-15T08:08:55Z</time></trkpt><trkpt lat="-26.596397257103934" lon="114.53241131773764"><ele>108.0</ele><time>2026-04-15T08:08:56Z</time></trkpt><trkpt lat="-26.596120838500717" lon="114.5323078755365"><ele>109.0</ele><time>2026-04-15T08:08:57Z</time></trkpt><trkpt lat="-26.595841989022343" lon="114.53220544630302"><ele>110.0</ele><time>2026-04-15T08:08:58Z</time></trkpt><trkpt lat="-26.5955626782713" lon="114.53210270589774"><ele>109.5</ele><time>2026-04-15T08:08:59Z</time></trkpt><trkpt lat="-26.59528869002174" lon="114.53199968240318"><ele>109.0</ele><time>2026-04-15T08:09:00Z</time></trkpt><trkpt lat="-26.595014257383045" lon="114.53189324387563"><ele>109.0</ele><time>2026-04-15T08:09:01Z</time></trkpt><trkpt lat="-26.59473999932457" lon="114.53178739464659"><ele>109.0</ele><time>2026-04-15T08:09:02Z</time></trkpt><trkpt lat="-26.59446679324777" lon="114.53168434102959"><ele>109.0</ele><time>2026-04-15T08:09:03Z</time></trkpt><trkpt lat="-26.594202675286724" lon="114.53158754224488"><ele>109.0</ele><time>2026-04-15T08:09:04Z</time></trkpt><trkpt lat="-26.593959331109502" lon="114.53149472169962"><ele>109.0</ele><time>2026-04-15T08:09:05Z</time></trkpt><trkpt lat="-26.593735670049227" lon="114.53141335086455"><ele>109.0</ele><time>2026-04-15T08:09:06Z</time></trkpt><trkpt lat="-26.59351771599151" lon="114.53133550176243"><ele>109.5</ele><time>2026-04-15T08:09:07Z</time></trkpt><trkpt lat="-26.593292000514932" lon="114.53125555898653"><ele>110.0</ele><time>2026-04-15T08:09:08Z</time></trkpt><trkpt lat="-26.59305208935654" lon="114.53117042594344"><ele>109.0</ele><time>2026-04-15T08:09:09Z</time></trkpt><trkpt lat="-26.592807301758334" lon="114.53108506717491"><ele>108.0</ele><time>2026-04-15T08:09:10Z</time></trkpt><trkpt lat="-26.592551334387284" lon="114.53098786721361"><ele>108.0</ele><time>2026-04-15T08:09:11Z</time></trkpt><trkpt lat="-26.592289671062886" lon="114.53088549832769"><ele>108.0</ele><time>2026-04-15T08:09:12Z</time></trkpt><trkpt lat="-26.592026277020835" lon="114.53078339054233"><ele>107.0</ele><time>2026-04-15T08:09:13Z</time></trkpt><trkpt lat="-26.591759192498483" lon="114.530681694192"><ele>106.0</ele><time>2026-04-15T08:09:14Z</time></trkpt><trkpt lat="-26.591492542061893" lon="114.53057772522736"><ele>106.0</ele><time>2026-04-15T08:09:15Z</time></trkpt><trkpt lat="-26.591227243233895" lon="114.5304767743367"><ele>106.0</ele><time>2026-04-15T08:09:16Z</time></trkpt><trkpt lat="-26.59095908004096" lon="114.53037956963776"><ele>105.0</ele><time>2026-04-15T08:09:17Z</time></trkpt><trkpt lat="-26.590683458576116" lon="114.53028220805474"><ele>104.0</ele><time>2026-04-15T08:09:18Z</time></trkpt><trkpt lat="-26.590410525914393" lon="114.53018436666535"><ele>105.5</ele><time>2026-04-15T08:09:19Z</time></trkpt><trkpt lat="-26.59013619643891" lon="114.53008086563379"><ele>107.0</ele><time>2026-04-15T08:09:20Z</time></trkpt><trkpt lat="-26.58986407199609" lon="114.52997745554359"><ele>107.0</ele><time>2026-04-15T08:09:21Z</time></trkpt><trkpt lat="-26.58958713847487" lon="114.52987231944404"><ele>107.0</ele><time>2026-04-15T08:09:22Z</time></trkpt><trkpt lat="-26.58931287071937" lon="114.52977053328149"><ele>106.5</ele><time>2026-04-15T08:09:23Z</time></trkpt><trkpt lat="-26.589033114344947" lon="114.52966439390696"><ele>106.0</ele><time>2026-04-15T08:09:24Z</time></trkpt><trkpt lat="-26.588750364016462" lon="114.52955719163221"><ele>105.5</ele><time>2026-04-15T08:09:25Z</time></trkpt><trkpt lat="-26.588472572261196" lon="114.52944800608066"><ele>105.0</ele><time>2026-04-15T08:09:26Z</time></trkpt><trkpt lat="-26.58819715375873" lon="114.52933974488384"><ele>105.0</ele><time>2026-04-15T08:09:27Z</time></trkpt><trkpt lat="-26.5879227970408" lon="114.52923672817695"><ele>105.0</ele><time>2026-04-15T08:09:28Z</time></trkpt><trkpt lat="-26.58764823053414" lon="114.52914034334243"><ele>105.0</ele><time>2026-04-15T08:09:29Z</time></trkpt><trkpt lat="-26.587375374250488" lon="114.52904308097484"><ele>105.0</ele><time>2026-04-15T08:09:30Z</time></trkpt><trkpt lat="-26.587104575513845" lon="114.52894168427828"><ele>104.5</ele><time>2026-04-15T08:09:31Z</time></trkpt><trkpt lat="-26.58683461336858" lon="114.52883892577948"><ele>104.0</ele><time>2026-04-15T08:09:32Z</time></trkpt><trkpt lat="-26.58656473888384" lon="114.52873436144463"><ele>104.0</ele><time>2026-04-15T08:09:33Z</time></trkpt><trkpt lat="-26.586292580375236" lon="114.52863162761469"><ele>104.0</ele><time>2026-04-15T08:09:34Z</time></trkpt><trkpt lat="-26.586019205360206" lon="114.52852777475495"><ele>103.5</ele><time>2026-04-15T08:09:35Z</time></trkpt><trkpt lat="-26.58574110098119" lon="114.52842530682581"><ele>103.0</ele><time>2026-04-15T08:09:36Z</time></trkpt><trkpt lat="-26.58545927845322" lon="114.52832390883289"><ele>102.5</ele><time>2026-04-15T08:09:37Z</time></trkpt><trkpt lat="-26.585178287244382" lon="114.52822138438195"><ele>102.0</ele><time>2026-04-15T08:09:38Z</time></trkpt><trkpt lat="-26.584895009344454" lon="114.52811573423631"><ele>102.0</ele><time>2026-04-15T08:09:39Z</time></trkpt><trkpt lat="-26.584616715025906" lon="114.52800970539616"><ele>102.0</ele><time>2026-04-15T08:09:40Z</time></trkpt><trkpt lat="-26.58433555617684" lon="114.52790264376182"><ele>129.0</ele><time>2026-04-15T08:09:41Z</time></trkpt><trkpt lat="-26.641194605188506" lon="114.54919750433491"><ele>129.2</ele><time>2026-04-15T08:06:08Z</time></trkpt><trkpt lat="-26.64106306596692" lon="114.54912466044847"><ele>129.4</ele><time>2026-04-15T08:06:09Z</time></trkpt><trkpt lat="-26.640994490503093" lon="114.54909957349516"><ele>129.6</ele><time>2026-04-15T08:06:10Z</time></trkpt><trkpt lat="-26.640901579159824" lon="114.54905819165872"><ele>129.8</ele><time>2026-04-15T08:06:11Z</time></trkpt><trkpt lat="-26.64078665641824" lon="114.54901715333537"><ele>130.0</ele><time>2026-04-15T08:06:12Z</time></trkpt><trkpt lat="-26.640666190936116" lon="114.54897741686942"><ele>130.0</ele><time>2026-04-15T08:06:13Z</time></trkpt><trkpt lat="-26.64051925647909" lon="114.54892544386047"><ele>130.0</ele><time>2026-04-15T08:06:14Z</time></trkpt><trkpt lat="-26.640353491805875" lon="114.548862241868"><ele>130.0</ele><time>2026-04-15T08:06:15Z</time></trkpt><trkpt lat="-26.640178456496972" lon="114.54879135360504"><ele>130.0</ele><time>2026-04-15T08:06:16Z</time></trkpt><trkpt lat="-26.639979842728376" lon="114.54871151782594"><ele>130.0</ele><time>2026-04-15T08:06:17Z</time></trkpt><trkpt lat="-26.63978102206149" lon="114.54863682614872"><ele>130.0</ele><time>2026-04-15T08:06:18Z</time></trkpt><trkpt lat="-26.639571201149035" lon="114.54856157529264"><ele>130.0</ele><time>2026-04-15T08:06:19Z</time></trkpt><trkpt lat="-26.63934519081278" lon="114.5484822507232"><ele>130.0</ele><time>2026-04-15T08:06:20Z</time></trkpt><trkpt lat="-26.63910633386192" lon="114.54839917297915"><ele>130.0</ele><time>2026-04-15T08:06:21Z</time></trkpt><trkpt lat="-26.638872069824703" lon="114.54831340696585"><ele>130.0</ele><time>2026-04-15T08:06:22Z</time></trkpt><trkpt lat="-26.638631895476063" lon="114.54822113949683"><ele>130.0</ele><time>2026-04-15T08:06:23Z</time></trkpt><trkpt lat="-26.63837744113604" lon="114.54812328098677"><ele>130.0</ele><time>2026-04-15T08:06:24Z</time></trkpt><trkpt lat="-26.63811432180497" lon="114.54802437490292"><ele>130.0</ele><time>2026-04-15T08:06:25Z</time></trkpt><trkpt lat="-26.637842430079402" lon="114.54792139801853"><ele>130.0</ele><time>2026-04-15T08:06:26Z</time></trkpt><trkpt lat="-26.637588596685504" lon="114.54782616159923"><ele>130.0</ele><time>2026-04-15T08:06:27Z</time></trkpt><trkpt lat="-26.637337119405295" lon="114.54773188753067"><ele>130.0</ele><time>2026-04-15T08:06:28Z</time></trkpt><trkpt lat="-26.637084727961938" lon="114.5476375193755"><ele>129.0</ele><time>2026-04-15T08:06:29Z</time></trkpt><trkpt lat="-26.636828964554176" lon="114.54754061197234"><ele>128.0</ele><time>2026-04-15T08:06:30Z</time></trkpt><trkpt lat="-26.63657178610838" lon="114.54744250542107"><ele>128.0</ele><time>2026-04-15T08:06:31Z</time></trkpt><trkpt lat="-26.636310645096458" lon="114.54734253720284"><ele>128.0</ele><time>2026-04-15T08:06:32Z</time></trkpt><trkpt lat="-26.636048247524926" lon="114.54724360801048"><ele>127.0</ele><time>2026-04-15T08:06:33Z</time></trkpt><trkpt lat="-26.635785639105794" lon="114.54714712204706"><ele>126.0</ele><time>2026-04-15T08:06:34Z</time></trkpt><trkpt lat="-26.635522329416254" lon="114.54705014798753"><ele>126.5</ele><time>2026-04-15T08:06:35Z</time></trkpt><trkpt lat="-26.635257778169187" lon="114.54695400213882"><ele>127.0</ele><time>2026-04-15T08:06:36Z</time></trkpt><trkpt lat="-26.634990445679335" lon="114.54685498010097"><ele>127.0</ele><time>2026-04-15T08:06:37Z</time></trkpt><trkpt lat="-26.634715785613807" lon="114.54675218554593"><ele>127.0</ele><time>2026-04-15T08:06:38Z</time></trkpt><trkpt lat="-26.63444307802164" lon="114.54665109834124"><ele>126.0</ele><time>2026-04-15T08:06:39Z</time></trkpt><trkpt lat="-26.6341716475366" lon="114.5465530743436"><ele>125.0</ele><time>2026-04-15T08:06:40Z</time></trkpt><trkpt lat="-26.633897508208175" lon="114.54645398711622"><ele>126.0</ele><time>2026-04-15T08:06:41Z</time></trkpt><trkpt lat="-26.633625105215746" lon="114.54634908978456"><ele>127.0</ele><time>2026-04-15T08:06:42Z</time></trkpt><trkpt lat="-26.633353474751345" lon="114.54624353080824"><ele>126.5</ele><time>2026-04-15T08:06:43Z</time></trkpt><trkpt lat="-26.63308227259078" lon="114.54613877039365"><ele>126.0</ele><time>2026-04-15T08:06:44Z</time></trkpt><trkpt lat="-26.632809898417822" lon="114.54603320405162"><ele>126.0</ele><time>2026-04-15T08:06:45Z</time></trkpt><trkpt lat="-26.632538567575324" lon="114.5459297977806"><ele>126.0</ele><time>2026-04-15T08:06:46Z</time></trkpt><trkpt lat="-26.632269854729078" lon="114.54582540736654"><ele>126.0</ele><time>2026-04-15T08:06:47Z</time></trkpt><trkpt lat="-26.632000786483825" lon="114.54572220290613"><ele>126.0</ele><time>2026-04-15T08:06:48Z</time></trkpt><trkpt lat="-26.63173231411405" lon="114.54562370838856"><ele>125.5</ele><time>2026-04-15T08:06:49Z</time></trkpt><trkpt lat="-26.631466506741987" lon="114.54552753901612"><ele>125.0</ele><time>2026-04-15T08:06:50Z</time></trkpt><trkpt lat="-26.631198783525477" lon="114.54543118583729"><ele>125.0</ele><time>2026-04-15T08:06:51Z</time></trkpt><trkpt lat="-26.630934361463037" lon="114.54533414040253"><ele>125.0</ele><time>2026-04-15T08:06:52Z</time></trkpt><trkpt lat="-26.630669623211777" lon="114.54523348752774"><ele>125.0</ele><time>2026-04-15T08:06:53Z</time></trkpt><trkpt lat="-26.630405723665476" lon="114.54513501686459"><ele>125.0</ele><time>2026-04-15T08:06:54Z</time></trkpt><trkpt lat="-26.63013649573871" lon="114.5450364197608"><ele>124.0</ele><time>2026-04-15T08:06:55Z</time></trkpt><trkpt lat="-26.62986552109596" lon="114.54493452977317"><ele>123.0</ele><time>2026-04-15T08:06:56Z</time></trkpt><trkpt lat="-26.62959169213573" lon="114.54483107178724"><ele>122.0</ele><time>2026-04-15T08:06:57Z</time></trkpt><trkpt lat="-26.62931325722165" lon="114.54472693652522"><ele>121.0</ele><time>2026-04-15T08:06:58Z</time></trkpt><trkpt lat="-26.629034546369024" lon="114.54462205303147"><ele>121.0</ele><time>2026-04-15T08:06:59Z</time></trkpt><trkpt lat="-26.62875633530706" lon="114.54451849857381"><ele>121.0</ele><time>2026-04-15T08:07:00Z</time></trkpt><trkpt lat="-26.628476183813593" lon="114.54441194979995"><ele>121.0</ele><time>2026-04-15T08:07:01Z</time></trkpt><trkpt lat="-26.628197666547504" lon="114.54431026230434"><ele>121.0</ele><time>2026-04-15T08:07:02Z</time></trkpt><trkpt lat="-26.627916510544846" lon="114.54420977307282"><ele>121.0</ele><time>2026-04-15T08:07:03Z</time></trkpt><trkpt lat="-26.62763735798284" lon="114.54410842487728"><ele>121.0</ele><time>2026-04-15T08:07:04Z</time></trkpt><trkpt lat="-26.62735696891413" lon="114.54400482100093"><ele>121.0</ele><time>2026-04-15T08:07:05Z</time></trkpt><trkpt lat="-26.627076547052948" lon="114.54389795394066"><ele>121.0</ele><time>2026-04-15T08:07:06Z</time></trkpt><trkpt lat="-26.626794430389747" lon="114.543789279516"><ele>121.0</ele><time>2026-04-15T08:07:07Z</time></trkpt><trkpt lat="-26.62651233518889" lon="114.54368176413529"><ele>121.0</ele><time>2026-04-15T08:07:08Z</time></trkpt><trkpt lat="-26.626226615058602" lon="114.54357160537288"><ele>121.0</ele><time>2026-04-15T08:07:09Z</time></trkpt><trkpt lat="-26.62594103350183" lon="114.54346690649272"><ele>121.0</ele><time>2026-04-15T08:07:10Z</time></trkpt><trkpt lat="-26.62565547096438" lon="114.54336147991853"><ele>121.0</ele><time>2026-04-15T08:07:11Z</time></trkpt><trkpt lat="-26.62536905247737" lon="114.54325611121598"><ele>121.0</ele><time>2026-04-15T08:07:12Z</time></trkpt><trkpt lat="-26.62508569180047" lon="114.5431521575287"><ele>120.0</ele><time>2026-04-15T08:07:13Z</time></trkpt><trkpt lat="-26.624799662599127" lon="114.54304479536667"><ele>119.0</ele><time>2026-04-15T08:07:14Z</time></trkpt><trkpt lat="-26.624514202332875" lon="114.54293643277647"><ele>118.5</ele><time>2026-04-15T08:07:15Z</time></trkpt><trkpt lat="-26.624229546462022" lon="114.54282671576003"><ele>118.0</ele><time>2026-04-15T08:07:16Z</time></trkpt><trkpt lat="-26.6239460698274" lon="114.54271766210827"><ele>118.0</ele><time>2026-04-15T08:07:17Z</time></trkpt><trkpt lat="-26.62366312906293" lon="114.54261309521696"><ele>118.0</ele><time>2026-04-15T08:07:18Z</time></trkpt><trkpt lat="-26.623376062571094" lon="114.54250699581407"><ele>117.5</ele><time>2026-04-15T08:07:19Z</time></trkpt><trkpt lat="-26.62309134067495" lon="114.54240082239833"><ele>117.0</ele><time>2026-04-15T08:07:20Z</time></trkpt><trkpt lat="-26.62280345101312" lon="114.54229297662394"><ele>118.0</ele><time>2026-04-15T08:07:21Z</time></trkpt><trkpt lat="-26.622514621164868" lon="114.54218982645176"><ele>119.0</ele><time>2026-04-15T08:07:22Z</time></trkpt><trkpt lat="-26.62222989977346" lon="114.54208629959311"><ele>117.5</ele><time>2026-04-15T08:07:23Z</time></trkpt><trkpt lat="-26.621949232912282" lon="114.54197930551469"><ele>116.0</ele><time>2026-04-15T08:07:24Z</time></trkpt><trkpt lat="-26.621668158416416" lon="114.54187267360611"><ele>116.0</ele><time>2026-04-15T08:07:25Z</time></trkpt><trkpt lat="-26.621388610909737" lon="114.54176563299139"><ele>116.0</ele><time>2026-04-15T08:07:26Z</time></trkpt><trkpt lat="-26.62110880786662" lon="114.54165998286516"><ele>116.0</ele><time>2026-04-15T08:07:27Z</time></trkpt><trkpt lat="-26.62082783395345" lon="114.54155269090396"><ele>116.0</ele><time>2026-04-15T08:07:28Z</time></trkpt><trkpt lat="-26.620545304837027" lon="114.54144750936564"><ele>116.0</ele><time>2026-04-15T08:07:29Z</time></trkpt><trkpt lat="-26.620260459508927" lon="114.5413401944482"><ele>116.0</ele><time>2026-04-15T08:07:30Z</time></trkpt><trkpt lat="-26.619974383182477" lon="114.5412324562077"><ele>115.5</ele><time>2026-04-15T08:07:31Z</time></trkpt><trkpt lat="-26.619691431839104" lon="114.54112837413362"><ele>115.0</ele><time>2026-04-15T08:07:32Z</time></trkpt><trkpt lat="-26.619411069709383" lon="114.54102146113983"><ele>114.5</ele><time>2026-04-15T08:07:33Z</time></trkpt><trkpt lat="-26.61913297159413" lon="114.5409169373422"><ele>114.0</ele><time>2026-04-15T08:07:34Z</time></trkpt><trkpt lat="-26.618858237209057" lon="114.54081607097218"><ele>114.0</ele><time>2026-04-15T08:07:35Z</time></trkpt><trkpt lat="-26.61858415595058" lon="114.54071635620609"><ele>114.0</ele><time>2026-04-15T08:07:36Z</time></trkpt><trkpt lat="-26.618313268821954" lon="114.54061717961392"><ele>114.0</ele><time>2026-04-15T08:07:37Z</time></trkpt><trkpt lat="-26.618040911942067" lon="114.54051691461338"><ele>114.0</ele><time>2026-04-15T08:07:38Z</time></trkpt><trkpt lat="-26.617768631392646" lon="114.54041984386801"><ele>113.5</ele><time>2026-04-15T08:07:39Z</time></trkpt><trkpt lat="-26.61749974317675" lon="114.54032210663763"><ele>113.0</ele><time>2026-04-15T08:07:40Z</time></trkpt><trkpt lat="-26.617230637337205" lon="114.54021950115647"><ele>114.0</ele><time>2026-04-15T08:07:41Z</time></trkpt><trkpt lat="-26.616965652685526" lon="114.5401162278573"><ele>115.0</ele><time>2026-04-15T08:07:42Z</time></trkpt><trkpt lat="-26.61669647974746" lon="114.54001276416476"><ele>115.0</ele><time>2026-04-15T08:07:43Z</time></trkpt><trkpt lat="-26.616427941331764" lon="114.53991127457273"><ele>115.0</ele><time>2026-04-15T08:07:44Z</time></trkpt><trkpt lat="-26.61616463019219" lon="114.5398102877104"><ele>115.0</ele><time>2026-04-15T08:07:45Z</time></trkpt><trkpt lat="-26.61563452280332" lon="114.53960664187788"><ele>114.0</ele><time>2026-04-15T08:07:47Z</time></trkpt><trkpt lat="-26.615366295435347" lon="114.5395046376574"><ele>113.0</ele><time>2026-04-15T08:07:48Z</time></trkpt><trkpt lat="-26.61510395947335" lon="114.53940587309259"><ele>112.5</ele><time>2026-04-15T08:07:49Z</time></trkpt><trkpt lat="-26.61483650299549" lon="114.539304105294"><ele>112.0</ele><time>2026-04-15T08:07:50Z</time></trkpt><trkpt lat="-26.614572437667846" lon="114.53920508452525"><ele>112.0</ele><time>2026-04-15T08:07:51Z</time></trkpt><trkpt lat="-26.614305838959922" lon="114.53910745224961"><ele>112.0</ele><time>2026-04-15T08:07:52Z</time></trkpt><trkpt lat="-26.614034434083607" lon="114.53900944430401"><ele>112.0</ele><time>2026-04-15T08:07:53Z</time></trkpt><trkpt lat="-26.613761073342808" lon="114.53890952302005"><ele>112.0</ele><time>2026-04-15T08:07:54Z</time></trkpt><trkpt lat="-26.613487567879748" lon="114.5388096604363"><ele>111.0</ele><time>2026-04-15T08:07:55Z</time></trkpt><trkpt lat="-26.61321237639346" lon="114.53870874681783"><ele>110.0</ele><time>2026-04-15T08:07:56Z</time></trkpt><trkpt lat="-26.61294072261888" lon="114.53860736604281"><ele>111.5</ele><time>2026-04-15T08:07:57Z</time></trkpt><trkpt lat="-26.612667348222953" lon="114.53850208831071"><ele>113.0</ele><time>2026-04-15T08:07:58Z</time></trkpt><trkpt lat="-26.61239156036644" lon="114.53839611255236"><ele>113.0</ele><time>2026-04-15T08:07:59Z</time></trkpt><trkpt lat="-26.612113959229024" lon="114.53829144088175"><ele>113.0</ele><time>2026-04-15T08:08:00Z</time></trkpt><trkpt lat="-26.611834130607303" lon="114.53818935263823"><ele>112.0</ele><time>2026-04-15T08:08:01Z</time></trkpt><trkpt lat="-26.611556332320585" lon="114.5380888503642"><ele>111.0</ele><time>2026-04-15T08:08:02Z</time></trkpt><trkpt lat="-26.611275107309396" lon="114.53798353492635"><ele>111.0</ele><time>2026-04-15T08:08:03Z</time></trkpt><trkpt lat="-26.610996374558653" lon="114.53787637139762"><ele>111.0</ele><time>2026-04-15T08:08:04Z</time></trkpt><trkpt lat="-26.610718183063664" lon="114.53776772226811"><ele>111.0</ele><time>2026-04-15T08:08:05Z</time></trkpt><trkpt lat="-26.61044268386714" lon="114.53765936077866"><ele>111.0</ele><time>2026-04-15T08:08:06Z</time></trkpt><trkpt lat="-26.610161990974408" lon="114.53755256607961"><ele>111.0</ele><time>2026-04-15T08:08:07Z</time></trkpt><trkpt lat="-26.609877715599275" lon="114.53744891949796"><ele>111.0</ele><time>2026-04-15T08:08:08Z</time></trkpt><trkpt lat="-26.609588304192446" lon="114.53734420453596"><ele>111.5</ele><time>2026-04-15T08:08:09Z</time></trkpt><trkpt lat="-26.609298595634048" lon="114.53723934434973"><ele>112.0</ele><time>2026-04-15T08:08:10Z</time></trkpt><trkpt lat="-26.609013564140607" lon="114.53713638580835"><ele>112.0</ele><time>2026-04-15T08:08:11Z</time></trkpt><trkpt lat="-26.60872648268227" lon="114.53703197936731"><ele>112.0</ele><time>2026-04-15T08:08:12Z</time></trkpt><trkpt lat="-26.608441246126485" lon="114.53692668581203"><ele>112.0</ele><time>2026-04-15T08:08:13Z</time></trkpt><trkpt lat="-26.60815484279287" lon="114.53681524631304"><ele>112.0</ele><time>2026-04-15T08:08:14Z</time></trkpt><trkpt lat="-26.60787273109298" lon="114.53670515018058"><ele>111.5</ele><time>2026-04-15T08:08:15Z</time></trkpt><trkpt lat="-26.607591384239523" lon="114.53659755260443"><ele>111.0</ele><time>2026-04-15T08:08:16Z</time></trkpt><trkpt lat="-26.607308871842914" lon="114.53649035703542"><ele>111.0</ele><time>2026-04-15T08:08:17Z</time></trkpt><trkpt lat="-26.607024593646038" lon="114.53638296203879"><ele>111.0</ele><time>2026-04-15T08:08:18Z</time></trkpt><trkpt lat="-26.606741122909757" lon="114.53628063912193"><ele>111.0</ele><time>2026-04-15T08:08:19Z</time></trkpt><trkpt lat="-26.606459679674323" lon="114.53618012563102"><ele>111.0</ele><time>2026-04-15T08:08:20Z</time></trkpt><trkpt lat="-26.60617776885221" lon="114.53607733622411"><ele>111.5</ele><time>2026-04-15T08:08:21Z</time></trkpt><trkpt lat="-26.605900786790173" lon="114.53597303653682"><ele>112.0</ele><time>2026-04-15T08:08:22Z</time></trkpt><trkpt lat="-26.60562390580486" lon="114.53587023233744"><ele>112.0</ele><time>2026-04-15T08:08:23Z</time></trkpt><trkpt lat="-26.60534163048205" lon="114.53576754208169"><ele>112.0</ele><time>2026-04-15T08:08:24Z</time></trkpt><trkpt lat="-26.605060255247796" lon="114.53566225079092"><ele>111.5</ele><time>2026-04-15T08:08:25Z</time></trkpt><trkpt lat="-26.60477979959312" lon="114.53555431536773"><ele>111.0</ele><time>2026-04-15T08:08:26Z</time></trkpt><trkpt lat="-26.60449526228065" lon="114.53544472588474"><ele>110.5</ele><time>2026-04-15T08:08:27Z</time></trkpt><trkpt lat="-26.604211968458834" lon="114.53533591145455"><ele>110.0</ele><time>2026-04-15T08:08:28Z</time></trkpt><trkpt lat="-26.60392932857367" lon="114.53522821158995"><ele>109.5</ele><time>2026-04-15T08:08:29Z</time></trkpt><trkpt lat="-26.60364573895692" lon="114.53512125247316"><ele>109.0</ele><time>2026-04-15T08:08:30Z</time></trkpt><trkpt lat="-26.603362139289494" lon="114.53501285141965"><ele>109.0</ele><time>2026-04-15T08:08:31Z</time></trkpt><trkpt lat="-26.6030771541964" lon="114.53490576639805"><ele>109.0</ele><time>2026-04-15T08:08:32Z</time></trkpt><trkpt lat="-26.602787089058776" lon="114.53479890007436"><ele>108.5</ele><time>2026-04-15T08:08:33Z</time></trkpt><trkpt lat="-26.60249799619323" lon="114.53469261620288"><ele>108.0</ele><time>2026-04-15T08:08:34Z</time></trkpt><trkpt lat="-26.6022071139205" lon="114.5345880694117"><ele>109.0</ele><time>2026-04-15T08:08:35Z</time></trkpt><trkpt lat="-26.601918296183644" lon="114.53448198060578"><ele>110.0</ele><time>2026-04-15T08:08:36Z</time></trkpt><trkpt lat="-26.601630489253235" lon="114.53437599004485"><ele>110.0</ele><time>2026-04-15T08:08:37Z</time></trkpt><trkpt lat="-26.60134384084695" lon="114.53426973922969"><ele>110.0</ele><time>2026-04-15T08:08:38Z</time></trkpt><trkpt lat="-26.601054277593544" lon="114.53416145484941"><ele>109.5</ele><time>2026-04-15T08:08:39Z</time></trkpt><trkpt lat="-26.600769475080515" lon="114.53405334163261"><ele>109.0</ele><time>2026-04-15T08:08:40Z</time></trkpt><trkpt lat="-26.6004847369118" lon="114.53394409578816"><ele>109.0</ele><time>2026-04-15T08:08:41Z</time></trkpt><trkpt lat="-26.600197107698648" lon="114.53383416216053"><ele>109.0</ele><time>2026-04-15T08:08:42Z</time></trkpt><trkpt lat="-26.5999105959858" lon="114.53372593335538"><ele>108.5</ele><time>2026-04-15T08:08:43Z</time></trkpt><trkpt lat="-26.59962914741641" lon="114.53361983931795"><ele>108.0</ele><time>2026-04-15T08:08:44Z</time></trkpt><trkpt lat="-26.599349465392844" lon="114.53351573687905"><ele>107.5</ele><time>2026-04-15T08:08:45Z</time></trkpt><trkpt lat="-26.599087689938454" lon="114.53341619470777"><ele>107.0</ele><time>2026-04-15T08:08:46Z</time></trkpt><trkpt lat="-26.598842337241273" lon="114.53332222033816"><ele>107.0</ele><time>2026-04-15T08:08:47Z</time></trkpt><trkpt lat="-26.598589835175382" lon="114.53322996406949"><ele>107.0</ele><time>2026-04-15T08:08:48Z</time></trkpt><trkpt lat="-26.59832777432004" lon="114.53313294544499"><ele>107.0</ele><time>2026-04-15T08:08:49Z</time></trkpt><trkpt lat="-26.598059716191877" lon="114.53303405223882"><ele>107.0</ele><time>2026-04-15T08:08:50Z</time></trkpt><trkpt lat="-26.597786241108032" lon="114.53293246706934"><ele>106.5</ele><time>2026-04-15T08:08:51Z</time></trkpt><trkpt lat="-26.597513014010165" lon="114.53282884324005"><ele>106.0</ele><time>2026-04-15T08:08:52Z</time></trkpt><trkpt lat="-26.597236763936994" lon="114.53272680761752"><ele>107.0</ele><time>2026-04-15T08:08:53Z</time></trkpt><trkpt lat="-26.59695746197548" lon="114.53262302792547"><ele>108.0</ele><time>2026-04-15T08:08:54Z</time></trkpt><trkpt lat="-26.596675751517942" lon="114.53251657544527"><ele>108.0</ele><time>2026-04-15T08:08:55Z</time></trkpt><trkpt lat="-26.596397257103934" lon="114.53241131773764"><ele>108.0</ele><time>2026-04-15T08:08:56Z</time></trkpt><trkpt lat="-26.596120838500717" lon="114.5323078755365"><ele>109.0</ele><time>2026-04-15T08:08:57Z</time></trkpt><trkpt lat="-26.595841989022343" lon="114.53220544630302"><ele>110.0</ele><time>2026-04-15T08:08:58Z</time></trkpt><trkpt lat="-26.5955626782713" lon="114.53210270589774"><ele>109.5</ele><time>2026-04-15T08:08:59Z</time></trkpt><trkpt lat="-26.59528869002174" lon="114.53199968240318"><ele>109.0</ele><time>2026-04-15T08:09:00Z</time></trkpt><trkpt lat="-26.595014257383045" lon="114.53189324387563"><ele>109.0</ele><time>2026-04-15T08:09:01Z</time></trkpt><trkpt lat="-26.59473999932457" lon="114.53178739464659"><ele>109.0</ele><time>2026-04-15T08:09:02Z</time></trkpt><trkpt lat="-26.59446679324777" lon="114.53168434102959"><ele>109.0</ele><time>2026-04-15T08:09:03Z</time></trkpt><trkpt lat="-26.594202675286724" lon="114.53158754224488"><ele>109.0</ele><time>2026-04-15T08:09:04Z</time></trkpt><trkpt lat="-26.593959331109502" lon="114.53149472169962"><ele>109.0</ele><time>2026-04-15T08:09:05Z</time></trkpt><trkpt lat="-26.593735670049227" lon="114.53141335086455"><ele>109.0</ele><time>2026-04-15T08:09:06Z</time></trkpt><trkpt lat="-26.59351771599151" lon="114.53133550176243"><ele>109.5</ele><time>2026-04-15T08:09:07Z</time></trkpt><trkpt lat="-26.593292000514932" lon="114.53125555898653"><ele>110.0</ele><time>2026-04-15T08:09:08Z</time></trkpt><trkpt lat="-26.59305208935654" lon="114.53117042594344"><ele>109.0</ele><time>2026-04-15T08:09:09Z</time></trkpt><trkpt lat="-26.592807301758334" lon="114.53108506717491"><ele>108.0</ele><time>2026-04-15T08:09:10Z</time></trkpt><trkpt lat="-26.592551334387284" lon="114.53098786721361"><ele>108.0</ele><time>2026-04-15T08:09:11Z</time></trkpt><trkpt lat="-26.592289671062886" lon="114.53088549832769"><ele>108.0</ele><time>2026-04-15T08:09:12Z</time></trkpt><trkpt lat="-26.592026277020835" lon="114.53078339054233"><ele>107.0</ele><time>2026-04-15T08:09:13Z</time></trkpt><trkpt lat="-26.591759192498483" lon="114.530681694192"><ele>106.0</ele><time>2026-04-15T08:09:14Z</time></trkpt><trkpt lat="-26.591492542061893" lon="114.53057772522736"><ele>106.0</ele><time>2026-04-15T08:09:15Z</time></trkpt><trkpt lat="-26.591227243233895" lon="114.5304767743367"><ele>106.0</ele><time>2026-04-15T08:09:16Z</time></trkpt><trkpt lat="-26.59095908004096" lon="114.53037956963776"><ele>105.0</ele><time>2026-04-15T08:09:17Z</time></trkpt><trkpt lat="-26.590683458576116" lon="114.53028220805474"><ele>104.0</ele><time>2026-04-15T08:09:18Z</time></trkpt><trkpt lat="-26.590410525914393" lon="114.53018436666535"><ele>105.5</ele><time>2026-04-15T08:09:19Z</time></trkpt><trkpt lat="-26.59013619643891" lon="114.53008086563379"><ele>107.0</ele><time>2026-04-15T08:09:20Z</time></trkpt><trkpt lat="-26.58986407199609" lon="114.52997745554359"><ele>107.0</ele><time>2026-04-15T08:09:21Z</time></trkpt><trkpt lat="-26.58958713847487" lon="114.52987231944404"><ele>107.0</ele><time>2026-04-15T08:09:22Z</time></trkpt><trkpt lat="-26.58931287071937" lon="114.52977053328149"><ele>106.5</ele><time>2026-04-15T08:09:23Z</time></trkpt><trkpt lat="-26.589033114344947" lon="114.52966439390696"><ele>106.0</ele><time>2026-04-15T08:09:24Z</time></trkpt><trkpt lat="-26.588750364016462" lon="114.52955719163221"><ele>105.5</ele><time>2026-04-15T08:09:25Z</time></trkpt><trkpt lat="-26.588472572261196" lon="114.52944800608066"><ele>105.0</ele><time>2026-04-15T08:09:26Z</time></trkpt><trkpt lat="-26.58819715375873" lon="114.52933974488384"><ele>105.0</ele><time>2026-04-15T08:09:27Z</time></trkpt><trkpt lat="-26.5879227970408" lon="114.52923672817695"><ele>105.0</ele><time>2026-04-15T08:09:28Z</time></trkpt><trkpt lat="-26.58764823053414" lon="114.52914034334243"><ele>105.0</ele><time>2026-04-15T08:09:29Z</time></trkpt><trkpt lat="-26.587375374250488" lon="114.52904308097484"><ele>105.0</ele><time>2026-04-15T08:09:30Z</time></trkpt><trkpt lat="-26.587104575513845" lon="114.52894168427828"><ele>104.5</ele><time>2026-04-15T08:09:31Z</time></trkpt><trkpt lat="-26.58683461336858" lon="114.52883892577948"><ele>104.0</ele><time>2026-04-15T08:09:32Z</time></trkpt><trkpt lat="-26.58656473888384" lon="114.52873436144463"><ele>104.0</ele><time>2026-04-15T08:09:33Z</time></trkpt><trkpt lat="-26.586292580375236" lon="114.52863162761469"><ele>104.0</ele><time>2026-04-15T08:09:34Z</time></trkpt><trkpt lat="-26.586019205360206" lon="114.52852777475495"><ele>103.5</ele><time>2026-04-15T08:09:35Z</time></trkpt><trkpt lat="-26.58574110098119" lon="114.52842530682581"><ele>103.0</ele><time>2026-04-15T08:09:36Z</time></trkpt><trkpt lat="-26.58545927845322" lon="114.52832390883289"><ele>102.5</ele><time>2026-04-15T08:09:37Z</time></trkpt><trkpt lat="-26.585178287244382" lon="114.52822138438195"><ele>102.0</ele><time>2026-04-15T08:09:38Z</time></trkpt><trkpt lat="-26.584895009344454" lon="114.52811573423631"><ele>102.0</ele><time>2026-04-15T08:09:39Z</time></trkpt><trkpt lat="-26.584616715025906" lon="114.52800970539616"><ele>102.0</ele><time>2026-04-15T08:09:40Z</time></trkpt><trkpt lat="-26.58433555617684" lon="114.52790264376182"><ele>101.5</ele><time>2026-04-15T08:09:41Z</time></trkpt><trkpt lat="-26.584054079027055" lon="114.52779740938904"><ele>101.0</ele><time>2026-04-15T08:09:42Z</time></trkpt><trkpt lat="-26.58377307215163" lon="114.52769174422681"><ele>102.0</ele><time>2026-04-15T08:09:43Z</time></trkpt><trkpt lat="-26.583489380308215" lon="114.52758377677809"><ele>103.0</ele><time>2026-04-15T08:09:44Z</time></trkpt><trkpt lat="-26.583207378190064" lon="114.52747836374775"><ele>103.0</ele><time>2026-04-15T08:09:45Z</time></trkpt><trkpt lat="-26.582923864573026" lon="114.52737544040073"><ele>103.0</ele><time>2026-04-15T08:09:46Z</time></trkpt><trkpt lat="-26.582640928437733" lon="114.5272726386082"><ele>102.0</ele><time>2026-04-15T08:09:47Z</time></trkpt><trkpt lat="-26.58235947231962" lon="114.5271737287845"><ele>101.0</ele><time>2026-04-15T08:09:48Z</time></trkpt><trkpt lat="-26.582080686070963" lon="114.5270712217802"><ele>101.0</ele><time>2026-04-15T08:09:49Z</time></trkpt><trkpt lat="-26.581801078532592" lon="114.52696526171037"><ele>101.0</ele><time>2026-04-15T08:09:50Z</time></trkpt><trkpt lat="-26.58152614734338" lon="114.52686110136509"><ele>101.0</ele><time>2026-04-15T08:09:51Z</time></trkpt><trkpt lat="-26.58124913411867" lon="114.52675734404383"><ele>101.0</ele><time>2026-04-15T08:09:52Z</time></trkpt><trkpt lat="-26.580973555094346" lon="114.52665309773683"><ele>100.5</ele><time>2026-04-15T08:09:53Z</time></trkpt><trkpt lat="-26.580708191486146" lon="114.52654856633572"><ele>100.0</ele><time>2026-04-15T08:09:54Z</time></trkpt><trkpt lat="-26.58047165193164" lon="114.52645327732175"><ele>100.0</ele><time>2026-04-15T08:09:55Z</time></trkpt><trkpt lat="-26.58023863083611" lon="114.5263653248466"><ele>100.0</ele><time>2026-04-15T08:09:56Z</time></trkpt><trkpt lat="-26.579999843568856" lon="114.52627466148623"><ele>100.0</ele><time>2026-04-15T08:09:57Z</time></trkpt><trkpt lat="-26.57975045094984" lon="114.52618261793494"><ele>100.0</ele><time>2026-04-15T08:09:58Z</time></trkpt><trkpt lat="-26.57950707527686" lon="114.52609242391863"><ele>100.5</ele><time>2026-04-15T08:09:59Z</time></trkpt><trkpt lat="-26.57928685020547" lon="114.52601382146885"><ele>101.0</ele><time>2026-04-15T08:10:00Z</time></trkpt><trkpt lat="-26.579069599238707" lon="114.5259361962871"><ele>101.0</ele><time>2026-04-15T08:10:01Z</time></trkpt><trkpt lat="-26.578842000437632" lon="114.52584947979584"><ele>101.0</ele><time>2026-04-15T08:10:02Z</time></trkpt><trkpt lat="-26.578601406461868" lon="114.52575777772658"><ele>100.0</ele><time>2026-04-15T08:10:03Z</time></trkpt><trkpt lat="-26.578349875314718" lon="114.5256646085332"><ele>99.0</ele><time>2026-04-15T08:10:04Z</time></trkpt><trkpt lat="-26.578092032215984" lon="114.5255705518577"><ele>99.0</ele><time>2026-04-15T08:10:05Z</time></trkpt><trkpt lat="-26.57783110612699" lon="114.52547501721189"><ele>99.0</ele><time>2026-04-15T08:10:06Z</time></trkpt><trkpt lat="-26.57756610209471" lon="114.52537609071791"><ele>99.0</ele><time>2026-04-15T08:10:07Z</time></trkpt><trkpt lat="-26.5772970439603" lon="114.52527451970627"><ele>99.0</ele><time>2026-04-15T08:10:08Z</time></trkpt><trkpt lat="-26.57703079920927" lon="114.52517448517344"><ele>98.5</ele><time>2026-04-15T08:10:09Z</time></trkpt><trkpt lat="-26.57675442504916" lon="114.52506897728288"><ele>98.0</ele><time>2026-04-15T08:10:10Z</time></trkpt><trkpt lat="-26.576484057297254" lon="114.52496890414696"><ele>98.0</ele><time>2026-04-15T08:10:11Z</time></trkpt><trkpt lat="-26.576211743181236" lon="114.52487035135495"><ele>98.0</ele><time>2026-04-15T08:10:12Z</time></trkpt><trkpt lat="-26.575938131366147" lon="114.52476930689858"><ele>97.5</ele><time>2026-04-15T08:10:13Z</time></trkpt><trkpt lat="-26.575663031258113" lon="114.52466532047389"><ele>97.0</ele><time>2026-04-15T08:10:14Z</time></trkpt><trkpt lat="-26.575392807894847" lon="114.52456474756329"><ele>97.0</ele><time>2026-04-15T08:10:15Z</time></trkpt><trkpt lat="-26.575117499346423" lon="114.52446429612343"><ele>97.0</ele><time>2026-04-15T08:10:16Z</time></trkpt><trkpt lat="-26.574840006329907" lon="114.52436468470825"><ele>97.0</ele><time>2026-04-15T08:10:17Z</time></trkpt><trkpt lat="-26.574560961041826" lon="114.5242656626202"><ele>97.0</ele><time>2026-04-15T08:10:18Z</time></trkpt><trkpt lat="-26.574282819077588" lon="114.52416382477715"><ele>95.5</ele><time>2026-04-15T08:10:19Z</time></trkpt><trkpt lat="-26.574008920060823" lon="114.52406012178191"><ele>94.0</ele><time>2026-04-15T08:10:20Z</time></trkpt><trkpt lat="-26.573736764620218" lon="114.52395345423614"><ele>94.5</ele><time>2026-04-15T08:10:21Z</time></trkpt><trkpt lat="-26.573462214936054" lon="114.52384545046047"><ele>95.0</ele><time>2026-04-15T08:10:22Z</time></trkpt><trkpt lat="-26.573186835726222" lon="114.52374175240533"><ele>93.5</ele><time>2026-04-15T08:10:23Z</time></trkpt><trkpt lat="-26.572907650086403" lon="114.52363936780553"><ele>92.0</ele><time>2026-04-15T08:10:24Z</time></trkpt><trkpt lat="-26.5726281291294" lon="114.5235384518206"><ele>92.0</ele><time>2026-04-15T08:10:25Z</time></trkpt><trkpt lat="-26.57234923950512" lon="114.523435380701"><ele>92.0</ele><time>2026-04-15T08:10:26Z</time></trkpt><trkpt lat="-26.572069511046145" lon="114.52333205758282"><ele>93.0</ele><time>2026-04-15T08:10:27Z</time></trkpt><trkpt lat="-26.57178901708785" lon="114.52322520660475"><ele>94.0</ele><time>2026-04-15T08:10:28Z</time></trkpt><trkpt lat="-26.57150741651434" lon="114.52311810081201"><ele>94.0</ele><time>2026-04-15T08:10:29Z</time></trkpt><trkpt lat="-26.571223778728644" lon="114.52301009746444"><ele>94.0</ele><time>2026-04-15T08:10:30Z</time></trkpt><trkpt lat="-26.570941172204414" lon="114.52290413775467"><ele>93.5</ele><time>2026-04-15T08:10:31Z</time></trkpt><trkpt lat="-26.570655690085054" lon="114.52279605961377"><ele>93.0</ele><time>2026-04-15T08:10:32Z</time></trkpt><trkpt lat="-26.570368323323894" lon="114.52268703059667"><ele>92.0</ele><time>2026-04-15T08:10:33Z</time></trkpt><trkpt lat="-26.570078910141685" lon="114.52258140062595"><ele>91.0</ele><time>2026-04-15T08:10:34Z</time></trkpt><trkpt lat="-26.56979148270345" lon="114.52247740937948"><ele>90.0</ele><time>2026-04-15T08:10:35Z</time></trkpt><trkpt lat="-26.56950228782553" lon="114.52237265252748"><ele>89.0</ele><time>2026-04-15T08:10:36Z</time></trkpt><trkpt lat="-26.569217292877855" lon="114.52226809493254"><ele>89.0</ele><time>2026-04-15T08:10:37Z</time></trkpt><trkpt lat="-26.568931395955495" lon="114.5221591891411"><ele>89.0</ele><time>2026-04-15T08:10:38Z</time></trkpt><trkpt lat="-26.568645894893805" lon="114.52204993422293"><ele>89.0</ele><time>2026-04-15T08:10:39Z</time></trkpt><trkpt lat="-26.568360455917183" lon="114.52194151876269"><ele>89.0</ele><time>2026-04-15T08:10:40Z</time></trkpt><trkpt lat="-26.56807574641398" lon="114.52183826807367"><ele>88.5</ele><time>2026-04-15T08:10:41Z</time></trkpt><trkpt lat="-26.567785900287266" lon="114.52172950567652"><ele>88.0</ele><time>2026-04-15T08:10:42Z</time></trkpt><trkpt lat="-26.56749923218151" lon="114.52162470185452"><ele>88.0</ele><time>2026-04-15T08:10:43Z</time></trkpt><trkpt lat="-26.567210413241508" lon="114.52151909206202"><ele>88.0</ele><time>2026-04-15T08:10:44Z</time></trkpt><trkpt lat="-26.566923944557793" lon="114.52141401234904"><ele>88.0</ele><time>2026-04-15T08:10:45Z</time></trkpt><trkpt lat="-26.56663577572778" lon="114.52130532985171"><ele>88.0</ele><time>2026-04-15T08:10:46Z</time></trkpt><trkpt lat="-26.56634549037043" lon="114.52119462326448"><ele>87.5</ele><time>2026-04-15T08:10:47Z</time></trkpt><trkpt lat="-26.566056353875712" lon="114.52108681987838"><ele>87.0</ele><time>2026-04-15T08:10:48Z</time></trkpt><trkpt lat="-26.565768994463067" lon="114.52098335002552"><ele>87.0</ele><time>2026-04-15T08:10:49Z</time></trkpt><trkpt lat="-26.56548115969835" lon="114.52087739274282"><ele>87.0</ele><time>2026-04-15T08:10:50Z</time></trkpt><trkpt lat="-26.565195080220892" lon="114.52077027816371"><ele>87.5</ele><time>2026-04-15T08:10:51Z</time></trkpt><trkpt lat="-26.5649109289533" lon="114.52066190667004"><ele>88.0</ele><time>2026-04-15T08:10:52Z</time></trkpt><trkpt lat="-26.564627373956778" lon="114.52055227294048"><ele>88.0</ele><time>2026-04-15T08:10:53Z</time></trkpt><trkpt lat="-26.56434313854589" lon="114.52044044329905"><ele>88.0</ele><time>2026-04-15T08:10:54Z</time></trkpt><trkpt lat="-26.56405939632075" lon="114.5203340916125"><ele>88.0</ele><time>2026-04-15T08:10:55Z</time></trkpt><trkpt lat="-26.563769301105708" lon="114.520229797443"><ele>88.0</ele><time>2026-04-15T08:10:56Z</time></trkpt><trkpt lat="-26.563475164263185" lon="114.52012272610683"><ele>88.0</ele><time>2026-04-15T08:10:57Z</time></trkpt><trkpt lat="-26.56318896361535" lon="114.52001761490664"><ele>88.0</ele><time>2026-04-15T08:10:58Z</time></trkpt><trkpt lat="-26.56290388371272" lon="114.5199118302712"><ele>87.5</ele><time>2026-04-15T08:10:59Z</time></trkpt><trkpt lat="-26.562618892619835" lon="114.51980476154338"><ele>87.0</ele><time>2026-04-15T08:11:00Z</time></trkpt><trkpt lat="-26.562336639257325" lon="114.51969744036423"><ele>87.0</ele><time>2026-04-15T08:11:01Z</time></trkpt><trkpt lat="-26.562053296500427" lon="114.51958971004188"><ele>87.0</ele><time>2026-04-15T08:11:02Z</time></trkpt><trkpt lat="-26.561771624245967" lon="114.51948406203066"><ele>88.0</ele><time>2026-04-15T08:11:03Z</time></trkpt><trkpt lat="-26.561494448317095" lon="114.51938179557773"><ele>89.0</ele><time>2026-04-15T08:11:04Z</time></trkpt><trkpt lat="-26.56121848898071" lon="114.51928181667218"><ele>89.0</ele><time>2026-04-15T08:11:05Z</time></trkpt><trkpt lat="-26.56094544531513" lon="114.51918335649601"><ele>89.0</ele><time>2026-04-15T08:11:06Z</time></trkpt><trkpt lat="-26.560677188751104" lon="114.51908423910565"><ele>89.0</ele><time>2026-04-15T08:11:07Z</time></trkpt><trkpt lat="-26.560410752215454" lon="114.51898240063282"><ele>89.0</ele><time>2026-04-15T08:11:08Z</time></trkpt><trkpt lat="-26.560140907145033" lon="114.51887891534943"><ele>89.0</ele><time>2026-04-15T08:11:09Z</time></trkpt><trkpt lat="-26.55986768144955" lon="114.51877715927506"><ele>89.0</ele><time>2026-04-15T08:11:10Z</time></trkpt><trkpt lat="-26.559598276581557" lon="114.5186766169296"><ele>89.5</ele><time>2026-04-15T08:11:11Z</time></trkpt><trkpt lat="-26.55932620846791" lon="114.51857278109733"><ele>90.0</ele><time>2026-04-15T08:11:12Z</time></trkpt><trkpt lat="-26.55905604297047" lon="114.51847247927125"><ele>90.0</ele><time>2026-04-15T08:11:13Z</time></trkpt><trkpt lat="-26.558788883414227" lon="114.51837634365367"><ele>90.0</ele><time>2026-04-15T08:11:14Z</time></trkpt><trkpt lat="-26.558519554658396" lon="114.518278439428"><ele>89.5</ele><time>2026-04-15T08:11:15Z</time></trkpt><trkpt lat="-26.55825347241086" lon="114.51818512569518"><ele>89.0</ele><time>2026-04-15T08:11:16Z</time></trkpt><trkpt lat="-26.557983289968092" lon="114.51808452214362"><ele>89.0</ele><time>2026-04-15T08:11:17Z</time></trkpt><trkpt lat="-26.55771722082153" lon="114.51798295793398"><ele>89.0</ele><time>2026-04-15T08:11:18Z</time></trkpt><trkpt lat="-26.557451914463726" lon="114.51787909645957"><ele>88.5</ele><time>2026-04-15T08:11:19Z</time></trkpt><trkpt lat="-26.557187910284604" lon="114.51777484593299"><ele>88.0</ele><time>2026-04-15T08:11:20Z</time></trkpt><trkpt lat="-26.55692172527189" lon="114.51767321615961"><ele>88.0</ele><time>2026-04-15T08:11:21Z</time></trkpt><trkpt lat="-26.55665379165187" lon="114.51757400153005"><ele>88.0</ele><time>2026-04-15T08:11:22Z</time></trkpt><trkpt lat="-26.55638651979936" lon="114.51748021746593"><ele>87.5</ele><time>2026-04-15T08:11:23Z</time></trkpt><trkpt lat="-26.556120084075815" lon="114.51738554990351"><ele>87.0</ele><time>2026-04-15T08:11:24Z</time></trkpt><trkpt lat="-26.555853743478586" lon="114.51728914462055"><ele>87.0</ele><time>2026-04-15T08:11:25Z</time></trkpt><trkpt lat="-26.555580677330312" lon="114.51718807500018"><ele>87.0</ele><time>2026-04-15T08:11:26Z</time></trkpt><trkpt lat="-26.555308216079624" lon="114.51708554828464"><ele>87.5</ele><time>2026-04-15T08:11:27Z</time></trkpt><trkpt lat="-26.55503897156728" lon="114.51698097181962"><ele>88.0</ele><time>2026-04-15T08:11:28Z</time></trkpt><trkpt lat="-26.55477211205237" lon="114.51687974889357"><ele>87.5</ele><time>2026-04-15T08:11:29Z</time></trkpt><trkpt lat="-26.554502868843855" lon="114.51677969673513"><ele>87.0</ele><time>2026-04-15T08:11:30Z</time></trkpt><trkpt lat="-26.55423429519393" lon="114.51668156238469"><ele>87.0</ele><time>2026-04-15T08:11:31Z</time></trkpt><trkpt lat="-26.55396279995461" lon="114.5165820670151"><ele>87.0</ele><time>2026-04-15T08:11:32Z</time></trkpt><trkpt lat="-26.55369218737998" lon="114.51648252789957"><ele>87.5</ele><time>2026-04-15T08:11:33Z</time></trkpt><trkpt lat="-26.55342540712017" lon="114.51638352414366"><ele>88.0</ele><time>2026-04-15T08:11:34Z</time></trkpt><trkpt lat="-26.553156033583292" lon="114.51627966972396"><ele>88.0</ele><time>2026-04-15T08:11:35Z</time></trkpt><trkpt lat="-26.552890425067268" lon="114.51617615827882"><ele>88.0</ele><time>2026-04-15T08:11:36Z</time></trkpt><trkpt lat="-26.55262631361293" lon="114.51607438869294"><ele>88.0</ele><time>2026-04-15T08:11:37Z</time></trkpt><trkpt lat="-26.55236126498195" lon="114.51597571296146"><ele>88.0</ele><time>2026-04-15T08:11:38Z</time></trkpt><trkpt lat="-26.552095672091074" lon="114.51587617713805"><ele>88.0</ele><time>2026-04-15T08:11:39Z</time></trkpt><trkpt lat="-26.5518311715909" lon="114.51577749482935"><ele>88.0</ele><time>2026-04-15T08:11:40Z</time></trkpt><trkpt lat="-26.55156579636684" lon="114.51568099100137"><ele>88.0</ele><time>2026-04-15T08:11:41Z</time></trkpt><trkpt lat="-26.551304602481423" lon="114.51558739027867"><ele>88.0</ele><time>2026-04-15T08:11:42Z</time></trkpt><trkpt lat="-26.551040775326875" lon="114.51548842217673"><ele>87.0</ele><time>2026-04-15T08:11:43Z</time></trkpt><trkpt lat="-26.55078244641155" lon="114.51539136984752"><ele>86.0</ele><time>2026-04-15T08:11:44Z</time></trkpt><trkpt lat="-26.550517150560804" lon="114.51529103993381"><ele>86.0</ele><time>2026-04-15T08:11:45Z</time></trkpt><trkpt lat="-26.550248045265803" lon="114.51518897609947"><ele>86.0</ele><time>2026-04-15T08:11:46Z</time></trkpt><trkpt lat="-26.549979660335357" lon="114.51508687773344"><ele>86.0</ele><time>2026-04-15T08:11:47Z</time></trkpt><trkpt lat="-26.549711927500645" lon="114.51498889661548"><ele>86.0</ele><time>2026-04-15T08:11:48Z</time></trkpt><trkpt lat="-26.549443126646036" lon="114.51488964895091"><ele>85.5</ele><time>2026-04-15T08:11:49Z</time></trkpt><trkpt lat="-26.549173084539706" lon="114.5147907357172"><ele>85.0</ele><time>2026-04-15T08:11:50Z</time></trkpt><trkpt lat="-26.548899857394257" lon="114.5146886684476"><ele>85.0</ele><time>2026-04-15T08:11:51Z</time></trkpt><trkpt lat="-26.54862449783479" lon="114.5145839512654"><ele>85.0</ele><time>2026-04-15T08:11:52Z</time></trkpt><trkpt lat="-26.548347489440978" lon="114.51447456937582"><ele>84.0</ele><time>2026-04-15T08:11:53Z</time></trkpt><trkpt lat="-26.54807039639861" lon="114.51436976462071"><ele>83.0</ele><time>2026-04-15T08:11:54Z</time></trkpt><trkpt lat="-26.54779228684663" lon="114.51426712479876"><ele>83.0</ele><time>2026-04-15T08:11:55Z</time></trkpt><trkpt lat="-26.547512341681454" lon="114.51416426750824"><ele>83.0</ele><time>2026-04-15T08:11:56Z</time></trkpt><trkpt lat="-26.547233787254235" lon="114.51406005281787"><ele>83.5</ele><time>2026-04-15T08:11:57Z</time></trkpt><trkpt lat="-26.54695914631639" lon="114.51395808240038"><ele>84.0</ele><time>2026-04-15T08:11:58Z</time></trkpt><trkpt lat="-26.546685257071346" lon="114.51385575493366"><ele>84.0</ele><time>2026-04-15T08:11:59Z</time></trkpt><trkpt lat="-26.546412684453838" lon="114.51375535083638"><ele>84.0</ele><time>2026-04-15T08:12:00Z</time></trkpt><trkpt lat="-26.546142341625426" lon="114.51365656543948"><ele>84.5</ele><time>2026-04-15T08:12:01Z</time></trkpt><trkpt lat="-26.545870756423984" lon="114.51355646364593"><ele>85.0</ele><time>2026-04-15T08:12:02Z</time></trkpt><trkpt lat="-26.54560194142579" lon="114.5134550201432"><ele>85.5</ele><time>2026-04-15T08:12:03Z</time></trkpt><trkpt lat="-26.54533294246721" lon="114.513355375321"><ele>86.0</ele><time>2026-04-15T08:12:04Z</time></trkpt><trkpt lat="-26.54506497737527" lon="114.51325754599503"><ele>86.0</ele><time>2026-04-15T08:12:05Z</time></trkpt><trkpt lat="-26.544797801653207" lon="114.51315955684453"><ele>86.0</ele><time>2026-04-15T08:12:06Z</time></trkpt><trkpt lat="-26.544532974165925" lon="114.51306364717836"><ele>86.5</ele><time>2026-04-15T08:12:07Z</time></trkpt><trkpt lat="-26.54426700053555" lon="114.51296484020818"><ele>87.0</ele><time>2026-04-15T08:12:08Z</time></trkpt><trkpt lat="-26.544004611632918" lon="114.51286830796722"><ele>85.5</ele><time>2026-04-15T08:12:09Z</time></trkpt><trkpt lat="-26.543741483929054" lon="114.51277246897575"><ele>84.0</ele><time>2026-04-15T08:12:10Z</time></trkpt><trkpt lat="-26.543475525819286" lon="114.51267359899708"><ele>84.0</ele><time>2026-04-15T08:12:11Z</time></trkpt><trkpt lat="-26.543208397978034" lon="114.512573978529"><ele>84.0</ele><time>2026-04-15T08:12:12Z</time></trkpt><trkpt lat="-26.542942111028268" lon="114.5124699151011"><ele>84.0</ele><time>2026-04-15T08:12:13Z</time></trkpt><trkpt lat="-26.542675932277504" lon="114.51236312088118"><ele>84.0</ele><time>2026-04-15T08:12:14Z</time></trkpt><trkpt lat="-26.542409029991543" lon="114.51226002603704"><ele>84.0</ele><time>2026-04-15T08:12:15Z</time></trkpt><trkpt lat="-26.54214459751297" lon="114.51215967260593"><ele>84.0</ele><time>2026-04-15T08:12:16Z</time></trkpt><trkpt lat="-26.54187882533473" lon="114.51205802890321"><ele>83.0</ele><time>2026-04-15T08:12:17Z</time></trkpt><trkpt lat="-26.541615979268457" lon="114.51195981589318"><ele>82.0</ele><time>2026-04-15T08:12:18Z</time></trkpt><trkpt lat="-26.54135299599961" lon="114.51186199200951"><ele>81.5</ele><time>2026-04-15T08:12:19Z</time></trkpt><trkpt lat="-26.54109347132543" lon="114.51176785611308"><ele>81.0</ele><time>2026-04-15T08:12:20Z</time></trkpt><trkpt lat="-26.540833501033124" lon="114.51167671246404"><ele>81.0</ele><time>2026-04-15T08:12:21Z</time></trkpt><trkpt lat="-26.540576276413937" lon="114.51158299759908"><ele>81.0</ele><time>2026-04-15T08:12:22Z</time></trkpt><trkpt lat="-26.540324370282143" lon="114.51149168739616"><ele>83.0</ele><time>2026-04-15T08:12:23Z</time></trkpt><trkpt lat="-26.540067459435093" lon="114.51139486700006"><ele>85.0</ele><time>2026-04-15T08:12:24Z</time></trkpt><trkpt lat="-26.53981729958996" lon="114.51129902429106"><ele>84.5</ele><time>2026-04-15T08:12:25Z</time></trkpt><trkpt lat="-26.539570938963337" lon="114.51120560979446"><ele>84.0</ele><time>2026-04-15T08:12:26Z</time></trkpt><trkpt lat="-26.53932565726814" lon="114.511112311728"><ele>84.0</ele><time>2026-04-15T08:12:27Z</time></trkpt><trkpt lat="-26.53907985775057" lon="114.51102412730269"><ele>84.0</ele><time>2026-04-15T08:12:28Z</time></trkpt><trkpt lat="-26.53883104482701" lon="114.51093462654177"><ele>84.5</ele><time>2026-04-15T08:12:29Z</time></trkpt><trkpt lat="-26.538583660285937" lon="114.51084485314163"><ele>85.0</ele><time>2026-04-15T08:12:30Z</time></trkpt><trkpt lat="-26.538340363848768" lon="114.5107532022269"><ele>85.0</ele><time>2026-04-15T08:12:31Z</time></trkpt><trkpt lat="-26.538098570341" lon="114.51066177434016"><ele>85.0</ele><time>2026-04-15T08:12:32Z</time></trkpt><trkpt lat="-26.537858457082226" lon="114.5105725546058"><ele>85.0</ele><time>2026-04-15T08:12:33Z</time></trkpt><trkpt lat="-26.53761436603917" lon="114.51048261223814"><ele>85.0</ele><time>2026-04-15T08:12:34Z</time></trkpt><trkpt lat="-26.537364964433767" lon="114.51039198111222"><ele>85.0</ele><time>2026-04-15T08:12:35Z</time></trkpt><trkpt lat="-26.537108905348322" lon="114.51029676173681"><ele>85.0</ele><time>2026-04-15T08:12:36Z</time></trkpt><trkpt lat="-26.53684280449387" lon="114.51019490135744"><ele>83.5</ele><time>2026-04-15T08:12:37Z</time></trkpt><trkpt lat="-26.536574594380586" lon="114.51009300821211"><ele>82.0</ele><time>2026-04-15T08:12:38Z</time></trkpt><trkpt lat="-26.53630333971497" lon="114.50999210922257"><ele>82.0</ele><time>2026-04-15T08:12:39Z</time></trkpt><trkpt lat="-26.53602956227956" lon="114.50989346132123"><ele>82.0</ele><time>2026-04-15T08:12:40Z</time></trkpt><trkpt lat="-26.53576706561981" lon="114.50977955875264"><ele>82.0</ele><time>2026-04-15T08:12:41Z</time></trkpt><trkpt lat="-26.535496497826436" lon="114.50967955046706"><ele>82.0</ele><time>2026-04-15T08:12:42Z</time></trkpt><trkpt lat="-26.535228878063315" lon="114.50959635481391"><ele>81.5</ele><time>2026-04-15T08:12:43Z</time></trkpt><trkpt lat="-26.534965888289054" lon="114.50949534406337"><ele>81.0</ele><time>2026-04-15T08:12:44Z</time></trkpt><trkpt lat="-26.534703012004588" lon="114.50939666419241"><ele>81.0</ele><time>2026-04-15T08:12:45Z</time></trkpt><trkpt lat="-26.534438300172976" lon="114.50929554738367"><ele>81.0</ele><time>2026-04-15T08:12:46Z</time></trkpt><trkpt lat="-26.534175025747285" lon="114.5091955581487"><ele>81.0</ele><time>2026-04-15T08:12:47Z</time></trkpt><trkpt lat="-26.53392639541661" lon="114.5091015470833"><ele>81.0</ele><time>2026-04-15T08:12:48Z</time></trkpt><trkpt lat="-26.533691217720555" lon="114.50901222129893"><ele>80.5</ele><time>2026-04-15T08:12:49Z</time></trkpt><trkpt lat="-26.533445219533977" lon="114.50892000444149"><ele>80.0</ele><time>2026-04-15T08:12:50Z</time></trkpt><trkpt lat="-26.533193395328" lon="114.50882746302582"><ele>80.5</ele><time>2026-04-15T08:12:51Z</time></trkpt><trkpt lat="-26.532940697982657" lon="114.50873613009792"><ele>81.0</ele><time>2026-04-15T08:12:52Z</time></trkpt><trkpt lat="-26.532685897757176" lon="114.50864104957829"><ele>80.0</ele><time>2026-04-15T08:12:53Z</time></trkpt><trkpt lat="-26.532430237114124" lon="114.50854331822586"><ele>79.0</ele><time>2026-04-15T08:12:54Z</time></trkpt><trkpt lat="-26.532175555651257" lon="114.50844765116445"><ele>79.5</ele><time>2026-04-15T08:12:55Z</time></trkpt><trkpt lat="-26.531917274187236" lon="114.50835119484726"><ele>80.0</ele><time>2026-04-15T08:12:56Z</time></trkpt><trkpt lat="-26.531656989415243" lon="114.50825225276307"><ele>80.0</ele><time>2026-04-15T08:12:57Z</time></trkpt><trkpt lat="-26.531395103789407" lon="114.50815043708644"><ele>80.0</ele><time>2026-04-15T08:12:58Z</time></trkpt><trkpt lat="-26.531134026702613" lon="114.50805163348402"><ele>79.5</ele><time>2026-04-15T08:12:59Z</time></trkpt><trkpt lat="-26.53086815737642" lon="114.50795388980696"><ele>79.0</ele><time>2026-04-15T08:13:00Z</time></trkpt><trkpt lat="-26.530603946664467" lon="114.50785809183806"><ele>79.0</ele><time>2026-04-15T08:13:01Z</time></trkpt><trkpt lat="-26.530341066066715" lon="114.50776308957857"><ele>79.0</ele><time>2026-04-15T08:13:02Z</time></trkpt><trkpt lat="-26.530078844511998" lon="114.50766672987366"><ele>79.0</ele><time>2026-04-15T08:13:03Z</time></trkpt><trkpt lat="-26.529815147196864" lon="114.50756908446276"><ele>79.0</ele><time>2026-04-15T08:13:04Z</time></trkpt><trkpt lat="-26.529548091232996" lon="114.5074690302187"><ele>78.5</ele><time>2026-04-15T08:13:05Z</time></trkpt><trkpt lat="-26.529281721722953" lon="114.5073648145054"><ele>78.0</ele><time>2026-04-15T08:13:06Z</time></trkpt><trkpt lat="-26.52901328396768" lon="114.50725934535443"><ele>78.0</ele><time>2026-04-15T08:13:07Z</time></trkpt><trkpt lat="-26.52874697776681" lon="114.50715746149763"><ele>78.0</ele><time>2026-04-15T08:13:08Z</time></trkpt><trkpt lat="-26.528473376710235" lon="114.5070564964699"><ele>79.5</ele><time>2026-04-15T08:13:09Z</time></trkpt><trkpt lat="-26.528196796708016" lon="114.5069556168929"><ele>81.0</ele><time>2026-04-15T08:13:10Z</time></trkpt><trkpt lat="-26.527923977936602" lon="114.50685688102843"><ele>81.0</ele><time>2026-04-15T08:13:11Z</time></trkpt><trkpt lat="-26.527647247493846" lon="114.50675776404404"><ele>81.0</ele><time>2026-04-15T08:13:12Z</time></trkpt><trkpt lat="-26.527372727885137" lon="114.50665735540814"><ele>81.0</ele><time>2026-04-15T08:13:13Z</time></trkpt><trkpt lat="-26.52709942390647" lon="114.50655471270531"><ele>81.0</ele><time>2026-04-15T08:13:14Z</time></trkpt><trkpt lat="-26.52682607646787" lon="114.50644996990525"><ele>81.5</ele><time>2026-04-15T08:13:15Z</time></trkpt><trkpt lat="-26.52655481423395" lon="114.50634408440833"><ele>82.0</ele><time>2026-04-15T08:13:16Z</time></trkpt><trkpt lat="-26.526283860844575" lon="114.50623941819225"><ele>81.5</ele><time>2026-04-15T08:13:17Z</time></trkpt><trkpt lat="-26.52601231591201" lon="114.50613826082976"><ele>81.0</ele><time>2026-04-15T08:13:18Z</time></trkpt><trkpt lat="-26.52574161987931" lon="114.50604038907208"><ele>81.0</ele><time>2026-04-15T08:13:19Z</time></trkpt><trkpt lat="-26.525472392365636" lon="114.50594259513991"><ele>81.0</ele><time>2026-04-15T08:13:20Z</time></trkpt><trkpt lat="-26.52520247008362" lon="114.5058444193093"><ele>81.0</ele><time>2026-04-15T08:13:21Z</time></trkpt><trkpt lat="-26.524932399257715" lon="114.50574423514892"><ele>81.0</ele><time>2026-04-15T08:13:22Z</time></trkpt><trkpt lat="-26.524663350177395" lon="114.50564487283697"><ele>81.5</ele><time>2026-04-15T08:13:23Z</time></trkpt><trkpt lat="-26.52439521799952" lon="114.5055482331813"><ele>82.0</ele><time>2026-04-15T08:13:24Z</time></trkpt><trkpt lat="-26.52412825984476" lon="114.50544971216316"><ele>81.0</ele><time>2026-04-15T08:13:25Z</time></trkpt><trkpt lat="-26.523860502157536" lon="114.50534622302632"><ele>80.0</ele><time>2026-04-15T08:13:26Z</time></trkpt><trkpt lat="-26.523594860940452" lon="114.50524242325862"><ele>80.0</ele><time>2026-04-15T08:13:27Z</time></trkpt><trkpt lat="-26.523328945269306" lon="114.50514118461425"><ele>80.0</ele><time>2026-04-15T08:13:28Z</time></trkpt><trkpt lat="-26.52306391027187" lon="114.50503669787601"><ele>80.5</ele><time>2026-04-15T08:13:29Z</time></trkpt><trkpt lat="-26.522797274207075" lon="114.50493404655285"><ele>81.0</ele><time>2026-04-15T08:13:30Z</time></trkpt><trkpt lat="-26.52252922158487" lon="114.50483725391793"><ele>81.0</ele><time>2026-04-15T08:13:31Z</time></trkpt><trkpt lat="-26.522260846612035" lon="114.50474651946567"><ele>81.0</ele><time>2026-04-15T08:13:32Z</time></trkpt><trkpt lat="-26.52198923597271" lon="114.50464972042317"><ele>80.5</ele><time>2026-04-15T08:13:33Z</time></trkpt><trkpt lat="-26.521715301532126" lon="114.5045477828651"><ele>80.0</ele><time>2026-04-15T08:13:34Z</time></trkpt><trkpt lat="-26.52144581891285" lon="114.50444516514422"><ele>79.0</ele><time>2026-04-15T08:13:35Z</time></trkpt><trkpt lat="-26.52117424122514" lon="114.50434329665606"><ele>78.0</ele><time>2026-04-15T08:13:36Z</time></trkpt><trkpt lat="-26.52090356043276" lon="114.50424349153813"><ele>78.0</ele><time>2026-04-15T08:13:37Z</time></trkpt><trkpt lat="-26.520635482032088" lon="114.50414286734784"><ele>78.0</ele><time>2026-04-15T08:13:38Z</time></trkpt><trkpt lat="-26.52036420712161" lon="114.50404092852416"><ele>77.5</ele><time>2026-04-15T08:13:39Z</time></trkpt><trkpt lat="-26.520093066731256" lon="114.50394025562936"><ele>77.0</ele><time>2026-04-15T08:13:40Z</time></trkpt><trkpt lat="-26.519818938018997" lon="114.50383866562927"><ele>76.0</ele><time>2026-04-15T08:13:41Z</time></trkpt><trkpt lat="-26.519544116338" lon="114.50373893834629"><ele>75.0</ele><time>2026-04-15T08:13:42Z</time></trkpt><trkpt lat="-26.519265997914296" lon="114.50363692947688"><ele>75.0</ele><time>2026-04-15T08:13:43Z</time></trkpt><trkpt lat="-26.518987850211467" lon="114.50353234192009"><ele>75.0</ele><time>2026-04-15T08:13:44Z</time></trkpt><trkpt lat="-26.51870685098455" lon="114.50342236384206"><ele>75.0</ele><time>2026-04-15T08:13:45Z</time></trkpt><trkpt lat="-26.518422347693985" lon="114.50330855323105"><ele>75.0</ele><time>2026-04-15T08:13:46Z</time></trkpt><trkpt lat="-26.518142847446768" lon="114.50320000082586"><ele>75.0</ele><time>2026-04-15T08:13:47Z</time></trkpt><trkpt lat="-26.51786624968199" lon="114.50309943330902"><ele>75.0</ele><time>2026-04-15T08:13:48Z</time></trkpt><trkpt lat="-26.51759246669989" lon="114.50300322582933"><ele>75.0</ele><time>2026-04-15T08:13:49Z</time></trkpt><trkpt lat="-26.517319656850372" lon="114.50290770161779"><ele>75.0</ele><time>2026-04-15T08:13:50Z</time></trkpt><trkpt lat="-26.517048737242217" lon="114.5028107963172"><ele>74.0</ele><time>2026-04-15T08:13:51Z</time></trkpt><trkpt lat="-26.516778864942747" lon="114.50270938906466"><ele>73.0</ele><time>2026-04-15T08:13:52Z</time></trkpt><trkpt lat="-26.51651377708529" lon="114.50260607210748"><ele>73.0</ele><time>2026-04-15T08:13:53Z</time></trkpt><trkpt lat="-26.516249014336335" lon="114.5025003775856"><ele>73.0</ele><time>2026-04-15T08:13:54Z</time></trkpt><trkpt lat="-26.51598562181735" lon="114.50239833771401"><ele>73.0</ele><time>2026-04-15T08:13:55Z</time></trkpt><trkpt lat="-26.51572382575999" lon="114.50230189836005"><ele>73.0</ele><time>2026-04-15T08:13:56Z</time></trkpt><trkpt lat="-26.515457429419744" lon="114.50220270772472"><ele>72.5</ele><time>2026-04-15T08:13:57Z</time></trkpt><trkpt lat="-26.515192457146334" lon="114.50210581669887"><ele>72.0</ele><time>2026-04-15T08:13:58Z</time></trkpt><trkpt lat="-26.51492580057926" lon="114.50200990500758"><ele>71.0</ele><time>2026-04-15T08:13:59Z</time></trkpt><trkpt lat="-26.514660337035426" lon="114.50191629186874"><ele>70.0</ele><time>2026-04-15T08:14:00Z</time></trkpt><trkpt lat="-26.514396670234408" lon="114.50181991721414"><ele>72.0</ele><time>2026-04-15T08:14:01Z</time></trkpt><trkpt lat="-26.51413667732508" lon="114.50172082225806"><ele>74.0</ele><time>2026-04-15T08:14:02Z</time></trkpt><trkpt lat="-26.513878193846587" lon="114.50162521188342"><ele>73.5</ele><time>2026-04-15T08:14:03Z</time></trkpt><trkpt lat="-26.51361664465087" lon="114.50152864692467"><ele>73.0</ele><time>2026-04-15T08:14:04Z</time></trkpt><trkpt lat="-26.513354211195235" lon="114.50142806099508"><ele>73.0</ele><time>2026-04-15T08:14:05Z</time></trkpt><trkpt lat="-26.513092190912257" lon="114.50132712358221"><ele>73.0</ele><time>2026-04-15T08:14:06Z</time></trkpt><trkpt lat="-26.512830753232855" lon="114.50122614511712"><ele>73.0</ele><time>2026-04-15T08:14:07Z</time></trkpt><trkpt lat="-26.512570057986718" lon="114.50112497431984"><ele>73.0</ele><time>2026-04-15T08:14:08Z</time></trkpt><trkpt lat="-26.512310593584814" lon="114.50102399230464"><ele>73.0</ele><time>2026-04-15T08:14:09Z</time></trkpt><trkpt lat="-26.512049143987355" lon="114.50092536193642"><ele>73.0</ele><time>2026-04-15T08:14:10Z</time></trkpt><trkpt lat="-26.511789198318294" lon="114.50083041239033"><ele>73.0</ele><time>2026-04-15T08:14:11Z</time></trkpt><trkpt lat="-26.511532543359266" lon="114.50073977721743"><ele>73.0</ele><time>2026-04-15T08:14:12Z</time></trkpt><trkpt lat="-26.51127447442575" lon="114.50064675440922"><ele>73.5</ele><time>2026-04-15T08:14:13Z</time></trkpt><trkpt lat="-26.511010955251773" lon="114.50054989075278"><ele>74.0</ele><time>2026-04-15T08:14:14Z</time></trkpt><trkpt lat="-26.51074914052039" lon="114.50045642338823"><ele>74.0</ele><time>2026-04-15T08:14:15Z</time></trkpt><trkpt lat="-26.51048597850419" lon="114.50036138590865"><ele>74.0</ele><time>2026-04-15T08:14:16Z</time></trkpt><trkpt lat="-26.51022359503058" lon="114.50026301893342"><ele>74.0</ele><time>2026-04-15T08:14:17Z</time></trkpt><trkpt lat="-26.509965485491822" lon="114.50016216394219"><ele>74.0</ele><time>2026-04-15T08:14:18Z</time></trkpt><trkpt lat="-26.509706148978875" lon="114.50005760300682"><ele>73.5</ele><time>2026-04-15T08:14:19Z</time></trkpt><trkpt lat="-26.509446620831845" lon="114.49995796145978"><ele>73.0</ele><time>2026-04-15T08:14:20Z</time></trkpt><trkpt lat="-26.509183976130767" lon="114.499860938188"><ele>73.0</ele><time>2026-04-15T08:14:21Z</time></trkpt><trkpt lat="-26.50892427837688" lon="114.4997682319127"><ele>73.0</ele><time>2026-04-15T08:14:22Z</time></trkpt><trkpt lat="-26.508664175707654" lon="114.49967456071968"><ele>73.5</ele><time>2026-04-15T08:14:23Z</time></trkpt><trkpt lat="-26.508405442062593" lon="114.4995803064647"><ele>74.0</ele><time>2026-04-15T08:14:24Z</time></trkpt><trkpt lat="-26.508148974374592" lon="114.4994823930097"><ele>74.5</ele><time>2026-04-15T08:14:25Z</time></trkpt><trkpt lat="-26.50788991711828" lon="114.4993828722235"><ele>75.0</ele><time>2026-04-15T08:14:26Z</time></trkpt><trkpt lat="-26.507631499099617" lon="114.49928450891947"><ele>75.0</ele><time>2026-04-15T08:14:27Z</time></trkpt><trkpt lat="-26.507372472233687" lon="114.49918604865437"><ele>75.0</ele><time>2026-04-15T08:14:28Z</time></trkpt><trkpt lat="-26.5071095137007" lon="114.49908747695177"><ele>75.0</ele><time>2026-04-15T08:14:29Z</time></trkpt><trkpt lat="-26.506843956822966" lon="114.4989884170224"><ele>75.0</ele><time>2026-04-15T08:14:30Z</time></trkpt><trkpt lat="-26.506577966694937" lon="114.49889079656596"><ele>75.0</ele><time>2026-04-15T08:14:31Z</time></trkpt><trkpt lat="-26.506311649723983" lon="114.49879443871161"><ele>75.0</ele><time>2026-04-15T08:14:32Z</time></trkpt><trkpt lat="-26.50604871277309" lon="114.49869952342802"><ele>74.5</ele><time>2026-04-15T08:14:33Z</time></trkpt><trkpt lat="-26.505785991235303" lon="114.49860199737071"><ele>74.0</ele><time>2026-04-15T08:14:34Z</time></trkpt><trkpt lat="-26.505521326800498" lon="114.49850408147759"><ele>74.5</ele><time>2026-04-15T08:14:35Z</time></trkpt><trkpt lat="-26.505257340107146" lon="114.49840802450802"><ele>75.0</ele><time>2026-04-15T08:14:36Z</time></trkpt><trkpt lat="-26.504994249159296" lon="114.49831093508315"><ele>75.0</ele><time>2026-04-15T08:14:37Z</time></trkpt><trkpt lat="-26.504728459844127" lon="114.49820873329713"><ele>75.0</ele><time>2026-04-15T08:14:38Z</time></trkpt><trkpt lat="-26.504464841182248" lon="114.49810549145613"><ele>74.5</ele><time>2026-04-15T08:14:39Z</time></trkpt><trkpt lat="-26.504201545194466" lon="114.498004297048"><ele>74.0</ele><time>2026-04-15T08:14:40Z</time></trkpt><trkpt lat="-26.503937642216112" lon="114.49790495893157"><ele>74.5</ele><time>2026-04-15T08:14:41Z</time></trkpt><trkpt lat="-26.503675518336497" lon="114.49780610334706"><ele>75.0</ele><time>2026-04-15T08:14:42Z</time></trkpt><trkpt lat="-26.503411838474108" lon="114.49770894386364"><ele>75.0</ele><time>2026-04-15T08:14:43Z</time></trkpt><trkpt lat="-26.503147128291843" lon="114.4976139257185"><ele>75.0</ele><time>2026-04-15T08:14:44Z</time></trkpt><trkpt lat="-26.502882314299057" lon="114.4975184878746"><ele>75.0</ele><time>2026-04-15T08:14:45Z</time></trkpt><trkpt lat="-26.5026189159084" lon="114.49742242381049"><ele>75.0</ele><time>2026-04-15T08:14:46Z</time></trkpt><trkpt lat="-26.502358510757272" lon="114.49732541408605"><ele>75.0</ele><time>2026-04-15T08:14:47Z</time></trkpt><trkpt lat="-26.502097049674067" lon="114.4972241353405"><ele>75.0</ele><time>2026-04-15T08:14:48Z</time></trkpt><trkpt lat="-26.5018354475354" lon="114.4971240851116"><ele>76.0</ele><time>2026-04-15T08:14:49Z</time></trkpt><trkpt lat="-26.50157021075226" lon="114.4970249031834"><ele>77.0</ele><time>2026-04-15T08:14:50Z</time></trkpt><trkpt lat="-26.501307004721966" lon="114.4969294050895"><ele>77.0</ele><time>2026-04-15T08:14:51Z</time></trkpt><trkpt lat="-26.501043527072845" lon="114.49683264722975"><ele>77.0</ele><time>2026-04-15T08:14:52Z</time></trkpt><trkpt lat="-26.50077896198405" lon="114.49673437608426"><ele>77.0</ele><time>2026-04-15T08:14:53Z</time></trkpt><trkpt lat="-26.5005154744303" lon="114.49663903301386"><ele>77.0</ele><time>2026-04-15T08:14:54Z</time></trkpt><trkpt lat="-26.500253311109496" lon="114.49654445958711"><ele>76.0</ele><time>2026-04-15T08:14:55Z</time></trkpt><trkpt lat="-26.49998801501802" lon="114.49644393593317"><ele>75.0</ele><time>2026-04-15T08:14:56Z</time></trkpt><trkpt lat="-26.499726054740155" lon="114.49634132314635"><ele>74.5</ele><time>2026-04-15T08:14:57Z</time></trkpt><trkpt lat="-26.499468553876042" lon="114.49624122929346"><ele>74.0</ele><time>2026-04-15T08:14:58Z</time></trkpt><trkpt lat="-26.49921179066665" lon="114.49614372223692"><ele>74.0</ele><time>2026-04-15T08:14:59Z</time></trkpt><trkpt lat="-26.498952217703906" lon="114.49604888614878"><ele>74.0</ele><time>2026-04-15T08:15:00Z</time></trkpt><trkpt lat="-26.498691921284777" lon="114.49595674033527"><ele>74.0</ele><time>2026-04-15T08:15:01Z</time></trkpt><trkpt lat="-26.49843328144644" lon="114.49586423107652"><ele>74.0</ele><time>2026-04-15T08:15:02Z</time></trkpt><trkpt lat="-26.498174343762628" lon="114.49577075677621"><ele>74.0</ele><time>2026-04-15T08:15:03Z</time></trkpt><trkpt lat="-26.49792050221126" lon="114.49567573029461"><ele>74.0</ele><time>2026-04-15T08:15:04Z</time></trkpt><trkpt lat="-26.497666645794663" lon="114.49557723355177"><ele>74.5</ele><time>2026-04-15T08:15:05Z</time></trkpt><trkpt lat="-26.4974135502427" lon="114.49547807879482"><ele>75.0</ele><time>2026-04-15T08:15:06Z</time></trkpt><trkpt lat="-26.497156916203988" lon="114.49537965987675"><ele>74.0</ele><time>2026-04-15T08:15:07Z</time></trkpt><trkpt lat="-26.496898267399075" lon="114.49528313743436"><ele>73.0</ele><time>2026-04-15T08:15:08Z</time></trkpt><trkpt lat="-26.49663761935636" lon="114.49518967057541"><ele>73.0</ele><time>2026-04-15T08:15:09Z</time></trkpt><trkpt lat="-26.496374242469972" lon="114.4950956801498"><ele>73.0</ele><time>2026-04-15T08:15:10Z</time></trkpt><trkpt lat="-26.49611299455597" lon="114.49500237579976"><ele>72.5</ele><time>2026-04-15T08:15:11Z</time></trkpt><trkpt lat="-26.495853163735866" lon="114.49490678716774"><ele>72.0</ele><time>2026-04-15T08:15:12Z</time></trkpt><trkpt lat="-26.49559053895502" lon="114.49480651529093"><ele>71.0</ele><time>2026-04-15T08:15:13Z</time></trkpt><trkpt lat="-26.49532479979405" lon="114.49470426532507"><ele>70.0</ele><time>2026-04-15T08:15:14Z</time></trkpt><trkpt lat="-26.49505467652046" lon="114.4945999226346"><ele>70.0</ele><time>2026-04-15T08:15:15Z</time></trkpt><trkpt lat="-26.494785420907448" lon="114.49449790794552"><ele>70.0</ele><time>2026-04-15T08:15:16Z</time></trkpt><trkpt lat="-26.494517040317643" lon="114.49440143383339"><ele>70.5</ele><time>2026-04-15T08:15:17Z</time></trkpt><trkpt lat="-26.49424362823091" lon="114.49430057829206"><ele>71.0</ele><time>2026-04-15T08:15:18Z</time></trkpt><trkpt lat="-26.49397163162523" lon="114.49419945994006"><ele>71.0</ele><time>2026-04-15T08:15:19Z</time></trkpt><trkpt lat="-26.49369747287373" lon="114.49409603512547"><ele>71.0</ele><time>2026-04-15T08:15:20Z</time></trkpt><trkpt lat="-26.49342543254008" lon="114.49399232777915"><ele>71.0</ele><time>2026-04-15T08:15:21Z</time></trkpt><trkpt lat="-26.493157393023445" lon="114.49388986176275"><ele>71.0</ele><time>2026-04-15T08:15:22Z</time></trkpt><trkpt lat="-26.492888818609604" lon="114.49378925745263"><ele>72.0</ele><time>2026-04-15T08:15:23Z</time></trkpt><trkpt lat="-26.492623557885153" lon="114.49369342236976"><ele>73.0</ele><time>2026-04-15T08:15:24Z</time></trkpt><trkpt lat="-26.492357280949015" lon="114.49359897704393"><ele>73.0</ele><time>2026-04-15T08:15:25Z</time></trkpt><trkpt lat="-26.49209067914324" lon="114.49350095060164"><ele>73.0</ele><time>2026-04-15T08:15:26Z</time></trkpt><trkpt lat="-26.491824049368134" lon="114.4934028722533"><ele>73.0</ele><time>2026-04-15T08:15:27Z</time></trkpt><trkpt lat="-26.49155635222988" lon="114.4933029754761"><ele>73.0</ele><time>2026-04-15T08:15:28Z</time></trkpt><trkpt lat="-26.491286593492706" lon="114.49320052861579"><ele>72.0</ele><time>2026-04-15T08:15:29Z</time></trkpt><trkpt lat="-26.491013966505417" lon="114.49309702252194"><ele>71.0</ele><time>2026-04-15T08:15:30Z</time></trkpt><trkpt lat="-26.49073871242405" lon="114.4929933919008"><ele>70.5</ele><time>2026-04-15T08:15:31Z</time></trkpt><trkpt lat="-26.490461438557613" lon="114.49289015710293"><ele>70.0</ele><time>2026-04-15T08:15:32Z</time></trkpt><trkpt lat="-26.490183907995878" lon="114.4927893817782"><ele>68.5</ele><time>2026-04-15T08:15:33Z</time></trkpt><trkpt lat="-26.48990594024337" lon="114.49268811132099"><ele>67.0</ele><time>2026-04-15T08:15:34Z</time></trkpt><trkpt lat="-26.489626860542998" lon="114.49258541121527"><ele>68.0</ele><time>2026-04-15T08:15:35Z</time></trkpt><trkpt lat="-26.489344583433176" lon="114.49247899159721"><ele>69.0</ele><time>2026-04-15T08:15:36Z</time></trkpt><trkpt lat="-26.489063260861037" lon="114.49237136410858"><ele>69.0</ele><time>2026-04-15T08:15:37Z</time></trkpt><trkpt lat="-26.488784257106705" lon="114.49226517974864"><ele>69.0</ele><time>2026-04-15T08:15:38Z</time></trkpt><trkpt lat="-26.488504560761836" lon="114.49215869996914"><ele>70.5</ele><time>2026-04-15T08:15:39Z</time></trkpt><trkpt lat="-26.488227250216624" lon="114.49205840175941"><ele>72.0</ele><time>2026-04-15T08:15:40Z</time></trkpt><trkpt lat="-26.487946395986036" lon="114.49195805701159"><ele>73.0</ele><time>2026-04-15T08:15:41Z</time></trkpt><trkpt lat="-26.48766622672279" lon="114.49185610715618"><ele>74.0</ele><time>2026-04-15T08:15:42Z</time></trkpt><trkpt lat="-26.487381849021716" lon="114.49175433656484"><ele>74.0</ele><time>2026-04-15T08:15:43Z</time></trkpt><trkpt lat="-26.48709602836017" lon="114.49165236615963"><ele>74.0</ele><time>2026-04-15T08:15:44Z</time></trkpt><trkpt lat="-26.486809191582527" lon="114.49154572847809"><ele>73.5</ele><time>2026-04-15T08:15:45Z</time></trkpt><trkpt lat="-26.486524597157718" lon="114.49143699868074"><ele>73.0</ele><time>2026-04-15T08:15:46Z</time></trkpt><trkpt lat="-26.486239807868706" lon="114.49132791409939"><ele>71.5</ele><time>2026-04-15T08:15:47Z</time></trkpt><trkpt lat="-26.485956946905695" lon="114.49122091677987"><ele>70.0</ele><time>2026-04-15T08:15:48Z</time></trkpt><trkpt lat="-26.48567284313023" lon="114.49111290240326"><ele>70.5</ele><time>2026-04-15T08:15:49Z</time></trkpt><trkpt lat="-26.485391462651226" lon="114.49100546713203"><ele>71.0</ele><time>2026-04-15T08:15:50Z</time></trkpt><trkpt lat="-26.48510784917209" lon="114.49089755933277"><ele>71.0</ele><time>2026-04-15T08:15:51Z</time></trkpt><trkpt lat="-26.484825918380373" lon="114.49079239937876"><ele>71.0</ele><time>2026-04-15T08:15:52Z</time></trkpt><trkpt lat="-26.484544650364313" lon="114.49068833831278"><ele>71.5</ele><time>2026-04-15T08:15:53Z</time></trkpt><trkpt lat="-26.484265642090314" lon="114.4905833098908"><ele>72.0</ele><time>2026-04-15T08:15:54Z</time></trkpt><trkpt lat="-26.48398403974128" lon="114.49047746398861"><ele>72.0</ele><time>2026-04-15T08:15:55Z</time></trkpt><trkpt lat="-26.483703651790368" lon="114.49037782909059"><ele>72.0</ele><time>2026-04-15T08:15:56Z</time></trkpt><trkpt lat="-26.48342707394335" lon="114.49027994750861"><ele>72.0</ele><time>2026-04-15T08:15:57Z</time></trkpt><trkpt lat="-26.48315050450332" lon="114.49017876472556"><ele>72.0</ele><time>2026-04-15T08:15:58Z</time></trkpt><trkpt lat="-26.48287335562886" lon="114.49007403446832"><ele>72.5</ele><time>2026-04-15T08:15:59Z</time></trkpt><trkpt lat="-26.48260114291069" lon="114.48997005090834"><ele>73.0</ele><time>2026-04-15T08:16:00Z</time></trkpt><trkpt lat="-26.482325056646797" lon="114.48986621664564"><ele>73.0</ele><time>2026-04-15T08:16:01Z</time></trkpt><trkpt lat="-26.482050056234236" lon="114.4897630058217"><ele>73.0</ele><time>2026-04-15T08:16:02Z</time></trkpt><trkpt lat="-26.481776115963132" lon="114.48966251367176"><ele>73.5</ele><time>2026-04-15T08:16:03Z</time></trkpt><trkpt lat="-26.481504025083687" lon="114.48956198621127"><ele>74.0</ele><time>2026-04-15T08:16:04Z</time></trkpt><trkpt lat="-26.481229265325254" lon="114.48945905257095"><ele>73.0</ele><time>2026-04-15T08:16:05Z</time></trkpt><trkpt lat="-26.480953330299222" lon="114.48935616677578"><ele>72.0</ele><time>2026-04-15T08:16:06Z</time></trkpt><trkpt lat="-26.480679043100203" lon="114.48925569246535"><ele>72.5</ele><time>2026-04-15T08:16:07Z</time></trkpt><trkpt lat="-26.480405541114376" lon="114.48915480682615"><ele>73.0</ele><time>2026-04-15T08:16:08Z</time></trkpt><trkpt lat="-26.48013088843067" lon="114.48905204990004"><ele>73.0</ele><time>2026-04-15T08:16:09Z</time></trkpt><trkpt lat="-26.479858214099302" lon="114.48894982376937"><ele>73.0</ele><time>2026-04-15T08:16:10Z</time></trkpt><trkpt lat="-26.479583698341056" lon="114.48884640124108"><ele>73.0</ele><time>2026-04-15T08:16:11Z</time></trkpt><trkpt lat="-26.47930824455844" lon="114.48874158276307"><ele>73.0</ele><time>2026-04-15T08:16:12Z</time></trkpt><trkpt lat="-26.47903192502679" lon="114.48863513961372"><ele>73.0</ele><time>2026-04-15T08:16:13Z</time></trkpt><trkpt lat="-26.47875344066369" lon="114.48853041506644"><ele>73.0</ele><time>2026-04-15T08:16:14Z</time></trkpt><trkpt lat="-26.4784745117673" lon="114.48842559089935"><ele>73.0</ele><time>2026-04-15T08:16:15Z</time></trkpt><trkpt lat="-26.47819458081963" lon="114.48832013806862"><ele>73.0</ele><time>2026-04-15T08:16:16Z</time></trkpt><trkpt lat="-26.477914330705975" lon="114.48821881362099"><ele>73.0</ele><time>2026-04-15T08:16:17Z</time></trkpt><trkpt lat="-26.477635246449594" lon="114.48811953403602"><ele>73.0</ele><time>2026-04-15T08:16:18Z</time></trkpt><trkpt lat="-26.477356890159687" lon="114.4880200758874"><ele>73.5</ele><time>2026-04-15T08:16:19Z</time></trkpt><trkpt lat="-26.477074323606413" lon="114.48791849064484"><ele>74.0</ele><time>2026-04-15T08:16:20Z</time></trkpt><trkpt lat="-26.476792750883302" lon="114.48781344868367"><ele>74.0</ele><time>2026-04-15T08:16:21Z</time></trkpt><trkpt lat="-26.476510810295473" lon="114.48770726588259"><ele>74.0</ele><time>2026-04-15T08:16:22Z</time></trkpt><trkpt lat="-26.47623187682134" lon="114.48760267775837"><ele>74.0</ele><time>2026-04-15T08:16:23Z</time></trkpt><trkpt lat="-26.47595348456375" lon="114.4874986660824"><ele>74.0</ele><time>2026-04-15T08:16:24Z</time></trkpt><trkpt lat="-26.47567597802042" lon="114.48739133915326"><ele>74.5</ele><time>2026-04-15T08:16:25Z</time></trkpt><trkpt lat="-26.475400121505267" lon="114.48728560649053"><ele>75.0</ele><time>2026-04-15T08:16:26Z</time></trkpt><trkpt lat="-26.47512085666742" lon="114.48718244672202"><ele>74.5</ele><time>2026-04-15T08:16:27Z</time></trkpt><trkpt lat="-26.474843647650697" lon="114.4870820808207"><ele>74.0</ele><time>2026-04-15T08:16:28Z</time></trkpt><trkpt lat="-26.47456827637042" lon="114.486982935897"><ele>74.0</ele><time>2026-04-15T08:16:29Z</time></trkpt><trkpt lat="-26.47429094173137" lon="114.48688325404125"><ele>74.0</ele><time>2026-04-15T08:16:30Z</time></trkpt><trkpt lat="-26.474018418979412" lon="114.48678335361289"><ele>74.0</ele><time>2026-04-15T08:16:31Z</time></trkpt><trkpt lat="-26.473747285635554" lon="114.48668414111366"><ele>74.0</ele><time>2026-04-15T08:16:32Z</time></trkpt><trkpt lat="-26.473496917541635" lon="114.48659033189256"><ele>74.0</ele><time>2026-04-15T08:16:33Z</time></trkpt><trkpt lat="-26.473260890598322" lon="114.48650259078428"><ele>74.0</ele><time>2026-04-15T08:16:34Z</time></trkpt><trkpt lat="-26.473018785136436" lon="114.48640993321125"><ele>74.0</ele><time>2026-04-15T08:16:35Z</time></trkpt><trkpt lat="-26.472763831963746" lon="114.48631428086739"><ele>74.0</ele><time>2026-04-15T08:16:36Z</time></trkpt><trkpt lat="-26.472501177161558" lon="114.48621794542089"><ele>73.5</ele><time>2026-04-15T08:16:37Z</time></trkpt><trkpt lat="-26.472231907746774" lon="114.48611951172492"><ele>73.0</ele><time>2026-04-15T08:16:38Z</time></trkpt><trkpt lat="-26.47196203448717" lon="114.48601489502933"><ele>74.0</ele><time>2026-04-15T08:16:39Z</time></trkpt><trkpt lat="-26.47169311373052" lon="114.48591002860618"><ele>75.0</ele><time>2026-04-15T08:16:40Z</time></trkpt><trkpt lat="-26.47142648100126" lon="114.48580905152697"><ele>74.5</ele><time>2026-04-15T08:16:41Z</time></trkpt><trkpt lat="-26.471155920390924" lon="114.4857110822981"><ele>74.0</ele><time>2026-04-15T08:16:42Z</time></trkpt><trkpt lat="-26.470884491776832" lon="114.48561254936212"><ele>74.0</ele><time>2026-04-15T08:16:43Z</time></trkpt><trkpt lat="-26.47061110340089" lon="114.48551126662258"><ele>74.0</ele><time>2026-04-15T08:16:44Z</time></trkpt><trkpt lat="-26.470337505585505" lon="114.48541116975738"><ele>74.5</ele><time>2026-04-15T08:16:45Z</time></trkpt><trkpt lat="-26.47006347270576" lon="114.4853128078181"><ele>75.0</ele><time>2026-04-15T08:16:46Z</time></trkpt><trkpt lat="-26.469787884747994" lon="114.48521382309127"><ele>76.0</ele><time>2026-04-15T08:16:47Z</time></trkpt><trkpt lat="-26.46951510707587" lon="114.48511663477275"><ele>77.0</ele><time>2026-04-15T08:16:48Z</time></trkpt><trkpt lat="-26.469237459613527" lon="114.48501662288622"><ele>77.0</ele><time>2026-04-15T08:16:49Z</time></trkpt><trkpt lat="-26.46895883216894" lon="114.48491318608576"><ele>77.0</ele><time>2026-04-15T08:16:50Z</time></trkpt><trkpt lat="-26.46868437918663" lon="114.4848076208981"><ele>75.5</ele><time>2026-04-15T08:16:51Z</time></trkpt><trkpt lat="-26.46840728635348" lon="114.48470414348203"><ele>74.0</ele><time>2026-04-15T08:16:52Z</time></trkpt><trkpt lat="-26.468132456886355" lon="114.48460382356294"><ele>73.0</ele><time>2026-04-15T08:16:53Z</time></trkpt><trkpt lat="-26.467859923615332" lon="114.48450169655246"><ele>72.0</ele><time>2026-04-15T08:16:54Z</time></trkpt><trkpt lat="-26.467589430851625" lon="114.48439983349809"><ele>72.0</ele><time>2026-04-15T08:16:55Z</time></trkpt><trkpt lat="-26.467316045936553" lon="114.48429928002238"><ele>72.0</ele><time>2026-04-15T08:16:56Z</time></trkpt><trkpt lat="-26.46704242142898" lon="114.48419990845865"><ele>72.5</ele><time>2026-04-15T08:16:57Z</time></trkpt><trkpt lat="-26.466766532648883" lon="114.48409952142823"><ele>73.0</ele><time>2026-04-15T08:16:58Z</time></trkpt><trkpt lat="-26.466490222048645" lon="114.48399659870549"><ele>73.0</ele><time>2026-04-15T08:16:59Z</time></trkpt><trkpt lat="-26.466212505465677" lon="114.48389069017391"><ele>73.0</ele><time>2026-04-15T08:17:00Z</time></trkpt><trkpt lat="-26.465935790320028" lon="114.48378364916182"><ele>73.5</ele><time>2026-04-15T08:17:01Z</time></trkpt><trkpt lat="-26.46565955728899" lon="114.48368233857026"><ele>74.0</ele><time>2026-04-15T08:17:02Z</time></trkpt><trkpt lat="-26.46538368768151" lon="114.48358451676168"><ele>75.0</ele><time>2026-04-15T08:17:03Z</time></trkpt><trkpt lat="-26.465107643104083" lon="114.48348614325162"><ele>76.0</ele><time>2026-04-15T08:17:04.001Z</time></trkpt><trkpt lat="-26.46483235225184" lon="114.4833869240976"><ele>75.5</ele><time>2026-04-15T08:17:05.001Z</time></trkpt><trkpt lat="-26.464558394529462" lon="114.48328381793768"><ele>75.0</ele><time>2026-04-15T08:17:06.001Z</time></trkpt><trkpt lat="-26.464286643271766" lon="114.48318092145435"><ele>75.0</ele><time>2026-04-15T08:17:07.001Z</time></trkpt><trkpt lat="-26.46401515231585" lon="114.48307756044558"><ele>75.0</ele><time>2026-04-15T08:17:08.001Z</time></trkpt><trkpt lat="-26.46374362651625" lon="114.48297286253018"><ele>75.5</ele><time>2026-04-15T08:17:09.001Z</time></trkpt><trkpt lat="-26.463472630202094" lon="114.48287144464503"><ele>76.0</ele><time>2026-04-15T08:17:10.001Z</time></trkpt><trkpt lat="-26.46319920577919" lon="114.48277114414795"><ele>74.5</ele><time>2026-04-15T08:17:11.001Z</time></trkpt><trkpt lat="-26.46292676596417" lon="114.48266971302317"><ele>73.0</ele><time>2026-04-15T08:17:12.001Z</time></trkpt><trkpt lat="-26.462654632020023" lon="114.48256785141277"><ele>73.0</ele><time>2026-04-15T08:17:13.001Z</time></trkpt><trkpt lat="-26.462382341392704" lon="114.4824708451337"><ele>73.0</ele><time>2026-04-15T08:17:14.001Z</time></trkpt><trkpt lat="-26.46210896586971" lon="114.48237256600412"><ele>74.0</ele><time>2026-04-15T08:17:15.001Z</time></trkpt><trkpt lat="-26.461837647341053" lon="114.48226835600758"><ele>75.0</ele><time>2026-04-15T08:17:16.001Z</time></trkpt><trkpt lat="-26.461564298867266" lon="114.48216168232535"><ele>74.5</ele><time>2026-04-15T08:17:17.001Z</time></trkpt><trkpt lat="-26.461289388733082" lon="114.4820565623022"><ele>74.0</ele><time>2026-04-15T08:17:18.001Z</time></trkpt><trkpt lat="-26.461011939191184" lon="114.48195299280646"><ele>74.0</ele><time>2026-04-15T08:17:19.001Z</time></trkpt><trkpt lat="-26.46073318015613" lon="114.48184905942325"><ele>74.0</ele><time>2026-04-15T08:17:20.001Z</time></trkpt><trkpt lat="-26.46045390306821" lon="114.48174594751606"><ele>74.0</ele><time>2026-04-15T08:17:21.001Z</time></trkpt><trkpt lat="-26.460174135703173" lon="114.48164163911532"><ele>74.0</ele><time>2026-04-15T08:17:22.001Z</time></trkpt><trkpt lat="-26.459896915133157" lon="114.48153732116528"><ele>74.0</ele><time>2026-04-15T08:17:23.001Z</time></trkpt><trkpt lat="-26.459618743535778" lon="114.48143327212318"><ele>74.0</ele><time>2026-04-15T08:17:24.001Z</time></trkpt><trkpt lat="-26.45934212219903" lon="114.48132842379603"><ele>74.0</ele><time>2026-04-15T08:17:25.001Z</time></trkpt><trkpt lat="-26.459064187598887" lon="114.48122449980731"><ele>74.0</ele><time>2026-04-15T08:17:26.001Z</time></trkpt><trkpt lat="-26.45878790326667" lon="114.48112401266964"><ele>73.0</ele><time>2026-04-15T08:17:27.001Z</time></trkpt><trkpt lat="-26.458510367516926" lon="114.48102502291952"><ele>72.0</ele><time>2026-04-15T08:17:28.001Z</time></trkpt><trkpt lat="-26.458235450498204" lon="114.48092326896419"><ele>72.0</ele><time>2026-04-15T08:17:29.001Z</time></trkpt><trkpt lat="-26.457962346524372" lon="114.48082268340944"><ele>72.0</ele><time>2026-04-15T08:17:30.001Z</time></trkpt><trkpt lat="-26.457688490217233" lon="114.48072319828375"><ele>72.0</ele><time>2026-04-15T08:17:31.001Z</time></trkpt><trkpt lat="-26.45741733137438" lon="114.4806233016012"><ele>72.0</ele><time>2026-04-15T08:17:32.001Z</time></trkpt><trkpt lat="-26.45714532739186" lon="114.48052045518583"><ele>72.5</ele><time>2026-04-15T08:17:33.001Z</time></trkpt><trkpt lat="-26.45687262295111" lon="114.48041491658334"><ele>73.0</ele><time>2026-04-15T08:17:34.001Z</time></trkpt><trkpt lat="-26.456602914810045" lon="114.48031247539589"><ele>73.0</ele><time>2026-04-15T08:17:35.001Z</time></trkpt><trkpt lat="-26.456331381365093" lon="114.48021275088875"><ele>73.0</ele><time>2026-04-15T08:17:36.001Z</time></trkpt><trkpt lat="-26.456061108048893" lon="114.48011498472965"><ele>73.0</ele><time>2026-04-15T08:17:37.001Z</time></trkpt><trkpt lat="-26.45578957755727" lon="114.48001259073288"><ele>73.0</ele><time>2026-04-15T08:17:38.001Z</time></trkpt><trkpt lat="-26.455520218660137" lon="114.47991033233274"><ele>74.0</ele><time>2026-04-15T08:17:39.001Z</time></trkpt><trkpt lat="-26.455247636759047" lon="114.47980985358477"><ele>75.0</ele><time>2026-04-15T08:17:40.001Z</time></trkpt><trkpt lat="-26.45497536524301" lon="114.47970908270716"><ele>75.0</ele><time>2026-04-15T08:17:41.001Z</time></trkpt><trkpt lat="-26.454705767484356" lon="114.47960672563038"><ele>75.0</ele><time>2026-04-15T08:17:42.001Z</time></trkpt><trkpt lat="-26.45443560773688" lon="114.4795061016206"><ele>74.5</ele><time>2026-04-15T08:17:43.001Z</time></trkpt><trkpt lat="-26.45416526297712" lon="114.47940549538822"><ele>74.0</ele><time>2026-04-15T08:17:44.001Z</time></trkpt><trkpt lat="-26.45389568228786" lon="114.47930648777123"><ele>73.0</ele><time>2026-04-15T08:17:45.001Z</time></trkpt><trkpt lat="-26.4536263481646" lon="114.479204533982"><ele>72.0</ele><time>2026-04-15T08:17:46Z</time></trkpt><trkpt lat="-26.453355672334137" lon="114.47910090313253"><ele>72.0</ele><time>2026-04-15T08:17:47Z</time></trkpt><trkpt lat="-26.453082772278524" lon="114.47899725336477"><ele>72.0</ele><time>2026-04-15T08:17:48Z</time></trkpt><trkpt lat="-26.45281060691913" lon="114.4788986643211"><ele>72.5</ele><time>2026-04-15T08:17:49Z</time></trkpt><trkpt lat="-26.452538096518364" lon="114.47880408094362"><ele>73.0</ele><time>2026-04-15T08:17:50Z</time></trkpt><trkpt lat="-26.452264625215903" lon="114.47870936377399"><ele>73.0</ele><time>2026-04-15T08:17:51Z</time></trkpt><trkpt lat="-26.45199435344174" lon="114.47861204990133"><ele>73.0</ele><time>2026-04-15T08:17:52Z</time></trkpt><trkpt lat="-26.451724404684615" lon="114.47851086400716"><ele>73.0</ele><time>2026-04-15T08:17:53Z</time></trkpt><trkpt lat="-26.45145494545972" lon="114.47840667763606"><ele>73.0</ele><time>2026-04-15T08:17:54Z</time></trkpt><trkpt lat="-26.451187609326222" lon="114.47830316863867"><ele>73.0</ele><time>2026-04-15T08:17:55Z</time></trkpt><trkpt lat="-26.450921967045065" lon="114.47820112021368"><ele>73.0</ele><time>2026-04-15T08:17:56Z</time></trkpt><trkpt lat="-26.45066045948778" lon="114.47810118440182"><ele>72.0</ele><time>2026-04-15T08:17:57Z</time></trkpt><trkpt lat="-26.45039773718219" lon="114.47799928341794"><ele>71.0</ele><time>2026-04-15T08:17:58Z</time></trkpt><trkpt lat="-26.450137379144824" lon="114.4779050136577"><ele>71.0</ele><time>2026-04-15T08:17:59Z</time></trkpt><trkpt lat="-26.44987204524295" lon="114.47781132371173"><ele>71.0</ele><time>2026-04-15T08:18:00Z</time></trkpt><trkpt lat="-26.449609939075927" lon="114.47771861999024"><ele>71.5</ele><time>2026-04-15T08:18:01Z</time></trkpt><trkpt lat="-26.44934228620242" lon="114.47761837756032"><ele>72.0</ele><time>2026-04-15T08:18:02Z</time></trkpt><trkpt lat="-26.44907493322373" lon="114.47751686269177"><ele>72.0</ele><time>2026-04-15T08:18:03Z</time></trkpt><trkpt lat="-26.44881047135442" lon="114.47741871638083"><ele>72.0</ele><time>2026-04-15T08:18:04Z</time></trkpt><trkpt lat="-26.448543897984614" lon="114.4773216655052"><ele>72.0</ele><time>2026-04-15T08:18:05Z</time></trkpt><trkpt lat="-26.448276945517563" lon="114.47722000665007"><ele>72.0</ele><time>2026-04-15T08:18:06Z</time></trkpt><trkpt lat="-26.44800664559786" lon="114.47711676399341"><ele>72.0</ele><time>2026-04-15T08:18:07Z</time></trkpt><trkpt lat="-26.44773181397009" lon="114.47701155732514"><ele>72.0</ele><time>2026-04-15T08:18:08Z</time></trkpt><trkpt lat="-26.447459293885725" lon="114.4769061032524"><ele>72.0</ele><time>2026-04-15T08:18:09Z</time></trkpt><trkpt lat="-26.44718821146196" lon="114.47680320454572"><ele>72.0</ele><time>2026-04-15T08:18:10Z</time></trkpt><trkpt lat="-26.446914315938447" lon="114.47669823680009"><ele>72.0</ele><time>2026-04-15T08:18:11Z</time></trkpt><trkpt lat="-26.446641133200636" lon="114.4765940411917"><ele>72.0</ele><time>2026-04-15T08:18:12Z</time></trkpt><trkpt lat="-26.446370767850023" lon="114.47649199438422"><ele>72.0</ele><time>2026-04-15T08:18:13Z</time></trkpt><trkpt lat="-26.446101671730162" lon="114.47639418254919"><ele>72.0</ele><time>2026-04-15T08:18:14Z</time></trkpt><trkpt lat="-26.445834974793655" lon="114.47630057007036"><ele>72.5</ele><time>2026-04-15T08:18:15Z</time></trkpt><trkpt lat="-26.445565619821238" lon="114.47620548639773"><ele>73.0</ele><time>2026-04-15T08:18:16Z</time></trkpt><trkpt lat="-26.445296151966854" lon="114.47611037938368"><ele>73.0</ele><time>2026-04-15T08:18:17Z</time></trkpt><trkpt lat="-26.445028236511085" lon="114.47601502730976"><ele>73.0</ele><time>2026-04-15T08:18:18Z</time></trkpt><trkpt lat="-26.44476131489685" lon="114.4759187958331"><ele>73.0</ele><time>2026-04-15T08:18:19Z</time></trkpt><trkpt lat="-26.444493290522036" lon="114.47581737300469"><ele>73.0</ele><time>2026-04-15T08:18:20Z</time></trkpt><trkpt lat="-26.444222405310104" lon="114.47571445117248"><ele>73.0</ele><time>2026-04-15T08:18:21Z</time></trkpt><trkpt lat="-26.44395100224625" lon="114.47561315238762"><ele>73.0</ele><time>2026-04-15T08:18:22Z</time></trkpt><trkpt lat="-26.44367907932969" lon="114.47551193603236"><ele>72.0</ele><time>2026-04-15T08:18:23Z</time></trkpt><trkpt lat="-26.44340075294068" lon="114.47540642379239"><ele>71.0</ele><time>2026-04-15T08:18:24Z</time></trkpt><trkpt lat="-26.443120816580144" lon="114.47530176636155"><ele>71.0</ele><time>2026-04-15T08:18:25Z</time></trkpt><trkpt lat="-26.442843438643724" lon="114.47520105397108"><ele>71.0</ele><time>2026-04-15T08:18:26Z</time></trkpt><trkpt lat="-26.442563193923423" lon="114.47509919887851"><ele>71.0</ele><time>2026-04-15T08:18:27Z</time></trkpt><trkpt lat="-26.442284810295618" lon="114.4749945993485"><ele>71.0</ele><time>2026-04-15T08:18:28Z</time></trkpt><trkpt lat="-26.442013716593152" lon="114.47488915401466"><ele>70.0</ele><time>2026-04-15T08:18:29Z</time></trkpt><trkpt lat="-26.44173992394151" lon="114.4747848792706"><ele>69.0</ele><time>2026-04-15T08:18:30Z</time></trkpt><trkpt lat="-26.441461835149056" lon="114.47468166038698"><ele>68.5</ele><time>2026-04-15T08:18:31Z</time></trkpt><trkpt lat="-26.44118131580735" lon="114.4745782065193"><ele>68.0</ele><time>2026-04-15T08:18:32Z</time></trkpt><trkpt lat="-26.44089571443738" lon="114.47447233203881"><ele>68.0</ele><time>2026-04-15T08:18:33Z</time></trkpt><trkpt lat="-26.44061227221458" lon="114.47437190077191"><ele>68.0</ele><time>2026-04-15T08:18:34Z</time></trkpt><trkpt lat="-26.440327648373035" lon="114.4742711332234"><ele>68.5</ele><time>2026-04-15T08:18:35Z</time></trkpt><trkpt lat="-26.44004652108366" lon="114.47417038390267"><ele>69.0</ele><time>2026-04-15T08:18:36Z</time></trkpt><trkpt lat="-26.439765793037264" lon="114.47406896585971"><ele>68.0</ele><time>2026-04-15T08:18:37Z</time></trkpt><trkpt lat="-26.439490531140354" lon="114.47396190274905"><ele>67.0</ele><time>2026-04-15T08:18:38Z</time></trkpt><trkpt lat="-26.43921589732728" lon="114.47385557445547"><ele>67.5</ele><time>2026-04-15T08:18:39Z</time></trkpt><trkpt lat="-26.43894128752627" lon="114.47375251173514"><ele>68.0</ele><time>2026-04-15T08:18:40Z</time></trkpt><trkpt lat="-26.438664998478675" lon="114.47365185557764"><ele>68.0</ele><time>2026-04-15T08:18:41Z</time></trkpt><trkpt lat="-26.438384379498356" lon="114.4735483547485"><ele>68.0</ele><time>2026-04-15T08:18:42.001Z</time></trkpt><trkpt lat="-26.43810730553335" lon="114.47344534031353"><ele>68.0</ele><time>2026-04-15T08:18:43.001Z</time></trkpt><trkpt lat="-26.437831162245192" lon="114.47334455678494"><ele>68.0</ele><time>2026-04-15T08:18:44.001Z</time></trkpt><trkpt lat="-26.437556906784813" lon="114.47324686017444"><ele>68.0</ele><time>2026-04-15T08:18:45.001Z</time></trkpt><trkpt lat="-26.437281661482828" lon="114.47314774345772"><ele>68.0</ele><time>2026-04-15T08:18:46.001Z</time></trkpt><trkpt lat="-26.43700803152132" lon="114.47304607215942"><ele>68.5</ele><time>2026-04-15T08:18:47.001Z</time></trkpt><trkpt lat="-26.43673458304409" lon="114.4729429327533"><ele>69.0</ele><time>2026-04-15T08:18:48.001Z</time></trkpt><trkpt lat="-26.43646107999063" lon="114.47284027236057"><ele>68.5</ele><time>2026-04-15T08:18:49.001Z</time></trkpt><trkpt lat="-26.436185275961297" lon="114.47273667473348"><ele>68.0</ele><time>2026-04-15T08:18:50.001Z</time></trkpt><trkpt lat="-26.43590856204786" lon="114.4726319816904"><ele>68.0</ele><time>2026-04-15T08:18:51.001Z</time></trkpt><trkpt lat="-26.435630661126176" lon="114.47252998102837"><ele>68.0</ele><time>2026-04-15T08:18:52.001Z</time></trkpt><trkpt lat="-26.435354612099346" lon="114.47243169724071"><ele>68.0</ele><time>2026-04-15T08:18:53.001Z</time></trkpt><trkpt lat="-26.43507956339207" lon="114.472332169059"><ele>68.0</ele><time>2026-04-15T08:18:54.001Z</time></trkpt><trkpt lat="-26.434803772011325" lon="114.47223023667492"><ele>68.0</ele><time>2026-04-15T08:18:55.001Z</time></trkpt><trkpt lat="-26.434532087623772" lon="114.4721281773513"><ele>68.0</ele><time>2026-04-15T08:18:56.001Z</time></trkpt><trkpt lat="-26.434258877148462" lon="114.47202434618578"><ele>67.0</ele><time>2026-04-15T08:18:57.001Z</time></trkpt><trkpt lat="-26.43398382611144" lon="114.47191882907197"><ele>66.0</ele><time>2026-04-15T08:18:58.001Z</time></trkpt><trkpt lat="-26.43370849892271" lon="114.47181458262506"><ele>68.0</ele><time>2026-04-15T08:18:59.001Z</time></trkpt><trkpt lat="-26.433432627438332" lon="114.471716649695"><ele>70.0</ele><time>2026-04-15T08:19:00.001Z</time></trkpt><trkpt lat="-26.43315909540125" lon="114.47162408238098"><ele>68.5</ele><time>2026-04-15T08:19:01.001Z</time></trkpt><trkpt lat="-26.432886224138713" lon="114.47152886187983"><ele>67.0</ele><time>2026-04-15T08:19:02.001Z</time></trkpt><trkpt lat="-26.432612049906847" lon="114.47142639037898"><ele>67.0</ele><time>2026-04-15T08:19:03.001Z</time></trkpt><trkpt lat="-26.432338878849254" lon="114.47132395993196"><ele>67.0</ele><time>2026-04-15T08:19:04.001Z</time></trkpt><trkpt lat="-26.432064751252494" lon="114.47122197114719"><ele>68.0</ele><time>2026-04-15T08:19:05.001Z</time></trkpt><trkpt lat="-26.431793578184173" lon="114.471116572905"><ele>69.0</ele><time>2026-04-15T08:19:06.001Z</time></trkpt><trkpt lat="-26.43152131169908" lon="114.4710079426807"><ele>69.0</ele><time>2026-04-15T08:19:07.001Z</time></trkpt><trkpt lat="-26.431245283677306" lon="114.47090011644237"><ele>69.0</ele><time>2026-04-15T08:19:08.001Z</time></trkpt><trkpt lat="-26.43097371681618" lon="114.47079973010861"><ele>69.0</ele><time>2026-04-15T08:19:09.001Z</time></trkpt><trkpt lat="-26.430703306309976" lon="114.47070389772301"><ele>69.0</ele><time>2026-04-15T08:19:10.001Z</time></trkpt><trkpt lat="-26.430433838236375" lon="114.47060395770595"><ele>69.5</ele><time>2026-04-15T08:19:11.001Z</time></trkpt><trkpt lat="-26.43016815193838" lon="114.47050584861069"><ele>70.0</ele><time>2026-04-15T08:19:12.001Z</time></trkpt><trkpt lat="-26.429905859649686" lon="114.47040941885993"><ele>70.0</ele><time>2026-04-15T08:19:13.001Z</time></trkpt><trkpt lat="-26.42965382414956" lon="114.47031451293398"><ele>70.0</ele><time>2026-04-15T08:19:14.001Z</time></trkpt><trkpt lat="-26.429413061474282" lon="114.47022677538284"><ele>68.5</ele><time>2026-04-15T08:19:15.001Z</time></trkpt><trkpt lat="-26.429160297367794" lon="114.47013475818692"><ele>67.0</ele><time>2026-04-15T08:19:16.001Z</time></trkpt><trkpt lat="-26.42889564955676" lon="114.47003758474887"><ele>67.5</ele><time>2026-04-15T08:19:17.001Z</time></trkpt><trkpt lat="-26.428624570865445" lon="114.46993539778208"><ele>68.0</ele><time>2026-04-15T08:19:18.001Z</time></trkpt><trkpt lat="-26.428349803213735" lon="114.46983132440712"><ele>68.0</ele><time>2026-04-15T08:19:19.001Z</time></trkpt><trkpt lat="-26.428070571599527" lon="114.46972358145436"><ele>68.0</ele><time>2026-04-15T08:19:20.001Z</time></trkpt><trkpt lat="-26.4277925494604" lon="114.46961920465357"><ele>68.0</ele><time>2026-04-15T08:19:21.001Z</time></trkpt><trkpt lat="-26.42751489182001" lon="114.46951672603184"><ele>68.0</ele><time>2026-04-15T08:19:22.001Z</time></trkpt><trkpt lat="-26.427234719570585" lon="114.46941687301303"><ele>68.0</ele><time>2026-04-15T08:19:23.001Z</time></trkpt><trkpt lat="-26.426954090548776" lon="114.46931996902778"><ele>68.0</ele><time>2026-04-15T08:19:24.001Z</time></trkpt><trkpt lat="-26.42667457813188" lon="114.46922464821492"><ele>68.0</ele><time>2026-04-15T08:19:25.001Z</time></trkpt><trkpt lat="-26.426399284633447" lon="114.46912197950212"><ele>68.0</ele><time>2026-04-15T08:19:26.001Z</time></trkpt><trkpt lat="-26.426131573147845" lon="114.46901660886613"><ele>68.0</ele><time>2026-04-15T08:19:27.001Z</time></trkpt><trkpt lat="-26.42586861633845" lon="114.46891296527023"><ele>68.0</ele><time>2026-04-15T08:19:28.001Z</time></trkpt><trkpt lat="-26.42560646495364" lon="114.46881255707036"><ele>68.5</ele><time>2026-04-15T08:19:29.001Z</time></trkpt><trkpt lat="-26.425344026748622" lon="114.46871368111796"><ele>69.0</ele><time>2026-04-15T08:19:30.001Z</time></trkpt><trkpt lat="-26.425081732322003" lon="114.46861719866263"><ele>69.0</ele><time>2026-04-15T08:19:31.001Z</time></trkpt><trkpt lat="-26.42481588935564" lon="114.46851810084168"><ele>69.0</ele><time>2026-04-15T08:19:32.001Z</time></trkpt><trkpt lat="-26.424549358611884" lon="114.46841930225172"><ele>69.0</ele><time>2026-04-15T08:19:33.001Z</time></trkpt><trkpt lat="-26.42427865589696" lon="114.4683183207337"><ele>69.0</ele><time>2026-04-15T08:19:34.001Z</time></trkpt><trkpt lat="-26.424009164678278" lon="114.46821792928735"><ele>67.5</ele><time>2026-04-15T08:19:35.001Z</time></trkpt><trkpt lat="-26.423745239327513" lon="114.46811843566796"><ele>66.0</ele><time>2026-04-15T08:19:36.001Z</time></trkpt><trkpt lat="-26.423480133450038" lon="114.46801544551663"><ele>66.0</ele><time>2026-04-15T08:19:37.001Z</time></trkpt><trkpt lat="-26.423217426035052" lon="114.46791695987444"><ele>66.0</ele><time>2026-04-15T08:19:38.001Z</time></trkpt><trkpt lat="-26.4229535100122" lon="114.4678210875501"><ele>67.5</ele><time>2026-04-15T08:19:39.001Z</time></trkpt><trkpt lat="-26.422690523051674" lon="114.4677248417925"><ele>69.0</ele><time>2026-04-15T08:19:40.001Z</time></trkpt><trkpt lat="-26.422427693698054" lon="114.46762639423707"><ele>69.0</ele><time>2026-04-15T08:19:41.001Z</time></trkpt><trkpt lat="-26.42216568739319" lon="114.46752910596719"><ele>69.0</ele><time>2026-04-15T08:19:42.001Z</time></trkpt><trkpt lat="-26.421899291649137" lon="114.46743297077842"><ele>67.5</ele><time>2026-04-15T08:19:43.001Z</time></trkpt><trkpt lat="-26.421632952036717" lon="114.46733671674659"><ele>66.0</ele><time>2026-04-15T08:19:44.001Z</time></trkpt><trkpt lat="-26.421369790048242" lon="114.46723751117955"><ele>67.0</ele><time>2026-04-15T08:19:45.001Z</time></trkpt><trkpt lat="-26.42110624188117" lon="114.46713745210369"><ele>68.0</ele><time>2026-04-15T08:19:46.001Z</time></trkpt><trkpt lat="-26.4208449924718" lon="114.46703869940731"><ele>68.5</ele><time>2026-04-15T08:19:47.001Z</time></trkpt><trkpt lat="-26.42058137047257" lon="114.4669366848089"><ele>69.0</ele><time>2026-04-15T08:19:48.001Z</time></trkpt><trkpt lat="-26.42031394057665" lon="114.46683534855185"><ele>69.5</ele><time>2026-04-15T08:19:49.001Z</time></trkpt><trkpt lat="-26.420048272019343" lon="114.46673698374707"><ele>70.0</ele><time>2026-04-15T08:19:50.001Z</time></trkpt><trkpt lat="-26.4197816268019" lon="114.46664125360599"><ele>68.5</ele><time>2026-04-15T08:19:51.001Z</time></trkpt><trkpt lat="-26.41951615358546" lon="114.46654871563062"><ele>67.0</ele><time>2026-04-15T08:19:52.001Z</time></trkpt><trkpt lat="-26.419250919853408" lon="114.46645286550708"><ele>67.0</ele><time>2026-04-15T08:19:53.001Z</time></trkpt><trkpt lat="-26.418984099343444" lon="114.46635261249236"><ele>67.0</ele><time>2026-04-15T08:19:54.001Z</time></trkpt><trkpt lat="-26.418719628945503" lon="114.46625094890803"><ele>67.5</ele><time>2026-04-15T08:19:55.001Z</time></trkpt><trkpt lat="-26.41846272292527" lon="114.46615366888751"><ele>68.0</ele><time>2026-04-15T08:19:56Z</time></trkpt><trkpt lat="-26.4182083075644" lon="114.46606126760913"><ele>67.0</ele><time>2026-04-15T08:19:57Z</time></trkpt><trkpt lat="-26.417959030456124" lon="114.46597141576734"><ele>66.0</ele><time>2026-04-15T08:19:58Z</time></trkpt><trkpt lat="-26.417713078734863" lon="114.46587838374691"><ele>66.0</ele><time>2026-04-15T08:19:59Z</time></trkpt><trkpt lat="-26.417469165942652" lon="114.4657806758669"><ele>66.0</ele><time>2026-04-15T08:20:00Z</time></trkpt><trkpt lat="-26.41722631852596" lon="114.46568332069818"><ele>65.5</ele><time>2026-04-15T08:20:01Z</time></trkpt><trkpt lat="-26.416981026256824" lon="114.4655951633783"><ele>65.0</ele><time>2026-04-15T08:20:02Z</time></trkpt><trkpt lat="-26.416737715752912" lon="114.46550851190842"><ele>65.0</ele><time>2026-04-15T08:20:03Z</time></trkpt><trkpt lat="-26.416498213892563" lon="114.46542074919958"><ele>65.0</ele><time>2026-04-15T08:20:04Z</time></trkpt><trkpt lat="-26.416262795616692" lon="114.46533306291106"><ele>65.0</ele><time>2026-04-15T08:20:05Z</time></trkpt><trkpt lat="-26.416030856823582" lon="114.46524588536893"><ele>65.0</ele><time>2026-04-15T08:20:06Z</time></trkpt><trkpt lat="-26.415797441012057" lon="114.4651607171276"><ele>65.0</ele><time>2026-04-15T08:20:07Z</time></trkpt><trkpt lat="-26.415564226279496" lon="114.4650738302034"><ele>65.0</ele><time>2026-04-15T08:20:08Z</time></trkpt><trkpt lat="-26.415335310034802" lon="114.46498755764677"><ele>65.5</ele><time>2026-04-15T08:20:09Z</time></trkpt><trkpt lat="-26.415108650044843" lon="114.46490081123825"><ele>66.0</ele><time>2026-04-15T08:20:10Z</time></trkpt><trkpt lat="-26.414879136914692" lon="114.46481382383033"><ele>67.5</ele><time>2026-04-15T08:20:11Z</time></trkpt><trkpt lat="-26.414651266623256" lon="114.46472986800484"><ele>69.0</ele><time>2026-04-15T08:20:12Z</time></trkpt><trkpt lat="-26.414424111741848" lon="114.46464859163008"><ele>67.5</ele><time>2026-04-15T08:20:13Z</time></trkpt><trkpt lat="-26.414198697848683" lon="114.46456819653707"><ele>66.0</ele><time>2026-04-15T08:20:14Z</time></trkpt><trkpt lat="-26.413982199756987" lon="114.46449039892882"><ele>66.33333333333333</ele><time>2026-04-15T08:20:15Z</time></trkpt><trkpt lat="-26.41377917295393" lon="114.46441832036267"><ele>66.66666666666666</ele><time>2026-04-15T08:20:16Z</time></trkpt><trkpt lat="-26.413589059530803" lon="114.46435083947367"><ele>67.0</ele><time>2026-04-15T08:20:17Z</time></trkpt><trkpt lat="-26.41340616507383" lon="114.46427804468934"><ele>67.0</ele><time>2026-04-15T08:20:18Z</time></trkpt><trkpt lat="-26.41323481142426" lon="114.46420242263085"><ele>67.0</ele><time>2026-04-15T08:20:19Z</time></trkpt><trkpt lat="-26.413074834929454" lon="114.46413744693496"><ele>67.0</ele><time>2026-04-15T08:20:20Z</time></trkpt><trkpt lat="-26.41292001436119" lon="114.46408669663928"><ele>67.5</ele><time>2026-04-15T08:20:21Z</time></trkpt><trkpt lat="-26.412777463149336" lon="114.46403976059621"><ele>68.0</ele><time>2026-04-15T08:20:22Z</time></trkpt><trkpt lat="-26.41265047936885" lon="114.4639931260436"><ele>68.5</ele><time>2026-04-15T08:20:23Z</time></trkpt><trkpt lat="-26.412537173787808" lon="114.46396766420361"><ele>69.0</ele><time>2026-04-15T08:20:24Z</time></trkpt><trkpt lat="-26.41245275782551" lon="114.46392052991018"><ele>69.0</ele><time>2026-04-15T08:20:25Z</time></trkpt><trkpt lat="-26.412386345574564" lon="114.46389571828024"><ele>69.0</ele><time>2026-04-15T08:20:26Z</time></trkpt><trkpt lat="-26.412302358438357" lon="114.46409576209037"><ele>69.0</ele><time>2026-04-15T08:20:27Z</time></trkpt><trkpt lat="-26.41224957490933" lon="114.46414209225661"><ele>69.0</ele><time>2026-04-15T08:20:28Z</time></trkpt><trkpt lat="-26.412113656001814" lon="114.46406384317348"><ele>68.0</ele><time>2026-04-15T08:20:30Z</time></trkpt><trkpt lat="-26.412051585620752" lon="114.46404763479788"><ele>68.0</ele><time>2026-04-15T08:20:31Z</time></trkpt><trkpt lat="-26.411960579137023" lon="114.46401121114947"><ele>68.0</ele><time>2026-04-15T08:20:33Z</time></trkpt></trkseg><trkseg><trkpt lat="-26.41074202343431" lon="114.44354870872417"><ele>69.0</ele><time>2026-04-15T08:57:12.001Z</time></trkpt><trkpt lat="-26.410719597632962" lon="114.44329421020885"><ele>69.0</ele><time>2026-04-15T08:57:13.001Z</time></trkpt><trkpt lat="-26.4107017725139" lon="114.44303816066086"><ele>69.5</ele><time>2026-04-15T08:57:14.001Z</time></trkpt><trkpt lat="-26.410682518651186" lon="114.44278103618053"><ele>70.0</ele><time>2026-04-15T08:57:15Z</time></trkpt><trkpt lat="-26.410664526155088" lon="114.44251983847731"><ele>70.0</ele><time>2026-04-15T08:57:16Z</time></trkpt><trkpt lat="-26.410648639280513" lon="114.4422482615085"><ele>70.0</ele><time>2026-04-15T08:57:17Z</time></trkpt><trkpt lat="-26.410630414768995" lon="114.44196830411772"><ele>70.0</ele><time>2026-04-15T08:57:18Z</time></trkpt><trkpt lat="-26.410610929051177" lon="114.4416823622226"><ele>70.0</ele><time>2026-04-15T08:57:19Z</time></trkpt><trkpt lat="-26.41059089448511" lon="114.44139004209356"><ele>70.5</ele><time>2026-04-15T08:57:20Z</time></trkpt><trkpt lat="-26.410568878741945" lon="114.44108842792411"><ele>71.0</ele><time>2026-04-15T08:57:21Z</time></trkpt><trkpt lat="-26.410546310331604" lon="114.44078138967583"><ele>71.0</ele><time>2026-04-15T08:57:22Z</time></trkpt><trkpt lat="-26.410523510807398" lon="114.44046942013922"><ele>71.0</ele><time>2026-04-15T08:57:23Z</time></trkpt><trkpt lat="-26.410499374182454" lon="114.440153871564"><ele>71.0</ele><time>2026-04-15T08:57:24Z</time></trkpt><trkpt lat="-26.410476703463914" lon="114.43983514966197"><ele>71.0</ele><time>2026-04-15T08:57:25Z</time></trkpt><trkpt lat="-26.410451877495227" lon="114.439513975851"><ele>71.0</ele><time>2026-04-15T08:57:26Z</time></trkpt><trkpt lat="-26.41042784657861" lon="114.43919438054671"><ele>71.0</ele><time>2026-04-15T08:57:27Z</time></trkpt><trkpt lat="-26.410405574547987" lon="114.43887243813893"><ele>71.0</ele><time>2026-04-15T08:57:28Z</time></trkpt><trkpt lat="-26.410383112154516" lon="114.4385508072311"><ele>71.0</ele><time>2026-04-15T08:57:29Z</time></trkpt><trkpt lat="-26.41035899742409" lon="114.43822955726553"><ele>71.0</ele><time>2026-04-15T08:57:30Z</time></trkpt><trkpt lat="-26.410335068355394" lon="114.43791008734271"><ele>71.0</ele><time>2026-04-15T08:57:31Z</time></trkpt><trkpt lat="-26.41031226389646" lon="114.43759025877068"><ele>71.0</ele><time>2026-04-15T08:57:32Z</time></trkpt><trkpt lat="-26.410288143049883" lon="114.43727337812811"><ele>71.0</ele><time>2026-04-15T08:57:33Z</time></trkpt><trkpt lat="-26.410263813010854" lon="114.43695582978756"><ele>71.0</ele><time>2026-04-15T08:57:34Z</time></trkpt><trkpt lat="-26.410241371255147" lon="114.43663815895826"><ele>71.0</ele><time>2026-04-15T08:57:35Z</time></trkpt><trkpt lat="-26.410218982460993" lon="114.43631939053289"><ele>72.0</ele><time>2026-04-15T08:57:36Z</time></trkpt><trkpt lat="-26.410196549407356" lon="114.43599947575467"><ele>73.0</ele><time>2026-04-15T08:57:37Z</time></trkpt><trkpt lat="-26.410174510182422" lon="114.43568217923702"><ele>74.0</ele><time>2026-04-15T08:57:38Z</time></trkpt><trkpt lat="-26.410152205587387" lon="114.4353697868518"><ele>75.0</ele><time>2026-04-15T08:57:39Z</time></trkpt><trkpt lat="-26.410130812028793" lon="114.43506190391147"><ele>75.0</ele><time>2026-04-15T08:57:40Z</time></trkpt><trkpt lat="-26.410105799450537" lon="114.43475518088044"><ele>75.0</ele><time>2026-04-15T08:57:41Z</time></trkpt><trkpt lat="-26.410081108024418" lon="114.43445385175987"><ele>73.5</ele><time>2026-04-15T08:57:42Z</time></trkpt><trkpt lat="-26.410060647356314" lon="114.43415422394287"><ele>72.0</ele><time>2026-04-15T08:57:43Z</time></trkpt><trkpt lat="-26.41004276998944" lon="114.4338581308479"><ele>73.0</ele><time>2026-04-15T08:57:44Z</time></trkpt><trkpt lat="-26.410019883265974" lon="114.43355824754775"><ele>74.0</ele><time>2026-04-15T08:57:45Z</time></trkpt><trkpt lat="-26.409997096816337" lon="114.43325728923149"><ele>74.0</ele><time>2026-04-15T08:57:46Z</time></trkpt><trkpt lat="-26.409973289184805" lon="114.43295055140712"><ele>74.0</ele><time>2026-04-15T08:57:47Z</time></trkpt><trkpt lat="-26.409950179486206" lon="114.43264029120111"><ele>74.0</ele><time>2026-04-15T08:57:48Z</time></trkpt><trkpt lat="-26.409925475318698" lon="114.43232818776289"><ele>74.0</ele><time>2026-04-15T08:57:49Z</time></trkpt><trkpt lat="-26.409901692185773" lon="114.4320131367282"><ele>74.5</ele><time>2026-04-15T08:57:50Z</time></trkpt><trkpt lat="-26.409875820389534" lon="114.43169542975774"><ele>75.0</ele><time>2026-04-15T08:57:51Z</time></trkpt><trkpt lat="-26.40985250883123" lon="114.43137754931493"><ele>74.0</ele><time>2026-04-15T08:57:52Z</time></trkpt><trkpt lat="-26.409831772073424" lon="114.43106112907596"><ele>73.0</ele><time>2026-04-15T08:57:53Z</time></trkpt><trkpt lat="-26.40981127422268" lon="114.43074660450549"><ele>73.5</ele><time>2026-04-15T08:57:54Z</time></trkpt><trkpt lat="-26.409789498985578" lon="114.43043520844459"><ele>74.0</ele><time>2026-04-15T08:57:55Z</time></trkpt><trkpt lat="-26.40976506843356" lon="114.43012416321038"><ele>74.0</ele><time>2026-04-15T08:57:56Z</time></trkpt><trkpt lat="-26.409738967464815" lon="114.42980931825447"><ele>74.0</ele><time>2026-04-15T08:57:57Z</time></trkpt><trkpt lat="-26.40971663191582" lon="114.42949197641647"><ele>74.0</ele><time>2026-04-15T08:57:58Z</time></trkpt><trkpt lat="-26.409696452038244" lon="114.42917658107928"><ele>74.0</ele><time>2026-04-15T08:57:59Z</time></trkpt><trkpt lat="-26.40967527122854" lon="114.42886442607838"><ele>73.5</ele><time>2026-04-15T08:58:00Z</time></trkpt><trkpt lat="-26.409650375666736" lon="114.42855472911654"><ele>73.0</ele><time>2026-04-15T08:58:01Z</time></trkpt><trkpt lat="-26.409626484385203" lon="114.42825035152148"><ele>73.5</ele><time>2026-04-15T08:58:02Z</time></trkpt><trkpt lat="-26.409604317024687" lon="114.42794593773039"><ele>74.0</ele><time>2026-04-15T08:58:03Z</time></trkpt><trkpt lat="-26.409580825711274" lon="114.42764070175582"><ele>74.0</ele><time>2026-04-15T08:58:04Z</time></trkpt><trkpt lat="-26.409557271668866" lon="114.42733607683658"><ele>74.0</ele><time>2026-04-15T08:58:05Z</time></trkpt><trkpt lat="-26.409535439294594" lon="114.42702842241695"><ele>74.0</ele><time>2026-04-15T08:58:06.001Z</time></trkpt><trkpt lat="-26.409513313811843" lon="114.42671709332461"><ele>74.0</ele><time>2026-04-15T08:58:07.001Z</time></trkpt><trkpt lat="-26.409490197263782" lon="114.42640933286071"><ele>73.5</ele><time>2026-04-15T08:58:08.001Z</time></trkpt><trkpt lat="-26.409466096635494" lon="114.42610078128169"><ele>73.0</ele><time>2026-04-15T08:58:09.001Z</time></trkpt><trkpt lat="-26.409443913421377" lon="114.42578971568109"><ele>72.5</ele><time>2026-04-15T08:58:10.001Z</time></trkpt><trkpt lat="-26.40942282206184" lon="114.42547541055555"><ele>72.0</ele><time>2026-04-15T08:58:11.001Z</time></trkpt><trkpt lat="-26.409400162927515" lon="114.42516057126485"><ele>72.0</ele><time>2026-04-15T08:58:12.001Z</time></trkpt><trkpt lat="-26.40937504238673" lon="114.4248449315979"><ele>72.0</ele><time>2026-04-15T08:58:13.001Z</time></trkpt><trkpt lat="-26.409350523749506" lon="114.42452975028432"><ele>72.0</ele><time>2026-04-15T08:58:14.001Z</time></trkpt><trkpt lat="-26.40932788114283" lon="114.42421678935744"><ele>72.0</ele><time>2026-04-15T08:58:15.001Z</time></trkpt><trkpt lat="-26.40930828261772" lon="114.42390459385678"><ele>72.5</ele><time>2026-04-15T08:58:16.001Z</time></trkpt><trkpt lat="-26.40928801242371" lon="114.4235929061152"><ele>73.0</ele><time>2026-04-15T08:58:17.001Z</time></trkpt><trkpt lat="-26.40926620725128" lon="114.42328323845285"><ele>74.0</ele><time>2026-04-15T08:58:18.001Z</time></trkpt><trkpt lat="-26.409246445963248" lon="114.42297460044257"><ele>75.0</ele><time>2026-04-15T08:58:19.001Z</time></trkpt><trkpt lat="-26.40922474744813" lon="114.42266649036804"><ele>75.0</ele><time>2026-04-15T08:58:20.001Z</time></trkpt><trkpt lat="-26.409197463062835" lon="114.42235575362987"><ele>75.0</ele><time>2026-04-15T08:58:21.001Z</time></trkpt><trkpt lat="-26.40916860170338" lon="114.42204330608776"><ele>75.0</ele><time>2026-04-15T08:58:22.001Z</time></trkpt><trkpt lat="-26.40914297620612" lon="114.42173167853578"><ele>75.0</ele><time>2026-04-15T08:58:23.001Z</time></trkpt><trkpt lat="-26.409119517904294" lon="114.42141669520012"><ele>74.5</ele><time>2026-04-15T08:58:24.001Z</time></trkpt><trkpt lat="-26.409095090801614" lon="114.42110672293619"><ele>74.0</ele><time>2026-04-15T08:58:25.001Z</time></trkpt><trkpt lat="-26.409072532149487" lon="114.42079441925868"><ele>73.0</ele><time>2026-04-15T08:58:26.001Z</time></trkpt><trkpt lat="-26.40905101197638" lon="114.42047645003724"><ele>72.0</ele><time>2026-04-15T08:58:27.001Z</time></trkpt><trkpt lat="-26.409028226575323" lon="114.42015741445937"><ele>72.0</ele><time>2026-04-15T08:58:28.001Z</time></trkpt><trkpt lat="-26.40900512116697" lon="114.41983730353928"><ele>72.0</ele><time>2026-04-15T08:58:29.001Z</time></trkpt><trkpt lat="-26.408983360590238" lon="114.41951672581733"><ele>73.5</ele><time>2026-04-15T08:58:30.001Z</time></trkpt><trkpt lat="-26.408960375121033" lon="114.41919830367468"><ele>75.0</ele><time>2026-04-15T08:58:31.001Z</time></trkpt><trkpt lat="-26.408934228446437" lon="114.41888547974546"><ele>74.5</ele><time>2026-04-15T08:58:32.001Z</time></trkpt><trkpt lat="-26.408910207176234" lon="114.41857066296537"><ele>74.0</ele><time>2026-04-15T08:58:33.001Z</time></trkpt><trkpt lat="-26.408887343361613" lon="114.41825684918022"><ele>74.5</ele><time>2026-04-15T08:58:34.001Z</time></trkpt><trkpt lat="-26.408865885066795" lon="114.41794377249569"><ele>75.0</ele><time>2026-04-15T08:58:35.001Z</time></trkpt><trkpt lat="-26.408843338643948" lon="114.41763373797676"><ele>75.0</ele><time>2026-04-15T08:58:36.001Z</time></trkpt><trkpt lat="-26.408821470005687" lon="114.41732183091672"><ele>75.0</ele><time>2026-04-15T08:58:37.001Z</time></trkpt><trkpt lat="-26.40880164311316" lon="114.41701101748028"><ele>74.5</ele><time>2026-04-15T08:58:38.001Z</time></trkpt><trkpt lat="-26.40878180891788" lon="114.41670198409842"><ele>74.0</ele><time>2026-04-15T08:58:39.001Z</time></trkpt><trkpt lat="-26.408760442537417" lon="114.41639466343798"><ele>73.5</ele><time>2026-04-15T08:58:40.001Z</time></trkpt><trkpt lat="-26.408736604242776" lon="114.41608963553655"><ele>73.0</ele><time>2026-04-15T08:58:41.001Z</time></trkpt><trkpt lat="-26.40871517976996" lon="114.41578693333324"><ele>73.0</ele><time>2026-04-15T08:58:42.001Z</time></trkpt><trkpt lat="-26.408697006437812" lon="114.41548609261375"><ele>73.0</ele><time>2026-04-15T08:58:43.001Z</time></trkpt><trkpt lat="-26.408676265365887" lon="114.41518665670104"><ele>73.0</ele><time>2026-04-15T08:58:44.001Z</time></trkpt><trkpt lat="-26.40865201713272" lon="114.41488662254454"><ele>73.0</ele><time>2026-04-15T08:58:45.001Z</time></trkpt><trkpt lat="-26.408628210308155" lon="114.41458290397877"><ele>74.5</ele><time>2026-04-15T08:58:46.001Z</time></trkpt><trkpt lat="-26.408603713306206" lon="114.41427419557333"><ele>76.0</ele><time>2026-04-15T08:58:47.001Z</time></trkpt><trkpt lat="-26.408579467289233" lon="114.41396183848896"><ele>75.5</ele><time>2026-04-15T08:58:48.001Z</time></trkpt><trkpt lat="-26.408558612883887" lon="114.41364894468202"><ele>75.0</ele><time>2026-04-15T08:58:49.001Z</time></trkpt><trkpt lat="-26.40853578367247" lon="114.41333427141556"><ele>75.0</ele><time>2026-04-15T08:58:50.001Z</time></trkpt><trkpt lat="-26.40851077781233" lon="114.4130177365663"><ele>75.0</ele><time>2026-04-15T08:58:51.001Z</time></trkpt><trkpt lat="-26.408484930954597" lon="114.41270145839918"><ele>75.0</ele><time>2026-04-15T08:58:52.001Z</time></trkpt><trkpt lat="-26.408461795216297" lon="114.41238618499654"><ele>75.0</ele><time>2026-04-15T08:58:53.001Z</time></trkpt><trkpt lat="-26.408437361108117" lon="114.41206839332594"><ele>75.0</ele><time>2026-04-15T08:58:54.001Z</time></trkpt><trkpt lat="-26.408413612527017" lon="114.41175004616797"><ele>75.0</ele><time>2026-04-15T08:58:55.001Z</time></trkpt><trkpt lat="-26.408391574646462" lon="114.41143657332785"><ele>75.5</ele><time>2026-04-15T08:58:56.001Z</time></trkpt><trkpt lat="-26.408368621863662" lon="114.41112276916829"><ele>76.0</ele><time>2026-04-15T08:58:57.001Z</time></trkpt><trkpt lat="-26.40834364977812" lon="114.41080889996282"><ele>76.0</ele><time>2026-04-15T08:58:58.001Z</time></trkpt><trkpt lat="-26.408319839747424" lon="114.41049669718582"><ele>76.0</ele><time>2026-04-15T08:58:59.001Z</time></trkpt><trkpt lat="-26.408295726295073" lon="114.41018413424294"><ele>74.5</ele><time>2026-04-15T08:59:00.001Z</time></trkpt><trkpt lat="-26.408274219220296" lon="114.40987253752157"><ele>73.0</ele><time>2026-04-15T08:59:01.001Z</time></trkpt><trkpt lat="-26.408251115666506" lon="114.40956411652746"><ele>73.0</ele><time>2026-04-15T08:59:02.001Z</time></trkpt><trkpt lat="-26.408225821746335" lon="114.40925682648106"><ele>73.0</ele><time>2026-04-15T08:59:03.001Z</time></trkpt><trkpt lat="-26.408203481055434" lon="114.40894870587145"><ele>74.0</ele><time>2026-04-15T08:59:04.001Z</time></trkpt><trkpt lat="-26.408184505264714" lon="114.40864028786194"><ele>75.0</ele><time>2026-04-15T08:59:05.001Z</time></trkpt><trkpt lat="-26.408163478959576" lon="114.40833501912216"><ele>75.0</ele><time>2026-04-15T08:59:06.001Z</time></trkpt><trkpt lat="-26.408143773456544" lon="114.4080310161581"><ele>75.0</ele><time>2026-04-15T08:59:07.001Z</time></trkpt><trkpt lat="-26.408121264946427" lon="114.40772925623118"><ele>75.5</ele><time>2026-04-15T08:59:08.001Z</time></trkpt><trkpt lat="-26.408099129140794" lon="114.40742505861908"><ele>76.0</ele><time>2026-04-15T08:59:09Z</time></trkpt><trkpt lat="-26.408073480628033" lon="114.4071176493274"><ele>76.0</ele><time>2026-04-15T08:59:10Z</time></trkpt><trkpt lat="-26.40804655074826" lon="114.40681256531798"><ele>76.0</ele><time>2026-04-15T08:59:11Z</time></trkpt><trkpt lat="-26.408022659297806" lon="114.40650862781274"><ele>76.0</ele><time>2026-04-15T08:59:12Z</time></trkpt><trkpt lat="-26.408001675386924" lon="114.40620397360252"><ele>76.0</ele><time>2026-04-15T08:59:13Z</time></trkpt><trkpt lat="-26.407980055112006" lon="114.40590001804406"><ele>76.0</ele><time>2026-04-15T08:59:14Z</time></trkpt><trkpt lat="-26.407958508130005" lon="114.4055986889686"><ele>76.0</ele><time>2026-04-15T08:59:15Z</time></trkpt><trkpt lat="-26.407940791551358" lon="114.40529709558209"><ele>76.5</ele><time>2026-04-15T08:59:16Z</time></trkpt><trkpt lat="-26.40792442253438" lon="114.40499701030654"><ele>77.0</ele><time>2026-04-15T08:59:17Z</time></trkpt><trkpt lat="-26.407909177842463" lon="114.40469796230941"><ele>76.5</ele><time>2026-04-15T08:59:18Z</time></trkpt><trkpt lat="-26.407905008132985" lon="114.40439997196145"><ele>76.0</ele><time>2026-04-15T08:59:19Z</time></trkpt><trkpt lat="-26.407910659256768" lon="114.40410152536002"><ele>77.0</ele><time>2026-04-15T08:59:20Z</time></trkpt><trkpt lat="-26.407921422602552" lon="114.40380117497118"><ele>78.0</ele><time>2026-04-15T08:59:21Z</time></trkpt><trkpt lat="-26.407935607636578" lon="114.40349697193886"><ele>78.0</ele><time>2026-04-15T08:59:22Z</time></trkpt><trkpt lat="-26.40795645202466" lon="114.40319044103238"><ele>78.0</ele><time>2026-04-15T08:59:23Z</time></trkpt><trkpt lat="-26.407981760047974" lon="114.40288690971735"><ele>77.0</ele><time>2026-04-15T08:59:24Z</time></trkpt><trkpt lat="-26.40800436322584" lon="114.4025854189862"><ele>76.0</ele><time>2026-04-15T08:59:25Z</time></trkpt><trkpt lat="-26.40802356441217" lon="114.40228119207515"><ele>76.0</ele><time>2026-04-15T08:59:26Z</time></trkpt><trkpt lat="-26.408041984679592" lon="114.40196992849192"><ele>76.0</ele><time>2026-04-15T08:59:27Z</time></trkpt><trkpt lat="-26.40806277402651" lon="114.40165794664918"><ele>76.0</ele><time>2026-04-15T08:59:28Z</time></trkpt><trkpt lat="-26.4080849024064" lon="114.40134470323873"><ele>76.0</ele><time>2026-04-15T08:59:29Z</time></trkpt><trkpt lat="-26.408102734852722" lon="114.4010346412874"><ele>76.0</ele><time>2026-04-15T08:59:30Z</time></trkpt><trkpt lat="-26.40811711033099" lon="114.40072463027931"><ele>76.0</ele><time>2026-04-15T08:59:31Z</time></trkpt><trkpt lat="-26.40813235615141" lon="114.40041526659623"><ele>76.5</ele><time>2026-04-15T08:59:32Z</time></trkpt><trkpt lat="-26.40815104166219" lon="114.40010225127229"><ele>77.0</ele><time>2026-04-15T08:59:33Z</time></trkpt><trkpt lat="-26.40817040143037" lon="114.39979264749321"><ele>76.5</ele><time>2026-04-15T08:59:34Z</time></trkpt><trkpt lat="-26.408190842694978" lon="114.39948410670533"><ele>76.0</ele><time>2026-04-15T08:59:35Z</time></trkpt><trkpt lat="-26.40821331073486" lon="114.39917453912327"><ele>76.0</ele><time>2026-04-15T08:59:36Z</time></trkpt><trkpt lat="-26.408236103696066" lon="114.39886522093873"><ele>76.0</ele><time>2026-04-15T08:59:37Z</time></trkpt><trkpt lat="-26.40825316432963" lon="114.39855509664893"><ele>74.5</ele><time>2026-04-15T08:59:38Z</time></trkpt><trkpt lat="-26.408270476573616" lon="114.39824340107036"><ele>73.0</ele><time>2026-04-15T08:59:39Z</time></trkpt><trkpt lat="-26.408289615802953" lon="114.39793251446332"><ele>73.0</ele><time>2026-04-15T08:59:40Z</time></trkpt><trkpt lat="-26.40831011075906" lon="114.39762245434355"><ele>73.0</ele><time>2026-04-15T08:59:41Z</time></trkpt><trkpt lat="-26.408331030918895" lon="114.39731450489097"><ele>73.0</ele><time>2026-04-15T08:59:42Z</time></trkpt><trkpt lat="-26.40835247564939" lon="114.39700648747426"><ele>73.0</ele><time>2026-04-15T08:59:43Z</time></trkpt><trkpt lat="-26.408369354200392" lon="114.39669634832731"><ele>73.0</ele><time>2026-04-15T08:59:44Z</time></trkpt><trkpt lat="-26.408384544591577" lon="114.39638659812329"><ele>73.0</ele><time>2026-04-15T08:59:45Z</time></trkpt><trkpt lat="-26.40840173614482" lon="114.39607509889497"><ele>73.5</ele><time>2026-04-15T08:59:46Z</time></trkpt><trkpt lat="-26.408419676500216" lon="114.39576478717262"><ele>74.0</ele><time>2026-04-15T08:59:47Z</time></trkpt><trkpt lat="-26.408437580492368" lon="114.39545381528968"><ele>72.5</ele><time>2026-04-15T08:59:48Z</time></trkpt><trkpt lat="-26.408456651090027" lon="114.39514369155305"><ele>71.0</ele><time>2026-04-15T08:59:49Z</time></trkpt><trkpt lat="-26.40847635765125" lon="114.39482958776533"><ele>72.0</ele><time>2026-04-15T08:59:50Z</time></trkpt><trkpt lat="-26.408497952625208" lon="114.39451608742401"><ele>73.0</ele><time>2026-04-15T08:59:51Z</time></trkpt><trkpt lat="-26.408519798504287" lon="114.39420530621103"><ele>73.0</ele><time>2026-04-15T08:59:52Z</time></trkpt><trkpt lat="-26.408539395882364" lon="114.39389639061098"><ele>73.0</ele><time>2026-04-15T08:59:53Z</time></trkpt><trkpt lat="-26.40856043951924" lon="114.39358771873289"><ele>73.0</ele><time>2026-04-15T08:59:54Z</time></trkpt><trkpt lat="-26.40858181777149" lon="114.39327770279206"><ele>73.0</ele><time>2026-04-15T08:59:55Z</time></trkpt><trkpt lat="-26.40860147942506" lon="114.39297044980493"><ele>73.0</ele><time>2026-04-15T08:59:56Z</time></trkpt><trkpt lat="-26.408620813806607" lon="114.39266347333404"><ele>73.0</ele><time>2026-04-15T08:59:57Z</time></trkpt><trkpt lat="-26.408641381467383" lon="114.39235905745218"><ele>72.5</ele><time>2026-04-15T08:59:58Z</time></trkpt><trkpt lat="-26.408659562339288" lon="114.39205298045214"><ele>72.0</ele><time>2026-04-15T08:59:59Z</time></trkpt><trkpt lat="-26.408677909708874" lon="114.39174302266595"><ele>72.0</ele><time>2026-04-15T09:00:00Z</time></trkpt><trkpt lat="-26.408694982388266" lon="114.39143270626202"><ele>72.0</ele><time>2026-04-15T09:00:01Z</time></trkpt><trkpt lat="-26.40871357421181" lon="114.39112203635972"><ele>72.0</ele><time>2026-04-15T09:00:02Z</time></trkpt><trkpt lat="-26.408733732844265" lon="114.39081134727475"><ele>72.0</ele><time>2026-04-15T09:00:03Z</time></trkpt><trkpt lat="-26.40875200963499" lon="114.39050070067653"><ele>73.0</ele><time>2026-04-15T09:00:04Z</time></trkpt><trkpt lat="-26.408771797451923" lon="114.39018879600691"><ele>74.0</ele><time>2026-04-15T09:00:05Z</time></trkpt><trkpt lat="-26.408791978358387" lon="114.3898776451832"><ele>74.0</ele><time>2026-04-15T09:00:06Z</time></trkpt><trkpt lat="-26.408812356325093" lon="114.3895675014221"><ele>74.0</ele><time>2026-04-15T09:00:07Z</time></trkpt><trkpt lat="-26.408831998907527" lon="114.38925562859004"><ele>74.0</ele><time>2026-04-15T09:00:08Z</time></trkpt><trkpt lat="-26.408851647308108" lon="114.38894481290389"><ele>74.0</ele><time>2026-04-15T09:00:09Z</time></trkpt><trkpt lat="-26.4088689827614" lon="114.38863121135556"><ele>73.5</ele><time>2026-04-15T09:00:10Z</time></trkpt><trkpt lat="-26.40888705541839" lon="114.38831547320497"><ele>73.0</ele><time>2026-04-15T09:00:11Z</time></trkpt><trkpt lat="-26.40890474594653" lon="114.3879976771948"><ele>72.5</ele><time>2026-04-15T09:00:12Z</time></trkpt><trkpt lat="-26.408922811016996" lon="114.38768135619117"><ele>72.0</ele><time>2026-04-15T09:00:13Z</time></trkpt><trkpt lat="-26.408944101731432" lon="114.38736208915383"><ele>72.0</ele><time>2026-04-15T09:00:14Z</time></trkpt><trkpt lat="-26.408966547353064" lon="114.38704283557259"><ele>72.0</ele><time>2026-04-15T09:00:15Z</time></trkpt><trkpt lat="-26.408989711989776" lon="114.38672450362719"><ele>72.0</ele><time>2026-04-15T09:00:16Z</time></trkpt><trkpt lat="-26.409010281458826" lon="114.38640412267135"><ele>72.0</ele><time>2026-04-15T09:00:17Z</time></trkpt><trkpt lat="-26.409027960860982" lon="114.38608266951783"><ele>73.0</ele><time>2026-04-15T09:00:18Z</time></trkpt><trkpt lat="-26.409046651128545" lon="114.38575952714419"><ele>74.0</ele><time>2026-04-15T09:00:19Z</time></trkpt><trkpt lat="-26.40906790237339" lon="114.38543683260367"><ele>74.0</ele><time>2026-04-15T09:00:20Z</time></trkpt><trkpt lat="-26.40908824036594" lon="114.38511451450809"><ele>74.0</ele><time>2026-04-15T09:00:21Z</time></trkpt><trkpt lat="-26.40912642334936" lon="114.38446757667259"><ele>74.0</ele><time>2026-04-15T09:00:23Z</time></trkpt><trkpt lat="-26.409142673164762" lon="114.3841487449008"><ele>74.0</ele><time>2026-04-15T09:00:24Z</time></trkpt><trkpt lat="-26.409162429278886" lon="114.38382968540283"><ele>74.0</ele><time>2026-04-15T09:00:25Z</time></trkpt><trkpt lat="-26.40918102877524" lon="114.38351124979428"><ele>74.0</ele><time>2026-04-15T09:00:26Z</time></trkpt><trkpt lat="-26.409202848141874" lon="114.38319689068123"><ele>74.0</ele><time>2026-04-15T09:00:27Z</time></trkpt><trkpt lat="-26.409222723465458" lon="114.3829035324613"><ele>74.0</ele><time>2026-04-15T09:00:28Z</time></trkpt><trkpt lat="-26.40923946995483" lon="114.38262390480365"><ele>74.0</ele><time>2026-04-15T09:00:29Z</time></trkpt><trkpt lat="-26.409257033766924" lon="114.38234078258951"><ele>74.0</ele><time>2026-04-15T09:00:30Z</time></trkpt><trkpt lat="-26.409275979279116" lon="114.3820523293742"><ele>74.0</ele><time>2026-04-15T09:00:31Z</time></trkpt><trkpt lat="-26.40929865953286" lon="114.38176123664391"><ele>74.0</ele><time>2026-04-15T09:00:32.001Z</time></trkpt><trkpt lat="-26.409319934264282" lon="114.3814644304541"><ele>75.0</ele><time>2026-04-15T09:00:33.001Z</time></trkpt><trkpt lat="-26.40933828638063" lon="114.38116577325168"><ele>76.0</ele><time>2026-04-15T09:00:34.001Z</time></trkpt><trkpt lat="-26.409358214016738" lon="114.38086434046751"><ele>76.0</ele><time>2026-04-15T09:00:35.001Z</time></trkpt><trkpt lat="-26.409374406090883" lon="114.38055997984301"><ele>76.0</ele><time>2026-04-15T09:00:36.001Z</time></trkpt><trkpt lat="-26.40938957858989" lon="114.38025841899305"><ele>75.5</ele><time>2026-04-15T09:00:37.001Z</time></trkpt><trkpt lat="-26.40940971958405" lon="114.37995068917779"><ele>75.0</ele><time>2026-04-15T09:00:38.001Z</time></trkpt><trkpt lat="-26.409431492888178" lon="114.3796449967244"><ele>75.0</ele><time>2026-04-15T09:00:39.001Z</time></trkpt><trkpt lat="-26.40945073209142" lon="114.37933659234969"><ele>75.0</ele><time>2026-04-15T09:00:40.001Z</time></trkpt><trkpt lat="-26.40946886946823" lon="114.37902870638263"><ele>75.0</ele><time>2026-04-15T09:00:41.001Z</time></trkpt><trkpt lat="-26.409485804803627" lon="114.37872313142874"><ele>75.0</ele><time>2026-04-15T09:00:42.001Z</time></trkpt><trkpt lat="-26.409501915336733" lon="114.37841617203074"><ele>75.0</ele><time>2026-04-15T09:00:43.001Z</time></trkpt><trkpt lat="-26.409518548420106" lon="114.37811022411547"><ele>75.0</ele><time>2026-04-15T09:00:44.001Z</time></trkpt><trkpt lat="-26.40953765167004" lon="114.3778064948319"><ele>74.5</ele><time>2026-04-15T09:00:45.001Z</time></trkpt><trkpt lat="-26.40955811861011" lon="114.37750597899206"><ele>74.0</ele><time>2026-04-15T09:00:46.001Z</time></trkpt><trkpt lat="-26.409580282248026" lon="114.37720496047716"><ele>74.5</ele><time>2026-04-15T09:00:47.001Z</time></trkpt><trkpt lat="-26.409600011352655" lon="114.37690170231411"><ele>75.0</ele><time>2026-04-15T09:00:48.001Z</time></trkpt><trkpt lat="-26.409620520724037" lon="114.37660021826782"><ele>74.0</ele><time>2026-04-15T09:00:49.001Z</time></trkpt><trkpt lat="-26.40964069474464" lon="114.37629965554204"><ele>73.0</ele><time>2026-04-15T09:00:50.001Z</time></trkpt><trkpt lat="-26.409653525947896" lon="114.37600283088766"><ele>73.0</ele><time>2026-04-15T09:00:51.001Z</time></trkpt><trkpt lat="-26.409664986617088" lon="114.37570584315628"><ele>73.0</ele><time>2026-04-15T09:00:52.001Z</time></trkpt><trkpt lat="-26.409681309662943" lon="114.37541013524311"><ele>73.5</ele><time>2026-04-15T09:00:53.001Z</time></trkpt><trkpt lat="-26.409700010393887" lon="114.37511679542496"><ele>74.0</ele><time>2026-04-15T09:00:54.001Z</time></trkpt><trkpt lat="-26.40972235289897" lon="114.3748222182654"><ele>74.5</ele><time>2026-04-15T09:00:55.001Z</time></trkpt><trkpt lat="-26.40974631302609" lon="114.37452344486084"><ele>75.0</ele><time>2026-04-15T09:00:56.001Z</time></trkpt><trkpt lat="-26.409768752495104" lon="114.37421571519711"><ele>75.0</ele><time>2026-04-15T09:00:57.001Z</time></trkpt><trkpt lat="-26.40978667984504" lon="114.37390987270766"><ele>75.0</ele><time>2026-04-15T09:00:58.001Z</time></trkpt><trkpt lat="-26.409802832661782" lon="114.3736051177618"><ele>75.5</ele><time>2026-04-15T09:00:59.001Z</time></trkpt><trkpt lat="-26.409815281049795" lon="114.37330113475915"><ele>76.0</ele><time>2026-04-15T09:01:00.001Z</time></trkpt><trkpt lat="-26.409827017367565" lon="114.3729965205757"><ele>76.0</ele><time>2026-04-15T09:01:01.001Z</time></trkpt><trkpt lat="-26.409843701903043" lon="114.37269342152176"><ele>76.0</ele><time>2026-04-15T09:01:02.001Z</time></trkpt><trkpt lat="-26.40986487024851" lon="114.37238767410858"><ele>75.0</ele><time>2026-04-15T09:01:03.001Z</time></trkpt><trkpt lat="-26.409884368440277" lon="114.37208570400617"><ele>74.0</ele><time>2026-04-15T09:01:04.001Z</time></trkpt><trkpt lat="-26.409902472393057" lon="114.37178002917321"><ele>74.0</ele><time>2026-04-15T09:01:05.001Z</time></trkpt><trkpt lat="-26.409918361120216" lon="114.37147443081568"><ele>74.0</ele><time>2026-04-15T09:01:06.001Z</time></trkpt><trkpt lat="-26.409937228701605" lon="114.3711661836819"><ele>75.0</ele><time>2026-04-15T09:01:07.001Z</time></trkpt><trkpt lat="-26.409957002957245" lon="114.37086060587876"><ele>76.0</ele><time>2026-04-15T09:01:08.001Z</time></trkpt><trkpt lat="-26.409980200195225" lon="114.37055676012741"><ele>76.0</ele><time>2026-04-15T09:01:09.001Z</time></trkpt><trkpt lat="-26.41000213956036" lon="114.3702555494443"><ele>76.0</ele><time>2026-04-15T09:01:10.001Z</time></trkpt><trkpt lat="-26.410019736360162" lon="114.36995375768086"><ele>76.5</ele><time>2026-04-15T09:01:11.001Z</time></trkpt><trkpt lat="-26.41003659652055" lon="114.36965086379035"><ele>77.0</ele><time>2026-04-15T09:01:12.001Z</time></trkpt><trkpt lat="-26.410053943373107" lon="114.36934874434675"><ele>77.0</ele><time>2026-04-15T09:01:13.001Z</time></trkpt><trkpt lat="-26.410069552923247" lon="114.36904605412832"><ele>77.0</ele><time>2026-04-15T09:01:14.001Z</time></trkpt><trkpt lat="-26.410086625328482" lon="114.36873895133996"><ele>77.0</ele><time>2026-04-15T09:01:15Z</time></trkpt><trkpt lat="-26.410106485016833" lon="114.36843490481489"><ele>77.0</ele><time>2026-04-15T09:01:16Z</time></trkpt><trkpt lat="-26.41012703618768" lon="114.36812896663982"><ele>77.0</ele><time>2026-04-15T09:01:17Z</time></trkpt><trkpt lat="-26.410146920877946" lon="114.36782613140242"><ele>77.0</ele><time>2026-04-15T09:01:18Z</time></trkpt><trkpt lat="-26.410166183995972" lon="114.3675203862469"><ele>77.0</ele><time>2026-04-15T09:01:19Z</time></trkpt><trkpt lat="-26.41018716919956" lon="114.36721659009052"><ele>77.0</ele><time>2026-04-15T09:01:20Z</time></trkpt><trkpt lat="-26.410203651746574" lon="114.36691403927804"><ele>76.0</ele><time>2026-04-15T09:01:21Z</time></trkpt><trkpt lat="-26.410218304130183" lon="114.36661377625981"><ele>75.0</ele><time>2026-04-15T09:01:22Z</time></trkpt><trkpt lat="-26.410234852518084" lon="114.36631332568328"><ele>75.0</ele><time>2026-04-15T09:01:23Z</time></trkpt><trkpt lat="-26.410254378795933" lon="114.36601368741569"><ele>75.0</ele><time>2026-04-15T09:01:24Z</time></trkpt><trkpt lat="-26.410274435606578" lon="114.3657159418154"><ele>76.0</ele><time>2026-04-15T09:01:25Z</time></trkpt><trkpt lat="-26.410293646018854" lon="114.36542033295795"><ele>77.0</ele><time>2026-04-15T09:01:26Z</time></trkpt><trkpt lat="-26.410312664340896" lon="114.3651229072468"><ele>77.0</ele><time>2026-04-15T09:01:27Z</time></trkpt><trkpt lat="-26.410332037967216" lon="114.36482717138573"><ele>77.0</ele><time>2026-04-15T09:01:28Z</time></trkpt><trkpt lat="-26.41035442431632" lon="114.36452945913943"><ele>77.5</ele><time>2026-04-15T09:01:29Z</time></trkpt><trkpt lat="-26.410373489933708" lon="114.36423475409397"><ele>78.0</ele><time>2026-04-15T09:01:30Z</time></trkpt><trkpt lat="-26.41039107272263" lon="114.36394378789201"><ele>78.0</ele><time>2026-04-15T09:01:31Z</time></trkpt><trkpt lat="-26.410409577391338" lon="114.36364691709838"><ele>78.0</ele><time>2026-04-15T09:01:32Z</time></trkpt><trkpt lat="-26.41042482517255" lon="114.36334537616231"><ele>78.0</ele><time>2026-04-15T09:01:33Z</time></trkpt><trkpt lat="-26.410442150698067" lon="114.36304167816652"><ele>78.0</ele><time>2026-04-15T09:01:34Z</time></trkpt><trkpt lat="-26.41046200234396" lon="114.36274014691544"><ele>77.5</ele><time>2026-04-15T09:01:35Z</time></trkpt><trkpt lat="-26.41048366634284" lon="114.36243995413572"><ele>77.0</ele><time>2026-04-15T09:01:36Z</time></trkpt><trkpt lat="-26.410505164064052" lon="114.36214114029198"><ele>77.0</ele><time>2026-04-15T09:01:37Z</time></trkpt><trkpt lat="-26.41052264959669" lon="114.36184435730053"><ele>77.0</ele><time>2026-04-15T09:01:38Z</time></trkpt><trkpt lat="-26.410538743135255" lon="114.36154608858014"><ele>76.0</ele><time>2026-04-15T09:01:39Z</time></trkpt><trkpt lat="-26.41055416325423" lon="114.36125479338817"><ele>75.0</ele><time>2026-04-15T09:01:40Z</time></trkpt><trkpt lat="-26.410573341787007" lon="114.36096223047623"><ele>75.0</ele><time>2026-04-15T09:01:41Z</time></trkpt><trkpt lat="-26.410591940919755" lon="114.36067302896603"><ele>75.0</ele><time>2026-04-15T09:01:42Z</time></trkpt><trkpt lat="-26.410610007603672" lon="114.3603862473166"><ele>75.5</ele><time>2026-04-15T09:01:43Z</time></trkpt><trkpt lat="-26.41063048676095" lon="114.36009902180184"><ele>76.0</ele><time>2026-04-15T09:01:44Z</time></trkpt><trkpt lat="-26.41064836924456" lon="114.35981166720069"><ele>76.0</ele><time>2026-04-15T09:01:45Z</time></trkpt><trkpt lat="-26.410665746431107" lon="114.35952622401663"><ele>76.0</ele><time>2026-04-15T09:01:46Z</time></trkpt><trkpt lat="-26.41068343809431" lon="114.35923915702026"><ele>76.0</ele><time>2026-04-15T09:01:47Z</time></trkpt><trkpt lat="-26.410701134726626" lon="114.3589567359236"><ele>76.0</ele><time>2026-04-15T09:01:48Z</time></trkpt><trkpt lat="-26.41071762782001" lon="114.35866859864032"><ele>75.0</ele><time>2026-04-15T09:01:49Z</time></trkpt><trkpt lat="-26.410736111528074" lon="114.35838305010326"><ele>74.0</ele><time>2026-04-15T09:01:50Z</time></trkpt><trkpt lat="-26.41075812924494" lon="114.35809595222426"><ele>73.5</ele><time>2026-04-15T09:01:51Z</time></trkpt><trkpt lat="-26.410785724859455" lon="114.357810130425"><ele>73.0</ele><time>2026-04-15T09:01:52Z</time></trkpt><trkpt lat="-26.41082134625513" lon="114.35752209497818"><ele>73.0</ele><time>2026-04-15T09:01:53Z</time></trkpt><trkpt lat="-26.410858646095235" lon="114.35723434168986"><ele>73.0</ele><time>2026-04-15T09:01:54Z</time></trkpt><trkpt lat="-26.410902019221723" lon="114.35694559605925"><ele>72.5</ele><time>2026-04-15T09:01:55Z</time></trkpt><trkpt lat="-26.410953730114688" lon="114.35665950517121"><ele>72.0</ele><time>2026-04-15T09:01:56Z</time></trkpt><trkpt lat="-26.411014466280935" lon="114.35637378381529"><ele>71.5</ele><time>2026-04-15T09:01:57Z</time></trkpt><trkpt lat="-26.411081518474415" lon="114.3560932224405"><ele>71.0</ele><time>2026-04-15T09:01:58Z</time></trkpt><trkpt lat="-26.411153607622754" lon="114.35581162907404"><ele>71.0</ele><time>2026-04-15T09:01:59Z</time></trkpt><trkpt lat="-26.41123480997563" lon="114.35553053509952"><ele>71.0</ele><time>2026-04-15T09:02:00Z</time></trkpt><trkpt lat="-26.411322169474" lon="114.35525268918694"><ele>71.0</ele><time>2026-04-15T09:02:01Z</time></trkpt><trkpt lat="-26.411410956500543" lon="114.35497242399951"><ele>71.0</ele><time>2026-04-15T09:02:02Z</time></trkpt><trkpt lat="-26.41149657420918" lon="114.35469525270415"><ele>71.5</ele><time>2026-04-15T09:02:03Z</time></trkpt><trkpt lat="-26.41158160404195" lon="114.3544178885245"><ele>72.0</ele><time>2026-04-15T09:02:04Z</time></trkpt><trkpt lat="-26.4116654485436" lon="114.35413740244121"><ele>72.5</ele><time>2026-04-15T09:02:05Z</time></trkpt><trkpt lat="-26.41175256728242" lon="114.35385432621264"><ele>73.0</ele><time>2026-04-15T09:02:06Z</time></trkpt><trkpt lat="-26.411842664874023" lon="114.35356655933471"><ele>73.0</ele><time>2026-04-15T09:02:07Z</time></trkpt><trkpt lat="-26.41193069461245" lon="114.35327977265229"><ele>73.0</ele><time>2026-04-15T09:02:08Z</time></trkpt><trkpt lat="-26.412018210916834" lon="114.35298849392373"><ele>72.5</ele><time>2026-04-15T09:02:09Z</time></trkpt><trkpt lat="-26.412107861707366" lon="114.35269691617445"><ele>72.0</ele><time>2026-04-15T09:02:10Z</time></trkpt><trkpt lat="-26.4121976388301" lon="114.35240603450262"><ele>71.5</ele><time>2026-04-15T09:02:11Z</time></trkpt><trkpt lat="-26.412290618726846" lon="114.35211457168391"><ele>71.0</ele><time>2026-04-15T09:02:12Z</time></trkpt><trkpt lat="-26.412383124550757" lon="114.35182437080726"><ele>71.0</ele><time>2026-04-15T09:02:13Z</time></trkpt><trkpt lat="-26.41247395670375" lon="114.35153390305933"><ele>71.0</ele><time>2026-04-15T09:02:14Z</time></trkpt><trkpt lat="-26.41256383548529" lon="114.35124395814942"><ele>70.5</ele><time>2026-04-15T09:02:15Z</time></trkpt><trkpt lat="-26.412653367895533" lon="114.35095130032717"><ele>70.0</ele><time>2026-04-15T09:02:16Z</time></trkpt><trkpt lat="-26.412741202896747" lon="114.35066239295135"><ele>70.0</ele><time>2026-04-15T09:02:17Z</time></trkpt><trkpt lat="-26.412830358352437" lon="114.35037088897754"><ele>70.0</ele><time>2026-04-15T09:02:18Z</time></trkpt><trkpt lat="-26.412920137071183" lon="114.35008297267046"><ele>69.5</ele><time>2026-04-15T09:02:19Z</time></trkpt><trkpt lat="-26.413011553152387" lon="114.34979593356334"><ele>69.0</ele><time>2026-04-15T09:02:20Z</time></trkpt><trkpt lat="-26.413100145838893" lon="114.3495087773068"><ele>70.0</ele><time>2026-04-15T09:02:21Z</time></trkpt><trkpt lat="-26.413190034273864" lon="114.34921253949763"><ele>71.0</ele><time>2026-04-15T09:02:22Z</time></trkpt><trkpt lat="-26.413282814997782" lon="114.34891177751608"><ele>70.0</ele><time>2026-04-15T09:02:23Z</time></trkpt><trkpt lat="-26.41337641627329" lon="114.34860894111864"><ele>69.0</ele><time>2026-04-15T09:02:24Z</time></trkpt><trkpt lat="-26.413470403080677" lon="114.34830866763116"><ele>69.5</ele><time>2026-04-15T09:02:25Z</time></trkpt><trkpt lat="-26.413563850491535" lon="114.34801080016402"><ele>70.0</ele><time>2026-04-15T09:02:26Z</time></trkpt><trkpt lat="-26.413655255474925" lon="114.34771572779054"><ele>70.0</ele><time>2026-04-15T09:02:27Z</time></trkpt><trkpt lat="-26.41374390723701" lon="114.34742122726388"><ele>70.0</ele><time>2026-04-15T09:02:28Z</time></trkpt><trkpt lat="-26.413834170146437" lon="114.34712825296305"><ele>70.0</ele><time>2026-04-15T09:02:29Z</time></trkpt><trkpt lat="-26.413925196069865" lon="114.34683483787873"><ele>70.0</ele><time>2026-04-15T09:02:30Z</time></trkpt><trkpt lat="-26.41401817005366" lon="114.34653665644653"><ele>71.0</ele><time>2026-04-15T09:02:31Z</time></trkpt><trkpt lat="-26.414110511749588" lon="114.34624583859423"><ele>72.0</ele><time>2026-04-15T09:02:32Z</time></trkpt><trkpt lat="-26.41420417917403" lon="114.34595288064105"><ele>72.0</ele><time>2026-04-15T09:02:33Z</time></trkpt><trkpt lat="-26.414294282376723" lon="114.34566016465197"><ele>72.0</ele><time>2026-04-15T09:02:34Z</time></trkpt><trkpt lat="-26.414380370991022" lon="114.34536928596462"><ele>72.5</ele><time>2026-04-15T09:02:35Z</time></trkpt><trkpt lat="-26.414468973399526" lon="114.34507918170667"><ele>73.0</ele><time>2026-04-15T09:02:36Z</time></trkpt><trkpt lat="-26.414556782086677" lon="114.34478818233178"><ele>72.0</ele><time>2026-04-15T09:02:37Z</time></trkpt><trkpt lat="-26.41464598579365" lon="114.344499186193"><ele>71.0</ele><time>2026-04-15T09:02:38Z</time></trkpt><trkpt lat="-26.41473435812245" lon="114.34421333629689"><ele>71.0</ele><time>2026-04-15T09:02:39Z</time></trkpt><trkpt lat="-26.4148233912256" lon="114.3439268468748"><ele>71.0</ele><time>2026-04-15T09:02:40Z</time></trkpt><trkpt lat="-26.41491334652734" lon="114.34364086915014"><ele>71.0</ele><time>2026-04-15T09:02:41Z</time></trkpt><trkpt lat="-26.415005635952276" lon="114.34335125915769"><ele>71.0</ele><time>2026-04-15T09:02:42Z</time></trkpt><trkpt lat="-26.415097947502385" lon="114.34306173358131"><ele>71.0</ele><time>2026-04-15T09:02:43Z</time></trkpt><trkpt lat="-26.41518999272058" lon="114.34276881992646"><ele>71.0</ele><time>2026-04-15T09:02:44Z</time></trkpt><trkpt lat="-26.415281519053245" lon="114.34246885912242"><ele>71.0</ele><time>2026-04-15T09:02:45Z</time></trkpt><trkpt lat="-26.415375991704142" lon="114.34216947928856"><ele>71.0</ele><time>2026-04-15T09:02:46Z</time></trkpt><trkpt lat="-26.415469268933027" lon="114.34186962285098"><ele>71.0</ele><time>2026-04-15T09:02:47Z</time></trkpt><trkpt lat="-26.41556124486396" lon="114.34157036274071"><ele>71.0</ele><time>2026-04-15T09:02:48Z</time></trkpt><trkpt lat="-26.41565535034063" lon="114.34126805907137"><ele>71.0</ele><time>2026-04-15T09:02:49Z</time></trkpt><trkpt lat="-26.415750366843014" lon="114.34096811414085"><ele>71.0</ele><time>2026-04-15T09:02:50Z</time></trkpt><trkpt lat="-26.41584472903706" lon="114.34066488122095"><ele>71.5</ele><time>2026-04-15T09:02:51Z</time></trkpt><trkpt lat="-26.415936983817332" lon="114.3403640673302"><ele>72.0</ele><time>2026-04-15T09:02:52Z</time></trkpt><trkpt lat="-26.416030801670633" lon="114.34006321005923"><ele>72.0</ele><time>2026-04-15T09:02:53Z</time></trkpt><trkpt lat="-26.416123929204097" lon="114.33976410017381"><ele>72.0</ele><time>2026-04-15T09:02:54Z</time></trkpt><trkpt lat="-26.416217418619347" lon="114.33946391187416"><ele>71.5</ele><time>2026-04-15T09:02:55Z</time></trkpt><trkpt lat="-26.416311689740198" lon="114.33916434935759"><ele>71.0</ele><time>2026-04-15T09:02:56Z</time></trkpt><trkpt lat="-26.41640460817477" lon="114.33886677254688"><ele>71.0</ele><time>2026-04-15T09:02:57Z</time></trkpt><trkpt lat="-26.41649330963942" lon="114.33857343911963"><ele>71.0</ele><time>2026-04-15T09:02:58Z</time></trkpt><trkpt lat="-26.41658083270119" lon="114.33827623752313"><ele>70.0</ele><time>2026-04-15T09:02:59Z</time></trkpt><trkpt lat="-26.416668255385222" lon="114.33798466822975"><ele>69.0</ele><time>2026-04-15T09:03:00Z</time></trkpt><trkpt lat="-26.41676047358951" lon="114.33769205321026"><ele>69.0</ele><time>2026-04-15T09:03:01Z</time></trkpt><trkpt lat="-26.416853669117877" lon="114.33739935795487"><ele>69.0</ele><time>2026-04-15T09:03:02Z</time></trkpt><trkpt lat="-26.416944554966253" lon="114.33710494304125"><ele>70.0</ele><time>2026-04-15T09:03:03Z</time></trkpt><trkpt lat="-26.417035204930436" lon="114.3368111683405"><ele>71.0</ele><time>2026-04-15T09:03:04Z</time></trkpt><trkpt lat="-26.41712700723534" lon="114.33651855974985"><ele>70.0</ele><time>2026-04-15T09:03:05Z</time></trkpt><trkpt lat="-26.417219701878782" lon="114.336225846045"><ele>69.0</ele><time>2026-04-15T09:03:06Z</time></trkpt><trkpt lat="-26.417308582035712" lon="114.3359299971576"><ele>69.0</ele><time>2026-04-15T09:03:07Z</time></trkpt><trkpt lat="-26.417397762653092" lon="114.33563334771645"><ele>69.0</ele><time>2026-04-15T09:03:08Z</time></trkpt><trkpt lat="-26.417486648723063" lon="114.33533881192284"><ele>70.0</ele><time>2026-04-15T09:03:09Z</time></trkpt><trkpt lat="-26.41757408750887" lon="114.33504212107819"><ele>71.0</ele><time>2026-04-15T09:03:10Z</time></trkpt><trkpt lat="-26.41765536888469" lon="114.33473947640071"><ele>70.5</ele><time>2026-04-15T09:03:11Z</time></trkpt><trkpt lat="-26.41772459264772" lon="114.33443156607754"><ele>70.0</ele><time>2026-04-15T09:03:12Z</time></trkpt><trkpt lat="-26.417783498990747" lon="114.33411472494788"><ele>69.5</ele><time>2026-04-15T09:03:13.001Z</time></trkpt><trkpt lat="-26.41783551924705" lon="114.33379610884234"><ele>69.0</ele><time>2026-04-15T09:03:14.001Z</time></trkpt><trkpt lat="-26.417882153151997" lon="114.33348315247767"><ele>69.0</ele><time>2026-04-15T09:03:15.001Z</time></trkpt><trkpt lat="-26.417923730756453" lon="114.33316961866632"><ele>69.0</ele><time>2026-04-15T09:03:16.001Z</time></trkpt><trkpt lat="-26.41795702763687" lon="114.33285887477682"><ele>68.5</ele><time>2026-04-15T09:03:17.001Z</time></trkpt><trkpt lat="-26.417982529708087" lon="114.3325501253726"><ele>68.0</ele><time>2026-04-15T09:03:18.001Z</time></trkpt><trkpt lat="-26.418002318520283" lon="114.33224678206739"><ele>68.0</ele><time>2026-04-15T09:03:19.001Z</time></trkpt><trkpt lat="-26.41801992325588" lon="114.33194283855461"><ele>68.0</ele><time>2026-04-15T09:03:20.001Z</time></trkpt><trkpt lat="-26.418036343361827" lon="114.33164121770238"><ele>69.0</ele><time>2026-04-15T09:03:21Z</time></trkpt><trkpt lat="-26.41805520446481" lon="114.33134001110236"><ele>70.0</ele><time>2026-04-15T09:03:22Z</time></trkpt><trkpt lat="-26.418073660161642" lon="114.33104232713488"><ele>70.0</ele><time>2026-04-15T09:03:23Z</time></trkpt><trkpt lat="-26.41809238893521" lon="114.33074340933919"><ele>70.0</ele><time>2026-04-15T09:03:24Z</time></trkpt><trkpt lat="-26.418111481824255" lon="114.33044435309378"><ele>70.0</ele><time>2026-04-15T09:03:25Z</time></trkpt><trkpt lat="-26.41813098993076" lon="114.33014639501006"><ele>70.0</ele><time>2026-04-15T09:03:26Z</time></trkpt><trkpt lat="-26.418150852270735" lon="114.3298483560843"><ele>69.5</ele><time>2026-04-15T09:03:27Z</time></trkpt><trkpt lat="-26.418168773899023" lon="114.3295521789575"><ele>69.0</ele><time>2026-04-15T09:03:28Z</time></trkpt><trkpt lat="-26.418185293304237" lon="114.32925420617882"><ele>69.0</ele><time>2026-04-15T09:03:29Z</time></trkpt><trkpt lat="-26.418202061627568" lon="114.32895624219844"><ele>69.0</ele><time>2026-04-15T09:03:30Z</time></trkpt><trkpt lat="-26.41822096193904" lon="114.32865560971229"><ele>69.0</ele><time>2026-04-15T09:03:31Z</time></trkpt><trkpt lat="-26.41823942928098" lon="114.32835178427182"><ele>69.0</ele><time>2026-04-15T09:03:32Z</time></trkpt><trkpt lat="-26.418258275689126" lon="114.32804593904591"><ele>69.0</ele><time>2026-04-15T09:03:33Z</time></trkpt><trkpt lat="-26.418277792089125" lon="114.3277354783773"><ele>69.0</ele><time>2026-04-15T09:03:34Z</time></trkpt><trkpt lat="-26.41829685333083" lon="114.3274264794043"><ele>68.5</ele><time>2026-04-15T09:03:35Z</time></trkpt><trkpt lat="-26.418314488262702" lon="114.32711441815171"><ele>68.0</ele><time>2026-04-15T09:03:36Z</time></trkpt><trkpt lat="-26.41833180085723" lon="114.3268015391187"><ele>68.0</ele><time>2026-04-15T09:03:37Z</time></trkpt><trkpt lat="-26.41834769535458" lon="114.32648878616473"><ele>68.0</ele><time>2026-04-15T09:03:38Z</time></trkpt><trkpt lat="-26.418365184081164" lon="114.32617497570176"><ele>68.0</ele><time>2026-04-15T09:03:39Z</time></trkpt><trkpt lat="-26.418386451974165" lon="114.32586289647274"><ele>68.0</ele><time>2026-04-15T09:03:40Z</time></trkpt><trkpt lat="-26.418409739365426" lon="114.3255473905281"><ele>68.0</ele><time>2026-04-15T09:03:41Z</time></trkpt><trkpt lat="-26.418431186511118" lon="114.32523792309055"><ele>68.0</ele><time>2026-04-15T09:03:42Z</time></trkpt><trkpt lat="-26.418452194104116" lon="114.32492553195353"><ele>68.0</ele><time>2026-04-15T09:03:43Z</time></trkpt><trkpt lat="-26.418473581512593" lon="114.32461377947064"><ele>68.0</ele><time>2026-04-15T09:03:44Z</time></trkpt><trkpt lat="-26.41849276881538" lon="114.32430464030121"><ele>68.0</ele><time>2026-04-15T09:03:45Z</time></trkpt><trkpt lat="-26.41851494141882" lon="114.32399576554215"><ele>68.0</ele><time>2026-04-15T09:03:46Z</time></trkpt><trkpt lat="-26.418537039386283" lon="114.3236884575717"><ele>67.5</ele><time>2026-04-15T09:03:47Z</time></trkpt><trkpt lat="-26.418555835539102" lon="114.32337993371425"><ele>67.0</ele><time>2026-04-15T09:03:48Z</time></trkpt><trkpt lat="-26.41857298762988" lon="114.32307077945889"><ele>67.0</ele><time>2026-04-15T09:03:49Z</time></trkpt><trkpt lat="-26.418589244092935" lon="114.32276546642395"><ele>67.0</ele><time>2026-04-15T09:03:50Z</time></trkpt><trkpt lat="-26.41860592743803" lon="114.3224587132159"><ele>66.0</ele><time>2026-04-15T09:03:51Z</time></trkpt><trkpt lat="-26.41862236982518" lon="114.32215533009632"><ele>65.0</ele><time>2026-04-15T09:03:52Z</time></trkpt><trkpt lat="-26.418636499862096" lon="114.32187004639577"><ele>65.0</ele><time>2026-04-15T09:03:53Z</time></trkpt><trkpt lat="-26.418652438886863" lon="114.32159666240958"><ele>65.0</ele><time>2026-04-15T09:03:54Z</time></trkpt><trkpt lat="-26.418671595304435" lon="114.32131560176742"><ele>66.0</ele><time>2026-04-15T09:03:55Z</time></trkpt><trkpt lat="-26.418690412642466" lon="114.32102552409314"><ele>67.0</ele><time>2026-04-15T09:03:56Z</time></trkpt><trkpt lat="-26.41871057286989" lon="114.32072898734542"><ele>66.5</ele><time>2026-04-15T09:03:57Z</time></trkpt><trkpt lat="-26.418733662425936" lon="114.32042986801245"><ele>66.0</ele><time>2026-04-15T09:03:58Z</time></trkpt><trkpt lat="-26.41875818342838" lon="114.32012755953652"><ele>66.0</ele><time>2026-04-15T09:03:59Z</time></trkpt><trkpt lat="-26.418778376923875" lon="114.31982403351371"><ele>66.0</ele><time>2026-04-15T09:04:00Z</time></trkpt><trkpt lat="-26.418795010609312" lon="114.31951814890976"><ele>66.0</ele><time>2026-04-15T09:04:01Z</time></trkpt><trkpt lat="-26.418807909938334" lon="114.31921705918421"><ele>66.0</ele><time>2026-04-15T09:04:02Z</time></trkpt><trkpt lat="-26.41882305445043" lon="114.3189158258933"><ele>65.5</ele><time>2026-04-15T09:04:03Z</time></trkpt><trkpt lat="-26.41884133329206" lon="114.31861723452107"><ele>65.0</ele><time>2026-04-15T09:04:04Z</time></trkpt><trkpt lat="-26.418863655312375" lon="114.3183233727852"><ele>64.0</ele><time>2026-04-15T09:04:05Z</time></trkpt><trkpt lat="-26.418883254614624" lon="114.31803318433188"><ele>63.0</ele><time>2026-04-15T09:04:06Z</time></trkpt><trkpt lat="-26.418899948493163" lon="114.31774269688687"><ele>63.0</ele><time>2026-04-15T09:04:07Z</time></trkpt><trkpt lat="-26.418914358236872" lon="114.31745502904684"><ele>63.0</ele><time>2026-04-15T09:04:08Z</time></trkpt><trkpt lat="-26.4189287480783" lon="114.31717142306717"><ele>63.5</ele><time>2026-04-15T09:04:09Z</time></trkpt><trkpt lat="-26.418944226693213" lon="114.31688890382532"><ele>64.0</ele><time>2026-04-15T09:04:10Z</time></trkpt><trkpt lat="-26.418963137926866" lon="114.31660731926785"><ele>65.0</ele><time>2026-04-15T09:04:11Z</time></trkpt><trkpt lat="-26.418984761436313" lon="114.31632855899984"><ele>66.0</ele><time>2026-04-15T09:04:12Z</time></trkpt><trkpt lat="-26.41900648979998" lon="114.31605136786706"><ele>66.0</ele><time>2026-04-15T09:04:13Z</time></trkpt><trkpt lat="-26.419026094383995" lon="114.31577407799487"><ele>66.0</ele><time>2026-04-15T09:04:14Z</time></trkpt><trkpt lat="-26.419043785493074" lon="114.3154957627262"><ele>65.5</ele><time>2026-04-15T09:04:15Z</time></trkpt><trkpt lat="-26.41905874156739" lon="114.31521848720783"><ele>65.0</ele><time>2026-04-15T09:04:16Z</time></trkpt><trkpt lat="-26.419073017790087" lon="114.31494044877074"><ele>65.5</ele><time>2026-04-15T09:04:17Z</time></trkpt><trkpt lat="-26.41908857970932" lon="114.31466103665615"><ele>66.0</ele><time>2026-04-15T09:04:18Z</time></trkpt><trkpt lat="-26.419105474185457" lon="114.3143801272441"><ele>66.0</ele><time>2026-04-15T09:04:19Z</time></trkpt><trkpt lat="-26.419124331215375" lon="114.31409745790344"><ele>66.0</ele><time>2026-04-15T09:04:20Z</time></trkpt><trkpt lat="-26.419142717832514" lon="114.31381483251621"><ele>65.5</ele><time>2026-04-15T09:04:21Z</time></trkpt><trkpt lat="-26.419160969609944" lon="114.31352982510933"><ele>65.0</ele><time>2026-04-15T09:04:22Z</time></trkpt><trkpt lat="-26.419176133981836" lon="114.31324753641067"><ele>65.0</ele><time>2026-04-15T09:04:23Z</time></trkpt><trkpt lat="-26.41919046056318" lon="114.31296859380215"><ele>65.0</ele><time>2026-04-15T09:04:24Z</time></trkpt><trkpt lat="-26.419207943831214" lon="114.3126900845106"><ele>65.0</ele><time>2026-04-15T09:04:25Z</time></trkpt><trkpt lat="-26.419228117365257" lon="114.31241337531208"><ele>65.0</ele><time>2026-04-15T09:04:26Z</time></trkpt><trkpt lat="-26.419248082515747" lon="114.31213760529296"><ele>65.5</ele><time>2026-04-15T09:04:27Z</time></trkpt><trkpt lat="-26.419267046475454" lon="114.31185962911387"><ele>66.0</ele><time>2026-04-15T09:04:28Z</time></trkpt><trkpt lat="-26.419283051939125" lon="114.31157477525538"><ele>65.5</ele><time>2026-04-15T09:04:29Z</time></trkpt><trkpt lat="-26.419297680436536" lon="114.31128710994278"><ele>65.0</ele><time>2026-04-15T09:04:30Z</time></trkpt><trkpt lat="-26.41931218996807" lon="114.31100548636803"><ele>65.0</ele><time>2026-04-15T09:04:31Z</time></trkpt><trkpt lat="-26.41932961154825" lon="114.31071544494993"><ele>65.0</ele><time>2026-04-15T09:04:32Z</time></trkpt><trkpt lat="-26.419348545239476" lon="114.31042077717795"><ele>64.0</ele><time>2026-04-15T09:04:33Z</time></trkpt><trkpt lat="-26.41936793423942" lon="114.31012751067354"><ele>63.0</ele><time>2026-04-15T09:04:34Z</time></trkpt><trkpt lat="-26.419386888295925" lon="114.30983613215042"><ele>63.5</ele><time>2026-04-15T09:04:35Z</time></trkpt><trkpt lat="-26.419403501564897" lon="114.30954441239598"><ele>64.0</ele><time>2026-04-15T09:04:36Z</time></trkpt><trkpt lat="-26.41942098651528" lon="114.30925186772714"><ele>64.0</ele><time>2026-04-15T09:04:37Z</time></trkpt><trkpt lat="-26.419439962251428" lon="114.30895949205203"><ele>64.0</ele><time>2026-04-15T09:04:38Z</time></trkpt><trkpt lat="-26.41945916247774" lon="114.30866488361275"><ele>64.0</ele><time>2026-04-15T09:04:39Z</time></trkpt><trkpt lat="-26.419477451247026" lon="114.30836720920067"><ele>64.0</ele><time>2026-04-15T09:04:40Z</time></trkpt><trkpt lat="-26.419497678097688" lon="114.30806532551694"><ele>64.0</ele><time>2026-04-15T09:04:41Z</time></trkpt><trkpt lat="-26.419516067514127" lon="114.30776493008219"><ele>64.0</ele><time>2026-04-15T09:04:42Z</time></trkpt><trkpt lat="-26.41953231939388" lon="114.30746627011844"><ele>63.0</ele><time>2026-04-15T09:04:43Z</time></trkpt><trkpt lat="-26.419548519143994" lon="114.3071706959967"><ele>62.0</ele><time>2026-04-15T09:04:44Z</time></trkpt><trkpt lat="-26.41956684996022" lon="114.306870781922"><ele>62.0</ele><time>2026-04-15T09:04:45Z</time></trkpt><trkpt lat="-26.419582968331405" lon="114.3065712023005"><ele>62.0</ele><time>2026-04-15T09:04:46Z</time></trkpt><trkpt lat="-26.419602328221693" lon="114.306272606432"><ele>62.0</ele><time>2026-04-15T09:04:47Z</time></trkpt><trkpt lat="-26.419622848333" lon="114.30597328011179"><ele>62.0</ele><time>2026-04-15T09:04:48Z</time></trkpt><trkpt lat="-26.419641614302993" lon="114.3056718252912"><ele>62.0</ele><time>2026-04-15T09:04:49Z</time></trkpt><trkpt lat="-26.41966103876093" lon="114.3053678010977"><ele>62.0</ele><time>2026-04-15T09:04:50Z</time></trkpt><trkpt lat="-26.419681045791773" lon="114.30506367250942"><ele>62.0</ele><time>2026-04-15T09:04:51Z</time></trkpt><trkpt lat="-26.419700115139968" lon="114.30475875475041"><ele>62.0</ele><time>2026-04-15T09:04:52Z</time></trkpt><trkpt lat="-26.419718358365927" lon="114.30445438373351"><ele>61.5</ele><time>2026-04-15T09:04:53Z</time></trkpt><trkpt lat="-26.41973736065407" lon="114.30414854792313"><ele>61.0</ele><time>2026-04-15T09:04:54Z</time></trkpt><trkpt lat="-26.41975683501542" lon="114.30384506996104"><ele>62.0</ele><time>2026-04-15T09:04:55Z</time></trkpt><trkpt lat="-26.41977508388719" lon="114.30354010276781"><ele>63.0</ele><time>2026-04-15T09:04:56Z</time></trkpt><trkpt lat="-26.41979443837858" lon="114.30323395015532"><ele>62.0</ele><time>2026-04-15T09:04:57Z</time></trkpt><trkpt lat="-26.419815103591905" lon="114.30292415781832"><ele>61.0</ele><time>2026-04-15T09:04:58Z</time></trkpt><trkpt lat="-26.419835958169816" lon="114.30260487774599"><ele>61.0</ele><time>2026-04-15T09:04:59Z</time></trkpt><trkpt lat="-26.419856205367488" lon="114.30228402758617"><ele>61.0</ele><time>2026-04-15T09:05:00Z</time></trkpt><trkpt lat="-26.419876855060128" lon="114.30196038759532"><ele>61.5</ele><time>2026-04-15T09:05:01Z</time></trkpt><trkpt lat="-26.419895323523143" lon="114.30164081142877"><ele>62.0</ele><time>2026-04-15T09:05:02Z</time></trkpt><trkpt lat="-26.419913681947413" lon="114.30132299969539"><ele>62.0</ele><time>2026-04-15T09:05:03Z</time></trkpt><trkpt lat="-26.419931416979946" lon="114.30100524822336"><ele>62.0</ele><time>2026-04-15T09:05:04Z</time></trkpt><trkpt lat="-26.419951131494944" lon="114.3006865372117"><ele>62.5</ele><time>2026-04-15T09:05:05Z</time></trkpt><trkpt lat="-26.419971096492343" lon="114.30036729589558"><ele>63.0</ele><time>2026-04-15T09:05:06Z</time></trkpt><trkpt lat="-26.41999011601046" lon="114.30004944213944"><ele>63.0</ele><time>2026-04-15T09:05:07.001Z</time></trkpt><trkpt lat="-26.420010911171985" lon="114.29973129310335"><ele>63.0</ele><time>2026-04-15T09:05:08.001Z</time></trkpt><trkpt lat="-26.42003058500127" lon="114.29941093916773"><ele>63.0</ele><time>2026-04-15T09:05:09.001Z</time></trkpt><trkpt lat="-26.42004931982872" lon="114.29909048408854"><ele>63.0</ele><time>2026-04-15T09:05:10.001Z</time></trkpt><trkpt lat="-26.420067580792082" lon="114.29876898679356"><ele>62.0</ele><time>2026-04-15T09:05:11.001Z</time></trkpt><trkpt lat="-26.42008684792019" lon="114.29844965047691"><ele>61.0</ele><time>2026-04-15T09:05:12.001Z</time></trkpt><trkpt lat="-26.42010709982249" lon="114.29812651517416"><ele>60.5</ele><time>2026-04-15T09:05:13.001Z</time></trkpt><trkpt lat="-26.420130042824155" lon="114.29780650996102"><ele>60.0</ele><time>2026-04-15T09:05:14.001Z</time></trkpt><trkpt lat="-26.420152853207036" lon="114.29748428610887"><ele>59.0</ele><time>2026-04-15T09:05:15.001Z</time></trkpt><trkpt lat="-26.42017414582875" lon="114.297163562118"><ele>58.0</ele><time>2026-04-15T09:05:16.001Z</time></trkpt><trkpt lat="-26.420193828094224" lon="114.29684210242735"><ele>58.0</ele><time>2026-04-15T09:05:17.001Z</time></trkpt><trkpt lat="-26.420214063500495" lon="114.29652300060835"><ele>58.0</ele><time>2026-04-15T09:05:18.001Z</time></trkpt><trkpt lat="-26.420235597619957" lon="114.29620530677742"><ele>58.0</ele><time>2026-04-15T09:05:19.001Z</time></trkpt><trkpt lat="-26.420256109530474" lon="114.29588710792835"><ele>58.0</ele><time>2026-04-15T09:05:20.001Z</time></trkpt><trkpt lat="-26.420274492811053" lon="114.29556564196146"><ele>58.5</ele><time>2026-04-15T09:05:21.001Z</time></trkpt><trkpt lat="-26.420291762282467" lon="114.29524139075654"><ele>59.0</ele><time>2026-04-15T09:05:22.001Z</time></trkpt><trkpt lat="-26.420311338627346" lon="114.29491617523952"><ele>58.5</ele><time>2026-04-15T09:05:23.001Z</time></trkpt><trkpt lat="-26.42033160915353" lon="114.29459569379671"><ele>58.0</ele><time>2026-04-15T09:05:24.001Z</time></trkpt><trkpt lat="-26.42035203785378" lon="114.29427612587037"><ele>58.0</ele><time>2026-04-15T09:05:25.001Z</time></trkpt><trkpt lat="-26.420373542390166" lon="114.29395484753523"><ele>58.0</ele><time>2026-04-15T09:05:26.001Z</time></trkpt><trkpt lat="-26.420394412957247" lon="114.29362898614421"><ele>58.5</ele><time>2026-04-15T09:05:27.001Z</time></trkpt><trkpt lat="-26.420413069292895" lon="114.29330268336342"><ele>59.0</ele><time>2026-04-15T09:05:28.001Z</time></trkpt><trkpt lat="-26.42043058111055" lon="114.29297693605875"><ele>59.0</ele><time>2026-04-15T09:05:29.001Z</time></trkpt><trkpt lat="-26.420449527035043" lon="114.2926495551106"><ele>59.0</ele><time>2026-04-15T09:05:30.001Z</time></trkpt><trkpt lat="-26.420468333130273" lon="114.29232574598507"><ele>59.5</ele><time>2026-04-15T09:05:31.001Z</time></trkpt><trkpt lat="-26.420487327390738" lon="114.292001328095"><ele>60.0</ele><time>2026-04-15T09:05:32.001Z</time></trkpt><trkpt lat="-26.42050762991697" lon="114.29168093263351"><ele>59.5</ele><time>2026-04-15T09:05:33.001Z</time></trkpt><trkpt lat="-26.420528563471855" lon="114.29136395731402"><ele>59.0</ele><time>2026-04-15T09:05:34.001Z</time></trkpt><trkpt lat="-26.420548839486248" lon="114.29104669422043"><ele>59.0</ele><time>2026-04-15T09:05:35.001Z</time></trkpt><trkpt lat="-26.420568735641993" lon="114.29072946907229"><ele>59.0</ele><time>2026-04-15T09:05:36.001Z</time></trkpt><trkpt lat="-26.420588155214674" lon="114.2904116014348"><ele>59.0</ele><time>2026-04-15T09:05:37.001Z</time></trkpt><trkpt lat="-26.420608511813743" lon="114.29009579691984"><ele>59.0</ele><time>2026-04-15T09:05:38.001Z</time></trkpt><trkpt lat="-26.420627344176715" lon="114.28977640660453"><ele>58.5</ele><time>2026-04-15T09:05:39.001Z</time></trkpt><trkpt lat="-26.42064479552845" lon="114.28945153200557"><ele>58.0</ele><time>2026-04-15T09:05:40.001Z</time></trkpt><trkpt lat="-26.42066141235503" lon="114.28912940646207"><ele>57.5</ele><time>2026-04-15T09:05:41.001Z</time></trkpt><trkpt lat="-26.420679446756637" lon="114.28880752759947"><ele>57.0</ele><time>2026-04-15T09:05:42.001Z</time></trkpt><trkpt lat="-26.420719763627847" lon="114.28816322955447"><ele>57.5</ele><time>2026-04-15T09:05:44.001Z</time></trkpt><trkpt lat="-26.420741003591438" lon="114.28784424394475"><ele>58.0</ele><time>2026-04-15T09:05:45.001Z</time></trkpt><trkpt lat="-26.42076007066066" lon="114.28752438852266"><ele>57.5</ele><time>2026-04-15T09:05:46.001Z</time></trkpt><trkpt lat="-26.420779438984923" lon="114.28720817893583"><ele>57.0</ele><time>2026-04-15T09:05:47.001Z</time></trkpt><trkpt lat="-26.420801157730843" lon="114.286896670714"><ele>57.0</ele><time>2026-04-15T09:05:48.001Z</time></trkpt><trkpt lat="-26.420820126937926" lon="114.28658540338161"><ele>57.0</ele><time>2026-04-15T09:05:49.001Z</time></trkpt><trkpt lat="-26.420840264959043" lon="114.28627706325668"><ele>58.0</ele><time>2026-04-15T09:05:50.001Z</time></trkpt><trkpt lat="-26.420862282569026" lon="114.28597017709411"><ele>59.0</ele><time>2026-04-15T09:05:51.001Z</time></trkpt><trkpt lat="-26.42088475831377" lon="114.28566241158096"><ele>59.0</ele><time>2026-04-15T09:05:52.001Z</time></trkpt><trkpt lat="-26.420906551141044" lon="114.28535305955192"><ele>59.0</ele><time>2026-04-15T09:05:53.001Z</time></trkpt><trkpt lat="-26.420924661047355" lon="114.28504121020396"><ele>59.0</ele><time>2026-04-15T09:05:54.001Z</time></trkpt><trkpt lat="-26.420939866013512" lon="114.28472872194513"><ele>59.0</ele><time>2026-04-15T09:05:55.001Z</time></trkpt><trkpt lat="-26.420955891370507" lon="114.28441145899822"><ele>59.0</ele><time>2026-04-15T09:05:56.001Z</time></trkpt><trkpt lat="-26.420974849144162" lon="114.28409677200437"><ele>59.0</ele><time>2026-04-15T09:05:57.001Z</time></trkpt><trkpt lat="-26.4209940218372" lon="114.28378400653762"><ele>59.0</ele><time>2026-04-15T09:05:58.001Z</time></trkpt><trkpt lat="-26.421013847077745" lon="114.28347017646341"><ele>59.0</ele><time>2026-04-15T09:05:59.001Z</time></trkpt><trkpt lat="-26.42103355712867" lon="114.2831514785654"><ele>58.5</ele><time>2026-04-15T09:06:00.001Z</time></trkpt><trkpt lat="-26.421053994297548" lon="114.2828286802003"><ele>58.0</ele><time>2026-04-15T09:06:01.001Z</time></trkpt><trkpt lat="-26.421074621528845" lon="114.28250269252267"><ele>58.5</ele><time>2026-04-15T09:06:02.001Z</time></trkpt><trkpt lat="-26.421095443185546" lon="114.28217580335449"><ele>59.0</ele><time>2026-04-15T09:06:03.001Z</time></trkpt><trkpt lat="-26.421116254280694" lon="114.28184859178346"><ele>59.0</ele><time>2026-04-15T09:06:04.001Z</time></trkpt><trkpt lat="-26.421137472475426" lon="114.28152078515114"><ele>59.0</ele><time>2026-04-15T09:06:05.001Z</time></trkpt><trkpt lat="-26.421157687866007" lon="114.28119374085176"><ele>59.0</ele><time>2026-04-15T09:06:06.001Z</time></trkpt><trkpt lat="-26.42117930193312" lon="114.28087114290217"><ele>59.0</ele><time>2026-04-15T09:06:07.001Z</time></trkpt><trkpt lat="-26.421202389325504" lon="114.28054819979532"><ele>59.0</ele><time>2026-04-15T09:06:08.001Z</time></trkpt><trkpt lat="-26.421222396054034" lon="114.28022661921656"><ele>59.0</ele><time>2026-04-15T09:06:09.001Z</time></trkpt><trkpt lat="-26.42124167386244" lon="114.27990713262412"><ele>61.5</ele><time>2026-04-15T09:06:10.001Z</time></trkpt><trkpt lat="-26.421261548084225" lon="114.27958617857308"><ele>64.0</ele><time>2026-04-15T09:06:11.001Z</time></trkpt><trkpt lat="-26.421279432610575" lon="114.27926354042035"><ele>64.0</ele><time>2026-04-15T09:06:12.001Z</time></trkpt><trkpt lat="-26.421297797061005" lon="114.27893849571082"><ele>64.0</ele><time>2026-04-15T09:06:13.001Z</time></trkpt><trkpt lat="-26.421317019012093" lon="114.27861070501737"><ele>63.0</ele><time>2026-04-15T09:06:14.001Z</time></trkpt><trkpt lat="-26.421336266292116" lon="114.27828921173611"><ele>62.0</ele><time>2026-04-15T09:06:15.001Z</time></trkpt><trkpt lat="-26.42135497053518" lon="114.27796735859678"><ele>62.0</ele><time>2026-04-15T09:06:16.001Z</time></trkpt><trkpt lat="-26.421374165705398" lon="114.27764782754262"><ele>62.0</ele><time>2026-04-15T09:06:17.001Z</time></trkpt><trkpt lat="-26.421395068579738" lon="114.27732815376822"><ele>62.0</ele><time>2026-04-15T09:06:18.001Z</time></trkpt><trkpt lat="-26.421415304787676" lon="114.27700910504521"><ele>62.0</ele><time>2026-04-15T09:06:19.001Z</time></trkpt><trkpt lat="-26.42143530753814" lon="114.2766901266198"><ele>62.5</ele><time>2026-04-15T09:06:20.001Z</time></trkpt><trkpt lat="-26.421454737572226" lon="114.27637210266758"><ele>63.0</ele><time>2026-04-15T09:06:21.001Z</time></trkpt><trkpt lat="-26.421472243247678" lon="114.27605320682531"><ele>63.0</ele><time>2026-04-15T09:06:22.001Z</time></trkpt><trkpt lat="-26.421489520724418" lon="114.27573856687806"><ele>63.0</ele><time>2026-04-15T09:06:23.001Z</time></trkpt><trkpt lat="-26.421508516968686" lon="114.27542237718262"><ele>63.0</ele><time>2026-04-15T09:06:24.001Z</time></trkpt><trkpt lat="-26.421530480333526" lon="114.27510302297475"><ele>63.0</ele><time>2026-04-15T09:06:25.001Z</time></trkpt><trkpt lat="-26.421552193492683" lon="114.27478068629894"><ele>63.0</ele><time>2026-04-15T09:06:26.001Z</time></trkpt><trkpt lat="-26.421571161286607" lon="114.27445680419177"><ele>63.0</ele><time>2026-04-15T09:06:27.001Z</time></trkpt><trkpt lat="-26.42158946285092" lon="114.27413244863214"><ele>62.5</ele><time>2026-04-15T09:06:28.001Z</time></trkpt><trkpt lat="-26.421609629169904" lon="114.27381197081088"><ele>62.0</ele><time>2026-04-15T09:06:29.001Z</time></trkpt><trkpt lat="-26.42163263226107" lon="114.27348894752349"><ele>62.0</ele><time>2026-04-15T09:06:30.001Z</time></trkpt><trkpt lat="-26.421655078286534" lon="114.27316606581077"><ele>62.0</ele><time>2026-04-15T09:06:31.001Z</time></trkpt><trkpt lat="-26.421675426765134" lon="114.27284343624866"><ele>62.0</ele><time>2026-04-15T09:06:32.001Z</time></trkpt><trkpt lat="-26.42169475781328" lon="114.27252037342521"><ele>62.0</ele><time>2026-04-15T09:06:33.001Z</time></trkpt><trkpt lat="-26.42171368551141" lon="114.27219568327567"><ele>62.0</ele><time>2026-04-15T09:06:34.001Z</time></trkpt><trkpt lat="-26.421734648544813" lon="114.27187122918819"><ele>62.0</ele><time>2026-04-15T09:06:35.001Z</time></trkpt><trkpt lat="-26.421754186295683" lon="114.27154654008618"><ele>63.0</ele><time>2026-04-15T09:06:36.001Z</time></trkpt><trkpt lat="-26.42177205788339" lon="114.27122193156478"><ele>64.0</ele><time>2026-04-15T09:06:37.001Z</time></trkpt><trkpt lat="-26.421791880471023" lon="114.27089549416313"><ele>63.5</ele><time>2026-04-15T09:06:38.001Z</time></trkpt><trkpt lat="-26.421812119389315" lon="114.27057024876316"><ele>63.0</ele><time>2026-04-15T09:06:39.001Z</time></trkpt><trkpt lat="-26.421832111683884" lon="114.27024116092132"><ele>63.0</ele><time>2026-04-15T09:06:40.001Z</time></trkpt><trkpt lat="-26.421851127154966" lon="114.26991511544333"><ele>63.0</ele><time>2026-04-15T09:06:41.001Z</time></trkpt><trkpt lat="-26.42187025555772" lon="114.2695922550936"><ele>62.0</ele><time>2026-04-15T09:06:42.001Z</time></trkpt><trkpt lat="-26.421891773149955" lon="114.26927070488986"><ele>61.0</ele><time>2026-04-15T09:06:43.001Z</time></trkpt><trkpt lat="-26.42191424321815" lon="114.26895282284099"><ele>61.0</ele><time>2026-04-15T09:06:44.001Z</time></trkpt><trkpt lat="-26.421935342052414" lon="114.26863703914869"><ele>61.0</ele><time>2026-04-15T09:06:45.001Z</time></trkpt><trkpt lat="-26.42195263656992" lon="114.26832477167306"><ele>61.0</ele><time>2026-04-15T09:06:46.001Z</time></trkpt><trkpt lat="-26.421968197578177" lon="114.26800999777093"><ele>61.0</ele><time>2026-04-15T09:06:47.001Z</time></trkpt><trkpt lat="-26.42198617594896" lon="114.26769709304872"><ele>61.0</ele><time>2026-04-15T09:06:48.001Z</time></trkpt><trkpt lat="-26.42200545211697" lon="114.26738430094449"><ele>61.0</ele><time>2026-04-15T09:06:49.001Z</time></trkpt><trkpt lat="-26.42202509903626" lon="114.26706460714304"><ele>61.5</ele><time>2026-04-15T09:06:50.001Z</time></trkpt><trkpt lat="-26.422044980355995" lon="114.26674461782989"><ele>62.0</ele><time>2026-04-15T09:06:51.001Z</time></trkpt><trkpt lat="-26.4220672434322" lon="114.26642008670419"><ele>61.0</ele><time>2026-04-15T09:06:52.001Z</time></trkpt><trkpt lat="-26.422087194073978" lon="114.26609184424828"><ele>60.0</ele><time>2026-04-15T09:06:53.001Z</time></trkpt><trkpt lat="-26.422107105568273" lon="114.26576381589304"><ele>59.5</ele><time>2026-04-15T09:06:54.001Z</time></trkpt><trkpt lat="-26.422126633608627" lon="114.26543632415286"><ele>59.0</ele><time>2026-04-15T09:06:55.001Z</time></trkpt><trkpt lat="-26.42214611223824" lon="114.26510945205094"><ele>60.0</ele><time>2026-04-15T09:06:56.001Z</time></trkpt><trkpt lat="-26.42216542242128" lon="114.26477853182278"><ele>61.0</ele><time>2026-04-15T09:06:57.001Z</time></trkpt><trkpt lat="-26.42218465534468" lon="114.26445035003474"><ele>61.0</ele><time>2026-04-15T09:06:58.001Z</time></trkpt><trkpt lat="-26.422206625455317" lon="114.26411993812343"><ele>61.0</ele><time>2026-04-15T09:06:59.001Z</time></trkpt><trkpt lat="-26.422230390131965" lon="114.26378668689547"><ele>60.5</ele><time>2026-04-15T09:07:00.001Z</time></trkpt><trkpt lat="-26.42225095431865" lon="114.2634531722181"><ele>60.0</ele><time>2026-04-15T09:07:01.001Z</time></trkpt><trkpt lat="-26.422269297531308" lon="114.26311973318121"><ele>60.0</ele><time>2026-04-15T09:07:02.001Z</time></trkpt><trkpt lat="-26.422288489542026" lon="114.26278673331758"><ele>60.0</ele><time>2026-04-15T09:07:03.001Z</time></trkpt><trkpt lat="-26.42230800651284" lon="114.2624578102589"><ele>60.0</ele><time>2026-04-15T09:07:04.001Z</time></trkpt><trkpt lat="-26.422329222278265" lon="114.26212550138125"><ele>60.0</ele><time>2026-04-15T09:07:05.001Z</time></trkpt><trkpt lat="-26.422351345714734" lon="114.26179348240503"><ele>60.0</ele><time>2026-04-15T09:07:06.001Z</time></trkpt><trkpt lat="-26.42237331086793" lon="114.2614612103349"><ele>60.0</ele><time>2026-04-15T09:07:07.001Z</time></trkpt><trkpt lat="-26.42239606139123" lon="114.26112806287271"><ele>60.0</ele><time>2026-04-15T09:07:08.001Z</time></trkpt><trkpt lat="-26.422418150515938" lon="114.26079468050972"><ele>60.0</ele><time>2026-04-15T09:07:09.001Z</time></trkpt><trkpt lat="-26.422438333171257" lon="114.26046225128509"><ele>60.0</ele><time>2026-04-15T09:07:10.001Z</time></trkpt><trkpt lat="-26.42245803260935" lon="114.26013424647878"><ele>60.0</ele><time>2026-04-15T09:07:11.001Z</time></trkpt><trkpt lat="-26.422475088353426" lon="114.25980966188088"><ele>60.0</ele><time>2026-04-15T09:07:12.001Z</time></trkpt><trkpt lat="-26.422493740910735" lon="114.25948559613674"><ele>60.0</ele><time>2026-04-15T09:07:13.001Z</time></trkpt><trkpt lat="-26.422510796006616" lon="114.25916755465254"><ele>59.0</ele><time>2026-04-15T09:07:14.001Z</time></trkpt><trkpt lat="-26.422529823865577" lon="114.25885032254482"><ele>58.0</ele><time>2026-04-15T09:07:15.001Z</time></trkpt><trkpt lat="-26.422550173418205" lon="114.25853349199107"><ele>58.0</ele><time>2026-04-15T09:07:16.001Z</time></trkpt><trkpt lat="-26.422572089324184" lon="114.25821812629552"><ele>58.0</ele><time>2026-04-15T09:07:17.001Z</time></trkpt><trkpt lat="-26.42259149352281" lon="114.25790319799654"><ele>58.0</ele><time>2026-04-15T09:07:18.001Z</time></trkpt><trkpt lat="-26.42261096084528" lon="114.25759295402302"><ele>58.0</ele><time>2026-04-15T09:07:19.001Z</time></trkpt><trkpt lat="-26.422629646520367" lon="114.25728274763009"><ele>57.0</ele><time>2026-04-15T09:07:20.001Z</time></trkpt><trkpt lat="-26.422647977477684" lon="114.256979959795"><ele>56.0</ele><time>2026-04-15T09:07:21.001Z</time></trkpt><trkpt lat="-26.42266567146913" lon="114.25667716096855"><ele>55.5</ele><time>2026-04-15T09:07:22.001Z</time></trkpt><trkpt lat="-26.422683502105425" lon="114.25637254354888"><ele>55.0</ele><time>2026-04-15T09:07:23.001Z</time></trkpt><trkpt lat="-26.422700511044823" lon="114.25607239990838"><ele>55.0</ele><time>2026-04-15T09:07:24.001Z</time></trkpt><trkpt lat="-26.422716599923298" lon="114.25576852360481"><ele>55.0</ele><time>2026-04-15T09:07:25.001Z</time></trkpt><trkpt lat="-26.42273464662377" lon="114.25546866584224"><ele>55.5</ele><time>2026-04-15T09:07:26.001Z</time></trkpt><trkpt lat="-26.42275268156942" lon="114.25516837195221"><ele>56.0</ele><time>2026-04-15T09:07:27.001Z</time></trkpt><trkpt lat="-26.42277205828354" lon="114.25487121227465"><ele>55.0</ele><time>2026-04-15T09:07:28.001Z</time></trkpt><trkpt lat="-26.42279157904352" lon="114.25457181049171"><ele>54.0</ele><time>2026-04-15T09:07:29.001Z</time></trkpt><trkpt lat="-26.422809809540965" lon="114.25426787194337"><ele>54.0</ele><time>2026-04-15T09:07:30.001Z</time></trkpt><trkpt lat="-26.422827516645366" lon="114.25396100770128"><ele>54.0</ele><time>2026-04-15T09:07:31.001Z</time></trkpt><trkpt lat="-26.422845516483065" lon="114.25365645533005"><ele>53.5</ele><time>2026-04-15T09:07:32.001Z</time></trkpt><trkpt lat="-26.422864679188628" lon="114.25335538541073"><ele>53.0</ele><time>2026-04-15T09:07:33.001Z</time></trkpt><trkpt lat="-26.422882155435488" lon="114.25305632908997"><ele>53.0</ele><time>2026-04-15T09:07:34.001Z</time></trkpt><trkpt lat="-26.4229004444424" lon="114.25276233333254"><ele>53.0</ele><time>2026-04-15T09:07:35.001Z</time></trkpt><trkpt lat="-26.422918255045317" lon="114.25246444575745"><ele>53.5</ele><time>2026-04-15T09:07:36.001Z</time></trkpt><trkpt lat="-26.4229368374685" lon="114.25216691437801"><ele>54.0</ele><time>2026-04-15T09:07:37.001Z</time></trkpt><trkpt lat="-26.422956780295458" lon="114.25186255338103"><ele>54.0</ele><time>2026-04-15T09:07:38.001Z</time></trkpt><trkpt lat="-26.42297926109717" lon="114.25155412190739"><ele>54.0</ele><time>2026-04-15T09:07:39.001Z</time></trkpt><trkpt lat="-26.42299993887477" lon="114.25124234432592"><ele>54.0</ele><time>2026-04-15T09:07:40.001Z</time></trkpt><trkpt lat="-26.42301799043651" lon="114.25092820525506"><ele>54.0</ele><time>2026-04-15T09:07:41.001Z</time></trkpt><trkpt lat="-26.423035130183287" lon="114.25061739779157"><ele>54.0</ele><time>2026-04-15T09:07:42.001Z</time></trkpt><trkpt lat="-26.423054531333683" lon="114.25030806347594"><ele>54.0</ele><time>2026-04-15T09:07:43.001Z</time></trkpt><trkpt lat="-26.42307633512959" lon="114.25000079392566"><ele>54.0</ele><time>2026-04-15T09:07:44.001Z</time></trkpt><trkpt lat="-26.423096205671524" lon="114.24969265840892"><ele>54.0</ele><time>2026-04-15T09:07:45.001Z</time></trkpt><trkpt lat="-26.42311707528843" lon="114.24938516818668"><ele>54.0</ele><time>2026-04-15T09:07:46.001Z</time></trkpt><trkpt lat="-26.423135640104242" lon="114.24907817589711"><ele>54.0</ele><time>2026-04-15T09:07:47.001Z</time></trkpt><trkpt lat="-26.42315354343776" lon="114.24877315928732"><ele>54.5</ele><time>2026-04-15T09:07:48.001Z</time></trkpt><trkpt lat="-26.423171201426886" lon="114.24847255368103"><ele>55.0</ele><time>2026-04-15T09:07:49.001Z</time></trkpt><trkpt lat="-26.423190170307787" lon="114.24816994551178"><ele>54.5</ele><time>2026-04-15T09:07:50.001Z</time></trkpt><trkpt lat="-26.423207631589584" lon="114.24786980268506"><ele>54.0</ele><time>2026-04-15T09:07:51.001Z</time></trkpt><trkpt lat="-26.423222477614193" lon="114.24756602559327"><ele>52.5</ele><time>2026-04-15T09:07:52.001Z</time></trkpt><trkpt lat="-26.423236333453733" lon="114.24726707587"><ele>51.0</ele><time>2026-04-15T09:07:53.001Z</time></trkpt><trkpt lat="-26.423254317112647" lon="114.24696684053121"><ele>51.0</ele><time>2026-04-15T09:07:54.001Z</time></trkpt><trkpt lat="-26.423274794476487" lon="114.2466679554855"><ele>51.0</ele><time>2026-04-15T09:07:55.001Z</time></trkpt><trkpt lat="-26.42329536330939" lon="114.24636901664043"><ele>51.0</ele><time>2026-04-15T09:07:56.001Z</time></trkpt><trkpt lat="-26.423313689942162" lon="114.24607290259124"><ele>51.0</ele><time>2026-04-15T09:07:57.001Z</time></trkpt><trkpt lat="-26.423331681823466" lon="114.24577139470173"><ele>51.5</ele><time>2026-04-15T09:07:58.001Z</time></trkpt><trkpt lat="-26.42335058708414" lon="114.2454608825122"><ele>52.0</ele><time>2026-04-15T09:07:59.001Z</time></trkpt><trkpt lat="-26.423371472262822" lon="114.24514377269107"><ele>52.0</ele><time>2026-04-15T09:08:00.001Z</time></trkpt><trkpt lat="-26.423392016947272" lon="114.24482536645083"><ele>52.0</ele><time>2026-04-15T09:08:01.001Z</time></trkpt><trkpt lat="-26.42341295321093" lon="114.24450577646554"><ele>51.0</ele><time>2026-04-15T09:08:02.001Z</time></trkpt><trkpt lat="-26.423434303823534" lon="114.24419241450842"><ele>50.0</ele><time>2026-04-15T09:08:03.001Z</time></trkpt><trkpt lat="-26.42345449856305" lon="114.24387717108685"><ele>49.0</ele><time>2026-04-15T09:08:04.001Z</time></trkpt><trkpt lat="-26.42347381318523" lon="114.24356408468776"><ele>48.0</ele><time>2026-04-15T09:08:05.001Z</time></trkpt><trkpt lat="-26.423491693931684" lon="114.24325855970731"><ele>48.0</ele><time>2026-04-15T09:08:06.001Z</time></trkpt><trkpt lat="-26.423510762020587" lon="114.24295152831482"><ele>48.0</ele><time>2026-04-15T09:08:07.001Z</time></trkpt><trkpt lat="-26.42352932712134" lon="114.24265239248841"><ele>48.0</ele><time>2026-04-15T09:08:08.001Z</time></trkpt><trkpt lat="-26.423545678798902" lon="114.24234486688363"><ele>48.0</ele><time>2026-04-15T09:08:09.001Z</time></trkpt><trkpt lat="-26.423561561193377" lon="114.24203954635558"><ele>47.5</ele><time>2026-04-15T09:08:10.001Z</time></trkpt><trkpt lat="-26.42357980502716" lon="114.2417398185187"><ele>47.0</ele><time>2026-04-15T09:08:11Z</time></trkpt><trkpt lat="-26.423597050209665" lon="114.24145554085925"><ele>46.0</ele><time>2026-04-15T09:08:12Z</time></trkpt><trkpt lat="-26.42361210944431" lon="114.24118995522072"><ele>45.0</ele><time>2026-04-15T09:08:13Z</time></trkpt><trkpt lat="-26.423628096222554" lon="114.24092059829269"><ele>45.0</ele><time>2026-04-15T09:08:14Z</time></trkpt><trkpt lat="-26.4236451998764" lon="114.24063916053244"><ele>45.0</ele><time>2026-04-15T09:08:15Z</time></trkpt><trkpt lat="-26.42366344128176" lon="114.24034782479269"><ele>45.5</ele><time>2026-04-15T09:08:16Z</time></trkpt><trkpt lat="-26.423683674859785" lon="114.2400465113832"><ele>46.0</ele><time>2026-04-15T09:08:17Z</time></trkpt><trkpt lat="-26.423702246239543" lon="114.23973705909"><ele>46.0</ele><time>2026-04-15T09:08:18Z</time></trkpt><trkpt lat="-26.423721979132043" lon="114.23942642023161"><ele>46.0</ele><time>2026-04-15T09:08:19Z</time></trkpt><trkpt lat="-26.42374304316145" lon="114.23911409980896"><ele>47.0</ele><time>2026-04-15T09:08:20Z</time></trkpt><trkpt lat="-26.423767997092373" lon="114.23880382467543"><ele>48.0</ele><time>2026-04-15T09:08:21Z</time></trkpt><trkpt lat="-26.42379850483266" lon="114.23849233277325"><ele>48.0</ele><time>2026-04-15T09:08:22Z</time></trkpt><trkpt lat="-26.423836515805757" lon="114.2381861045734"><ele>48.0</ele><time>2026-04-15T09:08:23Z</time></trkpt><trkpt lat="-26.4238804264789" lon="114.2378786152257"><ele>47.5</ele><time>2026-04-15T09:08:24Z</time></trkpt><trkpt lat="-26.423928859434394" lon="114.23757329279307"><ele>47.0</ele><time>2026-04-15T09:08:25Z</time></trkpt><trkpt lat="-26.423980425961066" lon="114.23726508953747"><ele>47.0</ele><time>2026-04-15T09:08:26Z</time></trkpt><trkpt lat="-26.424035214701096" lon="114.23696764567816"><ele>47.0</ele><time>2026-04-15T09:08:27Z</time></trkpt><trkpt lat="-26.424097989135667" lon="114.23666948940682"><ele>46.5</ele><time>2026-04-15T09:08:28Z</time></trkpt><trkpt lat="-26.4241650726519" lon="114.23637462543167"><ele>46.0</ele><time>2026-04-15T09:08:29Z</time></trkpt><trkpt lat="-26.42423630212716" lon="114.23607642195078"><ele>46.0</ele><time>2026-04-15T09:08:30Z</time></trkpt><trkpt lat="-26.42431216453144" lon="114.23578030284423"><ele>46.0</ele><time>2026-04-15T09:08:31Z</time></trkpt><trkpt lat="-26.424392374884853" lon="114.2354901939285"><ele>45.5</ele><time>2026-04-15T09:08:32Z</time></trkpt><trkpt lat="-26.424477630364656" lon="114.23520142374953"><ele>45.0</ele><time>2026-04-15T09:08:33Z</time></trkpt><trkpt lat="-26.424565012695705" lon="114.23491658897983"><ele>44.5</ele><time>2026-04-15T09:08:34Z</time></trkpt><trkpt lat="-26.424653757422156" lon="114.23462955731289"><ele>44.0</ele><time>2026-04-15T09:08:35Z</time></trkpt><trkpt lat="-26.42474056088709" lon="114.23434603027015"><ele>44.0</ele><time>2026-04-15T09:08:36Z</time></trkpt><trkpt lat="-26.424826955770808" lon="114.23406066710407"><ele>44.0</ele><time>2026-04-15T09:08:37Z</time></trkpt><trkpt lat="-26.424912512677256" lon="114.2337709006509"><ele>43.5</ele><time>2026-04-15T09:08:38Z</time></trkpt><trkpt lat="-26.42500067832469" lon="114.23347326039583"><ele>43.0</ele><time>2026-04-15T09:08:39Z</time></trkpt><trkpt lat="-26.42508909168409" lon="114.23317563235001"><ele>43.5</ele><time>2026-04-15T09:08:40Z</time></trkpt><trkpt lat="-26.42517960678557" lon="114.2328761669226"><ele>44.0</ele><time>2026-04-15T09:08:41Z</time></trkpt><trkpt lat="-26.425269141696997" lon="114.23257965678485"><ele>44.0</ele><time>2026-04-15T09:08:42Z</time></trkpt><trkpt lat="-26.42535750613599" lon="114.2322842719792"><ele>44.0</ele><time>2026-04-15T09:08:43Z</time></trkpt><trkpt lat="-26.425445568492414" lon="114.23198858602468"><ele>43.5</ele><time>2026-04-15T09:08:44Z</time></trkpt><trkpt lat="-26.425533998259944" lon="114.23169538922666"><ele>43.0</ele><time>2026-04-15T09:08:45Z</time></trkpt><trkpt lat="-26.425622827709013" lon="114.23140051976381"><ele>43.0</ele><time>2026-04-15T09:08:46Z</time></trkpt><trkpt lat="-26.425712640904905" lon="114.23110659560585"><ele>43.0</ele><time>2026-04-15T09:08:47Z</time></trkpt><trkpt lat="-26.4258020394704" lon="114.23081245217143"><ele>42.5</ele><time>2026-04-15T09:08:48Z</time></trkpt><trkpt lat="-26.425889762823346" lon="114.23052018531197"><ele>42.0</ele><time>2026-04-15T09:08:49Z</time></trkpt><trkpt lat="-26.42597805858304" lon="114.23022517428173"><ele>42.0</ele><time>2026-04-15T09:08:50Z</time></trkpt><trkpt lat="-26.426065841003926" lon="114.2299277198733"><ele>42.0</ele><time>2026-04-15T09:08:51Z</time></trkpt><trkpt lat="-26.426154196535265" lon="114.2296323348247"><ele>42.0</ele><time>2026-04-15T09:08:52Z</time></trkpt><trkpt lat="-26.426244525886556" lon="114.22933813007397"><ele>42.0</ele><time>2026-04-15T09:08:53Z</time></trkpt><trkpt lat="-26.42633431264393" lon="114.22904578693861"><ele>42.5</ele><time>2026-04-15T09:08:54Z</time></trkpt><trkpt lat="-26.42642126618605" lon="114.22875001074293"><ele>43.0</ele><time>2026-04-15T09:08:55Z</time></trkpt><trkpt lat="-26.426508748077026" lon="114.22845338958419"><ele>43.0</ele><time>2026-04-15T09:08:56Z</time></trkpt><trkpt lat="-26.426598052454118" lon="114.22815162646165"><ele>43.0</ele><time>2026-04-15T09:08:57Z</time></trkpt><trkpt lat="-26.426688286617967" lon="114.22785146731624"><ele>42.5</ele><time>2026-04-15T09:08:58Z</time></trkpt><trkpt lat="-26.426777166363962" lon="114.22755367393715"><ele>42.0</ele><time>2026-04-15T09:08:59Z</time></trkpt><trkpt lat="-26.426865375158435" lon="114.22725511387725"><ele>42.0</ele><time>2026-04-15T09:09:00Z</time></trkpt><trkpt lat="-26.426953334077478" lon="114.22695914877087"><ele>42.0</ele><time>2026-04-15T09:09:01Z</time></trkpt><trkpt lat="-26.42704306086674" lon="114.22666209129699"><ele>41.5</ele><time>2026-04-15T09:09:02Z</time></trkpt><trkpt lat="-26.42713389437588" lon="114.22636440950178"><ele>41.0</ele><time>2026-04-15T09:09:03Z</time></trkpt><trkpt lat="-26.42722336385762" lon="114.22606326884747"><ele>41.0</ele><time>2026-04-15T09:09:04Z</time></trkpt><trkpt lat="-26.42731357597697" lon="114.22576036992362"><ele>41.0</ele><time>2026-04-15T09:09:05Z</time></trkpt><trkpt lat="-26.42740451478726" lon="114.22545890440537"><ele>41.0</ele><time>2026-04-15T09:09:06Z</time></trkpt><trkpt lat="-26.427495264558242" lon="114.22516021732247"><ele>41.0</ele><time>2026-04-15T09:09:07Z</time></trkpt><trkpt lat="-26.427586136746154" lon="114.22486471007886"><ele>41.0</ele><time>2026-04-15T09:09:08Z</time></trkpt><trkpt lat="-26.427674715023834" lon="114.22456922979003"><ele>41.0</ele><time>2026-04-15T09:09:09Z</time></trkpt><trkpt lat="-26.427760041727325" lon="114.22427285060432"><ele>40.0</ele><time>2026-04-15T09:09:10Z</time></trkpt><trkpt lat="-26.427848778548963" lon="114.22397447929274"><ele>39.0</ele><time>2026-04-15T09:09:11Z</time></trkpt><trkpt lat="-26.427939262397267" lon="114.22366656682445"><ele>39.0</ele><time>2026-04-15T09:09:12Z</time></trkpt><trkpt lat="-26.428030311981434" lon="114.22335715314001"><ele>39.0</ele><time>2026-04-15T09:09:13Z</time></trkpt><trkpt lat="-26.428121319575478" lon="114.22305309543216"><ele>39.0</ele><time>2026-04-15T09:09:14Z</time></trkpt><trkpt lat="-26.428214749720862" lon="114.22275097364438"><ele>39.0</ele><time>2026-04-15T09:09:15Z</time></trkpt><trkpt lat="-26.42830879574949" lon="114.22244877593101"><ele>40.0</ele><time>2026-04-15T09:09:16Z</time></trkpt><trkpt lat="-26.42840097872047" lon="114.22214575491552"><ele>41.0</ele><time>2026-04-15T09:09:17Z</time></trkpt><trkpt lat="-26.428491995631276" lon="114.22184487202031"><ele>41.0</ele><time>2026-04-15T09:09:18Z</time></trkpt><trkpt lat="-26.428583422677335" lon="114.22154511548538"><ele>41.0</ele><time>2026-04-15T09:09:19Z</time></trkpt><trkpt lat="-26.42867297484988" lon="114.22124921093672"><ele>41.0</ele><time>2026-04-15T09:09:20Z</time></trkpt><trkpt lat="-26.428761087810145" lon="114.2209526804279"><ele>41.0</ele><time>2026-04-15T09:09:21Z</time></trkpt><trkpt lat="-26.42884804055339" lon="114.22065540060977"><ele>40.5</ele><time>2026-04-15T09:09:22Z</time></trkpt><trkpt lat="-26.428936931831586" lon="114.22035954252718"><ele>40.0</ele><time>2026-04-15T09:09:23Z</time></trkpt><trkpt lat="-26.429024939122968" lon="114.22006461582251"><ele>39.0</ele><time>2026-04-15T09:09:24Z</time></trkpt><trkpt lat="-26.429112515840927" lon="114.21976837009942"><ele>38.0</ele><time>2026-04-15T09:09:25Z</time></trkpt><trkpt lat="-26.42919946614629" lon="114.21947375712662"><ele>38.0</ele><time>2026-04-15T09:09:26Z</time></trkpt><trkpt lat="-26.429288885273166" lon="114.21917693240185"><ele>38.0</ele><time>2026-04-15T09:09:27Z</time></trkpt><trkpt lat="-26.42937706152845" lon="114.21888335371783"><ele>38.0</ele><time>2026-04-15T09:09:28Z</time></trkpt><trkpt lat="-26.429466859380884" lon="114.21858996964633"><ele>38.0</ele><time>2026-04-15T09:09:29Z</time></trkpt><trkpt lat="-26.429553796368392" lon="114.2182982227454"><ele>39.0</ele><time>2026-04-15T09:09:30Z</time></trkpt><trkpt lat="-26.42963926520519" lon="114.21800724109478"><ele>40.0</ele><time>2026-04-15T09:09:31Z</time></trkpt><trkpt lat="-26.42972625381133" lon="114.21771668977097"><ele>40.0</ele><time>2026-04-15T09:09:32Z</time></trkpt><trkpt lat="-26.42981150266878" lon="114.21742459206013"><ele>40.0</ele><time>2026-04-15T09:09:33Z</time></trkpt><trkpt lat="-26.429896397620013" lon="114.21712931890346"><ele>40.0</ele><time>2026-04-15T09:09:34Z</time></trkpt><trkpt lat="-26.429985026294283" lon="114.21683298808453"><ele>40.0</ele><time>2026-04-15T09:09:35Z</time></trkpt><trkpt lat="-26.430076180280924" lon="114.2165349708643"><ele>38.5</ele><time>2026-04-15T09:09:36Z</time></trkpt><trkpt lat="-26.430165609567972" lon="114.21623490732465"><ele>37.0</ele><time>2026-04-15T09:09:37Z</time></trkpt><trkpt lat="-26.430254196437527" lon="114.21593423662593"><ele>37.0</ele><time>2026-04-15T09:09:38Z</time></trkpt><trkpt lat="-26.430344199638842" lon="114.21563453642604"><ele>37.0</ele><time>2026-04-15T09:09:39Z</time></trkpt><trkpt lat="-26.43043429363077" lon="114.21533719479667"><ele>37.5</ele><time>2026-04-15T09:09:40Z</time></trkpt><trkpt lat="-26.430523494219983" lon="114.21503985764326"><ele>38.0</ele><time>2026-04-15T09:09:41Z</time></trkpt><trkpt lat="-26.430612540466697" lon="114.21474198299161"><ele>38.5</ele><time>2026-04-15T09:09:42Z</time></trkpt><trkpt lat="-26.430700968698357" lon="114.21444851485916"><ele>39.0</ele><time>2026-04-15T09:09:43Z</time></trkpt><trkpt lat="-26.43078484380291" lon="114.21415647688337"><ele>37.5</ele><time>2026-04-15T09:09:44Z</time></trkpt><trkpt lat="-26.430868228158715" lon="114.21387020638353"><ele>36.0</ele><time>2026-04-15T09:09:45Z</time></trkpt><trkpt lat="-26.430951853512116" lon="114.213588130729"><ele>36.0</ele><time>2026-04-15T09:09:46Z</time></trkpt><trkpt lat="-26.431035708343448" lon="114.21330432872128"><ele>36.0</ele><time>2026-04-15T09:09:47Z</time></trkpt><trkpt lat="-26.431134807918223" lon="114.21302277438797"><ele>36.5</ele><time>2026-04-15T09:09:48Z</time></trkpt><trkpt lat="-26.431205412454077" lon="114.21273274475179"><ele>37.0</ele><time>2026-04-15T09:09:49Z</time></trkpt><trkpt lat="-26.431291023292932" lon="114.21245106098951"><ele>37.0</ele><time>2026-04-15T09:09:50Z</time></trkpt><trkpt lat="-26.431377746343387" lon="114.2121743466319"><ele>37.0</ele><time>2026-04-15T09:09:51Z</time></trkpt><trkpt lat="-26.431463404593483" lon="114.21189817138038"><ele>37.0</ele><time>2026-04-15T09:09:52Z</time></trkpt><trkpt lat="-26.431548106626547" lon="114.21162099157351"><ele>37.0</ele><time>2026-04-15T09:09:53Z</time></trkpt><trkpt lat="-26.431632975917235" lon="114.21134505544647"><ele>36.0</ele><time>2026-04-15T09:09:54Z</time></trkpt><trkpt lat="-26.43171753065406" lon="114.211067850854"><ele>35.0</ele><time>2026-04-15T09:09:55Z</time></trkpt><trkpt lat="-26.431802685031034" lon="114.21078646729181"><ele>34.5</ele><time>2026-04-15T09:09:56Z</time></trkpt><trkpt lat="-26.43188620367505" lon="114.21050323396723"><ele>34.0</ele><time>2026-04-15T09:09:57Z</time></trkpt><trkpt lat="-26.43196891903132" lon="114.2102184480099"><ele>34.0</ele><time>2026-04-15T09:09:58Z</time></trkpt><trkpt lat="-26.432055334283977" lon="114.20992658596415"><ele>34.0</ele><time>2026-04-15T09:09:59Z</time></trkpt><trkpt lat="-26.432142465456202" lon="114.20963426408537"><ele>33.5</ele><time>2026-04-15T09:10:00Z</time></trkpt><trkpt lat="-26.432227863400893" lon="114.20934480517826"><ele>33.0</ele><time>2026-04-15T09:10:01Z</time></trkpt><trkpt lat="-26.432314401580346" lon="114.20905823706384"><ele>33.0</ele><time>2026-04-15T09:10:02Z</time></trkpt><trkpt lat="-26.432399882688937" lon="114.20877543577542"><ele>33.0</ele><time>2026-04-15T09:10:03Z</time></trkpt><trkpt lat="-26.432484924591424" lon="114.20849457647722"><ele>33.0</ele><time>2026-04-15T09:10:04Z</time></trkpt><trkpt lat="-26.432570730982686" lon="114.20821629653759"><ele>33.0</ele><time>2026-04-15T09:10:05Z</time></trkpt><trkpt lat="-26.43265253708004" lon="114.20794239754271"><ele>34.0</ele><time>2026-04-15T09:10:06Z</time></trkpt><trkpt lat="-26.432735058734625" lon="114.20766797993006"><ele>35.0</ele><time>2026-04-15T09:10:07Z</time></trkpt><trkpt lat="-26.43281968530032" lon="114.20738538242465"><ele>34.5</ele><time>2026-04-15T09:10:08Z</time></trkpt><trkpt lat="-26.4329065052176" lon="114.20709073440275"><ele>34.0</ele><time>2026-04-15T09:10:09Z</time></trkpt><trkpt lat="-26.432995554531658" lon="114.20679195795287"><ele>34.0</ele><time>2026-04-15T09:10:10Z</time></trkpt><trkpt lat="-26.43308422889483" lon="114.20649242514013"><ele>34.0</ele><time>2026-04-15T09:10:11Z</time></trkpt><trkpt lat="-26.433171142731567" lon="114.20619642762105"><ele>34.0</ele><time>2026-04-15T09:10:12Z</time></trkpt><trkpt lat="-26.433257741656952" lon="114.20590810274416"><ele>34.0</ele><time>2026-04-15T09:10:13Z</time></trkpt><trkpt lat="-26.433344750586254" lon="114.20562348101923"><ele>33.5</ele><time>2026-04-15T09:10:14Z</time></trkpt><trkpt lat="-26.433431964808292" lon="114.20533755166271"><ele>33.0</ele><time>2026-04-15T09:10:15Z</time></trkpt><trkpt lat="-26.43351867775331" lon="114.20504740332585"><ele>33.5</ele><time>2026-04-15T09:10:16Z</time></trkpt><trkpt lat="-26.433604985661237" lon="114.20475523273986"><ele>34.0</ele><time>2026-04-15T09:10:17Z</time></trkpt><trkpt lat="-26.433690995303785" lon="114.20446446412342"><ele>34.0</ele><time>2026-04-15T09:10:18Z</time></trkpt><trkpt lat="-26.433777984892185" lon="114.20417528680711"><ele>34.0</ele><time>2026-04-15T09:10:19Z</time></trkpt><trkpt lat="-26.433863664582386" lon="114.20389071328479"><ele>33.0</ele><time>2026-04-15T09:10:20Z</time></trkpt><trkpt lat="-26.433945846307882" lon="114.20361993778909"><ele>32.0</ele><time>2026-04-15T09:10:21Z</time></trkpt><trkpt lat="-26.43402536767265" lon="114.2033603752764"><ele>32.5</ele><time>2026-04-15T09:10:22Z</time></trkpt><trkpt lat="-26.434103901841276" lon="114.2031070309153"><ele>33.0</ele><time>2026-04-15T09:10:23Z</time></trkpt><trkpt lat="-26.434178566529248" lon="114.20285888011207"><ele>33.0</ele><time>2026-04-15T09:10:24Z</time></trkpt><trkpt lat="-26.434250373262586" lon="114.20261086678855"><ele>33.0</ele><time>2026-04-15T09:10:25Z</time></trkpt><trkpt lat="-26.434318226692657" lon="114.20237832171843"><ele>33.333333333333336</ele><time>2026-04-15T09:10:26Z</time></trkpt><trkpt lat="-26.434381617665437" lon="114.20216145071713"><ele>33.66666666666667</ele><time>2026-04-15T09:10:27Z</time></trkpt><trkpt lat="-26.43443731348408" lon="114.20195697630804"><ele>34.0</ele><time>2026-04-15T09:10:28Z</time></trkpt><trkpt lat="-26.434487826781528" lon="114.20176273832017"><ele>34.0</ele><time>2026-04-15T09:10:29Z</time></trkpt><trkpt lat="-26.43453150477447" lon="114.20158011858597"><ele>34.0</ele><time>2026-04-15T09:10:30Z</time></trkpt><trkpt lat="-26.43456916590066" lon="114.20142054597817"><ele>34.0</ele><time>2026-04-15T09:10:31Z</time></trkpt><trkpt lat="-26.434602279127606" lon="114.20127880161597"><ele>34.0</ele><time>2026-04-15T09:10:32Z</time></trkpt><trkpt lat="-26.434631865292843" lon="114.20115310078538"><ele>33.16666666666667</ele><time>2026-04-15T09:10:33Z</time></trkpt><trkpt lat="-26.43465597486585" lon="114.20104897877907"><ele>32.333333333333336</ele><time>2026-04-15T09:10:34Z</time></trkpt><trkpt lat="-26.434677022740193" lon="114.20094781372643"><ele>31.5</ele><time>2026-04-15T09:10:35Z</time></trkpt><trkpt lat="-26.43469536823278" lon="114.20085313911353"><ele>30.666666666666664</ele><time>2026-04-15T09:10:36Z</time></trkpt><trkpt lat="-26.434698039508834" lon="114.2007772829474"><ele>29.833333333333332</ele><time>2026-04-15T09:10:37Z</time></trkpt><trkpt lat="-26.43467536611969" lon="114.2006767959014"><ele>29.0</ele><time>2026-04-15T09:10:39Z</time></trkpt><trkpt lat="-26.43463323434259" lon="114.2005891839497"><ele>29.0</ele><time>2026-04-15T09:11:04Z</time></trkpt><trkpt lat="-26.43459338398974" lon="114.20053028583284"><ele>29.0</ele><time>2026-04-15T09:11:05Z</time></trkpt><trkpt lat="-26.43456164426542" lon="114.20046082598145"><ele>29.0</ele><time>2026-04-15T09:11:06Z</time></trkpt><trkpt lat="-26.4344801293585" lon="114.20040539983914"><ele>29.0</ele><time>2026-04-15T09:11:09Z</time></trkpt><trkpt lat="-26.434572407184966" lon="114.200468027865"><ele>29.0</ele><time>2026-04-15T09:11:15Z</time></trkpt><trkpt lat="-26.434666888073465" lon="114.20053185867953"><ele>29.0</ele><time>2026-04-15T09:11:17Z</time></trkpt><trkpt lat="-26.43475883583986" lon="114.20054083897747"><ele>29.0</ele><time>2026-04-15T09:11:19Z</time></trkpt><trkpt lat="-26.434869055253145" lon="114.20050182854767"><ele>29.0</ele><time>2026-04-15T09:11:21Z</time></trkpt><trkpt lat="-26.434915168132015" lon="114.20043836459573"><ele>29.0</ele><time>2026-04-15T09:11:22Z</time></trkpt><trkpt lat="-26.434941014465807" lon="114.200347148491"><ele>29.0</ele><time>2026-04-15T09:11:23Z</time></trkpt><trkpt lat="-26.434964515802392" lon="114.2002302556994"><ele>29.0</ele><time>2026-04-15T09:11:24Z</time></trkpt><trkpt lat="-26.434992248791964" lon="114.20010678859724"><ele>29.0</ele><time>2026-04-15T09:11:25Z</time></trkpt><trkpt lat="-26.435029902114525" lon="114.19997646468659"><ele>29.0</ele><time>2026-04-15T09:11:26Z</time></trkpt><trkpt lat="-26.43507210739604" lon="114.19983665255496"><ele>29.0</ele><time>2026-04-15T09:11:27Z</time></trkpt><trkpt lat="-26.435121580799528" lon="114.19968278865782"><ele>29.0</ele><time>2026-04-15T09:11:28Z</time></trkpt><trkpt lat="-26.43517985961542" lon="114.19949386885393"><ele>29.0</ele><time>2026-04-15T09:11:29Z</time></trkpt><trkpt lat="-26.435242137506602" lon="114.19930262916438"><ele>29.0</ele><time>2026-04-15T09:11:30Z</time></trkpt><trkpt lat="-26.435310403669785" lon="114.19908444736994"><ele>28.5</ele><time>2026-04-15T09:11:31Z</time></trkpt><trkpt lat="-26.435382314312662" lon="114.19884698669297"><ele>28.0</ele><time>2026-04-15T09:11:32Z</time></trkpt><trkpt lat="-26.435462281963066" lon="114.19859785283698"><ele>28.5</ele><time>2026-04-15T09:11:33Z</time></trkpt><trkpt lat="-26.43555468904885" lon="114.19834418614167"><ele>29.0</ele><time>2026-04-15T09:11:34Z</time></trkpt><trkpt lat="-26.435668575980433" lon="114.19807524758657"><ele>29.0</ele><time>2026-04-15T09:11:35Z</time></trkpt><trkpt lat="-26.43578144631215" lon="114.19782074845001"><ele>29.0</ele><time>2026-04-15T09:11:36Z</time></trkpt><trkpt lat="-26.43590728696638" lon="114.1975595480167"><ele>28.5</ele><time>2026-04-15T09:11:37Z</time></trkpt><trkpt lat="-26.43604112613697" lon="114.1972968260176"><ele>28.0</ele><time>2026-04-15T09:11:38Z</time></trkpt><trkpt lat="-26.436172442682057" lon="114.19704898704812"><ele>28.5</ele><time>2026-04-15T09:11:39Z</time></trkpt><trkpt lat="-26.436309809415945" lon="114.19681070024588"><ele>29.0</ele><time>2026-04-15T09:11:40Z</time></trkpt><trkpt lat="-26.436457340734915" lon="114.1965737625591"><ele>29.0</ele><time>2026-04-15T09:11:41Z</time></trkpt><trkpt lat="-26.43661310407039" lon="114.19633850891574"><ele>29.0</ele><time>2026-04-15T09:11:42Z</time></trkpt><trkpt lat="-26.43677380108448" lon="114.1961077491602"><ele>29.0</ele><time>2026-04-15T09:11:43Z</time></trkpt><trkpt lat="-26.436939993573677" lon="114.19588114427027"><ele>29.0</ele><time>2026-04-15T09:11:44Z</time></trkpt><trkpt lat="-26.437110986089202" lon="114.19565779787706"><ele>29.0</ele><time>2026-04-15T09:11:45Z</time></trkpt><trkpt lat="-26.43728318161452" lon="114.19543538175472"><ele>29.0</ele><time>2026-04-15T09:11:46Z</time></trkpt><trkpt lat="-26.437453430187418" lon="114.1952071108465"><ele>29.0</ele><time>2026-04-15T09:11:47Z</time></trkpt><trkpt lat="-26.43762389224177" lon="114.19497734452032"><ele>29.0</ele><time>2026-04-15T09:11:48Z</time></trkpt><trkpt lat="-26.437795705758337" lon="114.19474439129925"><ele>28.5</ele><time>2026-04-15T09:11:49Z</time></trkpt><trkpt lat="-26.437970376847503" lon="114.19450605887688"><ele>28.0</ele><time>2026-04-15T09:11:50Z</time></trkpt><trkpt lat="-26.43814527492924" lon="114.1942674906468"><ele>28.0</ele><time>2026-04-15T09:11:51Z</time></trkpt><trkpt lat="-26.438318864622197" lon="114.19402955739683"><ele>28.0</ele><time>2026-04-15T09:11:52Z</time></trkpt><trkpt lat="-26.438495685834496" lon="114.19379577675579"><ele>27.5</ele><time>2026-04-15T09:11:53Z</time></trkpt><trkpt lat="-26.43867264049897" lon="114.19356289327123"><ele>27.0</ele><time>2026-04-15T09:11:54Z</time></trkpt><trkpt lat="-26.438849843040256" lon="114.19332746437489"><ele>27.0</ele><time>2026-04-15T09:11:55Z</time></trkpt><trkpt lat="-26.439027082641367" lon="114.19308644843791"><ele>27.0</ele><time>2026-04-15T09:11:56Z</time></trkpt><trkpt lat="-26.439202543896442" lon="114.19284256290446"><ele>27.0</ele><time>2026-04-15T09:11:57Z</time></trkpt><trkpt lat="-26.43937640968433" lon="114.19259128903441"><ele>27.0</ele><time>2026-04-15T09:11:58Z</time></trkpt><trkpt lat="-26.439550017920958" lon="114.19233355617207"><ele>27.0</ele><time>2026-04-15T09:11:59Z</time></trkpt><trkpt lat="-26.439719475193236" lon="114.19207113941444"><ele>27.0</ele><time>2026-04-15T09:12:00Z</time></trkpt><trkpt lat="-26.439883497636995" lon="114.19180346162803"><ele>27.0</ele><time>2026-04-15T09:12:01Z</time></trkpt><trkpt lat="-26.440042177667433" lon="114.19153326254853"><ele>27.0</ele><time>2026-04-15T09:12:02Z</time></trkpt><trkpt lat="-26.440199480895874" lon="114.1912604917397"><ele>27.5</ele><time>2026-04-15T09:12:03Z</time></trkpt><trkpt lat="-26.44035431434806" lon="114.1909853771789"><ele>28.0</ele><time>2026-04-15T09:12:04Z</time></trkpt><trkpt lat="-26.440504567247437" lon="114.1907121508297"><ele>27.5</ele><time>2026-04-15T09:12:05Z</time></trkpt><trkpt lat="-26.440652507650668" lon="114.19044035872997"><ele>27.0</ele><time>2026-04-15T09:12:06Z</time></trkpt><trkpt lat="-26.440796535484807" lon="114.19016655968751"><ele>27.0</ele><time>2026-04-15T09:12:07Z</time></trkpt><trkpt lat="-26.440939277215037" lon="114.18989002104578"><ele>27.0</ele><time>2026-04-15T09:12:08Z</time></trkpt><trkpt lat="-26.44108220901226" lon="114.18961341127874"><ele>27.0</ele><time>2026-04-15T09:12:09Z</time></trkpt><trkpt lat="-26.44122694500417" lon="114.18933550649268"><ele>27.0</ele><time>2026-04-15T09:12:10Z</time></trkpt><trkpt lat="-26.44137464378386" lon="114.18905645329576"><ele>26.0</ele><time>2026-04-15T09:12:11Z</time></trkpt><trkpt lat="-26.44152197350024" lon="114.18877737016105"><ele>25.0</ele><time>2026-04-15T09:12:12Z</time></trkpt><trkpt lat="-26.441669004890663" lon="114.18849740030653"><ele>25.0</ele><time>2026-04-15T09:12:13Z</time></trkpt><trkpt lat="-26.441813171161133" lon="114.18821566880264"><ele>25.0</ele><time>2026-04-15T09:12:14Z</time></trkpt><trkpt lat="-26.44195646911301" lon="114.18793250418663"><ele>24.5</ele><time>2026-04-15T09:12:15Z</time></trkpt><trkpt lat="-26.44210021788925" lon="114.18764733056013"><ele>24.0</ele><time>2026-04-15T09:12:16Z</time></trkpt><trkpt lat="-26.44224485860021" lon="114.18736383142888"><ele>26.0</ele><time>2026-04-15T09:12:17Z</time></trkpt><trkpt lat="-26.442389795798626" lon="114.1870792288258"><ele>28.0</ele><time>2026-04-15T09:12:18Z</time></trkpt><trkpt lat="-26.442534587374094" lon="114.18679480153065"><ele>28.0</ele><time>2026-04-15T09:12:19Z</time></trkpt><trkpt lat="-26.442680353896442" lon="114.18651204951554"><ele>28.0</ele><time>2026-04-15T09:12:20Z</time></trkpt><trkpt lat="-26.442828815682226" lon="114.18623049404972"><ele>27.5</ele><time>2026-04-15T09:12:21Z</time></trkpt><trkpt lat="-26.442977024046503" lon="114.18594980084109"><ele>27.0</ele><time>2026-04-15T09:12:22Z</time></trkpt><trkpt lat="-26.443124514653793" lon="114.18567022285237"><ele>27.0</ele><time>2026-04-15T09:12:23Z</time></trkpt><trkpt lat="-26.44327079609424" lon="114.18538746343107"><ele>27.0</ele><time>2026-04-15T09:12:24Z</time></trkpt><trkpt lat="-26.443417557797783" lon="114.18510540920882"><ele>28.0</ele><time>2026-04-15T09:12:25Z</time></trkpt><trkpt lat="-26.443563747993206" lon="114.18482428026148"><ele>29.0</ele><time>2026-04-15T09:12:26Z</time></trkpt><trkpt lat="-26.443709185120923" lon="114.18454501060292"><ele>28.0</ele><time>2026-04-15T09:12:27Z</time></trkpt><trkpt lat="-26.443854980953983" lon="114.18426288834048"><ele>27.0</ele><time>2026-04-15T09:12:28Z</time></trkpt><trkpt lat="-26.444000379037558" lon="114.18398025808028"><ele>26.5</ele><time>2026-04-15T09:12:29Z</time></trkpt><trkpt lat="-26.444146693538805" lon="114.18369552452252"><ele>26.0</ele><time>2026-04-15T09:12:30Z</time></trkpt><trkpt lat="-26.444292251914582" lon="114.18341134284002"><ele>25.0</ele><time>2026-04-15T09:12:31Z</time></trkpt><trkpt lat="-26.44443604788656" lon="114.18312574971114"><ele>24.0</ele><time>2026-04-15T09:12:32Z</time></trkpt><trkpt lat="-26.44458032935815" lon="114.18283921856866"><ele>24.0</ele><time>2026-04-15T09:12:33Z</time></trkpt><trkpt lat="-26.444737827429158" lon="114.18256273022217"><ele>24.0</ele><time>2026-04-15T09:12:34Z</time></trkpt><trkpt lat="-26.44488509470343" lon="114.18227938273976"><ele>24.0</ele><time>2026-04-15T09:12:35Z</time></trkpt><trkpt lat="-26.44502682229209" lon="114.1819936363897"><ele>24.0</ele><time>2026-04-15T09:12:36Z</time></trkpt><trkpt lat="-26.44515407377437" lon="114.18170362665748"><ele>23.5</ele><time>2026-04-15T09:12:37Z</time></trkpt><trkpt lat="-26.445292466640193" lon="114.18142067651634"><ele>23.0</ele><time>2026-04-15T09:12:38Z</time></trkpt><trkpt lat="-26.445434983781524" lon="114.18113920820413"><ele>24.0</ele><time>2026-04-15T09:12:39Z</time></trkpt><trkpt lat="-26.445572446228052" lon="114.18084674148285"><ele>25.0</ele><time>2026-04-15T09:12:40Z</time></trkpt><trkpt lat="-26.44565549909084" lon="114.18052341994932"><ele>25.0</ele><time>2026-04-15T09:12:41Z</time></trkpt><trkpt lat="-26.44577058232001" lon="114.18022232245539"><ele>25.0</ele><time>2026-04-15T09:12:42Z</time></trkpt><trkpt lat="-26.44588273785077" lon="114.17992457741876"><ele>25.0</ele><time>2026-04-15T09:12:43Z</time></trkpt><trkpt lat="-26.445998078441402" lon="114.17962822807904"><ele>25.0</ele><time>2026-04-15T09:12:44Z</time></trkpt><trkpt lat="-26.446115824078134" lon="114.17933343846539"><ele>25.0</ele><time>2026-04-15T09:12:45Z</time></trkpt><trkpt lat="-26.446238167357336" lon="114.17903695337786"><ele>25.0</ele><time>2026-04-15T09:12:46Z</time></trkpt><trkpt lat="-26.44636131324594" lon="114.17874284092007"><ele>25.0</ele><time>2026-04-15T09:12:47Z</time></trkpt><trkpt lat="-26.446481885165063" lon="114.17844720198282"><ele>25.0</ele><time>2026-04-15T09:12:48Z</time></trkpt><trkpt lat="-26.446600150509283" lon="114.17815149617478"><ele>24.5</ele><time>2026-04-15T09:12:49Z</time></trkpt><trkpt lat="-26.446717271233403" lon="114.17785776603283"><ele>24.0</ele><time>2026-04-15T09:12:50Z</time></trkpt><trkpt lat="-26.446832248771827" lon="114.17756411596311"><ele>23.5</ele><time>2026-04-15T09:12:51Z</time></trkpt><trkpt lat="-26.44694878102044" lon="114.17726951034602"><ele>23.0</ele><time>2026-04-15T09:12:52Z</time></trkpt><trkpt lat="-26.447067496994148" lon="114.17697310811018"><ele>22.0</ele><time>2026-04-15T09:12:53Z</time></trkpt><trkpt lat="-26.44718618752979" lon="114.17667665386672"><ele>21.0</ele><time>2026-04-15T09:12:54Z</time></trkpt><trkpt lat="-26.44730436352509" lon="114.1763775905988"><ele>23.5</ele><time>2026-04-15T09:12:55Z</time></trkpt><trkpt lat="-26.447421915487055" lon="114.17608173346667"><ele>26.0</ele><time>2026-04-15T09:12:56Z</time></trkpt><trkpt lat="-26.447540119775255" lon="114.17578403760503"><ele>25.0</ele><time>2026-04-15T09:12:57Z</time></trkpt><trkpt lat="-26.447658529314033" lon="114.17548666641136"><ele>24.0</ele><time>2026-04-15T09:12:58Z</time></trkpt><trkpt lat="-26.447776345406712" lon="114.17518691695864"><ele>24.0</ele><time>2026-04-15T09:12:59Z</time></trkpt><trkpt lat="-26.44789380861246" lon="114.17488975536337"><ele>24.0</ele><time>2026-04-15T09:13:00Z</time></trkpt><trkpt lat="-26.448014030895834" lon="114.17459123751536"><ele>24.0</ele><time>2026-04-15T09:13:01Z</time></trkpt><trkpt lat="-26.44813129233581" lon="114.1742935096082"><ele>24.0</ele><time>2026-04-15T09:13:02Z</time></trkpt><trkpt lat="-26.448246289218293" lon="114.1739975870867"><ele>24.0</ele><time>2026-04-15T09:13:03Z</time></trkpt><trkpt lat="-26.44836299448409" lon="114.17369899459679"><ele>24.0</ele><time>2026-04-15T09:13:04Z</time></trkpt><trkpt lat="-26.448479749405536" lon="114.17340270412424"><ele>23.0</ele><time>2026-04-15T09:13:05Z</time></trkpt><trkpt lat="-26.448596016939046" lon="114.17310558920245"><ele>22.0</ele><time>2026-04-15T09:13:06Z</time></trkpt><trkpt lat="-26.448712911113574" lon="114.17280954757624"><ele>22.0</ele><time>2026-04-15T09:13:07Z</time></trkpt><trkpt lat="-26.4488329310223" lon="114.17251377431114"><ele>22.0</ele><time>2026-04-15T09:13:08Z</time></trkpt><trkpt lat="-26.4489537283961" lon="114.17221657277177"><ele>21.5</ele><time>2026-04-15T09:13:09Z</time></trkpt><trkpt lat="-26.449074998327138" lon="114.17191574577959"><ele>21.0</ele><time>2026-04-15T09:13:10Z</time></trkpt><trkpt lat="-26.44919532304708" lon="114.1716142542751"><ele>20.5</ele><time>2026-04-15T09:13:11Z</time></trkpt><trkpt lat="-26.449315711780688" lon="114.17131082961109"><ele>20.0</ele><time>2026-04-15T09:13:12Z</time></trkpt><trkpt lat="-26.449436345069106" lon="114.17100704119373"><ele>20.0</ele><time>2026-04-15T09:13:13Z</time></trkpt><trkpt lat="-26.44955601185538" lon="114.17070572411022"><ele>20.0</ele><time>2026-04-15T09:13:14Z</time></trkpt><trkpt lat="-26.449677350383336" lon="114.17040472792779"><ele>20.0</ele><time>2026-04-15T09:13:15Z</time></trkpt><trkpt lat="-26.449798415084086" lon="114.17010287914991"><ele>20.0</ele><time>2026-04-15T09:13:16Z</time></trkpt><trkpt lat="-26.449918257782972" lon="114.16980330329788"><ele>20.0</ele><time>2026-04-15T09:13:17Z</time></trkpt><trkpt lat="-26.450036776232444" lon="114.16950252653284"><ele>20.0</ele><time>2026-04-15T09:13:18Z</time></trkpt><trkpt lat="-26.45015537249647" lon="114.16920262079661"><ele>19.5</ele><time>2026-04-15T09:13:19Z</time></trkpt><trkpt lat="-26.450273207566653" lon="114.16890407876484"><ele>19.0</ele><time>2026-04-15T09:13:20Z</time></trkpt><trkpt lat="-26.45039211421275" lon="114.16860328327968"><ele>18.5</ele><time>2026-04-15T09:13:21Z</time></trkpt><trkpt lat="-26.450510947708924" lon="114.16829990278845"><ele>18.0</ele><time>2026-04-15T09:13:22Z</time></trkpt><trkpt lat="-26.450629562227412" lon="114.16799349147881"><ele>19.0</ele><time>2026-04-15T09:13:23Z</time></trkpt><trkpt lat="-26.450751598760025" lon="114.16768665762957"><ele>20.0</ele><time>2026-04-15T09:13:24Z</time></trkpt><trkpt lat="-26.450874688366273" lon="114.16738078299412"><ele>19.5</ele><time>2026-04-15T09:13:25Z</time></trkpt><trkpt lat="-26.450997519719596" lon="114.16707705337076"><ele>19.0</ele><time>2026-04-15T09:13:26Z</time></trkpt><trkpt lat="-26.451120961475876" lon="114.16677210084148"><ele>19.0</ele><time>2026-04-15T09:13:27Z</time></trkpt><trkpt lat="-26.451243624029434" lon="114.16646682549376"><ele>19.0</ele><time>2026-04-15T09:13:28Z</time></trkpt><trkpt lat="-26.45136723776232" lon="114.1661622389408"><ele>19.5</ele><time>2026-04-15T09:13:29Z</time></trkpt><trkpt lat="-26.45148804739199" lon="114.16585733663291"><ele>20.0</ele><time>2026-04-15T09:13:30Z</time></trkpt><trkpt lat="-26.451608831648286" lon="114.16555001537601"><ele>20.5</ele><time>2026-04-15T09:13:31Z</time></trkpt><trkpt lat="-26.45172976509418" lon="114.16524038433211"><ele>21.0</ele><time>2026-04-15T09:13:32Z</time></trkpt><trkpt lat="-26.451850479646406" lon="114.16493077183617"><ele>21.0</ele><time>2026-04-15T09:13:33Z</time></trkpt><trkpt lat="-26.451972234441545" lon="114.16461966283624"><ele>21.0</ele><time>2026-04-15T09:13:34Z</time></trkpt><trkpt lat="-26.452096837324444" lon="114.16431250292852"><ele>19.5</ele><time>2026-04-15T09:13:35Z</time></trkpt><trkpt lat="-26.452225915901582" lon="114.16400901461937"><ele>18.0</ele><time>2026-04-15T09:13:36Z</time></trkpt><trkpt lat="-26.45236131359397" lon="114.16370589895881"><ele>18.0</ele><time>2026-04-15T09:13:37Z</time></trkpt><trkpt lat="-26.452502180827167" lon="114.16340627704344"><ele>18.0</ele><time>2026-04-15T09:13:38Z</time></trkpt><trkpt lat="-26.452648655874945" lon="114.16310936398288"><ele>18.5</ele><time>2026-04-15T09:13:39Z</time></trkpt><trkpt lat="-26.452799574587353" lon="114.162813793684"><ele>19.0</ele><time>2026-04-15T09:13:40Z</time></trkpt><trkpt lat="-26.45295425087084" lon="114.16252351500162"><ele>18.5</ele><time>2026-04-15T09:13:41Z</time></trkpt><trkpt lat="-26.45311235271149" lon="114.16223460185098"><ele>18.0</ele><time>2026-04-15T09:13:42Z</time></trkpt><trkpt lat="-26.45327033009691" lon="114.1619456218638"><ele>18.0</ele><time>2026-04-15T09:13:43Z</time></trkpt><trkpt lat="-26.453427446452313" lon="114.1616553895138"><ele>18.0</ele><time>2026-04-15T09:13:44Z</time></trkpt><trkpt lat="-26.453583866086657" lon="114.16136412272861"><ele>18.0</ele><time>2026-04-15T09:13:45Z</time></trkpt><trkpt lat="-26.45373927580177" lon="114.16107347741178"><ele>18.0</ele><time>2026-04-15T09:13:46Z</time></trkpt><trkpt lat="-26.453894511860085" lon="114.16078038179087"><ele>18.0</ele><time>2026-04-15T09:13:47Z</time></trkpt><trkpt lat="-26.45404636560457" lon="114.16048569992552"><ele>18.0</ele><time>2026-04-15T09:13:48Z</time></trkpt><trkpt lat="-26.45419191830364" lon="114.16018942417739"><ele>18.0</ele><time>2026-04-15T09:13:49Z</time></trkpt><trkpt lat="-26.454332393715653" lon="114.15988898499126"><ele>18.0</ele><time>2026-04-15T09:13:50Z</time></trkpt><trkpt lat="-26.4544628338958" lon="114.1595873743057"><ele>17.5</ele><time>2026-04-15T09:13:51Z</time></trkpt><trkpt lat="-26.454584708187934" lon="114.15928154231207"><ele>17.0</ele><time>2026-04-15T09:13:52Z</time></trkpt><trkpt lat="-26.454696075733516" lon="114.1589711006077"><ele>16.5</ele><time>2026-04-15T09:13:53Z</time></trkpt><trkpt lat="-26.454796909775446" lon="114.15865653900588"><ele>16.0</ele><time>2026-04-15T09:13:54Z</time></trkpt><trkpt lat="-26.45489341902029" lon="114.15833479051479"><ele>15.0</ele><time>2026-04-15T09:13:55Z</time></trkpt><trkpt lat="-26.454985246707817" lon="114.15801260062075"><ele>14.0</ele><time>2026-04-15T09:13:56Z</time></trkpt><trkpt lat="-26.455071567541623" lon="114.15768944043795"><ele>16.0</ele><time>2026-04-15T09:13:57Z</time></trkpt><trkpt lat="-26.4551531579599" lon="114.15736245783731"><ele>18.0</ele><time>2026-04-15T09:13:58Z</time></trkpt><trkpt lat="-26.45522890498817" lon="114.15703778031983"><ele>18.0</ele><time>2026-04-15T09:13:59Z</time></trkpt><trkpt lat="-26.455294371209998" lon="114.15671181839814"><ele>18.0</ele><time>2026-04-15T09:14:00Z</time></trkpt><trkpt lat="-26.455351777169934" lon="114.15638364956219"><ele>17.0</ele><time>2026-04-15T09:14:01Z</time></trkpt><trkpt lat="-26.455398039189816" lon="114.15605579608852"><ele>16.0</ele><time>2026-04-15T09:14:02Z</time></trkpt><trkpt lat="-26.455435190314414" lon="114.15572446386284"><ele>16.0</ele><time>2026-04-15T09:14:03Z</time></trkpt><trkpt lat="-26.4554657097725" lon="114.15538890074995"><ele>16.0</ele><time>2026-04-15T09:14:04Z</time></trkpt><trkpt lat="-26.45549183120595" lon="114.15505303517853"><ele>16.5</ele><time>2026-04-15T09:14:05Z</time></trkpt><trkpt lat="-26.45551139807891" lon="114.15471786072888"><ele>17.0</ele><time>2026-04-15T09:14:06Z</time></trkpt><trkpt lat="-26.45552215990349" lon="114.15438316120084"><ele>17.0</ele><time>2026-04-15T09:14:07Z</time></trkpt><trkpt lat="-26.4555258459006" lon="114.15404866519224"><ele>17.0</ele><time>2026-04-15T09:14:08Z</time></trkpt><trkpt lat="-26.455519617730452" lon="114.15371699861618"><ele>16.5</ele><time>2026-04-15T09:14:09Z</time></trkpt><trkpt lat="-26.455503386397247" lon="114.15338713407336"><ele>16.0</ele><time>2026-04-15T09:14:10Z</time></trkpt><trkpt lat="-26.455480790355423" lon="114.15305731674611"><ele>16.0</ele><time>2026-04-15T09:14:11Z</time></trkpt><trkpt lat="-26.455456955848707" lon="114.15273134225554"><ele>16.0</ele><time>2026-04-15T09:14:12Z</time></trkpt><trkpt lat="-26.455433826701768" lon="114.15240479288892"><ele>15.0</ele><time>2026-04-15T09:14:13Z</time></trkpt><trkpt lat="-26.455407421601773" lon="114.15207719403911"><ele>14.0</ele><time>2026-04-15T09:14:14Z</time></trkpt><trkpt lat="-26.455382536977698" lon="114.15174969072207"><ele>14.0</ele><time>2026-04-15T09:14:15Z</time></trkpt><trkpt lat="-26.45535883046685" lon="114.15142356596158"><ele>14.0</ele><time>2026-04-15T09:14:16Z</time></trkpt><trkpt lat="-26.45533732070683" lon="114.15109861365893"><ele>14.0</ele><time>2026-04-15T09:14:17Z</time></trkpt><trkpt lat="-26.455317229802297" lon="114.15076933285302"><ele>14.0</ele><time>2026-04-15T09:14:18Z</time></trkpt><trkpt lat="-26.45529805511134" lon="114.15044038874082"><ele>14.0</ele><time>2026-04-15T09:14:19Z</time></trkpt><trkpt lat="-26.455276319790414" lon="114.15011120158478"><ele>14.0</ele><time>2026-04-15T09:14:20Z</time></trkpt><trkpt lat="-26.455250132591935" lon="114.14978303506436"><ele>14.0</ele><time>2026-04-15T09:14:21Z</time></trkpt><trkpt lat="-26.455222744550607" lon="114.14945720420518"><ele>14.0</ele><time>2026-04-15T09:14:22Z</time></trkpt><trkpt lat="-26.45519686384125" lon="114.14913346170343"><ele>15.0</ele><time>2026-04-15T09:14:23Z</time></trkpt><trkpt lat="-26.455170406028916" lon="114.14881222502267"><ele>16.0</ele><time>2026-04-15T09:14:24Z</time></trkpt><trkpt lat="-26.455145309183877" lon="114.14848231510308"><ele>15.0</ele><time>2026-04-15T09:14:25Z</time></trkpt><trkpt lat="-26.455121834369898" lon="114.14815379997248"><ele>14.0</ele><time>2026-04-15T09:14:26Z</time></trkpt><trkpt lat="-26.45510077613449" lon="114.14782367347125"><ele>14.0</ele><time>2026-04-15T09:14:27Z</time></trkpt><trkpt lat="-26.455078978477506" lon="114.14749955537725"><ele>14.0</ele><time>2026-04-15T09:14:28Z</time></trkpt><trkpt lat="-26.455057852705224" lon="114.14717162005739"><ele>14.5</ele><time>2026-04-15T09:14:29Z</time></trkpt><trkpt lat="-26.455037688230863" lon="114.14684983841822"><ele>15.0</ele><time>2026-04-15T09:14:30Z</time></trkpt><trkpt lat="-26.45501831302472" lon="114.14653157300279"><ele>14.0</ele><time>2026-04-15T09:14:31Z</time></trkpt><trkpt lat="-26.454998363830374" lon="114.14621925565048"><ele>13.0</ele><time>2026-04-15T09:14:32Z</time></trkpt><trkpt lat="-26.45497722673115" lon="114.14590392419578"><ele>13.0</ele><time>2026-04-15T09:14:33Z</time></trkpt><trkpt lat="-26.454952352788663" lon="114.14560113781286"><ele>13.0</ele><time>2026-04-15T09:14:34Z</time></trkpt><trkpt lat="-26.454931668615878" lon="114.14529880878044"><ele>13.0</ele><time>2026-04-15T09:14:35Z</time></trkpt><trkpt lat="-26.45490963577688" lon="114.14499809311549"><ele>13.0</ele><time>2026-04-15T09:14:36Z</time></trkpt><trkpt lat="-26.454885373894633" lon="114.14470228712601"><ele>13.0</ele><time>2026-04-15T09:14:37Z</time></trkpt><trkpt lat="-26.45486214387996" lon="114.14440759595752"><ele>13.0</ele><time>2026-04-15T09:14:38Z</time></trkpt><trkpt lat="-26.454841591568197" lon="114.14411857213936"><ele>14.0</ele><time>2026-04-15T09:14:39Z</time></trkpt><trkpt lat="-26.454823106907245" lon="114.14383155932545"><ele>15.0</ele><time>2026-04-15T09:14:40Z</time></trkpt><trkpt lat="-26.454803455475858" lon="114.14355072878827"><ele>15.0</ele><time>2026-04-15T09:14:41Z</time></trkpt><trkpt lat="-26.45478245830762" lon="114.14327075438428"><ele>15.0</ele><time>2026-04-15T09:14:42Z</time></trkpt><trkpt lat="-26.454763144603305" lon="114.14299090174126"><ele>14.0</ele><time>2026-04-15T09:14:43Z</time></trkpt><trkpt lat="-26.454746638274663" lon="114.14271204755133"><ele>13.0</ele><time>2026-04-15T09:14:44Z</time></trkpt><trkpt lat="-26.454732488362094" lon="114.14243189580856"><ele>12.0</ele><time>2026-04-15T09:14:45Z</time></trkpt><trkpt lat="-26.45472360266292" lon="114.14215384272441"><ele>11.0</ele><time>2026-04-15T09:14:46Z</time></trkpt><trkpt lat="-26.45472551996112" lon="114.14187540843743"><ele>11.0</ele><time>2026-04-15T09:14:47Z</time></trkpt><trkpt lat="-26.45473728529166" lon="114.14159890790624"><ele>11.0</ele><time>2026-04-15T09:14:48Z</time></trkpt><trkpt lat="-26.454755840340198" lon="114.14132636716181"><ele>11.5</ele><time>2026-04-15T09:14:49Z</time></trkpt><trkpt lat="-26.45477474958952" lon="114.14106054949654"><ele>12.0</ele><time>2026-04-15T09:14:50Z</time></trkpt><trkpt lat="-26.45479528571164" lon="114.14079669475585"><ele>12.5</ele><time>2026-04-15T09:14:51Z</time></trkpt><trkpt lat="-26.454823682752078" lon="114.14052799202004"><ele>13.0</ele><time>2026-04-15T09:14:52Z</time></trkpt><trkpt lat="-26.454855547624277" lon="114.14025519236576"><ele>13.0</ele><time>2026-04-15T09:14:53Z</time></trkpt><trkpt lat="-26.454891540886404" lon="114.13997827379822"><ele>13.0</ele><time>2026-04-15T09:14:54Z</time></trkpt><trkpt lat="-26.454935634033568" lon="114.13969003867565"><ele>13.0</ele><time>2026-04-15T09:14:55Z</time></trkpt><trkpt lat="-26.454988530850418" lon="114.1394013177852"><ele>13.0</ele><time>2026-04-15T09:14:56Z</time></trkpt><trkpt lat="-26.455048045560794" lon="114.13910817865577"><ele>12.5</ele><time>2026-04-15T09:14:57Z</time></trkpt><trkpt lat="-26.4551119181907" lon="114.1388087912176"><ele>12.0</ele><time>2026-04-15T09:14:58Z</time></trkpt><trkpt lat="-26.455182275409697" lon="114.13851329880319"><ele>12.5</ele><time>2026-04-15T09:14:59Z</time></trkpt><trkpt lat="-26.455262010897588" lon="114.13821741661403"><ele>13.0</ele><time>2026-04-15T09:15:00Z</time></trkpt><trkpt lat="-26.45534604443185" lon="114.13792578647092"><ele>13.0</ele><time>2026-04-15T09:15:01Z</time></trkpt><trkpt lat="-26.45543648844602" lon="114.13763579060848"><ele>13.0</ele><time>2026-04-15T09:15:02Z</time></trkpt><trkpt lat="-26.455537292830638" lon="114.13734416303956"><ele>13.0</ele><time>2026-04-15T09:15:03Z</time></trkpt><trkpt lat="-26.455647863083165" lon="114.13705396703645"><ele>13.0</ele><time>2026-04-15T09:15:04Z</time></trkpt><trkpt lat="-26.455763512289167" lon="114.13676374904038"><ele>13.0</ele><time>2026-04-15T09:15:05Z</time></trkpt><trkpt lat="-26.45588343036323" lon="114.13647550054111"><ele>13.0</ele><time>2026-04-15T09:15:06Z</time></trkpt><trkpt lat="-26.456007029340707" lon="114.13619056782197"><ele>13.0</ele><time>2026-04-15T09:15:07Z</time></trkpt><trkpt lat="-26.456134882789417" lon="114.1359085886924"><ele>13.0</ele><time>2026-04-15T09:15:08Z</time></trkpt><trkpt lat="-26.456268258876907" lon="114.13563045169293"><ele>12.5</ele><time>2026-04-15T09:15:09Z</time></trkpt><trkpt lat="-26.45640940309197" lon="114.13536299918641"><ele>12.0</ele><time>2026-04-15T09:15:10Z</time></trkpt><trkpt lat="-26.45655861528566" lon="114.13510434397068"><ele>11.5</ele><time>2026-04-15T09:15:11Z</time></trkpt><trkpt lat="-26.456715580710313" lon="114.13485011457941"><ele>11.0</ele><time>2026-04-15T09:15:12Z</time></trkpt><trkpt lat="-26.456876392640357" lon="114.13459676553407"><ele>11.0</ele><time>2026-04-15T09:15:13Z</time></trkpt><trkpt lat="-26.457042769658607" lon="114.13434279261257"><ele>11.0</ele><time>2026-04-15T09:15:14Z</time></trkpt><trkpt lat="-26.457212518011776" lon="114.13409153318058"><ele>11.0</ele><time>2026-04-15T09:15:15Z</time></trkpt><trkpt lat="-26.457382626419054" lon="114.13384487672172"><ele>11.0</ele><time>2026-04-15T09:15:16Z</time></trkpt><trkpt lat="-26.457555554691172" lon="114.13360000044948"><ele>11.0</ele><time>2026-04-15T09:15:17Z</time></trkpt><trkpt lat="-26.457726636079027" lon="114.13335739445895"><ele>11.0</ele><time>2026-04-15T09:15:18Z</time></trkpt><trkpt lat="-26.457895573807978" lon="114.13311448414653"><ele>11.0</ele><time>2026-04-15T09:15:19Z</time></trkpt><trkpt lat="-26.45806271983976" lon="114.13286953914151"><ele>11.0</ele><time>2026-04-15T09:15:20Z</time></trkpt><trkpt lat="-26.45822989230595" lon="114.13262636332776"><ele>10.0</ele><time>2026-04-15T09:15:21Z</time></trkpt><trkpt lat="-26.4583965063889" lon="114.1323840568435"><ele>9.0</ele><time>2026-04-15T09:15:22Z</time></trkpt><trkpt lat="-26.45856237147687" lon="114.13214174023486"><ele>9.0</ele><time>2026-04-15T09:15:23Z</time></trkpt><trkpt lat="-26.458727044691354" lon="114.13190019865381"><ele>9.0</ele><time>2026-04-15T09:15:24Z</time></trkpt><trkpt lat="-26.458891385438246" lon="114.13166054315317"><ele>8.5</ele><time>2026-04-15T09:15:25Z</time></trkpt><trkpt lat="-26.45905641779705" lon="114.13142122386257"><ele>8.0</ele><time>2026-04-15T09:15:26Z</time></trkpt><trkpt lat="-26.459222329787266" lon="114.1311830024799"><ele>8.0</ele><time>2026-04-15T09:15:27Z</time></trkpt><trkpt lat="-26.459392449716546" lon="114.13093386582119"><ele>8.0</ele><time>2026-04-15T09:15:28Z</time></trkpt><trkpt lat="-26.459564156194133" lon="114.13067815330102"><ele>8.5</ele><time>2026-04-15T09:15:29Z</time></trkpt><trkpt lat="-26.45973599296385" lon="114.13042007557357"><ele>9.0</ele><time>2026-04-15T09:15:30Z</time></trkpt><trkpt lat="-26.459908969382234" lon="114.1301605440279"><ele>9.0</ele><time>2026-04-15T09:15:31Z</time></trkpt><trkpt lat="-26.460085801914285" lon="114.12990119474912"><ele>9.0</ele><time>2026-04-15T09:15:32Z</time></trkpt><trkpt lat="-26.460260979446012" lon="114.12964804970711"><ele>9.5</ele><time>2026-04-15T09:15:33Z</time></trkpt><trkpt lat="-26.460435127112" lon="114.12939901220871"><ele>10.0</ele><time>2026-04-15T09:15:34Z</time></trkpt><trkpt lat="-26.46061017529724" lon="114.12915672945357"><ele>10.5</ele><time>2026-04-15T09:15:35Z</time></trkpt><trkpt lat="-26.460780813662566" lon="114.12891750024356"><ele>11.0</ele><time>2026-04-15T09:15:36Z</time></trkpt><trkpt lat="-26.460948842556096" lon="114.12867873560694"><ele>11.0</ele><time>2026-04-15T09:15:37Z</time></trkpt><trkpt lat="-26.461116006463055" lon="114.12843514460214"><ele>11.0</ele><time>2026-04-15T09:15:38Z</time></trkpt><trkpt lat="-26.461283252550196" lon="114.12819076506776"><ele>9.0</ele><time>2026-04-15T09:15:39Z</time></trkpt><trkpt lat="-26.461451581093765" lon="114.12795195266925"><ele>7.0</ele><time>2026-04-15T09:15:40Z</time></trkpt><trkpt lat="-26.461626289708175" lon="114.12772006283178"><ele>7.0</ele><time>2026-04-15T09:15:41Z</time></trkpt><trkpt lat="-26.4618096386578" lon="114.1274945411836"><ele>7.0</ele><time>2026-04-15T09:15:42Z</time></trkpt><trkpt lat="-26.46200147256367" lon="114.12726675584099"><ele>8.0</ele><time>2026-04-15T09:15:43Z</time></trkpt><trkpt lat="-26.46219875204236" lon="114.12704248933316"><ele>9.0</ele><time>2026-04-15T09:15:44Z</time></trkpt><trkpt lat="-26.462401945676135" lon="114.12682412185947"><ele>9.0</ele><time>2026-04-15T09:15:45Z</time></trkpt><trkpt lat="-26.46260821503794" lon="114.12661193526563"><ele>9.0</ele><time>2026-04-15T09:15:46Z</time></trkpt><trkpt lat="-26.462817731605927" lon="114.12640735024114"><ele>8.5</ele><time>2026-04-15T09:15:47Z</time></trkpt><trkpt lat="-26.46302890955862" lon="114.12620908906852"><ele>8.0</ele><time>2026-04-15T09:15:48Z</time></trkpt><trkpt lat="-26.463249777538163" lon="114.12601215717953"><ele>8.0</ele><time>2026-04-15T09:15:49Z</time></trkpt><trkpt lat="-26.463476182120164" lon="114.1258208606437"><ele>8.0</ele><time>2026-04-15T09:15:50Z</time></trkpt><trkpt lat="-26.463710549392104" lon="114.1256332000225"><ele>7.5</ele><time>2026-04-15T09:15:51Z</time></trkpt><trkpt lat="-26.463950221567035" lon="114.12545452306583"><ele>7.0</ele><time>2026-04-15T09:15:52Z</time></trkpt><trkpt lat="-26.464196028068514" lon="114.12528413794159"><ele>7.0</ele><time>2026-04-15T09:15:53Z</time></trkpt><trkpt lat="-26.464443782912312" lon="114.12511925674995"><ele>7.0</ele><time>2026-04-15T09:15:54Z</time></trkpt><trkpt lat="-26.464691430569506" lon="114.12495500940835"><ele>7.5</ele><time>2026-04-15T09:15:55Z</time></trkpt><trkpt lat="-26.46493967053088" lon="114.1247937309632"><ele>8.0</ele><time>2026-04-15T09:15:56Z</time></trkpt><trkpt lat="-26.465190638309917" lon="114.12463795860612"><ele>8.0</ele><time>2026-04-15T09:15:57Z</time></trkpt><trkpt lat="-26.46543935501013" lon="114.12448773325553"><ele>8.0</ele><time>2026-04-15T09:15:58Z</time></trkpt><trkpt lat="-26.465688104834626" lon="114.1243356011901"><ele>8.0</ele><time>2026-04-15T09:15:59Z</time></trkpt><trkpt lat="-26.465934248013404" lon="114.12418005967238"><ele>8.0</ele><time>2026-04-15T09:16:00Z</time></trkpt><trkpt lat="-26.46617810333313" lon="114.12401991770858"><ele>8.5</ele><time>2026-04-15T09:16:01Z</time></trkpt><trkpt lat="-26.466428586779145" lon="114.12385542636676"><ele>9.0</ele><time>2026-04-15T09:16:02Z</time></trkpt><trkpt lat="-26.466682138726345" lon="114.12369198691472"><ele>9.0</ele><time>2026-04-15T09:16:03Z</time></trkpt><trkpt lat="-26.466941164456728" lon="114.12353127648073"><ele>9.0</ele><time>2026-04-15T09:16:04Z</time></trkpt><trkpt lat="-26.467199249596614" lon="114.1233671876109"><ele>8.0</ele><time>2026-04-15T09:16:05Z</time></trkpt><trkpt lat="-26.467453023946366" lon="114.12320346707828"><ele>7.0</ele><time>2026-04-15T09:16:06Z</time></trkpt><trkpt lat="-26.467705521206057" lon="114.12304307352804"><ele>7.0</ele><time>2026-04-15T09:16:07Z</time></trkpt><trkpt lat="-26.46795818924358" lon="114.12288173263117"><ele>7.0</ele><time>2026-04-15T09:16:08Z</time></trkpt><trkpt lat="-26.46820986168812" lon="114.12272120377112"><ele>7.0</ele><time>2026-04-15T09:16:09Z</time></trkpt><trkpt lat="-26.468461626124704" lon="114.1225584441392"><ele>7.0</ele><time>2026-04-15T09:16:10Z</time></trkpt><trkpt lat="-26.468710746474493" lon="114.12238708904442"><ele>6.0</ele><time>2026-04-15T09:16:11Z</time></trkpt><trkpt lat="-26.468954200385685" lon="114.12220528466212"><ele>5.0</ele><time>2026-04-15T09:16:12Z</time></trkpt><trkpt lat="-26.469190797035036" lon="114.1220145158656"><ele>5.0</ele><time>2026-04-15T09:16:13Z</time></trkpt><trkpt lat="-26.46942818460847" lon="114.12181349861935"><ele>5.0</ele><time>2026-04-15T09:16:14Z</time></trkpt><trkpt lat="-26.4696654245535" lon="114.12160996699991"><ele>6.0</ele><time>2026-04-15T09:16:15Z</time></trkpt><trkpt lat="-26.46989971099155" lon="114.12140089852741"><ele>7.0</ele><time>2026-04-15T09:16:16Z</time></trkpt><trkpt lat="-26.470126682589054" lon="114.12118516775632"><ele>7.0</ele><time>2026-04-15T09:16:17Z</time></trkpt><trkpt lat="-26.470347819426845" lon="114.12096328402824"><ele>7.0</ele><time>2026-04-15T09:16:18Z</time></trkpt><trkpt lat="-26.470562048859385" lon="114.12073638239507"><ele>6.5</ele><time>2026-04-15T09:16:19Z</time></trkpt><trkpt lat="-26.47077144717128" lon="114.12050333584413"><ele>6.0</ele><time>2026-04-15T09:16:20Z</time></trkpt><trkpt lat="-26.47099170762687" lon="114.12028708527139"><ele>6.0</ele><time>2026-04-15T09:16:21Z</time></trkpt><trkpt lat="-26.471198112468336" lon="114.12006196403388"><ele>6.0</ele><time>2026-04-15T09:16:22Z</time></trkpt><trkpt lat="-26.471355316136197" lon="114.11978325913388"><ele>6.5</ele><time>2026-04-15T09:16:23Z</time></trkpt><trkpt lat="-26.471536859487873" lon="114.11953258367076"><ele>7.0</ele><time>2026-04-15T09:16:24Z</time></trkpt><trkpt lat="-26.471712008855533" lon="114.11927907335911"><ele>6.0</ele><time>2026-04-15T09:16:25Z</time></trkpt><trkpt lat="-26.471882797453464" lon="114.11902349223574"><ele>5.0</ele><time>2026-04-15T09:16:26Z</time></trkpt><trkpt lat="-26.472046557999292" lon="114.11876320905182"><ele>5.0</ele><time>2026-04-15T09:16:27Z</time></trkpt><trkpt lat="-26.47220363572711" lon="114.11849988382686"><ele>5.0</ele><time>2026-04-15T09:16:28Z</time></trkpt><trkpt lat="-26.472354092336364" lon="114.11823262553965"><ele>5.0</ele><time>2026-04-15T09:16:29Z</time></trkpt><trkpt lat="-26.47249872607719" lon="114.1179627512748"><ele>5.0</ele><time>2026-04-15T09:16:30Z</time></trkpt><trkpt lat="-26.472637363531597" lon="114.11768571781963"><ele>5.0</ele><time>2026-04-15T09:16:31Z</time></trkpt><trkpt lat="-26.472769278073194" lon="114.11740625254959"><ele>5.0</ele><time>2026-04-15T09:16:32Z</time></trkpt><trkpt lat="-26.472894554853262" lon="114.11712723201062"><ele>6.5</ele><time>2026-04-15T09:16:33Z</time></trkpt><trkpt lat="-26.473009203217973" lon="114.11686368200058"><ele>8.0</ele><time>2026-04-15T09:16:34Z</time></trkpt><trkpt lat="-26.47311358972293" lon="114.11662008238146"><ele>6.0</ele><time>2026-04-15T09:16:35Z</time></trkpt><trkpt lat="-26.473210732845686" lon="114.11637397018924"><ele>4.0</ele><time>2026-04-15T09:16:36Z</time></trkpt><trkpt lat="-26.473306119515502" lon="114.11611562586714"><ele>4.0</ele><time>2026-04-15T09:16:37Z</time></trkpt><trkpt lat="-26.473395960614276" lon="114.11585106496591"><ele>4.0</ele><time>2026-04-15T09:16:38Z</time></trkpt><trkpt lat="-26.473488243420327" lon="114.11558368850457"><ele>6.0</ele><time>2026-04-15T09:16:39Z</time></trkpt><trkpt lat="-26.4735752476948" lon="114.11531649125271"><ele>8.0</ele><time>2026-04-15T09:16:40Z</time></trkpt><trkpt lat="-26.473661564216588" lon="114.1150488731258"><ele>8.0</ele><time>2026-04-15T09:16:41Z</time></trkpt><trkpt lat="-26.47375131374516" lon="114.11478231962373"><ele>8.0</ele><time>2026-04-15T09:16:42Z</time></trkpt><trkpt lat="-26.47384372432431" lon="114.11451821240142"><ele>7.5</ele><time>2026-04-15T09:16:43Z</time></trkpt><trkpt lat="-26.473936135499436" lon="114.1142532019703"><ele>7.0</ele><time>2026-04-15T09:16:44Z</time></trkpt><trkpt lat="-26.474032645336887" lon="114.1139888270074"><ele>7.0</ele><time>2026-04-15T09:16:45Z</time></trkpt><trkpt lat="-26.474130334709447" lon="114.11372363634207"><ele>7.0</ele><time>2026-04-15T09:16:46Z</time></trkpt><trkpt lat="-26.474225184511663" lon="114.11345921967109"><ele>7.5</ele><time>2026-04-15T09:16:47Z</time></trkpt><trkpt lat="-26.474320112453004" lon="114.1131964302032"><ele>8.0</ele><time>2026-04-15T09:16:48Z</time></trkpt><trkpt lat="-26.474416319998724" lon="114.1129315173319"><ele>8.0</ele><time>2026-04-15T09:16:49Z</time></trkpt><trkpt lat="-26.47451062038266" lon="114.1126671705987"><ele>8.0</ele><time>2026-04-15T09:16:50Z</time></trkpt><trkpt lat="-26.47459996450743" lon="114.11240926685605"><ele>9.5</ele><time>2026-04-15T09:16:51Z</time></trkpt><trkpt lat="-26.474686138371457" lon="114.11215534093954"><ele>11.0</ele><time>2026-04-15T09:16:52Z</time></trkpt><trkpt lat="-26.474763140995396" lon="114.1119108292025"><ele>11.0</ele><time>2026-04-15T09:16:53Z</time></trkpt><trkpt lat="-26.474839259394876" lon="114.11165889021602"><ele>11.0</ele><time>2026-04-15T09:16:54Z</time></trkpt><trkpt lat="-26.47492503356656" lon="114.11139929562472"><ele>8.5</ele><time>2026-04-15T09:16:55Z</time></trkpt><trkpt lat="-26.47501393948916" lon="114.1111380961358"><ele>6.0</ele><time>2026-04-15T09:16:56Z</time></trkpt><trkpt lat="-26.475102723111217" lon="114.11087181226684"><ele>6.0</ele><time>2026-04-15T09:16:57Z</time></trkpt><trkpt lat="-26.475192926698355" lon="114.1106068680002"><ele>6.0</ele><time>2026-04-15T09:16:58Z</time></trkpt><trkpt lat="-26.47528485353339" lon="114.11034275336506"><ele>6.0</ele><time>2026-04-15T09:16:59Z</time></trkpt><trkpt lat="-26.475377764265822" lon="114.11007612843072"><ele>6.0</ele><time>2026-04-15T09:17:00Z</time></trkpt><trkpt lat="-26.475473922254313" lon="114.10980593068741"><ele>6.0</ele><time>2026-04-15T09:17:01Z</time></trkpt><trkpt lat="-26.47556790822422" lon="114.10953426759473"><ele>6.0</ele><time>2026-04-15T09:17:02Z</time></trkpt><trkpt lat="-26.475661237595617" lon="114.10926337878055"><ele>6.5</ele><time>2026-04-15T09:17:03Z</time></trkpt><trkpt lat="-26.47575576576053" lon="114.10899230427142"><ele>7.0</ele><time>2026-04-15T09:17:04Z</time></trkpt><trkpt lat="-26.475849486371853" lon="114.10872410375978"><ele>7.0</ele><time>2026-04-15T09:17:05Z</time></trkpt><trkpt lat="-26.475942198742313" lon="114.1084536097442"><ele>7.0</ele><time>2026-04-15T09:17:06Z</time></trkpt><trkpt lat="-26.47603135188675" lon="114.10818236572581"><ele>6.0</ele><time>2026-04-15T09:17:07Z</time></trkpt><trkpt lat="-26.4761210512185" lon="114.10790802956754"><ele>5.0</ele><time>2026-04-15T09:17:08Z</time></trkpt><trkpt lat="-26.476214576235833" lon="114.10764138239763"><ele>8.0</ele><time>2026-04-15T09:17:09Z</time></trkpt><trkpt lat="-26.47630955829266" lon="114.1073730724039"><ele>11.0</ele><time>2026-04-15T09:17:10Z</time></trkpt><trkpt lat="-26.476400081028583" lon="114.10710377296097"><ele>11.0</ele><time>2026-04-15T09:17:11Z</time></trkpt><trkpt lat="-26.476490616581525" lon="114.10682779911338"><ele>11.0</ele><time>2026-04-15T09:17:12Z</time></trkpt><trkpt lat="-26.476586346586423" lon="114.1065510850833"><ele>10.0</ele><time>2026-04-15T09:17:13Z</time></trkpt><trkpt lat="-26.47668091109167" lon="114.10627302199866"><ele>9.0</ele><time>2026-04-15T09:17:14Z</time></trkpt><trkpt lat="-26.47677896700041" lon="114.10598335336168"><ele>10.0</ele><time>2026-04-15T09:17:15Z</time></trkpt><trkpt lat="-26.47687817155336" lon="114.10568819995686"><ele>11.0</ele><time>2026-04-15T09:17:16Z</time></trkpt><trkpt lat="-26.47697747366454" lon="114.10538861945595"><ele>11.0</ele><time>2026-04-15T09:17:17Z</time></trkpt><trkpt lat="-26.477080492140296" lon="114.10508803484805"><ele>11.0</ele><time>2026-04-15T09:17:18Z</time></trkpt><trkpt lat="-26.477185727831255" lon="114.10478933556668"><ele>10.0</ele><time>2026-04-15T09:17:19Z</time></trkpt><trkpt lat="-26.47729305062013" lon="114.10449209934416"><ele>9.0</ele><time>2026-04-15T09:17:20Z</time></trkpt><trkpt lat="-26.477400535436235" lon="114.10419149361341"><ele>9.0</ele><time>2026-04-15T09:17:21Z</time></trkpt><trkpt lat="-26.477503669683017" lon="114.10389279014288"><ele>9.0</ele><time>2026-04-15T09:17:22Z</time></trkpt><trkpt lat="-26.477605456686536" lon="114.10359467691423"><ele>9.0</ele><time>2026-04-15T09:17:23Z</time></trkpt><trkpt lat="-26.477703674144212" lon="114.10329283777077"><ele>9.0</ele><time>2026-04-15T09:17:24Z</time></trkpt><trkpt lat="-26.47780239910592" lon="114.10299211565278"><ele>9.0</ele><time>2026-04-15T09:17:25Z</time></trkpt><trkpt lat="-26.47790040518689" lon="114.1026967713945"><ele>9.0</ele><time>2026-04-15T09:17:26Z</time></trkpt><trkpt lat="-26.478003281470862" lon="114.10240221154483"><ele>9.0</ele><time>2026-04-15T09:17:27Z</time></trkpt><trkpt lat="-26.47810721194212" lon="114.10211106749077"><ele>9.0</ele><time>2026-04-15T09:17:28Z</time></trkpt><trkpt lat="-26.478208312067927" lon="114.10181990714702"><ele>8.5</ele><time>2026-04-15T09:17:29Z</time></trkpt><trkpt lat="-26.47830853575244" lon="114.10153121689686"><ele>8.0</ele><time>2026-04-15T09:17:30Z</time></trkpt><trkpt lat="-26.478405552945897" lon="114.10124253926783"><ele>8.0</ele><time>2026-04-15T09:17:31Z</time></trkpt><trkpt lat="-26.478500591316923" lon="114.10095357622366"><ele>8.0</ele><time>2026-04-15T09:17:32Z</time></trkpt><trkpt lat="-26.47859896045099" lon="114.1006622046528"><ele>7.5</ele><time>2026-04-15T09:17:33Z</time></trkpt><trkpt lat="-26.478699155152544" lon="114.10037205551941"><ele>7.0</ele><time>2026-04-15T09:17:34Z</time></trkpt><trkpt lat="-26.478800941467522" lon="114.10008092516054"><ele>6.5</ele><time>2026-04-15T09:17:35Z</time></trkpt><trkpt lat="-26.478901432183488" lon="114.0997887424134"><ele>6.0</ele><time>2026-04-15T09:17:36Z</time></trkpt><trkpt lat="-26.479001955174567" lon="114.09949736242758"><ele>6.0</ele><time>2026-04-15T09:17:37Z</time></trkpt><trkpt lat="-26.479101336948816" lon="114.09920636674676"><ele>6.0</ele><time>2026-04-15T09:17:38Z</time></trkpt><trkpt lat="-26.47920222475871" lon="114.09891387880437"><ele>6.5</ele><time>2026-04-15T09:17:39Z</time></trkpt><trkpt lat="-26.479302765226244" lon="114.09862126289418"><ele>7.0</ele><time>2026-04-15T09:17:40Z</time></trkpt><trkpt lat="-26.479400938865957" lon="114.09833283978236"><ele>7.5</ele><time>2026-04-15T09:17:41Z</time></trkpt><trkpt lat="-26.479501681928834" lon="114.09803980894912"><ele>8.0</ele><time>2026-04-15T09:17:42Z</time></trkpt><trkpt lat="-26.47959854607672" lon="114.0977495261596"><ele>8.0</ele><time>2026-04-15T09:17:43Z</time></trkpt><trkpt lat="-26.47969510555876" lon="114.09745887174408"><ele>8.0</ele><time>2026-04-15T09:17:44Z</time></trkpt><trkpt lat="-26.479794107916877" lon="114.09716704731446"><ele>7.5</ele><time>2026-04-15T09:17:45Z</time></trkpt><trkpt lat="-26.479890988400182" lon="114.09687770695311"><ele>7.0</ele><time>2026-04-15T09:17:46Z</time></trkpt><trkpt lat="-26.479989398096983" lon="114.09658799863568"><ele>7.5</ele><time>2026-04-15T09:17:47Z</time></trkpt><trkpt lat="-26.480089538310825" lon="114.09630102086741"><ele>8.0</ele><time>2026-04-15T09:17:48Z</time></trkpt><trkpt lat="-26.48019382471582" lon="114.09600883060827"><ele>11.0</ele><time>2026-04-15T09:17:49Z</time></trkpt><trkpt lat="-26.480298417853092" lon="114.09572167425259"><ele>14.0</ele><time>2026-04-15T09:17:50Z</time></trkpt><trkpt lat="-26.480407252028996" lon="114.09543936322225"><ele>12.0</ele><time>2026-04-15T09:17:51Z</time></trkpt><trkpt lat="-26.480521581287174" lon="114.09516075088786"><ele>10.0</ele><time>2026-04-15T09:17:52Z</time></trkpt><trkpt lat="-26.48063963772545" lon="114.09488627474434"><ele>10.0</ele><time>2026-04-15T09:17:53Z</time></trkpt><trkpt lat="-26.480757252100034" lon="114.09461856992348"><ele>10.0</ele><time>2026-04-15T09:17:54Z</time></trkpt><trkpt lat="-26.480877407263545" lon="114.09435290863563"><ele>10.0</ele><time>2026-04-15T09:17:55Z</time></trkpt><trkpt lat="-26.480999181004567" lon="114.09408864423074"><ele>10.0</ele><time>2026-04-15T09:17:56Z</time></trkpt><trkpt lat="-26.481124650774962" lon="114.09382636689085"><ele>8.0</ele><time>2026-04-15T09:17:57Z</time></trkpt><trkpt lat="-26.481252557693484" lon="114.09356730138067"><ele>6.0</ele><time>2026-04-15T09:17:58Z</time></trkpt><trkpt lat="-26.481380195309885" lon="114.0933066480526"><ele>5.0</ele><time>2026-04-15T09:17:59Z</time></trkpt><trkpt lat="-26.481506499623077" lon="114.09304663257018"><ele>4.0</ele><time>2026-04-15T09:18:00Z</time></trkpt><trkpt lat="-26.481634404706675" lon="114.09278381877427"><ele>4.0</ele><time>2026-04-15T09:18:01Z</time></trkpt><trkpt lat="-26.481760305650916" lon="114.0925182604154"><ele>4.0</ele><time>2026-04-15T09:18:02Z</time></trkpt><trkpt lat="-26.481887680324217" lon="114.0922497024091"><ele>4.5</ele><time>2026-04-15T09:18:03Z</time></trkpt><trkpt lat="-26.482011739617356" lon="114.09197994076152"><ele>5.0</ele><time>2026-04-15T09:18:04Z</time></trkpt><trkpt lat="-26.482135432047368" lon="114.0917088749541"><ele>5.0</ele><time>2026-04-15T09:18:05Z</time></trkpt><trkpt lat="-26.48226242532688" lon="114.09143880566187"><ele>5.0</ele><time>2026-04-15T09:18:06Z</time></trkpt><trkpt lat="-26.482392673640057" lon="114.09117029105714"><ele>5.0</ele><time>2026-04-15T09:18:07Z</time></trkpt><trkpt lat="-26.4825233166876" lon="114.09090679557913"><ele>5.0</ele><time>2026-04-15T09:18:08Z</time></trkpt><trkpt lat="-26.482653488281297" lon="114.09064466721853"><ele>4.5</ele><time>2026-04-15T09:18:09Z</time></trkpt><trkpt lat="-26.48277834239723" lon="114.0903825863118"><ele>4.0</ele><time>2026-04-15T09:18:10Z</time></trkpt><trkpt lat="-26.482897507580436" lon="114.09012372857072"><ele>5.5</ele><time>2026-04-15T09:18:11Z</time></trkpt><trkpt lat="-26.483017434333505" lon="114.08986474449607"><ele>7.0</ele><time>2026-04-15T09:18:12Z</time></trkpt><trkpt lat="-26.4831394121493" lon="114.0896095241341"><ele>7.0</ele><time>2026-04-15T09:18:13Z</time></trkpt><trkpt lat="-26.483260782894643" lon="114.0893532419172"><ele>7.0</ele><time>2026-04-15T09:18:14Z</time></trkpt><trkpt lat="-26.483380787218454" lon="114.0890959256661"><ele>6.0</ele><time>2026-04-15T09:18:15Z</time></trkpt><trkpt lat="-26.483500709231986" lon="114.08883865445343"><ele>5.0</ele><time>2026-04-15T09:18:16Z</time></trkpt><trkpt lat="-26.48362267371595" lon="114.08858196950086"><ele>5.0</ele><time>2026-04-15T09:18:17Z</time></trkpt><trkpt lat="-26.483745045221248" lon="114.08832454337865"><ele>5.0</ele><time>2026-04-15T09:18:18Z</time></trkpt><trkpt lat="-26.48386522885056" lon="114.08806349108886"><ele>5.0</ele><time>2026-04-15T09:18:19Z</time></trkpt><trkpt lat="-26.48398051549918" lon="114.08781719266086"><ele>5.0</ele><time>2026-04-15T09:18:20Z</time></trkpt><trkpt lat="-26.484085159195697" lon="114.08758431655487"><ele>5.5</ele><time>2026-04-15T09:18:21Z</time></trkpt><trkpt lat="-26.484187235895146" lon="114.08734928356829"><ele>6.0</ele><time>2026-04-15T09:18:22Z</time></trkpt><trkpt lat="-26.48428537410369" lon="114.0870983610349"><ele>6.0</ele><time>2026-04-15T09:18:23Z</time></trkpt><trkpt lat="-26.48437394343538" lon="114.0868324087"><ele>6.0</ele><time>2026-04-15T09:18:24Z</time></trkpt><trkpt lat="-26.484473423655206" lon="114.0865626254221"><ele>6.5</ele><time>2026-04-15T09:18:25Z</time></trkpt><trkpt lat="-26.48454029419264" lon="114.08628103065652"><ele>7.0</ele><time>2026-04-15T09:18:26Z</time></trkpt><trkpt lat="-26.48461995545959" lon="114.08600503515163"><ele>6.0</ele><time>2026-04-15T09:18:27Z</time></trkpt><trkpt lat="-26.484692837822518" lon="114.08572402821527"><ele>5.0</ele><time>2026-04-15T09:18:28Z</time></trkpt><trkpt lat="-26.484758183877467" lon="114.0854387554608"><ele>5.0</ele><time>2026-04-15T09:18:29Z</time></trkpt><trkpt lat="-26.48481137858422" lon="114.0851488672283"><ele>5.0</ele><time>2026-04-15T09:18:30Z</time></trkpt><trkpt lat="-26.484853980935345" lon="114.08485527765058"><ele>6.5</ele><time>2026-04-15T09:18:31Z</time></trkpt><trkpt lat="-26.4848916121517" lon="114.08456064989319"><ele>8.0</ele><time>2026-04-15T09:18:32Z</time></trkpt><trkpt lat="-26.48491833719254" lon="114.08426583243657"><ele>9.0</ele><time>2026-04-15T09:18:33Z</time></trkpt><trkpt lat="-26.484937886359337" lon="114.08396871383289"><ele>10.0</ele><time>2026-04-15T09:18:34Z</time></trkpt><trkpt lat="-26.484952859372488" lon="114.08367019975636"><ele>10.0</ele><time>2026-04-15T09:18:35Z</time></trkpt><trkpt lat="-26.484963238687005" lon="114.08337110948793"><ele>10.0</ele><time>2026-04-15T09:18:36Z</time></trkpt><trkpt lat="-26.48496242065142" lon="114.08307127942288"><ele>9.5</ele><time>2026-04-15T09:18:37Z</time></trkpt><trkpt lat="-26.484947172774365" lon="114.08277440736305"><ele>9.0</ele><time>2026-04-15T09:18:38Z</time></trkpt><trkpt lat="-26.4849185219206" lon="114.08248023196518"><ele>8.0</ele><time>2026-04-15T09:18:39Z</time></trkpt><trkpt lat="-26.48490586479416" lon="114.08218371390451"><ele>7.0</ele><time>2026-04-15T09:18:40Z</time></trkpt><trkpt lat="-26.48487644688055" lon="114.08188226068494"><ele>6.5</ele><time>2026-04-15T09:18:41Z</time></trkpt><trkpt lat="-26.48484674998177" lon="114.08158034680797"><ele>6.0</ele><time>2026-04-15T09:18:42Z</time></trkpt><trkpt lat="-26.48481520843964" lon="114.08128078898041"><ele>6.0</ele><time>2026-04-15T09:18:43Z</time></trkpt><trkpt lat="-26.484721306867517" lon="114.0809905662049"><ele>6.0</ele><time>2026-04-15T09:18:44Z</time></trkpt><trkpt lat="-26.484656217255147" lon="114.08069717133588"><ele>5.5</ele><time>2026-04-15T09:18:45Z</time></trkpt><trkpt lat="-26.484580477737065" lon="114.08040955454136"><ele>5.0</ele><time>2026-04-15T09:18:46Z</time></trkpt><trkpt lat="-26.484496418084394" lon="114.08012209317994"><ele>5.5</ele><time>2026-04-15T09:18:47Z</time></trkpt><trkpt lat="-26.484407949049253" lon="114.07983732284951"><ele>6.0</ele><time>2026-04-15T09:18:48Z</time></trkpt><trkpt lat="-26.484314830877832" lon="114.07955694581413"><ele>6.0</ele><time>2026-04-15T09:18:49Z</time></trkpt><trkpt lat="-26.484211647899105" lon="114.07928371296644"><ele>6.0</ele><time>2026-04-15T09:18:50Z</time></trkpt><trkpt lat="-26.484100443738296" lon="114.07901329969644"><ele>6.5</ele><time>2026-04-15T09:18:51Z</time></trkpt><trkpt lat="-26.48398023494359" lon="114.07874277457879"><ele>7.0</ele><time>2026-04-15T09:18:52Z</time></trkpt><trkpt lat="-26.483851869597565" lon="114.07847146043059"><ele>6.0</ele><time>2026-04-15T09:18:53Z</time></trkpt><trkpt lat="-26.483718229536" lon="114.07820099573006"><ele>5.0</ele><time>2026-04-15T09:18:54Z</time></trkpt><trkpt lat="-26.48357625733248" lon="114.0779333838669"><ele>5.0</ele><time>2026-04-15T09:18:55Z</time></trkpt><trkpt lat="-26.483422110821916" lon="114.0776729334947"><ele>5.0</ele><time>2026-04-15T09:18:56Z</time></trkpt><trkpt lat="-26.48325483254959" lon="114.07742158008588"><ele>6.5</ele><time>2026-04-15T09:18:57Z</time></trkpt><trkpt lat="-26.48308099208956" lon="114.07717693599703"><ele>8.0</ele><time>2026-04-15T09:18:58Z</time></trkpt><trkpt lat="-26.482904476687104" lon="114.07693353646124"><ele>7.5</ele><time>2026-04-15T09:18:59Z</time></trkpt><trkpt lat="-26.48272557975161" lon="114.07668986121267"><ele>7.0</ele><time>2026-04-15T09:19:00Z</time></trkpt><trkpt lat="-26.482540724638657" lon="114.07645304323655"><ele>7.0</ele><time>2026-04-15T09:19:01Z</time></trkpt><trkpt lat="-26.48234828405474" lon="114.07622451620794"><ele>7.0</ele><time>2026-04-15T09:19:02Z</time></trkpt><trkpt lat="-26.482147469280903" lon="114.07600809968174"><ele>7.0</ele><time>2026-04-15T09:19:03Z</time></trkpt><trkpt lat="-26.48193977132853" lon="114.07580021330125"><ele>7.0</ele><time>2026-04-15T09:19:04Z</time></trkpt><trkpt lat="-26.481724010334403" lon="114.07559537592526"><ele>6.5</ele><time>2026-04-15T09:19:05Z</time></trkpt><trkpt lat="-26.48150189601708" lon="114.07539603468042"><ele>6.0</ele><time>2026-04-15T09:19:06Z</time></trkpt><trkpt lat="-26.48127424126602" lon="114.07520392492671"><ele>6.0</ele><time>2026-04-15T09:19:07Z</time></trkpt><trkpt lat="-26.481038434645395" lon="114.07502071976528"><ele>6.0</ele><time>2026-04-15T09:19:08Z</time></trkpt><trkpt lat="-26.480798615747357" lon="114.07484320517074"><ele>6.0</ele><time>2026-04-15T09:19:09Z</time></trkpt><trkpt lat="-26.480554190805687" lon="114.07467117435142"><ele>6.0</ele><time>2026-04-15T09:19:10Z</time></trkpt><trkpt lat="-26.480306079549564" lon="114.07450763937798"><ele>7.0</ele><time>2026-04-15T09:19:11Z</time></trkpt><trkpt lat="-26.480054372270818" lon="114.07435375442687"><ele>8.0</ele><time>2026-04-15T09:19:12Z</time></trkpt><trkpt lat="-26.479797500778357" lon="114.07421066480828"><ele>7.5</ele><time>2026-04-15T09:19:13Z</time></trkpt><trkpt lat="-26.479532904076365" lon="114.0740787642209"><ele>7.0</ele><time>2026-04-15T09:19:14Z</time></trkpt><trkpt lat="-26.479263326474637" lon="114.07395919318867"><ele>7.0</ele><time>2026-04-15T09:19:15Z</time></trkpt><trkpt lat="-26.47899463840126" lon="114.07384497047171"><ele>7.0</ele><time>2026-04-15T09:19:16Z</time></trkpt><trkpt lat="-26.47872673288699" lon="114.07372759909643"><ele>8.5</ele><time>2026-04-15T09:19:17Z</time></trkpt><trkpt lat="-26.478461408352107" lon="114.07360559188388"><ele>10.0</ele><time>2026-04-15T09:19:18Z</time></trkpt><trkpt lat="-26.478201059386564" lon="114.07348178378713"><ele>10.0</ele><time>2026-04-15T09:19:19Z</time></trkpt><trkpt lat="-26.477940793149337" lon="114.07335891950031"><ele>10.0</ele><time>2026-04-15T09:19:20Z</time></trkpt><trkpt lat="-26.47767955113344" lon="114.07324363870671"><ele>9.5</ele><time>2026-04-15T09:19:21Z</time></trkpt><trkpt lat="-26.47741541935231" lon="114.07312875131073"><ele>9.0</ele><time>2026-04-15T09:19:22Z</time></trkpt><trkpt lat="-26.477149132685913" lon="114.0730142078303"><ele>8.0</ele><time>2026-04-15T09:19:23Z</time></trkpt><trkpt lat="-26.476882443125778" lon="114.07289720060699"><ele>7.0</ele><time>2026-04-15T09:19:24Z</time></trkpt><trkpt lat="-26.476619895418043" lon="114.07277998549688"><ele>7.0</ele><time>2026-04-15T09:19:25Z</time></trkpt><trkpt lat="-26.47635582880105" lon="114.07266075822584"><ele>7.0</ele><time>2026-04-15T09:19:26Z</time></trkpt><trkpt lat="-26.476090537687124" lon="114.07254031316724"><ele>8.0</ele><time>2026-04-15T09:19:27Z</time></trkpt><trkpt lat="-26.47582628817923" lon="114.07241850843192"><ele>9.0</ele><time>2026-04-15T09:19:28Z</time></trkpt><trkpt lat="-26.475560763418965" lon="114.07229818637632"><ele>10.0</ele><time>2026-04-15T09:19:29Z</time></trkpt><trkpt lat="-26.475296172929387" lon="114.07217826903137"><ele>11.0</ele><time>2026-04-15T09:19:30Z</time></trkpt><trkpt lat="-26.47502948192567" lon="114.07205897782565"><ele>11.0</ele><time>2026-04-15T09:19:31Z</time></trkpt><trkpt lat="-26.4747614120933" lon="114.07193968991724"><ele>11.0</ele><time>2026-04-15T09:19:32Z</time></trkpt><trkpt lat="-26.474490250192233" lon="114.07182011088378"><ele>10.5</ele><time>2026-04-15T09:19:33Z</time></trkpt><trkpt lat="-26.474218379396227" lon="114.0716982595015"><ele>10.0</ele><time>2026-04-15T09:19:34Z</time></trkpt><trkpt lat="-26.473949215514175" lon="114.07157814514963"><ele>10.5</ele><time>2026-04-15T09:19:35Z</time></trkpt><trkpt lat="-26.47368109320923" lon="114.0714576536967"><ele>11.0</ele><time>2026-04-15T09:19:36Z</time></trkpt><trkpt lat="-26.473413555681116" lon="114.07133573455326"><ele>11.0</ele><time>2026-04-15T09:19:37Z</time></trkpt><trkpt lat="-26.473146785362893" lon="114.07121302469163"><ele>11.0</ele><time>2026-04-15T09:19:38Z</time></trkpt><trkpt lat="-26.47288034187234" lon="114.07109406329639"><ele>10.5</ele><time>2026-04-15T09:19:39Z</time></trkpt><trkpt lat="-26.472613952624307" lon="114.07097524851112"><ele>10.0</ele><time>2026-04-15T09:19:40Z</time></trkpt><trkpt lat="-26.472348585063834" lon="114.07085605399475"><ele>8.5</ele><time>2026-04-15T09:19:41Z</time></trkpt><trkpt lat="-26.47208177727244" lon="114.07073346004292"><ele>7.0</ele><time>2026-04-15T09:19:42Z</time></trkpt><trkpt lat="-26.47181362357393" lon="114.07061183260487"><ele>7.0</ele><time>2026-04-15T09:19:43Z</time></trkpt><trkpt lat="-26.471545154387325" lon="114.0704907885229"><ele>7.0</ele><time>2026-04-15T09:19:44Z</time></trkpt><trkpt lat="-26.471273643708237" lon="114.07037163672138"><ele>8.0</ele><time>2026-04-15T09:19:45Z</time></trkpt><trkpt lat="-26.470995428505415" lon="114.07024873012521"><ele>9.0</ele><time>2026-04-15T09:19:46Z</time></trkpt><trkpt lat="-26.470717212049944" lon="114.07012501349345"><ele>8.5</ele><time>2026-04-15T09:19:47Z</time></trkpt><trkpt lat="-26.47043588174343" lon="114.0699966717818"><ele>8.0</ele><time>2026-04-15T09:19:48Z</time></trkpt><trkpt lat="-26.47015970824188" lon="114.0698679441495"><ele>9.5</ele><time>2026-04-15T09:19:49Z</time></trkpt><trkpt lat="-26.469881885614914" lon="114.06973958139987"><ele>11.0</ele><time>2026-04-15T09:19:50Z</time></trkpt><trkpt lat="-26.469602900818884" lon="114.06961504330513"><ele>11.0</ele><time>2026-04-15T09:19:51Z</time></trkpt><trkpt lat="-26.46932421020719" lon="114.06949331432291"><ele>11.0</ele><time>2026-04-15T09:19:52Z</time></trkpt><trkpt lat="-26.469045985670963" lon="114.06937027172863"><ele>11.5</ele><time>2026-04-15T09:19:53Z</time></trkpt><trkpt lat="-26.46876913910547" lon="114.06924442617336"><ele>12.0</ele><time>2026-04-15T09:19:54Z</time></trkpt><trkpt lat="-26.46849285854848" lon="114.06912048788118"><ele>14.0</ele><time>2026-04-15T09:19:55Z</time></trkpt><trkpt lat="-26.468215319566962" lon="114.06899286833021"><ele>16.0</ele><time>2026-04-15T09:19:56Z</time></trkpt><trkpt lat="-26.46793750376106" lon="114.0688673190747"><ele>16.5</ele><time>2026-04-15T09:19:57Z</time></trkpt><trkpt lat="-26.46765982308796" lon="114.06874359326382"><ele>17.0</ele><time>2026-04-15T09:19:58Z</time></trkpt><trkpt lat="-26.46738293849492" lon="114.06862075328266"><ele>13.5</ele><time>2026-04-15T09:19:59Z</time></trkpt><trkpt lat="-26.467107920190358" lon="114.06849455546647"><ele>10.0</ele><time>2026-04-15T09:20:00Z</time></trkpt><trkpt lat="-26.466832403066846" lon="114.06836745633869"><ele>14.0</ele><time>2026-04-15T09:20:01Z</time></trkpt><trkpt lat="-26.466557690045967" lon="114.06824346898468"><ele>18.0</ele><time>2026-04-15T09:20:02Z</time></trkpt><trkpt lat="-26.466283745945606" lon="114.06812363964939"><ele>16.5</ele><time>2026-04-15T09:20:03Z</time></trkpt><trkpt lat="-26.466010102232364" lon="114.06800554187768"><ele>15.0</ele><time>2026-04-15T09:20:04Z</time></trkpt><trkpt lat="-26.465737801845997" lon="114.0678857413524"><ele>15.0</ele><time>2026-04-15T09:20:05Z</time></trkpt><trkpt lat="-26.465462686201548" lon="114.06776553629129"><ele>15.0</ele><time>2026-04-15T09:20:06Z</time></trkpt><trkpt lat="-26.465189050280383" lon="114.06764304961582"><ele>13.5</ele><time>2026-04-15T09:20:07Z</time></trkpt><trkpt lat="-26.464917138379537" lon="114.06751664058605"><ele>12.0</ele><time>2026-04-15T09:20:08Z</time></trkpt><trkpt lat="-26.46464673006207" lon="114.06738974313335"><ele>14.0</ele><time>2026-04-15T09:20:09Z</time></trkpt><trkpt lat="-26.464374974714822" lon="114.06726169393315"><ele>16.0</ele><time>2026-04-15T09:20:10Z</time></trkpt><trkpt lat="-26.464106984820603" lon="114.06713366324887"><ele>16.0</ele><time>2026-04-15T09:20:11Z</time></trkpt><trkpt lat="-26.46384232367069" lon="114.06700175052882"><ele>16.0</ele><time>2026-04-15T09:20:12Z</time></trkpt><trkpt lat="-26.463581774323593" lon="114.06686779899323"><ele>16.0</ele><time>2026-04-15T09:20:13Z</time></trkpt><trkpt lat="-26.46332556651486" lon="114.06672889066446"><ele>16.0</ele><time>2026-04-15T09:20:14Z</time></trkpt><trkpt lat="-26.46307198983048" lon="114.06658326455465"><ele>14.0</ele><time>2026-04-15T09:20:15Z</time></trkpt><trkpt lat="-26.462817041182856" lon="114.06643252047382"><ele>12.0</ele><time>2026-04-15T09:20:16Z</time></trkpt><trkpt lat="-26.46255850757385" lon="114.06627787095866"><ele>12.0</ele><time>2026-04-15T09:20:17Z</time></trkpt><trkpt lat="-26.462300991864204" lon="114.06611978920877"><ele>12.0</ele><time>2026-04-15T09:20:18Z</time></trkpt><trkpt lat="-26.462048178133852" lon="114.06596057530014"><ele>12.0</ele><time>2026-04-15T09:20:19Z</time></trkpt><trkpt lat="-26.461797368729613" lon="114.06579868857871"><ele>12.0</ele><time>2026-04-15T09:20:20Z</time></trkpt><trkpt lat="-26.46154776523402" lon="114.0656396609184"><ele>12.0</ele><time>2026-04-15T09:20:21Z</time></trkpt><trkpt lat="-26.461295805867703" lon="114.0654824191197"><ele>12.0</ele><time>2026-04-15T09:20:22Z</time></trkpt><trkpt lat="-26.461045222783348" lon="114.0653250091011"><ele>11.5</ele><time>2026-04-15T09:20:23Z</time></trkpt><trkpt lat="-26.460794083625647" lon="114.06516824285758"><ele>11.0</ele><time>2026-04-15T09:20:24Z</time></trkpt><trkpt lat="-26.46054572775285" lon="114.06500720003541"><ele>11.5</ele><time>2026-04-15T09:20:25Z</time></trkpt><trkpt lat="-26.46030137434751" lon="114.06484464613263"><ele>12.0</ele><time>2026-04-15T09:20:26Z</time></trkpt><trkpt lat="-26.460056867661887" lon="114.06468670881041"><ele>12.0</ele><time>2026-04-15T09:20:27Z</time></trkpt><trkpt lat="-26.459812268316895" lon="114.06452591811312"><ele>12.0</ele><time>2026-04-15T09:20:28Z</time></trkpt><trkpt lat="-26.45956828178161" lon="114.06436522030378"><ele>12.5</ele><time>2026-04-15T09:20:29Z</time></trkpt><trkpt lat="-26.459321371866373" lon="114.06420686197538"><ele>13.0</ele><time>2026-04-15T09:20:30Z</time></trkpt><trkpt lat="-26.45907193258887" lon="114.06405533739459"><ele>13.0</ele><time>2026-04-15T09:20:31Z</time></trkpt><trkpt lat="-26.458829610629202" lon="114.06388213278706"><ele>13.0</ele><time>2026-04-15T09:20:32Z</time></trkpt><trkpt lat="-26.458568507181273" lon="114.06373545527306"><ele>12.0</ele><time>2026-04-15T09:20:33Z</time></trkpt><trkpt lat="-26.4583156970604" lon="114.06357032441296"><ele>11.0</ele><time>2026-04-15T09:20:34Z</time></trkpt><trkpt lat="-26.458059675564424" lon="114.06341116606826"><ele>13.0</ele><time>2026-04-15T09:20:35Z</time></trkpt><trkpt lat="-26.45780497246043" lon="114.06325526241199"><ele>15.0</ele><time>2026-04-15T09:20:36Z</time></trkpt><trkpt lat="-26.457549553827697" lon="114.0631067439039"><ele>15.0</ele><time>2026-04-15T09:20:37Z</time></trkpt><trkpt lat="-26.45729308427479" lon="114.06296883343266"><ele>15.0</ele><time>2026-04-15T09:20:38Z</time></trkpt><trkpt lat="-26.45703598729901" lon="114.06283713549057"><ele>12.0</ele><time>2026-04-15T09:20:39Z</time></trkpt><trkpt lat="-26.456775106414838" lon="114.06270984936161"><ele>9.0</ele><time>2026-04-15T09:20:40Z</time></trkpt><trkpt lat="-26.4565123035252" lon="114.06258654662842"><ele>7.5</ele><time>2026-04-15T09:20:41Z</time></trkpt><trkpt lat="-26.456243734146593" lon="114.06246342496411"><ele>6.0</ele><time>2026-04-15T09:20:42Z</time></trkpt><trkpt lat="-26.45597111891616" lon="114.06234034833768"><ele>8.0</ele><time>2026-04-15T09:20:43Z</time></trkpt><trkpt lat="-26.45569735399866" lon="114.06222021570875"><ele>10.0</ele><time>2026-04-15T09:20:44Z</time></trkpt><trkpt lat="-26.45542358473986" lon="114.06210659128166"><ele>10.0</ele><time>2026-04-15T09:20:45Z</time></trkpt><trkpt lat="-26.4551475635167" lon="114.06199960344516"><ele>10.0</ele><time>2026-04-15T09:20:46Z</time></trkpt><trkpt lat="-26.454870165040123" lon="114.06189562091853"><ele>9.5</ele><time>2026-04-15T09:20:47Z</time></trkpt><trkpt lat="-26.454591898261587" lon="114.06179305490855"><ele>9.0</ele><time>2026-04-15T09:20:48Z</time></trkpt><trkpt lat="-26.45431054334712" lon="114.06169404762497"><ele>10.0</ele><time>2026-04-15T09:20:49Z</time></trkpt><trkpt lat="-26.45403059466393" lon="114.06159946497516"><ele>11.0</ele><time>2026-04-15T09:20:50Z</time></trkpt><trkpt lat="-26.453748626416502" lon="114.06151183996063"><ele>11.0</ele><time>2026-04-15T09:20:51Z</time></trkpt><trkpt lat="-26.453465512058358" lon="114.0614320987382"><ele>11.0</ele><time>2026-04-15T09:20:52Z</time></trkpt><trkpt lat="-26.45318027259192" lon="114.06135952652924"><ele>11.5</ele><time>2026-04-15T09:20:53Z</time></trkpt><trkpt lat="-26.45289618574848" lon="114.06129381037096"><ele>12.0</ele><time>2026-04-15T09:20:54Z</time></trkpt><trkpt lat="-26.45261057889097" lon="114.06123261537242"><ele>12.0</ele><time>2026-04-15T09:20:55Z</time></trkpt><trkpt lat="-26.45232755105937" lon="114.06115449337412"><ele>12.0</ele><time>2026-04-15T09:20:56Z</time></trkpt><trkpt lat="-26.45204285319088" lon="114.06108873998136"><ele>10.5</ele><time>2026-04-15T09:20:57Z</time></trkpt><trkpt lat="-26.451748204615868" lon="114.06105719158947"><ele>9.0</ele><time>2026-04-15T09:20:58Z</time></trkpt><trkpt lat="-26.45145934880672" lon="114.06100381953864"><ele>9.5</ele><time>2026-04-15T09:20:59Z</time></trkpt><trkpt lat="-26.45117182275374" lon="114.06095847722005"><ele>10.0</ele><time>2026-04-15T09:21:00Z</time></trkpt><trkpt lat="-26.45088212604251" lon="114.0609201852208"><ele>10.0</ele><time>2026-04-15T09:21:01Z</time></trkpt><trkpt lat="-26.450593735012976" lon="114.06088768779975"><ele>10.0</ele><time>2026-04-15T09:21:02Z</time></trkpt><trkpt lat="-26.450303782460754" lon="114.0608597443035"><ele>9.5</ele><time>2026-04-15T09:21:03Z</time></trkpt><trkpt lat="-26.450015125907697" lon="114.06083523674258"><ele>9.0</ele><time>2026-04-15T09:21:04Z</time></trkpt><trkpt lat="-26.449727629247384" lon="114.06080794929198"><ele>11.5</ele><time>2026-04-15T09:21:05Z</time></trkpt><trkpt lat="-26.449441601172154" lon="114.06077601480851"><ele>14.0</ele><time>2026-04-15T09:21:06Z</time></trkpt><trkpt lat="-26.44915273606069" lon="114.06074365259278"><ele>14.0</ele><time>2026-04-15T09:21:07Z</time></trkpt><trkpt lat="-26.448861988977562" lon="114.06070926736949"><ele>14.0</ele><time>2026-04-15T09:21:08Z</time></trkpt><trkpt lat="-26.448569469791003" lon="114.06067606102765"><ele>16.0</ele><time>2026-04-15T09:21:09Z</time></trkpt><trkpt lat="-26.448276845117" lon="114.06064418488647"><ele>18.0</ele><time>2026-04-15T09:21:10Z</time></trkpt><trkpt lat="-26.447985713687135" lon="114.06061282859193"><ele>18.0</ele><time>2026-04-15T09:21:11Z</time></trkpt><trkpt lat="-26.44769290703731" lon="114.06057969816443"><ele>18.0</ele><time>2026-04-15T09:21:12Z</time></trkpt><trkpt lat="-26.447407010616722" lon="114.06054480916951"><ele>18.0</ele><time>2026-04-15T09:21:13Z</time></trkpt><trkpt lat="-26.44713319044086" lon="114.06051122662008"><ele>18.0</ele><time>2026-04-15T09:21:14Z</time></trkpt><trkpt lat="-26.446881582043062" lon="114.06048091266989"><ele>19.0</ele><time>2026-04-15T09:21:15Z</time></trkpt><trkpt lat="-26.44664689634589" lon="114.06045199828762"><ele>20.0</ele><time>2026-04-15T09:21:16Z</time></trkpt><trkpt lat="-26.446417541570238" lon="114.06042473722928"><ele>19.666666666666668</ele><time>2026-04-15T09:21:17Z</time></trkpt><trkpt lat="-26.446201513549763" lon="114.06040124382817"><ele>19.333333333333332</ele><time>2026-04-15T09:21:18Z</time></trkpt><trkpt lat="-26.445993022280284" lon="114.06037779234612"><ele>19.0</ele><time>2026-04-15T09:21:19Z</time></trkpt><trkpt lat="-26.445782504549264" lon="114.06035674357824"><ele>19.0</ele><time>2026-04-15T09:21:20Z</time></trkpt><trkpt lat="-26.445574067326977" lon="114.06033256756352"><ele>19.0</ele><time>2026-04-15T09:21:21Z</time></trkpt><trkpt lat="-26.44537232380507" lon="114.06030372687376"><ele>19.0</ele><time>2026-04-15T09:21:22Z</time></trkpt><trkpt lat="-26.445174420604143" lon="114.06026801842233"><ele>19.666666666666664</ele><time>2026-04-15T09:21:23Z</time></trkpt><trkpt lat="-26.444981124676953" lon="114.06022257455808"><ele>20.333333333333332</ele><time>2026-04-15T09:21:24Z</time></trkpt><trkpt lat="-26.444793017520983" lon="114.06017403946423"><ele>21.0</ele><time>2026-04-15T09:21:25Z</time></trkpt><trkpt lat="-26.44461271635356" lon="114.06012277345683"><ele>21.333333333333332</ele><time>2026-04-15T09:21:26Z</time></trkpt><trkpt lat="-26.444435614780616" lon="114.06007129063002"><ele>21.666666666666664</ele><time>2026-04-15T09:21:27Z</time></trkpt><trkpt lat="-26.44425367652488" lon="114.06001128407402"><ele>22.0</ele><time>2026-04-15T09:21:28Z</time></trkpt><trkpt lat="-26.444070201913522" lon="114.05994743276366"><ele>25.0</ele><time>2026-04-15T09:21:29Z</time></trkpt><trkpt lat="-26.44389359219481" lon="114.05988323645005"><ele>28.0</ele><time>2026-04-15T09:21:30Z</time></trkpt><trkpt lat="-26.443719903933918" lon="114.05981691928456"><ele>31.0</ele><time>2026-04-15T09:21:31Z</time></trkpt><trkpt lat="-26.44354741348858" lon="114.05974628212425"><ele>31.0</ele><time>2026-04-15T09:21:32Z</time></trkpt><trkpt lat="-26.44338117502365" lon="114.059671400178"><ele>31.0</ele><time>2026-04-15T09:21:33Z</time></trkpt><trkpt lat="-26.443215879258116" lon="114.05959074322773"><ele>31.0</ele><time>2026-04-15T09:21:34Z</time></trkpt><trkpt lat="-26.443054150598957" lon="114.05950588064388"><ele>29.666666666666668</ele><time>2026-04-15T09:21:35Z</time></trkpt><trkpt lat="-26.44289807159575" lon="114.05942455537998"><ele>28.333333333333336</ele><time>2026-04-15T09:21:36Z</time></trkpt><trkpt lat="-26.442742720246574" lon="114.05934410275773"><ele>27.0</ele><time>2026-04-15T09:21:37Z</time></trkpt><trkpt lat="-26.44258927040343" lon="114.05925854393054"><ele>27.0</ele><time>2026-04-15T09:21:38Z</time></trkpt><trkpt lat="-26.44243807733759" lon="114.05916564832393"><ele>27.0</ele><time>2026-04-15T09:21:39Z</time></trkpt><trkpt lat="-26.44229101640103" lon="114.05906840648626"><ele>27.0</ele><time>2026-04-15T09:21:40Z</time></trkpt><trkpt lat="-26.442153646517724" lon="114.05897076310345"><ele>28.0</ele><time>2026-04-15T09:21:41Z</time></trkpt><trkpt lat="-26.44201952756588" lon="114.05887839497063"><ele>29.0</ele><time>2026-04-15T09:21:42Z</time></trkpt><trkpt lat="-26.44187742960003" lon="114.05877784536925"><ele>30.0</ele><time>2026-04-15T09:21:43Z</time></trkpt><trkpt lat="-26.441727524281397" lon="114.05866625059373"><ele>30.0</ele><time>2026-04-15T09:21:44Z</time></trkpt><trkpt lat="-26.441567148837333" lon="114.05854197776466"><ele>30.0</ele><time>2026-04-15T09:21:45Z</time></trkpt><trkpt lat="-26.441404220548925" lon="114.05841088580866"><ele>30.0</ele><time>2026-04-15T09:21:46Z</time></trkpt><trkpt lat="-26.44124534163329" lon="114.05827871639944"><ele>31.0</ele><time>2026-04-15T09:21:47Z</time></trkpt><trkpt lat="-26.44109330822822" lon="114.05814405614811"><ele>32.0</ele><time>2026-04-15T09:21:48Z</time></trkpt><trkpt lat="-26.440939377444405" lon="114.05800177285529"><ele>33.0</ele><time>2026-04-15T09:21:49Z</time></trkpt><trkpt lat="-26.44078686160154" lon="114.05785160278855"><ele>33.0</ele><time>2026-04-15T09:21:50Z</time></trkpt><trkpt lat="-26.440632314403594" lon="114.0576888323512"><ele>33.0</ele><time>2026-04-15T09:21:51Z</time></trkpt><trkpt lat="-26.440471320377085" lon="114.05751406286106"><ele>33.0</ele><time>2026-04-15T09:21:52Z</time></trkpt><trkpt lat="-26.44029482271919" lon="114.05732790483455"><ele>32.0</ele><time>2026-04-15T09:21:53Z</time></trkpt><trkpt lat="-26.440108608752" lon="114.05713531824141"><ele>31.0</ele><time>2026-04-15T09:21:54Z</time></trkpt><trkpt lat="-26.439926603344862" lon="114.05692560982983"><ele>31.0</ele><time>2026-04-15T09:21:55Z</time></trkpt><trkpt lat="-26.43975526041576" lon="114.05669577303917"><ele>31.0</ele><time>2026-04-15T09:21:56Z</time></trkpt><trkpt lat="-26.439590527294584" lon="114.05645484154937"><ele>31.0</ele><time>2026-04-15T09:21:57Z</time></trkpt><trkpt lat="-26.439431454163703" lon="114.05621188897899"><ele>31.0</ele><time>2026-04-15T09:21:58Z</time></trkpt><trkpt lat="-26.439275134495198" lon="114.05597241135027"><ele>32.0</ele><time>2026-04-15T09:21:59Z</time></trkpt><trkpt lat="-26.439110724048994" lon="114.05573721149385"><ele>33.0</ele><time>2026-04-15T09:22:00Z</time></trkpt><trkpt lat="-26.438940319343143" lon="114.05550666872686"><ele>33.5</ele><time>2026-04-15T09:22:01Z</time></trkpt><trkpt lat="-26.438765456780384" lon="114.05527435434107"><ele>34.0</ele><time>2026-04-15T09:22:02Z</time></trkpt><trkpt lat="-26.43859105315836" lon="114.05503998771832"><ele>34.0</ele><time>2026-04-15T09:22:03Z</time></trkpt><trkpt lat="-26.438416773805418" lon="114.05480493204021"><ele>34.0</ele><time>2026-04-15T09:22:04Z</time></trkpt><trkpt lat="-26.438243738911943" lon="114.0545674225837"><ele>34.0</ele><time>2026-04-15T09:22:05Z</time></trkpt><trkpt lat="-26.438068998110367" lon="114.05432977494816"><ele>34.0</ele><time>2026-04-15T09:22:06Z</time></trkpt><trkpt lat="-26.437892778377066" lon="114.05409149916912"><ele>33.5</ele><time>2026-04-15T09:22:07Z</time></trkpt><trkpt lat="-26.437718942898787" lon="114.05385381539324"><ele>33.0</ele><time>2026-04-15T09:22:08Z</time></trkpt><trkpt lat="-26.437549627182218" lon="114.05362716755982"><ele>33.0</ele><time>2026-04-15T09:22:09Z</time></trkpt><trkpt lat="-26.437379289879438" lon="114.0534040138639"><ele>33.0</ele><time>2026-04-15T09:22:10Z</time></trkpt><trkpt lat="-26.437210530403092" lon="114.05317744456934"><ele>34.5</ele><time>2026-04-15T09:22:11Z</time></trkpt><trkpt lat="-26.437041600525752" lon="114.0529497380697"><ele>36.0</ele><time>2026-04-15T09:22:12Z</time></trkpt><trkpt lat="-26.43687147724271" lon="114.05272267161266"><ele>36.0</ele><time>2026-04-15T09:22:13Z</time></trkpt><trkpt lat="-26.436698699779807" lon="114.05249925572463"><ele>36.0</ele><time>2026-04-15T09:22:14.001Z</time></trkpt><trkpt lat="-26.436523892102805" lon="114.05227708361309"><ele>35.5</ele><time>2026-04-15T09:22:15.001Z</time></trkpt><trkpt lat="-26.436345338680418" lon="114.05205624865542"><ele>35.0</ele><time>2026-04-15T09:22:16.001Z</time></trkpt><trkpt lat="-26.43615952574352" lon="114.05183493394068"><ele>37.0</ele><time>2026-04-15T09:22:17.001Z</time></trkpt><trkpt lat="-26.435971273393726" lon="114.05161815774078"><ele>39.0</ele><time>2026-04-15T09:22:18.001Z</time></trkpt><trkpt lat="-26.435776181474466" lon="114.05140427123547"><ele>39.0</ele><time>2026-04-15T09:22:19.001Z</time></trkpt><trkpt lat="-26.43557922987979" lon="114.05119192657203"><ele>39.0</ele><time>2026-04-15T09:22:20.001Z</time></trkpt><trkpt lat="-26.43538105751391" lon="114.05098070460866"><ele>39.5</ele><time>2026-04-15T09:22:21.001Z</time></trkpt><trkpt lat="-26.43518338779948" lon="114.05077277915984"><ele>40.0</ele><time>2026-04-15T09:22:22.001Z</time></trkpt><trkpt lat="-26.434980911376275" lon="114.05056876954968"><ele>40.0</ele><time>2026-04-15T09:22:23.001Z</time></trkpt><trkpt lat="-26.43477590778876" lon="114.05036878012906"><ele>40.0</ele><time>2026-04-15T09:22:24.001Z</time></trkpt><trkpt lat="-26.434566507230056" lon="114.05016797760334"><ele>41.0</ele><time>2026-04-15T09:22:25.001Z</time></trkpt><trkpt lat="-26.434353372407465" lon="114.04997246466216"><ele>42.0</ele><time>2026-04-15T09:22:26.001Z</time></trkpt><trkpt lat="-26.43413256747608" lon="114.04978287996038"><ele>43.0</ele><time>2026-04-15T09:22:27.001Z</time></trkpt><trkpt lat="-26.43390786694027" lon="114.04959752033098"><ele>44.0</ele><time>2026-04-15T09:22:28.001Z</time></trkpt><trkpt lat="-26.433680384928536" lon="114.04941300087162"><ele>44.0</ele><time>2026-04-15T09:22:29Z</time></trkpt><trkpt lat="-26.433451985838072" lon="114.04923002668917"><ele>44.0</ele><time>2026-04-15T09:22:30Z</time></trkpt><trkpt lat="-26.433216658107117" lon="114.04904833730693"><ele>45.0</ele><time>2026-04-15T09:22:31Z</time></trkpt><trkpt lat="-26.43297656360323" lon="114.04886628216822"><ele>46.0</ele><time>2026-04-15T09:22:32Z</time></trkpt><trkpt lat="-26.432737380702594" lon="114.0486902667092"><ele>42.5</ele><time>2026-04-15T09:22:33Z</time></trkpt><trkpt lat="-26.43249344516444" lon="114.04851717244102"><ele>39.0</ele><time>2026-04-15T09:22:34Z</time></trkpt><trkpt lat="-26.43224532290553" lon="114.04834676245272"><ele>39.0</ele><time>2026-04-15T09:22:35Z</time></trkpt><trkpt lat="-26.431991935570128" lon="114.04818291623161"><ele>39.0</ele><time>2026-04-15T09:22:36Z</time></trkpt><trkpt lat="-26.43173382144747" lon="114.04802513998459"><ele>39.0</ele><time>2026-04-15T09:22:37Z</time></trkpt><trkpt lat="-26.431470146001175" lon="114.04787145186185"><ele>39.0</ele><time>2026-04-15T09:22:38Z</time></trkpt><trkpt lat="-26.431202911212303" lon="114.04771877687547"><ele>39.0</ele><time>2026-04-15T09:22:39Z</time></trkpt><trkpt lat="-26.430934709700054" lon="114.04757096154549"><ele>39.0</ele><time>2026-04-15T09:22:40Z</time></trkpt><trkpt lat="-26.430663538155542" lon="114.04742627092382"><ele>39.0</ele><time>2026-04-15T09:22:41Z</time></trkpt><trkpt lat="-26.430388996187972" lon="114.04728334101625"><ele>39.0</ele><time>2026-04-15T09:22:42Z</time></trkpt><trkpt lat="-26.430112820966" lon="114.04714707556393"><ele>39.0</ele><time>2026-04-15T09:22:43Z</time></trkpt><trkpt lat="-26.429833554111745" lon="114.04701438890447"><ele>39.0</ele><time>2026-04-15T09:22:44Z</time></trkpt><trkpt lat="-26.42955101831187" lon="114.0468857828527"><ele>37.5</ele><time>2026-04-15T09:22:45Z</time></trkpt><trkpt lat="-26.429266654045275" lon="114.0467640972898"><ele>36.0</ele><time>2026-04-15T09:22:46Z</time></trkpt><trkpt lat="-26.428978594665953" lon="114.0466507987303"><ele>35.0</ele><time>2026-04-15T09:22:47Z</time></trkpt><trkpt lat="-26.428690250102193" lon="114.04654221513593"><ele>34.0</ele><time>2026-04-15T09:22:48Z</time></trkpt><trkpt lat="-26.428400154889157" lon="114.04643929882081"><ele>34.0</ele><time>2026-04-15T09:22:49Z</time></trkpt><trkpt lat="-26.428111218136312" lon="114.04633807108696"><ele>34.0</ele><time>2026-04-15T09:22:50Z</time></trkpt><trkpt lat="-26.427823325566663" lon="114.04623311499876"><ele>32.5</ele><time>2026-04-15T09:22:51Z</time></trkpt><trkpt lat="-26.42753552217902" lon="114.04612878737183"><ele>31.0</ele><time>2026-04-15T09:22:52Z</time></trkpt><trkpt lat="-26.42724639118561" lon="114.04602269346393"><ele>30.0</ele><time>2026-04-15T09:22:53Z</time></trkpt><trkpt lat="-26.42695748578812" lon="114.04591414275474"><ele>29.0</ele><time>2026-04-15T09:22:54Z</time></trkpt><trkpt lat="-26.426668815934935" lon="114.04580486002318"><ele>29.5</ele><time>2026-04-15T09:22:55Z</time></trkpt><trkpt lat="-26.426382420264666" lon="114.04569741933388"><ele>30.0</ele><time>2026-04-15T09:22:56Z</time></trkpt><trkpt lat="-26.426094764495485" lon="114.04559376461397"><ele>31.0</ele><time>2026-04-15T09:22:57Z</time></trkpt><trkpt lat="-26.425806343703965" lon="114.04548973500093"><ele>32.0</ele><time>2026-04-15T09:22:58Z</time></trkpt><trkpt lat="-26.425519189042557" lon="114.04538414313141"><ele>31.0</ele><time>2026-04-15T09:22:59Z</time></trkpt><trkpt lat="-26.42523026945247" lon="114.0452772005077"><ele>30.0</ele><time>2026-04-15T09:23:00Z</time></trkpt><trkpt lat="-26.42494070803988" lon="114.04517241728497"><ele>30.0</ele><time>2026-04-15T09:23:01Z</time></trkpt><trkpt lat="-26.42465015782752" lon="114.04506815145002"><ele>30.0</ele><time>2026-04-15T09:23:02Z</time></trkpt><trkpt lat="-26.42435768609615" lon="114.04496082869747"><ele>30.5</ele><time>2026-04-15T09:23:03Z</time></trkpt><trkpt lat="-26.424068481368103" lon="114.04485156546812"><ele>31.0</ele><time>2026-04-15T09:23:04Z</time></trkpt><trkpt lat="-26.42378017988134" lon="114.04474430986272"><ele>29.0</ele><time>2026-04-15T09:23:05Z</time></trkpt><trkpt lat="-26.42349105261835" lon="114.04463864761993"><ele>27.0</ele><time>2026-04-15T09:23:06Z</time></trkpt><trkpt lat="-26.423203515026437" lon="114.04453179213233"><ele>25.5</ele><time>2026-04-15T09:23:07Z</time></trkpt><trkpt lat="-26.42291158744832" lon="114.04442260010116"><ele>24.0</ele><time>2026-04-15T09:23:08Z</time></trkpt><trkpt lat="-26.422620136337166" lon="114.04431526849001"><ele>24.0</ele><time>2026-04-15T09:23:09Z</time></trkpt><trkpt lat="-26.422330449441255" lon="114.04421133261188"><ele>24.0</ele><time>2026-04-15T09:23:10Z</time></trkpt><trkpt lat="-26.42204109054428" lon="114.04410714400709"><ele>27.0</ele><time>2026-04-15T09:23:11Z</time></trkpt><trkpt lat="-26.421751375183913" lon="114.04400210002197"><ele>30.0</ele><time>2026-04-15T09:23:12Z</time></trkpt><trkpt lat="-26.42146275911567" lon="114.04389486983703"><ele>28.0</ele><time>2026-04-15T09:23:13Z</time></trkpt><trkpt lat="-26.42117453403643" lon="114.04378450882645"><ele>26.0</ele><time>2026-04-15T09:23:14Z</time></trkpt><trkpt lat="-26.420887094586867" lon="114.04366818021936"><ele>26.0</ele><time>2026-04-15T09:23:15Z</time></trkpt><trkpt lat="-26.420602449738517" lon="114.04355803774598"><ele>26.0</ele><time>2026-04-15T09:23:16Z</time></trkpt><trkpt lat="-26.42031807053868" lon="114.0434538633297"><ele>24.5</ele><time>2026-04-15T09:23:17Z</time></trkpt><trkpt lat="-26.420035695216338" lon="114.04334953013812"><ele>23.0</ele><time>2026-04-15T09:23:18Z</time></trkpt><trkpt lat="-26.419753244367467" lon="114.04324457686425"><ele>24.0</ele><time>2026-04-15T09:23:19Z</time></trkpt><trkpt lat="-26.419472859720152" lon="114.04314176721908"><ele>25.0</ele><time>2026-04-15T09:23:20Z</time></trkpt><trkpt lat="-26.419190133203404" lon="114.04303884452369"><ele>25.0</ele><time>2026-04-15T09:23:21Z</time></trkpt><trkpt lat="-26.41890955007588" lon="114.04293830915162"><ele>25.0</ele><time>2026-04-15T09:23:22Z</time></trkpt><trkpt lat="-26.418628643427528" lon="114.04283474053773"><ele>23.5</ele><time>2026-04-15T09:23:23Z</time></trkpt><trkpt lat="-26.41834942734183" lon="114.04272928598637"><ele>22.0</ele><time>2026-04-15T09:23:24Z</time></trkpt><trkpt lat="-26.41807012432961" lon="114.0426257439634"><ele>20.5</ele><time>2026-04-15T09:23:25Z</time></trkpt><trkpt lat="-26.41779205119832" lon="114.04252482463946"><ele>19.0</ele><time>2026-04-15T09:23:26Z</time></trkpt><trkpt lat="-26.417515963518326" lon="114.04242584889599"><ele>22.5</ele><time>2026-04-15T09:23:27Z</time></trkpt><trkpt lat="-26.41724028376254" lon="114.04232666367095"><ele>26.0</ele><time>2026-04-15T09:23:28Z</time></trkpt><trkpt lat="-26.416962094526465" lon="114.04222519084752"><ele>26.0</ele><time>2026-04-15T09:23:29Z</time></trkpt><trkpt lat="-26.416688636747775" lon="114.04212292442759"><ele>26.0</ele><time>2026-04-15T09:23:30Z</time></trkpt><trkpt lat="-26.416413100139724" lon="114.04202218756011"><ele>25.5</ele><time>2026-04-15T09:23:31Z</time></trkpt><trkpt lat="-26.41613694077392" lon="114.04191972113539"><ele>25.0</ele><time>2026-04-15T09:23:32Z</time></trkpt><trkpt lat="-26.415861488939093" lon="114.04181704258012"><ele>25.0</ele><time>2026-04-15T09:23:33Z</time></trkpt><trkpt lat="-26.415582312361842" lon="114.04171350003298"><ele>25.0</ele><time>2026-04-15T09:23:34Z</time></trkpt><trkpt lat="-26.415297892301005" lon="114.04160889565658"><ele>27.0</ele><time>2026-04-15T09:23:35Z</time></trkpt><trkpt lat="-26.415011157834506" lon="114.04150318985523"><ele>29.0</ele><time>2026-04-15T09:23:36Z</time></trkpt><trkpt lat="-26.414725410745845" lon="114.04139909359243"><ele>26.0</ele><time>2026-04-15T09:23:37Z</time></trkpt><trkpt lat="-26.414440956000735" lon="114.0412932546578"><ele>23.0</ele><time>2026-04-15T09:23:38Z</time></trkpt><trkpt lat="-26.41415929886663" lon="114.04118562204255"><ele>23.0</ele><time>2026-04-15T09:23:39Z</time></trkpt><trkpt lat="-26.413876403619824" lon="114.04108130824115"><ele>23.0</ele><time>2026-04-15T09:23:40Z</time></trkpt><trkpt lat="-26.413593270809564" lon="114.04097831997399"><ele>21.5</ele><time>2026-04-15T09:23:41Z</time></trkpt><trkpt lat="-26.413314187975043" lon="114.04087370401929"><ele>20.0</ele><time>2026-04-15T09:23:42Z</time></trkpt><trkpt lat="-26.413034035820203" lon="114.04077005413822"><ele>18.0</ele><time>2026-04-15T09:23:43Z</time></trkpt><trkpt lat="-26.41275670134909" lon="114.04067044500614"><ele>16.0</ele><time>2026-04-15T09:23:44Z</time></trkpt><trkpt lat="-26.412481317981687" lon="114.04056899049264"><ele>16.0</ele><time>2026-04-15T09:23:45Z</time></trkpt><trkpt lat="-26.412207319651785" lon="114.04046162552936"><ele>16.0</ele><time>2026-04-15T09:23:46Z</time></trkpt><trkpt lat="-26.411936744097563" lon="114.04033988764735"><ele>15.5</ele><time>2026-04-15T09:23:47Z</time></trkpt><trkpt lat="-26.41167078797307" lon="114.04020442517675"><ele>15.0</ele><time>2026-04-15T09:23:48Z</time></trkpt><trkpt lat="-26.4114082109528" lon="114.04006221035553"><ele>16.5</ele><time>2026-04-15T09:23:49Z</time></trkpt><trkpt lat="-26.41114883280848" lon="114.039915916317"><ele>18.0</ele><time>2026-04-15T09:23:50Z</time></trkpt><trkpt lat="-26.410890711308127" lon="114.03976345987469"><ele>18.0</ele><time>2026-04-15T09:23:51Z</time></trkpt><trkpt lat="-26.410633424681205" lon="114.03960667950265"><ele>18.0</ele><time>2026-04-15T09:23:52Z</time></trkpt><trkpt lat="-26.410378745399303" lon="114.03944272784922"><ele>18.5</ele><time>2026-04-15T09:23:53Z</time></trkpt><trkpt lat="-26.41012588281758" lon="114.03927282009843"><ele>19.0</ele><time>2026-04-15T09:23:54Z</time></trkpt><trkpt lat="-26.409876396597756" lon="114.03909633821215"><ele>17.5</ele><time>2026-04-15T09:23:55Z</time></trkpt><trkpt lat="-26.409625099336825" lon="114.03891504684901"><ele>16.0</ele><time>2026-04-15T09:23:56Z</time></trkpt><trkpt lat="-26.40937873407837" lon="114.03872703432486"><ele>16.0</ele><time>2026-04-15T09:23:57Z</time></trkpt><trkpt lat="-26.409136261893295" lon="114.03852819721261"><ele>16.0</ele><time>2026-04-15T09:23:58Z</time></trkpt><trkpt lat="-26.408902526848447" lon="114.03832282650163"><ele>14.5</ele><time>2026-04-15T09:23:59Z</time></trkpt><trkpt lat="-26.408672972634907" lon="114.03811053355697"><ele>13.0</ele><time>2026-04-15T09:24:00Z</time></trkpt><trkpt lat="-26.408449090435685" lon="114.03789488861173"><ele>13.0</ele><time>2026-04-15T09:24:01Z</time></trkpt><trkpt lat="-26.40822160368967" lon="114.03766926309471"><ele>13.0</ele><time>2026-04-15T09:24:02Z</time></trkpt><trkpt lat="-26.40798623816716" lon="114.03743242760636"><ele>10.5</ele><time>2026-04-15T09:24:03Z</time></trkpt><trkpt lat="-26.40775015623947" lon="114.03719009396634"><ele>8.0</ele><time>2026-04-15T09:24:04Z</time></trkpt><trkpt lat="-26.40752453414959" lon="114.03694598760917"><ele>8.0</ele><time>2026-04-15T09:24:05Z</time></trkpt><trkpt lat="-26.407312683258514" lon="114.03669486297159"><ele>8.0</ele><time>2026-04-15T09:24:06Z</time></trkpt><trkpt lat="-26.407110083391096" lon="114.03644296497698"><ele>8.5</ele><time>2026-04-15T09:24:07Z</time></trkpt><trkpt lat="-26.406916643115014" lon="114.03619331187676"><ele>9.0</ele><time>2026-04-15T09:24:08Z</time></trkpt><trkpt lat="-26.40673402862241" lon="114.03594424962763"><ele>10.0</ele><time>2026-04-15T09:24:09Z</time></trkpt><trkpt lat="-26.406555060887886" lon="114.03569154695428"><ele>11.0</ele><time>2026-04-15T09:24:10Z</time></trkpt><trkpt lat="-26.40638188189434" lon="114.03543381249271"><ele>13.5</ele><time>2026-04-15T09:24:11Z</time></trkpt><trkpt lat="-26.406214641051996" lon="114.03517146581285"><ele>16.0</ele><time>2026-04-15T09:24:12Z</time></trkpt><trkpt lat="-26.406049366048055" lon="114.03490769729288"><ele>16.0</ele><time>2026-04-15T09:24:13Z</time></trkpt><trkpt lat="-26.40588755857629" lon="114.03463985316672"><ele>16.0</ele><time>2026-04-15T09:24:14Z</time></trkpt><trkpt lat="-26.40573305982127" lon="114.03436859064216"><ele>17.5</ele><time>2026-04-15T09:24:15Z</time></trkpt><trkpt lat="-26.40557862326116" lon="114.03409490856586"><ele>19.0</ele><time>2026-04-15T09:24:16Z</time></trkpt><trkpt lat="-26.405426286080797" lon="114.03381809292958"><ele>19.0</ele><time>2026-04-15T09:24:17Z</time></trkpt><trkpt lat="-26.405272797419574" lon="114.03354130443724"><ele>19.0</ele><time>2026-04-15T09:24:18Z</time></trkpt><trkpt lat="-26.405115357148542" lon="114.0332668774647"><ele>20.5</ele><time>2026-04-15T09:24:19Z</time></trkpt><trkpt lat="-26.40495889142056" lon="114.03299568193412"><ele>22.0</ele><time>2026-04-15T09:24:20.001Z</time></trkpt><trkpt lat="-26.40480033892718" lon="114.03272346754618"><ele>25.0</ele><time>2026-04-15T09:24:21.001Z</time></trkpt><trkpt lat="-26.404641980207955" lon="114.03245212212339"><ele>28.0</ele><time>2026-04-15T09:24:22.001Z</time></trkpt><trkpt lat="-26.404486993056178" lon="114.03217642377433"><ele>28.0</ele><time>2026-04-15T09:24:23.001Z</time></trkpt><trkpt lat="-26.40433208738795" lon="114.0318988151378"><ele>28.0</ele><time>2026-04-15T09:24:24.001Z</time></trkpt><trkpt lat="-26.40417922663575" lon="114.03162401844818"><ele>29.0</ele><time>2026-04-15T09:24:25Z</time></trkpt><trkpt lat="-26.40402760230437" lon="114.03134615236458"><ele>30.0</ele><time>2026-04-15T09:24:26Z</time></trkpt><trkpt lat="-26.403873727147495" lon="114.0310677763062"><ele>30.5</ele><time>2026-04-15T09:24:27Z</time></trkpt><trkpt lat="-26.403715276425476" lon="114.03078955487862"><ele>31.0</ele><time>2026-04-15T09:24:28Z</time></trkpt><trkpt lat="-26.403556958907586" lon="114.03051363798754"><ele>31.0</ele><time>2026-04-15T09:24:29Z</time></trkpt><trkpt lat="-26.40340042219243" lon="114.03023864951663"><ele>31.0</ele><time>2026-04-15T09:24:30Z</time></trkpt><trkpt lat="-26.40324439059986" lon="114.0299665411261"><ele>33.0</ele><time>2026-04-15T09:24:31Z</time></trkpt><trkpt lat="-26.40308841687173" lon="114.02969741154254"><ele>35.0</ele><time>2026-04-15T09:24:32Z</time></trkpt><trkpt lat="-26.402935811938864" lon="114.02942911559879"><ele>35.0</ele><time>2026-04-15T09:24:33Z</time></trkpt><trkpt lat="-26.402787923506484" lon="114.02916155931983"><ele>35.0</ele><time>2026-04-15T09:24:34Z</time></trkpt><trkpt lat="-26.40264130855758" lon="114.02889758865417"><ele>38.0</ele><time>2026-04-15T09:24:35Z</time></trkpt><trkpt lat="-26.402495794844423" lon="114.02863308002505"><ele>41.0</ele><time>2026-04-15T09:24:36Z</time></trkpt><trkpt lat="-26.40234747377583" lon="114.02837083863247"><ele>42.5</ele><time>2026-04-15T09:24:37Z</time></trkpt><trkpt lat="-26.402196763760152" lon="114.02810973011627"><ele>44.0</ele><time>2026-04-15T09:24:38Z</time></trkpt><trkpt lat="-26.40204510708438" lon="114.02784771429178"><ele>41.0</ele><time>2026-04-15T09:24:39Z</time></trkpt><trkpt lat="-26.40189247208256" lon="114.0275824597096"><ele>38.0</ele><time>2026-04-15T09:24:40Z</time></trkpt><trkpt lat="-26.401743251997132" lon="114.02731515084052"><ele>37.5</ele><time>2026-04-15T09:24:41Z</time></trkpt><trkpt lat="-26.401594000740488" lon="114.02704818623472"><ele>37.0</ele><time>2026-04-15T09:24:42Z</time></trkpt><trkpt lat="-26.401442138689315" lon="114.02678088906806"><ele>33.5</ele><time>2026-04-15T09:24:43Z</time></trkpt><trkpt lat="-26.40128865306791" lon="114.02651542769576"><ele>30.0</ele><time>2026-04-15T09:24:44Z</time></trkpt><trkpt lat="-26.401132556425594" lon="114.02625221089876"><ele>30.0</ele><time>2026-04-15T09:24:45Z</time></trkpt><trkpt lat="-26.400993438781324" lon="114.02597385969793"><ele>30.0</ele><time>2026-04-15T09:24:46Z</time></trkpt><trkpt lat="-26.400840094594965" lon="114.02570606962045"><ele>33.0</ele><time>2026-04-15T09:24:47Z</time></trkpt><trkpt lat="-26.400669625568092" lon="114.02544633801989"><ele>36.0</ele><time>2026-04-15T09:24:48Z</time></trkpt><trkpt lat="-26.40051655733931" lon="114.0251739042585"><ele>35.0</ele><time>2026-04-15T09:24:49Z</time></trkpt><trkpt lat="-26.4003593794717" lon="114.0249031089341"><ele>34.0</ele><time>2026-04-15T09:24:50Z</time></trkpt><trkpt lat="-26.400197116280395" lon="114.02464009271095"><ele>34.0</ele><time>2026-04-15T09:24:51Z</time></trkpt><trkpt lat="-26.400027114935703" lon="114.02438422887724"><ele>34.0</ele><time>2026-04-15T09:24:52Z</time></trkpt><trkpt lat="-26.39985226335052" lon="114.02413565436271"><ele>33.0</ele><time>2026-04-15T09:24:53Z</time></trkpt><trkpt lat="-26.39967130403875" lon="114.02389108419635"><ele>32.0</ele><time>2026-04-15T09:24:54Z</time></trkpt><trkpt lat="-26.39948682099927" lon="114.02364761200005"><ele>32.0</ele><time>2026-04-15T09:24:55Z</time></trkpt><trkpt lat="-26.3993023630876" lon="114.02340219229013"><ele>32.0</ele><time>2026-04-15T09:24:56Z</time></trkpt><trkpt lat="-26.399116263075076" lon="114.02315940795226"><ele>33.0</ele><time>2026-04-15T09:24:57Z</time></trkpt><trkpt lat="-26.398928470623822" lon="114.02291712940234"><ele>34.0</ele><time>2026-04-15T09:24:58Z</time></trkpt><trkpt lat="-26.398739939465376" lon="114.02267457598981"><ele>36.5</ele><time>2026-04-15T09:24:59Z</time></trkpt><trkpt lat="-26.398549491362648" lon="114.0224291021893"><ele>39.0</ele><time>2026-04-15T09:25:00Z</time></trkpt><trkpt lat="-26.398360223289075" lon="114.02218375239275"><ele>39.0</ele><time>2026-04-15T09:25:01Z</time></trkpt><trkpt lat="-26.39816856364218" lon="114.02193740722248"><ele>39.0</ele><time>2026-04-15T09:25:02Z</time></trkpt><trkpt lat="-26.397976737230632" lon="114.02169571852365"><ele>39.0</ele><time>2026-04-15T09:25:03Z</time></trkpt><trkpt lat="-26.397783893619817" lon="114.02145052160179"><ele>39.0</ele><time>2026-04-15T09:25:04Z</time></trkpt><trkpt lat="-26.39759427854593" lon="114.02120776450114"><ele>39.0</ele><time>2026-04-15T09:25:05Z</time></trkpt><trkpt lat="-26.39740199804435" lon="114.02096202420287"><ele>39.0</ele><time>2026-04-15T09:25:06Z</time></trkpt><trkpt lat="-26.39720916950933" lon="114.0207184673784"><ele>40.0</ele><time>2026-04-15T09:25:07Z</time></trkpt><trkpt lat="-26.39701349702876" lon="114.02047259596463"><ele>41.0</ele><time>2026-04-15T09:25:08Z</time></trkpt><trkpt lat="-26.39681713961324" lon="114.02022578084375"><ele>39.5</ele><time>2026-04-15T09:25:09Z</time></trkpt><trkpt lat="-26.39662186972891" lon="114.01997953702916"><ele>38.0</ele><time>2026-04-15T09:25:10Z</time></trkpt><trkpt lat="-26.39642664456171" lon="114.01973573629087"><ele>39.0</ele><time>2026-04-15T09:25:11Z</time></trkpt><trkpt lat="-26.396232526443764" lon="114.01949278531062"><ele>40.0</ele><time>2026-04-15T09:25:12Z</time></trkpt><trkpt lat="-26.39603889301561" lon="114.01924663815856"><ele>40.0</ele><time>2026-04-15T09:25:13Z</time></trkpt><trkpt lat="-26.39584579004914" lon="114.01900082084653"><ele>40.0</ele><time>2026-04-15T09:25:14Z</time></trkpt><trkpt lat="-26.395651539658374" lon="114.01875125873485"><ele>41.5</ele><time>2026-04-15T09:25:15Z</time></trkpt><trkpt lat="-26.395459510043978" lon="114.0184997753807"><ele>43.0</ele><time>2026-04-15T09:25:16Z</time></trkpt><trkpt lat="-26.395264171630725" lon="114.01824865147893"><ele>43.0</ele><time>2026-04-15T09:25:17Z</time></trkpt><trkpt lat="-26.395065645626023" lon="114.01799789365222"><ele>43.0</ele><time>2026-04-15T09:25:18Z</time></trkpt><trkpt lat="-26.394868104355318" lon="114.01774632881899"><ele>43.5</ele><time>2026-04-15T09:25:19Z</time></trkpt><trkpt lat="-26.39466929136178" lon="114.0174972458471"><ele>44.0</ele><time>2026-04-15T09:25:20Z</time></trkpt><trkpt lat="-26.39447044723176" lon="114.0172497651139"><ele>44.0</ele><time>2026-04-15T09:25:21Z</time></trkpt><trkpt lat="-26.394272243317772" lon="114.01700464822994"><ele>44.0</ele><time>2026-04-15T09:25:22Z</time></trkpt><trkpt lat="-26.394075431772837" lon="114.0167557989656"><ele>45.0</ele><time>2026-04-15T09:25:23Z</time></trkpt><trkpt lat="-26.393880486418155" lon="114.01650887794041"><ele>46.0</ele><time>2026-04-15T09:25:24Z</time></trkpt><trkpt lat="-26.393684167118447" lon="114.01626345428048"><ele>44.5</ele><time>2026-04-15T09:25:25Z</time></trkpt><trkpt lat="-26.39348572861754" lon="114.01601969110246"><ele>43.0</ele><time>2026-04-15T09:25:26Z</time></trkpt><trkpt lat="-26.39328732641931" lon="114.01577578056919"><ele>43.0</ele><time>2026-04-15T09:25:27Z</time></trkpt><trkpt lat="-26.393089638292803" lon="114.01552825624634"><ele>43.0</ele><time>2026-04-15T09:25:28Z</time></trkpt><trkpt lat="-26.3928927544246" lon="114.01527852847984"><ele>41.5</ele><time>2026-04-15T09:25:29Z</time></trkpt><trkpt lat="-26.392695980646202" lon="114.01502795179728"><ele>40.0</ele><time>2026-04-15T09:25:30Z</time></trkpt><trkpt lat="-26.392499133036594" lon="114.01477585640446"><ele>40.0</ele><time>2026-04-15T09:25:31Z</time></trkpt><trkpt lat="-26.392303721854017" lon="114.0145235662644"><ele>40.0</ele><time>2026-04-15T09:25:32Z</time></trkpt><trkpt lat="-26.392109324907846" lon="114.01427475234341"><ele>41.0</ele><time>2026-04-15T09:25:33Z</time></trkpt><trkpt lat="-26.391915735789507" lon="114.01402873464431"><ele>42.0</ele><time>2026-04-15T09:25:34Z</time></trkpt><trkpt lat="-26.39172272921919" lon="114.01378357780668"><ele>42.0</ele><time>2026-04-15T09:25:35Z</time></trkpt><trkpt lat="-26.391527858401975" lon="114.01353731402837"><ele>42.0</ele><time>2026-04-15T09:25:36Z</time></trkpt><trkpt lat="-26.391333722937027" lon="114.01329296709714"><ele>42.0</ele><time>2026-04-15T09:25:37Z</time></trkpt><trkpt lat="-26.39114090807281" lon="114.01304941744974"><ele>42.0</ele><time>2026-04-15T09:25:38Z</time></trkpt><trkpt lat="-26.390947248761975" lon="114.01280682461224"><ele>42.0</ele><time>2026-04-15T09:25:39Z</time></trkpt><trkpt lat="-26.390755385750925" lon="114.01256082921114"><ele>42.0</ele><time>2026-04-15T09:25:40Z</time></trkpt><trkpt lat="-26.390562081058523" lon="114.01231327815313"><ele>43.0</ele><time>2026-04-15T09:25:41Z</time></trkpt><trkpt lat="-26.39036793384667" lon="114.01206432129919"><ele>44.0</ele><time>2026-04-15T09:25:42Z</time></trkpt><trkpt lat="-26.39017290401957" lon="114.01181778790989"><ele>43.5</ele><time>2026-04-15T09:25:43Z</time></trkpt><trkpt lat="-26.38997775061884" lon="114.01157071585794"><ele>43.0</ele><time>2026-04-15T09:25:44Z</time></trkpt><trkpt lat="-26.38978448791909" lon="114.01132873543426"><ele>44.0</ele><time>2026-04-15T09:25:45Z</time></trkpt><trkpt lat="-26.389601224709104" lon="114.01109867600516"><ele>45.0</ele><time>2026-04-15T09:25:46Z</time></trkpt><trkpt lat="-26.389431426977566" lon="114.01088244381312"><ele>45.0</ele><time>2026-04-15T09:25:47Z</time></trkpt><trkpt lat="-26.38925846673008" lon="114.01066005579176"><ele>45.0</ele><time>2026-04-15T09:25:48Z</time></trkpt><trkpt lat="-26.38908063268017" lon="114.0104301309808"><ele>45.0</ele><time>2026-04-15T09:25:49Z</time></trkpt><trkpt lat="-26.38889736843618" lon="114.01019508952479"><ele>45.0</ele><time>2026-04-15T09:25:50Z</time></trkpt><trkpt lat="-26.38871026727286" lon="114.00995978824552"><ele>46.0</ele><time>2026-04-15T09:25:51Z</time></trkpt><trkpt lat="-26.388521754426954" lon="114.00972288681825"><ele>47.0</ele><time>2026-04-15T09:25:52Z</time></trkpt><trkpt lat="-26.38833119540969" lon="114.00948606721447"><ele>47.0</ele><time>2026-04-15T09:25:53Z</time></trkpt><trkpt lat="-26.38814263981221" lon="114.00924760723603"><ele>47.0</ele><time>2026-04-15T09:25:54Z</time></trkpt><trkpt lat="-26.387954274733612" lon="114.00900589774587"><ele>48.0</ele><time>2026-04-15T09:25:55Z</time></trkpt><trkpt lat="-26.38776373430224" lon="114.00876099238074"><ele>49.0</ele><time>2026-04-15T09:25:56Z</time></trkpt><trkpt lat="-26.38757233029797" lon="114.0085153186432"><ele>50.5</ele><time>2026-04-15T09:25:57Z</time></trkpt><trkpt lat="-26.387378568563356" lon="114.0082696732779"><ele>52.0</ele><time>2026-04-15T09:25:58Z</time></trkpt><trkpt lat="-26.387181309244927" lon="114.00802091592013"><ele>51.0</ele><time>2026-04-15T09:25:59Z</time></trkpt><trkpt lat="-26.386984429421815" lon="114.00777565594746"><ele>50.0</ele><time>2026-04-15T09:26:00Z</time></trkpt><trkpt lat="-26.386785695634376" lon="114.00753200007496"><ele>50.0</ele><time>2026-04-15T09:26:01Z</time></trkpt><trkpt lat="-26.38658635652159" lon="114.00728728540524"><ele>50.0</ele><time>2026-04-15T09:26:02Z</time></trkpt><trkpt lat="-26.38638853390375" lon="114.00704197959445"><ele>48.0</ele><time>2026-04-15T09:26:03Z</time></trkpt><trkpt lat="-26.386190342533" lon="114.0067960304714"><ele>46.0</ele><time>2026-04-15T09:26:04Z</time></trkpt><trkpt lat="-26.385994607531966" lon="114.00654952664199"><ele>44.5</ele><time>2026-04-15T09:26:05Z</time></trkpt><trkpt lat="-26.38579871581962" lon="114.00630121226675"><ele>43.0</ele><time>2026-04-15T09:26:06Z</time></trkpt><trkpt lat="-26.385603386450395" lon="114.00605394525503"><ele>41.5</ele><time>2026-04-15T09:26:07Z</time></trkpt><trkpt lat="-26.385407374847485" lon="114.005804388675"><ele>40.0</ele><time>2026-04-15T09:26:08Z</time></trkpt><trkpt lat="-26.38521380315565" lon="114.00555114473151"><ele>40.0</ele><time>2026-04-15T09:26:09Z</time></trkpt><trkpt lat="-26.385017660201328" lon="114.00529433957844"><ele>40.0</ele><time>2026-04-15T09:26:10Z</time></trkpt><trkpt lat="-26.384818392292487" lon="114.0050438722212"><ele>41.0</ele><time>2026-04-15T09:26:11Z</time></trkpt><trkpt lat="-26.384621084602298" lon="114.00479601807224"><ele>42.0</ele><time>2026-04-15T09:26:12Z</time></trkpt><trkpt lat="-26.384423821497656" lon="114.0045469898486"><ele>42.0</ele><time>2026-04-15T09:26:13Z</time></trkpt><trkpt lat="-26.384226417101736" lon="114.00429352125771"><ele>42.0</ele><time>2026-04-15T09:26:14Z</time></trkpt><trkpt lat="-26.38402818338349" lon="114.00404271828161"><ele>41.0</ele><time>2026-04-15T09:26:15Z</time></trkpt><trkpt lat="-26.383830530628888" lon="114.00379443538074"><ele>40.0</ele><time>2026-04-15T09:26:16Z</time></trkpt><trkpt lat="-26.383633106313717" lon="114.00354978205661"><ele>40.0</ele><time>2026-04-15T09:26:17Z</time></trkpt><trkpt lat="-26.383435514351017" lon="114.00330623137242"><ele>40.0</ele><time>2026-04-15T09:26:18Z</time></trkpt><trkpt lat="-26.383239851371506" lon="114.00306331300453"><ele>40.0</ele><time>2026-04-15T09:26:19Z</time></trkpt><trkpt lat="-26.38304608186664" lon="114.00281711015926"><ele>40.0</ele><time>2026-04-15T09:26:20Z</time></trkpt><trkpt lat="-26.38285478591861" lon="114.00257210864137"><ele>41.5</ele><time>2026-04-15T09:26:21Z</time></trkpt><trkpt lat="-26.382663729221807" lon="114.00232898163374"><ele>43.0</ele><time>2026-04-15T09:26:22Z</time></trkpt><trkpt lat="-26.382476809726324" lon="114.00209029396366"><ele>43.0</ele><time>2026-04-15T09:26:23Z</time></trkpt><trkpt lat="-26.382289562750696" lon="114.00185176995468"><ele>43.0</ele><time>2026-04-15T09:26:24Z</time></trkpt><trkpt lat="-26.382100742303372" lon="114.0016158533253"><ele>42.0</ele><time>2026-04-15T09:26:25Z</time></trkpt><trkpt lat="-26.381911703234948" lon="114.0013799730686"><ele>41.0</ele><time>2026-04-15T09:26:26Z</time></trkpt><trkpt lat="-26.381723073582265" lon="114.00114240262398"><ele>41.0</ele><time>2026-04-15T09:26:27Z</time></trkpt><trkpt lat="-26.381534012308393" lon="114.00090098054743"><ele>41.0</ele><time>2026-04-15T09:26:28Z</time></trkpt><trkpt lat="-26.381344141096612" lon="114.00065965635896"><ele>41.0</ele><time>2026-04-15T09:26:29Z</time></trkpt><trkpt lat="-26.381154124168578" lon="114.0004213958845"><ele>41.0</ele><time>2026-04-15T09:26:30Z</time></trkpt><trkpt lat="-26.380965645586443" lon="114.00018564167476"><ele>41.0</ele><time>2026-04-15T09:26:31Z</time></trkpt><trkpt lat="-26.38077222239277" lon="113.99994891313035"><ele>41.0</ele><time>2026-04-15T09:26:32Z</time></trkpt><trkpt lat="-26.38057900998786" lon="113.99971108587967"><ele>41.0</ele><time>2026-04-15T09:26:33Z</time></trkpt><trkpt lat="-26.38038710421058" lon="113.99947283921477"><ele>41.0</ele><time>2026-04-15T09:26:34Z</time></trkpt><trkpt lat="-26.380195589148055" lon="113.9992301076603"><ele>40.0</ele><time>2026-04-15T09:26:35Z</time></trkpt><trkpt lat="-26.38000557860191" lon="113.9989823914272"><ele>39.0</ele><time>2026-04-15T09:26:36Z</time></trkpt><trkpt lat="-26.379815869958346" lon="113.9987378910611"><ele>40.0</ele><time>2026-04-15T09:26:37Z</time></trkpt><trkpt lat="-26.379625638954273" lon="113.99849415071263"><ele>41.0</ele><time>2026-04-15T09:26:38Z</time></trkpt><trkpt lat="-26.379438419401612" lon="113.99825288703863"><ele>39.0</ele><time>2026-04-15T09:26:39Z</time></trkpt><trkpt lat="-26.379250326112405" lon="113.99801153219126"><ele>37.0</ele><time>2026-04-15T09:26:40Z</time></trkpt><trkpt lat="-26.379059690848045" lon="113.99777237702885"><ele>37.0</ele><time>2026-04-15T09:26:41Z</time></trkpt><trkpt lat="-26.37886825994534" lon="113.99753266321021"><ele>37.0</ele><time>2026-04-15T09:26:42Z</time></trkpt><trkpt lat="-26.378675311761143" lon="113.99729427253743"><ele>34.5</ele><time>2026-04-15T09:26:43Z</time></trkpt><trkpt lat="-26.37848561014658" lon="113.9970560933541"><ele>32.0</ele><time>2026-04-15T09:26:44Z</time></trkpt><trkpt lat="-26.378295494324895" lon="113.99681557142615"><ele>31.5</ele><time>2026-04-15T09:26:45Z</time></trkpt><trkpt lat="-26.378104544022666" lon="113.99657717552256"><ele>31.0</ele><time>2026-04-15T09:26:46Z</time></trkpt><trkpt lat="-26.37791393140897" lon="113.9963388962918"><ele>33.5</ele><time>2026-04-15T09:26:47Z</time></trkpt><trkpt lat="-26.37772492257945" lon="113.99610043419777"><ele>36.0</ele><time>2026-04-15T09:26:48Z</time></trkpt><trkpt lat="-26.377538759460826" lon="113.99586471166188"><ele>34.0</ele><time>2026-04-15T09:26:49Z</time></trkpt><trkpt lat="-26.377353423622917" lon="113.99562953089405"><ele>32.0</ele><time>2026-04-15T09:26:50Z</time></trkpt><trkpt lat="-26.377168881377653" lon="113.99539136344546"><ele>31.5</ele><time>2026-04-15T09:26:51Z</time></trkpt><trkpt lat="-26.37698432790955" lon="113.99515506173366"><ele>31.0</ele><time>2026-04-15T09:26:52Z</time></trkpt><trkpt lat="-26.37679922413932" lon="113.99492067823024"><ele>29.0</ele><time>2026-04-15T09:26:53Z</time></trkpt><trkpt lat="-26.37661216834939" lon="113.99468713189069"><ele>27.0</ele><time>2026-04-15T09:26:54Z</time></trkpt><trkpt lat="-26.376424926074822" lon="113.99445186123673"><ele>28.0</ele><time>2026-04-15T09:26:55Z</time></trkpt><trkpt lat="-26.3762371897724" lon="113.99421420218778"><ele>29.0</ele><time>2026-04-15T09:26:56Z</time></trkpt><trkpt lat="-26.376047949507466" lon="113.99397652804377"><ele>29.0</ele><time>2026-04-15T09:26:57Z</time></trkpt><trkpt lat="-26.375861833043977" lon="113.99373889625252"><ele>29.0</ele><time>2026-04-15T09:26:58Z</time></trkpt><trkpt lat="-26.375678706909717" lon="113.99350369843127"><ele>31.5</ele><time>2026-04-15T09:26:59Z</time></trkpt><trkpt lat="-26.37549409833016" lon="113.99327000959225"><ele>34.0</ele><time>2026-04-15T09:27:00Z</time></trkpt><trkpt lat="-26.375306680869713" lon="113.99303761476881"><ele>34.0</ele><time>2026-04-15T09:27:01Z</time></trkpt><trkpt lat="-26.375119076198057" lon="113.99280544379803"><ele>34.0</ele><time>2026-04-15T09:27:02Z</time></trkpt><trkpt lat="-26.374932221503478" lon="113.99256863468608"><ele>33.0</ele><time>2026-04-15T09:27:03Z</time></trkpt><trkpt lat="-26.374742184929065" lon="113.99232854456092"><ele>32.0</ele><time>2026-04-15T09:27:04Z</time></trkpt><trkpt lat="-26.374549508664177" lon="113.99208597679197"><ele>32.5</ele><time>2026-04-15T09:27:05Z</time></trkpt><trkpt lat="-26.374355631142276" lon="113.99184211237878"><ele>33.0</ele><time>2026-04-15T09:27:06Z</time></trkpt><trkpt lat="-26.374162324865665" lon="113.99159621145682"><ele>33.0</ele><time>2026-04-15T09:27:07Z</time></trkpt><trkpt lat="-26.373966653145136" lon="113.99134991515793"><ele>33.0</ele><time>2026-04-15T09:27:08Z</time></trkpt><trkpt lat="-26.37377153504059" lon="113.99110440289742"><ele>32.5</ele><time>2026-04-15T09:27:09Z</time></trkpt><trkpt lat="-26.373573313414308" lon="113.99086242573053"><ele>32.0</ele><time>2026-04-15T09:27:10Z</time></trkpt><trkpt lat="-26.37337588105309" lon="113.99061777429284"><ele>31.0</ele><time>2026-04-15T09:27:11Z</time></trkpt><trkpt lat="-26.373179959414184" lon="113.99036886238508"><ele>30.0</ele><time>2026-04-15T09:27:12Z</time></trkpt><trkpt lat="-26.372983934731618" lon="113.99011986979467"><ele>30.5</ele><time>2026-04-15T09:27:13Z</time></trkpt><trkpt lat="-26.37278654235782" lon="113.98987034713724"><ele>31.0</ele><time>2026-04-15T09:27:14Z</time></trkpt><trkpt lat="-26.37258911321038" lon="113.98962119793585"><ele>31.0</ele><time>2026-04-15T09:27:15Z</time></trkpt><trkpt lat="-26.372392678069037" lon="113.98937116161508"><ele>31.0</ele><time>2026-04-15T09:27:16Z</time></trkpt><trkpt lat="-26.372194329616992" lon="113.98912169121569"><ele>31.5</ele><time>2026-04-15T09:27:17Z</time></trkpt><trkpt lat="-26.371998838604213" lon="113.98887022188778"><ele>32.0</ele><time>2026-04-15T09:27:18Z</time></trkpt><trkpt lat="-26.37180545296199" lon="113.9886175882457"><ele>32.0</ele><time>2026-04-15T09:27:19Z</time></trkpt><trkpt lat="-26.37161149314435" lon="113.98836675087544"><ele>32.0</ele><time>2026-04-15T09:27:20Z</time></trkpt><trkpt lat="-26.371416913526474" lon="113.98811913544033"><ele>32.5</ele><time>2026-04-15T09:27:21Z</time></trkpt><trkpt lat="-26.371220916362436" lon="113.98787367119242"><ele>33.0</ele><time>2026-04-15T09:27:22Z</time></trkpt><trkpt lat="-26.37102505498856" lon="113.9876320502336"><ele>32.0</ele><time>2026-04-15T09:27:23Z</time></trkpt><trkpt lat="-26.370828938802653" lon="113.98739126113749"><ele>31.0</ele><time>2026-04-15T09:27:24Z</time></trkpt><trkpt lat="-26.370634706681674" lon="113.98714523791959"><ele>33.0</ele><time>2026-04-15T09:27:25Z</time></trkpt><trkpt lat="-26.37044333406631" lon="113.98689699611363"><ele>35.0</ele><time>2026-04-15T09:27:26Z</time></trkpt><trkpt lat="-26.37024865338929" lon="113.98664983695537"><ele>35.0</ele><time>2026-04-15T09:27:27Z</time></trkpt><trkpt lat="-26.370053285259015" lon="113.9864038928044"><ele>35.0</ele><time>2026-04-15T09:27:28Z</time></trkpt><trkpt lat="-26.369859219842542" lon="113.98615782604004"><ele>38.0</ele><time>2026-04-15T09:27:29Z</time></trkpt><trkpt lat="-26.369666476002866" lon="113.98591085530354"><ele>41.0</ele><time>2026-04-15T09:27:30Z</time></trkpt><trkpt lat="-26.369473037732778" lon="113.98566643867314"><ele>41.5</ele><time>2026-04-15T09:27:31Z</time></trkpt><trkpt lat="-26.369277454026015" lon="113.98542187308304"><ele>42.0</ele><time>2026-04-15T09:27:32Z</time></trkpt><trkpt lat="-26.36908069063795" lon="113.98517576093404"><ele>43.0</ele><time>2026-04-15T09:27:33Z</time></trkpt><trkpt lat="-26.36888478152164" lon="113.98492843120843"><ele>44.0</ele><time>2026-04-15T09:27:34Z</time></trkpt><trkpt lat="-26.36868750164357" lon="113.98468098135076"><ele>44.0</ele><time>2026-04-15T09:27:35Z</time></trkpt><trkpt lat="-26.36848979502066" lon="113.98443409543279"><ele>44.0</ele><time>2026-04-15T09:27:36Z</time></trkpt><trkpt lat="-26.3682916893182" lon="113.98418453332233"><ele>45.0</ele><time>2026-04-15T09:27:37Z</time></trkpt><trkpt lat="-26.368094365544714" lon="113.98393426813607"><ele>46.0</ele><time>2026-04-15T09:27:38Z</time></trkpt><trkpt lat="-26.36789360545883" lon="113.98368565905187"><ele>46.0</ele><time>2026-04-15T09:27:39Z</time></trkpt><trkpt lat="-26.367692958986282" lon="113.98343416034221"><ele>46.0</ele><time>2026-04-15T09:27:40Z</time></trkpt><trkpt lat="-26.367493277774813" lon="113.98318180876171"><ele>46.0</ele><time>2026-04-15T09:27:41Z</time></trkpt><trkpt lat="-26.36729167666523" lon="113.98292895204204"><ele>46.0</ele><time>2026-04-15T09:27:42Z</time></trkpt><trkpt lat="-26.367090254895775" lon="113.9826782989259"><ele>47.5</ele><time>2026-04-15T09:27:43Z</time></trkpt><trkpt lat="-26.36688789796074" lon="113.9824273891023"><ele>49.0</ele><time>2026-04-15T09:27:44Z</time></trkpt><trkpt lat="-26.366685448826225" lon="113.98217563407525"><ele>49.0</ele><time>2026-04-15T09:27:45Z</time></trkpt><trkpt lat="-26.366484072179595" lon="113.98192042712805"><ele>49.0</ele><time>2026-04-15T09:27:46Z</time></trkpt><trkpt lat="-26.366281919199114" lon="113.98166227103383"><ele>46.5</ele><time>2026-04-15T09:27:47Z</time></trkpt><trkpt lat="-26.36608122868584" lon="113.98140546766494"><ele>44.0</ele><time>2026-04-15T09:27:48Z</time></trkpt><trkpt lat="-26.36587711147994" lon="113.98115001673797"><ele>44.0</ele><time>2026-04-15T09:27:49Z</time></trkpt><trkpt lat="-26.365674581944734" lon="113.98089596731944"><ele>44.0</ele><time>2026-04-15T09:27:50Z</time></trkpt><trkpt lat="-26.3654734174648" lon="113.9806422380669"><ele>43.5</ele><time>2026-04-15T09:27:51Z</time></trkpt><trkpt lat="-26.36527295046387" lon="113.98038770749471"><ele>43.0</ele><time>2026-04-15T09:27:52Z</time></trkpt><trkpt lat="-26.365074230647583" lon="113.98013413324702"><ele>43.5</ele><time>2026-04-15T09:27:53Z</time></trkpt><trkpt lat="-26.364876772776427" lon="113.97988372069028"><ele>44.0</ele><time>2026-04-15T09:27:54Z</time></trkpt><trkpt lat="-26.364678034654457" lon="113.97963057732188"><ele>43.5</ele><time>2026-04-15T09:27:55Z</time></trkpt><trkpt lat="-26.364478819364358" lon="113.97938310417273"><ele>43.0</ele><time>2026-04-15T09:27:56Z</time></trkpt><trkpt lat="-26.3642806870377" lon="113.9791336369343"><ele>43.0</ele><time>2026-04-15T09:27:57Z</time></trkpt><trkpt lat="-26.364084328351282" lon="113.97888460119006"><ele>43.0</ele><time>2026-04-15T09:27:58Z</time></trkpt><trkpt lat="-26.363890563056472" lon="113.97864088978271"><ele>42.5</ele><time>2026-04-15T09:27:59Z</time></trkpt><trkpt lat="-26.3636956546602" lon="113.97839808286373"><ele>42.0</ele><time>2026-04-15T09:28:00Z</time></trkpt><trkpt lat="-26.363499269020405" lon="113.97815106560526"><ele>43.0</ele><time>2026-04-15T09:28:01Z</time></trkpt><trkpt lat="-26.36330485784457" lon="113.97790269035755"><ele>44.0</ele><time>2026-04-15T09:28:02Z</time></trkpt><trkpt lat="-26.363110953570143" lon="113.97765519427102"><ele>43.5</ele><time>2026-04-15T09:28:03Z</time></trkpt><trkpt lat="-26.36291623212211" lon="113.97740823086997"><ele>43.0</ele><time>2026-04-15T09:28:04Z</time></trkpt><trkpt lat="-26.36271973780181" lon="113.9771630665786"><ele>43.0</ele><time>2026-04-15T09:28:05Z</time></trkpt><trkpt lat="-26.362522404729656" lon="113.97691605009992"><ele>43.0</ele><time>2026-04-15T09:28:06Z</time></trkpt><trkpt lat="-26.362323040163997" lon="113.976669353789"><ele>41.5</ele><time>2026-04-15T09:28:07Z</time></trkpt><trkpt lat="-26.362124440813208" lon="113.97642008521007"><ele>40.0</ele><time>2026-04-15T09:28:08Z</time></trkpt><trkpt lat="-26.361925912924566" lon="113.97616873945007"><ele>40.0</ele><time>2026-04-15T09:28:09Z</time></trkpt><trkpt lat="-26.36172712301078" lon="113.97591864097386"><ele>40.0</ele><time>2026-04-15T09:28:10Z</time></trkpt><trkpt lat="-26.361528594668002" lon="113.97566795415676"><ele>38.5</ele><time>2026-04-15T09:28:11Z</time></trkpt><trkpt lat="-26.361330613012004" lon="113.97541807684101"><ele>37.0</ele><time>2026-04-15T09:28:12Z</time></trkpt><trkpt lat="-26.361130413382487" lon="113.97516457039475"><ele>37.0</ele><time>2026-04-15T09:28:13Z</time></trkpt><trkpt lat="-26.36093249971918" lon="113.97491357907766"><ele>37.0</ele><time>2026-04-15T09:28:14Z</time></trkpt><trkpt lat="-26.360733672749173" lon="113.97466496184303"><ele>37.0</ele><time>2026-04-15T09:28:15Z</time></trkpt><trkpt lat="-26.3605343249414" lon="113.97441574135412"><ele>37.0</ele><time>2026-04-15T09:28:16Z</time></trkpt><trkpt lat="-26.3603365035114" lon="113.97416480675327"><ele>37.5</ele><time>2026-04-15T09:28:17Z</time></trkpt><trkpt lat="-26.360136796785063" lon="113.97391084826576"><ele>38.0</ele><time>2026-04-15T09:28:18Z</time></trkpt><trkpt lat="-26.359939095705958" lon="113.9736538145893"><ele>38.0</ele><time>2026-04-15T09:28:19Z</time></trkpt><trkpt lat="-26.35974200557388" lon="113.97339651111538"><ele>38.0</ele><time>2026-04-15T09:28:20Z</time></trkpt><trkpt lat="-26.35954334681019" lon="113.97314241276176"><ele>41.0</ele><time>2026-04-15T09:28:21Z</time></trkpt><trkpt lat="-26.35934324662188" lon="113.97288894341253"><ele>44.0</ele><time>2026-04-15T09:28:22Z</time></trkpt><trkpt lat="-26.359142381304714" lon="113.97263547332145"><ele>43.5</ele><time>2026-04-15T09:28:23Z</time></trkpt><trkpt lat="-26.35894141173062" lon="113.97238433665765"><ele>43.0</ele><time>2026-04-15T09:28:24Z</time></trkpt><trkpt lat="-26.358739958087074" lon="113.97213377359519"><ele>43.0</ele><time>2026-04-15T09:28:25Z</time></trkpt><trkpt lat="-26.358534875354355" lon="113.97187992470971"><ele>43.0</ele><time>2026-04-15T09:28:26Z</time></trkpt><trkpt lat="-26.358331517856538" lon="113.97162413376316"><ele>43.0</ele><time>2026-04-15T09:28:27Z</time></trkpt><trkpt lat="-26.358131358792853" lon="113.97137217950316"><ele>43.0</ele><time>2026-04-15T09:28:28Z</time></trkpt><trkpt lat="-26.357933374872488" lon="113.97112232714352"><ele>44.5</ele><time>2026-04-15T09:28:29Z</time></trkpt><trkpt lat="-26.357736393276696" lon="113.97087256483998"><ele>46.0</ele><time>2026-04-15T09:28:30Z</time></trkpt><trkpt lat="-26.35754040170061" lon="113.97062204992326"><ele>46.0</ele><time>2026-04-15T09:28:31Z</time></trkpt><trkpt lat="-26.357344106834066" lon="113.97037360148121"><ele>46.0</ele><time>2026-04-15T09:28:32Z</time></trkpt><trkpt lat="-26.357151366257483" lon="113.9701246775907"><ele>45.5</ele><time>2026-04-15T09:28:33Z</time></trkpt><trkpt lat="-26.356957341666018" lon="113.96987818512088"><ele>45.0</ele><time>2026-04-15T09:28:34Z</time></trkpt><trkpt lat="-26.356763637099263" lon="113.96963256087928"><ele>45.0</ele><time>2026-04-15T09:28:35Z</time></trkpt><trkpt lat="-26.356567613132857" lon="113.96938687934069"><ele>45.0</ele><time>2026-04-15T09:28:36Z</time></trkpt><trkpt lat="-26.356370942392925" lon="113.96914210175908"><ele>45.5</ele><time>2026-04-15T09:28:37Z</time></trkpt><trkpt lat="-26.35617327599948" lon="113.9688982467611"><ele>46.0</ele><time>2026-04-15T09:28:38Z</time></trkpt><trkpt lat="-26.35597533825735" lon="113.96865590666926"><ele>46.0</ele><time>2026-04-15T09:28:39Z</time></trkpt><trkpt lat="-26.355781252039097" lon="113.96841089689099"><ele>46.0</ele><time>2026-04-15T09:28:40Z</time></trkpt><trkpt lat="-26.355588804173383" lon="113.96816559720965"><ele>44.0</ele><time>2026-04-15T09:28:41Z</time></trkpt><trkpt lat="-26.355396889384632" lon="113.96792259789908"><ele>42.0</ele><time>2026-04-15T09:28:42Z</time></trkpt><trkpt lat="-26.355207530245085" lon="113.96767736626266"><ele>42.5</ele><time>2026-04-15T09:28:43Z</time></trkpt><trkpt lat="-26.35502183630608" lon="113.96742964452811"><ele>43.0</ele><time>2026-04-15T09:28:44Z</time></trkpt><trkpt lat="-26.35483410198379" lon="113.96718387125935"><ele>42.5</ele><time>2026-04-15T09:28:45Z</time></trkpt><trkpt lat="-26.35464234840608" lon="113.96694205512586"><ele>42.0</ele><time>2026-04-15T09:28:46Z</time></trkpt><trkpt lat="-26.3544501037251" lon="113.9667016883961"><ele>42.5</ele><time>2026-04-15T09:28:47Z</time></trkpt><trkpt lat="-26.35425742352351" lon="113.96645857389277"><ele>43.0</ele><time>2026-04-15T09:28:48Z</time></trkpt><trkpt lat="-26.354065602204795" lon="113.96621826363422"><ele>43.0</ele><time>2026-04-15T09:28:49Z</time></trkpt><trkpt lat="-26.35387512847673" lon="113.96597774018831"><ele>43.0</ele><time>2026-04-15T09:28:50Z</time></trkpt><trkpt lat="-26.353684722892428" lon="113.96573877745583"><ele>43.5</ele><time>2026-04-15T09:28:51Z</time></trkpt><trkpt lat="-26.353492432231807" lon="113.9654947121984"><ele>44.0</ele><time>2026-04-15T09:28:52Z</time></trkpt><trkpt lat="-26.35329550382372" lon="113.96524220185009"><ele>43.5</ele><time>2026-04-15T09:28:53Z</time></trkpt><trkpt lat="-26.35310046590447" lon="113.96498827131498"><ele>43.0</ele><time>2026-04-15T09:28:54Z</time></trkpt><trkpt lat="-26.35290491633205" lon="113.96473540049232"><ele>40.5</ele><time>2026-04-15T09:28:55Z</time></trkpt><trkpt lat="-26.352709265556246" lon="113.9644842574737"><ele>38.0</ele><time>2026-04-15T09:28:56Z</time></trkpt><trkpt lat="-26.352514093209614" lon="113.96423505485377"><ele>39.0</ele><time>2026-04-15T09:28:57Z</time></trkpt><trkpt lat="-26.35231902976082" lon="113.96398218955298"><ele>40.0</ele><time>2026-04-15T09:28:58Z</time></trkpt><trkpt lat="-26.35212444684306" lon="113.96372905297018"><ele>38.5</ele><time>2026-04-15T09:28:59Z</time></trkpt><trkpt lat="-26.351931214192984" lon="113.96347676465398"><ele>37.0</ele><time>2026-04-15T09:29:00Z</time></trkpt><trkpt lat="-26.351737697228806" lon="113.96322303475966"><ele>37.0</ele><time>2026-04-15T09:29:01Z</time></trkpt><trkpt lat="-26.351542332084303" lon="113.96297019546667"><ele>37.0</ele><time>2026-04-15T09:29:02Z</time></trkpt><trkpt lat="-26.3513491887815" lon="113.9627210842953"><ele>37.0</ele><time>2026-04-15T09:29:03Z</time></trkpt><trkpt lat="-26.3511530157975" lon="113.96247002278777"><ele>37.0</ele><time>2026-04-15T09:29:04Z</time></trkpt><trkpt lat="-26.350957897612414" lon="113.96222144679595"><ele>37.0</ele><time>2026-04-15T09:29:05Z</time></trkpt><trkpt lat="-26.350764488522422" lon="113.96197219654347"><ele>37.0</ele><time>2026-04-15T09:29:06Z</time></trkpt><trkpt lat="-26.350571799931934" lon="113.96172562561989"><ele>37.5</ele><time>2026-04-15T09:29:07Z</time></trkpt><trkpt lat="-26.350376731203927" lon="113.96147601182086"><ele>38.0</ele><time>2026-04-15T09:29:08Z</time></trkpt><trkpt lat="-26.350182007958953" lon="113.96122509241765"><ele>38.0</ele><time>2026-04-15T09:29:09Z</time></trkpt><trkpt lat="-26.349989024024993" lon="113.96097204982722"><ele>38.0</ele><time>2026-04-15T09:29:10Z</time></trkpt><trkpt lat="-26.34979772796321" lon="113.96072218704703"><ele>40.0</ele><time>2026-04-15T09:29:11Z</time></trkpt><trkpt lat="-26.34960726920152" lon="113.9604750063237"><ele>42.0</ele><time>2026-04-15T09:29:12Z</time></trkpt><trkpt lat="-26.349417367902415" lon="113.9602307099545"><ele>42.5</ele><time>2026-04-15T09:29:13Z</time></trkpt><trkpt lat="-26.34922905267528" lon="113.95998401751864"><ele>43.0</ele><time>2026-04-15T09:29:14Z</time></trkpt><trkpt lat="-26.349039438484084" lon="113.95973939195709"><ele>44.5</ele><time>2026-04-15T09:29:15Z</time></trkpt><trkpt lat="-26.34885009014455" lon="113.95949677789626"><ele>46.0</ele><time>2026-04-15T09:29:16Z</time></trkpt><trkpt lat="-26.34865960805805" lon="113.95925403464378"><ele>45.5</ele><time>2026-04-15T09:29:17Z</time></trkpt><trkpt lat="-26.348470933119902" lon="113.95901037071869"><ele>45.0</ele><time>2026-04-15T09:29:18Z</time></trkpt><trkpt lat="-26.34828436034244" lon="113.95876070432345"><ele>45.0</ele><time>2026-04-15T09:29:19Z</time></trkpt><trkpt lat="-26.348105343920814" lon="113.9585040974264"><ele>45.0</ele><time>2026-04-15T09:29:20Z</time></trkpt><trkpt lat="-26.347931493069076" lon="113.95824327289738"><ele>45.0</ele><time>2026-04-15T09:29:21Z</time></trkpt><trkpt lat="-26.34775762778722" lon="113.95797856962179"><ele>45.0</ele><time>2026-04-15T09:29:22Z</time></trkpt><trkpt lat="-26.347586152250962" lon="113.95771446452082"><ele>44.5</ele><time>2026-04-15T09:29:23Z</time></trkpt><trkpt lat="-26.347416474285236" lon="113.95745153067907"><ele>44.0</ele><time>2026-04-15T09:29:24Z</time></trkpt><trkpt lat="-26.347250621485994" lon="113.95718850234465"><ele>45.0</ele><time>2026-04-15T09:29:25Z</time></trkpt><trkpt lat="-26.34708619010853" lon="113.95692433878729"><ele>46.0</ele><time>2026-04-15T09:29:26Z</time></trkpt><trkpt lat="-26.34692514307076" lon="113.956658295306"><ele>46.0</ele><time>2026-04-15T09:29:27Z</time></trkpt><trkpt lat="-26.346766998986617" lon="113.95638862223028"><ele>46.0</ele><time>2026-04-15T09:29:28Z</time></trkpt><trkpt lat="-26.346610943477735" lon="113.95611801752811"><ele>46.5</ele><time>2026-04-15T09:29:29Z</time></trkpt><trkpt lat="-26.346456686343355" lon="113.9558513888822"><ele>47.0</ele><time>2026-04-15T09:29:30Z</time></trkpt><trkpt lat="-26.34629824948837" lon="113.95558437089899"><ele>47.0</ele><time>2026-04-15T09:29:31Z</time></trkpt><trkpt lat="-26.346137535129365" lon="113.95531199904327"><ele>47.0</ele><time>2026-04-15T09:29:32Z</time></trkpt><trkpt lat="-26.345973426606577" lon="113.95503502967262"><ele>45.5</ele><time>2026-04-15T09:29:33Z</time></trkpt><trkpt lat="-26.345808995869675" lon="113.95475892309305"><ele>44.0</ele><time>2026-04-15T09:29:34Z</time></trkpt><trkpt lat="-26.345643444952344" lon="113.95448198092943"><ele>43.0</ele><time>2026-04-15T09:29:35Z</time></trkpt><trkpt lat="-26.345479247105413" lon="113.95420533884165"><ele>42.0</ele><time>2026-04-15T09:29:36Z</time></trkpt><trkpt lat="-26.345318328457314" lon="113.95392789106151"><ele>41.0</ele><time>2026-04-15T09:29:37Z</time></trkpt><trkpt lat="-26.345160205943333" lon="113.95364917096012"><ele>40.0</ele><time>2026-04-15T09:29:38Z</time></trkpt><trkpt lat="-26.345003048635856" lon="113.95337414091117"><ele>39.0</ele><time>2026-04-15T09:29:39Z</time></trkpt><trkpt lat="-26.34484390986705" lon="113.95310165540373"><ele>38.0</ele><time>2026-04-15T09:29:40Z</time></trkpt><trkpt lat="-26.34468284590947" lon="113.95283311675077"><ele>36.5</ele><time>2026-04-15T09:29:41Z</time></trkpt><trkpt lat="-26.344520573554576" lon="113.95256293879243"><ele>35.0</ele><time>2026-04-15T09:29:42Z</time></trkpt><trkpt lat="-26.344355804320838" lon="113.95229509224669"><ele>35.0</ele><time>2026-04-15T09:29:43Z</time></trkpt><trkpt lat="-26.34418945026255" lon="113.95202578073759"><ele>35.0</ele><time>2026-04-15T09:29:44Z</time></trkpt><trkpt lat="-26.34404260087127" lon="113.95174224713848"><ele>34.0</ele><time>2026-04-15T09:29:45Z</time></trkpt><trkpt lat="-26.343878789185585" lon="113.95146377927337"><ele>33.0</ele><time>2026-04-15T09:29:46Z</time></trkpt><trkpt lat="-26.343704105519777" lon="113.95119413492058"><ele>33.0</ele><time>2026-04-15T09:29:47Z</time></trkpt><trkpt lat="-26.343542568177604" lon="113.95091335238318"><ele>33.0</ele><time>2026-04-15T09:29:48Z</time></trkpt><trkpt lat="-26.343383124316688" lon="113.95063815297691"><ele>34.5</ele><time>2026-04-15T09:29:49Z</time></trkpt><trkpt lat="-26.34322461906877" lon="113.95037000484268"><ele>36.0</ele><time>2026-04-15T09:29:50Z</time></trkpt><trkpt lat="-26.343071265423834" lon="113.95010416928906"><ele>36.5</ele><time>2026-04-15T09:29:51Z</time></trkpt><trkpt lat="-26.3429256777317" lon="113.94985375995958"><ele>37.0</ele><time>2026-04-15T09:29:52Z</time></trkpt><trkpt lat="-26.34278946881573" lon="113.94962564637345"><ele>37.0</ele><time>2026-04-15T09:29:53Z</time></trkpt><trkpt lat="-26.342650126372696" lon="113.94939868860972"><ele>37.0</ele><time>2026-04-15T09:29:54Z</time></trkpt><trkpt lat="-26.34250797790241" lon="113.94916228317062"><ele>38.5</ele><time>2026-04-15T09:29:55Z</time></trkpt><trkpt lat="-26.34236512385315" lon="113.94892073528102"><ele>40.0</ele><time>2026-04-15T09:29:56Z</time></trkpt><trkpt lat="-26.342221792882736" lon="113.94867642615806"><ele>40.0</ele><time>2026-04-15T09:29:57Z</time></trkpt><trkpt lat="-26.342079723470125" lon="113.9484294077125"><ele>40.0</ele><time>2026-04-15T09:29:58Z</time></trkpt><trkpt lat="-26.341932961425687" lon="113.94817680326713"><ele>42.0</ele><time>2026-04-15T09:29:59Z</time></trkpt><trkpt lat="-26.341783451891047" lon="113.94792486316804"><ele>44.0</ele><time>2026-04-15T09:30:00Z</time></trkpt><trkpt lat="-26.341632721994" lon="113.94767070659175"><ele>46.0</ele><time>2026-04-15T09:30:01Z</time></trkpt><trkpt lat="-26.34148169758323" lon="113.94741583469374"><ele>48.0</ele><time>2026-04-15T09:30:02Z</time></trkpt><trkpt lat="-26.34132885505152" lon="113.9471596783303"><ele>48.5</ele><time>2026-04-15T09:30:03Z</time></trkpt><trkpt lat="-26.341177562407132" lon="113.94690362133137"><ele>49.0</ele><time>2026-04-15T09:30:04Z</time></trkpt><trkpt lat="-26.341029343402187" lon="113.94664543752303"><ele>50.5</ele><time>2026-04-15T09:30:05Z</time></trkpt><trkpt lat="-26.34087849334778" lon="113.94638594280956"><ele>52.0</ele><time>2026-04-15T09:30:06Z</time></trkpt><trkpt lat="-26.340722681624055" lon="113.94612257771121"><ele>52.0</ele><time>2026-04-15T09:30:07Z</time></trkpt><trkpt lat="-26.340566085597377" lon="113.94585778220637"><ele>52.0</ele><time>2026-04-15T09:30:08Z</time></trkpt><trkpt lat="-26.34040433369293" lon="113.94558675629344"><ele>52.0</ele><time>2026-04-15T09:30:09Z</time></trkpt><trkpt lat="-26.340243585623266" lon="113.94531394536442"><ele>52.0</ele><time>2026-04-15T09:30:10Z</time></trkpt><trkpt lat="-26.34008582724925" lon="113.94503700137649"><ele>50.5</ele><time>2026-04-15T09:30:11Z</time></trkpt><trkpt lat="-26.339926867295752" lon="113.94475936564363"><ele>49.0</ele><time>2026-04-15T09:30:12Z</time></trkpt><trkpt lat="-26.339766364773432" lon="113.94448301896152"><ele>48.0</ele><time>2026-04-15T09:30:13Z</time></trkpt><trkpt lat="-26.339604521467265" lon="113.94419931223155"><ele>47.0</ele><time>2026-04-15T09:30:14Z</time></trkpt><trkpt lat="-26.33944118837088" lon="113.94391639677474"><ele>47.0</ele><time>2026-04-15T09:30:15Z</time></trkpt><trkpt lat="-26.33927434325282" lon="113.94363641324314"><ele>47.0</ele><time>2026-04-15T09:30:16Z</time></trkpt><trkpt lat="-26.339106712466464" lon="113.94336296452445"><ele>46.0</ele><time>2026-04-15T09:30:17Z</time></trkpt><trkpt lat="-26.3389413715315" lon="113.94309197776577"><ele>45.0</ele><time>2026-04-15T09:30:18Z</time></trkpt><trkpt lat="-26.33877965827015" lon="113.94282097567282"><ele>45.0</ele><time>2026-04-15T09:30:19Z</time></trkpt><trkpt lat="-26.338620198807547" lon="113.9425489805095"><ele>45.0</ele><time>2026-04-15T09:30:20Z</time></trkpt><trkpt lat="-26.33846451368184" lon="113.94227885470401"><ele>44.0</ele><time>2026-04-15T09:30:21Z</time></trkpt><trkpt lat="-26.338311247280046" lon="113.94200862695867"><ele>43.0</ele><time>2026-04-15T09:30:22Z</time></trkpt><trkpt lat="-26.338156457082718" lon="113.94173900517355"><ele>42.5</ele><time>2026-04-15T09:30:23Z</time></trkpt><trkpt lat="-26.338000843346734" lon="113.94147225871093"><ele>42.0</ele><time>2026-04-15T09:30:24Z</time></trkpt><trkpt lat="-26.337844611330976" lon="113.94120684301372"><ele>42.0</ele><time>2026-04-15T09:30:25Z</time></trkpt><trkpt lat="-26.337690107153453" lon="113.94094013098876"><ele>42.0</ele><time>2026-04-15T09:30:26Z</time></trkpt><trkpt lat="-26.33753401617304" lon="113.94067273767766"><ele>42.5</ele><time>2026-04-15T09:30:27Z</time></trkpt><trkpt lat="-26.33737471062296" lon="113.94040728744419"><ele>43.0</ele><time>2026-04-15T09:30:28Z</time></trkpt><trkpt lat="-26.337213186226734" lon="113.94013914576674"><ele>44.0</ele><time>2026-04-15T09:30:29Z</time></trkpt><trkpt lat="-26.33705023865646" lon="113.93986394755095"><ele>45.0</ele><time>2026-04-15T09:30:30Z</time></trkpt><trkpt lat="-26.33688660516533" lon="113.93958827490968"><ele>45.0</ele><time>2026-04-15T09:30:31Z</time></trkpt><trkpt lat="-26.336723628433326" lon="113.93931250825706"><ele>45.0</ele><time>2026-04-15T09:30:32Z</time></trkpt><trkpt lat="-26.336561243950374" lon="113.93903783351416"><ele>45.0</ele><time>2026-04-15T09:30:33Z</time></trkpt><trkpt lat="-26.336398986073153" lon="113.93876755783188"><ele>45.0</ele><time>2026-04-15T09:30:34Z</time></trkpt><trkpt lat="-26.336239259946638" lon="113.9384954547414"><ele>44.5</ele><time>2026-04-15T09:30:35Z</time></trkpt><trkpt lat="-26.336080389898598" lon="113.93822419053888"><ele>44.0</ele><time>2026-04-15T09:30:36Z</time></trkpt><trkpt lat="-26.335921678178064" lon="113.9379500849322"><ele>44.0</ele><time>2026-04-15T09:30:37Z</time></trkpt><trkpt lat="-26.33576270097733" lon="113.93767619540934"><ele>44.0</ele><time>2026-04-15T09:30:38Z</time></trkpt><trkpt lat="-26.335603445055003" lon="113.9374041111359"><ele>44.5</ele><time>2026-04-15T09:30:39Z</time></trkpt><trkpt lat="-26.335442293056477" lon="113.93713193138679"><ele>45.0</ele><time>2026-04-15T09:30:40Z</time></trkpt><trkpt lat="-26.335280177631024" lon="113.9368593594581"><ele>45.0</ele><time>2026-04-15T09:30:41Z</time></trkpt><trkpt lat="-26.335117462939913" lon="113.93658578733424"><ele>45.0</ele><time>2026-04-15T09:30:42Z</time></trkpt><trkpt lat="-26.334955241787974" lon="113.93631096000988"><ele>45.0</ele><time>2026-04-15T09:30:43Z</time></trkpt><trkpt lat="-26.334792712981" lon="113.93603667499929"><ele>45.0</ele><time>2026-04-15T09:30:44Z</time></trkpt><trkpt lat="-26.334630799288874" lon="113.935758782722"><ele>46.5</ele><time>2026-04-15T09:30:45Z</time></trkpt><trkpt lat="-26.334469221023806" lon="113.93548147556328"><ele>48.0</ele><time>2026-04-15T09:30:46Z</time></trkpt><trkpt lat="-26.334307430571847" lon="113.93520612326084"><ele>47.5</ele><time>2026-04-15T09:30:47Z</time></trkpt><trkpt lat="-26.33414563049836" lon="113.93493039275884"><ele>47.0</ele><time>2026-04-15T09:30:48Z</time></trkpt><trkpt lat="-26.333981832549355" lon="113.93465365313786"><ele>48.0</ele><time>2026-04-15T09:30:49Z</time></trkpt><trkpt lat="-26.333817448209313" lon="113.93437936038147"><ele>49.0</ele><time>2026-04-15T09:30:50Z</time></trkpt><trkpt lat="-26.333653237547264" lon="113.9341058008116"><ele>49.0</ele><time>2026-04-15T09:30:51Z</time></trkpt><trkpt lat="-26.33348893626681" lon="113.93382838652228"><ele>49.0</ele><time>2026-04-15T09:30:52Z</time></trkpt><trkpt lat="-26.33332367486687" lon="113.93355082358507"><ele>48.0</ele><time>2026-04-15T09:30:53Z</time></trkpt><trkpt lat="-26.33316112806595" lon="113.93327228579284"><ele>47.0</ele><time>2026-04-15T09:30:54Z</time></trkpt><trkpt lat="-26.33300078613827" lon="113.9329924000202"><ele>47.0</ele><time>2026-04-15T09:30:55Z</time></trkpt><trkpt lat="-26.332838498993205" lon="113.93271384498647"><ele>47.0</ele><time>2026-04-15T09:30:56Z</time></trkpt><trkpt lat="-26.33267608814153" lon="113.93243697050113"><ele>46.5</ele><time>2026-04-15T09:30:57Z</time></trkpt><trkpt lat="-26.33251162264285" lon="113.932164041752"><ele>46.0</ele><time>2026-04-15T09:30:58Z</time></trkpt><trkpt lat="-26.332347507719394" lon="113.93188985569999"><ele>44.5</ele><time>2026-04-15T09:30:59Z</time></trkpt><trkpt lat="-26.332183221284705" lon="113.9316130864339"><ele>43.0</ele><time>2026-04-15T09:31:00Z</time></trkpt><trkpt lat="-26.33201956111878" lon="113.93133726560784"><ele>43.0</ele><time>2026-04-15T09:31:01Z</time></trkpt><trkpt lat="-26.33185630216264" lon="113.9310602212629"><ele>43.0</ele><time>2026-04-15T09:31:02Z</time></trkpt><trkpt lat="-26.33169504257636" lon="113.93078631407701"><ele>44.0</ele><time>2026-04-15T09:31:03Z</time></trkpt><trkpt lat="-26.33153429928179" lon="113.93051030316461"><ele>45.0</ele><time>2026-04-15T09:31:04Z</time></trkpt><trkpt lat="-26.33137734646894" lon="113.93023462991094"><ele>47.5</ele><time>2026-04-15T09:31:05Z</time></trkpt><trkpt lat="-26.33121659930547" lon="113.92995512528302"><ele>50.0</ele><time>2026-04-15T09:31:06Z</time></trkpt><trkpt lat="-26.33105252014953" lon="113.92967845657786"><ele>50.0</ele><time>2026-04-15T09:31:07Z</time></trkpt><trkpt lat="-26.33088876582892" lon="113.92940663195402"><ele>50.0</ele><time>2026-04-15T09:31:08Z</time></trkpt><trkpt lat="-26.330723930000712" lon="113.92913416719854"><ele>50.0</ele><time>2026-04-15T09:31:09Z</time></trkpt><trkpt lat="-26.33056192005267" lon="113.92886153985992"><ele>50.0</ele><time>2026-04-15T09:31:10Z</time></trkpt><trkpt lat="-26.330399108309727" lon="113.92858464151443"><ele>49.5</ele><time>2026-04-15T09:31:11Z</time></trkpt><trkpt lat="-26.330236605820826" lon="113.92830810003944"><ele>49.0</ele><time>2026-04-15T09:31:12Z</time></trkpt><trkpt lat="-26.330073154039525" lon="113.92802705721837"><ele>49.0</ele><time>2026-04-15T09:31:13Z</time></trkpt><trkpt lat="-26.329908603402746" lon="113.92774894919266"><ele>49.0</ele><time>2026-04-15T09:31:14Z</time></trkpt><trkpt lat="-26.329742199334426" lon="113.92747013057492"><ele>48.0</ele><time>2026-04-15T09:31:15Z</time></trkpt><trkpt lat="-26.32957414709786" lon="113.92719255414832"><ele>47.0</ele><time>2026-04-15T09:31:16Z</time></trkpt><trkpt lat="-26.329406844935377" lon="113.92691130635933"><ele>47.5</ele><time>2026-04-15T09:31:17Z</time></trkpt><trkpt lat="-26.329241960102046" lon="113.92662819269808"><ele>48.0</ele><time>2026-04-15T09:31:18Z</time></trkpt><trkpt lat="-26.32907687501416" lon="113.92634359893478"><ele>48.0</ele><time>2026-04-15T09:31:19Z</time></trkpt><trkpt lat="-26.328912080068164" lon="113.92605940520227"><ele>48.0</ele><time>2026-04-15T09:31:20Z</time></trkpt><trkpt lat="-26.328748271030083" lon="113.92577663644363"><ele>48.0</ele><time>2026-04-15T09:31:21Z</time></trkpt><trkpt lat="-26.32858466393445" lon="113.92549395992019"><ele>48.0</ele><time>2026-04-15T09:31:22Z</time></trkpt><trkpt lat="-26.328420774108924" lon="113.9252111159199"><ele>48.0</ele><time>2026-04-15T09:31:23Z</time></trkpt><trkpt lat="-26.328255373643046" lon="113.92493048035736"><ele>48.0</ele><time>2026-04-15T09:31:24Z</time></trkpt><trkpt lat="-26.32808774266252" lon="113.9246529438932"><ele>47.5</ele><time>2026-04-15T09:31:25Z</time></trkpt><trkpt lat="-26.32791708163604" lon="113.92437421328044"><ele>47.0</ele><time>2026-04-15T09:31:26Z</time></trkpt><trkpt lat="-26.327744993482128" lon="113.92409254841125"><ele>48.5</ele><time>2026-04-15T09:31:27Z</time></trkpt><trkpt lat="-26.32759104394547" lon="113.9237987466812"><ele>50.0</ele><time>2026-04-15T09:31:28Z</time></trkpt><trkpt lat="-26.327423183256105" lon="113.92351519671725"><ele>50.5</ele><time>2026-04-15T09:31:29Z</time></trkpt><trkpt lat="-26.32725601709394" lon="113.92322968262492"><ele>51.0</ele><time>2026-04-15T09:31:30Z</time></trkpt><trkpt lat="-26.327077376803036" lon="113.92295454191824"><ele>51.0</ele><time>2026-04-15T09:31:31Z</time></trkpt><trkpt lat="-26.326915112391283" lon="113.92266965049878"><ele>51.0</ele><time>2026-04-15T09:31:32Z</time></trkpt><trkpt lat="-26.326748298422242" lon="113.92239078315505"><ele>51.0</ele><time>2026-04-15T09:31:33Z</time></trkpt><trkpt lat="-26.32657089887162" lon="113.92211829104357"><ele>51.0</ele><time>2026-04-15T09:31:34Z</time></trkpt><trkpt lat="-26.326384694735598" lon="113.9218573620846"><ele>50.0</ele><time>2026-04-15T09:31:35Z</time></trkpt><trkpt lat="-26.326189380381727" lon="113.92160422292274"><ele>49.0</ele><time>2026-04-15T09:31:36Z</time></trkpt><trkpt lat="-26.325988772394016" lon="113.92135568701623"><ele>49.0</ele><time>2026-04-15T09:31:37Z</time></trkpt><trkpt lat="-26.32578455774266" lon="113.92111236321257"><ele>49.0</ele><time>2026-04-15T09:31:38Z</time></trkpt><trkpt lat="-26.32557642114377" lon="113.92087822797967"><ele>48.0</ele><time>2026-04-15T09:31:39Z</time></trkpt><trkpt lat="-26.325361316341812" lon="113.92064863548644"><ele>47.0</ele><time>2026-04-15T09:31:40Z</time></trkpt><trkpt lat="-26.325141778976466" lon="113.92041859271495"><ele>47.0</ele><time>2026-04-15T09:31:41Z</time></trkpt><trkpt lat="-26.32491948481081" lon="113.92019394215794"><ele>47.0</ele><time>2026-04-15T09:31:42Z</time></trkpt><trkpt lat="-26.324690327885897" lon="113.9199783016782"><ele>48.0</ele><time>2026-04-15T09:31:43Z</time></trkpt><trkpt lat="-26.32445703623117" lon="113.91977151102652"><ele>49.0</ele><time>2026-04-15T09:31:44Z</time></trkpt><trkpt lat="-26.324219964108753" lon="113.91957083665677"><ele>49.0</ele><time>2026-04-15T09:31:45Z</time></trkpt><trkpt lat="-26.323978449255513" lon="113.91937511050267"><ele>49.0</ele><time>2026-04-15T09:31:46Z</time></trkpt><trkpt lat="-26.323731759864465" lon="113.91918878705478"><ele>49.0</ele><time>2026-04-15T09:31:47Z</time></trkpt><trkpt lat="-26.323479841152565" lon="113.91901218527813"><ele>49.0</ele><time>2026-04-15T09:31:48Z</time></trkpt><trkpt lat="-26.32322340813087" lon="113.91883895007055"><ele>50.5</ele><time>2026-04-15T09:31:49Z</time></trkpt><trkpt lat="-26.322962396407014" lon="113.91867254666744"><ele>52.0</ele><time>2026-04-15T09:31:50Z</time></trkpt><trkpt lat="-26.3226988667709" lon="113.91851171185193"><ele>50.0</ele><time>2026-04-15T09:31:51Z</time></trkpt><trkpt lat="-26.32243260653474" lon="113.91834618654929"><ele>48.0</ele><time>2026-04-15T09:31:52Z</time></trkpt><trkpt lat="-26.32216910111937" lon="113.91817717396972"><ele>47.5</ele><time>2026-04-15T09:31:53Z</time></trkpt><trkpt lat="-26.32190345905306" lon="113.9180086758733"><ele>47.0</ele><time>2026-04-15T09:31:54Z</time></trkpt><trkpt lat="-26.32163912146395" lon="113.91783922762127"><ele>46.0</ele><time>2026-04-15T09:31:55Z</time></trkpt><trkpt lat="-26.321377806663627" lon="113.91766847567669"><ele>45.0</ele><time>2026-04-15T09:31:56Z</time></trkpt><trkpt lat="-26.321116538375083" lon="113.91750166153209"><ele>45.0</ele><time>2026-04-15T09:31:57Z</time></trkpt><trkpt lat="-26.32085677940473" lon="113.91733545619967"><ele>45.0</ele><time>2026-04-15T09:31:58Z</time></trkpt><trkpt lat="-26.32059814174633" lon="113.9171686813658"><ele>46.5</ele><time>2026-04-15T09:31:59Z</time></trkpt><trkpt lat="-26.320338559629644" lon="113.91699937685982"><ele>48.0</ele><time>2026-04-15T09:32:00Z</time></trkpt><trkpt lat="-26.32008097031067" lon="113.91683448407488"><ele>48.5</ele><time>2026-04-15T09:32:01Z</time></trkpt><trkpt lat="-26.319823231766406" lon="113.91667198116266"><ele>49.0</ele><time>2026-04-15T09:32:02Z</time></trkpt><trkpt lat="-26.319566763449902" lon="113.91651055832203"><ele>49.0</ele><time>2026-04-15T09:32:03Z</time></trkpt><trkpt lat="-26.319310833754738" lon="113.91634686770422"><ele>49.0</ele><time>2026-04-15T09:32:04Z</time></trkpt><trkpt lat="-26.31905461093728" lon="113.916184526624"><ele>49.0</ele><time>2026-04-15T09:32:05Z</time></trkpt><trkpt lat="-26.31879890622224" lon="113.9160218926015"><ele>49.0</ele><time>2026-04-15T09:32:06Z</time></trkpt><trkpt lat="-26.31854315262297" lon="113.915862041978"><ele>49.0</ele><time>2026-04-15T09:32:07Z</time></trkpt><trkpt lat="-26.318286169071104" lon="113.91570520822167"><ele>49.0</ele><time>2026-04-15T09:32:08Z</time></trkpt><trkpt lat="-26.31802952660043" lon="113.91554417678704"><ele>51.5</ele><time>2026-04-15T09:32:09Z</time></trkpt><trkpt lat="-26.317769327024436" lon="113.91537845297368"><ele>54.0</ele><time>2026-04-15T09:32:10Z</time></trkpt><trkpt lat="-26.31751194626875" lon="113.9152151049134"><ele>54.5</ele><time>2026-04-15T09:32:11Z</time></trkpt><trkpt lat="-26.31725597642153" lon="113.91504833159674"><ele>55.0</ele><time>2026-04-15T09:32:12Z</time></trkpt><trkpt lat="-26.31700059713853" lon="113.91487853312553"><ele>55.5</ele><time>2026-04-15T09:32:13Z</time></trkpt><trkpt lat="-26.316745650708913" lon="113.91471168928017"><ele>56.0</ele><time>2026-04-15T09:32:14Z</time></trkpt><trkpt lat="-26.316486048126293" lon="113.91454474285493"><ele>57.5</ele><time>2026-04-15T09:32:15Z</time></trkpt><trkpt lat="-26.316227926286903" lon="113.9143797370066"><ele>59.0</ele><time>2026-04-15T09:32:16Z</time></trkpt><trkpt lat="-26.315968689489765" lon="113.9142186130448"><ele>60.0</ele><time>2026-04-15T09:32:17Z</time></trkpt><trkpt lat="-26.315709844348763" lon="113.91405698990131"><ele>61.0</ele><time>2026-04-15T09:32:18Z</time></trkpt><trkpt lat="-26.31545420481256" lon="113.91389550147457"><ele>61.5</ele><time>2026-04-15T09:32:19Z</time></trkpt><trkpt lat="-26.315198368200473" lon="113.91373333841318"><ele>62.0</ele><time>2026-04-15T09:32:20Z</time></trkpt><trkpt lat="-26.314943471678184" lon="113.91357139872429"><ele>61.0</ele><time>2026-04-15T09:32:21Z</time></trkpt><trkpt lat="-26.314692404182498" lon="113.91340806129061"><ele>60.0</ele><time>2026-04-15T09:32:22Z</time></trkpt><trkpt lat="-26.314441565113523" lon="113.91324637143789"><ele>60.0</ele><time>2026-04-15T09:32:23Z</time></trkpt><trkpt lat="-26.314194249171944" lon="113.91308341419386"><ele>60.0</ele><time>2026-04-15T09:32:24Z</time></trkpt><trkpt lat="-26.313945902211984" lon="113.91292176627971"><ele>58.0</ele><time>2026-04-15T09:32:25Z</time></trkpt><trkpt lat="-26.313698781195363" lon="113.91276020011613"><ele>56.0</ele><time>2026-04-15T09:32:26Z</time></trkpt><trkpt lat="-26.31344967179066" lon="113.91260138584477"><ele>55.5</ele><time>2026-04-15T09:32:27Z</time></trkpt><trkpt lat="-26.31319914796882" lon="113.91244181361164"><ele>55.0</ele><time>2026-04-15T09:32:28Z</time></trkpt><trkpt lat="-26.312947663847908" lon="113.91228587034752"><ele>55.0</ele><time>2026-04-15T09:32:29Z</time></trkpt><trkpt lat="-26.312696700509015" lon="113.91213187696209"><ele>55.0</ele><time>2026-04-15T09:32:30Z</time></trkpt><trkpt lat="-26.312449651818937" lon="113.91197532819699"><ele>54.0</ele><time>2026-04-15T09:32:31Z</time></trkpt><trkpt lat="-26.31220117713411" lon="113.91181586855555"><ele>53.0</ele><time>2026-04-15T09:32:32Z</time></trkpt><trkpt lat="-26.31195109607209" lon="113.91165957736382"><ele>51.5</ele><time>2026-04-15T09:32:33Z</time></trkpt><trkpt lat="-26.311698939876404" lon="113.91150238550196"><ele>50.0</ele><time>2026-04-15T09:32:33.999Z</time></trkpt><trkpt lat="-26.31144542264006" lon="113.91133922733842"><ele>47.5</ele><time>2026-04-15T09:32:34.999Z</time></trkpt><trkpt lat="-26.311192267270968" lon="113.91117522693007"><ele>45.0</ele><time>2026-04-15T09:32:35.999Z</time></trkpt><trkpt lat="-26.310937052451028" lon="113.91101358245332"><ele>43.0</ele><time>2026-04-15T09:32:36.999Z</time></trkpt><trkpt lat="-26.310680098842496" lon="113.91084940487181"><ele>41.0</ele><time>2026-04-15T09:32:37.999Z</time></trkpt><trkpt lat="-26.310423805488377" lon="113.91068594915681"><ele>41.0</ele><time>2026-04-15T09:32:38.999Z</time></trkpt><trkpt lat="-26.310169939811903" lon="113.91052499104562"><ele>41.0</ele><time>2026-04-15T09:32:39.999Z</time></trkpt><trkpt lat="-26.309915398812073" lon="113.91036502248066"><ele>41.5</ele><time>2026-04-15T09:32:40.999Z</time></trkpt><trkpt lat="-26.309659409498785" lon="113.9102050793807"><ele>42.0</ele><time>2026-04-15T09:32:41.999Z</time></trkpt><trkpt lat="-26.309401776257477" lon="113.91004334020074"><ele>42.0</ele><time>2026-04-15T09:32:42.999Z</time></trkpt><trkpt lat="-26.309145208242885" lon="113.90987964538813"><ele>42.0</ele><time>2026-04-15T09:32:44Z</time></trkpt><trkpt lat="-26.3088921219167" lon="113.90971903966428"><ele>42.0</ele><time>2026-04-15T09:32:45Z</time></trkpt><trkpt lat="-26.308640069150414" lon="113.90956014388593"><ele>42.0</ele><time>2026-04-15T09:32:46Z</time></trkpt><trkpt lat="-26.30839014933422" lon="113.9093990973122"><ele>40.0</ele><time>2026-04-15T09:32:47Z</time></trkpt><trkpt lat="-26.3081450369343" lon="113.90923795857732"><ele>38.0</ele><time>2026-04-15T09:32:48Z</time></trkpt><trkpt lat="-26.307902390071956" lon="113.90908006590496"><ele>38.0</ele><time>2026-04-15T09:32:49Z</time></trkpt><trkpt lat="-26.307657655962284" lon="113.90892590539593"><ele>38.0</ele><time>2026-04-15T09:32:50Z</time></trkpt><trkpt lat="-26.30741657866299" lon="113.90877300825879"><ele>38.5</ele><time>2026-04-15T09:32:51Z</time></trkpt><trkpt lat="-26.30717863768267" lon="113.90862222719916"><ele>39.0</ele><time>2026-04-15T09:32:52Z</time></trkpt><trkpt lat="-26.306940873975666" lon="113.90846836653085"><ele>38.5</ele><time>2026-04-15T09:32:53Z</time></trkpt><trkpt lat="-26.306701582737954" lon="113.90831696248716"><ele>38.0</ele><time>2026-04-15T09:32:54Z</time></trkpt><trkpt lat="-26.30646167712335" lon="113.90816934188119"><ele>37.0</ele><time>2026-04-15T09:32:55Z</time></trkpt><trkpt lat="-26.306220253222573" lon="113.90802154116817"><ele>36.0</ele><time>2026-04-15T09:32:56Z</time></trkpt><trkpt lat="-26.305978685539777" lon="113.90787043961436"><ele>36.0</ele><time>2026-04-15T09:32:57Z</time></trkpt><trkpt lat="-26.305738542666525" lon="113.90771931574109"><ele>36.0</ele><time>2026-04-15T09:32:58Z</time></trkpt><trkpt lat="-26.30549940930316" lon="113.90756479521748"><ele>35.0</ele><time>2026-04-15T09:32:59Z</time></trkpt><trkpt lat="-26.305260368280436" lon="113.9074068257418"><ele>34.0</ele><time>2026-04-15T09:33:00Z</time></trkpt><trkpt lat="-26.3050222520544" lon="113.9072463980396"><ele>34.0</ele><time>2026-04-15T09:33:01Z</time></trkpt><trkpt lat="-26.304786025818046" lon="113.90709014027797"><ele>34.0</ele><time>2026-04-15T09:33:02Z</time></trkpt><trkpt lat="-26.304546264356656" lon="113.90693636865211"><ele>34.5</ele><time>2026-04-15T09:33:03Z</time></trkpt><trkpt lat="-26.30430179981279" lon="113.90677955029989"><ele>35.0</ele><time>2026-04-15T09:33:04Z</time></trkpt><trkpt lat="-26.304053259326892" lon="113.90661920914181"><ele>34.0</ele><time>2026-04-15T09:33:05Z</time></trkpt><trkpt lat="-26.303804318303555" lon="113.90646084210384"><ele>33.0</ele><time>2026-04-15T09:33:06Z</time></trkpt><trkpt lat="-26.303548441111616" lon="113.90630395189064"><ele>33.0</ele><time>2026-04-15T09:33:07Z</time></trkpt><trkpt lat="-26.303285207710026" lon="113.90614466579866"><ele>33.0</ele><time>2026-04-15T09:33:08Z</time></trkpt><trkpt lat="-26.303024133889927" lon="113.90598273492775"><ele>34.5</ele><time>2026-04-15T09:33:09Z</time></trkpt><trkpt lat="-26.30276415353172" lon="113.90582380910864"><ele>36.0</ele><time>2026-04-15T09:33:10Z</time></trkpt><trkpt lat="-26.302513981755826" lon="113.90566765698004"><ele>36.0</ele><time>2026-04-15T09:33:11Z</time></trkpt><trkpt lat="-26.302269127532515" lon="113.90551409985936"><ele>36.0</ele><time>2026-04-15T09:33:12Z</time></trkpt><trkpt lat="-26.30202964474977" lon="113.90535669292034"><ele>34.5</ele><time>2026-04-15T09:33:13Z</time></trkpt><trkpt lat="-26.3017959455007" lon="113.90519749041167"><ele>33.0</ele><time>2026-04-15T09:33:14Z</time></trkpt><trkpt lat="-26.30156487712409" lon="113.90504211012593"><ele>33.0</ele><time>2026-04-15T09:33:15Z</time></trkpt><trkpt lat="-26.301334201347437" lon="113.90489371835291"><ele>33.0</ele><time>2026-04-15T09:33:16Z</time></trkpt><trkpt lat="-26.301104480563183" lon="113.90475044186867"><ele>33.0</ele><time>2026-04-15T09:33:17Z</time></trkpt><trkpt lat="-26.30087574971377" lon="113.90460951349243"><ele>33.0</ele><time>2026-04-15T09:33:18Z</time></trkpt><trkpt lat="-26.300649453825095" lon="113.90446834054431"><ele>34.0</ele><time>2026-04-15T09:33:19Z</time></trkpt><trkpt lat="-26.300423993830403" lon="113.90432810968818"><ele>35.0</ele><time>2026-04-15T09:33:20Z</time></trkpt><trkpt lat="-26.300199809219535" lon="113.90418376421803"><ele>35.0</ele><time>2026-04-15T09:33:21Z</time></trkpt><trkpt lat="-26.299975478876334" lon="113.90403649241782"><ele>35.0</ele><time>2026-04-15T09:33:22Z</time></trkpt><trkpt lat="-26.299751067758297" lon="113.90389094079075"><ele>36.5</ele><time>2026-04-15T09:33:23Z</time></trkpt><trkpt lat="-26.299521922566026" lon="113.90374454243819"><ele>38.0</ele><time>2026-04-15T09:33:24Z</time></trkpt><trkpt lat="-26.299291054918996" lon="113.90359437241791"><ele>38.0</ele><time>2026-04-15T09:33:25Z</time></trkpt><trkpt lat="-26.299058515173552" lon="113.90344769399243"><ele>38.0</ele><time>2026-04-15T09:33:26Z</time></trkpt><trkpt lat="-26.29882736230608" lon="113.90330209141388"><ele>38.5</ele><time>2026-04-15T09:33:27Z</time></trkpt><trkpt lat="-26.298600395028433" lon="113.90315520916575"><ele>39.0</ele><time>2026-04-15T09:33:28Z</time></trkpt><trkpt lat="-26.298378609631428" lon="113.9030024496402"><ele>39.0</ele><time>2026-04-15T09:33:29Z</time></trkpt><trkpt lat="-26.29816291807114" lon="113.90284322914177"><ele>39.0</ele><time>2026-04-15T09:33:30Z</time></trkpt><trkpt lat="-26.297949950243403" lon="113.90267550122105"><ele>39.5</ele><time>2026-04-15T09:33:31Z</time></trkpt><trkpt lat="-26.297741259697798" lon="113.90250791756141"><ele>40.0</ele><time>2026-04-15T09:33:32Z</time></trkpt><trkpt lat="-26.297535542194616" lon="113.9023402257722"><ele>40.0</ele><time>2026-04-15T09:33:33Z</time></trkpt><trkpt lat="-26.297334104805277" lon="113.90217300524482"><ele>40.0</ele><time>2026-04-15T09:33:34Z</time></trkpt><trkpt lat="-26.2971321176691" lon="113.90200683480818"><ele>40.5</ele><time>2026-04-15T09:33:35Z</time></trkpt><trkpt lat="-26.296931516175075" lon="113.90183814742083"><ele>41.0</ele><time>2026-04-15T09:33:36Z</time></trkpt><trkpt lat="-26.29673537601346" lon="113.90166359487753"><ele>41.0</ele><time>2026-04-15T09:33:37Z</time></trkpt><trkpt lat="-26.296544633099405" lon="113.9014843693406"><ele>41.0</ele><time>2026-04-15T09:33:38Z</time></trkpt><trkpt lat="-26.296358853741626" lon="113.90130216266425"><ele>41.5</ele><time>2026-04-15T09:33:39Z</time></trkpt><trkpt lat="-26.29617629215871" lon="113.90111875839348"><ele>42.0</ele><time>2026-04-15T09:33:40Z</time></trkpt><trkpt lat="-26.295993910882846" lon="113.90093552605073"><ele>40.0</ele><time>2026-04-15T09:33:41Z</time></trkpt><trkpt lat="-26.295805237750855" lon="113.90074550093536"><ele>38.0</ele><time>2026-04-15T09:33:42Z</time></trkpt><trkpt lat="-26.295618507736293" lon="113.90054891652186"><ele>35.5</ele><time>2026-04-15T09:33:43Z</time></trkpt><trkpt lat="-26.295434870904483" lon="113.90034518869017"><ele>33.0</ele><time>2026-04-15T09:33:44Z</time></trkpt><trkpt lat="-26.29525297917514" lon="113.90013952191713"><ele>35.5</ele><time>2026-04-15T09:33:45Z</time></trkpt><trkpt lat="-26.295071239365544" lon="113.89993199426806"><ele>38.0</ele><time>2026-04-15T09:33:46Z</time></trkpt><trkpt lat="-26.29489300447926" lon="113.89972360196667"><ele>36.5</ele><time>2026-04-15T09:33:47Z</time></trkpt><trkpt lat="-26.29471721700811" lon="113.89951122447357"><ele>35.0</ele><time>2026-04-15T09:33:48Z</time></trkpt><trkpt lat="-26.29454477790113" lon="113.89929929766569"><ele>36.0</ele><time>2026-04-15T09:33:49Z</time></trkpt><trkpt lat="-26.29437201445313" lon="113.89908791780528"><ele>37.0</ele><time>2026-04-15T09:33:50Z</time></trkpt><trkpt lat="-26.294198445327012" lon="113.89888371798897"><ele>37.0</ele><time>2026-04-15T09:33:51Z</time></trkpt><trkpt lat="-26.294023817127353" lon="113.89868406526813"><ele>37.0</ele><time>2026-04-15T09:33:52Z</time></trkpt><trkpt lat="-26.29385737442968" lon="113.89848806130102"><ele>37.0</ele><time>2026-04-15T09:33:53Z</time></trkpt><trkpt lat="-26.29369346592971" lon="113.89829023390271"><ele>37.0</ele><time>2026-04-15T09:33:54Z</time></trkpt><trkpt lat="-26.293528151567273" lon="113.89809164941934"><ele>37.0</ele><time>2026-04-15T09:33:55Z</time></trkpt><trkpt lat="-26.29336687094181" lon="113.89790183632276"><ele>37.0</ele><time>2026-04-15T09:33:56Z</time></trkpt><trkpt lat="-26.293221257283182" lon="113.89772611564338"><ele>37.0</ele><time>2026-04-15T09:33:57Z</time></trkpt><trkpt lat="-26.293085027711488" lon="113.89756466415666"><ele>37.66666666666667</ele><time>2026-04-15T09:33:58Z</time></trkpt><trkpt lat="-26.292952016674572" lon="113.89741454448026"><ele>38.333333333333336</ele><time>2026-04-15T09:33:59Z</time></trkpt><trkpt lat="-26.29281723977228" lon="113.8972609993782"><ele>39.0</ele><time>2026-04-15T09:34:00Z</time></trkpt><trkpt lat="-26.29267378982672" lon="113.89709349633239"><ele>39.0</ele><time>2026-04-15T09:34:01Z</time></trkpt><trkpt lat="-26.292523132835765" lon="113.89691253656969"><ele>39.0</ele><time>2026-04-15T09:34:02Z</time></trkpt><trkpt lat="-26.292366204749158" lon="113.89672024574246"><ele>39.0</ele><time>2026-04-15T09:34:03Z</time></trkpt><trkpt lat="-26.292203074958028" lon="113.8965236409509"><ele>39.0</ele><time>2026-04-15T09:34:04Z</time></trkpt><trkpt lat="-26.292032577839073" lon="113.89631992813182"><ele>39.0</ele><time>2026-04-15T09:34:05Z</time></trkpt><trkpt lat="-26.29185651590496" lon="113.89610769962631"><ele>39.0</ele><time>2026-04-15T09:34:06Z</time></trkpt><trkpt lat="-26.29167249002281" lon="113.89588530483068"><ele>41.0</ele><time>2026-04-15T09:34:07Z</time></trkpt><trkpt lat="-26.29148005648225" lon="113.89565411698548"><ele>43.0</ele><time>2026-04-15T09:34:08Z</time></trkpt><trkpt lat="-26.291278050825543" lon="113.89541538277953"><ele>43.5</ele><time>2026-04-15T09:34:09Z</time></trkpt><trkpt lat="-26.291067959130814" lon="113.89517296803308"><ele>44.0</ele><time>2026-04-15T09:34:10Z</time></trkpt><trkpt lat="-26.29085617870598" lon="113.8949284909172"><ele>45.0</ele><time>2026-04-15T09:34:11Z</time></trkpt><trkpt lat="-26.290643924954004" lon="113.89468251164094"><ele>46.0</ele><time>2026-04-15T09:34:12Z</time></trkpt><trkpt lat="-26.290433033492523" lon="113.89443372476644"><ele>47.5</ele><time>2026-04-15T09:34:13Z</time></trkpt><trkpt lat="-26.290221764371985" lon="113.89418303951139"><ele>49.0</ele><time>2026-04-15T09:34:14Z</time></trkpt><trkpt lat="-26.290009733298607" lon="113.8939279711171"><ele>49.0</ele><time>2026-04-15T09:34:15Z</time></trkpt><trkpt lat="-26.28979885080548" lon="113.89367326242892"><ele>49.0</ele><time>2026-04-15T09:34:16Z</time></trkpt><trkpt lat="-26.289587450952887" lon="113.89341941560885"><ele>49.0</ele><time>2026-04-15T09:34:17Z</time></trkpt><trkpt lat="-26.28937376513963" lon="113.8931673646911"><ele>49.0</ele><time>2026-04-15T09:34:18Z</time></trkpt><trkpt lat="-26.289159779762905" lon="113.89291695624627"><ele>49.0</ele><time>2026-04-15T09:34:19Z</time></trkpt><trkpt lat="-26.288946497477035" lon="113.89266558116834"><ele>49.0</ele><time>2026-04-15T09:34:20Z</time></trkpt><trkpt lat="-26.288734153771305" lon="113.89241465022837"><ele>49.5</ele><time>2026-04-15T09:34:21Z</time></trkpt><trkpt lat="-26.288522143275053" lon="113.89216275541095"><ele>50.0</ele><time>2026-04-15T09:34:22Z</time></trkpt><trkpt lat="-26.288310012738926" lon="113.8919125575898"><ele>50.5</ele><time>2026-04-15T09:34:22.999Z</time></trkpt><trkpt lat="-26.28810014860766" lon="113.89166327074331"><ele>51.0</ele><time>2026-04-15T09:34:23.999Z</time></trkpt><trkpt lat="-26.28789051267818" lon="113.89141120148385"><ele>51.0</ele><time>2026-04-15T09:34:24.999Z</time></trkpt><trkpt lat="-26.287682711709902" lon="113.89115928651253"><ele>51.0</ele><time>2026-04-15T09:34:25.999Z</time></trkpt><trkpt lat="-26.287471295020076" lon="113.89090757150525"><ele>48.5</ele><time>2026-04-15T09:34:26.999Z</time></trkpt><trkpt lat="-26.287257975943838" lon="113.89065621417568"><ele>46.0</ele><time>2026-04-15T09:34:27.999Z</time></trkpt><trkpt lat="-26.28704422074868" lon="113.89040706529507"><ele>46.0</ele><time>2026-04-15T09:34:28.999Z</time></trkpt><trkpt lat="-26.286827220681314" lon="113.8901565577439"><ele>46.0</ele><time>2026-04-15T09:34:29.999Z</time></trkpt><trkpt lat="-26.286609736968494" lon="113.88990794456824"><ele>47.0</ele><time>2026-04-15T09:34:30.999Z</time></trkpt><trkpt lat="-26.286392263030287" lon="113.88965653216084"><ele>48.0</ele><time>2026-04-15T09:34:31.999Z</time></trkpt><trkpt lat="-26.286176984077017" lon="113.88940354180208"><ele>47.0</ele><time>2026-04-15T09:34:32.999Z</time></trkpt><trkpt lat="-26.2859632129005" lon="113.88915054114453"><ele>46.0</ele><time>2026-04-15T09:34:33.999Z</time></trkpt><trkpt lat="-26.28574993768651" lon="113.88889527474193"><ele>45.5</ele><time>2026-04-15T09:34:34.999Z</time></trkpt><trkpt lat="-26.285538525436934" lon="113.88864283046534"><ele>45.0</ele><time>2026-04-15T09:34:35.999Z</time></trkpt><trkpt lat="-26.285326692179844" lon="113.88839006893244"><ele>44.5</ele><time>2026-04-15T09:34:36.999Z</time></trkpt><trkpt lat="-26.285116592228164" lon="113.88813995725546"><ele>44.0</ele><time>2026-04-15T09:34:37.999Z</time></trkpt><trkpt lat="-26.284905741027213" lon="113.88789006258938"><ele>44.0</ele><time>2026-04-15T09:34:38.999Z</time></trkpt><trkpt lat="-26.284694553267304" lon="113.8876379468752"><ele>44.0</ele><time>2026-04-15T09:34:39.999Z</time></trkpt><trkpt lat="-26.28448364301801" lon="113.88738514821442"><ele>44.0</ele><time>2026-04-15T09:34:40.999Z</time></trkpt><trkpt lat="-26.284273035685125" lon="113.8871331232686"><ele>44.0</ele><time>2026-04-15T09:34:41.999Z</time></trkpt><trkpt lat="-26.284063485360587" lon="113.88688146957206"><ele>42.5</ele><time>2026-04-15T09:34:42.999Z</time></trkpt><trkpt lat="-26.28385438253388" lon="113.88663354412832"><ele>41.0</ele><time>2026-04-15T09:34:43.999Z</time></trkpt><trkpt lat="-26.283643176329313" lon="113.88638776289214"><ele>41.0</ele><time>2026-04-15T09:34:44.999Z</time></trkpt><trkpt lat="-26.283433006586236" lon="113.88614418345242"><ele>41.0</ele><time>2026-04-15T09:34:45.999Z</time></trkpt><trkpt lat="-26.28322564385021" lon="113.88590173594032"><ele>38.0</ele><time>2026-04-15T09:34:46.999Z</time></trkpt><trkpt lat="-26.283021870593682" lon="113.8856613445358"><ele>35.0</ele><time>2026-04-15T09:34:47.999Z</time></trkpt><trkpt lat="-26.282820079087507" lon="113.88542243501978"><ele>35.0</ele><time>2026-04-15T09:34:49Z</time></trkpt><trkpt lat="-26.28262077729087" lon="113.88518438140329"><ele>35.0</ele><time>2026-04-15T09:34:50Z</time></trkpt><trkpt lat="-26.282424678532774" lon="113.88494845838247"><ele>34.5</ele><time>2026-04-15T09:34:51Z</time></trkpt><trkpt lat="-26.282227356111562" lon="113.88471363025835"><ele>34.0</ele><time>2026-04-15T09:34:52Z</time></trkpt><trkpt lat="-26.282027694524" lon="113.884481139599"><ele>33.0</ele><time>2026-04-15T09:34:53Z</time></trkpt><trkpt lat="-26.281831694467122" lon="113.88424791322667"><ele>32.0</ele><time>2026-04-15T09:34:54Z</time></trkpt><trkpt lat="-26.28163773107294" lon="113.88400884960801"><ele>32.0</ele><time>2026-04-15T09:34:55Z</time></trkpt><trkpt lat="-26.281448294816496" lon="113.88376404187792"><ele>32.0</ele><time>2026-04-15T09:34:56Z</time></trkpt><trkpt lat="-26.28126504087179" lon="113.88351283446411"><ele>31.0</ele><time>2026-04-15T09:34:57Z</time></trkpt><trkpt lat="-26.281087305410264" lon="113.88325734833408"><ele>30.0</ele><time>2026-04-15T09:34:58Z</time></trkpt><trkpt lat="-26.280915626929865" lon="113.8829964940821"><ele>30.0</ele><time>2026-04-15T09:34:59Z</time></trkpt><trkpt lat="-26.280746908769196" lon="113.88272598987878"><ele>30.0</ele><time>2026-04-15T09:35:00Z</time></trkpt><trkpt lat="-26.28058385735787" lon="113.8824525408264"><ele>28.5</ele><time>2026-04-15T09:35:01Z</time></trkpt><trkpt lat="-26.280429228678198" lon="113.88217480792514"><ele>27.0</ele><time>2026-04-15T09:35:02Z</time></trkpt><trkpt lat="-26.280281663251092" lon="113.88189456837772"><ele>25.0</ele><time>2026-04-15T09:35:03Z</time></trkpt><trkpt lat="-26.28014333176572" lon="113.8816144044184"><ele>23.0</ele><time>2026-04-15T09:35:04Z</time></trkpt><trkpt lat="-26.28001033566356" lon="113.88133372862232"><ele>23.0</ele><time>2026-04-15T09:35:05Z</time></trkpt><trkpt lat="-26.279885926389642" lon="113.88106061916342"><ele>23.0</ele><time>2026-04-15T09:35:06Z</time></trkpt><trkpt lat="-26.279764227224998" lon="113.88078379272972"><ele>21.5</ele><time>2026-04-15T09:35:07Z</time></trkpt><trkpt lat="-26.279641313325715" lon="113.88050439182767"><ele>20.0</ele><time>2026-04-15T09:35:08Z</time></trkpt><trkpt lat="-26.279516359759405" lon="113.8802262930579"><ele>17.5</ele><time>2026-04-15T09:35:09Z</time></trkpt><trkpt lat="-26.27939000701961" lon="113.87994744894716"><ele>15.0</ele><time>2026-04-15T09:35:10Z</time></trkpt><trkpt lat="-26.279266504539898" lon="113.87967007363923"><ele>15.0</ele><time>2026-04-15T09:35:11Z</time></trkpt><trkpt lat="-26.27914305999164" lon="113.87939232787195"><ele>15.0</ele><time>2026-04-15T09:35:12Z</time></trkpt><trkpt lat="-26.27902050259337" lon="113.87911582340683"><ele>15.0</ele><time>2026-04-15T09:35:13Z</time></trkpt><trkpt lat="-26.278898627950376" lon="113.87883605439265"><ele>15.0</ele><time>2026-04-15T09:35:14Z</time></trkpt><trkpt lat="-26.278777807456994" lon="113.8785570257075"><ele>14.5</ele><time>2026-04-15T09:35:15Z</time></trkpt><trkpt lat="-26.27865401606968" lon="113.87827384526908"><ele>14.0</ele><time>2026-04-15T09:35:16Z</time></trkpt><trkpt lat="-26.278528203973746" lon="113.87798942853931"><ele>14.0</ele><time>2026-04-15T09:35:17Z</time></trkpt><trkpt lat="-26.27840229127305" lon="113.87770525096423"><ele>14.0</ele><time>2026-04-15T09:35:18Z</time></trkpt><trkpt lat="-26.27827528689828" lon="113.877422252414"><ele>15.0</ele><time>2026-04-15T09:35:19Z</time></trkpt><trkpt lat="-26.27814760859899" lon="113.87714343125165"><ele>16.0</ele><time>2026-04-15T09:35:20Z</time></trkpt><trkpt lat="-26.278019073597008" lon="113.8768601345471"><ele>19.0</ele><time>2026-04-15T09:35:21Z</time></trkpt><trkpt lat="-26.277891100265578" lon="113.87657277159072"><ele>22.0</ele><time>2026-04-15T09:35:22Z</time></trkpt><trkpt lat="-26.277762526764395" lon="113.87628358281722"><ele>22.0</ele><time>2026-04-15T09:35:23Z</time></trkpt><trkpt lat="-26.277634567037193" lon="113.87599395723639"><ele>22.0</ele><time>2026-04-15T09:35:24Z</time></trkpt><trkpt lat="-26.277508891263523" lon="113.87570991463359"><ele>23.5</ele><time>2026-04-15T09:35:25Z</time></trkpt><trkpt lat="-26.277383925036016" lon="113.87542714943652"><ele>25.0</ele><time>2026-04-15T09:35:26Z</time></trkpt><trkpt lat="-26.27725829595359" lon="113.8751442195578"><ele>27.0</ele><time>2026-04-15T09:35:27Z</time></trkpt><trkpt lat="-26.277131715503586" lon="113.87486249031113"><ele>29.0</ele><time>2026-04-15T09:35:28Z</time></trkpt><trkpt lat="-26.277004762629687" lon="113.87458037888855"><ele>29.0</ele><time>2026-04-15T09:35:29Z</time></trkpt><trkpt lat="-26.276876801188607" lon="113.87429764538209"><ele>29.0</ele><time>2026-04-15T09:35:30Z</time></trkpt><trkpt lat="-26.276747524670963" lon="113.87401243174816"><ele>30.0</ele><time>2026-04-15T09:35:31Z</time></trkpt><trkpt lat="-26.27661738651445" lon="113.87372286578345"><ele>31.0</ele><time>2026-04-15T09:35:32Z</time></trkpt><trkpt lat="-26.27648402222066" lon="113.87343164718044"><ele>30.0</ele><time>2026-04-15T09:35:33Z</time></trkpt><trkpt lat="-26.27635234951683" lon="113.87314449019631"><ele>29.0</ele><time>2026-04-15T09:35:34Z</time></trkpt><trkpt lat="-26.276224577688982" lon="113.87285776276684"><ele>30.0</ele><time>2026-04-15T09:35:35Z</time></trkpt><trkpt lat="-26.27609980985292" lon="113.87257661581722"><ele>31.0</ele><time>2026-04-15T09:35:36Z</time></trkpt><trkpt lat="-26.2759746428021" lon="113.87229737566344"><ele>31.0</ele><time>2026-04-15T09:35:37Z</time></trkpt><trkpt lat="-26.275849775247366" lon="113.8720147527892"><ele>31.0</ele><time>2026-04-15T09:35:38Z</time></trkpt><trkpt lat="-26.275725334320835" lon="113.87173270575306"><ele>31.5</ele><time>2026-04-15T09:35:39Z</time></trkpt><trkpt lat="-26.27559883082585" lon="113.87144739908283"><ele>32.0</ele><time>2026-04-15T09:35:40Z</time></trkpt><trkpt lat="-26.275472840479637" lon="113.87116270798732"><ele>32.5</ele><time>2026-04-15T09:35:41Z</time></trkpt><trkpt lat="-26.27534588941787" lon="113.8708727613439"><ele>33.0</ele><time>2026-04-15T09:35:42Z</time></trkpt><trkpt lat="-26.275217764461257" lon="113.87058441447448"><ele>33.0</ele><time>2026-04-15T09:35:43Z</time></trkpt><trkpt lat="-26.27508911295041" lon="113.87029276437124"><ele>33.0</ele><time>2026-04-15T09:35:44Z</time></trkpt><trkpt lat="-26.27495966927527" lon="113.87000360459298"><ele>33.0</ele><time>2026-04-15T09:35:45Z</time></trkpt><trkpt lat="-26.274830320145764" lon="113.86971230939521"><ele>33.0</ele><time>2026-04-15T09:35:46Z</time></trkpt><trkpt lat="-26.274700993568143" lon="113.86942081032065"><ele>33.0</ele><time>2026-04-15T09:35:47Z</time></trkpt><trkpt lat="-26.274571703368235" lon="113.8691318075985"><ele>33.0</ele><time>2026-04-15T09:35:48Z</time></trkpt><trkpt lat="-26.274441703031822" lon="113.86884012465795"><ele>33.0</ele><time>2026-04-15T09:35:49Z</time></trkpt><trkpt lat="-26.274312585107133" lon="113.8685494319893"><ele>33.0</ele><time>2026-04-15T09:35:50Z</time></trkpt><trkpt lat="-26.27418267157695" lon="113.86825871357048"><ele>33.0</ele><time>2026-04-15T09:35:51Z</time></trkpt><trkpt lat="-26.274050808776547" lon="113.86796769841014"><ele>33.0</ele><time>2026-04-15T09:35:52Z</time></trkpt><trkpt lat="-26.273919006911914" lon="113.86767859241826"><ele>30.0</ele><time>2026-04-15T09:35:53Z</time></trkpt><trkpt lat="-26.27378932862817" lon="113.86738946021698"><ele>27.0</ele><time>2026-04-15T09:35:54Z</time></trkpt><trkpt lat="-26.27365888700837" lon="113.86710201922052"><ele>27.0</ele><time>2026-04-15T09:35:55Z</time></trkpt><trkpt lat="-26.273531849019584" lon="113.8668099846959"><ele>27.0</ele><time>2026-04-15T09:35:56Z</time></trkpt><trkpt lat="-26.27340688085116" lon="113.86651889831685"><ele>26.5</ele><time>2026-04-15T09:35:57Z</time></trkpt><trkpt lat="-26.273279245495914" lon="113.86623141448214"><ele>26.0</ele><time>2026-04-15T09:35:58Z</time></trkpt><trkpt lat="-26.27314958640803" lon="113.8659439799929"><ele>26.5</ele><time>2026-04-15T09:35:59Z</time></trkpt><trkpt lat="-26.273017782346518" lon="113.86565865015902"><ele>27.0</ele><time>2026-04-15T09:36:00Z</time></trkpt><trkpt lat="-26.27288664646779" lon="113.8653728876106"><ele>25.5</ele><time>2026-04-15T09:36:01Z</time></trkpt><trkpt lat="-26.272755793435635" lon="113.8650846238681"><ele>24.0</ele><time>2026-04-15T09:36:01.999Z</time></trkpt><trkpt lat="-26.272625360813798" lon="113.86478448934098"><ele>24.0</ele><time>2026-04-15T09:36:02.999Z</time></trkpt><trkpt lat="-26.272497728979438" lon="113.86447937179811"><ele>24.0</ele><time>2026-04-15T09:36:03.999Z</time></trkpt><trkpt lat="-26.27236559363262" lon="113.86417456310984"><ele>23.5</ele><time>2026-04-15T09:36:04.999Z</time></trkpt><trkpt lat="-26.272231921515303" lon="113.86387460793374"><ele>23.0</ele><time>2026-04-15T09:36:05.999Z</time></trkpt><trkpt lat="-26.272094757958016" lon="113.86357770529267"><ele>22.0</ele><time>2026-04-15T09:36:06.999Z</time></trkpt><trkpt lat="-26.271961228225432" lon="113.863280180187"><ele>21.0</ele><time>2026-04-15T09:36:07.999Z</time></trkpt><trkpt lat="-26.27182820851038" lon="113.86297468306383"><ele>21.0</ele><time>2026-04-15T09:36:08.999Z</time></trkpt><trkpt lat="-26.271698499158262" lon="113.86266967557835"><ele>21.0</ele><time>2026-04-15T09:36:09.999Z</time></trkpt><trkpt lat="-26.271563135015676" lon="113.86236157171034"><ele>19.5</ele><time>2026-04-15T09:36:10.999Z</time></trkpt><trkpt lat="-26.27142755854338" lon="113.86205900950625"><ele>18.0</ele><time>2026-04-15T09:36:11.999Z</time></trkpt><trkpt lat="-26.271291151574943" lon="113.86175499876927"><ele>16.0</ele><time>2026-04-15T09:36:12.999Z</time></trkpt><trkpt lat="-26.271152874372977" lon="113.8614494602049"><ele>14.0</ele><time>2026-04-15T09:36:13.999Z</time></trkpt><trkpt lat="-26.271015643448663" lon="113.8611469969311"><ele>13.5</ele><time>2026-04-15T09:36:14.999Z</time></trkpt><trkpt lat="-26.270880849505883" lon="113.86084825228042"><ele>13.0</ele><time>2026-04-15T09:36:15.999Z</time></trkpt><trkpt lat="-26.270748341530773" lon="113.86055094817127"><ele>13.0</ele><time>2026-04-15T09:36:16.999Z</time></trkpt><trkpt lat="-26.270618330267432" lon="113.86025351896747"><ele>13.0</ele><time>2026-04-15T09:36:17.999Z</time></trkpt><trkpt lat="-26.270490594301624" lon="113.85996448335108"><ele>16.0</ele><time>2026-04-15T09:36:18.999Z</time></trkpt><trkpt lat="-26.27036444502913" lon="113.85968002070022"><ele>19.0</ele><time>2026-04-15T09:36:19.999Z</time></trkpt><trkpt lat="-26.270233431320165" lon="113.85939367605346"><ele>16.5</ele><time>2026-04-15T09:36:20.999Z</time></trkpt><trkpt lat="-26.27010276715155" lon="113.85910421810996"><ele>14.0</ele><time>2026-04-15T09:36:21.999Z</time></trkpt><trkpt lat="-26.269971934600793" lon="113.85881576813101"><ele>14.0</ele><time>2026-04-15T09:36:22.999Z</time></trkpt><trkpt lat="-26.269840019061395" lon="113.85852501520964"><ele>14.0</ele><time>2026-04-15T09:36:23.999Z</time></trkpt><trkpt lat="-26.26970670773918" lon="113.85822963465269"><ele>15.0</ele><time>2026-04-15T09:36:24.999Z</time></trkpt><trkpt lat="-26.269573886888963" lon="113.85793204514422"><ele>16.0</ele><time>2026-04-15T09:36:25.999Z</time></trkpt><trkpt lat="-26.269443796984557" lon="113.85763609084144"><ele>14.5</ele><time>2026-04-15T09:36:26.999Z</time></trkpt><trkpt lat="-26.2693107881427" lon="113.85734260752639"><ele>13.0</ele><time>2026-04-15T09:36:27.999Z</time></trkpt><trkpt lat="-26.269178809362973" lon="113.8570501495297"><ele>12.0</ele><time>2026-04-15T09:36:28.999Z</time></trkpt><trkpt lat="-26.269049871925283" lon="113.85675306875241"><ele>11.0</ele><time>2026-04-15T09:36:29.999Z</time></trkpt><trkpt lat="-26.268923035307285" lon="113.85645659702986"><ele>11.0</ele><time>2026-04-15T09:36:30.999Z</time></trkpt><trkpt lat="-26.26879330677641" lon="113.85616063942608"><ele>11.0</ele><time>2026-04-15T09:36:31.999Z</time></trkpt><trkpt lat="-26.26866254502994" lon="113.8558637074378"><ele>9.5</ele><time>2026-04-15T09:36:32.999Z</time></trkpt><trkpt lat="-26.268530120879685" lon="113.85557047294061"><ele>8.0</ele><time>2026-04-15T09:36:33.999Z</time></trkpt><trkpt lat="-26.268398520644745" lon="113.85527842455572"><ele>6.5</ele><time>2026-04-15T09:36:34.999Z</time></trkpt><trkpt lat="-26.26826729186826" lon="113.85498754420847"><ele>5.0</ele><time>2026-04-15T09:36:35.999Z</time></trkpt><trkpt lat="-26.268136413339853" lon="113.85469746853126"><ele>8.0</ele><time>2026-04-15T09:36:36.999Z</time></trkpt><trkpt lat="-26.268006832903065" lon="113.85440726905433"><ele>11.0</ele><time>2026-04-15T09:36:37.999Z</time></trkpt><trkpt lat="-26.267877097963087" lon="113.8541157920861"><ele>11.0</ele><time>2026-04-15T09:36:38.999Z</time></trkpt><trkpt lat="-26.26774854348255" lon="113.85382649777694"><ele>11.0</ele><time>2026-04-15T09:36:39.999Z</time></trkpt><trkpt lat="-26.267620712126707" lon="113.8535388927264"><ele>10.0</ele><time>2026-04-15T09:36:40.999Z</time></trkpt><trkpt lat="-26.26749381769617" lon="113.85325093356698"><ele>9.0</ele><time>2026-04-15T09:36:41.999Z</time></trkpt><trkpt lat="-26.26736768654338" lon="113.85296683020589"><ele>9.0</ele><time>2026-04-15T09:36:42.999Z</time></trkpt><trkpt lat="-26.267240376420954" lon="113.85268154800865"><ele>9.0</ele><time>2026-04-15T09:36:43.999Z</time></trkpt><trkpt lat="-26.267112424858873" lon="113.8523943379661"><ele>9.0</ele><time>2026-04-15T09:36:44.999Z</time></trkpt><trkpt lat="-26.266981399592254" lon="113.85210361595104"><ele>9.0</ele><time>2026-04-15T09:36:45.999Z</time></trkpt><trkpt lat="-26.266844543308956" lon="113.85180967857738"><ele>7.5</ele><time>2026-04-15T09:36:46.999Z</time></trkpt><trkpt lat="-26.266705538488697" lon="113.85151251102103"><ele>6.0</ele><time>2026-04-15T09:36:47.999Z</time></trkpt><trkpt lat="-26.26657063808791" lon="113.85121586351677"><ele>6.5</ele><time>2026-04-15T09:36:48.999Z</time></trkpt><trkpt lat="-26.266440260280202" lon="113.85092360009068"><ele>7.0</ele><time>2026-04-15T09:36:49.999Z</time></trkpt><trkpt lat="-26.26631083804342" lon="113.85063190605737"><ele>7.0</ele><time>2026-04-15T09:36:50.999Z</time></trkpt><trkpt lat="-26.2661823270131" lon="113.85034193216521"><ele>7.0</ele><time>2026-04-15T09:36:51.999Z</time></trkpt><trkpt lat="-26.266054632132832" lon="113.85005222170216"><ele>6.0</ele><time>2026-04-15T09:36:52.999Z</time></trkpt><trkpt lat="-26.26592715552443" lon="113.8497603001456"><ele>5.0</ele><time>2026-04-15T09:36:53.999Z</time></trkpt><trkpt lat="-26.26580021889546" lon="113.84946853629637"><ele>5.0</ele><time>2026-04-15T09:36:55Z</time></trkpt><trkpt lat="-26.265672309541976" lon="113.8491797359523"><ele>5.0</ele><time>2026-04-15T09:36:56Z</time></trkpt><trkpt lat="-26.265542564930943" lon="113.84889109393141"><ele>5.0</ele><time>2026-04-15T09:36:57Z</time></trkpt><trkpt lat="-26.26541475199298" lon="113.8486026604782"><ele>5.0</ele><time>2026-04-15T09:36:58Z</time></trkpt><trkpt lat="-26.265289205946715" lon="113.84831430086301"><ele>5.5</ele><time>2026-04-15T09:36:59Z</time></trkpt><trkpt lat="-26.265162536496323" lon="113.84802562132228"><ele>6.0</ele><time>2026-04-15T09:37:00Z</time></trkpt><trkpt lat="-26.265031534185056" lon="113.8477366523198"><ele>6.5</ele><time>2026-04-15T09:37:01Z</time></trkpt><trkpt lat="-26.26489796415125" lon="113.84744721213325"><ele>7.0</ele><time>2026-04-15T09:37:02Z</time></trkpt><trkpt lat="-26.264764192108068" lon="113.84715724827178"><ele>7.0</ele><time>2026-04-15T09:37:03Z</time></trkpt><trkpt lat="-26.264629938456547" lon="113.84686917089105"><ele>7.0</ele><time>2026-04-15T09:37:04Z</time></trkpt><trkpt lat="-26.264493627746816" lon="113.84658153730511"><ele>6.5</ele><time>2026-04-15T09:37:05Z</time></trkpt><trkpt lat="-26.2643572285741" lon="113.84629394739697"><ele>6.0</ele><time>2026-04-15T09:37:06Z</time></trkpt><trkpt lat="-26.26422252952317" lon="113.84600516123068"><ele>7.0</ele><time>2026-04-15T09:37:07Z</time></trkpt><trkpt lat="-26.264089744356202" lon="113.84571502683335"><ele>8.0</ele><time>2026-04-15T09:37:08Z</time></trkpt><trkpt lat="-26.26395470314208" lon="113.8454248364471"><ele>8.5</ele><time>2026-04-15T09:37:09Z</time></trkpt><trkpt lat="-26.263817511012405" lon="113.84513417633848"><ele>9.0</ele><time>2026-04-15T09:37:10Z</time></trkpt><trkpt lat="-26.263678929424383" lon="113.84484372793997"><ele>10.5</ele><time>2026-04-15T09:37:11Z</time></trkpt><trkpt lat="-26.263542631398373" lon="113.84455148870606"><ele>12.0</ele><time>2026-04-15T09:37:12Z</time></trkpt><trkpt lat="-26.26340505071041" lon="113.8442580241212"><ele>13.0</ele><time>2026-04-15T09:37:13Z</time></trkpt><trkpt lat="-26.26326652678449" lon="113.84396731382085"><ele>14.0</ele><time>2026-04-15T09:37:14Z</time></trkpt><trkpt lat="-26.263129827593563" lon="113.84367789860188"><ele>14.0</ele><time>2026-04-15T09:37:15Z</time></trkpt><trkpt lat="-26.26299212407328" lon="113.84338642905884"><ele>14.0</ele><time>2026-04-15T09:37:16Z</time></trkpt><trkpt lat="-26.26285496226939" lon="113.84309202386517"><ele>14.0</ele><time>2026-04-15T09:37:17Z</time></trkpt><trkpt lat="-26.262716128926858" lon="113.8427984842088"><ele>14.0</ele><time>2026-04-15T09:37:18Z</time></trkpt><trkpt lat="-26.262576607342105" lon="113.84250407265219"><ele>15.5</ele><time>2026-04-15T09:37:19Z</time></trkpt><trkpt lat="-26.262437436427266" lon="113.84220891915797"><ele>17.0</ele><time>2026-04-15T09:37:20Z</time></trkpt><trkpt lat="-26.262295693726408" lon="113.84191174345571"><ele>14.5</ele><time>2026-04-15T09:37:21Z</time></trkpt><trkpt lat="-26.262154449077457" lon="113.8416171601181"><ele>12.0</ele><time>2026-04-15T09:37:22Z</time></trkpt><trkpt lat="-26.262011150421465" lon="113.84132329358867"><ele>12.0</ele><time>2026-04-15T09:37:23Z</time></trkpt><trkpt lat="-26.26186866575197" lon="113.84102557341062"><ele>12.0</ele><time>2026-04-15T09:37:24Z</time></trkpt><trkpt lat="-26.261728661481758" lon="113.84072946333204"><ele>12.0</ele><time>2026-04-15T09:37:25Z</time></trkpt><trkpt lat="-26.261590408081716" lon="113.8404293902249"><ele>12.0</ele><time>2026-04-15T09:37:26Z</time></trkpt><trkpt lat="-26.26145182533916" lon="113.84013014477783"><ele>9.5</ele><time>2026-04-15T09:37:27Z</time></trkpt><trkpt lat="-26.261311695095422" lon="113.83983433847197"><ele>7.0</ele><time>2026-04-15T09:37:28Z</time></trkpt><trkpt lat="-26.26117096304631" lon="113.83954016050859"><ele>7.5</ele><time>2026-04-15T09:37:29Z</time></trkpt><trkpt lat="-26.261030078560385" lon="113.8392471180994"><ele>8.0</ele><time>2026-04-15T09:37:30Z</time></trkpt><trkpt lat="-26.26088850246892" lon="113.83895380438126"><ele>8.0</ele><time>2026-04-15T09:37:31Z</time></trkpt><trkpt lat="-26.26074366369595" lon="113.8386643208438"><ele>8.0</ele><time>2026-04-15T09:37:32Z</time></trkpt><trkpt lat="-26.260591540929234" lon="113.83838319455013"><ele>6.5</ele><time>2026-04-15T09:37:33Z</time></trkpt><trkpt lat="-26.26043214587002" lon="113.83810637347796"><ele>5.0</ele><time>2026-04-15T09:37:34Z</time></trkpt><trkpt lat="-26.260263711073414" lon="113.8378359898623"><ele>6.0</ele><time>2026-04-15T09:37:35Z</time></trkpt><trkpt lat="-26.260091028819613" lon="113.83757275367746"><ele>7.0</ele><time>2026-04-15T09:37:36Z</time></trkpt><trkpt lat="-26.259914968263583" lon="113.83731342544507"><ele>6.0</ele><time>2026-04-15T09:37:37Z</time></trkpt><trkpt lat="-26.25973713823632" lon="113.83705763119464"><ele>5.0</ele><time>2026-04-15T09:37:38Z</time></trkpt><trkpt lat="-26.25955648438138" lon="113.83680709210022"><ele>6.5</ele><time>2026-04-15T09:37:39Z</time></trkpt><trkpt lat="-26.259369294517317" lon="113.83656517854257"><ele>8.0</ele><time>2026-04-15T09:37:40Z</time></trkpt><trkpt lat="-26.259176473910387" lon="113.83632686852806"><ele>8.0</ele><time>2026-04-15T09:37:41Z</time></trkpt><trkpt lat="-26.258977653262065" lon="113.83609495736997"><ele>8.0</ele><time>2026-04-15T09:37:42Z</time></trkpt><trkpt lat="-26.258769005916587" lon="113.83586720750523"><ele>10.0</ele><time>2026-04-15T09:37:43Z</time></trkpt><trkpt lat="-26.258550100234057" lon="113.83564522704368"><ele>12.0</ele><time>2026-04-15T09:37:44Z</time></trkpt><trkpt lat="-26.25832580364997" lon="113.83543143789346"><ele>13.5</ele><time>2026-04-15T09:37:45Z</time></trkpt><trkpt lat="-26.258097457087313" lon="113.83522039828102"><ele>15.0</ele><time>2026-04-15T09:37:46Z</time></trkpt><trkpt lat="-26.257866249489382" lon="113.8350148595723"><ele>16.0</ele><time>2026-04-15T09:37:46.999Z</time></trkpt><trkpt lat="-26.257631014111528" lon="113.83481731240332"><ele>17.0</ele><time>2026-04-15T09:37:47.999Z</time></trkpt><trkpt lat="-26.25739341037326" lon="113.83462626361535"><ele>17.0</ele><time>2026-04-15T09:37:48.999Z</time></trkpt><trkpt lat="-26.25715635933406" lon="113.83443970114713"><ele>17.0</ele><time>2026-04-15T09:37:49.999Z</time></trkpt><trkpt lat="-26.256916495593728" lon="113.8342598824989"><ele>17.5</ele><time>2026-04-15T09:37:50.999Z</time></trkpt><trkpt lat="-26.256672481844575" lon="113.83409207716063"><ele>18.0</ele><time>2026-04-15T09:37:51.999Z</time></trkpt><trkpt lat="-26.25642147778696" lon="113.83393606379134"><ele>18.5</ele><time>2026-04-15T09:37:52.999Z</time></trkpt><trkpt lat="-26.256168049560657" lon="113.83378337949306"><ele>19.0</ele><time>2026-04-15T09:37:53.999Z</time></trkpt><trkpt lat="-26.25591598171965" lon="113.83363515436287"><ele>19.0</ele><time>2026-04-15T09:37:54.999Z</time></trkpt><trkpt lat="-26.255663735738477" lon="113.83349833144672"><ele>19.0</ele><time>2026-04-15T09:37:55.999Z</time></trkpt><trkpt lat="-26.25541218592149" lon="113.83337050791249"><ele>20.5</ele><time>2026-04-15T09:37:56.999Z</time></trkpt><trkpt lat="-26.25516180285238" lon="113.83324701354707"><ele>22.0</ele><time>2026-04-15T09:37:57.999Z</time></trkpt><trkpt lat="-26.25491338234368" lon="113.83313075582716"><ele>21.5</ele><time>2026-04-15T09:37:58.999Z</time></trkpt><trkpt lat="-26.25466441949538" lon="113.83302371987958"><ele>21.0</ele><time>2026-04-15T09:37:59.999Z</time></trkpt><trkpt lat="-26.25441992179275" lon="113.8329229801141"><ele>21.0</ele><time>2026-04-15T09:38:00.999Z</time></trkpt><trkpt lat="-26.254180663973887" lon="113.83280077434424"><ele>21.0</ele><time>2026-04-15T09:38:01.999Z</time></trkpt><trkpt lat="-26.253933317214617" lon="113.83268833487331"><ele>21.5</ele><time>2026-04-15T09:38:02.999Z</time></trkpt><trkpt lat="-26.253679728897005" lon="113.83259395116089"><ele>22.0</ele><time>2026-04-15T09:38:03.999Z</time></trkpt><trkpt lat="-26.253430574935145" lon="113.83247607124775"><ele>22.0</ele><time>2026-04-15T09:38:04.999Z</time></trkpt><trkpt lat="-26.253183414585138" lon="113.8323601132112"><ele>22.0</ele><time>2026-04-15T09:38:05.999Z</time></trkpt><trkpt lat="-26.252934468456758" lon="113.83224766416662"><ele>21.5</ele><time>2026-04-15T09:38:06.999Z</time></trkpt><trkpt lat="-26.25268528745009" lon="113.83213720940446"><ele>21.0</ele><time>2026-04-15T09:38:07.999Z</time></trkpt><trkpt lat="-26.252436114114445" lon="113.8320267886171"><ele>21.0</ele><time>2026-04-15T09:38:08.999Z</time></trkpt><trkpt lat="-26.252185924812142" lon="113.83191765713549"><ele>21.0</ele><time>2026-04-15T09:38:09.999Z</time></trkpt><trkpt lat="-26.251938263530178" lon="113.83181043403457"><ele>21.5</ele><time>2026-04-15T09:38:10.999Z</time></trkpt><trkpt lat="-26.251692894791255" lon="113.8317007223009"><ele>22.0</ele><time>2026-04-15T09:38:11.999Z</time></trkpt><trkpt lat="-26.25144887779664" lon="113.83158758814926"><ele>22.0</ele><time>2026-04-15T09:38:12.999Z</time></trkpt><trkpt lat="-26.251203302630874" lon="113.83147301443387"><ele>22.0</ele><time>2026-04-15T09:38:13.999Z</time></trkpt><trkpt lat="-26.25095401660437" lon="113.83135744392071"><ele>22.0</ele><time>2026-04-15T09:38:14.999Z</time></trkpt><trkpt lat="-26.250698609666866" lon="113.83124030884312"><ele>22.0</ele><time>2026-04-15T09:38:15.999Z</time></trkpt><trkpt lat="-26.250440765712717" lon="113.83112404224813"><ele>22.0</ele><time>2026-04-15T09:38:16.999Z</time></trkpt><trkpt lat="-26.250183375048486" lon="113.83100928591018"><ele>22.0</ele><time>2026-04-15T09:38:17.999Z</time></trkpt><trkpt lat="-26.249925547379462" lon="113.8308951130294"><ele>22.0</ele><time>2026-04-15T09:38:18.999Z</time></trkpt><trkpt lat="-26.24966418888238" lon="113.83077694941876"><ele>22.0</ele><time>2026-04-15T09:38:19.999Z</time></trkpt><trkpt lat="-26.249402714644226" lon="113.83065825116736"><ele>22.0</ele><time>2026-04-15T09:38:20.999Z</time></trkpt><trkpt lat="-26.249139332472996" lon="113.83053913515727"><ele>22.0</ele><time>2026-04-15T09:38:21.999Z</time></trkpt><trkpt lat="-26.248876704961187" lon="113.83042122895273"><ele>22.0</ele><time>2026-04-15T09:38:22.999Z</time></trkpt><trkpt lat="-26.248613347232634" lon="113.83030352529741"><ele>22.0</ele><time>2026-04-15T09:38:23.999Z</time></trkpt><trkpt lat="-26.2483527762253" lon="113.83018652748224"><ele>21.5</ele><time>2026-04-15T09:38:24.999Z</time></trkpt><trkpt lat="-26.24809386825596" lon="113.83007396844864"><ele>21.0</ele><time>2026-04-15T09:38:25.999Z</time></trkpt><trkpt lat="-26.247836320103946" lon="113.82996320165378"><ele>21.0</ele><time>2026-04-15T09:38:26.999Z</time></trkpt><trkpt lat="-26.247580631805008" lon="113.82985196278219"><ele>21.0</ele><time>2026-04-15T09:38:27.999Z</time></trkpt><trkpt lat="-26.24732760605113" lon="113.82974018394934"><ele>21.0</ele><time>2026-04-15T09:38:28.999Z</time></trkpt><trkpt lat="-26.247083568943324" lon="113.82962992990565"><ele>21.0</ele><time>2026-04-15T09:38:29.999Z</time></trkpt><trkpt lat="-26.246838585946264" lon="113.82952128086792"><ele>21.0</ele><time>2026-04-15T09:38:30.999Z</time></trkpt><trkpt lat="-26.24659597826801" lon="113.82941140350037"><ele>21.0</ele><time>2026-04-15T09:38:31.999Z</time></trkpt><trkpt lat="-26.246353550720873" lon="113.82930012972534"><ele>19.5</ele><time>2026-04-15T09:38:32.999Z</time></trkpt><trkpt lat="-26.24611005476607" lon="113.82918881145592"><ele>18.0</ele><time>2026-04-15T09:38:33.999Z</time></trkpt><trkpt lat="-26.24586185212326" lon="113.82907548357362"><ele>18.0</ele><time>2026-04-15T09:38:34.999Z</time></trkpt><trkpt lat="-26.24560854995972" lon="113.8289623503679"><ele>18.0</ele><time>2026-04-15T09:38:35.999Z</time></trkpt><trkpt lat="-26.24535608697546" lon="113.8288513720003"><ele>18.0</ele><time>2026-04-15T09:38:36.999Z</time></trkpt><trkpt lat="-26.245102127805612" lon="113.828738247341"><ele>18.0</ele><time>2026-04-15T09:38:37.999Z</time></trkpt><trkpt lat="-26.244848490761534" lon="113.82862474130056"><ele>18.5</ele><time>2026-04-15T09:38:38.999Z</time></trkpt><trkpt lat="-26.24459400633887" lon="113.82851044436673"><ele>19.0</ele><time>2026-04-15T09:38:39.999Z</time></trkpt><trkpt lat="-26.24434216047847" lon="113.82839903043715"><ele>18.0</ele><time>2026-04-15T09:38:40.999Z</time></trkpt><trkpt lat="-26.244091383621374" lon="113.82828634556921"><ele>17.0</ele><time>2026-04-15T09:38:41.999Z</time></trkpt><trkpt lat="-26.2438457062616" lon="113.82817827404354"><ele>17.0</ele><time>2026-04-15T09:38:42.999Z</time></trkpt><trkpt lat="-26.243594444030652" lon="113.82806793333441"><ele>17.0</ele><time>2026-04-15T09:38:43.999Z</time></trkpt><trkpt lat="-26.243345772311514" lon="113.82795678612233"><ele>16.5</ele><time>2026-04-15T09:38:44.999Z</time></trkpt><trkpt lat="-26.24310051562963" lon="113.82783628413844"><ele>16.0</ele><time>2026-04-15T09:38:45.999Z</time></trkpt><trkpt lat="-26.242859039730636" lon="113.82770159098988"><ele>16.5</ele><time>2026-04-15T09:38:46.999Z</time></trkpt><trkpt lat="-26.24262035385273" lon="113.82755297238892"><ele>17.0</ele><time>2026-04-15T09:38:47.999Z</time></trkpt><trkpt lat="-26.24238152428166" lon="113.82739315413079"><ele>17.0</ele><time>2026-04-15T09:38:48.999Z</time></trkpt><trkpt lat="-26.242144003890704" lon="113.82722922376082"><ele>17.0</ele><time>2026-04-15T09:38:49.999Z</time></trkpt><trkpt lat="-26.24190751741171" lon="113.82706382371029"><ele>17.0</ele><time>2026-04-15T09:38:50.999Z</time></trkpt><trkpt lat="-26.24167750007396" lon="113.8268941180299"><ele>17.0</ele><time>2026-04-15T09:38:51.999Z</time></trkpt><trkpt lat="-26.241456227958288" lon="113.82671555598093"><ele>17.5</ele><time>2026-04-15T09:38:52.999Z</time></trkpt><trkpt lat="-26.241245003930775" lon="113.82652379855111"><ele>18.0</ele><time>2026-04-15T09:38:53.999Z</time></trkpt><trkpt lat="-26.241038960482882" lon="113.82632096924935"><ele>18.0</ele><time>2026-04-15T09:38:54.999Z</time></trkpt><trkpt lat="-26.240835661471472" lon="113.82611361273587"><ele>18.0</ele><time>2026-04-15T09:38:55.999Z</time></trkpt><trkpt lat="-26.24063592796769" lon="113.82590192087142"><ele>17.5</ele><time>2026-04-15T09:38:56.999Z</time></trkpt><trkpt lat="-26.240441782479593" lon="113.82568709876082"><ele>17.0</ele><time>2026-04-15T09:38:57.999Z</time></trkpt><trkpt lat="-26.24025440644804" lon="113.82547016527162"><ele>17.0</ele><time>2026-04-15T09:38:58.999Z</time></trkpt><trkpt lat="-26.240074397836374" lon="113.82524839017783"><ele>17.0</ele><time>2026-04-15T09:38:59.999Z</time></trkpt><trkpt lat="-26.239904925237827" lon="113.82501840473137"><ele>14.0</ele><time>2026-04-15T09:39:00.999Z</time></trkpt><trkpt lat="-26.239744364812317" lon="113.82477936926139"><ele>11.0</ele><time>2026-04-15T09:39:01.999Z</time></trkpt><trkpt lat="-26.239589412852016" lon="113.8245304285126"><ele>10.5</ele><time>2026-04-15T09:39:02.999Z</time></trkpt><trkpt lat="-26.239435851392" lon="113.82427780791201"><ele>10.0</ele><time>2026-04-15T09:39:03.999Z</time></trkpt><trkpt lat="-26.239284839468652" lon="113.82402105054713"><ele>10.0</ele><time>2026-04-15T09:39:04.999Z</time></trkpt><trkpt lat="-26.2391402059716" lon="113.82375752183765"><ele>10.0</ele><time>2026-04-15T09:39:05.999Z</time></trkpt><trkpt lat="-26.23900453452054" lon="113.8234908987546"><ele>8.5</ele><time>2026-04-15T09:39:06.999Z</time></trkpt><trkpt lat="-26.238872161685585" lon="113.82322067535561"><ele>7.0</ele><time>2026-04-15T09:39:07.999Z</time></trkpt><trkpt lat="-26.238744244165293" lon="113.82294898551936"><ele>7.0</ele><time>2026-04-15T09:39:08.999Z</time></trkpt><trkpt lat="-26.23862438046196" lon="113.82267352799846"><ele>7.0</ele><time>2026-04-15T09:39:09.999Z</time></trkpt><trkpt lat="-26.238508398964864" lon="113.82239959950402"><ele>6.5</ele><time>2026-04-15T09:39:10.999Z</time></trkpt><trkpt lat="-26.238388941061064" lon="113.82212786887818"><ele>6.0</ele><time>2026-04-15T09:39:11.999Z</time></trkpt><trkpt lat="-26.238265301638947" lon="113.82186060854114"><ele>6.0</ele><time>2026-04-15T09:39:12.999Z</time></trkpt><trkpt lat="-26.238140328128278" lon="113.82158936177565"><ele>6.0</ele><time>2026-04-15T09:39:13.999Z</time></trkpt><trkpt lat="-26.238019202429008" lon="113.8213180781313"><ele>6.0</ele><time>2026-04-15T09:39:14.999Z</time></trkpt><trkpt lat="-26.237898886138872" lon="113.82104709326222"><ele>6.0</ele><time>2026-04-15T09:39:15.999Z</time></trkpt><trkpt lat="-26.237779067179833" lon="113.82077654894516"><ele>5.5</ele><time>2026-04-15T09:39:16.999Z</time></trkpt><trkpt lat="-26.23765768363821" lon="113.82051155380431"><ele>5.0</ele><time>2026-04-15T09:39:17.999Z</time></trkpt><trkpt lat="-26.237534210304073" lon="113.82024837571126"><ele>5.0</ele><time>2026-04-15T09:39:18.999Z</time></trkpt><trkpt lat="-26.23741050349071" lon="113.81998182986008"><ele>5.0</ele><time>2026-04-15T09:39:19.999Z</time></trkpt><trkpt lat="-26.237288010627548" lon="113.8197144728296"><ele>5.0</ele><time>2026-04-15T09:39:20.999Z</time></trkpt><trkpt lat="-26.23716772969152" lon="113.81944865636278"><ele>5.0</ele><time>2026-04-15T09:39:21.999Z</time></trkpt><trkpt lat="-26.23704561514127" lon="113.8191828691181"><ele>6.5</ele><time>2026-04-15T09:39:22.999Z</time></trkpt><trkpt lat="-26.23692345078157" lon="113.8189236194141"><ele>8.0</ele><time>2026-04-15T09:39:23.999Z</time></trkpt><trkpt lat="-26.23679923318462" lon="113.81866134337015"><ele>7.5</ele><time>2026-04-15T09:39:24.999Z</time></trkpt><trkpt lat="-26.236676672243593" lon="113.81839667427039"><ele>7.0</ele><time>2026-04-15T09:39:25.999Z</time></trkpt><trkpt lat="-26.236556835945102" lon="113.81812907375685"><ele>10.0</ele><time>2026-04-15T09:39:26.999Z</time></trkpt><trkpt lat="-26.236439796354915" lon="113.81785972672385"><ele>13.0</ele><time>2026-04-15T09:39:27.999Z</time></trkpt><trkpt lat="-26.236326988952772" lon="113.81759124196813"><ele>13.0</ele><time>2026-04-15T09:39:28.999Z</time></trkpt><trkpt lat="-26.236214236529975" lon="113.81732568180145"><ele>13.0</ele><time>2026-04-15T09:39:29.999Z</time></trkpt><trkpt lat="-26.236096337993512" lon="113.81706649800745"><ele>13.0</ele><time>2026-04-15T09:39:30.999Z</time></trkpt><trkpt lat="-26.23597514311626" lon="113.81680703688244"><ele>13.0</ele><time>2026-04-15T09:39:31.999Z</time></trkpt><trkpt lat="-26.235855341548252" lon="113.81654430515253"><ele>13.0</ele><time>2026-04-15T09:39:32.999Z</time></trkpt><trkpt lat="-26.23573735170556" lon="113.81628160236957"><ele>13.0</ele><time>2026-04-15T09:39:33.999Z</time></trkpt><trkpt lat="-26.235618004534466" lon="113.81602069363916"><ele>12.5</ele><time>2026-04-15T09:39:34.999Z</time></trkpt><trkpt lat="-26.235495024530252" lon="113.81575817185214"><ele>12.0</ele><time>2026-04-15T09:39:35.999Z</time></trkpt><trkpt lat="-26.235372400487847" lon="113.81549636820691"><ele>12.0</ele><time>2026-04-15T09:39:36.999Z</time></trkpt><trkpt lat="-26.235250400494884" lon="113.81523545341703"><ele>12.0</ele><time>2026-04-15T09:39:37.999Z</time></trkpt><trkpt lat="-26.2351272662801" lon="113.81496911708659"><ele>13.0</ele><time>2026-04-15T09:39:38.999Z</time></trkpt><trkpt lat="-26.23500580639959" lon="113.81470151282583"><ele>14.0</ele><time>2026-04-15T09:39:39.999Z</time></trkpt><trkpt lat="-26.23488525199891" lon="113.81443119947828"><ele>13.0</ele><time>2026-04-15T09:39:40.999Z</time></trkpt><trkpt lat="-26.23476293416688" lon="113.81415993314026"><ele>12.0</ele><time>2026-04-15T09:39:41.999Z</time></trkpt><trkpt lat="-26.234638007614596" lon="113.8138861544678"><ele>12.0</ele><time>2026-04-15T09:39:42.999Z</time></trkpt><trkpt lat="-26.234510959113635" lon="113.81360926020771"><ele>12.0</ele><time>2026-04-15T09:39:43.999Z</time></trkpt><trkpt lat="-26.234381611557836" lon="113.8133292981903"><ele>12.0</ele><time>2026-04-15T09:39:44.999Z</time></trkpt><trkpt lat="-26.234253651059053" lon="113.81304777260144"><ele>12.0</ele><time>2026-04-15T09:39:45.999Z</time></trkpt><trkpt lat="-26.23412707046153" lon="113.81276631561657"><ele>11.0</ele><time>2026-04-15T09:39:46.999Z</time></trkpt><trkpt lat="-26.23399836410881" lon="113.81248449834914"><ele>10.0</ele><time>2026-04-15T09:39:47.999Z</time></trkpt><trkpt lat="-26.233869418425606" lon="113.81220131265228"><ele>8.0</ele><time>2026-04-15T09:39:48.999Z</time></trkpt><trkpt lat="-26.23373938815344" lon="113.81191460435801"><ele>6.0</ele><time>2026-04-15T09:39:49.999Z</time></trkpt><trkpt lat="-26.233609962779035" lon="113.81162873836016"><ele>6.0</ele><time>2026-04-15T09:39:50.999Z</time></trkpt><trkpt lat="-26.233481156257493" lon="113.8113446789703"><ele>6.0</ele><time>2026-04-15T09:39:51.999Z</time></trkpt><trkpt lat="-26.23335335023425" lon="113.8110671928058"><ele>6.0</ele><time>2026-04-15T09:39:52.999Z</time></trkpt><trkpt lat="-26.23322753500801" lon="113.81079043501863"><ele>6.0</ele><time>2026-04-15T09:39:53.999Z</time></trkpt><trkpt lat="-26.23310109605312" lon="113.81051055128151"><ele>6.0</ele><time>2026-04-15T09:39:54.999Z</time></trkpt><trkpt lat="-26.23297253353592" lon="113.81023016638477"><ele>6.0</ele><time>2026-04-15T09:39:55.999Z</time></trkpt><trkpt lat="-26.23284456518705" lon="113.80995288432383"><ele>9.0</ele><time>2026-04-15T09:39:56.999Z</time></trkpt><trkpt lat="-26.232717806152518" lon="113.80967616281403"><ele>12.0</ele><time>2026-04-15T09:39:57.999Z</time></trkpt><trkpt lat="-26.232590852104167" lon="113.80940109342694"><ele>13.5</ele><time>2026-04-15T09:39:58.999Z</time></trkpt><trkpt lat="-26.23246541266307" lon="113.80913110804816"><ele>15.0</ele><time>2026-04-15T09:39:59.999Z</time></trkpt><trkpt lat="-26.232343481720243" lon="113.80885909116772"><ele>15.5</ele><time>2026-04-15T09:40:00.999Z</time></trkpt><trkpt lat="-26.232222264803173" lon="113.8085851405701"><ele>16.0</ele><time>2026-04-15T09:40:01.999Z</time></trkpt><trkpt lat="-26.232098253926218" lon="113.80831101921247"><ele>16.5</ele><time>2026-04-15T09:40:02.999Z</time></trkpt><trkpt lat="-26.231974603190114" lon="113.80803816993841"><ele>17.0</ele><time>2026-04-15T09:40:03.999Z</time></trkpt><trkpt lat="-26.23184998976815" lon="113.80776506383866"><ele>19.0</ele><time>2026-04-15T09:40:04.999Z</time></trkpt><trkpt lat="-26.23172219356402" lon="113.80748874799042"><ele>21.0</ele><time>2026-04-15T09:40:05.999Z</time></trkpt><trkpt lat="-26.231595660049134" lon="113.80720986299958"><ele>20.5</ele><time>2026-04-15T09:40:06.999Z</time></trkpt><trkpt lat="-26.231469767822375" lon="113.80692731069898"><ele>20.0</ele><time>2026-04-15T09:40:07.999Z</time></trkpt><trkpt lat="-26.231342617514592" lon="113.80664449894255"><ele>21.0</ele><time>2026-04-15T09:40:08.999Z</time></trkpt><trkpt lat="-26.231215986367246" lon="113.80636192679297"><ele>22.0</ele><time>2026-04-15T09:40:09.999Z</time></trkpt><trkpt lat="-26.231087537827456" lon="113.80607801824853"><ele>22.5</ele><time>2026-04-15T09:40:10.999Z</time></trkpt><trkpt lat="-26.23095842877484" lon="113.80579377903237"><ele>23.0</ele><time>2026-04-15T09:40:11.999Z</time></trkpt><trkpt lat="-26.23082658132396" lon="113.80550915652051"><ele>23.0</ele><time>2026-04-15T09:40:12.999Z</time></trkpt><trkpt lat="-26.230694800400922" lon="113.80522234454288"><ele>23.0</ele><time>2026-04-15T09:40:13.999Z</time></trkpt><trkpt lat="-26.230561860235806" lon="113.80493551768406"><ele>19.0</ele><time>2026-04-15T09:40:14.999Z</time></trkpt><trkpt lat="-26.230428541851744" lon="113.80465042541108"><ele>15.0</ele><time>2026-04-15T09:40:15.999Z</time></trkpt><trkpt lat="-26.230296571215383" lon="113.80436493738577"><ele>13.5</ele><time>2026-04-15T09:40:16.999Z</time></trkpt><trkpt lat="-26.230167438124376" lon="113.80407943898028"><ele>12.0</ele><time>2026-04-15T09:40:17.999Z</time></trkpt><trkpt lat="-26.230039755609695" lon="113.80379503118482"><ele>12.0</ele><time>2026-04-15T09:40:18.999Z</time></trkpt><trkpt lat="-26.22991193304459" lon="113.80351143070968"><ele>12.0</ele><time>2026-04-15T09:40:19.999Z</time></trkpt><trkpt lat="-26.229783006623737" lon="113.80322761312175"><ele>13.0</ele><time>2026-04-15T09:40:20.999Z</time></trkpt><trkpt lat="-26.229654859393666" lon="113.80294742932202"><ele>14.0</ele><time>2026-04-15T09:40:21.999Z</time></trkpt><trkpt lat="-26.229526493317806" lon="113.8026738341917"><ele>14.0</ele><time>2026-04-15T09:40:22.999Z</time></trkpt><trkpt lat="-26.229396037677123" lon="113.8024008557279"><ele>14.0</ele><time>2026-04-15T09:40:23.999Z</time></trkpt><trkpt lat="-26.229266113079092" lon="113.80212293567749"><ele>14.0</ele><time>2026-04-15T09:40:24.999Z</time></trkpt><trkpt lat="-26.229139285037363" lon="113.80184402080603"><ele>14.0</ele><time>2026-04-15T09:40:25.999Z</time></trkpt><trkpt lat="-26.229012870654223" lon="113.80156660413573"><ele>15.0</ele><time>2026-04-15T09:40:26.999Z</time></trkpt><trkpt lat="-26.228885267160962" lon="113.80128688645539"><ele>16.0</ele><time>2026-04-15T09:40:27.999Z</time></trkpt><trkpt lat="-26.22875867996595" lon="113.8010069456208"><ele>14.0</ele><time>2026-04-15T09:40:28.999Z</time></trkpt><trkpt lat="-26.228633670512703" lon="113.80072438063543"><ele>12.0</ele><time>2026-04-15T09:40:29.999Z</time></trkpt><trkpt lat="-26.228505794735707" lon="113.80044068425634"><ele>10.5</ele><time>2026-04-15T09:40:30.999Z</time></trkpt><trkpt lat="-26.228376667755445" lon="113.8001552456675"><ele>9.0</ele><time>2026-04-15T09:40:31.999Z</time></trkpt><trkpt lat="-26.228246808464387" lon="113.79987029125364"><ele>9.0</ele><time>2026-04-15T09:40:32.999Z</time></trkpt><trkpt lat="-26.228116326488873" lon="113.79958380497591"><ele>9.0</ele><time>2026-04-15T09:40:33.999Z</time></trkpt><trkpt lat="-26.22798766311692" lon="113.7993014446583"><ele>8.0</ele><time>2026-04-15T09:40:34.999Z</time></trkpt><trkpt lat="-26.22785737190992" lon="113.7990226250595"><ele>7.0</ele><time>2026-04-15T09:40:35.999Z</time></trkpt><trkpt lat="-26.227726492212515" lon="113.79874466575586"><ele>7.5</ele><time>2026-04-15T09:40:36.999Z</time></trkpt><trkpt lat="-26.227595828141503" lon="113.79846390069102"><ele>8.0</ele><time>2026-04-15T09:40:37.999Z</time></trkpt><trkpt lat="-26.227466098081916" lon="113.79817923375523"><ele>8.0</ele><time>2026-04-15T09:40:38.999Z</time></trkpt><trkpt lat="-26.227339356865247" lon="113.79790207900204"><ele>8.0</ele><time>2026-04-15T09:40:39.999Z</time></trkpt><trkpt lat="-26.227220127951767" lon="113.79764409594439"><ele>7.5</ele><time>2026-04-15T09:40:40.999Z</time></trkpt><trkpt lat="-26.227107848330192" lon="113.79739795429755"><ele>7.0</ele><time>2026-04-15T09:40:41.999Z</time></trkpt><trkpt lat="-26.226990729551122" lon="113.79714330765636"><ele>7.0</ele><time>2026-04-15T09:40:42.999Z</time></trkpt><trkpt lat="-26.22687010770768" lon="113.79688185848248"><ele>7.0</ele><time>2026-04-15T09:40:43.999Z</time></trkpt><trkpt lat="-26.226746357969983" lon="113.79661415915567"><ele>7.0</ele><time>2026-04-15T09:40:44.999Z</time></trkpt><trkpt lat="-26.22662327759245" lon="113.7963446210218"><ele>7.0</ele><time>2026-04-15T09:40:45.999Z</time></trkpt><trkpt lat="-26.226499103222366" lon="113.79607228832334"><ele>6.0</ele><time>2026-04-15T09:40:46.999Z</time></trkpt><trkpt lat="-26.226374383163353" lon="113.7957967156114"><ele>5.0</ele><time>2026-04-15T09:40:47.999Z</time></trkpt><trkpt lat="-26.22624782121107" lon="113.79551971925491"><ele>5.0</ele><time>2026-04-15T09:40:48.999Z</time></trkpt><trkpt lat="-26.22612411498846" lon="113.79523990554185"><ele>5.0</ele><time>2026-04-15T09:40:49.999Z</time></trkpt><trkpt lat="-26.226000721895392" lon="113.79496002688965"><ele>5.5</ele><time>2026-04-15T09:40:50.999Z</time></trkpt><trkpt lat="-26.225876494985435" lon="113.79468087438808"><ele>6.0</ele><time>2026-04-15T09:40:51.999Z</time></trkpt><trkpt lat="-26.225749370085744" lon="113.7944036934666"><ele>6.5</ele><time>2026-04-15T09:40:52.999Z</time></trkpt><trkpt lat="-26.225620664024422" lon="113.79412522714757"><ele>7.0</ele><time>2026-04-15T09:40:53.999Z</time></trkpt><trkpt lat="-26.225493145017982" lon="113.79384739714938"><ele>7.0</ele><time>2026-04-15T09:40:54.999Z</time></trkpt><trkpt lat="-26.225368392521197" lon="113.79356953485008"><ele>7.0</ele><time>2026-04-15T09:40:55.999Z</time></trkpt><trkpt lat="-26.225245514542294" lon="113.79329003224589"><ele>7.0</ele><time>2026-04-15T09:40:56.999Z</time></trkpt><trkpt lat="-26.225122932278104" lon="113.79301183688949"><ele>7.0</ele><time>2026-04-15T09:40:57.999Z</time></trkpt><trkpt lat="-26.22500122710786" lon="113.79273220386274"><ele>6.5</ele><time>2026-04-15T09:40:58.999Z</time></trkpt><trkpt lat="-26.22488168609575" lon="113.79245220529361"><ele>6.0</ele><time>2026-04-15T09:40:59.999Z</time></trkpt><trkpt lat="-26.22476500244823" lon="113.79217196353981"><ele>8.5</ele><time>2026-04-15T09:41:00.999Z</time></trkpt><trkpt lat="-26.22465067611948" lon="113.79189172569862"><ele>11.0</ele><time>2026-04-15T09:41:01.999Z</time></trkpt><trkpt lat="-26.22453635093901" lon="113.79161255092197"><ele>12.5</ele><time>2026-04-15T09:41:02.999Z</time></trkpt><trkpt lat="-26.224422728366175" lon="113.79133503769137"><ele>14.0</ele><time>2026-04-15T09:41:03.999Z</time></trkpt><trkpt lat="-26.224312054238837" lon="113.79105943173175"><ele>14.5</ele><time>2026-04-15T09:41:04.999Z</time></trkpt><trkpt lat="-26.22420009335888" lon="113.79078454665027"><ele>15.0</ele><time>2026-04-15T09:41:05.999Z</time></trkpt><trkpt lat="-26.224085250567924" lon="113.7905119646387"><ele>15.5</ele><time>2026-04-15T09:41:06.999Z</time></trkpt><trkpt lat="-26.223969044455124" lon="113.79023877210054"><ele>16.0</ele><time>2026-04-15T09:41:07.999Z</time></trkpt><trkpt lat="-26.223858710161558" lon="113.78996082059687"><ele>16.5</ele><time>2026-04-15T09:41:08.999Z</time></trkpt><trkpt lat="-26.22374729572345" lon="113.7896813305021"><ele>17.0</ele><time>2026-04-15T09:41:09.999Z</time></trkpt><trkpt lat="-26.223631507848072" lon="113.78940321203217"><ele>17.5</ele><time>2026-04-15T09:41:10.999Z</time></trkpt><trkpt lat="-26.223516347285496" lon="113.78912685335389"><ele>18.0</ele><time>2026-04-15T09:41:11.999Z</time></trkpt><trkpt lat="-26.223405015054933" lon="113.78884921423881"><ele>18.0</ele><time>2026-04-15T09:41:12.999Z</time></trkpt><trkpt lat="-26.223294401618897" lon="113.78857097548958"><ele>18.0</ele><time>2026-04-15T09:41:13.999Z</time></trkpt><trkpt lat="-26.223183972424216" lon="113.78829141579821"><ele>20.5</ele><time>2026-04-15T09:41:14.999Z</time></trkpt><trkpt lat="-26.22307258047522" lon="113.78801187696698"><ele>23.0</ele><time>2026-04-15T09:41:15.999Z</time></trkpt><trkpt lat="-26.222959009433186" lon="113.78773700124916"><ele>25.0</ele><time>2026-04-15T09:41:16.999Z</time></trkpt><trkpt lat="-26.222842453181" lon="113.78746198954079"><ele>27.0</ele><time>2026-04-15T09:41:17.999Z</time></trkpt><trkpt lat="-26.222730056319563" lon="113.78718587290831"><ele>27.0</ele><time>2026-04-15T09:41:18.999Z</time></trkpt><trkpt lat="-26.222622052055875" lon="113.78690669665286"><ele>27.0</ele><time>2026-04-15T09:41:19.999Z</time></trkpt><trkpt lat="-26.222516869876635" lon="113.78662451385898"><ele>28.5</ele><time>2026-04-15T09:41:20.999Z</time></trkpt><trkpt lat="-26.222414460915147" lon="113.78634268368512"><ele>30.0</ele><time>2026-04-15T09:41:21.999Z</time></trkpt><trkpt lat="-26.22231339086427" lon="113.78605658298679"><ele>31.0</ele><time>2026-04-15T09:41:22.999Z</time></trkpt><trkpt lat="-26.22221466681344" lon="113.78577418270224"><ele>32.0</ele><time>2026-04-15T09:41:23.999Z</time></trkpt><trkpt lat="-26.222114720951893" lon="113.78548875864375"><ele>32.0</ele><time>2026-04-15T09:41:24.999Z</time></trkpt><trkpt lat="-26.222013640024596" lon="113.78520224989867"><ele>32.0</ele><time>2026-04-15T09:41:25.999Z</time></trkpt><trkpt lat="-26.221913294082224" lon="113.78491697923269"><ele>30.5</ele><time>2026-04-15T09:41:26.999Z</time></trkpt><trkpt lat="-26.221817296099534" lon="113.78463183984533"><ele>29.0</ele><time>2026-04-15T09:41:27.999Z</time></trkpt><trkpt lat="-26.221726046775185" lon="113.78434024436588"><ele>27.0</ele><time>2026-04-15T09:41:28.999Z</time></trkpt><trkpt lat="-26.221636080667164" lon="113.78404709820342"><ele>25.0</ele><time>2026-04-15T09:41:29.999Z</time></trkpt><trkpt lat="-26.221545526133344" lon="113.78375702352955"><ele>24.0</ele><time>2026-04-15T09:41:30.999Z</time></trkpt><trkpt lat="-26.22145648295947" lon="113.78346555340958"><ele>23.0</ele><time>2026-04-15T09:41:31.999Z</time></trkpt><trkpt lat="-26.221366890842837" lon="113.78317255475012"><ele>23.0</ele><time>2026-04-15T09:41:32.999Z</time></trkpt><trkpt lat="-26.221277068399445" lon="113.78288135056046"><ele>23.0</ele><time>2026-04-15T09:41:33.999Z</time></trkpt><trkpt lat="-26.221186362118676" lon="113.7825921727853"><ele>22.0</ele><time>2026-04-15T09:41:34.999Z</time></trkpt><trkpt lat="-26.221094950573725" lon="113.78230604917015"><ele>21.0</ele><time>2026-04-15T09:41:35.999Z</time></trkpt><trkpt lat="-26.221001493289275" lon="113.78202346829806"><ele>20.0</ele><time>2026-04-15T09:41:36.999Z</time></trkpt><trkpt lat="-26.22090999122641" lon="113.7817391688139"><ele>19.0</ele><time>2026-04-15T09:41:37.999Z</time></trkpt><trkpt lat="-26.22082289626358" lon="113.78145722653045"><ele>19.0</ele><time>2026-04-15T09:41:38.999Z</time></trkpt><trkpt lat="-26.220735663925865" lon="113.78117191460555"><ele>19.0</ele><time>2026-04-15T09:41:39.999Z</time></trkpt><trkpt lat="-26.22064830462898" lon="113.78088879363705"><ele>18.0</ele><time>2026-04-15T09:41:40.999Z</time></trkpt><trkpt lat="-26.22055739046981" lon="113.7806006009145"><ele>17.0</ele><time>2026-04-15T09:41:41.999Z</time></trkpt><trkpt lat="-26.220465522210628" lon="113.7803135068841"><ele>15.0</ele><time>2026-04-15T09:41:42.999Z</time></trkpt><trkpt lat="-26.220371220833318" lon="113.78002622058136"><ele>13.0</ele><time>2026-04-15T09:41:43.999Z</time></trkpt><trkpt lat="-26.220275621475007" lon="113.77974316129715"><ele>13.0</ele><time>2026-04-15T09:41:44.999Z</time></trkpt><trkpt lat="-26.22018178171127" lon="113.7794598459272"><ele>13.0</ele><time>2026-04-15T09:41:45.999Z</time></trkpt><trkpt lat="-26.220090812528845" lon="113.77917805751521"><ele>13.0</ele><time>2026-04-15T09:41:46.999Z</time></trkpt><trkpt lat="-26.220000510912055" lon="113.77889755024174"><ele>13.0</ele><time>2026-04-15T09:41:47.999Z</time></trkpt><trkpt lat="-26.219909931746553" lon="113.77860908694784"><ele>12.5</ele><time>2026-04-15T09:41:48.999Z</time></trkpt><trkpt lat="-26.219821078967197" lon="113.7783271186168"><ele>12.0</ele><time>2026-04-15T09:41:49.999Z</time></trkpt><trkpt lat="-26.219730782162717" lon="113.7780421256326"><ele>12.5</ele><time>2026-04-15T09:41:50.999Z</time></trkpt><trkpt lat="-26.219644459762105" lon="113.77776035019058"><ele>13.0</ele><time>2026-04-15T09:41:51.999Z</time></trkpt><trkpt lat="-26.219557369477183" lon="113.7774795968947"><ele>13.0</ele><time>2026-04-15T09:41:52.999Z</time></trkpt><trkpt lat="-26.219472155276137" lon="113.7771995178924"><ele>13.0</ele><time>2026-04-15T09:41:53.999Z</time></trkpt><trkpt lat="-26.219386169624702" lon="113.77692200116185"><ele>11.5</ele><time>2026-04-15T09:41:54.999Z</time></trkpt><trkpt lat="-26.219299271546166" lon="113.77664366248489"><ele>10.0</ele><time>2026-04-15T09:41:55.999Z</time></trkpt><trkpt lat="-26.219209683117477" lon="113.7763693935308"><ele>10.0</ele><time>2026-04-15T09:41:56.999Z</time></trkpt><trkpt lat="-26.219119246685523" lon="113.77609798308968"><ele>10.0</ele><time>2026-04-15T09:41:57.999Z</time></trkpt><trkpt lat="-26.219029898859866" lon="113.775825660383"><ele>9.5</ele><time>2026-04-15T09:41:58.999Z</time></trkpt><trkpt lat="-26.218939687571595" lon="113.77555261984224"><ele>9.0</ele><time>2026-04-15T09:41:59.999Z</time></trkpt><trkpt lat="-26.218853174820914" lon="113.77527770257866"><ele>9.5</ele><time>2026-04-15T09:42:00.999Z</time></trkpt><trkpt lat="-26.21877124848399" lon="113.77500137399755"><ele>10.0</ele><time>2026-04-15T09:42:01.999Z</time></trkpt><trkpt lat="-26.21869068609385" lon="113.77472807770044"><ele>10.0</ele><time>2026-04-15T09:42:02.999Z</time></trkpt><trkpt lat="-26.218604008730676" lon="113.7744563063682"><ele>10.0</ele><time>2026-04-15T09:42:03.999Z</time></trkpt><trkpt lat="-26.21851562128228" lon="113.77418079665168"><ele>10.0</ele><time>2026-04-15T09:42:04.999Z</time></trkpt><trkpt lat="-26.21842639911008" lon="113.77389882490831"><ele>10.0</ele><time>2026-04-15T09:42:05.999Z</time></trkpt><trkpt lat="-26.21833482780026" lon="113.77361200727243"><ele>10.0</ele><time>2026-04-15T09:42:06.999Z</time></trkpt><trkpt lat="-26.21824274849281" lon="113.77332162872807"><ele>10.0</ele><time>2026-04-15T09:42:07.999Z</time></trkpt><trkpt lat="-26.218148902633104" lon="113.7730305013091"><ele>10.0</ele><time>2026-04-15T09:42:08.999Z</time></trkpt><trkpt lat="-26.218056149647662" lon="113.77273843199187"><ele>10.0</ele><time>2026-04-15T09:42:09.999Z</time></trkpt><trkpt lat="-26.217963448958447" lon="113.7724472265949"><ele>9.5</ele><time>2026-04-15T09:42:10.999Z</time></trkpt><trkpt lat="-26.217870726353237" lon="113.77215658309726"><ele>9.0</ele><time>2026-04-15T09:42:11.999Z</time></trkpt><trkpt lat="-26.2177788236173" lon="113.77186739290248"><ele>8.0</ele><time>2026-04-15T09:42:12.999Z</time></trkpt><trkpt lat="-26.2176879911601" lon="113.77157918424405"><ele>7.0</ele><time>2026-04-15T09:42:13.999Z</time></trkpt><trkpt lat="-26.217597832672098" lon="113.7712888528242"><ele>8.0</ele><time>2026-04-15T09:42:14.999Z</time></trkpt><trkpt lat="-26.217506885125925" lon="113.77099695178347"><ele>9.0</ele><time>2026-04-15T09:42:15.999Z</time></trkpt><trkpt lat="-26.217416371081626" lon="113.77070640611801"><ele>9.0</ele><time>2026-04-15T09:42:16.999Z</time></trkpt><trkpt lat="-26.217326449138614" lon="113.77041740933088"><ele>9.0</ele><time>2026-04-15T09:42:17.999Z</time></trkpt><trkpt lat="-26.217235879625157" lon="113.77013250719713"><ele>10.0</ele><time>2026-04-15T09:42:18.999Z</time></trkpt><trkpt lat="-26.217144627001133" lon="113.76985065954608"><ele>11.0</ele><time>2026-04-15T09:42:19.999Z</time></trkpt><trkpt lat="-26.2170560419371" lon="113.76957126800562"><ele>10.5</ele><time>2026-04-15T09:42:20.999Z</time></trkpt><trkpt lat="-26.216967608873063" lon="113.7692903982789"><ele>10.0</ele><time>2026-04-15T09:42:21.999Z</time></trkpt><trkpt lat="-26.216876810416473" lon="113.76901338236499"><ele>10.0</ele><time>2026-04-15T09:42:22.999Z</time></trkpt><trkpt lat="-26.21678729955229" lon="113.76873598865932"><ele>10.0</ele><time>2026-04-15T09:42:23.999Z</time></trkpt><trkpt lat="-26.216699743911573" lon="113.76845866883818"><ele>10.0</ele><time>2026-04-15T09:42:24.999Z</time></trkpt><trkpt lat="-26.21661301805034" lon="113.76818076786103"><ele>10.0</ele><time>2026-04-15T09:42:25.999Z</time></trkpt><trkpt lat="-26.216526554813893" lon="113.76790559331872"><ele>10.5</ele><time>2026-04-15T09:42:26.999Z</time></trkpt><trkpt lat="-26.216438521907467" lon="113.76762747779705"><ele>11.0</ele><time>2026-04-15T09:42:27.999Z</time></trkpt><trkpt lat="-26.21634970610795" lon="113.76734849796338"><ele>11.0</ele><time>2026-04-15T09:42:28.999Z</time></trkpt><trkpt lat="-26.21626146476057" lon="113.76707194050495"><ele>11.0</ele><time>2026-04-15T09:42:29.999Z</time></trkpt><trkpt lat="-26.216173575291226" lon="113.76679419692053"><ele>11.5</ele><time>2026-04-15T09:42:30.999Z</time></trkpt><trkpt lat="-26.216083770833094" lon="113.76651725550495"><ele>12.0</ele><time>2026-04-15T09:42:31.999Z</time></trkpt><trkpt lat="-26.215993297813277" lon="113.76623875439189"><ele>11.5</ele><time>2026-04-15T09:42:32.999Z</time></trkpt><trkpt lat="-26.215904447471793" lon="113.7659575046679"><ele>11.0</ele><time>2026-04-15T09:42:33.999Z</time></trkpt><trkpt lat="-26.215815104020223" lon="113.76567738467065"><ele>11.0</ele><time>2026-04-15T09:42:34.999Z</time></trkpt><trkpt lat="-26.21572536537408" lon="113.76539660318599"><ele>11.0</ele><time>2026-04-15T09:42:35.999Z</time></trkpt><trkpt lat="-26.21563548947009" lon="113.7651160349879"><ele>10.0</ele><time>2026-04-15T09:42:36.999Z</time></trkpt><trkpt lat="-26.215547279515143" lon="113.76483590269503"><ele>9.0</ele><time>2026-04-15T09:42:37.999Z</time></trkpt><trkpt lat="-26.215458435505507" lon="113.76455221151579"><ele>8.5</ele><time>2026-04-15T09:42:38.999Z</time></trkpt><trkpt lat="-26.215369685565577" lon="113.76427003539062"><ele>8.0</ele><time>2026-04-15T09:42:39.999Z</time></trkpt><trkpt lat="-26.21528190647788" lon="113.76398702719132"><ele>8.0</ele><time>2026-04-15T09:42:40.999Z</time></trkpt><trkpt lat="-26.215192085222892" lon="113.7637027832748"><ele>8.0</ele><time>2026-04-15T09:42:41.999Z</time></trkpt><trkpt lat="-26.215100560739163" lon="113.76341628599751"><ele>9.0</ele><time>2026-04-15T09:42:42.999Z</time></trkpt><trkpt lat="-26.215009733675114" lon="113.7631283220558"><ele>10.0</ele><time>2026-04-15T09:42:43.999Z</time></trkpt><trkpt lat="-26.21491827738854" lon="113.76284193610788"><ele>10.0</ele><time>2026-04-15T09:42:44.999Z</time></trkpt><trkpt lat="-26.214826498427442" lon="113.76255179529245"><ele>10.0</ele><time>2026-04-15T09:42:45.999Z</time></trkpt><trkpt lat="-26.214736621640306" lon="113.76226420225652"><ele>10.0</ele><time>2026-04-15T09:42:46.999Z</time></trkpt><trkpt lat="-26.21464863501089" lon="113.76198115585933"><ele>10.0</ele><time>2026-04-15T09:42:47.999Z</time></trkpt><trkpt lat="-26.214559138983116" lon="113.7617026639473"><ele>11.0</ele><time>2026-04-15T09:42:48.999Z</time></trkpt><trkpt lat="-26.214470601001292" lon="113.76143041470573"><ele>12.0</ele><time>2026-04-15T09:42:49.999Z</time></trkpt><trkpt lat="-26.214385832714274" lon="113.76116070058598"><ele>12.0</ele><time>2026-04-15T09:42:50.999Z</time></trkpt><trkpt lat="-26.214301125350985" lon="113.76089701778419"><ele>12.0</ele><time>2026-04-15T09:42:51.999Z</time></trkpt><trkpt lat="-26.21421572205687" lon="113.76063171177042"><ele>12.0</ele><time>2026-04-15T09:42:52.999Z</time></trkpt><trkpt lat="-26.214131233671367" lon="113.76036402614439"><ele>12.0</ele><time>2026-04-15T09:42:53.999Z</time></trkpt><trkpt lat="-26.214045110117574" lon="113.7600933692507"><ele>12.0</ele><time>2026-04-15T09:42:54.999Z</time></trkpt><trkpt lat="-26.213960109316915" lon="113.75982142264701"><ele>12.0</ele><time>2026-04-15T09:42:55.999Z</time></trkpt><trkpt lat="-26.213876436855763" lon="113.75955051647796"><ele>13.0</ele><time>2026-04-15T09:42:56.999Z</time></trkpt><trkpt lat="-26.213793780305135" lon="113.75927973300091"><ele>14.0</ele><time>2026-04-15T09:42:57.999Z</time></trkpt><trkpt lat="-26.213711491131303" lon="113.75900966769302"><ele>14.0</ele><time>2026-04-15T09:42:58.999Z</time></trkpt><trkpt lat="-26.21362953469551" lon="113.75874219049925"><ele>14.0</ele><time>2026-04-15T09:42:59.999Z</time></trkpt><trkpt lat="-26.213547288062124" lon="113.75847992414877"><ele>16.0</ele><time>2026-04-15T09:43:00.999Z</time></trkpt><trkpt lat="-26.213464811381318" lon="113.75821950540083"><ele>18.0</ele><time>2026-04-15T09:43:01.999Z</time></trkpt><trkpt lat="-26.213378269858016" lon="113.75795408388382"><ele>22.0</ele><time>2026-04-15T09:43:02.999Z</time></trkpt><trkpt lat="-26.213293549816658" lon="113.75768627694661"><ele>26.0</ele><time>2026-04-15T09:43:03.999Z</time></trkpt><trkpt lat="-26.213206895519104" lon="113.75741844206772"><ele>25.0</ele><time>2026-04-15T09:43:04.999Z</time></trkpt><trkpt lat="-26.213119437441247" lon="113.75714993970759"><ele>24.0</ele><time>2026-04-15T09:43:05.999Z</time></trkpt><trkpt lat="-26.213036620294293" lon="113.75688280085436"><ele>25.5</ele><time>2026-04-15T09:43:06.999Z</time></trkpt><trkpt lat="-26.212955669378704" lon="113.7566160177806"><ele>27.0</ele><time>2026-04-15T09:43:07.999Z</time></trkpt><trkpt lat="-26.212878854906872" lon="113.75634979201237"><ele>27.0</ele><time>2026-04-15T09:43:08.999Z</time></trkpt><trkpt lat="-26.2128132301895" lon="113.75608728585654"><ele>27.0</ele><time>2026-04-15T09:43:09.999Z</time></trkpt><trkpt lat="-26.21275950126988" lon="113.75582766623747"><ele>28.0</ele><time>2026-04-15T09:43:10.999Z</time></trkpt><trkpt lat="-26.212710532801676" lon="113.75556035680292"><ele>29.0</ele><time>2026-04-15T09:43:11.999Z</time></trkpt><trkpt lat="-26.212667494878534" lon="113.75529027767091"><ele>28.5</ele><time>2026-04-15T09:43:12.999Z</time></trkpt><trkpt lat="-26.212632113959355" lon="113.7550126605118"><ele>28.0</ele><time>2026-04-15T09:43:13.999Z</time></trkpt><trkpt lat="-26.212602634962984" lon="113.75473121125843"><ele>28.0</ele><time>2026-04-15T09:43:14.999Z</time></trkpt><trkpt lat="-26.212572804863356" lon="113.75444242176354"><ele>28.0</ele><time>2026-04-15T09:43:15.999Z</time></trkpt><trkpt lat="-26.21253822832216" lon="113.7541507523933"><ele>28.0</ele><time>2026-04-15T09:43:16.999Z</time></trkpt><trkpt lat="-26.21249948580895" lon="113.75385692254665"><ele>28.0</ele><time>2026-04-15T09:43:17.999Z</time></trkpt><trkpt lat="-26.21245970591739" lon="113.7535616473627"><ele>28.5</ele><time>2026-04-15T09:43:18.999Z</time></trkpt><trkpt lat="-26.21242305665014" lon="113.75326198765053"><ele>29.0</ele><time>2026-04-15T09:43:19.999Z</time></trkpt><trkpt lat="-26.212389777815662" lon="113.75295793100939"><ele>28.5</ele><time>2026-04-15T09:43:20.999Z</time></trkpt><trkpt lat="-26.212357604785876" lon="113.75265574494159"><ele>28.0</ele><time>2026-04-15T09:43:21.999Z</time></trkpt><trkpt lat="-26.212321909682792" lon="113.75235304138701"><ele>29.5</ele><time>2026-04-15T09:43:22.999Z</time></trkpt><trkpt lat="-26.21228177488443" lon="113.75205024781084"><ele>31.0</ele><time>2026-04-15T09:43:23.999Z</time></trkpt><trkpt lat="-26.21224354503576" lon="113.75174786049817"><ele>31.0</ele><time>2026-04-15T09:43:24.999Z</time></trkpt><trkpt lat="-26.21220880241312" lon="113.75144504476296"><ele>31.0</ele><time>2026-04-15T09:43:25.999Z</time></trkpt><trkpt lat="-26.21217437147609" lon="113.75114418602665"><ele>30.5</ele><time>2026-04-15T09:43:26.999Z</time></trkpt><trkpt lat="-26.21213779468917" lon="113.75084126223848"><ele>30.0</ele><time>2026-04-15T09:43:27.999Z</time></trkpt><trkpt lat="-26.212101434193304" lon="113.75053858132496"><ele>30.0</ele><time>2026-04-15T09:43:28.999Z</time></trkpt><trkpt lat="-26.212065667408968" lon="113.75023669975586"><ele>30.0</ele><time>2026-04-15T09:43:29.999Z</time></trkpt><trkpt lat="-26.21203046559708" lon="113.74993664474097"><ele>29.0</ele><time>2026-04-15T09:43:30.999Z</time></trkpt><trkpt lat="-26.21199472093243" lon="113.74963730749074"><ele>28.0</ele><time>2026-04-15T09:43:31.999Z</time></trkpt><trkpt lat="-26.21195727324225" lon="113.74933734292298"><ele>28.0</ele><time>2026-04-15T09:43:32.999Z</time></trkpt><trkpt lat="-26.211921318471486" lon="113.74903563000603"><ele>28.0</ele><time>2026-04-15T09:43:33.999Z</time></trkpt><trkpt lat="-26.211885938915515" lon="113.7487342918461"><ele>27.5</ele><time>2026-04-15T09:43:34.999Z</time></trkpt><trkpt lat="-26.211852678323172" lon="113.7484350249739"><ele>27.0</ele><time>2026-04-15T09:43:35.999Z</time></trkpt><trkpt lat="-26.211819093396873" lon="113.7481368556517"><ele>27.0</ele><time>2026-04-15T09:43:36.999Z</time></trkpt><trkpt lat="-26.21178298293356" lon="113.74784073549871"><ele>27.0</ele><time>2026-04-15T09:43:37.999Z</time></trkpt><trkpt lat="-26.211745155287957" lon="113.74754507430214"><ele>27.5</ele><time>2026-04-15T09:43:38.999Z</time></trkpt><trkpt lat="-26.21170906299956" lon="113.74725028705505"><ele>28.0</ele><time>2026-04-15T09:43:39.999Z</time></trkpt><trkpt lat="-26.211674508509518" lon="113.74695622774387"><ele>28.5</ele><time>2026-04-15T09:43:40.999Z</time></trkpt><trkpt lat="-26.211641029349387" lon="113.74666287520601"><ele>29.0</ele><time>2026-04-15T09:43:41.999Z</time></trkpt><trkpt lat="-26.21160926779221" lon="113.74636937089731"><ele>29.0</ele><time>2026-04-15T09:43:42.999Z</time></trkpt><trkpt lat="-26.21157456075031" lon="113.74607597355988"><ele>29.0</ele><time>2026-04-15T09:43:43.999Z</time></trkpt><trkpt lat="-26.21153935049663" lon="113.74578143854032"><ele>27.0</ele><time>2026-04-15T09:43:44.999Z</time></trkpt><trkpt lat="-26.21150421767822" lon="113.74548791470771"><ele>25.0</ele><time>2026-04-15T09:43:45.999Z</time></trkpt><trkpt lat="-26.211468179641393" lon="113.74519624662814"><ele>25.0</ele><time>2026-04-15T09:43:46.999Z</time></trkpt><trkpt lat="-26.211432136945312" lon="113.74490502333528"><ele>25.0</ele><time>2026-04-15T09:43:47.999Z</time></trkpt><trkpt lat="-26.211396357856017" lon="113.74461892795891"><ele>24.5</ele><time>2026-04-15T09:43:48.999Z</time></trkpt><trkpt lat="-26.211360204627898" lon="113.74433601664607"><ele>24.0</ele><time>2026-04-15T09:43:49.999Z</time></trkpt><trkpt lat="-26.211326117582022" lon="113.74405377311982"><ele>24.0</ele><time>2026-04-15T09:43:50.999Z</time></trkpt><trkpt lat="-26.211294036575175" lon="113.74378045017482"><ele>24.0</ele><time>2026-04-15T09:43:51.999Z</time></trkpt><trkpt lat="-26.211263188217863" lon="113.74350879495128"><ele>22.5</ele><time>2026-04-15T09:43:52.999Z</time></trkpt><trkpt lat="-26.21123295796009" lon="113.7432408816105"><ele>21.0</ele><time>2026-04-15T09:43:53.999Z</time></trkpt><trkpt lat="-26.2112005549894" lon="113.74297217267379"><ele>21.0</ele><time>2026-04-15T09:43:54.999Z</time></trkpt><trkpt lat="-26.211168977795015" lon="113.7427059239803"><ele>21.0</ele><time>2026-04-15T09:43:55.999Z</time></trkpt><trkpt lat="-26.21113792708871" lon="113.7424369241557"><ele>21.0</ele><time>2026-04-15T09:43:56.999Z</time></trkpt><trkpt lat="-26.211107644909916" lon="113.74217014209408"><ele>21.0</ele><time>2026-04-15T09:43:57.999Z</time></trkpt><trkpt lat="-26.211075948556118" lon="113.74190077129246"><ele>21.0</ele><time>2026-04-15T09:43:58.999Z</time></trkpt><trkpt lat="-26.211044254785747" lon="113.74163638360929"><ele>21.0</ele><time>2026-04-15T09:43:59.999Z</time></trkpt><trkpt lat="-26.21101393214017" lon="113.74137141537183"><ele>21.0</ele><time>2026-04-15T09:44:00.999Z</time></trkpt><trkpt lat="-26.210983739295415" lon="113.74110387151732"><ele>21.0</ele><time>2026-04-15T09:44:01.999Z</time></trkpt><trkpt lat="-26.21094736043898" lon="113.74083113739361"><ele>21.0</ele><time>2026-04-15T09:44:02.999Z</time></trkpt><trkpt lat="-26.2109131853997" lon="113.74054868889642"><ele>21.0</ele><time>2026-04-15T09:44:03.999Z</time></trkpt><trkpt lat="-26.210878833795363" lon="113.74026615878891"><ele>21.5</ele><time>2026-04-15T09:44:04.999Z</time></trkpt><trkpt lat="-26.210843755256292" lon="113.73998311852661"><ele>22.0</ele><time>2026-04-15T09:44:05.999Z</time></trkpt><trkpt lat="-26.21080816984947" lon="113.73969889729102"><ele>22.0</ele><time>2026-04-15T09:44:06.999Z</time></trkpt><trkpt lat="-26.210774024902285" lon="113.73941148441905"><ele>22.0</ele><time>2026-04-15T09:44:07.999Z</time></trkpt><trkpt lat="-26.210741950982335" lon="113.73912399404212"><ele>21.0</ele><time>2026-04-15T09:44:08.999Z</time></trkpt><trkpt lat="-26.210709621321598" lon="113.73883550555065"><ele>20.0</ele><time>2026-04-15T09:44:09.999Z</time></trkpt><trkpt lat="-26.210675067648495" lon="113.73854898903636"><ele>16.5</ele><time>2026-04-15T09:44:10.999Z</time></trkpt><trkpt lat="-26.210640405916845" lon="113.73826509408438"><ele>13.0</ele><time>2026-04-15T09:44:11.999Z</time></trkpt><trkpt lat="-26.210607400806786" lon="113.73798297644483"><ele>12.0</ele><time>2026-04-15T09:44:12.999Z</time></trkpt><trkpt lat="-26.210572824667" lon="113.73769821560353"><ele>11.0</ele><time>2026-04-15T09:44:13.999Z</time></trkpt><trkpt lat="-26.21053669196782" lon="113.73741133795171"><ele>11.0</ele><time>2026-04-15T09:44:14.999Z</time></trkpt><trkpt lat="-26.210498153831672" lon="113.73711686712006"><ele>11.0</ele><time>2026-04-15T09:44:15.999Z</time></trkpt><trkpt lat="-26.210461223278486" lon="113.73681757447542"><ele>10.5</ele><time>2026-04-15T09:44:16.999Z</time></trkpt><trkpt lat="-26.210423405433367" lon="113.73652030275747"><ele>10.0</ele><time>2026-04-15T09:44:17.999Z</time></trkpt><trkpt lat="-26.210387495311863" lon="113.73621453243544"><ele>9.5</ele><time>2026-04-15T09:44:18.999Z</time></trkpt><trkpt lat="-26.21035506313832" lon="113.73590964382687"><ele>9.0</ele><time>2026-04-15T09:44:19.999Z</time></trkpt><trkpt lat="-26.21032113409358" lon="113.73561062921485"><ele>9.0</ele><time>2026-04-15T09:44:20.999Z</time></trkpt><trkpt lat="-26.210284473817786" lon="113.73531521360091"><ele>9.0</ele><time>2026-04-15T09:44:21.999Z</time></trkpt><trkpt lat="-26.210245672710606" lon="113.73502320999557"><ele>9.0</ele><time>2026-04-15T09:44:22.999Z</time></trkpt><trkpt lat="-26.210207995130318" lon="113.73473576660548"><ele>9.0</ele><time>2026-04-15T09:44:23.999Z</time></trkpt><trkpt lat="-26.210168512943195" lon="113.73445332125192"><ele>9.0</ele><time>2026-04-15T09:44:24.999Z</time></trkpt><trkpt lat="-26.210128505032472" lon="113.73417301473548"><ele>9.0</ele><time>2026-04-15T09:44:25.999Z</time></trkpt><trkpt lat="-26.210096172033854" lon="113.73389414399851"><ele>9.0</ele><time>2026-04-15T09:44:26.999Z</time></trkpt><trkpt lat="-26.21006788477313" lon="113.73361701224896"><ele>9.0</ele><time>2026-04-15T09:44:27.999Z</time></trkpt><trkpt lat="-26.210041930099177" lon="113.73334812733493"><ele>9.0</ele><time>2026-04-15T09:44:28.999Z</time></trkpt><trkpt lat="-26.210019507592023" lon="113.73307918347619"><ele>9.0</ele><time>2026-04-15T09:44:29.999Z</time></trkpt><trkpt lat="-26.209993581301845" lon="113.73280830982216"><ele>8.5</ele><time>2026-04-15T09:44:30.999Z</time></trkpt><trkpt lat="-26.209964748173007" lon="113.73254462911613"><ele>8.0</ele><time>2026-04-15T09:44:31.999Z</time></trkpt><trkpt lat="-26.209930485053036" lon="113.73228143949555"><ele>8.0</ele><time>2026-04-15T09:44:32.999Z</time></trkpt><trkpt lat="-26.20989713663227" lon="113.7320220421938"><ele>8.0</ele><time>2026-04-15T09:44:33.999Z</time></trkpt><trkpt lat="-26.209862584861067" lon="113.73176171185624"><ele>8.5</ele><time>2026-04-15T09:44:34.999Z</time></trkpt><trkpt lat="-26.20982923494814" lon="113.73150271275041"><ele>9.0</ele><time>2026-04-15T09:44:35.999Z</time></trkpt><trkpt lat="-26.20979670270067" lon="113.73124605327037"><ele>9.5</ele><time>2026-04-15T09:44:36.999Z</time></trkpt><trkpt lat="-26.209766245613096" lon="113.73098910006767"><ele>10.0</ele><time>2026-04-15T09:44:37.999Z</time></trkpt><trkpt lat="-26.20973686442677" lon="113.73073533091592"><ele>10.0</ele><time>2026-04-15T09:44:38.999Z</time></trkpt><trkpt lat="-26.209706965934114" lon="113.73048166856651"><ele>10.0</ele><time>2026-04-15T09:44:39.999Z</time></trkpt><trkpt lat="-26.209677651289077" lon="113.73022625187394"><ele>10.5</ele><time>2026-04-15T09:44:40.999Z</time></trkpt><trkpt lat="-26.20964852297371" lon="113.72996338514795"><ele>11.0</ele><time>2026-04-15T09:44:41.999Z</time></trkpt><trkpt lat="-26.20962067605294" lon="113.72969742044532"><ele>11.0</ele><time>2026-04-15T09:44:42.999Z</time></trkpt><trkpt lat="-26.20959015140406" lon="113.72942869073674"><ele>11.0</ele><time>2026-04-15T09:44:43.999Z</time></trkpt><trkpt lat="-26.209554551908628" lon="113.72915808637924"><ele>9.5</ele><time>2026-04-15T09:44:44.999Z</time></trkpt><trkpt lat="-26.209517953110424" lon="113.72888553286965"><ele>8.0</ele><time>2026-04-15T09:44:45.999Z</time></trkpt><trkpt lat="-26.20948368027131" lon="113.72861117965124"><ele>8.0</ele><time>2026-04-15T09:44:46.999Z</time></trkpt><trkpt lat="-26.209450941934683" lon="113.72833852868038"><ele>8.0</ele><time>2026-04-15T09:44:47.999Z</time></trkpt><trkpt lat="-26.209414927849956" lon="113.728067536872"><ele>10.0</ele><time>2026-04-15T09:44:48.999Z</time></trkpt><trkpt lat="-26.20934932866801" lon="113.72752530905852"><ele>10.0</ele><time>2026-04-15T09:44:50.999Z</time></trkpt><trkpt lat="-26.20931676266497" lon="113.72725685134984"><ele>10.0</ele><time>2026-04-15T09:44:51.999Z</time></trkpt><trkpt lat="-26.209287211239776" lon="113.72698404541917"><ele>9.5</ele><time>2026-04-15T09:44:52.999Z</time></trkpt><trkpt lat="-26.209255701723105" lon="113.72670873162949"><ele>9.0</ele><time>2026-04-15T09:44:53.999Z</time></trkpt><trkpt lat="-26.209224431721587" lon="113.7264321411053"><ele>9.0</ele><time>2026-04-15T09:44:54.999Z</time></trkpt><trkpt lat="-26.20919291427835" lon="113.72615431548189"><ele>9.0</ele><time>2026-04-15T09:44:55.999Z</time></trkpt><trkpt lat="-26.209160473991705" lon="113.72587508321419"><ele>7.5</ele><time>2026-04-15T09:44:56.999Z</time></trkpt><trkpt lat="-26.209126063953736" lon="113.72560063887951"><ele>6.0</ele><time>2026-04-15T09:44:57.999Z</time></trkpt><trkpt lat="-26.209091802969336" lon="113.72533108586518"><ele>6.0</ele><time>2026-04-15T09:44:58.999Z</time></trkpt><trkpt lat="-26.209057237342442" lon="113.72506513932971"><ele>6.0</ele><time>2026-04-15T09:44:59.999Z</time></trkpt><trkpt lat="-26.209023491755442" lon="113.72480105282042"><ele>6.0</ele><time>2026-04-15T09:45:00.999Z</time></trkpt><trkpt lat="-26.2089940515801" lon="113.72453927336414"><ele>6.0</ele><time>2026-04-15T09:45:01.999Z</time></trkpt><trkpt lat="-26.20896650373421" lon="113.7242732132735"><ele>6.5</ele><time>2026-04-15T09:45:02.999Z</time></trkpt><trkpt lat="-26.20893794298446" lon="113.72400879938647"><ele>7.0</ele><time>2026-04-15T09:45:03.999Z</time></trkpt><trkpt lat="-26.208908711019923" lon="113.72374330220158"><ele>6.5</ele><time>2026-04-15T09:45:04.999Z</time></trkpt><trkpt lat="-26.208877472910434" lon="113.7234801846439"><ele>6.0</ele><time>2026-04-15T09:45:05.999Z</time></trkpt><trkpt lat="-26.20884496047142" lon="113.7232179185718"><ele>6.0</ele><time>2026-04-15T09:45:06.999Z</time></trkpt><trkpt lat="-26.20881070996356" lon="113.72295748547155"><ele>6.0</ele><time>2026-04-15T09:45:07.999Z</time></trkpt><trkpt lat="-26.208777420682377" lon="113.72269640207556"><ele>6.0</ele><time>2026-04-15T09:45:08.999Z</time></trkpt><trkpt lat="-26.208745740784337" lon="113.72243023240577"><ele>6.0</ele><time>2026-04-15T09:45:09.999Z</time></trkpt><trkpt lat="-26.208716259065223" lon="113.7221590378129"><ele>6.5</ele><time>2026-04-15T09:45:10.999Z</time></trkpt><trkpt lat="-26.20868432897722" lon="113.72188698622202"><ele>7.0</ele><time>2026-04-15T09:45:11.999Z</time></trkpt><trkpt lat="-26.20864793159632" lon="113.72161344880321"><ele>7.0</ele><time>2026-04-15T09:45:12.999Z</time></trkpt><trkpt lat="-26.208610994177565" lon="113.72133690149374"><ele>7.0</ele><time>2026-04-15T09:45:13.999Z</time></trkpt><trkpt lat="-26.208576575589127" lon="113.7210555113762"><ele>7.5</ele><time>2026-04-15T09:45:14.999Z</time></trkpt><trkpt lat="-26.208544025767726" lon="113.72076680099266"><ele>8.0</ele><time>2026-04-15T09:45:15.999Z</time></trkpt><trkpt lat="-26.20851257946306" lon="113.72048609175772"><ele>8.5</ele><time>2026-04-15T09:45:16.999Z</time></trkpt><trkpt lat="-26.20848331088209" lon="113.72022931192603"><ele>9.0</ele><time>2026-04-15T09:45:17.999Z</time></trkpt><trkpt lat="-26.208449772881355" lon="113.71996935820424"><ele>9.0</ele><time>2026-04-15T09:45:19Z</time></trkpt><trkpt lat="-26.208413391839944" lon="113.71969496916694"><ele>9.0</ele><time>2026-04-15T09:45:20Z</time></trkpt><trkpt lat="-26.2083751047285" lon="113.71941599515448"><ele>10.5</ele><time>2026-04-15T09:45:21Z</time></trkpt><trkpt lat="-26.2083329454358" lon="113.71913894770326"><ele>12.0</ele><time>2026-04-15T09:45:22Z</time></trkpt><trkpt lat="-26.208283099166323" lon="113.7188632415305"><ele>12.0</ele><time>2026-04-15T09:45:23Z</time></trkpt><trkpt lat="-26.208221719334812" lon="113.71858857498812"><ele>12.0</ele><time>2026-04-15T09:45:24Z</time></trkpt><trkpt lat="-26.20814751474951" lon="113.7183151845056"><ele>10.5</ele><time>2026-04-15T09:45:25Z</time></trkpt><trkpt lat="-26.20807052745818" lon="113.71804061140715"><ele>9.0</ele><time>2026-04-15T09:45:26Z</time></trkpt><trkpt lat="-26.207989947426857" lon="113.71776592991372"><ele>8.5</ele><time>2026-04-15T09:45:27Z</time></trkpt><trkpt lat="-26.20790516177326" lon="113.71748988968058"><ele>8.0</ele><time>2026-04-15T09:45:28Z</time></trkpt><trkpt lat="-26.207813637854304" lon="113.71721480838382"><ele>8.0</ele><time>2026-04-15T09:45:29Z</time></trkpt><trkpt lat="-26.207716656046514" lon="113.71694167651977"><ele>8.0</ele><time>2026-04-15T09:45:30Z</time></trkpt><trkpt lat="-26.207621682492682" lon="113.7166650317341"><ele>8.0</ele><time>2026-04-15T09:45:31Z</time></trkpt><trkpt lat="-26.207528247773347" lon="113.71638712833344"><ele>8.0</ele><time>2026-04-15T09:45:32Z</time></trkpt><trkpt lat="-26.2074350695971" lon="113.71610820719505"><ele>8.0</ele><time>2026-04-15T09:45:33Z</time></trkpt><trkpt lat="-26.20734110526704" lon="113.7158256528293"><ele>8.0</ele><time>2026-04-15T09:45:34Z</time></trkpt><trkpt lat="-26.20724759670477" lon="113.71553860082966"><ele>8.0</ele><time>2026-04-15T09:45:35Z</time></trkpt><trkpt lat="-26.207155775383193" lon="113.71525080949458"><ele>8.0</ele><time>2026-04-15T09:45:36Z</time></trkpt><trkpt lat="-26.20706241073847" lon="113.71496485976084"><ele>7.5</ele><time>2026-04-15T09:45:37Z</time></trkpt><trkpt lat="-26.206964959510174" lon="113.71467886689219"><ele>7.0</ele><time>2026-04-15T09:45:38Z</time></trkpt><trkpt lat="-26.206867853593995" lon="113.71439865568956"><ele>7.0</ele><time>2026-04-15T09:45:39Z</time></trkpt><trkpt lat="-26.206773154028276" lon="113.71411556988681"><ele>7.0</ele><time>2026-04-15T09:45:40Z</time></trkpt><trkpt lat="-26.206681891545422" lon="113.71383091922581"><ele>8.0</ele><time>2026-04-15T09:45:41Z</time></trkpt><trkpt lat="-26.20659071581677" lon="113.71354846396764"><ele>9.0</ele><time>2026-04-15T09:45:42Z</time></trkpt><trkpt lat="-26.206497267340975" lon="113.71326587248411"><ele>9.5</ele><time>2026-04-15T09:45:43Z</time></trkpt><trkpt lat="-26.206403271807186" lon="113.71298447363489"><ele>10.0</ele><time>2026-04-15T09:45:43.999Z</time></trkpt><trkpt lat="-26.206308529742188" lon="113.71270082884512"><ele>10.0</ele><time>2026-04-15T09:45:44.999Z</time></trkpt><trkpt lat="-26.20621659829248" lon="113.7124150769656"><ele>10.0</ele><time>2026-04-15T09:45:45.999Z</time></trkpt><trkpt lat="-26.206124499399635" lon="113.71212969724208"><ele>9.5</ele><time>2026-04-15T09:45:46.999Z</time></trkpt><trkpt lat="-26.206029328368242" lon="113.71184484917335"><ele>9.0</ele><time>2026-04-15T09:45:47.999Z</time></trkpt><trkpt lat="-26.205932686553282" lon="113.71155920894796"><ele>9.0</ele><time>2026-04-15T09:45:48.999Z</time></trkpt><trkpt lat="-26.205837041891563" lon="113.71127182591347"><ele>9.0</ele><time>2026-04-15T09:45:49.999Z</time></trkpt><trkpt lat="-26.2057423312396" lon="113.71098440282721"><ele>6.5</ele><time>2026-04-15T09:45:50.999Z</time></trkpt><trkpt lat="-26.205647757566982" lon="113.71069804310173"><ele>4.0</ele><time>2026-04-15T09:45:51.999Z</time></trkpt><trkpt lat="-26.205553102820875" lon="113.71041018012437"><ele>3.5</ele><time>2026-04-15T09:45:52.999Z</time></trkpt><trkpt lat="-26.205457348765872" lon="113.71012163224948"><ele>3.0</ele><time>2026-04-15T09:45:53.999Z</time></trkpt><trkpt lat="-26.205361627162315" lon="113.70983430974044"><ele>3.0</ele><time>2026-04-15T09:45:54.999Z</time></trkpt><trkpt lat="-26.205264996995716" lon="113.70954531938627"><ele>3.0</ele><time>2026-04-15T09:45:55.999Z</time></trkpt><trkpt lat="-26.205165516531515" lon="113.70925583010232"><ele>4.5</ele><time>2026-04-15T09:45:56.999Z</time></trkpt><trkpt lat="-26.2050697839457" lon="113.70896421266738"><ele>6.0</ele><time>2026-04-15T09:45:57.999Z</time></trkpt><trkpt lat="-26.204977909748735" lon="113.70867098285565"><ele>5.5</ele><time>2026-04-15T09:45:58.999Z</time></trkpt><trkpt lat="-26.204883548860863" lon="113.70837802993012"><ele>5.0</ele><time>2026-04-15T09:45:59.999Z</time></trkpt><trkpt lat="-26.204784529184796" lon="113.70809091307466"><ele>5.0</ele><time>2026-04-15T09:46:00.999Z</time></trkpt><trkpt lat="-26.204686764445295" lon="113.70780355871204"><ele>5.0</ele><time>2026-04-15T09:46:01.999Z</time></trkpt><trkpt lat="-26.20459110869057" lon="113.70751753544636"><ele>5.0</ele><time>2026-04-15T09:46:02.999Z</time></trkpt><trkpt lat="-26.20449860961702" lon="113.7072300855897"><ele>5.0</ele><time>2026-04-15T09:46:03.999Z</time></trkpt><trkpt lat="-26.204405774711613" lon="113.70694427877159"><ele>5.5</ele><time>2026-04-15T09:46:04.999Z</time></trkpt><trkpt lat="-26.204312359277893" lon="113.70666123499473"><ele>6.0</ele><time>2026-04-15T09:46:05.999Z</time></trkpt><trkpt lat="-26.20421818152414" lon="113.70637925962276"><ele>6.0</ele><time>2026-04-15T09:46:06.999Z</time></trkpt><trkpt lat="-26.204123074794595" lon="113.70609847534956"><ele>6.0</ele><time>2026-04-15T09:46:07.999Z</time></trkpt><trkpt lat="-26.204029535571657" lon="113.70581779304521"><ele>6.5</ele><time>2026-04-15T09:46:08.999Z</time></trkpt><trkpt lat="-26.203936265527965" lon="113.70553470819604"><ele>7.0</ele><time>2026-04-15T09:46:09.999Z</time></trkpt><trkpt lat="-26.2038446097307" lon="113.70525479735963"><ele>6.0</ele><time>2026-04-15T09:46:10.999Z</time></trkpt><trkpt lat="-26.2037509868225" lon="113.7049732080669"><ele>5.0</ele><time>2026-04-15T09:46:11.999Z</time></trkpt><trkpt lat="-26.203656954507778" lon="113.70468968729092"><ele>4.5</ele><time>2026-04-15T09:46:12.999Z</time></trkpt><trkpt lat="-26.203560506865532" lon="113.7044028401122"><ele>4.0</ele><time>2026-04-15T09:46:13.999Z</time></trkpt><trkpt lat="-26.20346342625174" lon="113.7041123355981"><ele>4.0</ele><time>2026-04-15T09:46:14.999Z</time></trkpt><trkpt lat="-26.203366775737713" lon="113.70382147651006"><ele>4.0</ele><time>2026-04-15T09:46:15.999Z</time></trkpt><trkpt lat="-26.203271425813757" lon="113.70353045082142"><ele>4.5</ele><time>2026-04-15T09:46:16.999Z</time></trkpt><trkpt lat="-26.203176173973574" lon="113.70323534445781"><ele>5.0</ele><time>2026-04-15T09:46:17.999Z</time></trkpt><trkpt lat="-26.20307921592531" lon="113.7029451671851"><ele>4.5</ele><time>2026-04-15T09:46:18.999Z</time></trkpt><trkpt lat="-26.202981072746464" lon="113.70265526454727"><ele>4.0</ele><time>2026-04-15T09:46:19.999Z</time></trkpt><trkpt lat="-26.202884024544055" lon="113.70236554508746"><ele>4.0</ele><time>2026-04-15T09:46:20.999Z</time></trkpt><trkpt lat="-26.2027876844866" lon="113.70207673944594"><ele>4.0</ele><time>2026-04-15T09:46:21.999Z</time></trkpt><trkpt lat="-26.202689477423306" lon="113.70178908563224"><ele>4.5</ele><time>2026-04-15T09:46:22.999Z</time></trkpt><trkpt lat="-26.202589429653884" lon="113.70150109903798"><ele>5.0</ele><time>2026-04-15T09:46:23.999Z</time></trkpt><trkpt lat="-26.202492628720154" lon="113.70121784813767"><ele>5.0</ele><time>2026-04-15T09:46:24.999Z</time></trkpt><trkpt lat="-26.202397949886535" lon="113.70093481199652"><ele>5.0</ele><time>2026-04-15T09:46:25.999Z</time></trkpt><trkpt lat="-26.202303362202944" lon="113.70065072398135"><ele>5.0</ele><time>2026-04-15T09:46:26.999Z</time></trkpt><trkpt lat="-26.20220816524943" lon="113.70036838524295"><ele>5.0</ele><time>2026-04-15T09:46:27.999Z</time></trkpt><trkpt lat="-26.202116134869293" lon="113.70008541347163"><ele>5.0</ele><time>2026-04-15T09:46:28.999Z</time></trkpt><trkpt lat="-26.202026481406033" lon="113.69979848899946"><ele>5.0</ele><time>2026-04-15T09:46:29.999Z</time></trkpt><trkpt lat="-26.201936174943317" lon="113.69950956823267"><ele>5.5</ele><time>2026-04-15T09:46:30.999Z</time></trkpt><trkpt lat="-26.20184265155625" lon="113.69922063225901"><ele>6.0</ele><time>2026-04-15T09:46:31.999Z</time></trkpt><trkpt lat="-26.20174981728108" lon="113.69892954731608"><ele>6.0</ele><time>2026-04-15T09:46:32.999Z</time></trkpt><trkpt lat="-26.201655049310542" lon="113.69863978442177"><ele>6.0</ele><time>2026-04-15T09:46:33.999Z</time></trkpt><trkpt lat="-26.201559432834475" lon="113.69834944518121"><ele>5.5</ele><time>2026-04-15T09:46:34.999Z</time></trkpt><trkpt lat="-26.20146445769288" lon="113.69806436197672"><ele>5.0</ele><time>2026-04-15T09:46:35.999Z</time></trkpt><trkpt lat="-26.201367952108015" lon="113.6977786424745"><ele>6.5</ele><time>2026-04-15T09:46:36.999Z</time></trkpt><trkpt lat="-26.201271802610023" lon="113.69749305260422"><ele>8.0</ele><time>2026-04-15T09:46:37.999Z</time></trkpt><trkpt lat="-26.201177933081276" lon="113.69720728479952"><ele>8.0</ele><time>2026-04-15T09:46:38.999Z</time></trkpt><trkpt lat="-26.201084447825984" lon="113.69692411581416"><ele>8.0</ele><time>2026-04-15T09:46:39.999Z</time></trkpt><trkpt lat="-26.20099090470168" lon="113.69664234576237"><ele>10.5</ele><time>2026-04-15T09:46:40.999Z</time></trkpt><trkpt lat="-26.200898360400455" lon="113.69636400706969"><ele>13.0</ele><time>2026-04-15T09:46:41.999Z</time></trkpt><trkpt lat="-26.200804151821355" lon="113.69608567003007"><ele>13.0</ele><time>2026-04-15T09:46:42.999Z</time></trkpt><trkpt lat="-26.200708328241845" lon="113.69580633501522"><ele>13.0</ele><time>2026-04-15T09:46:43.999Z</time></trkpt><trkpt lat="-26.200614897329725" lon="113.69552649486273"><ele>14.5</ele><time>2026-04-15T09:46:44.999Z</time></trkpt><trkpt lat="-26.20052097152878" lon="113.69524570873342"><ele>16.0</ele><time>2026-04-15T09:46:45.999Z</time></trkpt><trkpt lat="-26.200423012641455" lon="113.69496838736731"><ele>16.0</ele><time>2026-04-15T09:46:46.999Z</time></trkpt><trkpt lat="-26.20031805164473" lon="113.69469581576436"><ele>16.0</ele><time>2026-04-15T09:46:47.999Z</time></trkpt><trkpt lat="-26.200199576833704" lon="113.69442967164383"><ele>17.0</ele><time>2026-04-15T09:46:48.999Z</time></trkpt><trkpt lat="-26.200066729333077" lon="113.69416730428733"><ele>18.0</ele><time>2026-04-15T09:46:49.999Z</time></trkpt><trkpt lat="-26.19992423175189" lon="113.69390726711669"><ele>18.0</ele><time>2026-04-15T09:46:50.999Z</time></trkpt><trkpt lat="-26.199773217903697" lon="113.69364604320258"><ele>18.0</ele><time>2026-04-15T09:46:51.999Z</time></trkpt><trkpt lat="-26.199618373969432" lon="113.69339065333682"><ele>18.0</ele><time>2026-04-15T09:46:52.999Z</time></trkpt><trkpt lat="-26.19945822353845" lon="113.69313737583563"><ele>18.0</ele><time>2026-04-15T09:46:53.999Z</time></trkpt><trkpt lat="-26.1992910242571" lon="113.69289269766819"><ele>16.5</ele><time>2026-04-15T09:46:54.999Z</time></trkpt><trkpt lat="-26.199115046633544" lon="113.6926508099696"><ele>15.0</ele><time>2026-04-15T09:46:55.999Z</time></trkpt><trkpt lat="-26.198933252279115" lon="113.69241645018025"><ele>14.5</ele><time>2026-04-15T09:46:56.999Z</time></trkpt><trkpt lat="-26.198740768051806" lon="113.69219001391633"><ele>14.0</ele><time>2026-04-15T09:46:57.999Z</time></trkpt><trkpt lat="-26.198541515638635" lon="113.69197044261746"><ele>13.5</ele><time>2026-04-15T09:46:58.999Z</time></trkpt><trkpt lat="-26.19833461310918" lon="113.69175996961032"><ele>13.0</ele><time>2026-04-15T09:46:59.999Z</time></trkpt><trkpt lat="-26.19811897131277" lon="113.69155921796947"><ele>13.0</ele><time>2026-04-15T09:47:00.999Z</time></trkpt><trkpt lat="-26.197895443565645" lon="113.69136434864211"><ele>13.0</ele><time>2026-04-15T09:47:01.999Z</time></trkpt><trkpt lat="-26.19766885029923" lon="113.69117499158682"><ele>13.5</ele><time>2026-04-15T09:47:02.999Z</time></trkpt><trkpt lat="-26.197437207606423" lon="113.69099871904389"><ele>14.0</ele><time>2026-04-15T09:47:03.999Z</time></trkpt><trkpt lat="-26.19719921655524" lon="113.69083220866415"><ele>13.0</ele><time>2026-04-15T09:47:04.999Z</time></trkpt><trkpt lat="-26.19695963433183" lon="113.69067259166117"><ele>12.0</ele><time>2026-04-15T09:47:05.999Z</time></trkpt><trkpt lat="-26.196716099481957" lon="113.69052009444614"><ele>13.5</ele><time>2026-04-15T09:47:06.999Z</time></trkpt><trkpt lat="-26.19646928373291" lon="113.690377461453"><ele>15.0</ele><time>2026-04-15T09:47:07.999Z</time></trkpt><trkpt lat="-26.19621786129244" lon="113.69024867841651"><ele>16.0</ele><time>2026-04-15T09:47:08.999Z</time></trkpt><trkpt lat="-26.19596236348748" lon="113.69012871365388"><ele>17.0</ele><time>2026-04-15T09:47:09.999Z</time></trkpt><trkpt lat="-26.195702315277853" lon="113.69001470525667"><ele>16.0</ele><time>2026-04-15T09:47:10.999Z</time></trkpt><trkpt lat="-26.195439564285284" lon="113.68990989594961"><ele>15.0</ele><time>2026-04-15T09:47:11.999Z</time></trkpt><trkpt lat="-26.195174864521828" lon="113.68981375361828"><ele>15.0</ele><time>2026-04-15T09:47:12.999Z</time></trkpt><trkpt lat="-26.1949097837953" lon="113.68973351303036"><ele>15.0</ele><time>2026-04-15T09:47:13.999Z</time></trkpt><trkpt lat="-26.194640883835106" lon="113.68966256959332"><ele>15.0</ele><time>2026-04-15T09:47:14.999Z</time></trkpt><trkpt lat="-26.194372643329316" lon="113.68960157072252"><ele>15.0</ele><time>2026-04-15T09:47:15.999Z</time></trkpt><trkpt lat="-26.194103163016422" lon="113.68954902600213"><ele>16.0</ele><time>2026-04-15T09:47:16.999Z</time></trkpt><trkpt lat="-26.193836585073765" lon="113.6895083385855"><ele>17.0</ele><time>2026-04-15T09:47:17.999Z</time></trkpt><trkpt lat="-26.193569233004723" lon="113.68947909741068"><ele>17.0</ele><time>2026-04-15T09:47:18.999Z</time></trkpt><trkpt lat="-26.193303066701414" lon="113.68945461693124"><ele>17.0</ele><time>2026-04-15T09:47:19.999Z</time></trkpt><trkpt lat="-26.193039550417936" lon="113.68944046252182"><ele>17.5</ele><time>2026-04-15T09:47:20.999Z</time></trkpt><trkpt lat="-26.19277598589617" lon="113.6894345915964"><ele>18.0</ele><time>2026-04-15T09:47:21.999Z</time></trkpt><trkpt lat="-26.19250976410425" lon="113.68943102633943"><ele>17.5</ele><time>2026-04-15T09:47:22.999Z</time></trkpt><trkpt lat="-26.192246085753588" lon="113.68942352289113"><ele>17.0</ele><time>2026-04-15T09:47:23.999Z</time></trkpt><trkpt lat="-26.191980434388924" lon="113.68941355410615"><ele>17.0</ele><time>2026-04-15T09:47:25Z</time></trkpt><trkpt lat="-26.191717580512186" lon="113.68940548405669"><ele>17.0</ele><time>2026-04-15T09:47:26Z</time></trkpt><trkpt lat="-26.191452971509783" lon="113.68939771350888"><ele>16.0</ele><time>2026-04-15T09:47:27Z</time></trkpt><trkpt lat="-26.191190268713047" lon="113.68939039200902"><ele>15.0</ele><time>2026-04-15T09:47:28Z</time></trkpt><trkpt lat="-26.19092158823601" lon="113.68937965914797"><ele>15.0</ele><time>2026-04-15T09:47:29Z</time></trkpt><trkpt lat="-26.19064342428555" lon="113.6893653432771"><ele>15.0</ele><time>2026-04-15T09:47:30Z</time></trkpt><trkpt lat="-26.190363603910768" lon="113.68935287113926"><ele>15.0</ele><time>2026-04-15T09:47:31Z</time></trkpt><trkpt lat="-26.190082902715908" lon="113.68934316291146"><ele>15.0</ele><time>2026-04-15T09:47:32Z</time></trkpt><trkpt lat="-26.18980213524794" lon="113.68933343481437"><ele>15.0</ele><time>2026-04-15T09:47:33Z</time></trkpt><trkpt lat="-26.189522040675197" lon="113.68932491326322"><ele>15.0</ele><time>2026-04-15T09:47:34Z</time></trkpt><trkpt lat="-26.189243035025644" lon="113.68931865430734"><ele>15.0</ele><time>2026-04-15T09:47:35Z</time></trkpt><trkpt lat="-26.18896554712083" lon="113.68931147394721"><ele>15.0</ele><time>2026-04-15T09:47:36Z</time></trkpt><trkpt lat="-26.188688775316656" lon="113.68930261381915"><ele>15.0</ele><time>2026-04-15T09:47:37Z</time></trkpt><trkpt lat="-26.188410679477066" lon="113.6892909438347"><ele>15.0</ele><time>2026-04-15T09:47:38Z</time></trkpt><trkpt lat="-26.188132626096007" lon="113.68927995001772"><ele>15.0</ele><time>2026-04-15T09:47:39Z</time></trkpt><trkpt lat="-26.187854919716997" lon="113.68926950067659"><ele>15.0</ele><time>2026-04-15T09:47:40Z</time></trkpt><trkpt lat="-26.18757722576173" lon="113.68926060594825"><ele>15.5</ele><time>2026-04-15T09:47:41Z</time></trkpt><trkpt lat="-26.187296631005093" lon="113.68925206212198"><ele>16.0</ele><time>2026-04-15T09:47:42Z</time></trkpt><trkpt lat="-26.187012768121146" lon="113.68924140722423"><ele>16.0</ele><time>2026-04-15T09:47:43Z</time></trkpt><trkpt lat="-26.186725687233146" lon="113.68923259503894"><ele>16.0</ele><time>2026-04-15T09:47:44Z</time></trkpt><trkpt lat="-26.186436779336532" lon="113.6892255506865"><ele>16.5</ele><time>2026-04-15T09:47:45Z</time></trkpt><trkpt lat="-26.186145907998206" lon="113.68921761866441"><ele>17.0</ele><time>2026-04-15T09:47:46Z</time></trkpt><trkpt lat="-26.18585720797769" lon="113.68920885301476"><ele>17.5</ele><time>2026-04-15T09:47:47Z</time></trkpt><trkpt lat="-26.18556942799023" lon="113.6892010430044"><ele>18.0</ele><time>2026-04-15T09:47:48Z</time></trkpt><trkpt lat="-26.185283919522934" lon="113.68919197137396"><ele>18.0</ele><time>2026-04-15T09:47:49Z</time></trkpt><trkpt lat="-26.184996136211637" lon="113.68918319632121"><ele>18.0</ele><time>2026-04-15T09:47:50Z</time></trkpt><trkpt lat="-26.184710066793212" lon="113.68917547692972"><ele>17.5</ele><time>2026-04-15T09:47:51Z</time></trkpt><trkpt lat="-26.184422897080715" lon="113.68916812100196"><ele>17.0</ele><time>2026-04-15T09:47:52Z</time></trkpt><trkpt lat="-26.184134835593056" lon="113.68915839113438"><ele>18.5</ele><time>2026-04-15T09:47:53Z</time></trkpt><trkpt lat="-26.183846319735856" lon="113.68914692740064"><ele>20.0</ele><time>2026-04-15T09:47:54Z</time></trkpt><trkpt lat="-26.183556408014603" lon="113.68913734479446"><ele>20.0</ele><time>2026-04-15T09:47:55Z</time></trkpt><trkpt lat="-26.183268197162878" lon="113.68912771033445"><ele>20.0</ele><time>2026-04-15T09:47:56Z</time></trkpt><trkpt lat="-26.182978292790196" lon="113.6891190129406"><ele>20.0</ele><time>2026-04-15T09:47:56.999Z</time></trkpt><trkpt lat="-26.18268973943439" lon="113.6891096184613"><ele>20.0</ele><time>2026-04-15T09:47:57.999Z</time></trkpt><trkpt lat="-26.182399904374872" lon="113.68909872031838"><ele>20.0</ele><time>2026-04-15T09:47:58.999Z</time></trkpt><trkpt lat="-26.182108723245772" lon="113.68908881068342"><ele>20.0</ele><time>2026-04-15T09:47:59.999Z</time></trkpt><trkpt lat="-26.181818475197616" lon="113.68908246844566"><ele>20.0</ele><time>2026-04-15T09:48:00.999Z</time></trkpt><trkpt lat="-26.18152838700133" lon="113.6890735968227"><ele>20.0</ele><time>2026-04-15T09:48:01.999Z</time></trkpt><trkpt lat="-26.18123653107389" lon="113.68906221466776"><ele>19.5</ele><time>2026-04-15T09:48:02.999Z</time></trkpt><trkpt lat="-26.180945852149552" lon="113.68905424775625"><ele>19.0</ele><time>2026-04-15T09:48:03.999Z</time></trkpt><trkpt lat="-26.180655193236802" lon="113.68904606505393"><ele>17.0</ele><time>2026-04-15T09:48:04.999Z</time></trkpt><trkpt lat="-26.18036322122093" lon="113.68903798627038"><ele>15.0</ele><time>2026-04-15T09:48:05.999Z</time></trkpt><trkpt lat="-26.18007107832969" lon="113.68902968152481"><ele>14.0</ele><time>2026-04-15T09:48:06.999Z</time></trkpt><trkpt lat="-26.179780511956324" lon="113.68901954995023"><ele>13.0</ele><time>2026-04-15T09:48:07.999Z</time></trkpt><trkpt lat="-26.179489249384055" lon="113.68900628415076"><ele>13.0</ele><time>2026-04-15T09:48:08.999Z</time></trkpt><trkpt lat="-26.179201239654663" lon="113.68898617588793"><ele>13.0</ele><time>2026-04-15T09:48:09.999Z</time></trkpt><trkpt lat="-26.17891542429558" lon="113.68895329472828"><ele>14.0</ele><time>2026-04-15T09:48:10.999Z</time></trkpt><trkpt lat="-26.178631212077523" lon="113.68890638660919"><ele>15.0</ele><time>2026-04-15T09:48:11.999Z</time></trkpt><trkpt lat="-26.178348879511358" lon="113.68884722542593"><ele>14.5</ele><time>2026-04-15T09:48:12.999Z</time></trkpt><trkpt lat="-26.17806724286909" lon="113.6887763542388"><ele>14.0</ele><time>2026-04-15T09:48:13.999Z</time></trkpt><trkpt lat="-26.177784529890985" lon="113.68869572019058"><ele>14.0</ele><time>2026-04-15T09:48:14.999Z</time></trkpt><trkpt lat="-26.177500094723595" lon="113.68860627130697"><ele>14.0</ele><time>2026-04-15T09:48:15.999Z</time></trkpt><trkpt lat="-26.17721850594545" lon="113.6885059036289"><ele>12.5</ele><time>2026-04-15T09:48:16.999Z</time></trkpt><trkpt lat="-26.176944089456107" lon="113.68839490753378"><ele>11.0</ele><time>2026-04-15T09:48:17.999Z</time></trkpt><trkpt lat="-26.17667449816808" lon="113.68826938482061"><ele>11.0</ele><time>2026-04-15T09:48:18.999Z</time></trkpt><trkpt lat="-26.17641354602619" lon="113.6881305362074"><ele>11.0</ele><time>2026-04-15T09:48:19.999Z</time></trkpt><trkpt lat="-26.176153802075316" lon="113.6879815451467"><ele>11.0</ele><time>2026-04-15T09:48:20.999Z</time></trkpt><trkpt lat="-26.17589448548704" lon="113.68782599814324"><ele>11.0</ele><time>2026-04-15T09:48:21.999Z</time></trkpt><trkpt lat="-26.17563969722927" lon="113.68766749232559"><ele>9.0</ele><time>2026-04-15T09:48:22.999Z</time></trkpt><trkpt lat="-26.1753893142746" lon="113.68750809178555"><ele>7.0</ele><time>2026-04-15T09:48:23.999Z</time></trkpt><trkpt lat="-26.175138241553096" lon="113.68735274528451"><ele>7.0</ele><time>2026-04-15T09:48:24.999Z</time></trkpt><trkpt lat="-26.174885327730305" lon="113.68720225544259"><ele>7.0</ele><time>2026-04-15T09:48:25.999Z</time></trkpt><trkpt lat="-26.17463242699379" lon="113.68705217139735"><ele>7.0</ele><time>2026-04-15T09:48:26.999Z</time></trkpt><trkpt lat="-26.174384095884545" lon="113.68690454463727"><ele>7.0</ele><time>2026-04-15T09:48:27.999Z</time></trkpt><trkpt lat="-26.174131829287486" lon="113.6867535419632"><ele>6.5</ele><time>2026-04-15T09:48:28.999Z</time></trkpt><trkpt lat="-26.1738819499329" lon="113.68660194664561"><ele>6.0</ele><time>2026-04-15T09:48:29.999Z</time></trkpt><trkpt lat="-26.173632917291247" lon="113.68645022929078"><ele>6.0</ele><time>2026-04-15T09:48:30.999Z</time></trkpt><trkpt lat="-26.17338476396993" lon="113.68629727698419"><ele>6.0</ele><time>2026-04-15T09:48:31.999Z</time></trkpt><trkpt lat="-26.173137944965983" lon="113.68614663418194"><ele>7.0</ele><time>2026-04-15T09:48:32.999Z</time></trkpt><trkpt lat="-26.172891334552418" lon="113.68599791274387"><ele>8.0</ele><time>2026-04-15T09:48:33.999Z</time></trkpt><trkpt lat="-26.172643994667084" lon="113.68584901952882"><ele>8.0</ele><time>2026-04-15T09:48:34.999Z</time></trkpt><trkpt lat="-26.172395826267984" lon="113.68569771924929"><ele>8.0</ele><time>2026-04-15T09:48:35.999Z</time></trkpt><trkpt lat="-26.172146831753626" lon="113.68554126139354"><ele>8.0</ele><time>2026-04-15T09:48:36.999Z</time></trkpt><trkpt lat="-26.17189497318749" lon="113.68538580140752"><ele>8.0</ele><time>2026-04-15T09:48:37.999Z</time></trkpt><trkpt lat="-26.17164028869431" lon="113.68523042079767"><ele>8.5</ele><time>2026-04-15T09:48:38.999Z</time></trkpt><trkpt lat="-26.17138680876927" lon="113.68507503184043"><ele>9.0</ele><time>2026-04-15T09:48:39.999Z</time></trkpt><trkpt lat="-26.171134018516227" lon="113.68492252383619"><ele>9.0</ele><time>2026-04-15T09:48:40.999Z</time></trkpt><trkpt lat="-26.170880157996578" lon="113.68477102523062"><ele>9.0</ele><time>2026-04-15T09:48:41.999Z</time></trkpt><trkpt lat="-26.17062852154957" lon="113.68462199018263"><ele>9.5</ele><time>2026-04-15T09:48:42.999Z</time></trkpt><trkpt lat="-26.170377954660502" lon="113.68447098643672"><ele>10.0</ele><time>2026-04-15T09:48:43.999Z</time></trkpt><trkpt lat="-26.17012846752377" lon="113.6843187971019"><ele>10.0</ele><time>2026-04-15T09:48:44.999Z</time></trkpt><trkpt lat="-26.169877518957147" lon="113.68416472445239"><ele>10.0</ele><time>2026-04-15T09:48:45.999Z</time></trkpt><trkpt lat="-26.169626291378652" lon="113.68401108849295"><ele>9.5</ele><time>2026-04-15T09:48:46.999Z</time></trkpt><trkpt lat="-26.169371934044317" lon="113.68385644940793"><ele>9.0</ele><time>2026-04-15T09:48:47.999Z</time></trkpt><trkpt lat="-26.16911220667285" lon="113.68370066075221"><ele>7.5</ele><time>2026-04-15T09:48:48.999Z</time></trkpt><trkpt lat="-26.168851978947075" lon="113.68354452952026"><ele>6.0</ele><time>2026-04-15T09:48:49.999Z</time></trkpt><trkpt lat="-26.168592979134132" lon="113.68338721900025"><ele>6.0</ele><time>2026-04-15T09:48:50.999Z</time></trkpt><trkpt lat="-26.168333730037368" lon="113.68323237650105"><ele>6.0</ele><time>2026-04-15T09:48:51.999Z</time></trkpt><trkpt lat="-26.168076757623513" lon="113.68307769076408"><ele>6.0</ele><time>2026-04-15T09:48:52.999Z</time></trkpt><trkpt lat="-26.167829562789507" lon="113.6829071315785"><ele>6.0</ele><time>2026-04-15T09:48:53.999Z</time></trkpt><trkpt lat="-26.16757536221552" lon="113.68275176248028"><ele>7.0</ele><time>2026-04-15T09:48:54.999Z</time></trkpt><trkpt lat="-26.16731485030249" lon="113.68261251009534"><ele>8.0</ele><time>2026-04-15T09:48:55.999Z</time></trkpt><trkpt lat="-26.167062319360554" lon="113.68245555058216"><ele>8.0</ele><time>2026-04-15T09:48:56.999Z</time></trkpt><trkpt lat="-26.16681089361194" lon="113.68229690656445"><ele>8.0</ele><time>2026-04-15T09:48:57.999Z</time></trkpt><trkpt lat="-26.166558275903732" lon="113.68213825269947"><ele>8.0</ele><time>2026-04-15T09:48:58.999Z</time></trkpt><trkpt lat="-26.16630464144667" lon="113.68198130479229"><ele>8.0</ele><time>2026-04-15T09:48:59.999Z</time></trkpt><trkpt lat="-26.166049715065586" lon="113.68182781737913"><ele>8.5</ele><time>2026-04-15T09:49:00.999Z</time></trkpt><trkpt lat="-26.165796132030636" lon="113.68167555438069"><ele>9.0</ele><time>2026-04-15T09:49:01.999Z</time></trkpt><trkpt lat="-26.165541609401195" lon="113.68152181778143"><ele>9.0</ele><time>2026-04-15T09:49:02.999Z</time></trkpt><trkpt lat="-26.165288131977952" lon="113.68137021892582"><ele>9.0</ele><time>2026-04-15T09:49:03.999Z</time></trkpt><trkpt lat="-26.16503621846832" lon="113.68122021383705"><ele>9.5</ele><time>2026-04-15T09:49:04.999Z</time></trkpt><trkpt lat="-26.16478737424019" lon="113.68107096756992"><ele>10.0</ele><time>2026-04-15T09:49:05.999Z</time></trkpt><trkpt lat="-26.164540596650504" lon="113.68092049404068"><ele>10.0</ele><time>2026-04-15T09:49:06.999Z</time></trkpt><trkpt lat="-26.164291526244245" lon="113.6807709104101"><ele>10.0</ele><time>2026-04-15T09:49:07.999Z</time></trkpt><trkpt lat="-26.164043081820758" lon="113.68062355610708"><ele>9.0</ele><time>2026-04-15T09:49:08.999Z</time></trkpt><trkpt lat="-26.163795558639073" lon="113.68047332024777"><ele>8.0</ele><time>2026-04-15T09:49:09.999Z</time></trkpt><trkpt lat="-26.16355010187084" lon="113.68031990041902"><ele>8.0</ele><time>2026-04-15T09:49:10.999Z</time></trkpt><trkpt lat="-26.1633042564268" lon="113.6801697931381"><ele>8.0</ele><time>2026-04-15T09:49:11.999Z</time></trkpt><trkpt lat="-26.16305899091799" lon="113.68002166531038"><ele>8.0</ele><time>2026-04-15T09:49:12.999Z</time></trkpt><trkpt lat="-26.162813832910476" lon="113.67987395598207"><ele>8.0</ele><time>2026-04-15T09:49:13.999Z</time></trkpt><trkpt lat="-26.162569213078026" lon="113.67972750228982"><ele>7.0</ele><time>2026-04-15T09:49:14.999Z</time></trkpt><trkpt lat="-26.162327461617835" lon="113.67958168715177"><ele>6.0</ele><time>2026-04-15T09:49:15.999Z</time></trkpt><trkpt lat="-26.16208496324161" lon="113.67943465423278"><ele>7.0</ele><time>2026-04-15T09:49:16.999Z</time></trkpt><trkpt lat="-26.161856472445713" lon="113.67929244852517"><ele>8.0</ele><time>2026-04-15T09:49:17.999Z</time></trkpt><trkpt lat="-26.161648437137316" lon="113.67916429345406"><ele>8.5</ele><time>2026-04-15T09:49:18.999Z</time></trkpt><trkpt lat="-26.161441138622386" lon="113.67903500753481"><ele>9.0</ele><time>2026-04-15T09:49:19.999Z</time></trkpt><trkpt lat="-26.161224301104095" lon="113.67890121393357"><ele>9.0</ele><time>2026-04-15T09:49:20.999Z</time></trkpt><trkpt lat="-26.160999086686136" lon="113.67876590505671"><ele>9.0</ele><time>2026-04-15T09:49:21.999Z</time></trkpt><trkpt lat="-26.16077051950571" lon="113.67862809662513"><ele>9.5</ele><time>2026-04-15T09:49:22.999Z</time></trkpt><trkpt lat="-26.160543974112066" lon="113.67848902015517"><ele>10.0</ele><time>2026-04-15T09:49:23.999Z</time></trkpt><trkpt lat="-26.160322485448944" lon="113.6783444985708"><ele>10.0</ele><time>2026-04-15T09:49:24.999Z</time></trkpt><trkpt lat="-26.16010770049806" lon="113.67818941191054"><ele>10.0</ele><time>2026-04-15T09:49:25.999Z</time></trkpt><trkpt lat="-26.159896420590623" lon="113.67802186949801"><ele>9.5</ele><time>2026-04-15T09:49:26.999Z</time></trkpt><trkpt lat="-26.159685625044954" lon="113.67784316081672"><ele>9.0</ele><time>2026-04-15T09:49:27.999Z</time></trkpt><trkpt lat="-26.159474007391676" lon="113.67765601381072"><ele>11.5</ele><time>2026-04-15T09:49:28.999Z</time></trkpt><trkpt lat="-26.159257125639755" lon="113.67746030147062"><ele>14.0</ele><time>2026-04-15T09:49:29.999Z</time></trkpt><trkpt lat="-26.15904523765459" lon="113.67725914703603"><ele>14.0</ele><time>2026-04-15T09:49:31Z</time></trkpt><trkpt lat="-26.158838575290815" lon="113.67705270217179"><ele>14.0</ele><time>2026-04-15T09:49:32Z</time></trkpt><trkpt lat="-26.15863790532541" lon="113.67684190380747"><ele>15.0</ele><time>2026-04-15T09:49:33Z</time></trkpt><trkpt lat="-26.158440240422546" lon="113.67663075787037"><ele>16.0</ele><time>2026-04-15T09:49:34Z</time></trkpt><trkpt lat="-26.15824254167349" lon="113.67642254816586"><ele>15.5</ele><time>2026-04-15T09:49:35Z</time></trkpt><trkpt lat="-26.15804528882948" lon="113.67621528153413"><ele>15.0</ele><time>2026-04-15T09:49:36Z</time></trkpt><trkpt lat="-26.15784822275175" lon="113.67600877484402"><ele>16.5</ele><time>2026-04-15T09:49:37Z</time></trkpt><trkpt lat="-26.15765032464132" lon="113.67579956739375"><ele>18.0</ele><time>2026-04-15T09:49:38Z</time></trkpt><trkpt lat="-26.15745462522491" lon="113.67559299675246"><ele>18.5</ele><time>2026-04-15T09:49:39Z</time></trkpt><trkpt lat="-26.15726003394081" lon="113.67538872876574"><ele>19.0</ele><time>2026-04-15T09:49:40Z</time></trkpt><trkpt lat="-26.157065658923706" lon="113.67518405709367"><ele>19.0</ele><time>2026-04-15T09:49:41Z</time></trkpt><trkpt lat="-26.15687198545292" lon="113.67498038563745"><ele>19.0</ele><time>2026-04-15T09:49:42Z</time></trkpt><trkpt lat="-26.15667829663544" lon="113.67477667126806"><ele>19.5</ele><time>2026-04-15T09:49:43Z</time></trkpt><trkpt lat="-26.15648913487405" lon="113.67457654729432"><ele>20.0</ele><time>2026-04-15T09:49:44Z</time></trkpt><trkpt lat="-26.156298028844958" lon="113.67437663811756"><ele>21.0</ele><time>2026-04-15T09:49:45Z</time></trkpt><trkpt lat="-26.156106329403634" lon="113.67417760311471"><ele>22.0</ele><time>2026-04-15T09:49:46Z</time></trkpt><trkpt lat="-26.155913029715354" lon="113.67397559800214"><ele>22.0</ele><time>2026-04-15T09:49:47Z</time></trkpt><trkpt lat="-26.15571700297128" lon="113.67376863624771"><ele>22.0</ele><time>2026-04-15T09:49:48Z</time></trkpt><trkpt lat="-26.155518329910585" lon="113.6735609600433"><ele>23.0</ele><time>2026-04-15T09:49:49Z</time></trkpt><trkpt lat="-26.15531891710172" lon="113.67335460103911"><ele>24.0</ele><time>2026-04-15T09:49:50Z</time></trkpt><trkpt lat="-26.155119742765987" lon="113.67314923380196"><ele>24.0</ele><time>2026-04-15T09:49:51Z</time></trkpt><trkpt lat="-26.154920456902467" lon="113.67294296374413"><ele>24.0</ele><time>2026-04-15T09:49:52Z</time></trkpt><trkpt lat="-26.154722009604125" lon="113.67273387489176"><ele>26.0</ele><time>2026-04-15T09:49:53Z</time></trkpt><trkpt lat="-26.15452442413603" lon="113.67252413569824"><ele>28.0</ele><time>2026-04-15T09:49:54Z</time></trkpt><trkpt lat="-26.15432807444482" lon="113.67231542269096"><ele>28.0</ele><time>2026-04-15T09:49:55Z</time></trkpt><trkpt lat="-26.154130873476074" lon="113.67210659275628"><ele>28.0</ele><time>2026-04-15T09:49:56Z</time></trkpt><trkpt lat="-26.1539352876847" lon="113.67189755662245"><ele>28.0</ele><time>2026-04-15T09:49:57Z</time></trkpt><trkpt lat="-26.153739653549955" lon="113.67169019633396"><ele>28.0</ele><time>2026-04-15T09:49:58Z</time></trkpt><trkpt lat="-26.15354406472246" lon="113.67148430116485"><ele>28.0</ele><time>2026-04-15T09:49:59Z</time></trkpt><trkpt lat="-26.153348361687872" lon="113.67127631960847"><ele>28.0</ele><time>2026-04-15T09:50:00Z</time></trkpt><trkpt lat="-26.153155166994477" lon="113.6710713395065"><ele>27.0</ele><time>2026-04-15T09:50:01Z</time></trkpt><trkpt lat="-26.15295824018363" lon="113.67086450789333"><ele>26.0</ele><time>2026-04-15T09:50:02Z</time></trkpt><trkpt lat="-26.15276017878695" lon="113.67065596003145"><ele>26.0</ele><time>2026-04-15T09:50:03Z</time></trkpt><trkpt lat="-26.152559667895396" lon="113.67044402769193"><ele>26.0</ele><time>2026-04-15T09:50:04Z</time></trkpt><trkpt lat="-26.1523602945754" lon="113.67023413650837"><ele>27.5</ele><time>2026-04-15T09:50:05Z</time></trkpt><trkpt lat="-26.152162214893206" lon="113.6700262452173"><ele>29.0</ele><time>2026-04-15T09:50:06Z</time></trkpt><trkpt lat="-26.151963138658786" lon="113.66981973381537"><ele>29.0</ele><time>2026-04-15T09:50:07Z</time></trkpt><trkpt lat="-26.15176131661553" lon="113.66961034129682"><ele>29.0</ele><time>2026-04-15T09:50:08Z</time></trkpt><trkpt lat="-26.151558408936477" lon="113.66940257057254"><ele>29.0</ele><time>2026-04-15T09:50:09Z</time></trkpt><trkpt lat="-26.151358419137193" lon="113.66919533171497"><ele>29.0</ele><time>2026-04-15T09:50:10Z</time></trkpt><trkpt lat="-26.151158648681147" lon="113.66898443020825"><ele>29.0</ele><time>2026-04-15T09:50:11Z</time></trkpt><trkpt lat="-26.150959638497422" lon="113.66877523525629"><ele>29.0</ele><time>2026-04-15T09:50:12Z</time></trkpt><trkpt lat="-26.150760761151982" lon="113.66856531298072"><ele>28.0</ele><time>2026-04-15T09:50:13Z</time></trkpt><trkpt lat="-26.150563143606217" lon="113.66835584339506"><ele>27.0</ele><time>2026-04-15T09:50:14Z</time></trkpt><trkpt lat="-26.150362864042478" lon="113.66814502173203"><ele>27.0</ele><time>2026-04-15T09:50:14.999Z</time></trkpt><trkpt lat="-26.150164118099216" lon="113.66793557052844"><ele>27.0</ele><time>2026-04-15T09:50:15.999Z</time></trkpt><trkpt lat="-26.149967016575147" lon="113.66773096216662"><ele>28.0</ele><time>2026-04-15T09:50:16.999Z</time></trkpt><trkpt lat="-26.149768380116843" lon="113.66752510431427"><ele>29.0</ele><time>2026-04-15T09:50:17.999Z</time></trkpt><trkpt lat="-26.149570873728003" lon="113.66731679065688"><ele>29.0</ele><time>2026-04-15T09:50:18.999Z</time></trkpt><trkpt lat="-26.149375953130527" lon="113.66710826474262"><ele>29.0</ele><time>2026-04-15T09:50:19.999Z</time></trkpt><trkpt lat="-26.14917964683889" lon="113.66690155593703"><ele>29.5</ele><time>2026-04-15T09:50:20.999Z</time></trkpt><trkpt lat="-26.14898450733825" lon="113.66669750704534"><ele>30.0</ele><time>2026-04-15T09:50:21.999Z</time></trkpt><trkpt lat="-26.148790426313667" lon="113.6664945896348"><ele>30.0</ele><time>2026-04-15T09:50:22.999Z</time></trkpt><trkpt lat="-26.14859245388819" lon="113.66628814679237"><ele>30.0</ele><time>2026-04-15T09:50:23.999Z</time></trkpt><trkpt lat="-26.14839282917883" lon="113.66608511688186"><ele>30.0</ele><time>2026-04-15T09:50:24.999Z</time></trkpt><trkpt lat="-26.148195599958957" lon="113.66588155598977"><ele>30.0</ele><time>2026-04-15T09:50:25.999Z</time></trkpt><trkpt lat="-26.14800041898866" lon="113.66567642895049"><ele>30.0</ele><time>2026-04-15T09:50:26.999Z</time></trkpt><trkpt lat="-26.147808509992085" lon="113.66547309119802"><ele>30.0</ele><time>2026-04-15T09:50:27.999Z</time></trkpt><trkpt lat="-26.147619627665684" lon="113.66527032295694"><ele>28.5</ele><time>2026-04-15T09:50:28.999Z</time></trkpt><trkpt lat="-26.14742931267827" lon="113.66506908419275"><ele>27.0</ele><time>2026-04-15T09:50:29.999Z</time></trkpt><trkpt lat="-26.14723702295921" lon="113.66486762997502"><ele>27.0</ele><time>2026-04-15T09:50:30.999Z</time></trkpt><trkpt lat="-26.14704496770183" lon="113.6646699511122"><ele>27.0</ele><time>2026-04-15T09:50:31.999Z</time></trkpt><trkpt lat="-26.146853844363722" lon="113.66447233022458"><ele>26.5</ele><time>2026-04-15T09:50:32.999Z</time></trkpt><trkpt lat="-26.146662628870082" lon="113.66427329185892"><ele>26.0</ele><time>2026-04-15T09:50:33.999Z</time></trkpt><trkpt lat="-26.146471009569566" lon="113.66407175352086"><ele>26.0</ele><time>2026-04-15T09:50:34.999Z</time></trkpt><trkpt lat="-26.146281436097063" lon="113.66386921432478"><ele>26.0</ele><time>2026-04-15T09:50:35.999Z</time></trkpt><trkpt lat="-26.14609044913532" lon="113.66366532473072"><ele>25.5</ele><time>2026-04-15T09:50:36.999Z</time></trkpt><trkpt lat="-26.14589955618096" lon="113.66346140116491"><ele>25.0</ele><time>2026-04-15T09:50:37.999Z</time></trkpt><trkpt lat="-26.145708538909165" lon="113.66325870246801"><ele>24.0</ele><time>2026-04-15T09:50:38.999Z</time></trkpt><trkpt lat="-26.145518845666487" lon="113.66305559303656"><ele>23.0</ele><time>2026-04-15T09:50:39.999Z</time></trkpt><trkpt lat="-26.145329062199046" lon="113.66285517791619"><ele>24.0</ele><time>2026-04-15T09:50:40.999Z</time></trkpt><trkpt lat="-26.145133376270696" lon="113.6626544254664"><ele>25.0</ele><time>2026-04-15T09:50:41.999Z</time></trkpt><trkpt lat="-26.14493527614057" lon="113.66245233331145"><ele>24.0</ele><time>2026-04-15T09:50:42.999Z</time></trkpt><trkpt lat="-26.144735155793644" lon="113.66224943819132"><ele>23.0</ele><time>2026-04-15T09:50:43.999Z</time></trkpt><trkpt lat="-26.144535505112245" lon="113.66204630309154"><ele>23.5</ele><time>2026-04-15T09:50:44.999Z</time></trkpt><trkpt lat="-26.144337274580703" lon="113.66184273039764"><ele>24.0</ele><time>2026-04-15T09:50:45.999Z</time></trkpt><trkpt lat="-26.14414014787698" lon="113.66163860551332"><ele>23.5</ele><time>2026-04-15T09:50:46.999Z</time></trkpt><trkpt lat="-26.143948505201305" lon="113.66143167516523"><ele>23.0</ele><time>2026-04-15T09:50:47.999Z</time></trkpt><trkpt lat="-26.143756885971825" lon="113.6612251678411"><ele>24.0</ele><time>2026-04-15T09:50:48.999Z</time></trkpt><trkpt lat="-26.143566058808698" lon="113.66102220589899"><ele>25.0</ele><time>2026-04-15T09:50:49.999Z</time></trkpt><trkpt lat="-26.143375708355876" lon="113.66082217597658"><ele>25.0</ele><time>2026-04-15T09:50:51Z</time></trkpt><trkpt lat="-26.143186325703844" lon="113.66062496745458"><ele>25.0</ele><time>2026-04-15T09:50:52Z</time></trkpt><trkpt lat="-26.142997599178212" lon="113.66042615863319"><ele>26.0</ele><time>2026-04-15T09:50:53Z</time></trkpt><trkpt lat="-26.142807143199903" lon="113.66022618112555"><ele>27.0</ele><time>2026-04-15T09:50:54Z</time></trkpt><trkpt lat="-26.14261862039682" lon="113.66002844876742"><ele>27.0</ele><time>2026-04-15T09:50:55Z</time></trkpt><trkpt lat="-26.1424283992522" lon="113.65982570283677"><ele>27.0</ele><time>2026-04-15T09:50:56Z</time></trkpt><trkpt lat="-26.14224028149429" lon="113.65962250767335"><ele>27.5</ele><time>2026-04-15T09:50:57Z</time></trkpt><trkpt lat="-26.142047922011304" lon="113.65941622132578"><ele>28.0</ele><time>2026-04-15T09:50:58Z</time></trkpt><trkpt lat="-26.141854581444036" lon="113.65921192406151"><ele>28.0</ele><time>2026-04-15T09:50:59Z</time></trkpt><trkpt lat="-26.141661200972997" lon="113.65900692237625"><ele>28.0</ele><time>2026-04-15T09:51:00Z</time></trkpt><trkpt lat="-26.141465929806447" lon="113.65880300491389"><ele>27.5</ele><time>2026-04-15T09:51:01Z</time></trkpt><trkpt lat="-26.141269294166836" lon="113.65859913279355"><ele>27.0</ele><time>2026-04-15T09:51:02Z</time></trkpt><trkpt lat="-26.1410742209796" lon="113.65839654400176"><ele>27.0</ele><time>2026-04-15T09:51:03Z</time></trkpt><trkpt lat="-26.14088136240676" lon="113.65819365717496"><ele>27.0</ele><time>2026-04-15T09:51:04Z</time></trkpt><trkpt lat="-26.14068764781119" lon="113.65798923927925"><ele>27.0</ele><time>2026-04-15T09:51:05Z</time></trkpt><trkpt lat="-26.14049570258588" lon="113.65778981324846"><ele>27.0</ele><time>2026-04-15T09:51:06Z</time></trkpt><trkpt lat="-26.14029894287007" lon="113.6575952243486"><ele>27.0</ele><time>2026-04-15T09:51:07Z</time></trkpt><trkpt lat="-26.14010065284238" lon="113.65740746508484"><ele>27.0</ele><time>2026-04-15T09:51:08Z</time></trkpt><trkpt lat="-26.139897456535284" lon="113.65722698461353"><ele>28.0</ele><time>2026-04-15T09:51:09Z</time></trkpt><trkpt lat="-26.139684506622554" lon="113.65705475066717"><ele>29.0</ele><time>2026-04-15T09:51:10Z</time></trkpt><trkpt lat="-26.1394618177654" lon="113.65689208659992"><ele>29.0</ele><time>2026-04-15T09:51:11Z</time></trkpt><trkpt lat="-26.139231073997752" lon="113.65673318809004"><ele>29.0</ele><time>2026-04-15T09:51:12Z</time></trkpt><trkpt lat="-26.13899758817149" lon="113.6565755111828"><ele>28.0</ele><time>2026-04-15T09:51:13Z</time></trkpt><trkpt lat="-26.13876168484191" lon="113.65642114582582"><ele>27.0</ele><time>2026-04-15T09:51:14Z</time></trkpt><trkpt lat="-26.13852285993558" lon="113.65627241816479"><ele>26.0</ele><time>2026-04-15T09:51:15Z</time></trkpt><trkpt lat="-26.138291615322004" lon="113.65610740818853"><ele>25.0</ele><time>2026-04-15T09:51:16Z</time></trkpt><trkpt lat="-26.138055713123993" lon="113.65595525075805"><ele>24.5</ele><time>2026-04-15T09:51:17Z</time></trkpt><trkpt lat="-26.137819187528653" lon="113.6558030878587"><ele>24.0</ele><time>2026-04-15T09:51:18Z</time></trkpt><trkpt lat="-26.137588104228854" lon="113.6556544777615"><ele>23.5</ele><time>2026-04-15T09:51:19Z</time></trkpt><trkpt lat="-26.137357964120046" lon="113.65550647424772"><ele>23.0</ele><time>2026-04-15T09:51:20Z</time></trkpt><trkpt lat="-26.13712092051233" lon="113.65537251779716"><ele>22.5</ele><time>2026-04-15T09:51:21Z</time></trkpt><trkpt lat="-26.13689492575686" lon="113.65522083958776"><ele>22.0</ele><time>2026-04-15T09:51:22Z</time></trkpt><trkpt lat="-26.136669028401094" lon="113.65507454304603"><ele>22.0</ele><time>2026-04-15T09:51:23Z</time></trkpt><trkpt lat="-26.136442011523474" lon="113.6549292550831"><ele>22.0</ele><time>2026-04-15T09:51:24Z</time></trkpt><trkpt lat="-26.136210257130475" lon="113.65478129121645"><ele>22.0</ele><time>2026-04-15T09:51:25Z</time></trkpt><trkpt lat="-26.135980652964417" lon="113.65463443385967"><ele>22.0</ele><time>2026-04-15T09:51:26Z</time></trkpt><trkpt lat="-26.135752424048764" lon="113.65449014569268"><ele>21.5</ele><time>2026-04-15T09:51:27Z</time></trkpt><trkpt lat="-26.135527234846933" lon="113.65434517132557"><ele>21.0</ele><time>2026-04-15T09:51:28Z</time></trkpt><trkpt lat="-26.13530171386159" lon="113.65419875214509"><ele>21.0</ele><time>2026-04-15T09:51:29Z</time></trkpt><trkpt lat="-26.135076321319975" lon="113.65405515025923"><ele>21.0</ele><time>2026-04-15T09:51:30Z</time></trkpt><trkpt lat="-26.13486019517543" lon="113.65389663560804"><ele>21.0</ele><time>2026-04-15T09:51:31Z</time></trkpt><trkpt lat="-26.134624387397363" lon="113.65376646937202"><ele>21.0</ele><time>2026-04-15T09:51:32Z</time></trkpt><trkpt lat="-26.134399355386268" lon="113.65362117313498"><ele>20.5</ele><time>2026-04-15T09:51:33Z</time></trkpt><trkpt lat="-26.134174482682656" lon="113.65347638335808"><ele>20.0</ele><time>2026-04-15T09:51:34Z</time></trkpt><trkpt lat="-26.133952711540836" lon="113.65333334710276"><ele>21.0</ele><time>2026-04-15T09:51:35Z</time></trkpt><trkpt lat="-26.13372960896867" lon="113.65318819073455"><ele>22.0</ele><time>2026-04-15T09:51:36.001Z</time></trkpt><trkpt lat="-26.13351004233973" lon="113.65304413577721"><ele>22.0</ele><time>2026-04-15T09:51:37.001Z</time></trkpt><trkpt lat="-26.133284814569922" lon="113.65289488346656"><ele>22.0</ele><time>2026-04-15T09:51:38.001Z</time></trkpt><trkpt lat="-26.133057255733714" lon="113.65274990775421"><ele>22.5</ele><time>2026-04-15T09:51:39.001Z</time></trkpt><trkpt lat="-26.13282401398791" lon="113.65260118030608"><ele>23.0</ele><time>2026-04-15T09:51:40.001Z</time></trkpt><trkpt lat="-26.132591687346228" lon="113.65245368019534"><ele>25.0</ele><time>2026-04-15T09:51:41.001Z</time></trkpt><trkpt lat="-26.132356736835977" lon="113.65230367752417"><ele>27.0</ele><time>2026-04-15T09:51:42Z</time></trkpt><trkpt lat="-26.132123289066186" lon="113.65215628543936"><ele>27.0</ele><time>2026-04-15T09:51:43Z</time></trkpt><trkpt lat="-26.13188801356158" lon="113.6520064761002"><ele>27.0</ele><time>2026-04-15T09:51:44Z</time></trkpt><trkpt lat="-26.131655540614016" lon="113.65185716800605"><ele>27.0</ele><time>2026-04-15T09:51:45Z</time></trkpt><trkpt lat="-26.13142626932128" lon="113.65170947803371"><ele>27.0</ele><time>2026-04-15T09:51:46Z</time></trkpt><trkpt lat="-26.131198145551966" lon="113.6515619024661"><ele>27.0</ele><time>2026-04-15T09:51:47Z</time></trkpt><trkpt lat="-26.13097217799741" lon="113.65141410364608"><ele>27.0</ele><time>2026-04-15T09:51:48Z</time></trkpt><trkpt lat="-26.13074631145728" lon="113.6512660423244"><ele>25.0</ele><time>2026-04-15T09:51:49Z</time></trkpt><trkpt lat="-26.13052178758665" lon="113.65112227334194"><ele>23.0</ele><time>2026-04-15T09:51:50Z</time></trkpt><trkpt lat="-26.13029844083992" lon="113.65098116079105"><ele>23.0</ele><time>2026-04-15T09:51:51Z</time></trkpt><trkpt lat="-26.13007282692596" lon="113.6508380679594"><ele>23.0</ele><time>2026-04-15T09:51:52Z</time></trkpt><trkpt lat="-26.12984999458154" lon="113.65069461208968"><ele>23.5</ele><time>2026-04-15T09:51:53Z</time></trkpt><trkpt lat="-26.129631042798376" lon="113.65055125984574"><ele>24.0</ele><time>2026-04-15T09:51:54Z</time></trkpt><trkpt lat="-26.129414658163412" lon="113.65040469889209"><ele>23.5</ele><time>2026-04-15T09:51:55Z</time></trkpt><trkpt lat="-26.129202934505734" lon="113.65026333763446"><ele>23.0</ele><time>2026-04-15T09:51:56Z</time></trkpt><trkpt lat="-26.128987280607824" lon="113.65012428859274"><ele>23.0</ele><time>2026-04-15T09:51:57Z</time></trkpt><trkpt lat="-26.128768408613578" lon="113.64998475832384"><ele>23.0</ele><time>2026-04-15T09:51:58Z</time></trkpt><trkpt lat="-26.12855030725375" lon="113.64984589569737"><ele>23.0</ele><time>2026-04-15T09:51:59Z</time></trkpt><trkpt lat="-26.128332492048514" lon="113.64971013994918"><ele>23.0</ele><time>2026-04-15T09:52:00Z</time></trkpt><trkpt lat="-26.128114722665522" lon="113.64957519845066"><ele>22.0</ele><time>2026-04-15T09:52:01Z</time></trkpt><trkpt lat="-26.127900246908826" lon="113.64943652838059"><ele>21.0</ele><time>2026-04-15T09:52:02Z</time></trkpt><trkpt lat="-26.12768776759693" lon="113.64929808207664"><ele>21.0</ele><time>2026-04-15T09:52:03Z</time></trkpt><trkpt lat="-26.12747286050935" lon="113.6491625004925"><ele>21.0</ele><time>2026-04-15T09:52:04Z</time></trkpt><trkpt lat="-26.127250744803987" lon="113.64902641610281"><ele>21.5</ele><time>2026-04-15T09:52:05Z</time></trkpt><trkpt lat="-26.127024577851607" lon="113.64889011146929"><ele>22.0</ele><time>2026-04-15T09:52:06Z</time></trkpt><trkpt lat="-26.126797730846384" lon="113.64875525214364"><ele>21.5</ele><time>2026-04-15T09:52:07Z</time></trkpt><trkpt lat="-26.12656830486366" lon="113.64862468136496"><ele>21.0</ele><time>2026-04-15T09:52:08Z</time></trkpt><trkpt lat="-26.126337196899897" lon="113.64849870973872"><ele>21.0</ele><time>2026-04-15T09:52:09Z</time></trkpt><trkpt lat="-26.126115050809506" lon="113.64838268431205"><ele>21.0</ele><time>2026-04-15T09:52:10Z</time></trkpt><trkpt lat="-26.125905046952116" lon="113.64827483828488"><ele>22.0</ele><time>2026-04-15T09:52:11Z</time></trkpt><trkpt lat="-26.125709400976213" lon="113.64817620773688"><ele>23.0</ele><time>2026-04-15T09:52:12Z</time></trkpt><trkpt lat="-26.125547321999885" lon="113.64809597971113"><ele>24.0</ele><time>2026-04-15T09:52:13Z</time></trkpt><trkpt lat="-26.125427382482574" lon="113.64803625537834"><ele>24.0</ele><time>2026-04-15T09:52:14Z</time></trkpt><trkpt lat="-26.12535579366287" lon="113.64799784771529"><ele>24.0</ele><time>2026-04-15T09:52:15Z</time></trkpt><trkpt lat="-26.125367082914583" lon="113.64790471768185"><ele>24.0</ele><time>2026-04-15T09:52:19Z</time></trkpt><trkpt lat="-26.125474588125414" lon="113.6477904127318"><ele>24.0</ele><time>2026-04-15T09:52:21Z</time></trkpt><trkpt lat="-26.125530346710992" lon="113.64770805391419"><ele>24.0</ele><time>2026-04-15T09:52:22Z</time></trkpt><trkpt lat="-26.125591556891703" lon="113.64761189681815"><ele>23.25</ele><time>2026-04-15T09:52:23Z</time></trkpt><trkpt lat="-26.12565842417376" lon="113.64749384329464"><ele>22.5</ele><time>2026-04-15T09:52:24Z</time></trkpt><trkpt lat="-26.125726944074362" lon="113.64736744638388"><ele>21.75</ele><time>2026-04-15T09:52:25Z</time></trkpt><trkpt lat="-26.12580627724809" lon="113.64722983669205"><ele>21.0</ele><time>2026-04-15T09:52:26Z</time></trkpt><trkpt lat="-26.12588556787328" lon="113.64709213824219"><ele>19.666666666666668</ele><time>2026-04-15T09:52:27Z</time></trkpt><trkpt lat="-26.125970472318006" lon="113.64695087222631"><ele>18.333333333333336</ele><time>2026-04-15T09:52:28Z</time></trkpt><trkpt lat="-26.12606404096345" lon="113.64681583903729"><ele>17.0</ele><time>2026-04-15T09:52:29Z</time></trkpt><trkpt lat="-26.12616072463816" lon="113.6466865014171"><ele>17.0</ele><time>2026-04-15T09:52:30Z</time></trkpt><trkpt lat="-26.126266560132738" lon="113.64655489134043"><ele>17.0</ele><time>2026-04-15T09:52:31Z</time></trkpt><trkpt lat="-26.126382719185592" lon="113.64640932029556"><ele>17.0</ele><time>2026-04-15T09:52:32Z</time></trkpt><trkpt lat="-26.126499340094906" lon="113.64625747582413"><ele>17.0</ele><time>2026-04-15T09:52:33Z</time></trkpt><trkpt lat="-26.126598345824576" lon="113.64612027063131"><ele>17.0</ele><time>2026-04-15T09:52:34Z</time></trkpt><trkpt lat="-26.12670442857899" lon="113.64595617266636"><ele>17.0</ele><time>2026-04-15T09:52:35Z</time></trkpt><trkpt lat="-26.12680955953316" lon="113.64580505380518"><ele>17.0</ele><time>2026-04-15T09:52:36Z</time></trkpt><trkpt lat="-26.126923422585424" lon="113.64563717472463"><ele>17.0</ele><time>2026-04-15T09:52:37Z</time></trkpt><trkpt lat="-26.127041405553214" lon="113.64546111027106"><ele>17.0</ele><time>2026-04-15T09:52:38Z</time></trkpt><trkpt lat="-26.127146312569344" lon="113.64530130600772"><ele>17.333333333333336</ele><time>2026-04-15T09:52:39Z</time></trkpt><trkpt lat="-26.127244653496486" lon="113.64514925207615"><ele>17.666666666666668</ele><time>2026-04-15T09:52:40Z</time></trkpt><trkpt lat="-26.127337506104542" lon="113.64500499025488"><ele>18.0</ele><time>2026-04-15T09:52:41Z</time></trkpt><trkpt lat="-26.1274188788116" lon="113.64487343075994"><ele>17.0</ele><time>2026-04-15T09:52:42Z</time></trkpt><trkpt lat="-26.127503488308477" lon="113.64473293835991"><ele>16.0</ele><time>2026-04-15T09:52:43Z</time></trkpt><trkpt lat="-26.127596859028962" lon="113.64458313158956"><ele>15.0</ele><time>2026-04-15T09:52:44Z</time></trkpt><trkpt lat="-26.127687952595114" lon="113.64443964618573"><ele>14.666666666666668</ele><time>2026-04-15T09:52:45Z</time></trkpt><trkpt lat="-26.12777193296569" lon="113.64430901137563"><ele>14.333333333333334</ele><time>2026-04-15T09:52:46Z</time></trkpt><trkpt lat="-26.127850188207375" lon="113.64417248179798"><ele>14.0</ele><time>2026-04-15T09:52:47Z</time></trkpt><trkpt lat="-26.127928753256906" lon="113.64401257718063"><ele>14.0</ele><time>2026-04-15T09:52:48Z</time></trkpt><trkpt lat="-26.128007571835383" lon="113.64386293839357"><ele>14.0</ele><time>2026-04-15T09:52:49Z</time></trkpt><trkpt lat="-26.12808857526803" lon="113.64370655782899"><ele>14.0</ele><time>2026-04-15T09:52:50Z</time></trkpt><trkpt lat="-26.12817307113928" lon="113.64355418034995"><ele>13.0</ele><time>2026-04-15T09:52:51Z</time></trkpt><trkpt lat="-26.12825153823194" lon="113.64340479638653"><ele>12.0</ele><time>2026-04-15T09:52:52Z</time></trkpt><trkpt lat="-26.12832444182098" lon="113.64325600271515"><ele>11.0</ele><time>2026-04-15T09:52:53Z</time></trkpt><trkpt lat="-26.12839593103403" lon="113.64310599451703"><ele>11.0</ele><time>2026-04-15T09:52:54Z</time></trkpt><trkpt lat="-26.128461346631873" lon="113.64297723912284"><ele>11.0</ele><time>2026-04-15T09:52:55Z</time></trkpt><trkpt lat="-26.12853158120619" lon="113.6428375575953"><ele>11.0</ele><time>2026-04-15T09:52:56Z</time></trkpt><trkpt lat="-26.12859774463958" lon="113.6427029278321"><ele>11.0</ele><time>2026-04-15T09:52:57Z</time></trkpt><trkpt lat="-26.128664662913653" lon="113.64255864794215"><ele>10.75</ele><time>2026-04-15T09:52:58Z</time></trkpt><trkpt lat="-26.12872793179332" lon="113.64242810457573"><ele>10.5</ele><time>2026-04-15T09:52:59Z</time></trkpt><trkpt lat="-26.12878868601995" lon="113.64230389981262"><ele>10.25</ele><time>2026-04-15T09:53:00Z</time></trkpt><trkpt lat="-26.12884967299389" lon="113.64218464761404"><ele>10.0</ele><time>2026-04-15T09:53:01Z</time></trkpt><trkpt lat="-26.128906771537785" lon="113.64207709454514"><ele>10.0</ele><time>2026-04-15T09:53:02Z</time></trkpt><trkpt lat="-26.128956772805616" lon="113.6419798365803"><ele>10.0</ele><time>2026-04-15T09:53:03Z</time></trkpt><trkpt lat="-26.128996838292334" lon="113.64190392441269"><ele>10.0</ele><time>2026-04-15T09:53:04Z</time></trkpt><trkpt lat="-26.12905233135982" lon="113.6417949438437"><ele>10.0</ele><time>2026-04-15T09:53:06Z</time></trkpt><trkpt lat="-26.129081595160265" lon="113.64172634877966"><ele>10.0</ele><time>2026-04-15T09:53:08Z</time></trkpt><trkpt lat="-26.12907443344205" lon="113.64164988879634"><ele>10.0</ele><time>2026-04-15T09:53:10Z</time></trkpt><trkpt lat="-26.12907953010459" lon="113.64157891766342"><ele>9.5</ele><time>2026-04-15T09:53:12Z</time></trkpt><trkpt lat="-26.12906850544975" lon="113.64150288383229"><ele>9.0</ele><time>2026-04-15T09:53:14Z</time></trkpt><trkpt lat="-26.129024290214133" lon="113.64142148789864"><ele>8.5</ele><time>2026-04-15T09:53:16Z</time></trkpt><trkpt lat="-26.128998989790542" lon="113.64132406078406"><ele>8.0</ele><time>2026-04-15T09:53:18Z</time></trkpt><trkpt lat="-26.12898618394012" lon="113.64124194104384"><ele>7.500000000000001</ele><time>2026-04-15T09:53:20Z</time></trkpt><trkpt lat="-26.129007979709304" lon="113.64116129529884"><ele>7.0</ele><time>2026-04-15T09:53:22Z</time></trkpt><trkpt lat="-26.129037055982383" lon="113.64107802808155"><ele>7.000000000000001</ele><time>2026-04-15T09:53:24Z</time></trkpt><trkpt lat="-26.12903593185122" lon="113.6409803416095"><ele>7.0</ele><time>2026-04-15T09:53:27Z</time></trkpt><trkpt lat="-26.129051044479183" lon="113.64091204566334"><ele>7.0</ele><time>2026-04-15T09:53:30Z</time></trkpt><trkpt lat="-26.129062488089374" lon="113.64082702332139"><ele>7.0</ele><time>2026-04-15T09:53:46Z</time></trkpt><trkpt lat="-26.12899199312771" lon="113.64079039356061"><ele>7.000000000000001</ele><time>2026-04-15T09:53:49Z</time></trkpt><trkpt lat="-26.128921350569918" lon="113.6407603134066"><ele>7.0</ele><time>2026-04-15T09:53:52Z</time></trkpt><trkpt lat="-26.128846263261" lon="113.64071723000757"><ele>7.0</ele><time>2026-04-15T09:53:55Z</time></trkpt><trkpt lat="-26.128782218286066" lon="113.6406887071459"><ele>6.999999999999999</ele><time>2026-04-15T09:53:58Z</time></trkpt><trkpt lat="-26.12872426075403" lon="113.6407189829817"><ele>6.999999999999999</ele><time>2026-04-15T09:55:28Z</time></trkpt><trkpt lat="-26.128625322724176" lon="113.64073470982906"><ele>7.0</ele><time>2026-04-15T10:00:04.999Z</time></trkpt><trkpt lat="-26.128609130520207" lon="113.64081986975987"><ele>7.0</ele><time>2026-04-15T10:00:06.999Z</time></trkpt><trkpt lat="-26.128705198163097" lon="113.6409516008829"><ele>7.000000000000001</ele><time>2026-04-15T10:00:10.999Z</time></trkpt><trkpt lat="-26.12872803342855" lon="113.64106279263476"><ele>7.0</ele><time>2026-04-15T10:00:12.999Z</time></trkpt><trkpt lat="-26.12870465617097" lon="113.641148277409"><ele>7.0</ele><time>2026-04-15T10:00:15Z</time></trkpt><trkpt lat="-26.12867280422352" lon="113.64122591902681"><ele>7.0</ele><time>2026-04-15T10:00:17Z</time></trkpt><trkpt lat="-26.12862309289589" lon="113.64128651074381"><ele>7.000000000000001</ele><time>2026-04-15T10:00:19Z</time></trkpt><trkpt lat="-26.128546117122387" lon="113.6413353768745"><ele>7.0</ele><time>2026-04-15T10:00:22Z</time></trkpt><trkpt lat="-26.12850172002439" lon="113.64139509394556"><ele>6.0</ele><time>2026-04-15T10:00:25Z</time></trkpt><trkpt lat="-26.128502704294956" lon="113.64147515195971"><ele>6.0</ele><time>2026-04-15T10:03:30Z</time></trkpt></trkseg><trkseg><trkpt lat="-25.947965714603118" lon="113.56275394883451"><ele>18.0</ele><time>2026-04-15T10:31:17Z</time></trkpt><trkpt lat="-25.947715541869567" lon="113.56267533950653"><ele>18.0</ele><time>2026-04-15T10:31:18Z</time></trkpt><trkpt lat="-25.947459944347482" lon="113.56259690273869"><ele>18.0</ele><time>2026-04-15T10:31:19Z</time></trkpt><trkpt lat="-25.94720247585677" lon="113.56251828346275"><ele>18.0</ele><time>2026-04-15T10:31:20Z</time></trkpt><trkpt lat="-25.94694569724478" lon="113.56244008452985"><ele>19.5</ele><time>2026-04-15T10:31:21Z</time></trkpt><trkpt lat="-25.9466883778677" lon="113.5623606629716"><ele>21.0</ele><time>2026-04-15T10:31:22Z</time></trkpt><trkpt lat="-25.946432242472426" lon="113.56228305752127"><ele>21.0</ele><time>2026-04-15T10:31:23Z</time></trkpt><trkpt lat="-25.946177180776655" lon="113.56220501984436"><ele>21.0</ele><time>2026-04-15T10:31:24Z</time></trkpt><trkpt lat="-25.945924119714793" lon="113.56212656265623"><ele>21.0</ele><time>2026-04-15T10:31:25Z</time></trkpt><trkpt lat="-25.945671609008766" lon="113.56204727421844"><ele>21.0</ele><time>2026-04-15T10:31:26Z</time></trkpt><trkpt lat="-25.945420739968338" lon="113.56197124759157"><ele>22.0</ele><time>2026-04-15T10:31:27Z</time></trkpt><trkpt lat="-25.94516739426112" lon="113.56189439608045"><ele>23.0</ele><time>2026-04-15T10:31:28Z</time></trkpt><trkpt lat="-25.944912997204703" lon="113.56181583277099"><ele>24.0</ele><time>2026-04-15T10:31:29Z</time></trkpt><trkpt lat="-25.94465651204127" lon="113.56173449325867"><ele>25.0</ele><time>2026-04-15T10:31:30Z</time></trkpt><trkpt lat="-25.94440159972141" lon="113.56165501143951"><ele>26.5</ele><time>2026-04-15T10:31:31Z</time></trkpt><trkpt lat="-25.944148751767003" lon="113.56157599531814"><ele>28.0</ele><time>2026-04-15T10:31:32Z</time></trkpt><trkpt lat="-25.94389485775021" lon="113.56149929618358"><ele>28.0</ele><time>2026-04-15T10:31:33Z</time></trkpt><trkpt lat="-25.943637405276778" lon="113.56142162371403"><ele>28.0</ele><time>2026-04-15T10:31:34Z</time></trkpt><trkpt lat="-25.943378601530448" lon="113.5613416780245"><ele>27.5</ele><time>2026-04-15T10:31:35Z</time></trkpt><trkpt lat="-25.943122286793557" lon="113.56126142225807"><ele>27.0</ele><time>2026-04-15T10:31:36Z</time></trkpt><trkpt lat="-25.94286864140661" lon="113.56118414136392"><ele>27.0</ele><time>2026-04-15T10:31:37Z</time></trkpt><trkpt lat="-25.942615183087053" lon="113.56110603663652"><ele>27.0</ele><time>2026-04-15T10:31:38Z</time></trkpt><trkpt lat="-25.942362864978115" lon="113.56102639192918"><ele>27.0</ele><time>2026-04-15T10:31:39Z</time></trkpt><trkpt lat="-25.942110839813083" lon="113.56094662285616"><ele>27.0</ele><time>2026-04-15T10:31:40Z</time></trkpt><trkpt lat="-25.941856959528913" lon="113.56087002145524"><ele>27.5</ele><time>2026-04-15T10:31:41Z</time></trkpt><trkpt lat="-25.941607469940383" lon="113.56079662264277"><ele>28.0</ele><time>2026-04-15T10:31:42Z</time></trkpt><trkpt lat="-25.941352323169717" lon="113.56072238127038"><ele>28.0</ele><time>2026-04-15T10:31:43Z</time></trkpt><trkpt lat="-25.94109995519523" lon="113.5606452372335"><ele>28.0</ele><time>2026-04-15T10:31:44Z</time></trkpt><trkpt lat="-25.940850743108744" lon="113.56056454082204"><ele>27.0</ele><time>2026-04-15T10:31:45Z</time></trkpt><trkpt lat="-25.94059411042118" lon="113.56048143520246"><ele>26.0</ele><time>2026-04-15T10:31:46Z</time></trkpt><trkpt lat="-25.940337597281875" lon="113.56040208192579"><ele>25.0</ele><time>2026-04-15T10:31:47Z</time></trkpt><trkpt lat="-25.940077405068507" lon="113.56032629043116"><ele>24.0</ele><time>2026-04-15T10:31:48Z</time></trkpt><trkpt lat="-25.93982062131442" lon="113.56025135773916"><ele>23.5</ele><time>2026-04-15T10:31:49Z</time></trkpt><trkpt lat="-25.939567646671087" lon="113.56017731598651"><ele>23.0</ele><time>2026-04-15T10:31:50Z</time></trkpt><trkpt lat="-25.939312918602134" lon="113.56009929524859"><ele>24.5</ele><time>2026-04-15T10:31:51Z</time></trkpt><trkpt lat="-25.93905908626654" lon="113.56001992918952"><ele>26.0</ele><time>2026-04-15T10:31:52Z</time></trkpt><trkpt lat="-25.938808811706267" lon="113.55994103477673"><ele>26.0</ele><time>2026-04-15T10:31:53Z</time></trkpt><trkpt lat="-25.938557645370178" lon="113.55986525065028"><ele>26.0</ele><time>2026-04-15T10:31:54Z</time></trkpt><trkpt lat="-25.938304386728888" lon="113.55979139234827"><ele>25.5</ele><time>2026-04-15T10:31:55Z</time></trkpt><trkpt lat="-25.938058944425958" lon="113.55971659244788"><ele>25.0</ele><time>2026-04-15T10:31:56Z</time></trkpt><trkpt lat="-25.937811044504045" lon="113.55964138500194"><ele>25.0</ele><time>2026-04-15T10:31:57Z</time></trkpt><trkpt lat="-25.937564458046484" lon="113.55956833718"><ele>25.0</ele><time>2026-04-15T10:31:58Z</time></trkpt><trkpt lat="-25.93731985643316" lon="113.55949476505117"><ele>24.0</ele><time>2026-04-15T10:31:59Z</time></trkpt><trkpt lat="-25.93706927611385" lon="113.5594176787878"><ele>23.0</ele><time>2026-04-15T10:32:00Z</time></trkpt><trkpt lat="-25.936819711982174" lon="113.5593404892872"><ele>24.0</ele><time>2026-04-15T10:32:01Z</time></trkpt><trkpt lat="-25.936566174631626" lon="113.55926248009865"><ele>25.0</ele><time>2026-04-15T10:32:02Z</time></trkpt><trkpt lat="-25.93631354436787" lon="113.55918662809059"><ele>25.0</ele><time>2026-04-15T10:32:03Z</time></trkpt><trkpt lat="-25.936057140813386" lon="113.55911062230959"><ele>25.0</ele><time>2026-04-15T10:32:04Z</time></trkpt><trkpt lat="-25.935800940504446" lon="113.55903321996323"><ele>25.5</ele><time>2026-04-15T10:32:05Z</time></trkpt><trkpt lat="-25.935535928088747" lon="113.55895212595503"><ele>26.0</ele><time>2026-04-15T10:32:06Z</time></trkpt><trkpt lat="-25.93526635509157" lon="113.5588707280667"><ele>26.5</ele><time>2026-04-15T10:32:07Z</time></trkpt><trkpt lat="-25.934999037464696" lon="113.55878980840095"><ele>27.0</ele><time>2026-04-15T10:32:08Z</time></trkpt><trkpt lat="-25.93473482256513" lon="113.55870968537181"><ele>26.0</ele><time>2026-04-15T10:32:09Z</time></trkpt><trkpt lat="-25.934471877855497" lon="113.5586283482362"><ele>25.0</ele><time>2026-04-15T10:32:10Z</time></trkpt><trkpt lat="-25.93420920282815" lon="113.55854625825368"><ele>25.0</ele><time>2026-04-15T10:32:11Z</time></trkpt><trkpt lat="-25.933945992935296" lon="113.55846635265678"><ele>25.0</ele><time>2026-04-15T10:32:12Z</time></trkpt><trkpt lat="-25.933685676592084" lon="113.55838809395466"><ele>25.0</ele><time>2026-04-15T10:32:13Z</time></trkpt><trkpt lat="-25.933424706606722" lon="113.55830917729112"><ele>25.0</ele><time>2026-04-15T10:32:14Z</time></trkpt><trkpt lat="-25.933165988646387" lon="113.55823007486848"><ele>25.0</ele><time>2026-04-15T10:32:15Z</time></trkpt><trkpt lat="-25.932906193976223" lon="113.55814967263491"><ele>25.0</ele><time>2026-04-15T10:32:16Z</time></trkpt><trkpt lat="-25.93264266397226" lon="113.55806806074939"><ele>24.0</ele><time>2026-04-15T10:32:17Z</time></trkpt><trkpt lat="-25.93237814523259" lon="113.55798784968299"><ele>23.0</ele><time>2026-04-15T10:32:17.999Z</time></trkpt><trkpt lat="-25.93211342190878" lon="113.55790626877021"><ele>22.5</ele><time>2026-04-15T10:32:18.999Z</time></trkpt><trkpt lat="-25.931853570325593" lon="113.55782744062472"><ele>22.0</ele><time>2026-04-15T10:32:19.999Z</time></trkpt><trkpt lat="-25.931594105782086" lon="113.55774854942415"><ele>21.5</ele><time>2026-04-15T10:32:20.999Z</time></trkpt><trkpt lat="-25.931336332942905" lon="113.55767169926477"><ele>21.0</ele><time>2026-04-15T10:32:21.999Z</time></trkpt><trkpt lat="-25.931081513000592" lon="113.5575957524427"><ele>21.0</ele><time>2026-04-15T10:32:22.999Z</time></trkpt><trkpt lat="-25.93082333746559" lon="113.55751676214427"><ele>21.0</ele><time>2026-04-15T10:32:23.999Z</time></trkpt><trkpt lat="-25.930560429560533" lon="113.5574343333128"><ele>21.0</ele><time>2026-04-15T10:32:24.999Z</time></trkpt><trkpt lat="-25.93029698031591" lon="113.55735367282362"><ele>21.0</ele><time>2026-04-15T10:32:25.999Z</time></trkpt><trkpt lat="-25.93003377139855" lon="113.55727603262706"><ele>20.5</ele><time>2026-04-15T10:32:26.999Z</time></trkpt><trkpt lat="-25.92977586954498" lon="113.5571999113342"><ele>20.0</ele><time>2026-04-15T10:32:27.999Z</time></trkpt><trkpt lat="-25.92952281479752" lon="113.55712405022997"><ele>20.0</ele><time>2026-04-15T10:32:28.999Z</time></trkpt><trkpt lat="-25.929271415236396" lon="113.55704374633792"><ele>20.0</ele><time>2026-04-15T10:32:29.999Z</time></trkpt><trkpt lat="-25.929023938329106" lon="113.55696292830123"><ele>20.5</ele><time>2026-04-15T10:32:30.999Z</time></trkpt><trkpt lat="-25.928772825091276" lon="113.55688208031235"><ele>21.0</ele><time>2026-04-15T10:32:31.999Z</time></trkpt><trkpt lat="-25.92851938108345" lon="113.55680462384265"><ele>21.5</ele><time>2026-04-15T10:32:32.999Z</time></trkpt><trkpt lat="-25.928262185940593" lon="113.55672713240682"><ele>22.0</ele><time>2026-04-15T10:32:33.999Z</time></trkpt><trkpt lat="-25.928007579629668" lon="113.55665068293827"><ele>22.0</ele><time>2026-04-15T10:32:34.999Z</time></trkpt><trkpt lat="-25.92775558993437" lon="113.55657018236958"><ele>22.0</ele><time>2026-04-15T10:32:35.999Z</time></trkpt><trkpt lat="-25.927506388322225" lon="113.55647332986305"><ele>21.5</ele><time>2026-04-15T10:32:36.999Z</time></trkpt><trkpt lat="-25.927259992872997" lon="113.55635991410934"><ele>21.0</ele><time>2026-04-15T10:32:37.999Z</time></trkpt><trkpt lat="-25.927022721382393" lon="113.55623307232989"><ele>21.0</ele><time>2026-04-15T10:32:38.999Z</time></trkpt><trkpt lat="-25.92679147905763" lon="113.55608205385118"><ele>21.0</ele><time>2026-04-15T10:32:39.999Z</time></trkpt><trkpt lat="-25.926566350696454" lon="113.55591634975804"><ele>20.5</ele><time>2026-04-15T10:32:40.999Z</time></trkpt><trkpt lat="-25.926351854166715" lon="113.55573732186497"><ele>20.0</ele><time>2026-04-15T10:32:41.999Z</time></trkpt><trkpt lat="-25.926149590239582" lon="113.55554704108842"><ele>20.5</ele><time>2026-04-15T10:32:42.999Z</time></trkpt><trkpt lat="-25.92595682258639" lon="113.55534732295347"><ele>21.0</ele><time>2026-04-15T10:32:43.999Z</time></trkpt><trkpt lat="-25.925775491936918" lon="113.55514315094308"><ele>18.5</ele><time>2026-04-15T10:32:44.999Z</time></trkpt><trkpt lat="-25.925603633631056" lon="113.55492723136852"><ele>16.0</ele><time>2026-04-15T10:32:45.999Z</time></trkpt><trkpt lat="-25.925445937001854" lon="113.5547040436903"><ele>17.0</ele><time>2026-04-15T10:32:46.999Z</time></trkpt><trkpt lat="-25.925300398341946" lon="113.55446912080419"><ele>18.0</ele><time>2026-04-15T10:32:47.999Z</time></trkpt><trkpt lat="-25.92517084595858" lon="113.55422080341036"><ele>16.0</ele><time>2026-04-15T10:32:48.999Z</time></trkpt><trkpt lat="-25.925052459087496" lon="113.55396213955241"><ele>14.0</ele><time>2026-04-15T10:32:49.999Z</time></trkpt><trkpt lat="-25.92494159133998" lon="113.55369870811349"><ele>14.0</ele><time>2026-04-15T10:32:50.999Z</time></trkpt><trkpt lat="-25.924843380440358" lon="113.55343104253137"><ele>14.0</ele><time>2026-04-15T10:32:51.999Z</time></trkpt><trkpt lat="-25.924756372958978" lon="113.55316025709313"><ele>14.0</ele><time>2026-04-15T10:32:52.999Z</time></trkpt><trkpt lat="-25.924683506490112" lon="113.5528899700879"><ele>14.0</ele><time>2026-04-15T10:32:53.999Z</time></trkpt><trkpt lat="-25.924626811960973" lon="113.55261524942532"><ele>13.5</ele><time>2026-04-15T10:32:54.999Z</time></trkpt><trkpt lat="-25.924587144513534" lon="113.55234611289336"><ele>13.0</ele><time>2026-04-15T10:32:55.999Z</time></trkpt><trkpt lat="-25.924564074213837" lon="113.55207396869149"><ele>12.0</ele><time>2026-04-15T10:32:56.999Z</time></trkpt><trkpt lat="-25.924551463109363" lon="113.55178964440272"><ele>11.0</ele><time>2026-04-15T10:32:58Z</time></trkpt><trkpt lat="-25.924549999432227" lon="113.55149338500684"><ele>10.0</ele><time>2026-04-15T10:32:59Z</time></trkpt><trkpt lat="-25.924562562017293" lon="113.55119211838249"><ele>9.0</ele><time>2026-04-15T10:33:00Z</time></trkpt><trkpt lat="-25.924588327759125" lon="113.55089161587657"><ele>9.0</ele><time>2026-04-15T10:33:01Z</time></trkpt><trkpt lat="-25.924629441330325" lon="113.55059655304339"><ele>9.0</ele><time>2026-04-15T10:33:02Z</time></trkpt><trkpt lat="-25.92468497642179" lon="113.55030837655188"><ele>8.0</ele><time>2026-04-15T10:33:03Z</time></trkpt><trkpt lat="-25.924756351023056" lon="113.55002742241827"><ele>7.0</ele><time>2026-04-15T10:33:04Z</time></trkpt><trkpt lat="-25.924840596402014" lon="113.54975358060666"><ele>7.0</ele><time>2026-04-15T10:33:05Z</time></trkpt><trkpt lat="-25.924927752591937" lon="113.54949066134239"><ele>7.0</ele><time>2026-04-15T10:33:06Z</time></trkpt><trkpt lat="-25.92501385774019" lon="113.54924486216804"><ele>7.333333333333334</ele><time>2026-04-15T10:33:07Z</time></trkpt><trkpt lat="-25.925096106650503" lon="113.54900730331819"><ele>7.666666666666666</ele><time>2026-04-15T10:33:08Z</time></trkpt><trkpt lat="-25.925171047207343" lon="113.54878056697699"><ele>8.0</ele><time>2026-04-15T10:33:09Z</time></trkpt><trkpt lat="-25.925241104008098" lon="113.54855442573596"><ele>8.666666666666666</ele><time>2026-04-15T10:33:10Z</time></trkpt><trkpt lat="-25.925306220747338" lon="113.54833261956841"><ele>9.333333333333334</ele><time>2026-04-15T10:33:11Z</time></trkpt><trkpt lat="-25.925369893985618" lon="113.5481169323324"><ele>10.0</ele><time>2026-04-15T10:33:12Z</time></trkpt><trkpt lat="-25.925436508666678" lon="113.54790022032911"><ele>11.333333333333334</ele><time>2026-04-15T10:33:13Z</time></trkpt><trkpt lat="-25.92550628409849" lon="113.5476927990347"><ele>12.666666666666668</ele><time>2026-04-15T10:33:14Z</time></trkpt><trkpt lat="-25.925572002408845" lon="113.54748706991424"><ele>14.0</ele><time>2026-04-15T10:33:15Z</time></trkpt><trkpt lat="-25.925633008148118" lon="113.54728419453781"><ele>14.0</ele><time>2026-04-15T10:33:16Z</time></trkpt><trkpt lat="-25.925697195724414" lon="113.54708423860124"><ele>14.0</ele><time>2026-04-15T10:33:17Z</time></trkpt><trkpt lat="-25.925762656678142" lon="113.54688097772123"><ele>14.0</ele><time>2026-04-15T10:33:18Z</time></trkpt><trkpt lat="-25.92582427855003" lon="113.54668184103411"><ele>14.0</ele><time>2026-04-15T10:33:19Z</time></trkpt><trkpt lat="-25.925883158273873" lon="113.54648555670485"><ele>14.0</ele><time>2026-04-15T10:33:20Z</time></trkpt><trkpt lat="-25.925940686103168" lon="113.54629427370973"><ele>14.0</ele><time>2026-04-15T10:33:21Z</time></trkpt><trkpt lat="-25.926003508586636" lon="113.54610360351421"><ele>14.0</ele><time>2026-04-15T10:33:22Z</time></trkpt><trkpt lat="-25.926062569434634" lon="113.54592034500885"><ele>14.0</ele><time>2026-04-15T10:33:23Z</time></trkpt><trkpt lat="-25.926118877209532" lon="113.54574040137577"><ele>14.0</ele><time>2026-04-15T10:33:24Z</time></trkpt><trkpt lat="-25.92617090305125" lon="113.54557216604098"><ele>14.0</ele><time>2026-04-15T10:33:25Z</time></trkpt><trkpt lat="-25.92622515836949" lon="113.54540389970809"><ele>14.0</ele><time>2026-04-15T10:33:26Z</time></trkpt><trkpt lat="-25.926276370624286" lon="113.54524420038834"><ele>14.0</ele><time>2026-04-15T10:33:27Z</time></trkpt><trkpt lat="-25.9263255489189" lon="113.54509206082537"><ele>14.5</ele><time>2026-04-15T10:33:28Z</time></trkpt><trkpt lat="-25.926372759131198" lon="113.5449416969406"><ele>15.0</ele><time>2026-04-15T10:33:29Z</time></trkpt><trkpt lat="-25.92641635034581" lon="113.54478711106422"><ele>15.5</ele><time>2026-04-15T10:33:30Z</time></trkpt><trkpt lat="-25.926463615888846" lon="113.54463594817418"><ele>16.0</ele><time>2026-04-15T10:33:31Z</time></trkpt><trkpt lat="-25.92651477437047" lon="113.54448719608155"><ele>16.75</ele><time>2026-04-15T10:33:32Z</time></trkpt><trkpt lat="-25.926560300685725" lon="113.54433998929863"><ele>17.5</ele><time>2026-04-15T10:33:33Z</time></trkpt><trkpt lat="-25.92660559291858" lon="113.54420008571962"><ele>18.25</ele><time>2026-04-15T10:33:34Z</time></trkpt><trkpt lat="-25.92665286983027" lon="113.54405605990395"><ele>19.0</ele><time>2026-04-15T10:33:35Z</time></trkpt><trkpt lat="-25.92670170701577" lon="113.54391554497069"><ele>18.75</ele><time>2026-04-15T10:33:36Z</time></trkpt><trkpt lat="-25.926748537891168" lon="113.5437765492613"><ele>18.5</ele><time>2026-04-15T10:33:37Z</time></trkpt><trkpt lat="-25.926797654741687" lon="113.5436284617661"><ele>18.25</ele><time>2026-04-15T10:33:38Z</time></trkpt><trkpt lat="-25.92684813607255" lon="113.54347673937812"><ele>18.0</ele><time>2026-04-15T10:33:39Z</time></trkpt><trkpt lat="-25.92690177159634" lon="113.54331818377104"><ele>18.666666666666668</ele><time>2026-04-15T10:33:40Z</time></trkpt><trkpt lat="-25.926956506813315" lon="113.54316176892256"><ele>19.333333333333336</ele><time>2026-04-15T10:33:41Z</time></trkpt><trkpt lat="-25.92701659527293" lon="113.54300015142023"><ele>20.0</ele><time>2026-04-15T10:33:42Z</time></trkpt><trkpt lat="-25.92707503175016" lon="113.5428413941755"><ele>20.666666666666668</ele><time>2026-04-15T10:33:43Z</time></trkpt><trkpt lat="-25.92713398066748" lon="113.54268045189716"><ele>21.333333333333332</ele><time>2026-04-15T10:33:44Z</time></trkpt><trkpt lat="-25.927195192896313" lon="113.54252046833949"><ele>22.0</ele><time>2026-04-15T10:33:45Z</time></trkpt><trkpt lat="-25.927256461192794" lon="113.54235515500524"><ele>22.0</ele><time>2026-04-15T10:33:46Z</time></trkpt><trkpt lat="-25.927318470195896" lon="113.54218261220191"><ele>22.0</ele><time>2026-04-15T10:33:47Z</time></trkpt><trkpt lat="-25.927378960470346" lon="113.54200232727429"><ele>22.0</ele><time>2026-04-15T10:33:48Z</time></trkpt><trkpt lat="-25.92743886016201" lon="113.54182492095401"><ele>22.0</ele><time>2026-04-15T10:33:49Z</time></trkpt><trkpt lat="-25.92750298359169" lon="113.54164156725415"><ele>22.0</ele><time>2026-04-15T10:33:50Z</time></trkpt><trkpt lat="-25.927562707336698" lon="113.5414698122732"><ele>22.0</ele><time>2026-04-15T10:33:51Z</time></trkpt><trkpt lat="-25.927628404242906" lon="113.54129549273286"><ele>22.333333333333332</ele><time>2026-04-15T10:33:52Z</time></trkpt><trkpt lat="-25.927693858758715" lon="113.54112254457698"><ele>22.666666666666668</ele><time>2026-04-15T10:33:53Z</time></trkpt><trkpt lat="-25.927756261724515" lon="113.54094992963138"><ele>23.0</ele><time>2026-04-15T10:33:54Z</time></trkpt><trkpt lat="-25.927814853366073" lon="113.54077871694577"><ele>23.0</ele><time>2026-04-15T10:33:55Z</time></trkpt><trkpt lat="-25.927876572563065" lon="113.54060697972788"><ele>23.0</ele><time>2026-04-15T10:33:56Z</time></trkpt><trkpt lat="-25.927941886505543" lon="113.54046044192776"><ele>23.0</ele><time>2026-04-15T10:33:57Z</time></trkpt><trkpt lat="-25.928003971811393" lon="113.54033753375126"><ele>23.0</ele><time>2026-04-15T10:33:58Z</time></trkpt><trkpt lat="-25.928057651013624" lon="113.54023296043353"><ele>22.799999999999997</ele><time>2026-04-15T10:33:59Z</time></trkpt><trkpt lat="-25.92811065102997" lon="113.54013114329801"><ele>22.6</ele><time>2026-04-15T10:33:59.999Z</time></trkpt><trkpt lat="-25.92816897132221" lon="113.54003155319104"><ele>22.4</ele><time>2026-04-15T10:34:00.999Z</time></trkpt><trkpt lat="-25.928229602663585" lon="113.53993738026216"><ele>22.200000000000003</ele><time>2026-04-15T10:34:01.999Z</time></trkpt><trkpt lat="-25.92828400578246" lon="113.53984157913314"><ele>22.0</ele><time>2026-04-15T10:34:02.999Z</time></trkpt><trkpt lat="-25.928338485014148" lon="113.53974456152002"><ele>21.0</ele><time>2026-04-15T10:34:03.999Z</time></trkpt><trkpt lat="-25.928399818397374" lon="113.5396416653841"><ele>20.0</ele><time>2026-04-15T10:34:04.999Z</time></trkpt><trkpt lat="-25.92847527660792" lon="113.5395260631471"><ele>19.0</ele><time>2026-04-15T10:34:05.999Z</time></trkpt><trkpt lat="-25.928563830848244" lon="113.53939885838315"><ele>18.0</ele><time>2026-04-15T10:34:06.999Z</time></trkpt><trkpt lat="-25.928650638610875" lon="113.53927121929989"><ele>16.75</ele><time>2026-04-15T10:34:07.999Z</time></trkpt><trkpt lat="-25.92873242178916" lon="113.53914591287625"><ele>15.5</ele><time>2026-04-15T10:34:08.999Z</time></trkpt><trkpt lat="-25.928811041060047" lon="113.53902583761685"><ele>14.25</ele><time>2026-04-15T10:34:09.999Z</time></trkpt><trkpt lat="-25.928887540158815" lon="113.53890592014936"><ele>13.0</ele><time>2026-04-15T10:34:10.999Z</time></trkpt><trkpt lat="-25.928961910451815" lon="113.5387874359337"><ele>12.0</ele><time>2026-04-15T10:34:11.999Z</time></trkpt><trkpt lat="-25.929036031661617" lon="113.53867535018104"><ele>11.0</ele><time>2026-04-15T10:34:12.999Z</time></trkpt><trkpt lat="-25.929112677452697" lon="113.53856796993547"><ele>10.0</ele><time>2026-04-15T10:34:13.999Z</time></trkpt><trkpt lat="-25.92919189471699" lon="113.53846860637651"><ele>9.0</ele><time>2026-04-15T10:34:14.999Z</time></trkpt><trkpt lat="-25.929281400851536" lon="113.53839222820471"><ele>8.6</ele><time>2026-04-15T10:34:15.999Z</time></trkpt><trkpt lat="-25.92938340695718" lon="113.53834925164145"><ele>8.2</ele><time>2026-04-15T10:34:16.999Z</time></trkpt><trkpt lat="-25.929489370161672" lon="113.53833247093237"><ele>7.799999999999999</ele><time>2026-04-15T10:34:17.999Z</time></trkpt><trkpt lat="-25.929584368083688" lon="113.53832465936675"><ele>7.3999999999999995</ele><time>2026-04-15T10:34:18.999Z</time></trkpt><trkpt lat="-25.929661358409838" lon="113.53832066770958"><ele>7.0</ele><time>2026-04-15T10:34:19.999Z</time></trkpt><trkpt lat="-25.929760033145985" lon="113.53830843763664"><ele>7.000000000000001</ele><time>2026-04-15T10:34:21.999Z</time></trkpt><trkpt lat="-25.929683201064837" lon="113.53829728852088"><ele>7.0</ele><time>2026-04-15T10:34:29.999Z</time></trkpt><trkpt lat="-25.929782969711987" lon="113.5383201037691"><ele>7.0</ele><time>2026-04-15T10:34:33.999Z</time></trkpt><trkpt lat="-25.929848248555803" lon="113.53828477940326"><ele>7.0</ele><time>2026-04-15T10:34:34.999Z</time></trkpt><trkpt lat="-25.92991464776817" lon="113.53826627723184"><ele>7.000000000000001</ele><time>2026-04-15T10:34:35.999Z</time></trkpt><trkpt lat="-25.929978998445616" lon="113.53826570151033"><ele>7.0</ele><time>2026-04-15T10:34:36.999Z</time></trkpt><trkpt lat="-25.93008182648507" lon="113.53827971926911"><ele>7.0</ele><time>2026-04-15T10:34:38.999Z</time></trkpt><trkpt lat="-25.93016300323957" lon="113.53821604641895"><ele>6.999999999999999</ele><time>2026-04-15T10:34:40.999Z</time></trkpt><trkpt lat="-25.93017360226489" lon="113.53810832482655"><ele>6.999999999999999</ele><time>2026-04-15T10:34:42.999Z</time></trkpt><trkpt lat="-25.93010840911572" lon="113.53802557002975"><ele>7.0</ele><time>2026-04-15T10:34:44.999Z</time></trkpt><trkpt lat="-25.930010941904104" lon="113.53797589572682"><ele>7.0</ele><time>2026-04-15T10:34:46.999Z</time></trkpt><trkpt lat="-25.929949094477415" lon="113.5378794788992"><ele>6.333333333333334</ele><time>2026-04-15T10:34:48.999Z</time></trkpt><trkpt lat="-25.929895196959347" lon="113.53776003533028"><ele>5.666666666666667</ele><time>2026-04-15T10:34:50.999Z</time></trkpt><trkpt lat="-25.929866608000516" lon="113.53769528882532"><ele>5.0</ele><time>2026-04-15T10:34:51.999Z</time></trkpt><trkpt lat="-25.929836227398482" lon="113.53763361400844"><ele>4.333333333333334</ele><time>2026-04-15T10:34:52.999Z</time></trkpt><trkpt lat="-25.929781652240937" lon="113.53753714530869"><ele>3.666666666666667</ele><time>2026-04-15T10:34:54.999Z</time></trkpt><trkpt lat="-25.92973961256981" lon="113.53744509794667"><ele>3.0</ele><time>2026-04-15T10:34:56.999Z</time></trkpt><trkpt lat="-25.929696647005557" lon="113.53737685834365"><ele>3.0</ele><time>2026-04-15T10:34:58.999Z</time></trkpt><trkpt lat="-25.929648156151238" lon="113.53730711057557"><ele>3.0</ele><time>2026-04-15T10:35:01.999Z</time></trkpt><trkpt lat="-25.929547052384567" lon="113.53737415286722"><ele>3.0</ele><time>2026-04-15T10:35:09Z</time></trkpt><trkpt lat="-25.92948805994008" lon="113.5374035409408"><ele>3.0</ele><time>2026-04-15T10:35:11Z</time></trkpt><trkpt lat="-25.92954803124675" lon="113.53736375003422"><ele>3.0</ele><time>2026-04-15T10:35:55Z</time></trkpt><trkpt lat="-25.929612311337454" lon="113.53733796746319"><ele>3.0</ele><time>2026-04-15T10:36:02.999Z</time></trkpt><trkpt lat="-25.929670963658072" lon="113.53730465892622"><ele>3.0</ele><time>2026-04-15T10:36:06.999Z</time></trkpt><trkpt lat="-25.929654772406273" lon="113.53717125291425"><ele>3.0</ele><time>2026-04-15T10:36:09.999Z</time></trkpt><trkpt lat="-25.92967467318482" lon="113.53710464130609"><ele>3.0</ele><time>2026-04-15T10:36:13.999Z</time></trkpt><trkpt lat="-25.929709843727228" lon="113.53704521617375"><ele>3.0</ele><time>2026-04-15T10:36:18.999Z</time></trkpt><trkpt lat="-25.92972936082821" lon="113.53696434548596"><ele>3.0</ele><time>2026-04-15T10:36:24.999Z</time></trkpt><trkpt lat="-25.929723203010173" lon="113.53687974438323"><ele>3.0</ele><time>2026-04-15T10:36:40.999Z</time></trkpt><trkpt lat="-25.92972623161186" lon="113.53680228573393"><ele>2.9999999999999996</ele><time>2026-04-15T10:37:22.999Z</time></trkpt><trkpt lat="-25.92971519536702" lon="113.53672720930749"><ele>3.0</ele><time>2026-04-15T10:37:28.999Z</time></trkpt><trkpt lat="-25.92972954681713" lon="113.53679889130039"><ele>3.0</ele><time>2026-04-15T10:38:06.999Z</time></trkpt><trkpt lat="-25.929731435599617" lon="113.53687112104471"><ele>3.0</ele><time>2026-04-15T10:38:11.999Z</time></trkpt><trkpt lat="-25.929738894512912" lon="113.53695075840929"><ele>3.0</ele><time>2026-04-15T10:38:16.999Z</time></trkpt><trkpt lat="-25.9297321892139" lon="113.53702232121195"><ele>2.9999999999999996</ele><time>2026-04-15T10:38:21.999Z</time></trkpt><trkpt lat="-25.929684711662503" lon="113.5370795373226"><ele>3.0</ele><time>2026-04-15T10:38:26.999Z</time></trkpt><trkpt lat="-25.929653341974426" lon="113.53714924366466"><ele>3.0</ele><time>2026-04-15T10:38:31.999Z</time></trkpt><trkpt lat="-25.9296241048388" lon="113.53721426531509"><ele>3.0</ele><time>2026-04-15T10:38:35.999Z</time></trkpt><trkpt lat="-25.929579686318352" lon="113.5372766969394"><ele>3.0</ele><time>2026-04-15T10:38:44.999Z</time></trkpt><trkpt lat="-25.92954633609926" lon="113.53734539562299"><ele>3.0</ele><time>2026-04-15T10:38:49.999Z</time></trkpt><trkpt lat="-25.929481730785863" lon="113.53735236072852"><ele>3.0</ele><time>2026-04-15T10:38:59.999Z</time></trkpt><trkpt lat="-25.929416145582646" lon="113.5373718653194"><ele>3.0</ele><time>2026-04-15T10:39:05.999Z</time></trkpt><trkpt lat="-25.929472498299152" lon="113.53749564709663"><ele>3.0</ele><time>2026-04-15T10:42:12.016Z</time></trkpt><trkpt lat="-25.929544130326825" lon="113.53754637314776"><ele>3.0</ele><time>2026-04-15T10:42:14.031Z</time></trkpt><trkpt lat="-25.92943755377155" lon="113.53733548172512"><ele>3.0</ele><time>2026-04-15T10:42:19.038Z</time></trkpt><trkpt lat="-25.92942643172982" lon="113.53741184933045"><ele>3.0</ele><time>2026-04-15T10:42:56.998Z</time></trkpt></trkseg><trkseg><trkpt lat="-25.924446053316757" lon="113.5288053952726"><ele>14.000000000000002</ele><time>2026-04-16T01:28:25Z</time></trkpt><trkpt lat="-25.924521875137877" lon="113.52875004057276"><ele>14.0</ele><time>2026-04-16T01:28:28Z</time></trkpt><trkpt lat="-25.92451919652208" lon="113.5286573343652"><ele>14.0</ele><time>2026-04-16T01:28:30Z</time></trkpt><trkpt lat="-25.924513879600404" lon="113.52855203361544"><ele>14.0</ele><time>2026-04-16T01:28:32Z</time></trkpt><trkpt lat="-25.924524968195414" lon="113.5284570696266"><ele>14.000000000000002</ele><time>2026-04-16T01:28:34Z</time></trkpt><trkpt lat="-25.92455891523606" lon="113.5283869154019"><ele>14.0</ele><time>2026-04-16T01:28:36Z</time></trkpt><trkpt lat="-25.92461678722061" lon="113.52834181415504"><ele>14.000000000000002</ele><time>2026-04-16T01:28:40Z</time></trkpt><trkpt lat="-25.924622953948237" lon="113.52842704457854"><ele>14.0</ele><time>2026-04-16T01:28:43Z</time></trkpt><trkpt lat="-25.92455967272688" lon="113.52847332742543"><ele>14.0</ele><time>2026-04-16T01:28:44.999Z</time></trkpt><trkpt lat="-25.92449957505505" lon="113.5285601950274"><ele>14.0</ele><time>2026-04-16T01:28:46.999Z</time></trkpt><trkpt lat="-25.924486362773106" lon="113.5286696544149"><ele>14.000000000000002</ele><time>2026-04-16T01:28:48.999Z</time></trkpt><trkpt lat="-25.924456372793003" lon="113.52875903975968"><ele>14.0</ele><time>2026-04-16T01:28:50.999Z</time></trkpt><trkpt lat="-25.924396037332894" lon="113.52878784029305"><ele>14.000000000000002</ele><time>2026-04-16T01:28:54.999Z</time></trkpt><trkpt lat="-25.92447675981858" lon="113.52881257499051"><ele>14.0</ele><time>2026-04-16T01:29:52.998Z</time></trkpt><trkpt lat="-25.92451841090419" lon="113.528692882758"><ele>14.0</ele><time>2026-04-16T01:29:54.998Z</time></trkpt><trkpt lat="-25.92451390925635" lon="113.5285891629463"><ele>14.0</ele><time>2026-04-16T01:29:56.998Z</time></trkpt><trkpt lat="-25.924524874764103" lon="113.52849069354986"><ele>14.000000000000002</ele><time>2026-04-16T01:29:58.998Z</time></trkpt><trkpt lat="-25.924565723313144" lon="113.52843163607545"><ele>14.0</ele><time>2026-04-16T01:30:00.998Z</time></trkpt><trkpt lat="-25.924629477232852" lon="113.52839722034385"><ele>14.000000000000002</ele><time>2026-04-16T01:30:03.999Z</time></trkpt><trkpt lat="-25.924702685517158" lon="113.52841854127631"><ele>14.0</ele><time>2026-04-16T01:30:05.999Z</time></trkpt><trkpt lat="-25.92478414055646" lon="113.52848289088863"><ele>14.0</ele><time>2026-04-16T01:30:07.999Z</time></trkpt><trkpt lat="-25.924817059193032" lon="113.52854443697598"><ele>14.0</ele><time>2026-04-16T01:30:08.999Z</time></trkpt><trkpt lat="-25.92485512107056" lon="113.52861944078005"><ele>14.000000000000002</ele><time>2026-04-16T01:30:09.999Z</time></trkpt><trkpt lat="-25.92489667619056" lon="113.52869300587346"><ele>14.0</ele><time>2026-04-16T01:30:10.999Z</time></trkpt><trkpt lat="-25.924946234171138" lon="113.528771682945"><ele>14.0</ele><time>2026-04-16T01:30:11.999Z</time></trkpt><trkpt lat="-25.924991968839873" lon="113.52884593279018"><ele>13.999999999999998</ele><time>2026-04-16T01:30:12.999Z</time></trkpt><trkpt lat="-25.92504852598847" lon="113.5289108798492"><ele>13.999999999999998</ele><time>2026-04-16T01:30:13.999Z</time></trkpt><trkpt lat="-25.925076422518753" lon="113.52900109288426"><ele>14.0</ele><time>2026-04-16T01:30:14.999Z</time></trkpt><trkpt lat="-25.92513382929785" lon="113.52909052857245"><ele>14.0</ele><time>2026-04-16T01:30:15.999Z</time></trkpt><trkpt lat="-25.92517841877642" lon="113.52920670516637"><ele>13.166666666666668</ele><time>2026-04-16T01:30:16.999Z</time></trkpt><trkpt lat="-25.92522208258482" lon="113.52931860733199"><ele>12.333333333333334</ele><time>2026-04-16T01:30:17.999Z</time></trkpt><trkpt lat="-25.925258772218772" lon="113.5294106277122"><ele>11.5</ele><time>2026-04-16T01:30:18.999Z</time></trkpt><trkpt lat="-25.925291927733063" lon="113.52949250119082"><ele>10.666666666666668</ele><time>2026-04-16T01:30:19.999Z</time></trkpt><trkpt lat="-25.925323761135036" lon="113.52956544849737"><ele>9.833333333333334</ele><time>2026-04-16T01:30:20.999Z</time></trkpt><trkpt lat="-25.925357248559763" lon="113.52964021983338"><ele>9.0</ele><time>2026-04-16T01:30:21.999Z</time></trkpt><trkpt lat="-25.92538251689188" lon="113.52971901784959"><ele>9.0</ele><time>2026-04-16T01:30:22.999Z</time></trkpt><trkpt lat="-25.92540195770605" lon="113.52980625210137"><ele>9.0</ele><time>2026-04-16T01:30:23.999Z</time></trkpt><trkpt lat="-25.925414787896152" lon="113.52989695791399"><ele>9.0</ele><time>2026-04-16T01:30:24.999Z</time></trkpt><trkpt lat="-25.92541567880967" lon="113.52998849883397"><ele>9.0</ele><time>2026-04-16T01:30:26Z</time></trkpt><trkpt lat="-25.92543561356108" lon="113.53006115451637"><ele>9.0</ele><time>2026-04-16T01:30:27Z</time></trkpt><trkpt lat="-25.92543677927782" lon="113.53013861269292"><ele>9.0</ele><time>2026-04-16T01:30:28Z</time></trkpt><trkpt lat="-25.925431673925722" lon="113.53027005310268"><ele>9.0</ele><time>2026-04-16T01:30:30Z</time></trkpt><trkpt lat="-25.925458048006465" lon="113.53035358404902"><ele>9.0</ele><time>2026-04-16T01:30:32Z</time></trkpt><trkpt lat="-25.925347813778775" lon="113.53043348624308"><ele>9.0</ele><time>2026-04-16T01:30:36Z</time></trkpt><trkpt lat="-25.925290963048433" lon="113.53047090152805"><ele>9.0</ele><time>2026-04-16T01:30:37Z</time></trkpt><trkpt lat="-25.925224455875824" lon="113.53047517667912"><ele>9.0</ele><time>2026-04-16T01:30:38Z</time></trkpt><trkpt lat="-25.925143737308467" lon="113.53048497043618"><ele>9.0</ele><time>2026-04-16T01:30:40Z</time></trkpt><trkpt lat="-25.92507981146081" lon="113.53048758614226"><ele>10.2</ele><time>2026-04-16T01:30:42Z</time></trkpt><trkpt lat="-25.92498589336122" lon="113.53049108639924"><ele>11.4</ele><time>2026-04-16T01:30:44Z</time></trkpt><trkpt lat="-25.924864522136744" lon="113.5304692014715"><ele>12.6</ele><time>2026-04-16T01:30:46Z</time></trkpt><trkpt lat="-25.924866879390738" lon="113.53057627268802"><ele>13.8</ele><time>2026-04-16T01:30:52Z</time></trkpt><trkpt lat="-25.924963505465143" lon="113.53056864567958"><ele>15.0</ele><time>2026-04-16T01:30:54Z</time></trkpt><trkpt lat="-25.92503660897609" lon="113.53053651030406"><ele>14.166666666666666</ele><time>2026-04-16T01:30:55Z</time></trkpt><trkpt lat="-25.92512488831758" lon="113.5305132544559"><ele>13.333333333333334</ele><time>2026-04-16T01:30:56Z</time></trkpt><trkpt lat="-25.925221818295384" lon="113.53049787001"><ele>12.5</ele><time>2026-04-16T01:30:57Z</time></trkpt><trkpt lat="-25.92530631691381" lon="113.5304871916538"><ele>11.666666666666668</ele><time>2026-04-16T01:30:58Z</time></trkpt><trkpt lat="-25.925383909301893" lon="113.53046798627047"><ele>10.833333333333334</ele><time>2026-04-16T01:30:59Z</time></trkpt><trkpt lat="-25.925462355176577" lon="113.53043979298893"><ele>10.0</ele><time>2026-04-16T01:31:00Z</time></trkpt><trkpt lat="-25.9255511686999" lon="113.53040479123412"><ele>9.8</ele><time>2026-04-16T01:31:01Z</time></trkpt><trkpt lat="-25.92564429334011" lon="113.53036609543193"><ele>9.6</ele><time>2026-04-16T01:31:02Z</time></trkpt><trkpt lat="-25.925734434589334" lon="113.53032766671929"><ele>9.4</ele><time>2026-04-16T01:31:03Z</time></trkpt><trkpt lat="-25.925823700489698" lon="113.53029172492337"><ele>9.2</ele><time>2026-04-16T01:31:04Z</time></trkpt><trkpt lat="-25.925905236601952" lon="113.5302662566819"><ele>9.0</ele><time>2026-04-16T01:31:05Z</time></trkpt><trkpt lat="-25.92598102865361" lon="113.53026191415947"><ele>8.6</ele><time>2026-04-16T01:31:06Z</time></trkpt><trkpt lat="-25.92605785812833" lon="113.5302831699325"><ele>8.2</ele><time>2026-04-16T01:31:07Z</time></trkpt><trkpt lat="-25.92613322162518" lon="113.53032918108443"><ele>7.799999999999999</ele><time>2026-04-16T01:31:08Z</time></trkpt><trkpt lat="-25.92620396670253" lon="113.53040453091506"><ele>7.3999999999999995</ele><time>2026-04-16T01:31:09Z</time></trkpt><trkpt lat="-25.92626609441474" lon="113.5305120377784"><ele>7.0</ele><time>2026-04-16T01:31:10Z</time></trkpt><trkpt lat="-25.926324285019188" lon="113.53063824016127"><ele>7.0</ele><time>2026-04-16T01:31:11Z</time></trkpt><trkpt lat="-25.926380505253892" lon="113.53076469226062"><ele>7.0</ele><time>2026-04-16T01:31:12Z</time></trkpt><trkpt lat="-25.926434992938518" lon="113.5308791202396"><ele>7.0</ele><time>2026-04-16T01:31:13Z</time></trkpt><trkpt lat="-25.926485614008975" lon="113.53098073521934"><ele>7.0</ele><time>2026-04-16T01:31:14Z</time></trkpt><trkpt lat="-25.926530305537938" lon="113.5310827807847"><ele>7.0</ele><time>2026-04-16T01:31:15Z</time></trkpt><trkpt lat="-25.926577225793828" lon="113.5311819228702"><ele>6.999999999999999</ele><time>2026-04-16T01:31:16Z</time></trkpt><trkpt lat="-25.92662308763979" lon="113.53127447509016"><ele>6.999999999999999</ele><time>2026-04-16T01:31:17Z</time></trkpt><trkpt lat="-25.926664380440748" lon="113.53136097264614"><ele>7.0</ele><time>2026-04-16T01:31:18Z</time></trkpt><trkpt lat="-25.926703714794964" lon="113.53144088531033"><ele>7.0</ele><time>2026-04-16T01:31:19Z</time></trkpt><trkpt lat="-25.926745318349415" lon="113.5315220876007"><ele>6.199999999999999</ele><time>2026-04-16T01:31:20Z</time></trkpt><trkpt lat="-25.92678740076816" lon="113.53160849911777"><ele>5.3999999999999995</ele><time>2026-04-16T01:31:21Z</time></trkpt><trkpt lat="-25.926831421379966" lon="113.53169941666172"><ele>4.6</ele><time>2026-04-16T01:31:22Z</time></trkpt><trkpt lat="-25.926878158610375" lon="113.53179454823396"><ele>3.8</ele><time>2026-04-16T01:31:23Z</time></trkpt><trkpt lat="-25.92692531930372" lon="113.53189064353516"><ele>3.0</ele><time>2026-04-16T01:31:24Z</time></trkpt><trkpt lat="-25.92697196243839" lon="113.53198517765819"><ele>3.5</ele><time>2026-04-16T01:31:25Z</time></trkpt><trkpt lat="-25.927017991156546" lon="113.53207457622956"><ele>4.0</ele><time>2026-04-16T01:31:26Z</time></trkpt><trkpt lat="-25.927057848339707" lon="113.53215747921068"><ele>4.5</ele><time>2026-04-16T01:31:27Z</time></trkpt><trkpt lat="-25.927092079215615" lon="113.53223567124797"><ele>5.0</ele><time>2026-04-16T01:31:28Z</time></trkpt><trkpt lat="-25.9271268809869" lon="113.53230826724634"><ele>5.5</ele><time>2026-04-16T01:31:29Z</time></trkpt><trkpt lat="-25.92716282452148" lon="113.5323776037326"><ele>6.0</ele><time>2026-04-16T01:31:30Z</time></trkpt><trkpt lat="-25.927194614168375" lon="113.53243989813066"><ele>5.999999999999999</ele><time>2026-04-16T01:31:31Z</time></trkpt><trkpt lat="-25.927226938317393" lon="113.5325042480939"><ele>6.0</ele><time>2026-04-16T01:31:32Z</time></trkpt><trkpt lat="-25.927260019636954" lon="113.53256955141309"><ele>6.0</ele><time>2026-04-16T01:31:33Z</time></trkpt><trkpt lat="-25.927295969614317" lon="113.53263677789616"><ele>6.0</ele><time>2026-04-16T01:31:34Z</time></trkpt><trkpt lat="-25.927332765350357" lon="113.53270572528773"><ele>6.0</ele><time>2026-04-16T01:31:35Z</time></trkpt><trkpt lat="-25.927367946434966" lon="113.53277562845109"><ele>5.999999999999999</ele><time>2026-04-16T01:31:36Z</time></trkpt><trkpt lat="-25.927403277102915" lon="113.53284605640584"><ele>6.0</ele><time>2026-04-16T01:31:37Z</time></trkpt><trkpt lat="-25.9274399033971" lon="113.5329235613817"><ele>6.0</ele><time>2026-04-16T01:31:38Z</time></trkpt><trkpt lat="-25.927478175260408" lon="113.53300706819317"><ele>6.0</ele><time>2026-04-16T01:31:39Z</time></trkpt><trkpt lat="-25.92752283649701" lon="113.53309821922818"><ele>6.0</ele><time>2026-04-16T01:31:40Z</time></trkpt><trkpt lat="-25.92756571245708" lon="113.53318652041791"><ele>6.0</ele><time>2026-04-16T01:31:41Z</time></trkpt><trkpt lat="-25.927604179705106" lon="113.53326499618012"><ele>6.0</ele><time>2026-04-16T01:31:42Z</time></trkpt><trkpt lat="-25.92763840279434" lon="113.53333568808877"><ele>6.0</ele><time>2026-04-16T01:31:43Z</time></trkpt><trkpt lat="-25.927671104009832" lon="113.53339986417734"><ele>6.0</ele><time>2026-04-16T01:31:44Z</time></trkpt><trkpt lat="-25.927700166801653" lon="113.53346708047309"><ele>6.0</ele><time>2026-04-16T01:31:45Z</time></trkpt><trkpt lat="-25.927729435454832" lon="113.53353915349366"><ele>6.0</ele><time>2026-04-16T01:31:46Z</time></trkpt><trkpt lat="-25.92776583069315" lon="113.53361838313343"><ele>6.0</ele><time>2026-04-16T01:31:47Z</time></trkpt><trkpt lat="-25.927807499609347" lon="113.53370193167504"><ele>6.0</ele><time>2026-04-16T01:31:48Z</time></trkpt><trkpt lat="-25.927847491701424" lon="113.53378521186401"><ele>6.0</ele><time>2026-04-16T01:31:49Z</time></trkpt><trkpt lat="-25.927882663343404" lon="113.53385772995682"><ele>6.0</ele><time>2026-04-16T01:31:50Z</time></trkpt><trkpt lat="-25.92791722642189" lon="113.53391999552599"><ele>6.0</ele><time>2026-04-16T01:31:51Z</time></trkpt><trkpt lat="-25.927979553436124" lon="113.53403379807389"><ele>6.0</ele><time>2026-04-16T01:31:53Z</time></trkpt><trkpt lat="-25.92804635183" lon="113.5341630226496"><ele>6.0</ele><time>2026-04-16T01:31:55Z</time></trkpt><trkpt lat="-25.92808277281394" lon="113.53423182770584"><ele>6.0</ele><time>2026-04-16T01:31:56Z</time></trkpt><trkpt lat="-25.928117342950905" lon="113.53430220497837"><ele>6.0</ele><time>2026-04-16T01:31:57Z</time></trkpt><trkpt lat="-25.928171679348953" lon="113.5344188128568"><ele>6.0</ele><time>2026-04-16T01:31:58.999Z</time></trkpt><trkpt lat="-25.928203610636274" lon="113.53449278206334"><ele>6.0</ele><time>2026-04-16T01:32:00.999Z</time></trkpt><trkpt lat="-25.928262813885436" lon="113.5345920426649"><ele>6.0</ele><time>2026-04-16T01:32:03.999Z</time></trkpt><trkpt lat="-25.928314317746278" lon="113.53469644472855"><ele>6.0</ele><time>2026-04-16T01:32:05.999Z</time></trkpt><trkpt lat="-25.928350745018616" lon="113.53477028544708"><ele>6.199999999999999</ele><time>2026-04-16T01:32:06.999Z</time></trkpt><trkpt lat="-25.92839197556871" lon="113.53485410692969"><ele>6.3999999999999995</ele><time>2026-04-16T01:32:07.999Z</time></trkpt><trkpt lat="-25.92844326438813" lon="113.5349589472792"><ele>6.6</ele><time>2026-04-16T01:32:08.999Z</time></trkpt><trkpt lat="-25.928484319305053" lon="113.53507508469112"><ele>6.8</ele><time>2026-04-16T01:32:09.999Z</time></trkpt><trkpt lat="-25.928548676582466" lon="113.53518469014955"><ele>7.0</ele><time>2026-04-16T01:32:10.999Z</time></trkpt><trkpt lat="-25.928605379387754" lon="113.53529474524247"><ele>6.6</ele><time>2026-04-16T01:32:11.999Z</time></trkpt><trkpt lat="-25.928650560253608" lon="113.53539288866251"><ele>6.199999999999999</ele><time>2026-04-16T01:32:12.999Z</time></trkpt><trkpt lat="-25.928694022533488" lon="113.53548269647429"><ele>5.8</ele><time>2026-04-16T01:32:14Z</time></trkpt><trkpt lat="-25.928733644921927" lon="113.53556923820648"><ele>5.4</ele><time>2026-04-16T01:32:15Z</time></trkpt><trkpt lat="-25.928776892381304" lon="113.53566543461974"><ele>5.0</ele><time>2026-04-16T01:32:16Z</time></trkpt><trkpt lat="-25.928821665838075" lon="113.53575087351294"><ele>5.0</ele><time>2026-04-16T01:32:17Z</time></trkpt><trkpt lat="-25.92886360302088" lon="113.53582781033309"><ele>5.0</ele><time>2026-04-16T01:32:18Z</time></trkpt><trkpt lat="-25.92889581170147" lon="113.53590105462756"><ele>5.0</ele><time>2026-04-16T01:32:19Z</time></trkpt><trkpt lat="-25.92896157304062" lon="113.53599928787119"><ele>5.0</ele><time>2026-04-16T01:32:21Z</time></trkpt><trkpt lat="-25.928791756820498" lon="113.53614621828586"><ele>5.0</ele><time>2026-04-16T01:32:24Z</time></trkpt><trkpt lat="-25.92868133475404" lon="113.5361406013017"><ele>5.0</ele><time>2026-04-16T01:32:26Z</time></trkpt><trkpt lat="-25.92859234646337" lon="113.53614659526599"><ele>5.0</ele><time>2026-04-16T01:32:27Z</time></trkpt><trkpt lat="-25.928506513749998" lon="113.53614268865041"><ele>5.0</ele><time>2026-04-16T01:32:28Z</time></trkpt><trkpt lat="-25.928430560447744" lon="113.53614226451334"><ele>5.0</ele><time>2026-04-16T01:32:29Z</time></trkpt><trkpt lat="-25.928355661294894" lon="113.53614185448824"><ele>5.0</ele><time>2026-04-16T01:32:30Z</time></trkpt><trkpt lat="-25.928273143847836" lon="113.5361414068937"><ele>6.0</ele><time>2026-04-16T01:32:31Z</time></trkpt><trkpt lat="-25.92817138945195" lon="113.5361550279102"><ele>7.0</ele><time>2026-04-16T01:32:32Z</time></trkpt><trkpt lat="-25.928053674123728" lon="113.53615520749247"><ele>8.0</ele><time>2026-04-16T01:32:33Z</time></trkpt><trkpt lat="-25.927920257906088" lon="113.53615396954272"><ele>9.0</ele><time>2026-04-16T01:32:34Z</time></trkpt><trkpt lat="-25.927769783002187" lon="113.5361506928163"><ele>9.0</ele><time>2026-04-16T01:32:35Z</time></trkpt><trkpt lat="-25.92760754564907" lon="113.53614610725613"><ele>9.0</ele><time>2026-04-16T01:32:36Z</time></trkpt><trkpt lat="-25.92744155177225" lon="113.53614254405326"><ele>9.0</ele><time>2026-04-16T01:32:37Z</time></trkpt><trkpt lat="-25.9272594631587" lon="113.5361419161329"><ele>10.666666666666668</ele><time>2026-04-16T01:32:38Z</time></trkpt><trkpt lat="-25.927070786619208" lon="113.53614521489312"><ele>12.333333333333334</ele><time>2026-04-16T01:32:39Z</time></trkpt><trkpt lat="-25.92688657260527" lon="113.53615002768535"><ele>14.0</ele><time>2026-04-16T01:32:40Z</time></trkpt><trkpt lat="-25.92669665147734" lon="113.53614983680588"><ele>15.666666666666668</ele><time>2026-04-16T01:32:41Z</time></trkpt><trkpt lat="-25.926498777842937" lon="113.53614799655419"><ele>17.333333333333332</ele><time>2026-04-16T01:32:42Z</time></trkpt><trkpt lat="-25.9263002103302" lon="113.5361468091799"><ele>19.0</ele><time>2026-04-16T01:32:43Z</time></trkpt><trkpt lat="-25.926109252724395" lon="113.53614896191259"><ele>19.0</ele><time>2026-04-16T01:32:44Z</time></trkpt><trkpt lat="-25.92592454184313" lon="113.53614987848445"><ele>19.0</ele><time>2026-04-16T01:32:45Z</time></trkpt><trkpt lat="-25.92574919664255" lon="113.53614768081083"><ele>19.0</ele><time>2026-04-16T01:32:46Z</time></trkpt><trkpt lat="-25.92558625523704" lon="113.53614412065862"><ele>19.25</ele><time>2026-04-16T01:32:47Z</time></trkpt><trkpt lat="-25.925433899373733" lon="113.5361422421595"><ele>19.5</ele><time>2026-04-16T01:32:48Z</time></trkpt><trkpt lat="-25.92528866636608" lon="113.53614202198426"><ele>19.75</ele><time>2026-04-16T01:32:49Z</time></trkpt><trkpt lat="-25.9251513901943" lon="113.53614094284166"><ele>20.0</ele><time>2026-04-16T01:32:50Z</time></trkpt><trkpt lat="-25.925025657635167" lon="113.53613540440769"><ele>20.2</ele><time>2026-04-16T01:32:51Z</time></trkpt><trkpt lat="-25.924915781243573" lon="113.53613029009809"><ele>20.4</ele><time>2026-04-16T01:32:52Z</time></trkpt><trkpt lat="-25.924825450388365" lon="113.53613363013528"><ele>20.6</ele><time>2026-04-16T01:32:53Z</time></trkpt><trkpt lat="-25.9247571145965" lon="113.53613352593642"><ele>20.8</ele><time>2026-04-16T01:32:54Z</time></trkpt><trkpt lat="-25.924691804603995" lon="113.53614953784592"><ele>21.0</ele><time>2026-04-16T01:32:56Z</time></trkpt><trkpt lat="-25.924679305268512" lon="113.53641060669796"><ele>21.0</ele><time>2026-04-16T01:32:57Z</time></trkpt><trkpt lat="-25.924681273233094" lon="113.5365347336909"><ele>21.0</ele><time>2026-04-16T01:32:58Z</time></trkpt><trkpt lat="-25.924679891802665" lon="113.53667477489029"><ele>21.0</ele><time>2026-04-16T01:32:59Z</time></trkpt><trkpt lat="-25.9246720379706" lon="113.5368235206413"><ele>21.0</ele><time>2026-04-16T01:33:00Z</time></trkpt><trkpt lat="-25.924654013695758" lon="113.53697571465797"><ele>21.666666666666668</ele><time>2026-04-16T01:33:01Z</time></trkpt><trkpt lat="-25.924613083894126" lon="113.53713595068977"><ele>22.333333333333336</ele><time>2026-04-16T01:33:02Z</time></trkpt><trkpt lat="-25.92454431679819" lon="113.53729341022078"><ele>23.0</ele><time>2026-04-16T01:33:03Z</time></trkpt><trkpt lat="-25.924457701129064" lon="113.53746070356306"><ele>23.0</ele><time>2026-04-16T01:33:04Z</time></trkpt><trkpt lat="-25.92436861558314" lon="113.53764279945067"><ele>23.0</ele><time>2026-04-16T01:33:05Z</time></trkpt><trkpt lat="-25.924282997879196" lon="113.53782225635496"><ele>23.0</ele><time>2026-04-16T01:33:06Z</time></trkpt><trkpt lat="-25.92420854620469" lon="113.5379845034611"><ele>24.333333333333336</ele><time>2026-04-16T01:33:07Z</time></trkpt><trkpt lat="-25.92413895009917" lon="113.53813842671141"><ele>25.666666666666668</ele><time>2026-04-16T01:33:08Z</time></trkpt><trkpt lat="-25.924068246641774" lon="113.53828455078623"><ele>27.0</ele><time>2026-04-16T01:33:09Z</time></trkpt><trkpt lat="-25.92398273981263" lon="113.53841699434287"><ele>27.0</ele><time>2026-04-16T01:33:10Z</time></trkpt><trkpt lat="-25.92386931696692" lon="113.53853000238783"><ele>27.0</ele><time>2026-04-16T01:33:11Z</time></trkpt><trkpt lat="-25.92372878953935" lon="113.53862769420506"><ele>27.0</ele><time>2026-04-16T01:33:12Z</time></trkpt><trkpt lat="-25.923565120034848" lon="113.53871717472364"><ele>27.666666666666664</ele><time>2026-04-16T01:33:13Z</time></trkpt><trkpt lat="-25.923390278018587" lon="113.53880637745463"><ele>28.333333333333332</ele><time>2026-04-16T01:33:14Z</time></trkpt><trkpt lat="-25.923220418221124" lon="113.5389053005754"><ele>29.0</ele><time>2026-04-16T01:33:15Z</time></trkpt><trkpt lat="-25.923060017355642" lon="113.53901795982004"><ele>29.0</ele><time>2026-04-16T01:33:16Z</time></trkpt><trkpt lat="-25.92290815760206" lon="113.53915271669818"><ele>29.0</ele><time>2026-04-16T01:33:17Z</time></trkpt><trkpt lat="-25.922760623188942" lon="113.53930818867845"><ele>29.0</ele><time>2026-04-16T01:33:18Z</time></trkpt><trkpt lat="-25.922631919183335" lon="113.53947229173822"><ele>28.333333333333332</ele><time>2026-04-16T01:33:19Z</time></trkpt><trkpt lat="-25.922532314972205" lon="113.53963514620081"><ele>27.666666666666664</ele><time>2026-04-16T01:33:20Z</time></trkpt><trkpt lat="-25.92246549086169" lon="113.5397895324383"><ele>27.0</ele><time>2026-04-16T01:33:21Z</time></trkpt><trkpt lat="-25.9224281864317" lon="113.53991802794395"><ele>27.0</ele><time>2026-04-16T01:33:22Z</time></trkpt><trkpt lat="-25.922413493818016" lon="113.54001457085282"><ele>27.000000000000004</ele><time>2026-04-16T01:33:23Z</time></trkpt><trkpt lat="-25.922411152802177" lon="113.54013358251476"><ele>27.000000000000004</ele><time>2026-04-16T01:33:25Z</time></trkpt><trkpt lat="-25.922421534097683" lon="113.54022585718249"><ele>27.0</ele><time>2026-04-16T01:33:27Z</time></trkpt><trkpt lat="-25.922398713349647" lon="113.54030211415287"><ele>27.0</ele><time>2026-04-16T01:33:31Z</time></trkpt><trkpt lat="-25.922164778376633" lon="113.54029537925298"><ele>27.0</ele><time>2026-04-16T01:33:34Z</time></trkpt><trkpt lat="-25.922080972259188" lon="113.54029672680069"><ele>27.000000000000004</ele><time>2026-04-16T01:33:35Z</time></trkpt><trkpt lat="-25.921994180820725" lon="113.5402956503694"><ele>27.000000000000004</ele><time>2026-04-16T01:33:36Z</time></trkpt><trkpt lat="-25.921898885444467" lon="113.54029512286351"><ele>27.0</ele><time>2026-04-16T01:33:37Z</time></trkpt><trkpt lat="-25.92179792949465" lon="113.54029585004301"><ele>27.0</ele><time>2026-04-16T01:33:38Z</time></trkpt><trkpt lat="-25.921701359609173" lon="113.54030154741811"><ele>27.200000000000003</ele><time>2026-04-16T01:33:39Z</time></trkpt><trkpt lat="-25.921612362974066" lon="113.54030682643739"><ele>27.400000000000002</ele><time>2026-04-16T01:33:40Z</time></trkpt><trkpt lat="-25.921513695062202" lon="113.54030234736753"><ele>27.599999999999998</ele><time>2026-04-16T01:33:41Z</time></trkpt><trkpt lat="-25.921408312676903" lon="113.54029399611379"><ele>27.799999999999997</ele><time>2026-04-16T01:33:42Z</time></trkpt><trkpt lat="-25.92130034529002" lon="113.54028758483804"><ele>28.0</ele><time>2026-04-16T01:33:43Z</time></trkpt><trkpt lat="-25.92119610787104" lon="113.54028401382759"><ele>28.000000000000004</ele><time>2026-04-16T01:33:44Z</time></trkpt><trkpt lat="-25.921103086417006" lon="113.54028442659087"><ele>28.0</ele><time>2026-04-16T01:33:45Z</time></trkpt><trkpt lat="-25.921014137563173" lon="113.5402894099813"><ele>28.0</ele><time>2026-04-16T01:33:46Z</time></trkpt><trkpt lat="-25.92093212341978" lon="113.54029640148545"><ele>28.0</ele><time>2026-04-16T01:33:47.001Z</time></trkpt><trkpt lat="-25.920846639624934" lon="113.54029518958386"><ele>28.000000000000004</ele><time>2026-04-16T01:33:48.001Z</time></trkpt><trkpt lat="-25.92076063727542" lon="113.54028929506794"><ele>28.0</ele><time>2026-04-16T01:33:49.001Z</time></trkpt><trkpt lat="-25.920656123892535" lon="113.54028142254393"><ele>27.4</ele><time>2026-04-16T01:33:50.001Z</time></trkpt><trkpt lat="-25.920544144681937" lon="113.54027562776727"><ele>26.799999999999997</ele><time>2026-04-16T01:33:51.001Z</time></trkpt><trkpt lat="-25.92043395622727" lon="113.54027266422068"><ele>26.2</ele><time>2026-04-16T01:33:52.001Z</time></trkpt><trkpt lat="-25.920321345806418" lon="113.54027101175461"><ele>25.6</ele><time>2026-04-16T01:33:53.001Z</time></trkpt><trkpt lat="-25.920209823120253" lon="113.54026675119276"><ele>25.0</ele><time>2026-04-16T01:33:54.001Z</time></trkpt><trkpt lat="-25.920090741230492" lon="113.54025974107509"><ele>24.0</ele><time>2026-04-16T01:33:55.001Z</time></trkpt><trkpt lat="-25.919967128567148" lon="113.54025739337756"><ele>23.0</ele><time>2026-04-16T01:33:56.001Z</time></trkpt><trkpt lat="-25.91985080108155" lon="113.5402555683133"><ele>22.0</ele><time>2026-04-16T01:33:57.001Z</time></trkpt><trkpt lat="-25.919742750903094" lon="113.5402515554258"><ele>21.0</ele><time>2026-04-16T01:33:58.001Z</time></trkpt><trkpt lat="-25.919637912497627" lon="113.54024746785909"><ele>21.0</ele><time>2026-04-16T01:33:59.001Z</time></trkpt><trkpt lat="-25.919534934727718" lon="113.54024431489228"><ele>21.0</ele><time>2026-04-16T01:34:00.001Z</time></trkpt><trkpt lat="-25.919449050855395" lon="113.5402502998427"><ele>21.0</ele><time>2026-04-16T01:34:01.001Z</time></trkpt><trkpt lat="-25.919380088365163" lon="113.54024972957052"><ele>21.0</ele><time>2026-04-16T01:34:02.001Z</time></trkpt><trkpt lat="-25.919286736248747" lon="113.54026857589412"><ele>21.0</ele><time>2026-04-16T01:34:04Z</time></trkpt><trkpt lat="-25.919205093333424" lon="113.54029437721417"><ele>21.0</ele><time>2026-04-16T01:34:07Z</time></trkpt><trkpt lat="-25.919143083546857" lon="113.5403882817592"><ele>21.166666666666668</ele><time>2026-04-16T01:34:09Z</time></trkpt><trkpt lat="-25.91918304507835" lon="113.54049115863442"><ele>21.333333333333332</ele><time>2026-04-16T01:34:10Z</time></trkpt><trkpt lat="-25.91920120229468" lon="113.54056103375532"><ele>21.5</ele><time>2026-04-16T01:34:11Z</time></trkpt><trkpt lat="-25.91921759189596" lon="113.54063897506333"><ele>21.666666666666664</ele><time>2026-04-16T01:34:12Z</time></trkpt><trkpt lat="-25.919232632912358" lon="113.54071663875052"><ele>21.833333333333332</ele><time>2026-04-16T01:34:13Z</time></trkpt><trkpt lat="-25.919237619943033" lon="113.54080343208047"><ele>22.0</ele><time>2026-04-16T01:34:15Z</time></trkpt><trkpt lat="-25.91904914551514" lon="113.54087972608303"><ele>22.0</ele><time>2026-04-16T01:34:17Z</time></trkpt><trkpt lat="-25.918941910769984" lon="113.54089984593641"><ele>22.0</ele><time>2026-04-16T01:34:18Z</time></trkpt><trkpt lat="-25.918821882850633" lon="113.54091088503328"><ele>22.0</ele><time>2026-04-16T01:34:19Z</time></trkpt><trkpt lat="-25.918693927887496" lon="113.54092299339581"><ele>22.0</ele><time>2026-04-16T01:34:20Z</time></trkpt><trkpt lat="-25.91857409510341" lon="113.54093756467634"><ele>22.0</ele><time>2026-04-16T01:34:21Z</time></trkpt><trkpt lat="-25.91845752225922" lon="113.54095584785038"><ele>22.0</ele><time>2026-04-16T01:34:22Z</time></trkpt><trkpt lat="-25.9183367169419" lon="113.5409782574295"><ele>22.0</ele><time>2026-04-16T01:34:23Z</time></trkpt><trkpt lat="-25.91822932568418" lon="113.54099954811589"><ele>22.0</ele><time>2026-04-16T01:34:24Z</time></trkpt><trkpt lat="-25.918095958745855" lon="113.54102559082675"><ele>21.0</ele><time>2026-04-16T01:34:25Z</time></trkpt><trkpt lat="-25.917941755685863" lon="113.54105782282859"><ele>20.0</ele><time>2026-04-16T01:34:26Z</time></trkpt><trkpt lat="-25.91778598266017" lon="113.54109042798217"><ele>19.0</ele><time>2026-04-16T01:34:27Z</time></trkpt><trkpt lat="-25.91763592256207" lon="113.54111866879813"><ele>19.333333333333332</ele><time>2026-04-16T01:34:28Z</time></trkpt><trkpt lat="-25.9174815895729" lon="113.5411455636174"><ele>19.666666666666668</ele><time>2026-04-16T01:34:29Z</time></trkpt><trkpt lat="-25.91730755338446" lon="113.54117955255487"><ele>20.0</ele><time>2026-04-16T01:34:30Z</time></trkpt><trkpt lat="-25.91710958667822" lon="113.54121777769298"><ele>20.0</ele><time>2026-04-16T01:34:31Z</time></trkpt><trkpt lat="-25.9169271237271" lon="113.54125354202509"><ele>20.0</ele><time>2026-04-16T01:34:32Z</time></trkpt><trkpt lat="-25.915536248255183" lon="113.54150733850355"><ele>18.666666666666668</ele><time>2026-04-16T01:34:41Z</time></trkpt><trkpt lat="-25.915393441563122" lon="113.54153263010045"><ele>17.333333333333332</ele><time>2026-04-16T01:34:42Z</time></trkpt><trkpt lat="-25.91525789439597" lon="113.541555338943"><ele>16.0</ele><time>2026-04-16T01:34:43Z</time></trkpt><trkpt lat="-25.914615916354133" lon="113.54163002094538"><ele>16.0</ele><time>2026-04-16T01:34:48Z</time></trkpt><trkpt lat="-25.91448680084503" lon="113.54159871217907"><ele>16.0</ele><time>2026-04-16T01:34:49Z</time></trkpt><trkpt lat="-25.91435831109386" lon="113.5415467613737"><ele>16.0</ele><time>2026-04-16T01:34:50Z</time></trkpt><trkpt lat="-25.91423402520465" lon="113.54148168377095"><ele>16.0</ele><time>2026-04-16T01:34:51Z</time></trkpt><trkpt lat="-25.914112800528507" lon="113.5413998434131"><ele>14.666666666666666</ele><time>2026-04-16T01:34:52Z</time></trkpt><trkpt lat="-25.913996650925224" lon="113.54130909352479"><ele>13.333333333333332</ele><time>2026-04-16T01:34:53Z</time></trkpt><trkpt lat="-25.91387450004511" lon="113.54119502633344"><ele>12.0</ele><time>2026-04-16T01:34:54Z</time></trkpt><trkpt lat="-25.913745144635662" lon="113.54106062603871"><ele>12.0</ele><time>2026-04-16T01:34:55Z</time></trkpt><trkpt lat="-25.913619473546234" lon="113.54092955203234"><ele>12.0</ele><time>2026-04-16T01:34:56Z</time></trkpt><trkpt lat="-25.913503834461586" lon="113.54081682195218"><ele>12.0</ele><time>2026-04-16T01:34:57Z</time></trkpt><trkpt lat="-25.913401309132826" lon="113.54072279500487"><ele>12.0</ele><time>2026-04-16T01:34:58Z</time></trkpt><trkpt lat="-25.913298906697108" lon="113.54063583709777"><ele>12.0</ele><time>2026-04-16T01:34:59Z</time></trkpt><trkpt lat="-25.913197973706254" lon="113.54055434913187"><ele>12.0</ele><time>2026-04-16T01:35:00Z</time></trkpt><trkpt lat="-25.91310495415997" lon="113.54047246121242"><ele>12.0</ele><time>2026-04-16T01:35:01Z</time></trkpt><trkpt lat="-25.913018282644014" lon="113.54039763357758"><ele>11.2</ele><time>2026-04-16T01:35:02Z</time></trkpt><trkpt lat="-25.912932262045704" lon="113.54032934966801"><ele>10.399999999999999</ele><time>2026-04-16T01:35:03Z</time></trkpt><trkpt lat="-25.912849475066317" lon="113.54027463886487"><ele>9.600000000000001</ele><time>2026-04-16T01:35:04Z</time></trkpt><trkpt lat="-25.912764487066216" lon="113.54023690631539"><ele>8.8</ele><time>2026-04-16T01:35:05Z</time></trkpt><trkpt lat="-25.912672283308403" lon="113.54022173501858"><ele>8.0</ele><time>2026-04-16T01:35:06Z</time></trkpt><trkpt lat="-25.912568445032978" lon="113.54022269308643"><ele>7.75</ele><time>2026-04-16T01:35:07Z</time></trkpt><trkpt lat="-25.91244746330181" lon="113.54022079406367"><ele>7.5</ele><time>2026-04-16T01:35:08Z</time></trkpt><trkpt lat="-25.91233454359371" lon="113.54023901231774"><ele>7.25</ele><time>2026-04-16T01:35:09Z</time></trkpt><trkpt lat="-25.91221272727399" lon="113.54028292755667"><ele>7.0</ele><time>2026-04-16T01:35:10Z</time></trkpt><trkpt lat="-25.912087919380493" lon="113.5403406093274"><ele>7.25</ele><time>2026-04-16T01:35:11Z</time></trkpt><trkpt lat="-25.911963514035605" lon="113.54039076270213"><ele>7.5</ele><time>2026-04-16T01:35:12Z</time></trkpt><trkpt lat="-25.911845116073735" lon="113.54040915205233"><ele>7.75</ele><time>2026-04-16T01:35:13Z</time></trkpt><trkpt lat="-25.911715820969683" lon="113.54040251511432"><ele>8.0</ele><time>2026-04-16T01:35:14Z</time></trkpt><trkpt lat="-25.911572125848533" lon="113.54038093486399"><ele>8.0</ele><time>2026-04-16T01:35:15Z</time></trkpt><trkpt lat="-25.911414103036236" lon="113.5403506770834"><ele>8.0</ele><time>2026-04-16T01:35:16Z</time></trkpt><trkpt lat="-25.911272747462018" lon="113.54032865629625"><ele>8.0</ele><time>2026-04-16T01:35:17Z</time></trkpt><trkpt lat="-25.911151191277245" lon="113.5403147953579"><ele>8.0</ele><time>2026-04-16T01:35:18Z</time></trkpt><trkpt lat="-25.911042685242666" lon="113.54030334695233"><ele>8.0</ele><time>2026-04-16T01:35:19Z</time></trkpt><trkpt lat="-25.91094146937733" lon="113.54030110099494"><ele>8.0</ele><time>2026-04-16T01:35:20Z</time></trkpt><trkpt lat="-25.910833250912884" lon="113.54032001731542"><ele>8.0</ele><time>2026-04-16T01:35:21Z</time></trkpt><trkpt lat="-25.910720783072534" lon="113.54033185085957"><ele>8.0</ele><time>2026-04-16T01:35:22Z</time></trkpt><trkpt lat="-25.91061111983547" lon="113.54030666584171"><ele>8.0</ele><time>2026-04-16T01:35:23Z</time></trkpt><trkpt lat="-25.910507185051284" lon="113.5402541952864"><ele>9.25</ele><time>2026-04-16T01:35:24Z</time></trkpt><trkpt lat="-25.91040698704129" lon="113.54018877631552"><ele>10.5</ele><time>2026-04-16T01:35:25Z</time></trkpt><trkpt lat="-25.910304817350866" lon="113.54011555765712"><ele>11.75</ele><time>2026-04-16T01:35:26Z</time></trkpt><trkpt lat="-25.910204095028277" lon="113.54003814435612"><ele>13.0</ele><time>2026-04-16T01:35:27Z</time></trkpt><trkpt lat="-25.910116062555094" lon="113.53998484809958"><ele>13.4</ele><time>2026-04-16T01:35:28Z</time></trkpt><trkpt lat="-25.91002232162314" lon="113.53995377355854"><ele>13.8</ele><time>2026-04-16T01:35:29Z</time></trkpt><trkpt lat="-25.90992787809861" lon="113.53996773820539"><ele>14.2</ele><time>2026-04-16T01:35:30Z</time></trkpt><trkpt lat="-25.909824140226156" lon="113.5400020934707"><ele>14.6</ele><time>2026-04-16T01:35:31Z</time></trkpt><trkpt lat="-25.909699326239778" lon="113.54004493481591"><ele>15.0</ele><time>2026-04-16T01:35:32Z</time></trkpt><trkpt lat="-25.909570088570497" lon="113.54007321426919"><ele>15.0</ele><time>2026-04-16T01:35:33Z</time></trkpt><trkpt lat="-25.909448219900792" lon="113.54010001426585"><ele>15.0</ele><time>2026-04-16T01:35:34Z</time></trkpt><trkpt lat="-25.90932972712751" lon="113.54013005793064"><ele>15.0</ele><time>2026-04-16T01:35:35Z</time></trkpt><trkpt lat="-25.90922027041252" lon="113.54015730438667"><ele>15.0</ele><time>2026-04-16T01:35:36Z</time></trkpt><trkpt lat="-25.909102623446344" lon="113.54017031502178"><ele>14.666666666666668</ele><time>2026-04-16T01:35:37Z</time></trkpt><trkpt lat="-25.90883008723013" lon="113.54015648063034"><ele>14.333333333333334</ele><time>2026-04-16T01:35:39Z</time></trkpt><trkpt lat="-25.908679811320336" lon="113.5401485453412"><ele>14.0</ele><time>2026-04-16T01:35:40Z</time></trkpt><trkpt lat="-25.90853569808139" lon="113.54014039247288"><ele>14.0</ele><time>2026-04-16T01:35:41Z</time></trkpt><trkpt lat="-25.908398402005133" lon="113.54013133666642"><ele>14.0</ele><time>2026-04-16T01:35:42Z</time></trkpt><trkpt lat="-25.908265717387195" lon="113.54011847037462"><ele>14.0</ele><time>2026-04-16T01:35:43Z</time></trkpt><trkpt lat="-25.908139657274383" lon="113.54012006895296"><ele>14.0</ele><time>2026-04-16T01:35:44Z</time></trkpt><trkpt lat="-25.908008201720772" lon="113.54012384754311"><ele>14.0</ele><time>2026-04-16T01:35:45Z</time></trkpt><trkpt lat="-25.907885426400185" lon="113.54011486053068"><ele>13.999999999999998</ele><time>2026-04-16T01:35:46Z</time></trkpt><trkpt lat="-25.907776780528454" lon="113.54010788846605"><ele>13.999999999999998</ele><time>2026-04-16T01:35:47.001Z</time></trkpt><trkpt lat="-25.90768966846203" lon="113.54011122968897"><ele>14.0</ele><time>2026-04-16T01:35:48.001Z</time></trkpt><trkpt lat="-25.907615057610077" lon="113.54017731127476"><ele>14.0</ele><time>2026-04-16T01:35:50.001Z</time></trkpt><trkpt lat="-25.907622863683084" lon="113.5403141548668"><ele>15.0</ele><time>2026-04-16T01:35:52.001Z</time></trkpt><trkpt lat="-25.90763485645955" lon="113.54041518456543"><ele>15.999999999999998</ele><time>2026-04-16T01:35:53.001Z</time></trkpt><trkpt lat="-25.907640617591138" lon="113.54054465929704"><ele>17.0</ele><time>2026-04-16T01:35:54.001Z</time></trkpt><trkpt lat="-25.907635337815424" lon="113.54064999032404"><ele>18.0</ele><time>2026-04-16T01:35:55.001Z</time></trkpt><trkpt lat="-25.907619771802498" lon="113.54073173549645"><ele>19.0</ele><time>2026-04-16T01:35:56.001Z</time></trkpt><trkpt lat="-25.90758514743653" lon="113.54080545015239"><ele>18.599999999999998</ele><time>2026-04-16T01:35:57.001Z</time></trkpt><trkpt lat="-25.907517702272507" lon="113.54088586005214"><ele>18.2</ele><time>2026-04-16T01:35:58.001Z</time></trkpt><trkpt lat="-25.907454080698294" lon="113.54097486080818"><ele>17.799999999999997</ele><time>2026-04-16T01:35:59.001Z</time></trkpt><trkpt lat="-25.90741816148282" lon="113.54107339165509"><ele>17.4</ele><time>2026-04-16T01:36:00.001Z</time></trkpt><trkpt lat="-25.90738626986814" lon="113.54118954967377"><ele>17.0</ele><time>2026-04-16T01:36:01.001Z</time></trkpt><trkpt lat="-25.90735481835618" lon="113.541322035852"><ele>17.666666666666668</ele><time>2026-04-16T01:36:02.001Z</time></trkpt><trkpt lat="-25.907314399292975" lon="113.54142067791567"><ele>18.333333333333336</ele><time>2026-04-16T01:36:03.001Z</time></trkpt><trkpt lat="-25.907270478068373" lon="113.54150323085888"><ele>19.0</ele><time>2026-04-16T01:36:04.001Z</time></trkpt><trkpt lat="-25.907218261722676" lon="113.5415622707239"><ele>19.666666666666668</ele><time>2026-04-16T01:36:05.001Z</time></trkpt><trkpt lat="-25.907150419277695" lon="113.541618747683"><ele>20.333333333333332</ele><time>2026-04-16T01:36:06.001Z</time></trkpt><trkpt lat="-25.90706841188832" lon="113.54167242372034"><ele>21.0</ele><time>2026-04-16T01:36:07.001Z</time></trkpt><trkpt lat="-25.906971926894116" lon="113.54173253386193"><ele>21.0</ele><time>2026-04-16T01:36:08.001Z</time></trkpt><trkpt lat="-25.906872992839407" lon="113.541803947385"><ele>21.0</ele><time>2026-04-16T01:36:09.001Z</time></trkpt><trkpt lat="-25.906797541410235" lon="113.54187769467114"><ele>21.0</ele><time>2026-04-16T01:36:10Z</time></trkpt><trkpt lat="-25.906743992663273" lon="113.54195894543845"><ele>21.0</ele><time>2026-04-16T01:36:11Z</time></trkpt><trkpt lat="-25.906698296801935" lon="113.54203959932632"><ele>21.0</ele><time>2026-04-16T01:36:12Z</time></trkpt><trkpt lat="-25.90664034844987" lon="113.54209304491424"><ele>20.8</ele><time>2026-04-16T01:36:13Z</time></trkpt><trkpt lat="-25.906568575121195" lon="113.54211538019676"><ele>20.6</ele><time>2026-04-16T01:36:14Z</time></trkpt><trkpt lat="-25.906470599480144" lon="113.54212469435878"><ele>20.4</ele><time>2026-04-16T01:36:15Z</time></trkpt><trkpt lat="-25.90634810352493" lon="113.54211647282273"><ele>20.2</ele><time>2026-04-16T01:36:16Z</time></trkpt><trkpt lat="-25.906223440212848" lon="113.54210734619468"><ele>20.0</ele><time>2026-04-16T01:36:17Z</time></trkpt><trkpt lat="-25.906118925376582" lon="113.54211093352731"><ele>20.0</ele><time>2026-04-16T01:36:18Z</time></trkpt><trkpt lat="-25.906047433156086" lon="113.54213633313154"><ele>20.0</ele><time>2026-04-16T01:36:19Z</time></trkpt><trkpt lat="-25.905979054744638" lon="113.54218200719845"><ele>20.0</ele><time>2026-04-16T01:36:20Z</time></trkpt><trkpt lat="-25.905918307604978" lon="113.54225845017245"><ele>20.0</ele><time>2026-04-16T01:36:21Z</time></trkpt><trkpt lat="-25.9058442280091" lon="113.54236255815253"><ele>20.0</ele><time>2026-04-16T01:36:22Z</time></trkpt><trkpt lat="-25.90575391694212" lon="113.54247997157793"><ele>19.8</ele><time>2026-04-16T01:36:23Z</time></trkpt><trkpt lat="-25.905662567973312" lon="113.54259234407375"><ele>19.6</ele><time>2026-04-16T01:36:24Z</time></trkpt><trkpt lat="-25.90558117251984" lon="113.5426887925594"><ele>19.4</ele><time>2026-04-16T01:36:25Z</time></trkpt><trkpt lat="-25.905511760462687" lon="113.54276602833932"><ele>19.2</ele><time>2026-04-16T01:36:26Z</time></trkpt><trkpt lat="-25.90544818827494" lon="113.54283910636624"><ele>19.0</ele><time>2026-04-16T01:36:27Z</time></trkpt><trkpt lat="-25.905394244436884" lon="113.54289844649189"><ele>20.4</ele><time>2026-04-16T01:36:28Z</time></trkpt><trkpt lat="-25.90534638064203" lon="113.54294460889969"><ele>21.799999999999997</ele><time>2026-04-16T01:36:29Z</time></trkpt><trkpt lat="-25.905280735289164" lon="113.54300180578582"><ele>23.200000000000003</ele><time>2026-04-16T01:36:31Z</time></trkpt><trkpt lat="-25.90518845923896" lon="113.54307720478519"><ele>24.6</ele><time>2026-04-16T01:36:34Z</time></trkpt><trkpt lat="-25.905128665890654" lon="113.5431337840906"><ele>26.0</ele><time>2026-04-16T01:36:35Z</time></trkpt><trkpt lat="-25.905048429535668" lon="113.543228062956"><ele>26.0</ele><time>2026-04-16T01:36:37Z</time></trkpt><trkpt lat="-25.90504678088339" lon="113.5433512907424"><ele>26.0</ele><time>2026-04-16T01:36:39Z</time></trkpt><trkpt lat="-25.90499454706748" lon="113.54344612740363"><ele>26.0</ele><time>2026-04-16T01:36:41Z</time></trkpt><trkpt lat="-25.90486088631046" lon="113.54338380471927"><ele>26.0</ele><time>2026-04-16T01:36:43Z</time></trkpt><trkpt lat="-25.904760954034238" lon="113.54335432692909"><ele>26.0</ele><time>2026-04-16T01:36:45Z</time></trkpt><trkpt lat="-25.904651356651947" lon="113.5432635482267"><ele>26.0</ele><time>2026-04-16T01:36:47Z</time></trkpt><trkpt lat="-25.90459962367505" lon="113.54319064479996"><ele>26.0</ele><time>2026-04-16T01:36:48Z</time></trkpt><trkpt lat="-25.904528340986076" lon="113.54309836891557"><ele>26.0</ele><time>2026-04-16T01:36:49Z</time></trkpt><trkpt lat="-25.904456815177937" lon="113.54301011977692"><ele>26.0</ele><time>2026-04-16T01:36:50Z</time></trkpt><trkpt lat="-25.90439032381174" lon="113.54294001387446"><ele>24.400000000000002</ele><time>2026-04-16T01:36:51Z</time></trkpt><trkpt lat="-25.90433448383554" lon="113.5428582292825"><ele>22.8</ele><time>2026-04-16T01:36:52Z</time></trkpt><trkpt lat="-25.90426663404336" lon="113.5427735133073"><ele>21.200000000000003</ele><time>2026-04-16T01:36:53Z</time></trkpt><trkpt lat="-25.904202778046386" lon="113.54269279561436"><ele>19.6</ele><time>2026-04-16T01:36:54Z</time></trkpt><trkpt lat="-25.90412922803813" lon="113.54259269202149"><ele>18.0</ele><time>2026-04-16T01:36:55Z</time></trkpt><trkpt lat="-25.904053596588803" lon="113.54249618735277"><ele>17.6</ele><time>2026-04-16T01:36:56Z</time></trkpt><trkpt lat="-25.903988638996974" lon="113.54240171466336"><ele>17.200000000000003</ele><time>2026-04-16T01:36:57Z</time></trkpt><trkpt lat="-25.903918444075934" lon="113.54232787472371"><ele>16.8</ele><time>2026-04-16T01:36:58Z</time></trkpt><trkpt lat="-25.90385464920444" lon="113.54225347854937"><ele>16.400000000000002</ele><time>2026-04-16T01:36:59Z</time></trkpt><trkpt lat="-25.903786126389456" lon="113.54218449943082"><ele>16.0</ele><time>2026-04-16T01:37:00Z</time></trkpt><trkpt lat="-25.90372835480008" lon="113.54210825762446"><ele>15.333333333333332</ele><time>2026-04-16T01:37:01Z</time></trkpt><trkpt lat="-25.903677965182208" lon="113.542019117733"><ele>14.666666666666666</ele><time>2026-04-16T01:37:02Z</time></trkpt><trkpt lat="-25.90360618789444" lon="113.54195580163177"><ele>14.0</ele><time>2026-04-16T01:37:03Z</time></trkpt><trkpt lat="-25.90355098320385" lon="113.5418912569454"><ele>13.333333333333332</ele><time>2026-04-16T01:37:04Z</time></trkpt><trkpt lat="-25.903506696326737" lon="113.54182575487796"><ele>12.666666666666666</ele><time>2026-04-16T01:37:05Z</time></trkpt><trkpt lat="-25.90345351422471" lon="113.54177155826657"><ele>12.0</ele><time>2026-04-16T01:37:06Z</time></trkpt><trkpt lat="-25.90340898389159" lon="113.54170881635464"><ele>11.0</ele><time>2026-04-16T01:37:07Z</time></trkpt><trkpt lat="-25.90337807637397" lon="113.54164661701753"><ele>10.0</ele><time>2026-04-16T01:37:08Z</time></trkpt><trkpt lat="-25.903303679780354" lon="113.54154017038427"><ele>9.0</ele><time>2026-04-16T01:37:10Z</time></trkpt><trkpt lat="-25.903238911178452" lon="113.54144306115725"><ele>8.0</ele><time>2026-04-16T01:37:12Z</time></trkpt><trkpt lat="-25.903184339125104" lon="113.54136048194252"><ele>7.0</ele><time>2026-04-16T01:37:14Z</time></trkpt><trkpt lat="-25.90312749885702" lon="113.54129550753318"><ele>7.000000000000001</ele><time>2026-04-16T01:37:16Z</time></trkpt><trkpt lat="-25.90309605670731" lon="113.5412347596192"><ele>7.0</ele><time>2026-04-16T01:37:38Z</time></trkpt><trkpt lat="-25.903159437712652" lon="113.54132321623538"><ele>7.0</ele><time>2026-04-16T01:37:44Z</time></trkpt><trkpt lat="-25.90318483528154" lon="113.54143897792234"><ele>7.0</ele><time>2026-04-16T01:37:46Z</time></trkpt><trkpt lat="-25.90322598391605" lon="113.54150747229144"><ele>7.000000000000001</ele><time>2026-04-16T01:37:47Z</time></trkpt><trkpt lat="-25.903272471722357" lon="113.54158449767819"><ele>7.0</ele><time>2026-04-16T01:37:48Z</time></trkpt><trkpt lat="-25.903333603147637" lon="113.54166507675056"><ele>8.25</ele><time>2026-04-16T01:37:49Z</time></trkpt><trkpt lat="-25.90341526288943" lon="113.54176882753939"><ele>9.5</ele><time>2026-04-16T01:37:50Z</time></trkpt><trkpt lat="-25.903509053859093" lon="113.54188411998074"><ele>10.75</ele><time>2026-04-16T01:37:51.001Z</time></trkpt><trkpt lat="-25.903614017520983" lon="113.54201426715714"><ele>12.0</ele><time>2026-04-16T01:37:52.001Z</time></trkpt><trkpt lat="-25.903710258335447" lon="113.54214109146481"><ele>13.0</ele><time>2026-04-16T01:37:53.001Z</time></trkpt><trkpt lat="-25.903798786422538" lon="113.5422633280255"><ele>14.0</ele><time>2026-04-16T01:37:54.001Z</time></trkpt><trkpt lat="-25.903897619944708" lon="113.54235732425464"><ele>15.0</ele><time>2026-04-16T01:37:55.001Z</time></trkpt><trkpt lat="-25.904001306488023" lon="113.54247071834398"><ele>16.0</ele><time>2026-04-16T01:37:56.001Z</time></trkpt><trkpt lat="-25.904094788482766" lon="113.54262168320226"><ele>16.0</ele><time>2026-04-16T01:37:57.001Z</time></trkpt><trkpt lat="-25.9042007035473" lon="113.54275230397823"><ele>16.0</ele><time>2026-04-16T01:37:58.001Z</time></trkpt><trkpt lat="-25.904307364098543" lon="113.54290190872612"><ele>16.0</ele><time>2026-04-16T01:37:59.001Z</time></trkpt><trkpt lat="-25.904437271892714" lon="113.54304133817504"><ele>18.5</ele><time>2026-04-16T01:38:00.001Z</time></trkpt><trkpt lat="-25.904533318048607" lon="113.54318530032857"><ele>21.0</ele><time>2026-04-16T01:38:01.001Z</time></trkpt><trkpt lat="-25.904613941711236" lon="113.5432946781508"><ele>23.5</ele><time>2026-04-16T01:38:02.001Z</time></trkpt><trkpt lat="-25.904696405273526" lon="113.54335620120563"><ele>26.0</ele><time>2026-04-16T01:38:03.001Z</time></trkpt><trkpt lat="-25.904762362498168" lon="113.5434048679062"><ele>25.999999999999996</ele><time>2026-04-16T01:38:04.001Z</time></trkpt><trkpt lat="-25.904835305845634" lon="113.54342139687124"><ele>26.0</ele><time>2026-04-16T01:38:05.001Z</time></trkpt><trkpt lat="-25.90491947026904" lon="113.54342493368374"><ele>26.0</ele><time>2026-04-16T01:38:06.001Z</time></trkpt><trkpt lat="-25.90500291204816" lon="113.5434067058066"><ele>26.0</ele><time>2026-04-16T01:38:07.001Z</time></trkpt><trkpt lat="-25.9050632743754" lon="113.54337617908796"><ele>25.999999999999996</ele><time>2026-04-16T01:38:08.001Z</time></trkpt><trkpt lat="-25.9050929406475" lon="113.54326011696214"><ele>26.0</ele><time>2026-04-16T01:38:10.001Z</time></trkpt><trkpt lat="-25.905075653681834" lon="113.54318034936664"><ele>26.0</ele><time>2026-04-16T01:38:12.001Z</time></trkpt><trkpt lat="-25.905158116580147" lon="113.54315855700622"><ele>26.0</ele><time>2026-04-16T01:38:15.001Z</time></trkpt><trkpt lat="-25.905240857868428" lon="113.54315598370432"><ele>26.0</ele><time>2026-04-16T01:38:18Z</time></trkpt><trkpt lat="-25.90520860128522" lon="113.54331479883369"><ele>26.0</ele><time>2026-04-16T01:38:20Z</time></trkpt><trkpt lat="-25.90520860128674" lon="113.5434278203076"><ele>26.0</ele><time>2026-04-16T01:38:21Z</time></trkpt><trkpt lat="-25.905208601287804" lon="113.54355620731708"><ele>26.0</ele><time>2026-04-16T01:38:22Z</time></trkpt><trkpt lat="-25.90520860128897" lon="113.54369845815125"><ele>26.0</ele><time>2026-04-16T01:38:23Z</time></trkpt><trkpt lat="-25.9052089660262" lon="113.54385614537475"><ele>26.0</ele><time>2026-04-16T01:38:24Z</time></trkpt><trkpt lat="-25.905209369710878" lon="113.54402760974578"><ele>26.0</ele><time>2026-04-16T01:38:25Z</time></trkpt><trkpt lat="-25.905209773986865" lon="113.54419932552562"><ele>26.75</ele><time>2026-04-16T01:38:26Z</time></trkpt><trkpt lat="-25.905210716669014" lon="113.54435521256514"><ele>27.5</ele><time>2026-04-16T01:38:27Z</time></trkpt><trkpt lat="-25.90521100129496" lon="113.5445020256819"><ele>28.25</ele><time>2026-04-16T01:38:28Z</time></trkpt><trkpt lat="-25.905211001294926" lon="113.54466102980875"><ele>29.0</ele><time>2026-04-16T01:38:29Z</time></trkpt><trkpt lat="-25.905212351024016" lon="113.54481690847463"><ele>29.0</ele><time>2026-04-16T01:38:30Z</time></trkpt><trkpt lat="-25.905212926731753" lon="113.54498098523008"><ele>29.0</ele><time>2026-04-16T01:38:31Z</time></trkpt><trkpt lat="-25.90521355619534" lon="113.54516038236034"><ele>29.0</ele><time>2026-04-16T01:38:32Z</time></trkpt><trkpt lat="-25.90521418672446" lon="113.54534008328451"><ele>28.333333333333332</ele><time>2026-04-16T01:38:33Z</time></trkpt><trkpt lat="-25.905214601295206" lon="113.5455229406869"><ele>27.666666666666664</ele><time>2026-04-16T01:38:34Z</time></trkpt><trkpt lat="-25.90521496006675" lon="113.54572142546297"><ele>27.0</ele><time>2026-04-16T01:38:35Z</time></trkpt><trkpt lat="-25.905215563480972" lon="113.5459069249876"><ele>27.0</ele><time>2026-04-16T01:38:36Z</time></trkpt><trkpt lat="-25.905215801295444" lon="113.54607279713181"><ele>27.0</ele><time>2026-04-16T01:38:37Z</time></trkpt><trkpt lat="-25.905216619493455" lon="113.54623068569161"><ele>27.0</ele><time>2026-04-16T01:38:38Z</time></trkpt><trkpt lat="-25.905217578088823" lon="113.54638137698404"><ele>27.0</ele><time>2026-04-16T01:38:39Z</time></trkpt><trkpt lat="-25.905218487406543" lon="113.54651693953387"><ele>27.200000000000003</ele><time>2026-04-16T01:38:39.999Z</time></trkpt><trkpt lat="-25.905219342359704" lon="113.54661732525346"><ele>27.400000000000002</ele><time>2026-04-16T01:38:40.999Z</time></trkpt><trkpt lat="-25.905223695730555" lon="113.54672594895897"><ele>27.599999999999998</ele><time>2026-04-16T01:38:42.999Z</time></trkpt><trkpt lat="-25.90520075622877" lon="113.54681102092312"><ele>27.799999999999997</ele><time>2026-04-16T01:38:44.999Z</time></trkpt><trkpt lat="-25.90522630718763" lon="113.54689766679178"><ele>28.0</ele><time>2026-04-16T01:38:46.999Z</time></trkpt><trkpt lat="-25.905219501295417" lon="113.54702167120664"><ele>28.5</ele><time>2026-04-16T01:38:48.999Z</time></trkpt><trkpt lat="-25.905223582255115" lon="113.54710950430754"><ele>29.0</ele><time>2026-04-16T01:38:49.999Z</time></trkpt><trkpt lat="-25.905422794648" lon="113.54721452000429"><ele>29.5</ele><time>2026-04-16T01:38:50.999Z</time></trkpt><trkpt lat="-25.905453336097438" lon="113.54735763739355"><ele>30.0</ele><time>2026-04-16T01:38:51.999Z</time></trkpt><trkpt lat="-25.905491982210034" lon="113.54753578010475"><ele>30.0</ele><time>2026-04-16T01:38:52.999Z</time></trkpt><trkpt lat="-25.905543976504884" lon="113.5477324306437"><ele>30.0</ele><time>2026-04-16T01:38:53.999Z</time></trkpt><trkpt lat="-25.905600251120887" lon="113.547933023194"><ele>30.0</ele><time>2026-04-16T01:38:54.999Z</time></trkpt><trkpt lat="-25.90565866507393" lon="113.54815233070974"><ele>30.333333333333336</ele><time>2026-04-16T01:38:55.999Z</time></trkpt><trkpt lat="-25.905716434018068" lon="113.54837557005273"><ele>30.666666666666668</ele><time>2026-04-16T01:38:56.999Z</time></trkpt><trkpt lat="-25.90577909646178" lon="113.54859961275625"><ele>31.0</ele><time>2026-04-16T01:38:57.999Z</time></trkpt><trkpt lat="-25.90584332011786" lon="113.54882398644617"><ele>31.0</ele><time>2026-04-16T01:38:58.999Z</time></trkpt><trkpt lat="-25.90590648412258" lon="113.54904225257933"><ele>31.0</ele><time>2026-04-16T01:38:59.999Z</time></trkpt><trkpt lat="-25.905971907688055" lon="113.54926003738726"><ele>31.0</ele><time>2026-04-16T01:39:00.999Z</time></trkpt><trkpt lat="-25.906037973566775" lon="113.54947374759135"><ele>31.666666666666668</ele><time>2026-04-16T01:39:01.999Z</time></trkpt><trkpt lat="-25.9061053437629" lon="113.54968627351023"><ele>32.333333333333336</ele><time>2026-04-16T01:39:02.999Z</time></trkpt><trkpt lat="-25.90616914853372" lon="113.54989656253557"><ele>33.0</ele><time>2026-04-16T01:39:03.999Z</time></trkpt><trkpt lat="-25.906229558562966" lon="113.55009407013972"><ele>33.0</ele><time>2026-04-16T01:39:04.999Z</time></trkpt><trkpt lat="-25.90628761217458" lon="113.55028339836561"><ele>33.0</ele><time>2026-04-16T01:39:05.999Z</time></trkpt><trkpt lat="-25.90634049342303" lon="113.55045066387477"><ele>33.0</ele><time>2026-04-16T01:39:06.999Z</time></trkpt><trkpt lat="-25.9063835469918" lon="113.55059469814843"><ele>33.0</ele><time>2026-04-16T01:39:07.999Z</time></trkpt><trkpt lat="-25.90642660385351" lon="113.55073098733753"><ele>33.0</ele><time>2026-04-16T01:39:08.999Z</time></trkpt><trkpt lat="-25.906473015358205" lon="113.55086864903672"><ele>33.0</ele><time>2026-04-16T01:39:09.999Z</time></trkpt><trkpt lat="-25.90652016786603" lon="113.55100227880898"><ele>33.0</ele><time>2026-04-16T01:39:10.999Z</time></trkpt><trkpt lat="-25.90656515919869" lon="113.55113171906477"><ele>33.0</ele><time>2026-04-16T01:39:11.999Z</time></trkpt><trkpt lat="-25.9066079646214" lon="113.5512513367525"><ele>33.0</ele><time>2026-04-16T01:39:12.999Z</time></trkpt><trkpt lat="-25.90664903678873" lon="113.55136750658974"><ele>33.0</ele><time>2026-04-16T01:39:13.999Z</time></trkpt><trkpt lat="-25.906682741263054" lon="113.55147118644089"><ele>33.0</ele><time>2026-04-16T01:39:14.999Z</time></trkpt><trkpt lat="-25.906707204238124" lon="113.55155630848365"><ele>33.0</ele><time>2026-04-16T01:39:15.999Z</time></trkpt><trkpt lat="-25.906723024644137" lon="113.55168795302684"><ele>33.0</ele><time>2026-04-16T01:39:17.999Z</time></trkpt><trkpt lat="-25.906699056545513" lon="113.55181388706642"><ele>33.0</ele><time>2026-04-16T01:39:19.999Z</time></trkpt><trkpt lat="-25.906629565847897" lon="113.55191944970339"><ele>33.0</ele><time>2026-04-16T01:39:21.999Z</time></trkpt><trkpt lat="-25.906550311052932" lon="113.55197798250781"><ele>33.0</ele><time>2026-04-16T01:39:23.999Z</time></trkpt><trkpt lat="-25.906490492907988" lon="113.55201910379539"><ele>33.0</ele><time>2026-04-16T01:39:25.999Z</time></trkpt><trkpt lat="-25.906444737518953" lon="113.55207352640855"><ele>33.0</ele><time>2026-04-16T01:39:27.999Z</time></trkpt><trkpt lat="-25.906338033514782" lon="113.55218215559788"><ele>33.0</ele><time>2026-04-16T01:39:29.999Z</time></trkpt><trkpt lat="-25.906252549113393" lon="113.55225621498579"><ele>33.0</ele><time>2026-04-16T01:39:30.999Z</time></trkpt><trkpt lat="-25.906151782954375" lon="113.55234275449014"><ele>33.0</ele><time>2026-04-16T01:39:31.999Z</time></trkpt><trkpt lat="-25.90603257982986" lon="113.55244514539004"><ele>33.333333333333336</ele><time>2026-04-16T01:39:32.999Z</time></trkpt><trkpt lat="-25.905888542446235" lon="113.55257143568961"><ele>33.66666666666667</ele><time>2026-04-16T01:39:33.999Z</time></trkpt><trkpt lat="-25.90572451448933" lon="113.552718771806"><ele>34.0</ele><time>2026-04-16T01:39:34.999Z</time></trkpt><trkpt lat="-25.905554846583964" lon="113.55286622987123"><ele>33.5</ele><time>2026-04-16T01:39:35.999Z</time></trkpt><trkpt lat="-25.90536175965813" lon="113.5530298389294"><ele>33.0</ele><time>2026-04-16T01:39:36.999Z</time></trkpt><trkpt lat="-25.905167605011254" lon="113.553196158314"><ele>33.666666666666664</ele><time>2026-04-16T01:39:37.999Z</time></trkpt><trkpt lat="-25.90499002675799" lon="113.55334582054668"><ele>34.33333333333333</ele><time>2026-04-16T01:39:38.999Z</time></trkpt><trkpt lat="-25.904824300588047" lon="113.55348279538849"><ele>35.0</ele><time>2026-04-16T01:39:39.999Z</time></trkpt><trkpt lat="-25.904650563730673" lon="113.55362048773917"><ele>34.666666666666664</ele><time>2026-04-16T01:39:40.999Z</time></trkpt><trkpt lat="-25.904474795672886" lon="113.55375107888922"><ele>34.333333333333336</ele><time>2026-04-16T01:39:41.999Z</time></trkpt><trkpt lat="-25.904291791892053" lon="113.55388427815694"><ele>34.0</ele><time>2026-04-16T01:39:42.999Z</time></trkpt><trkpt lat="-25.904115974323414" lon="113.55401334173527"><ele>34.0</ele><time>2026-04-16T01:39:43.999Z</time></trkpt><trkpt lat="-25.903949196050448" lon="113.55413049601825"><ele>34.0</ele><time>2026-04-16T01:39:44.999Z</time></trkpt><trkpt lat="-25.903778811777055" lon="113.55424256461156"><ele>34.0</ele><time>2026-04-16T01:39:45.999Z</time></trkpt><trkpt lat="-25.903610709308644" lon="113.55434887770113"><ele>34.0</ele><time>2026-04-16T01:39:46.999Z</time></trkpt><trkpt lat="-25.903455212064724" lon="113.55444792871094"><ele>34.0</ele><time>2026-04-16T01:39:47.999Z</time></trkpt><trkpt lat="-25.903296925857425" lon="113.55456474751111"><ele>34.0</ele><time>2026-04-16T01:39:48.999Z</time></trkpt><trkpt lat="-25.90313790537563" lon="113.55468951556628"><ele>34.0</ele><time>2026-04-16T01:39:49.999Z</time></trkpt><trkpt lat="-25.902968686715273" lon="113.55482243778211"><ele>34.0</ele><time>2026-04-16T01:39:50.999Z</time></trkpt><trkpt lat="-25.902803587124314" lon="113.55494873993669"><ele>34.0</ele><time>2026-04-16T01:39:51.999Z</time></trkpt><trkpt lat="-25.902622201519808" lon="113.55507574602532"><ele>34.0</ele><time>2026-04-16T01:39:52.999Z</time></trkpt><trkpt lat="-25.90244853716639" lon="113.55519859195232"><ele>34.0</ele><time>2026-04-16T01:39:53.999Z</time></trkpt><trkpt lat="-25.902281216806536" lon="113.5553221480168"><ele>34.0</ele><time>2026-04-16T01:39:54.999Z</time></trkpt><trkpt lat="-25.902119182866393" lon="113.55543538077902"><ele>33.333333333333336</ele><time>2026-04-16T01:39:55.999Z</time></trkpt><trkpt lat="-25.901973030188547" lon="113.5555402956297"><ele>32.666666666666664</ele><time>2026-04-16T01:39:56.999Z</time></trkpt><trkpt lat="-25.901834287021348" lon="113.55564702840006"><ele>32.0</ele><time>2026-04-16T01:39:57.999Z</time></trkpt><trkpt lat="-25.901701395069495" lon="113.55576819800484"><ele>32.0</ele><time>2026-04-16T01:39:58.999Z</time></trkpt><trkpt lat="-25.901565165817022" lon="113.55590674452881"><ele>32.0</ele><time>2026-04-16T01:39:59.999Z</time></trkpt><trkpt lat="-25.901444600171757" lon="113.55605683164192"><ele>32.0</ele><time>2026-04-16T01:40:00.999Z</time></trkpt><trkpt lat="-25.901329675234248" lon="113.55622300976633"><ele>32.33333333333333</ele><time>2026-04-16T01:40:01.999Z</time></trkpt><trkpt lat="-25.90121126173137" lon="113.55641070811009"><ele>32.666666666666664</ele><time>2026-04-16T01:40:02.999Z</time></trkpt><trkpt lat="-25.90108944240863" lon="113.55662098585873"><ele>33.0</ele><time>2026-04-16T01:40:03.999Z</time></trkpt><trkpt lat="-25.90096270438242" lon="113.55684947833302"><ele>28.5</ele><time>2026-04-16T01:40:04.999Z</time></trkpt><trkpt lat="-25.90082740064746" lon="113.55708559863707"><ele>24.0</ele><time>2026-04-16T01:40:05.999Z</time></trkpt><trkpt lat="-25.900689280161142" lon="113.55733166247306"><ele>24.0</ele><time>2026-04-16T01:40:06.999Z</time></trkpt><trkpt lat="-25.900563754428543" lon="113.55756417060356"><ele>24.0</ele><time>2026-04-16T01:40:07.999Z</time></trkpt><trkpt lat="-25.900445974387264" lon="113.55778369721092"><ele>23.5</ele><time>2026-04-16T01:40:08.999Z</time></trkpt><trkpt lat="-25.900327712472027" lon="113.55799443925416"><ele>23.0</ele><time>2026-04-16T01:40:09.999Z</time></trkpt><trkpt lat="-25.900207383053036" lon="113.55820722394769"><ele>22.0</ele><time>2026-04-16T01:40:10.999Z</time></trkpt><trkpt lat="-25.900080604908773" lon="113.55842179540142"><ele>21.0</ele><time>2026-04-16T01:40:11.999Z</time></trkpt><trkpt lat="-25.899950946305417" lon="113.55863653784378"><ele>19.5</ele><time>2026-04-16T01:40:12.999Z</time></trkpt><trkpt lat="-25.8998198150184" lon="113.55885454095277"><ele>18.0</ele><time>2026-04-16T01:40:13.999Z</time></trkpt><trkpt lat="-25.899683241214625" lon="113.55907641674665"><ele>18.0</ele><time>2026-04-16T01:40:14.999Z</time></trkpt><trkpt lat="-25.899546248928317" lon="113.55929954975281"><ele>18.0</ele><time>2026-04-16T01:40:15.999Z</time></trkpt><trkpt lat="-25.89941241506932" lon="113.55952533162232"><ele>17.0</ele><time>2026-04-16T01:40:16.999Z</time></trkpt><trkpt lat="-25.899287671480316" lon="113.55974134858373"><ele>16.0</ele><time>2026-04-16T01:40:17.999Z</time></trkpt><trkpt lat="-25.899159031919545" lon="113.55996437905745"><ele>16.5</ele><time>2026-04-16T01:40:18.999Z</time></trkpt><trkpt lat="-25.899034306923916" lon="113.56017945944762"><ele>17.0</ele><time>2026-04-16T01:40:19.999Z</time></trkpt><trkpt lat="-25.898905284923334" lon="113.5604012360674"><ele>17.0</ele><time>2026-04-16T01:40:20.999Z</time></trkpt><trkpt lat="-25.898771293653024" lon="113.56062756012328"><ele>17.0</ele><time>2026-04-16T01:40:21.999Z</time></trkpt><trkpt lat="-25.89863287197749" lon="113.56086053762463"><ele>17.0</ele><time>2026-04-16T01:40:22.999Z</time></trkpt><trkpt lat="-25.8984975000623" lon="113.5610851085439"><ele>17.0</ele><time>2026-04-16T01:40:23.999Z</time></trkpt><trkpt lat="-25.898373400869687" lon="113.56129331147788"><ele>19.333333333333336</ele><time>2026-04-16T01:40:24.999Z</time></trkpt><trkpt lat="-25.898243613083448" lon="113.56150659541662"><ele>21.666666666666668</ele><time>2026-04-16T01:40:25.999Z</time></trkpt><trkpt lat="-25.898127818259177" lon="113.56169488733893"><ele>24.0</ele><time>2026-04-16T01:40:26.999Z</time></trkpt><trkpt lat="-25.898010011678515" lon="113.56188868971849"><ele>23.666666666666668</ele><time>2026-04-16T01:40:27.999Z</time></trkpt><trkpt lat="-25.897898413750124" lon="113.56206762766355"><ele>23.333333333333336</ele><time>2026-04-16T01:40:28.999Z</time></trkpt><trkpt lat="-25.897792298235025" lon="113.56223319489834"><ele>23.0</ele><time>2026-04-16T01:40:29.999Z</time></trkpt><trkpt lat="-25.897691631960214" lon="113.56238430420348"><ele>23.0</ele><time>2026-04-16T01:40:30.999Z</time></trkpt><trkpt lat="-25.897599951295177" lon="113.56250592645222"><ele>23.0</ele><time>2026-04-16T01:40:31.999Z</time></trkpt><trkpt lat="-25.89748529035278" lon="113.56262309329497"><ele>23.0</ele><time>2026-04-16T01:40:33Z</time></trkpt><trkpt lat="-25.897349970157585" lon="113.56275393306825"><ele>22.666666666666668</ele><time>2026-04-16T01:40:34Z</time></trkpt><trkpt lat="-25.897198733608032" lon="113.56289789553666"><ele>22.333333333333332</ele><time>2026-04-16T01:40:35Z</time></trkpt><trkpt lat="-25.897048232513633" lon="113.56304783152521"><ele>22.0</ele><time>2026-04-16T01:40:36Z</time></trkpt><trkpt lat="-25.896897731621443" lon="113.5632020209889"><ele>22.0</ele><time>2026-04-16T01:40:37Z</time></trkpt><trkpt lat="-25.896744867250842" lon="113.56335280258963"><ele>22.0</ele><time>2026-04-16T01:40:38Z</time></trkpt><trkpt lat="-25.896604964867546" lon="113.56349329807027"><ele>22.0</ele><time>2026-04-16T01:40:39Z</time></trkpt><trkpt lat="-25.896471839302254" lon="113.56362704396008"><ele>21.0</ele><time>2026-04-16T01:40:40Z</time></trkpt><trkpt lat="-25.896358443264496" lon="113.56374405486828"><ele>20.0</ele><time>2026-04-16T01:40:41Z</time></trkpt><trkpt lat="-25.89624869587024" lon="113.56385758648187"><ele>19.0</ele><time>2026-04-16T01:40:42Z</time></trkpt><trkpt lat="-25.89615677444712" lon="113.5639536859142"><ele>18.0</ele><time>2026-04-16T01:40:43Z</time></trkpt><trkpt lat="-25.896077960582467" lon="113.5640366090857"><ele>18.0</ele><time>2026-04-16T01:40:44Z</time></trkpt><trkpt lat="-25.89601073918075" lon="113.56410452224283"><ele>18.0</ele><time>2026-04-16T01:40:45Z</time></trkpt><trkpt lat="-25.895962094505176" lon="113.5641558251008"><ele>18.0</ele><time>2026-04-16T01:40:46Z</time></trkpt><trkpt lat="-25.895921642114665" lon="113.56421307577301"><ele>18.0</ele><time>2026-04-16T01:40:48Z</time></trkpt><trkpt lat="-25.89598606347151" lon="113.56425076462837"><ele>18.0</ele><time>2026-04-16T01:40:51Z</time></trkpt><trkpt lat="-25.89604968640053" lon="113.5642720256643"><ele>18.0</ele><time>2026-04-16T01:40:59Z</time></trkpt><trkpt lat="-25.89614609695982" lon="113.56432783413966"><ele>18.0</ele><time>2026-04-16T01:41:01Z</time></trkpt><trkpt lat="-25.896191812384732" lon="113.56437877297849"><ele>18.0</ele><time>2026-04-16T01:41:02Z</time></trkpt><trkpt lat="-25.89624040458207" lon="113.5644416917551"><ele>18.0</ele><time>2026-04-16T01:41:03Z</time></trkpt><trkpt lat="-25.896296609030646" lon="113.56452117323776"><ele>18.0</ele><time>2026-04-16T01:41:04Z</time></trkpt><trkpt lat="-25.896370442496004" lon="113.56462212483153"><ele>18.0</ele><time>2026-04-16T01:41:05Z</time></trkpt><trkpt lat="-25.89644861557718" lon="113.56472115776367"><ele>17.75</ele><time>2026-04-16T01:41:06Z</time></trkpt><trkpt lat="-25.89651742212613" lon="113.56481345578865"><ele>17.5</ele><time>2026-04-16T01:41:07Z</time></trkpt><trkpt lat="-25.896577442734696" lon="113.56491624184888"><ele>17.25</ele><time>2026-04-16T01:41:08Z</time></trkpt><trkpt lat="-25.896635386779813" lon="113.5650397274767"><ele>17.0</ele><time>2026-04-16T01:41:09Z</time></trkpt><trkpt lat="-25.896689735190357" lon="113.56515690006069"><ele>17.0</ele><time>2026-04-16T01:41:10Z</time></trkpt><trkpt lat="-25.89674396035934" lon="113.56526864836984"><ele>17.0</ele><time>2026-04-16T01:41:11Z</time></trkpt><trkpt lat="-25.89679836072715" lon="113.56537293021628"><ele>17.0</ele><time>2026-04-16T01:41:12Z</time></trkpt><trkpt lat="-25.896857258321877" lon="113.56548627985735"><ele>17.0</ele><time>2026-04-16T01:41:13Z</time></trkpt><trkpt lat="-25.896917513662313" lon="113.56560292966479"><ele>15.4</ele><time>2026-04-16T01:41:14Z</time></trkpt><trkpt lat="-25.896975171809743" lon="113.5657144642818"><ele>13.799999999999999</ele><time>2026-04-16T01:41:15Z</time></trkpt><trkpt lat="-25.89703255055108" lon="113.56581649982584"><ele>12.2</ele><time>2026-04-16T01:41:16Z</time></trkpt><trkpt lat="-25.897086316561523" lon="113.5659134728682"><ele>10.6</ele><time>2026-04-16T01:41:17Z</time></trkpt><trkpt lat="-25.89713877291507" lon="113.56601519874124"><ele>9.0</ele><time>2026-04-16T01:41:18Z</time></trkpt><trkpt lat="-25.89719349761515" lon="113.56612690250849"><ele>8.4</ele><time>2026-04-16T01:41:19Z</time></trkpt><trkpt lat="-25.897248029641197" lon="113.56623919226273"><ele>7.800000000000001</ele><time>2026-04-16T01:41:20Z</time></trkpt><trkpt lat="-25.897297923929642" lon="113.56634406043642"><ele>7.199999999999999</ele><time>2026-04-16T01:41:21Z</time></trkpt><trkpt lat="-25.897345813546607" lon="113.56644112830804"><ele>6.6</ele><time>2026-04-16T01:41:22Z</time></trkpt><trkpt lat="-25.897393684188525" lon="113.56653727821552"><ele>6.0</ele><time>2026-04-16T01:41:23Z</time></trkpt><trkpt lat="-25.897438108648622" lon="113.56662725753331"><ele>6.0</ele><time>2026-04-16T01:41:24Z</time></trkpt><trkpt lat="-25.8974730106223" lon="113.56670762820775"><ele>6.0</ele><time>2026-04-16T01:41:25Z</time></trkpt><trkpt lat="-25.897498401052385" lon="113.56677251029663"><ele>6.0</ele><time>2026-04-16T01:41:26Z</time></trkpt><trkpt lat="-25.8975362233536" lon="113.56686358407579"><ele>6.0</ele><time>2026-04-16T01:41:28Z</time></trkpt><trkpt lat="-25.89760245765246" lon="113.5669571279497"><ele>6.0</ele><time>2026-04-16T01:41:30Z</time></trkpt><trkpt lat="-25.89768733564215" lon="113.56703592212456"><ele>5.833333333333333</ele><time>2026-04-16T01:41:32Z</time></trkpt><trkpt lat="-25.89775809532947" lon="113.56707992952721"><ele>5.666666666666667</ele><time>2026-04-16T01:41:34Z</time></trkpt><trkpt lat="-25.897799706361987" lon="113.56713432048481"><ele>5.5</ele><time>2026-04-16T01:41:37Z</time></trkpt><trkpt lat="-25.897813735548876" lon="113.56723182287695"><ele>5.333333333333334</ele><time>2026-04-16T01:41:52.001Z</time></trkpt><trkpt lat="-25.897828429602114" lon="113.56734704702231"><ele>5.166666666666667</ele><time>2026-04-16T01:41:54.001Z</time></trkpt><trkpt lat="-25.897848429666855" lon="113.5674533805951"><ele>5.0</ele><time>2026-04-16T01:41:56.001Z</time></trkpt><trkpt lat="-25.897866984302713" lon="113.56755093340061"><ele>5.0</ele><time>2026-04-16T01:41:58.001Z</time></trkpt><trkpt lat="-25.897880791752318" lon="113.56763471928494"><ele>5.0</ele><time>2026-04-16T01:42:01.001Z</time></trkpt><trkpt lat="-25.897948139902294" lon="113.56766891050228"><ele>5.0</ele><time>2026-04-16T01:42:06.001Z</time></trkpt><trkpt lat="-25.89801338297139" lon="113.56765688420883"><ele>5.0</ele><time>2026-04-16T01:42:43Z</time></trkpt><trkpt lat="-25.898032857858023" lon="113.56772516753507"><ele>5.0</ele><time>2026-04-16T01:42:45Z</time></trkpt><trkpt lat="-25.898053367030634" lon="113.56784164468948"><ele>5.0</ele><time>2026-04-16T01:42:47Z</time></trkpt><trkpt lat="-25.89809025647118" lon="113.56796321697986"><ele>5.5</ele><time>2026-04-16T01:42:49Z</time></trkpt><trkpt lat="-25.898121089132005" lon="113.5680329222022"><ele>6.0</ele><time>2026-04-16T01:42:51Z</time></trkpt><trkpt lat="-25.898177673841776" lon="113.56809484164296"><ele>6.5</ele><time>2026-04-16T01:42:53Z</time></trkpt><trkpt lat="-25.898245929067336" lon="113.56815117512083"><ele>7.0</ele><time>2026-04-16T01:42:55Z</time></trkpt><trkpt lat="-25.898252753171068" lon="113.56823926973033"><ele>7.499999999999999</ele><time>2026-04-16T01:42:58Z</time></trkpt><trkpt lat="-25.898278541687773" lon="113.56832316440224"><ele>8.0</ele><time>2026-04-16T01:43:00Z</time></trkpt><trkpt lat="-25.898328036572263" lon="113.56841717744508"><ele>8.0</ele><time>2026-04-16T01:43:02Z</time></trkpt><trkpt lat="-25.898366292883015" lon="113.56848320083975"><ele>8.0</ele><time>2026-04-16T01:43:03Z</time></trkpt><trkpt lat="-25.898416807081755" lon="113.56857495949666"><ele>8.0</ele><time>2026-04-16T01:43:04Z</time></trkpt><trkpt lat="-25.89846711490446" lon="113.56866648490961"><ele>8.0</ele><time>2026-04-16T01:43:05Z</time></trkpt><trkpt lat="-25.898516771189033" lon="113.56875985081855"><ele>8.0</ele><time>2026-04-16T01:43:06Z</time></trkpt><trkpt lat="-25.898559916235723" lon="113.56884921881347"><ele>9.8</ele><time>2026-04-16T01:43:07Z</time></trkpt><trkpt lat="-25.898606252032454" lon="113.56894595788232"><ele>11.600000000000001</ele><time>2026-04-16T01:43:08Z</time></trkpt><trkpt lat="-25.89865898027694" lon="113.56906427596563"><ele>13.399999999999999</ele><time>2026-04-16T01:43:09Z</time></trkpt><trkpt lat="-25.898710783016515" lon="113.56916690752304"><ele>15.2</ele><time>2026-04-16T01:43:10Z</time></trkpt><trkpt lat="-25.89876683840938" lon="113.56927608208488"><ele>17.0</ele><time>2026-04-16T01:43:11Z</time></trkpt><trkpt lat="-25.898824145523324" lon="113.56938262101609"><ele>17.0</ele><time>2026-04-16T01:43:12Z</time></trkpt><trkpt lat="-25.89888026572229" lon="113.56949648905831"><ele>17.0</ele><time>2026-04-16T01:43:13Z</time></trkpt><trkpt lat="-25.898932057392333" lon="113.56960054308279"><ele>17.0</ele><time>2026-04-16T01:43:14Z</time></trkpt><trkpt lat="-25.898989811095586" lon="113.56971284656778"><ele>17.0</ele><time>2026-04-16T01:43:15Z</time></trkpt><trkpt lat="-25.89904163063262" lon="113.56981511735302"><ele>17.0</ele><time>2026-04-16T01:43:16Z</time></trkpt><trkpt lat="-25.89909340982892" lon="113.56991479228037"><ele>18.0</ele><time>2026-04-16T01:43:17Z</time></trkpt><trkpt lat="-25.899150374852123" lon="113.57001528748138"><ele>19.0</ele><time>2026-04-16T01:43:18Z</time></trkpt><trkpt lat="-25.899204371368366" lon="113.57012032393793"><ele>20.0</ele><time>2026-04-16T01:43:19Z</time></trkpt><trkpt lat="-25.89925621929563" lon="113.57022428325594"><ele>21.0</ele><time>2026-04-16T01:43:20Z</time></trkpt><trkpt lat="-25.89930647781212" lon="113.57032994791388"><ele>22.0</ele><time>2026-04-16T01:43:21Z</time></trkpt><trkpt lat="-25.899358952593943" lon="113.57043791998554"><ele>23.166666666666664</ele><time>2026-04-16T01:43:22Z</time></trkpt><trkpt lat="-25.899405115676085" lon="113.5705231932371"><ele>24.333333333333332</ele><time>2026-04-16T01:43:23Z</time></trkpt><trkpt lat="-25.899450407537923" lon="113.5705907239276"><ele>25.5</ele><time>2026-04-16T01:43:24Z</time></trkpt><trkpt lat="-25.899495196665228" lon="113.57067310660314"><ele>26.666666666666664</ele><time>2026-04-16T01:43:25Z</time></trkpt><trkpt lat="-25.899534622642665" lon="113.5707580711699"><ele>27.833333333333332</ele><time>2026-04-16T01:43:26Z</time></trkpt><trkpt lat="-25.899573899256307" lon="113.57083997715236"><ele>29.0</ele><time>2026-04-16T01:43:27Z</time></trkpt><trkpt lat="-25.89961020858522" lon="113.57092351755965"><ele>28.999999999999996</ele><time>2026-04-16T01:43:28Z</time></trkpt><trkpt lat="-25.89965131902653" lon="113.57100680579242"><ele>29.0</ele><time>2026-04-16T01:43:29Z</time></trkpt><trkpt lat="-25.899698862098287" lon="113.57108978137119"><ele>29.0</ele><time>2026-04-16T01:43:30Z</time></trkpt><trkpt lat="-25.89974494947857" lon="113.57117295148414"><ele>29.0</ele><time>2026-04-16T01:43:31Z</time></trkpt><trkpt lat="-25.89978191207655" lon="113.57124777064489"><ele>28.999999999999996</ele><time>2026-04-16T01:43:32Z</time></trkpt><trkpt lat="-25.899814059636448" lon="113.57130892896339"><ele>29.0</ele><time>2026-04-16T01:43:33Z</time></trkpt><trkpt lat="-25.89986209614189" lon="113.57140240153991"><ele>29.666666666666664</ele><time>2026-04-16T01:43:35Z</time></trkpt><trkpt lat="-25.899905812447308" lon="113.5714881453957"><ele>30.333333333333332</ele><time>2026-04-16T01:43:37Z</time></trkpt><trkpt lat="-25.899951364113246" lon="113.57158042655395"><ele>31.0</ele><time>2026-04-16T01:43:39Z</time></trkpt><trkpt lat="-25.89999143192582" lon="113.57166122141216"><ele>31.666666666666664</ele><time>2026-04-16T01:43:41Z</time></trkpt><trkpt lat="-25.900037938123944" lon="113.57173990393724"><ele>32.333333333333336</ele><time>2026-04-16T01:43:45Z</time></trkpt><trkpt lat="-25.900084548976455" lon="113.57181837312847"><ele>33.0</ele><time>2026-04-16T01:43:47Z</time></trkpt><trkpt lat="-25.900119564718857" lon="113.57192641869521"><ele>33.4</ele><time>2026-04-16T01:43:49Z</time></trkpt><trkpt lat="-25.90016120073843" lon="113.5719971928354"><ele>33.8</ele><time>2026-04-16T01:43:51Z</time></trkpt><trkpt lat="-25.900210739198894" lon="113.57209365047373"><ele>34.2</ele><time>2026-04-16T01:43:54Z</time></trkpt><trkpt lat="-25.900268415743685" lon="113.5722004889608"><ele>34.6</ele><time>2026-04-16T01:43:56Z</time></trkpt><trkpt lat="-25.900301112292173" lon="113.57227057273393"><ele>35.0</ele><time>2026-04-16T01:43:57Z</time></trkpt><trkpt lat="-25.900362329427786" lon="113.57239494384145"><ele>36.2</ele><time>2026-04-16T01:43:59Z</time></trkpt><trkpt lat="-25.90040932144519" lon="113.57249883752738"><ele>37.4</ele><time>2026-04-16T01:44:01Z</time></trkpt><trkpt lat="-25.900449530146332" lon="113.57256852986643"><ele>38.599999999999994</ele><time>2026-04-16T01:44:03Z</time></trkpt><trkpt lat="-25.90039573646622" lon="113.57247510269244"><ele>39.8</ele><time>2026-04-16T01:44:53Z</time></trkpt><trkpt lat="-25.900365839508474" lon="113.57240625559743"><ele>41.0</ele><time>2026-04-16T01:44:54Z</time></trkpt><trkpt lat="-25.900313444339535" lon="113.57229405569812"><ele>41.0</ele><time>2026-04-16T01:44:56Z</time></trkpt><trkpt lat="-25.900286930460286" lon="113.57222844752893"><ele>41.0</ele><time>2026-04-16T01:44:57Z</time></trkpt><trkpt lat="-25.900227862107663" lon="113.57211665736381"><ele>41.0</ele><time>2026-04-16T01:44:59Z</time></trkpt><trkpt lat="-25.900165146671643" lon="113.57200432648027"><ele>41.0</ele><time>2026-04-16T01:45:01Z</time></trkpt><trkpt lat="-25.900112272323966" lon="113.57190301350555"><ele>41.0</ele><time>2026-04-16T01:45:03Z</time></trkpt><trkpt lat="-25.900085490747234" lon="113.57181195928342"><ele>39.666666666666664</ele><time>2026-04-16T01:45:05Z</time></trkpt><trkpt lat="-25.900055164532436" lon="113.57173741896673"><ele>38.33333333333333</ele><time>2026-04-16T01:45:07Z</time></trkpt><trkpt lat="-25.900003395698985" lon="113.57168628998785"><ele>37.0</ele><time>2026-04-16T01:45:09Z</time></trkpt><trkpt lat="-25.899973762324617" lon="113.5716178191601"><ele>35.666666666666664</ele><time>2026-04-16T01:45:11Z</time></trkpt><trkpt lat="-25.899921974495523" lon="113.57151960315896"><ele>34.333333333333336</ele><time>2026-04-16T01:45:13Z</time></trkpt><trkpt lat="-25.89986563461945" lon="113.57139955719339"><ele>33.0</ele><time>2026-04-16T01:45:15Z</time></trkpt><trkpt lat="-25.89981083945755" lon="113.57129534573957"><ele>32.199999999999996</ele><time>2026-04-16T01:45:17Z</time></trkpt><trkpt lat="-25.89975117434055" lon="113.57118771883799"><ele>31.4</ele><time>2026-04-16T01:45:19Z</time></trkpt><trkpt lat="-25.89971218580072" lon="113.57109093959005"><ele>30.599999999999998</ele><time>2026-04-16T01:45:21Z</time></trkpt><trkpt lat="-25.899668892226103" lon="113.57102874403662"><ele>29.799999999999997</ele><time>2026-04-16T01:45:23Z</time></trkpt><trkpt lat="-25.89963572027728" lon="113.57094984463637"><ele>29.0</ele><time>2026-04-16T01:45:25Z</time></trkpt><trkpt lat="-25.899573084350106" lon="113.57085669266976"><ele>28.999999999999996</ele><time>2026-04-16T01:45:27Z</time></trkpt><trkpt lat="-25.89954625229607" lon="113.57078240477817"><ele>29.0</ele><time>2026-04-16T01:45:29Z</time></trkpt><trkpt lat="-25.899497566170993" lon="113.57069023089566"><ele>29.0</ele><time>2026-04-16T01:45:32Z</time></trkpt><trkpt lat="-25.89946112073676" lon="113.57062167705652"><ele>29.0</ele><time>2026-04-16T01:45:34Z</time></trkpt><trkpt lat="-25.89942216873701" lon="113.57054307397158"><ele>28.999999999999996</ele><time>2026-04-16T01:45:36Z</time></trkpt><trkpt lat="-25.899371969940123" lon="113.57044700646205"><ele>29.0</ele><time>2026-04-16T01:45:38Z</time></trkpt><trkpt lat="-25.89932865725307" lon="113.5703671713636"><ele>28.428571428571434</ele><time>2026-04-16T01:45:40Z</time></trkpt><trkpt lat="-25.89929925139082" lon="113.5703045952602"><ele>27.857142857142858</ele><time>2026-04-16T01:45:42Z</time></trkpt><trkpt lat="-25.89926374032293" lon="113.5702282229575"><ele>27.28571428571429</ele><time>2026-04-16T01:45:45Z</time></trkpt><trkpt lat="-25.89923104623261" lon="113.57016530191319"><ele>26.714285714285715</ele><time>2026-04-16T01:45:47Z</time></trkpt><trkpt lat="-25.89920374554572" lon="113.57009857467786"><ele>26.142857142857146</ele><time>2026-04-16T01:45:49Z</time></trkpt><trkpt lat="-25.899165569906582" lon="113.57004034984003"><ele>25.571428571428573</ele><time>2026-04-16T01:45:51Z</time></trkpt><trkpt lat="-25.899121095858593" lon="113.56996370642422"><ele>25.0</ele><time>2026-04-16T01:45:54Z</time></trkpt><trkpt lat="-25.899085294792897" lon="113.56987999169401"><ele>24.4</ele><time>2026-04-16T01:45:56Z</time></trkpt><trkpt lat="-25.899043461643576" lon="113.56979271502166"><ele>23.8</ele><time>2026-04-16T01:45:58Z</time></trkpt><trkpt lat="-25.899000966472848" lon="113.56972458228029"><ele>23.200000000000003</ele><time>2026-04-16T01:46:00Z</time></trkpt><trkpt lat="-25.898952040421946" lon="113.56964319710914"><ele>22.6</ele><time>2026-04-16T01:46:02Z</time></trkpt><trkpt lat="-25.898914246484814" lon="113.56954229376473"><ele>22.0</ele><time>2026-04-16T01:46:04Z</time></trkpt><trkpt lat="-25.898847996790664" lon="113.56943217689361"><ele>21.0</ele><time>2026-04-16T01:46:06Z</time></trkpt><trkpt lat="-25.898796405577524" lon="113.56932625761316"><ele>20.0</ele><time>2026-04-16T01:46:08Z</time></trkpt><trkpt lat="-25.89874627919554" lon="113.56921245457274"><ele>19.0</ele><time>2026-04-16T01:46:10Z</time></trkpt><trkpt lat="-25.8986813956314" lon="113.56909048823489"><ele>18.0</ele><time>2026-04-16T01:46:12Z</time></trkpt><trkpt lat="-25.898645938415495" lon="113.56902295815105"><ele>17.0</ele><time>2026-04-16T01:46:13Z</time></trkpt><trkpt lat="-25.89861231976167" lon="113.56895295099689"><ele>17.0</ele><time>2026-04-16T01:46:14Z</time></trkpt><trkpt lat="-25.898576075317642" lon="113.56887890541813"><ele>17.0</ele><time>2026-04-16T01:46:15Z</time></trkpt><trkpt lat="-25.898537574837743" lon="113.568798281571"><ele>17.0</ele><time>2026-04-16T01:46:16Z</time></trkpt><trkpt lat="-25.898501639148865" lon="113.56872395552895"><ele>17.0</ele><time>2026-04-16T01:46:17Z</time></trkpt><trkpt lat="-25.898456035738768" lon="113.56863714636327"><ele>17.0</ele><time>2026-04-16T01:46:18Z</time></trkpt><trkpt lat="-25.898414867558728" lon="113.56856052776777"><ele>17.0</ele><time>2026-04-16T01:46:19Z</time></trkpt><trkpt lat="-25.89837362704477" lon="113.56849006243459"><ele>15.500000000000002</ele><time>2026-04-16T01:46:20Z</time></trkpt><trkpt lat="-25.898338444491436" lon="113.56842689910927"><ele>14.0</ele><time>2026-04-16T01:46:21Z</time></trkpt><trkpt lat="-25.89828700256074" lon="113.56831763205378"><ele>12.5</ele><time>2026-04-16T01:46:23Z</time></trkpt><trkpt lat="-25.898245104674956" lon="113.56821694174347"><ele>11.0</ele><time>2026-04-16T01:46:25Z</time></trkpt><trkpt lat="-25.898217574957346" lon="113.56814984358029"><ele>9.5</ele><time>2026-04-16T01:46:27Z</time></trkpt><trkpt lat="-25.898182080972788" lon="113.56807759194216"><ele>8.0</ele><time>2026-04-16T01:46:30Z</time></trkpt><trkpt lat="-25.898116894167416" lon="113.56802057169173"><ele>7.999999999999999</ele><time>2026-04-16T01:46:33Z</time></trkpt><trkpt lat="-25.898072740802323" lon="113.56790415074273"><ele>8.0</ele><time>2026-04-16T01:46:35Z</time></trkpt><trkpt lat="-25.89805435313849" lon="113.56783485576057"><ele>8.0</ele><time>2026-04-16T01:46:36Z</time></trkpt><trkpt lat="-25.898039260400147" lon="113.56776630996323"><ele>8.0</ele><time>2026-04-16T01:46:37Z</time></trkpt><trkpt lat="-25.898021859390305" lon="113.56769005919968"><ele>7.999999999999999</ele><time>2026-04-16T01:46:38Z</time></trkpt><trkpt lat="-25.897993331950246" lon="113.56759513906927"><ele>8.0</ele><time>2026-04-16T01:46:39Z</time></trkpt><trkpt lat="-25.89795440416344" lon="113.56749459361203"><ele>7.25</ele><time>2026-04-16T01:46:40Z</time></trkpt><trkpt lat="-25.897905547035474" lon="113.56738677187548"><ele>6.5</ele><time>2026-04-16T01:46:41Z</time></trkpt><trkpt lat="-25.897846316482973" lon="113.56727574736"><ele>5.75</ele><time>2026-04-16T01:46:42Z</time></trkpt><trkpt lat="-25.89776988325749" lon="113.5671513313794"><ele>5.0</ele><time>2026-04-16T01:46:43Z</time></trkpt><trkpt lat="-25.89768928532243" lon="113.56702234035357"><ele>5.333333333333334</ele><time>2026-04-16T01:46:44Z</time></trkpt><trkpt lat="-25.897597202956387" lon="113.56687564022394"><ele>5.666666666666667</ele><time>2026-04-16T01:46:45Z</time></trkpt><trkpt lat="-25.897505762375253" lon="113.56673048430639"><ele>6.0</ele><time>2026-04-16T01:46:46Z</time></trkpt><trkpt lat="-25.89741665387122" lon="113.56658481720594"><ele>6.0</ele><time>2026-04-16T01:46:47Z</time></trkpt><trkpt lat="-25.897336280939367" lon="113.56643120579349"><ele>6.0</ele><time>2026-04-16T01:46:48Z</time></trkpt><trkpt lat="-25.89726282946528" lon="113.56626294159118"><ele>6.0</ele><time>2026-04-16T01:46:49Z</time></trkpt><trkpt lat="-25.897181578097907" lon="113.56607758926246"><ele>7.0</ele><time>2026-04-16T01:46:50Z</time></trkpt><trkpt lat="-25.897092733797216" lon="113.56590183447042"><ele>8.0</ele><time>2026-04-16T01:46:51Z</time></trkpt><trkpt lat="-25.89700480891321" lon="113.56573236639368"><ele>9.0</ele><time>2026-04-16T01:46:52Z</time></trkpt><trkpt lat="-25.8969066509507" lon="113.56556078072627"><ele>9.0</ele><time>2026-04-16T01:46:53Z</time></trkpt><trkpt lat="-25.896806139962845" lon="113.56538109829926"><ele>9.0</ele><time>2026-04-16T01:46:54Z</time></trkpt><trkpt lat="-25.89671646084829" lon="113.56520909749831"><ele>9.0</ele><time>2026-04-16T01:46:55Z</time></trkpt><trkpt lat="-25.896643119390415" lon="113.56505637049109"><ele>11.0</ele><time>2026-04-16T01:46:56Z</time></trkpt><trkpt lat="-25.89657619210733" lon="113.56491838134133"><ele>13.0</ele><time>2026-04-16T01:46:57Z</time></trkpt><trkpt lat="-25.89650740206469" lon="113.56479614004968"><ele>15.0</ele><time>2026-04-16T01:46:58Z</time></trkpt><trkpt lat="-25.89643457813481" lon="113.56468628587737"><ele>17.0</ele><time>2026-04-16T01:46:59Z</time></trkpt><trkpt lat="-25.896352142192367" lon="113.56457952461662"><ele>17.25</ele><time>2026-04-16T01:47:00Z</time></trkpt><trkpt lat="-25.896261036963143" lon="113.56447353863281"><ele>17.5</ele><time>2026-04-16T01:47:01Z</time></trkpt><trkpt lat="-25.89616651446989" lon="113.56436159559661"><ele>17.75</ele><time>2026-04-16T01:47:02Z</time></trkpt><trkpt lat="-25.89609401823909" lon="113.56426632663235"><ele>18.0</ele><time>2026-04-16T01:47:03Z</time></trkpt><trkpt lat="-25.896054280567693" lon="113.56419596305003"><ele>18.0</ele><time>2026-04-16T01:47:04Z</time></trkpt><trkpt lat="-25.896049467731114" lon="113.56410229985335"><ele>18.0</ele><time>2026-04-16T01:47:07Z</time></trkpt><trkpt lat="-25.896135638771828" lon="113.56397215252164"><ele>18.0</ele><time>2026-04-16T01:47:09Z</time></trkpt><trkpt lat="-25.896225706055986" lon="113.56387776363526"><ele>18.0</ele><time>2026-04-16T01:47:10Z</time></trkpt><trkpt lat="-25.896340826070503" lon="113.56376715892573"><ele>19.333333333333332</ele><time>2026-04-16T01:47:11Z</time></trkpt><trkpt lat="-25.896480812482952" lon="113.56363901780678"><ele>20.666666666666664</ele><time>2026-04-16T01:47:12Z</time></trkpt><trkpt lat="-25.896627783444067" lon="113.56350324977986"><ele>22.0</ele><time>2026-04-16T01:47:13Z</time></trkpt><trkpt lat="-25.896779260799857" lon="113.56336319533709"><ele>22.0</ele><time>2026-04-16T01:47:14Z</time></trkpt><trkpt lat="-25.896929487098472" lon="113.56321353922793"><ele>22.0</ele><time>2026-04-16T01:47:15Z</time></trkpt><trkpt lat="-25.89708561711084" lon="113.563051657344"><ele>22.0</ele><time>2026-04-16T01:47:16Z</time></trkpt><trkpt lat="-25.89722890110756" lon="113.56289974739184"><ele>22.333333333333332</ele><time>2026-04-16T01:47:17Z</time></trkpt><trkpt lat="-25.897369654914016" lon="113.56275448947366"><ele>22.666666666666668</ele><time>2026-04-16T01:47:18Z</time></trkpt><trkpt lat="-25.89750513647066" lon="113.56261933163853"><ele>23.0</ele><time>2026-04-16T01:47:19Z</time></trkpt><trkpt lat="-25.897627711423024" lon="113.56249309786595"><ele>23.0</ele><time>2026-04-16T01:47:20Z</time></trkpt><trkpt lat="-25.897737203383326" lon="113.56236364189743"><ele>23.0</ele><time>2026-04-16T01:47:21Z</time></trkpt><trkpt lat="-25.897838588650217" lon="113.56221397527167"><ele>23.0</ele><time>2026-04-16T01:47:22Z</time></trkpt><trkpt lat="-25.897951657854954" lon="113.56203762110333"><ele>23.333333333333336</ele><time>2026-04-16T01:47:23Z</time></trkpt><trkpt lat="-25.8980736437986" lon="113.56183641574653"><ele>23.666666666666668</ele><time>2026-04-16T01:47:24Z</time></trkpt><trkpt lat="-25.898199197387267" lon="113.56162228583926"><ele>24.0</ele><time>2026-04-16T01:47:25Z</time></trkpt><trkpt lat="-25.898330392778742" lon="113.5614066349665"><ele>20.5</ele><time>2026-04-16T01:47:26Z</time></trkpt><trkpt lat="-25.89846349327348" lon="113.56118806769362"><ele>17.0</ele><time>2026-04-16T01:47:27Z</time></trkpt><trkpt lat="-25.898595718209076" lon="113.56096818581263"><ele>17.0</ele><time>2026-04-16T01:47:28Z</time></trkpt><trkpt lat="-25.89873142933678" lon="113.56073967284587"><ele>17.0</ele><time>2026-04-16T01:47:29Z</time></trkpt><trkpt lat="-25.898866708856488" lon="113.56050483351565"><ele>18.5</ele><time>2026-04-16T01:47:30Z</time></trkpt><trkpt lat="-25.8989991705761" lon="113.56027176964349"><ele>20.0</ele><time>2026-04-16T01:47:31Z</time></trkpt><trkpt lat="-25.899137862921787" lon="113.56002987387068"><ele>18.0</ele><time>2026-04-16T01:47:32Z</time></trkpt><trkpt lat="-25.899274003388204" lon="113.559795520663"><ele>16.0</ele><time>2026-04-16T01:47:33Z</time></trkpt><trkpt lat="-25.899414677324664" lon="113.55956590562377"><ele>17.0</ele><time>2026-04-16T01:47:34Z</time></trkpt><trkpt lat="-25.89955197436179" lon="113.5593403340118"><ele>18.0</ele><time>2026-04-16T01:47:35Z</time></trkpt><trkpt lat="-25.899692413798615" lon="113.55910573384186"><ele>18.0</ele><time>2026-04-16T01:47:36Z</time></trkpt><trkpt lat="-25.899829444231823" lon="113.55887084354482"><ele>18.0</ele><time>2026-04-16T01:47:37Z</time></trkpt><trkpt lat="-25.899953829510522" lon="113.55864661878677"><ele>19.5</ele><time>2026-04-16T01:47:38Z</time></trkpt><trkpt lat="-25.90007336713907" lon="113.55843218765976"><ele>21.0</ele><time>2026-04-16T01:47:39Z</time></trkpt><trkpt lat="-25.90019617828084" lon="113.55821663854076"><ele>21.666666666666668</ele><time>2026-04-16T01:47:40Z</time></trkpt><trkpt lat="-25.90031527858292" lon="113.55800943283703"><ele>22.333333333333336</ele><time>2026-04-16T01:47:41Z</time></trkpt><trkpt lat="-25.90043489484563" lon="113.55780853315804"><ele>23.0</ele><time>2026-04-16T01:47:42Z</time></trkpt><trkpt lat="-25.900546331864142" lon="113.55762078881753"><ele>23.333333333333336</ele><time>2026-04-16T01:47:43Z</time></trkpt><trkpt lat="-25.9006547877183" lon="113.55743311424052"><ele>23.666666666666668</ele><time>2026-04-16T01:47:44Z</time></trkpt><trkpt lat="-25.900764166974934" lon="113.55724749662619"><ele>24.0</ele><time>2026-04-16T01:47:45Z</time></trkpt><trkpt lat="-25.900875126337144" lon="113.55705942979867"><ele>27.0</ele><time>2026-04-16T01:47:46Z</time></trkpt><trkpt lat="-25.900973467992984" lon="113.55688013506415"><ele>30.0</ele><time>2026-04-16T01:47:47Z</time></trkpt><trkpt lat="-25.901068841549833" lon="113.55670305598261"><ele>33.0</ele><time>2026-04-16T01:47:48Z</time></trkpt><trkpt lat="-25.90116853452345" lon="113.55652960357617"><ele>33.0</ele><time>2026-04-16T01:47:49Z</time></trkpt><trkpt lat="-25.901265772036382" lon="113.55636014948531"><ele>33.0</ele><time>2026-04-16T01:47:50Z</time></trkpt><trkpt lat="-25.901372578391285" lon="113.55619265669353"><ele>33.0</ele><time>2026-04-16T01:47:51Z</time></trkpt><trkpt lat="-25.901483084310996" lon="113.55603993588143"><ele>32.666666666666664</ele><time>2026-04-16T01:47:52Z</time></trkpt><trkpt lat="-25.90160196516882" lon="113.55589879820327"><ele>32.33333333333333</ele><time>2026-04-16T01:47:53Z</time></trkpt><trkpt lat="-25.901739115471518" lon="113.55576083768766"><ele>32.0</ele><time>2026-04-16T01:47:54Z</time></trkpt><trkpt lat="-25.90188678726279" lon="113.55563240402175"><ele>32.0</ele><time>2026-04-16T01:47:55Z</time></trkpt><trkpt lat="-25.902046912672656" lon="113.55551076762244"><ele>32.0</ele><time>2026-04-16T01:47:56Z</time></trkpt><trkpt lat="-25.9022144946303" lon="113.55539553640668"><ele>32.0</ele><time>2026-04-16T01:47:57Z</time></trkpt><trkpt lat="-25.902401436373257" lon="113.55527567568872"><ele>32.666666666666664</ele><time>2026-04-16T01:47:58Z</time></trkpt><trkpt lat="-25.902556206720796" lon="113.55516705601522"><ele>33.333333333333336</ele><time>2026-04-16T01:47:59Z</time></trkpt><trkpt lat="-25.902721540222256" lon="113.5550427357407"><ele>34.0</ele><time>2026-04-16T01:48:00Z</time></trkpt><trkpt lat="-25.90288089208634" lon="113.55491994895384"><ele>34.0</ele><time>2026-04-16T01:48:01Z</time></trkpt><trkpt lat="-25.90303214471199" lon="113.55480825690722"><ele>34.0</ele><time>2026-04-16T01:48:02Z</time></trkpt><trkpt lat="-25.903166024522335" lon="113.55470494967349"><ele>34.0</ele><time>2026-04-16T01:48:03Z</time></trkpt><trkpt lat="-25.90330342478649" lon="113.55459834767805"><ele>34.0</ele><time>2026-04-16T01:48:04Z</time></trkpt><trkpt lat="-25.903448591569575" lon="113.55448565047648"><ele>34.0</ele><time>2026-04-16T01:48:05Z</time></trkpt><trkpt lat="-25.90359925356453" lon="113.55437358512897"><ele>34.0</ele><time>2026-04-16T01:48:06Z</time></trkpt><trkpt lat="-25.9037481588748" lon="113.55426866145949"><ele>34.0</ele><time>2026-04-16T01:48:07Z</time></trkpt><trkpt lat="-25.90388401511741" lon="113.55417915647976"><ele>34.0</ele><time>2026-04-16T01:48:08Z</time></trkpt><trkpt lat="-25.904017110120673" lon="113.5540909721015"><ele>34.0</ele><time>2026-04-16T01:48:09Z</time></trkpt><trkpt lat="-25.904150683758527" lon="113.55400703467087"><ele>33.66666666666667</ele><time>2026-04-16T01:48:10Z</time></trkpt><trkpt lat="-25.90429032234165" lon="113.55391814270621"><ele>33.333333333333336</ele><time>2026-04-16T01:48:11Z</time></trkpt><trkpt lat="-25.90442945141838" lon="113.55382265064834"><ele>33.0</ele><time>2026-04-16T01:48:12Z</time></trkpt><trkpt lat="-25.90457801825808" lon="113.55370652106504"><ele>33.666666666666664</ele><time>2026-04-16T01:48:13Z</time></trkpt><trkpt lat="-25.904741527332735" lon="113.55357334301391"><ele>34.33333333333333</ele><time>2026-04-16T01:48:14Z</time></trkpt><trkpt lat="-25.90490734670066" lon="113.55343036982036"><ele>35.0</ele><time>2026-04-16T01:48:15Z</time></trkpt><trkpt lat="-25.905075961311095" lon="113.55328316529986"><ele>34.666666666666664</ele><time>2026-04-16T01:48:16Z</time></trkpt><trkpt lat="-25.90525111132291" lon="113.553130442547"><ele>34.333333333333336</ele><time>2026-04-16T01:48:17Z</time></trkpt><trkpt lat="-25.90542115373694" lon="113.55298141077697"><ele>34.0</ele><time>2026-04-16T01:48:18Z</time></trkpt><trkpt lat="-25.90559728832857" lon="113.55282846280414"><ele>34.0</ele><time>2026-04-16T01:48:19Z</time></trkpt><trkpt lat="-25.90577018321616" lon="113.55267911294574"><ele>34.0</ele><time>2026-04-16T01:48:20Z</time></trkpt><trkpt lat="-25.905935819764256" lon="113.55253297484312"><ele>34.0</ele><time>2026-04-16T01:48:21Z</time></trkpt><trkpt lat="-25.906096788770768" lon="113.55238984817638"><ele>33.66666666666667</ele><time>2026-04-16T01:48:22Z</time></trkpt><trkpt lat="-25.90623383186658" lon="113.5522704435358"><ele>33.333333333333336</ele><time>2026-04-16T01:48:23Z</time></trkpt><trkpt lat="-25.906358327329297" lon="113.55215964210973"><ele>33.0</ele><time>2026-04-16T01:48:24Z</time></trkpt><trkpt lat="-25.906461361478968" lon="113.55206667709389"><ele>33.0</ele><time>2026-04-16T01:48:25Z</time></trkpt><trkpt lat="-25.906544442768222" lon="113.55198827683172"><ele>33.0</ele><time>2026-04-16T01:48:26Z</time></trkpt><trkpt lat="-25.906607382250428" lon="113.55192483143419"><ele>33.0</ele><time>2026-04-16T01:48:27Z</time></trkpt><trkpt lat="-25.90666174267957" lon="113.55187206879249"><ele>33.0</ele><time>2026-04-16T01:48:28Z</time></trkpt><trkpt lat="-25.906711353120034" lon="113.55181413269015"><ele>33.0</ele><time>2026-04-16T01:48:29Z</time></trkpt><trkpt lat="-25.906728505929628" lon="113.55169372710371"><ele>33.0</ele><time>2026-04-16T01:48:31Z</time></trkpt><trkpt lat="-25.9066751671575" lon="113.55159377178512"><ele>33.0</ele><time>2026-04-16T01:48:33Z</time></trkpt><trkpt lat="-25.90666193066875" lon="113.55150618594882"><ele>33.0</ele><time>2026-04-16T01:48:34Z</time></trkpt><trkpt lat="-25.90664411234958" lon="113.55138957345729"><ele>33.0</ele><time>2026-04-16T01:48:35Z</time></trkpt><trkpt lat="-25.906609078443434" lon="113.551243903276"><ele>33.0</ele><time>2026-04-16T01:48:36Z</time></trkpt><trkpt lat="-25.90656040774096" lon="113.55108936055606"><ele>33.0</ele><time>2026-04-16T01:48:37Z</time></trkpt><trkpt lat="-25.906500203062727" lon="113.55093700003546"><ele>33.0</ele><time>2026-04-16T01:48:38Z</time></trkpt><trkpt lat="-25.90643495437448" lon="113.55077161025476"><ele>33.0</ele><time>2026-04-16T01:48:39Z</time></trkpt><trkpt lat="-25.906376076581473" lon="113.55060668691809"><ele>33.0</ele><time>2026-04-16T01:48:40Z</time></trkpt><trkpt lat="-25.906317682993162" lon="113.55042385969189"><ele>33.0</ele><time>2026-04-16T01:48:41Z</time></trkpt><trkpt lat="-25.906260777282398" lon="113.55022972860996"><ele>33.0</ele><time>2026-04-16T01:48:42Z</time></trkpt><trkpt lat="-25.90619775685496" lon="113.55000964246997"><ele>33.0</ele><time>2026-04-16T01:48:43Z</time></trkpt><trkpt lat="-25.906135326337743" lon="113.54978192672979"><ele>33.0</ele><time>2026-04-16T01:48:44Z</time></trkpt><trkpt lat="-25.90606847836058" lon="113.5495546074555"><ele>33.0</ele><time>2026-04-16T01:48:45Z</time></trkpt><trkpt lat="-25.90599568181168" lon="113.5493311758364"><ele>32.666666666666664</ele><time>2026-04-16T01:48:46Z</time></trkpt><trkpt lat="-25.90592378420705" lon="113.54910186694025"><ele>32.33333333333333</ele><time>2026-04-16T01:48:47Z</time></trkpt><trkpt lat="-25.90585638577132" lon="113.54888038899047"><ele>32.0</ele><time>2026-04-16T01:48:48Z</time></trkpt><trkpt lat="-25.9057962142083" lon="113.54867079113453"><ele>31.666666666666664</ele><time>2026-04-16T01:48:49Z</time></trkpt><trkpt lat="-25.90574343438831" lon="113.54847749536796"><ele>31.333333333333336</ele><time>2026-04-16T01:48:50Z</time></trkpt><trkpt lat="-25.90569307393642" lon="113.54828651948175"><ele>31.0</ele><time>2026-04-16T01:48:51Z</time></trkpt><trkpt lat="-25.90564067693322" lon="113.54809165572198"><ele>31.0</ele><time>2026-04-16T01:48:52Z</time></trkpt><trkpt lat="-25.905591056572863" lon="113.5478989789948"><ele>31.0</ele><time>2026-04-16T01:48:53Z</time></trkpt><trkpt lat="-25.905544216487225" lon="113.54771866775462"><ele>31.0</ele><time>2026-04-16T01:48:54Z</time></trkpt><trkpt lat="-25.905503831450496" lon="113.54756485661417"><ele>30.8</ele><time>2026-04-16T01:48:55Z</time></trkpt><trkpt lat="-25.905469445587393" lon="113.54743111302702"><ele>30.6</ele><time>2026-04-16T01:48:56Z</time></trkpt><trkpt lat="-25.90543905283654" lon="113.54731995937134"><ele>30.4</ele><time>2026-04-16T01:48:57Z</time></trkpt><trkpt lat="-25.905414270343382" lon="113.54722638482197"><ele>30.2</ele><time>2026-04-16T01:48:58Z</time></trkpt><trkpt lat="-25.905390980379487" lon="113.54714667472157"><ele>30.0</ele><time>2026-04-16T01:48:59Z</time></trkpt><trkpt lat="-25.90536027911982" lon="113.54704810138094"><ele>29.6</ele><time>2026-04-16T01:49:01Z</time></trkpt><trkpt lat="-25.90528949848467" lon="113.54697044758683"><ele>29.2</ele><time>2026-04-16T01:49:19Z</time></trkpt><trkpt lat="-25.905230603688864" lon="113.54693487095845"><ele>28.799999999999997</ele><time>2026-04-16T01:49:20Z</time></trkpt><trkpt lat="-25.90515530562611" lon="113.54691884486759"><ele>28.4</ele><time>2026-04-16T01:49:21Z</time></trkpt><trkpt lat="-25.905059749465725" lon="113.54691788925868"><ele>28.0</ele><time>2026-04-16T01:49:22Z</time></trkpt><trkpt lat="-25.904936807658768" lon="113.5469355586344"><ele>27.666666666666668</ele><time>2026-04-16T01:49:23Z</time></trkpt><trkpt lat="-25.904787530444782" lon="113.54696088866162"><ele>27.333333333333336</ele><time>2026-04-16T01:49:24Z</time></trkpt><trkpt lat="-25.904613270154492" lon="113.54698153002639"><ele>27.0</ele><time>2026-04-16T01:49:25Z</time></trkpt><trkpt lat="-25.904438672632395" lon="113.54699693742835"><ele>27.0</ele><time>2026-04-16T01:49:26Z</time></trkpt><trkpt lat="-25.90425721002974" lon="113.54701237963674"><ele>27.0</ele><time>2026-04-16T01:49:27Z</time></trkpt><trkpt lat="-25.904062497985255" lon="113.5470304400465"><ele>27.0</ele><time>2026-04-16T01:49:28Z</time></trkpt><trkpt lat="-25.90386041884649" lon="113.54704984256077"><ele>27.666666666666664</ele><time>2026-04-16T01:49:29Z</time></trkpt><trkpt lat="-25.903652731319916" lon="113.54706972927005"><ele>28.333333333333332</ele><time>2026-04-16T01:49:30Z</time></trkpt><trkpt lat="-25.903436715564705" lon="113.5470857951402"><ele>29.0</ele><time>2026-04-16T01:49:31Z</time></trkpt><trkpt lat="-25.903220867051022" lon="113.54710047561585"><ele>29.333333333333332</ele><time>2026-04-16T01:49:32Z</time></trkpt><trkpt lat="-25.903011502732422" lon="113.54711674852733"><ele>29.666666666666664</ele><time>2026-04-16T01:49:33Z</time></trkpt><trkpt lat="-25.902796745918693" lon="113.54713422913736"><ele>30.0</ele><time>2026-04-16T01:49:34Z</time></trkpt><trkpt lat="-25.90257944328571" lon="113.54715391784852"><ele>28.5</ele><time>2026-04-16T01:49:35Z</time></trkpt><trkpt lat="-25.90235396183076" lon="113.54717300437078"><ele>27.0</ele><time>2026-04-16T01:49:36Z</time></trkpt><trkpt lat="-25.902129988703116" lon="113.54719208591499"><ele>27.0</ele><time>2026-04-16T01:49:37Z</time></trkpt><trkpt lat="-25.90190357457035" lon="113.54721018150514"><ele>27.0</ele><time>2026-04-16T01:49:38Z</time></trkpt><trkpt lat="-25.90167362615747" lon="113.54722878836634"><ele>27.0</ele><time>2026-04-16T01:49:39Z</time></trkpt><trkpt lat="-25.901443795518162" lon="113.54724830678829"><ele>27.0</ele><time>2026-04-16T01:49:40Z</time></trkpt><trkpt lat="-25.901210177508794" lon="113.5472663840951"><ele>27.0</ele><time>2026-04-16T01:49:41Z</time></trkpt><trkpt lat="-25.90097444900836" lon="113.54728333017593"><ele>27.0</ele><time>2026-04-16T01:49:42Z</time></trkpt><trkpt lat="-25.900748328040486" lon="113.54730143626414"><ele>25.0</ele><time>2026-04-16T01:49:43Z</time></trkpt><trkpt lat="-25.90051842302364" lon="113.54732150108215"><ele>23.0</ele><time>2026-04-16T01:49:44Z</time></trkpt><trkpt lat="-25.900287362738695" lon="113.54734277525843"><ele>20.5</ele><time>2026-04-16T01:49:45Z</time></trkpt><trkpt lat="-25.900054091502295" lon="113.54736413633617"><ele>18.0</ele><time>2026-04-16T01:49:46Z</time></trkpt><trkpt lat="-25.899820152899117" lon="113.5473807354588"><ele>18.0</ele><time>2026-04-16T01:49:47Z</time></trkpt><trkpt lat="-25.899582352795058" lon="113.5473982726133"><ele>18.0</ele><time>2026-04-16T01:49:48Z</time></trkpt><trkpt lat="-25.899347118236577" lon="113.547417855002"><ele>17.5</ele><time>2026-04-16T01:49:49Z</time></trkpt><trkpt lat="-25.899109511501187" lon="113.54743722696662"><ele>17.0</ele><time>2026-04-16T01:49:50Z</time></trkpt><trkpt lat="-25.89887538492205" lon="113.54745649010177"><ele>17.0</ele><time>2026-04-16T01:49:51Z</time></trkpt><trkpt lat="-25.89864198171738" lon="113.54747617407524"><ele>17.0</ele><time>2026-04-16T01:49:52Z</time></trkpt><trkpt lat="-25.898408186089025" lon="113.54749547838814"><ele>15.5</ele><time>2026-04-16T01:49:53Z</time></trkpt><trkpt lat="-25.89817199952131" lon="113.54751261378054"><ele>14.0</ele><time>2026-04-16T01:49:54Z</time></trkpt><trkpt lat="-25.897946170169632" lon="113.54752840864961"><ele>14.0</ele><time>2026-04-16T01:49:55Z</time></trkpt><trkpt lat="-25.897724161388503" lon="113.54754544059831"><ele>14.0</ele><time>2026-04-16T01:49:56Z</time></trkpt><trkpt lat="-25.897501436797054" lon="113.54756317055978"><ele>14.0</ele><time>2026-04-16T01:49:57Z</time></trkpt><trkpt lat="-25.897273232423604" lon="113.54757962576808"><ele>15.5</ele><time>2026-04-16T01:49:58Z</time></trkpt><trkpt lat="-25.897043788201312" lon="113.5475933424064"><ele>17.0</ele><time>2026-04-16T01:49:59Z</time></trkpt><trkpt lat="-25.89681543590676" lon="113.54760582951538"><ele>17.5</ele><time>2026-04-16T01:50:00Z</time></trkpt><trkpt lat="-25.896586468360407" lon="113.54762224137572"><ele>18.0</ele><time>2026-04-16T01:50:01Z</time></trkpt><trkpt lat="-25.89635761353534" lon="113.54764296986504"><ele>18.0</ele><time>2026-04-16T01:50:02Z</time></trkpt><trkpt lat="-25.896126376729597" lon="113.54766968265733"><ele>18.0</ele><time>2026-04-16T01:50:03Z</time></trkpt><trkpt lat="-25.895886237264953" lon="113.54770661733207"><ele>15.5</ele><time>2026-04-16T01:50:04Z</time></trkpt><trkpt lat="-25.895644325303174" lon="113.54775200385647"><ele>13.0</ele><time>2026-04-16T01:50:05Z</time></trkpt><trkpt lat="-25.895397543464465" lon="113.54780995704105"><ele>13.0</ele><time>2026-04-16T01:50:06Z</time></trkpt><trkpt lat="-25.895151216227323" lon="113.54787344326031"><ele>13.0</ele><time>2026-04-16T01:50:07Z</time></trkpt><trkpt lat="-25.894907560675605" lon="113.54794263559339"><ele>13.5</ele><time>2026-04-16T01:50:08Z</time></trkpt><trkpt lat="-25.8946660711473" lon="113.54802034653439"><ele>14.0</ele><time>2026-04-16T01:50:09Z</time></trkpt><trkpt lat="-25.894427759639306" lon="113.54810820162933"><ele>16.0</ele><time>2026-04-16T01:50:10Z</time></trkpt><trkpt lat="-25.894190845430053" lon="113.54820767598025"><ele>18.0</ele><time>2026-04-16T01:50:11Z</time></trkpt><trkpt lat="-25.893951706775557" lon="113.54832599008387"><ele>18.0</ele><time>2026-04-16T01:50:12Z</time></trkpt><trkpt lat="-25.89371559994778" lon="113.54845552484849"><ele>18.0</ele><time>2026-04-16T01:50:13Z</time></trkpt><trkpt lat="-25.893484928035356" lon="113.54859009995496"><ele>20.0</ele><time>2026-04-16T01:50:14Z</time></trkpt><trkpt lat="-25.893258437453657" lon="113.54872872323034"><ele>22.0</ele><time>2026-04-16T01:50:15Z</time></trkpt><trkpt lat="-25.893036229496907" lon="113.54887188157858"><ele>22.0</ele><time>2026-04-16T01:50:16Z</time></trkpt><trkpt lat="-25.892820789796755" lon="113.54902728916502"><ele>22.0</ele><time>2026-04-16T01:50:17Z</time></trkpt><trkpt lat="-25.89261061082182" lon="113.54919589567687"><ele>22.0</ele><time>2026-04-16T01:50:18Z</time></trkpt><trkpt lat="-25.89240691030944" lon="113.54937468099703"><ele>22.0</ele><time>2026-04-16T01:50:19Z</time></trkpt><trkpt lat="-25.89220779733137" lon="113.54955748774898"><ele>21.5</ele><time>2026-04-16T01:50:20Z</time></trkpt><trkpt lat="-25.892015756747856" lon="113.54974431590222"><ele>21.0</ele><time>2026-04-16T01:50:21Z</time></trkpt><trkpt lat="-25.891832535008234" lon="113.54993787716626"><ele>22.5</ele><time>2026-04-16T01:50:22Z</time></trkpt><trkpt lat="-25.891657711604477" lon="113.55013784739056"><ele>24.0</ele><time>2026-04-16T01:50:23Z</time></trkpt><trkpt lat="-25.891488626412528" lon="113.55034541097017"><ele>25.0</ele><time>2026-04-16T01:50:24Z</time></trkpt><trkpt lat="-25.89132411856857" lon="113.55055441868853"><ele>26.0</ele><time>2026-04-16T01:50:25Z</time></trkpt><trkpt lat="-25.891170553673213" lon="113.5507708649761"><ele>26.0</ele><time>2026-04-16T01:50:26Z</time></trkpt><trkpt lat="-25.891021532410566" lon="113.55099257805648"><ele>26.0</ele><time>2026-04-16T01:50:27Z</time></trkpt><trkpt lat="-25.890877654079492" lon="113.55121948741262"><ele>23.0</ele><time>2026-04-16T01:50:28Z</time></trkpt><trkpt lat="-25.89074275543325" lon="113.55145082448642"><ele>20.0</ele><time>2026-04-16T01:50:29Z</time></trkpt><trkpt lat="-25.890616549596963" lon="113.55169117978076"><ele>20.0</ele><time>2026-04-16T01:50:30Z</time></trkpt><trkpt lat="-25.89049734741163" lon="113.55194069234227"><ele>20.0</ele><time>2026-04-16T01:50:31Z</time></trkpt><trkpt lat="-25.890380712244536" lon="113.552193831563"><ele>20.0</ele><time>2026-04-16T01:50:32Z</time></trkpt><trkpt lat="-25.890274852329597" lon="113.55245296249409"><ele>20.0</ele><time>2026-04-16T01:50:33Z</time></trkpt><trkpt lat="-25.89017348000537" lon="113.5527240070871"><ele>18.0</ele><time>2026-04-16T01:50:34Z</time></trkpt><trkpt lat="-25.890075385825583" lon="113.5530096289567"><ele>16.0</ele><time>2026-04-16T01:50:35Z</time></trkpt><trkpt lat="-25.8899804978782" lon="113.55331002258605"><ele>16.0</ele><time>2026-04-16T01:50:36Z</time></trkpt><trkpt lat="-25.889886367884966" lon="113.5536261777609"><ele>16.0</ele><time>2026-04-16T01:50:37Z</time></trkpt><trkpt lat="-25.8897923428198" lon="113.5539361801922"><ele>16.0</ele><time>2026-04-16T01:50:38Z</time></trkpt><trkpt lat="-25.889702796177488" lon="113.5542251094792"><ele>16.0</ele><time>2026-04-16T01:50:39Z</time></trkpt><trkpt lat="-25.889612149490105" lon="113.55450714410186"><ele>16.5</ele><time>2026-04-16T01:50:40Z</time></trkpt><trkpt lat="-25.88952215477992" lon="113.5547861022871"><ele>17.0</ele><time>2026-04-16T01:50:41Z</time></trkpt><trkpt lat="-25.889432520107835" lon="113.55507061693221"><ele>17.0</ele><time>2026-04-16T01:50:42Z</time></trkpt><trkpt lat="-25.889341141347938" lon="113.55536658262658"><ele>17.0</ele><time>2026-04-16T01:50:43Z</time></trkpt><trkpt lat="-25.889248499302592" lon="113.55566452938018"><ele>14.5</ele><time>2026-04-16T01:50:44Z</time></trkpt><trkpt lat="-25.889155103471534" lon="113.55596662997213"><ele>12.0</ele><time>2026-04-16T01:50:45Z</time></trkpt><trkpt lat="-25.889058772375645" lon="113.55627368868136"><ele>11.0</ele><time>2026-04-16T01:50:46Z</time></trkpt><trkpt lat="-25.888961806193553" lon="113.5565825318178"><ele>10.0</ele><time>2026-04-16T01:50:47Z</time></trkpt><trkpt lat="-25.888863686004736" lon="113.55689241554225"><ele>12.0</ele><time>2026-04-16T01:50:48Z</time></trkpt><trkpt lat="-25.888766523252755" lon="113.55720159646746"><ele>14.0</ele><time>2026-04-16T01:50:49Z</time></trkpt><trkpt lat="-25.888668834484996" lon="113.5575104976003"><ele>14.0</ele><time>2026-04-16T01:50:50Z</time></trkpt><trkpt lat="-25.88857160552211" lon="113.55781969844317"><ele>14.0</ele><time>2026-04-16T01:50:51Z</time></trkpt><trkpt lat="-25.88847433030269" lon="113.55812718790173"><ele>12.0</ele><time>2026-04-16T01:50:51.999Z</time></trkpt><trkpt lat="-25.888376989733953" lon="113.55843931605116"><ele>10.0</ele><time>2026-04-16T01:50:52.999Z</time></trkpt><trkpt lat="-25.888277387497475" lon="113.55875426108479"><ele>9.0</ele><time>2026-04-16T01:50:53.999Z</time></trkpt><trkpt lat="-25.88817617834727" lon="113.5590706537327"><ele>8.0</ele><time>2026-04-16T01:50:54.999Z</time></trkpt><trkpt lat="-25.88807563466683" lon="113.55938865951504"><ele>8.5</ele><time>2026-04-16T01:50:55.999Z</time></trkpt><trkpt lat="-25.887976397288163" lon="113.55970845243216"><ele>9.0</ele><time>2026-04-16T01:50:56.999Z</time></trkpt><trkpt lat="-25.88787673000934" lon="113.56003040194382"><ele>9.0</ele><time>2026-04-16T01:50:57.999Z</time></trkpt><trkpt lat="-25.887778071946915" lon="113.56035225316917"><ele>9.0</ele><time>2026-04-16T01:50:58.999Z</time></trkpt><trkpt lat="-25.887678878057617" lon="113.56067172076013"><ele>7.5</ele><time>2026-04-16T01:50:59.999Z</time></trkpt><trkpt lat="-25.887579366552643" lon="113.56099150478552"><ele>6.0</ele><time>2026-04-16T01:51:00.999Z</time></trkpt><trkpt lat="-25.887476716017794" lon="113.56131646944768"><ele>6.0</ele><time>2026-04-16T01:51:01.999Z</time></trkpt><trkpt lat="-25.887373800018455" lon="113.56164061902847"><ele>6.0</ele><time>2026-04-16T01:51:02.999Z</time></trkpt><trkpt lat="-25.887273441914683" lon="113.56196283935034"><ele>7.5</ele><time>2026-04-16T01:51:03.999Z</time></trkpt><trkpt lat="-25.88717243369658" lon="113.56228324627236"><ele>9.0</ele><time>2026-04-16T01:51:04.999Z</time></trkpt><trkpt lat="-25.887071120040062" lon="113.56260135747547"><ele>10.5</ele><time>2026-04-16T01:51:05.999Z</time></trkpt><trkpt lat="-25.886968126816278" lon="113.56291868911903"><ele>12.0</ele><time>2026-04-16T01:51:06.999Z</time></trkpt><trkpt lat="-25.88686941728506" lon="113.56323714922941"><ele>12.0</ele><time>2026-04-16T01:51:07.999Z</time></trkpt><trkpt lat="-25.886773739442393" lon="113.56356101601288"><ele>12.0</ele><time>2026-04-16T01:51:08.999Z</time></trkpt><trkpt lat="-25.886676031714497" lon="113.56388427438638"><ele>11.0</ele><time>2026-04-16T01:51:09.999Z</time></trkpt><trkpt lat="-25.88657194307576" lon="113.56421152257462"><ele>10.0</ele><time>2026-04-16T01:51:10.999Z</time></trkpt><trkpt lat="-25.886468148082766" lon="113.56453705320718"><ele>10.0</ele><time>2026-04-16T01:51:11.999Z</time></trkpt><trkpt lat="-25.88636550157531" lon="113.56486105424527"><ele>10.0</ele><time>2026-04-16T01:51:12.999Z</time></trkpt><trkpt lat="-25.886259653024403" lon="113.56518214056062"><ele>11.0</ele><time>2026-04-16T01:51:13.999Z</time></trkpt><trkpt lat="-25.886152239433205" lon="113.5655061390576"><ele>12.0</ele><time>2026-04-16T01:51:14.999Z</time></trkpt><trkpt lat="-25.886044794161265" lon="113.56582876273627"><ele>12.0</ele><time>2026-04-16T01:51:15.999Z</time></trkpt><trkpt lat="-25.88593370633784" lon="113.56615618955757"><ele>12.0</ele><time>2026-04-16T01:51:16.999Z</time></trkpt><trkpt lat="-25.88581453015699" lon="113.56648314119612"><ele>11.0</ele><time>2026-04-16T01:51:17.999Z</time></trkpt><trkpt lat="-25.885691378086793" lon="113.56680411170117"><ele>10.0</ele><time>2026-04-16T01:51:18.999Z</time></trkpt><trkpt lat="-25.88556400554807" lon="113.56712202719493"><ele>10.0</ele><time>2026-04-16T01:51:19.999Z</time></trkpt><trkpt lat="-25.885434947273968" lon="113.56743369971743"><ele>10.0</ele><time>2026-04-16T01:51:20.999Z</time></trkpt><trkpt lat="-25.885303921160972" lon="113.56774779909267"><ele>8.5</ele><time>2026-04-16T01:51:21.999Z</time></trkpt><trkpt lat="-25.885173193812374" lon="113.56806312730372"><ele>7.0</ele><time>2026-04-16T01:51:22.999Z</time></trkpt><trkpt lat="-25.885044892480195" lon="113.56837531906545"><ele>7.0</ele><time>2026-04-16T01:51:23.999Z</time></trkpt><trkpt lat="-25.884920033815533" lon="113.56868545501344"><ele>7.0</ele><time>2026-04-16T01:51:24.999Z</time></trkpt><trkpt lat="-25.88479748329613" lon="113.56899396261946"><ele>9.5</ele><time>2026-04-16T01:51:25.999Z</time></trkpt><trkpt lat="-25.88467676055436" lon="113.56930345280439"><ele>12.0</ele><time>2026-04-16T01:51:26.999Z</time></trkpt><trkpt lat="-25.884555512529413" lon="113.56961139563471"><ele>12.5</ele><time>2026-04-16T01:51:27.999Z</time></trkpt><trkpt lat="-25.88442949030795" lon="113.56992407138465"><ele>13.0</ele><time>2026-04-16T01:51:28.999Z</time></trkpt><trkpt lat="-25.884302271990403" lon="113.57023878010253"><ele>13.5</ele><time>2026-04-16T01:51:29.999Z</time></trkpt><trkpt lat="-25.88417387366377" lon="113.57055329542229"><ele>14.0</ele><time>2026-04-16T01:51:30.999Z</time></trkpt><trkpt lat="-25.884047140844647" lon="113.5708661796651"><ele>14.0</ele><time>2026-04-16T01:51:31.999Z</time></trkpt><trkpt lat="-25.883923894897546" lon="113.57117658160546"><ele>14.0</ele><time>2026-04-16T01:51:33Z</time></trkpt><trkpt lat="-25.883803379249777" lon="113.57148423167979"><ele>16.5</ele><time>2026-04-16T01:51:34Z</time></trkpt><trkpt lat="-25.883680453015376" lon="113.571794777379"><ele>19.0</ele><time>2026-04-16T01:51:35Z</time></trkpt><trkpt lat="-25.883556444807287" lon="113.57210684657929"><ele>21.0</ele><time>2026-04-16T01:51:36Z</time></trkpt><trkpt lat="-25.88343222113242" lon="113.57241742475878"><ele>23.0</ele><time>2026-04-16T01:51:37Z</time></trkpt><trkpt lat="-25.883307714546074" lon="113.57272625601396"><ele>25.0</ele><time>2026-04-16T01:51:38Z</time></trkpt><trkpt lat="-25.883182835172708" lon="113.57303329166407"><ele>27.0</ele><time>2026-04-16T01:51:39Z</time></trkpt><trkpt lat="-25.883055089386918" lon="113.57333973792863"><ele>27.0</ele><time>2026-04-16T01:51:40Z</time></trkpt><trkpt lat="-25.88293015838934" lon="113.57364568176722"><ele>27.0</ele><time>2026-04-16T01:51:41Z</time></trkpt><trkpt lat="-25.88280775774993" lon="113.57394810049698"><ele>29.0</ele><time>2026-04-16T01:51:42Z</time></trkpt><trkpt lat="-25.88268652519962" lon="113.57424964550356"><ele>31.0</ele><time>2026-04-16T01:51:43Z</time></trkpt><trkpt lat="-25.88256613558871" lon="113.57455148623929"><ele>31.5</ele><time>2026-04-16T01:51:44Z</time></trkpt><trkpt lat="-25.882445168889856" lon="113.5748570015543"><ele>32.0</ele><time>2026-04-16T01:51:45Z</time></trkpt><trkpt lat="-25.882322493481457" lon="113.57516599823254"><ele>31.5</ele><time>2026-04-16T01:51:46Z</time></trkpt><trkpt lat="-25.882198744895234" lon="113.57547590103644"><ele>31.0</ele><time>2026-04-16T01:51:47Z</time></trkpt><trkpt lat="-25.88207179177564" lon="113.57579107377836"><ele>31.0</ele><time>2026-04-16T01:51:48Z</time></trkpt><trkpt lat="-25.881947174180556" lon="113.57610266696328"><ele>31.0</ele><time>2026-04-16T01:51:49Z</time></trkpt><trkpt lat="-25.881824204692474" lon="113.57640999908068"><ele>30.0</ele><time>2026-04-16T01:51:50Z</time></trkpt><trkpt lat="-25.88170375866238" lon="113.57671082664332"><ele>29.0</ele><time>2026-04-16T01:51:51Z</time></trkpt><trkpt lat="-25.881581637525613" lon="113.57700914844474"><ele>30.5</ele><time>2026-04-16T01:51:52Z</time></trkpt><trkpt lat="-25.881451989387593" lon="113.57730274915453"><ele>32.0</ele><time>2026-04-16T01:51:53Z</time></trkpt><trkpt lat="-25.881314939222978" lon="113.57759176868039"><ele>34.0</ele><time>2026-04-16T01:51:54Z</time></trkpt><trkpt lat="-25.88116662606332" lon="113.57787890633264"><ele>36.0</ele><time>2026-04-16T01:51:55Z</time></trkpt><trkpt lat="-25.88101121335754" lon="113.57816303739608"><ele>35.5</ele><time>2026-04-16T01:51:56Z</time></trkpt><trkpt lat="-25.880851830964804" lon="113.57844210327474"><ele>35.0</ele><time>2026-04-16T01:51:57Z</time></trkpt><trkpt lat="-25.880684392584865" lon="113.57871900471639"><ele>35.0</ele><time>2026-04-16T01:51:58Z</time></trkpt><trkpt lat="-25.880508885210865" lon="113.57899304912755"><ele>35.0</ele><time>2026-04-16T01:51:59Z</time></trkpt><trkpt lat="-25.88032916264289" lon="113.57926321116322"><ele>34.5</ele><time>2026-04-16T01:52:00Z</time></trkpt><trkpt lat="-25.88014148088468" lon="113.57952708136341"><ele>34.0</ele><time>2026-04-16T01:52:01Z</time></trkpt><trkpt lat="-25.879945101039354" lon="113.5797868192973"><ele>34.0</ele><time>2026-04-16T01:52:02Z</time></trkpt><trkpt lat="-25.879741194077248" lon="113.5800428063847"><ele>34.0</ele><time>2026-04-16T01:52:03Z</time></trkpt><trkpt lat="-25.879533502710913" lon="113.58029210060444"><ele>34.0</ele><time>2026-04-16T01:52:04Z</time></trkpt><trkpt lat="-25.879324500514024" lon="113.58053751976276"><ele>34.0</ele><time>2026-04-16T01:52:05Z</time></trkpt><trkpt lat="-25.87911169596124" lon="113.58077760889884"><ele>33.5</ele><time>2026-04-16T01:52:06Z</time></trkpt><trkpt lat="-25.87889840986928" lon="113.58101404074796"><ele>33.0</ele><time>2026-04-16T01:52:07Z</time></trkpt><trkpt lat="-25.878683094114272" lon="113.58125180778617"><ele>33.0</ele><time>2026-04-16T01:52:08Z</time></trkpt><trkpt lat="-25.878465299082272" lon="113.5814887793728"><ele>33.0</ele><time>2026-04-16T01:52:09Z</time></trkpt><trkpt lat="-25.87825002946762" lon="113.58172454658659"><ele>33.5</ele><time>2026-04-16T01:52:10Z</time></trkpt><trkpt lat="-25.878034245921217" lon="113.58196370363947"><ele>34.0</ele><time>2026-04-16T01:52:11Z</time></trkpt><trkpt lat="-25.877821732679426" lon="113.58220196513145"><ele>34.0</ele><time>2026-04-16T01:52:12Z</time></trkpt><trkpt lat="-25.8776120673161" lon="113.58244147492282"><ele>34.0</ele><time>2026-04-16T01:52:13Z</time></trkpt><trkpt lat="-25.877400852454244" lon="113.58267787840786"><ele>33.0</ele><time>2026-04-16T01:52:14Z</time></trkpt><trkpt lat="-25.877188820107335" lon="113.58291373766343"><ele>32.0</ele><time>2026-04-16T01:52:15Z</time></trkpt><trkpt lat="-25.876977607899235" lon="113.58314906876164"><ele>32.5</ele><time>2026-04-16T01:52:16Z</time></trkpt><trkpt lat="-25.876768251478563" lon="113.58338217606244"><ele>33.0</ele><time>2026-04-16T01:52:17Z</time></trkpt><trkpt lat="-25.87655966003477" lon="113.58361205317587"><ele>33.0</ele><time>2026-04-16T01:52:18Z</time></trkpt><trkpt lat="-25.876351334498448" lon="113.5838431154268"><ele>33.0</ele><time>2026-04-16T01:52:19Z</time></trkpt><trkpt lat="-25.87614223358841" lon="113.5840767464341"><ele>33.0</ele><time>2026-04-16T01:52:20Z</time></trkpt><trkpt lat="-25.875931189143113" lon="113.58431157937434"><ele>33.0</ele><time>2026-04-16T01:52:21Z</time></trkpt><trkpt lat="-25.875717725208656" lon="113.58454976398907"><ele>33.0</ele><time>2026-04-16T01:52:22Z</time></trkpt><trkpt lat="-25.875505173104283" lon="113.58478743867606"><ele>33.0</ele><time>2026-04-16T01:52:23Z</time></trkpt><trkpt lat="-25.875291250756135" lon="113.58502648117452"><ele>33.5</ele><time>2026-04-16T01:52:24Z</time></trkpt><trkpt lat="-25.875078275400373" lon="113.58526556389829"><ele>34.0</ele><time>2026-04-16T01:52:25Z</time></trkpt><trkpt lat="-25.87486263389148" lon="113.58550583012148"><ele>31.5</ele><time>2026-04-16T01:52:26Z</time></trkpt><trkpt lat="-25.874648052147244" lon="113.58574390032896"><ele>29.0</ele><time>2026-04-16T01:52:27Z</time></trkpt><trkpt lat="-25.874432478613304" lon="113.5859841929386"><ele>29.0</ele><time>2026-04-16T01:52:28Z</time></trkpt><trkpt lat="-25.874216991899115" lon="113.58622495884313"><ele>29.0</ele><time>2026-04-16T01:52:29Z</time></trkpt><trkpt lat="-25.874001827164857" lon="113.58646515388202"><ele>29.0</ele><time>2026-04-16T01:52:30Z</time></trkpt><trkpt lat="-25.87378645900672" lon="113.58670765033618"><ele>29.0</ele><time>2026-04-16T01:52:31Z</time></trkpt><trkpt lat="-25.873572461228658" lon="113.58694828528635"><ele>29.0</ele><time>2026-04-16T01:52:32Z</time></trkpt><trkpt lat="-25.87335683312483" lon="113.58718820585807"><ele>29.0</ele><time>2026-04-16T01:52:33Z</time></trkpt><trkpt lat="-25.87314237776141" lon="113.58742487859233"><ele>29.0</ele><time>2026-04-16T01:52:34Z</time></trkpt><trkpt lat="-25.87292762239539" lon="113.587660731223"><ele>29.0</ele><time>2026-04-16T01:52:35Z</time></trkpt><trkpt lat="-25.87271828711423" lon="113.5878933842603"><ele>30.5</ele><time>2026-04-16T01:52:36Z</time></trkpt><trkpt lat="-25.872509806819508" lon="113.58812612680885"><ele>32.0</ele><time>2026-04-16T01:52:37Z</time></trkpt><trkpt lat="-25.872303282361834" lon="113.58835709990834"><ele>32.0</ele><time>2026-04-16T01:52:38Z</time></trkpt><trkpt lat="-25.87209668929344" lon="113.588587602886"><ele>32.0</ele><time>2026-04-16T01:52:39Z</time></trkpt><trkpt lat="-25.871887393777737" lon="113.58882068234037"><ele>31.5</ele><time>2026-04-16T01:52:40Z</time></trkpt><trkpt lat="-25.871678295442454" lon="113.58905593259126"><ele>31.0</ele><time>2026-04-16T01:52:41Z</time></trkpt><trkpt lat="-25.87146802387581" lon="113.58929278951797"><ele>29.5</ele><time>2026-04-16T01:52:42Z</time></trkpt><trkpt lat="-25.87125580267347" lon="113.58953217533791"><ele>28.0</ele><time>2026-04-16T01:52:43Z</time></trkpt><trkpt lat="-25.87104348592527" lon="113.5897734069399"><ele>30.5</ele><time>2026-04-16T01:52:44Z</time></trkpt><trkpt lat="-25.870831742213362" lon="113.5900147871569"><ele>33.0</ele><time>2026-04-16T01:52:45Z</time></trkpt><trkpt lat="-25.87061624772096" lon="113.59025741518286"><ele>33.0</ele><time>2026-04-16T01:52:46Z</time></trkpt><trkpt lat="-25.87061624772096" lon="113.59025741518286"><ele>33.0</ele><time>2026-04-16T01:52:46Z</time></trkpt></trkseg></trk></gpx>